<?xml version='1.0' encoding='UTF-8'?><gpx version="1.1" creator="JPX - https://github.com/jenetics/jpx" xmlns="http://www.topografix.com/GPX/1/1"><trk><trkseg><trkpt lat="40.8936767" lon="14.2878817"><ele>80.0</ele><time>2026-05-02T12:03:12.303Z</time></trkpt><trkpt lat="40.8936133" lon="14.287935"><ele>80.0</ele><time>2026-05-02T12:03:15.303Z</time></trkpt><trkpt lat="40.893695" lon="14.2877812"><ele>80.0</ele><time>2026-05-02T12:03:59.131Z</time></trkpt><trkpt lat="40.8939791" lon="14.2878457"><ele>80.0</ele><time>2026-05-02T12:05:20.539Z</time></trkpt><trkpt lat="40.8938983" lon="14.2879883"><ele>80.0</ele><time>2026-05-02T12:05:39.302Z</time></trkpt><trkpt lat="40.893795" lon="14.287875"><ele>80.0</ele><time>2026-05-02T12:05:40.302Z</time></trkpt><trkpt lat="40.8938667" lon="14.2878583"><ele>80.0</ele><time>2026-05-02T12:05:47.301Z</time></trkpt><trkpt lat="40.8938917" lon="14.2877583"><ele>80.0</ele><time>2026-05-02T12:05:58.303Z</time></trkpt><trkpt lat="40.89388" lon="14.2876467"><ele>80.0</ele><time>2026-05-02T12:06:01.303Z</time></trkpt><trkpt lat="40.8938667" lon="14.2875433"><ele>80.0</ele><time>2026-05-02T12:06:03.302Z</time></trkpt><trkpt lat="40.8938533" lon="14.2874183"><ele>80.0</ele><time>2026-05-02T12:06:06.301Z</time></trkpt><trkpt lat="40.8938333" lon="14.2873367"><ele>80.0</ele><time>2026-05-02T12:06:08.301Z</time></trkpt><trkpt lat="40.8938117" lon="14.287245"><ele>80.0</ele><time>2026-05-02T12:06:10.301Z</time></trkpt><trkpt lat="40.8937917" lon="14.2871567"><ele>80.0</ele><time>2026-05-02T12:06:12.301Z</time></trkpt><trkpt lat="40.89377" lon="14.2870667"><ele>80.0</ele><time>2026-05-02T12:06:14.304Z</time></trkpt><trkpt lat="40.893745" lon="14.2869783"><ele>80.0</ele><time>2026-05-02T12:06:16.307Z</time></trkpt><trkpt lat="40.8937167" lon="14.28689"><ele>80.0</ele><time>2026-05-02T12:06:18.302Z</time></trkpt><trkpt lat="40.8937067" lon="14.286805"><ele>80.0</ele><time>2026-05-02T12:06:20.303Z</time></trkpt><trkpt lat="40.8936717" lon="14.2867183"><ele>80.0</ele><time>2026-05-02T12:06:22.304Z</time></trkpt><trkpt lat="40.8936383" lon="14.286625"><ele>80.0</ele><time>2026-05-02T12:06:24.302Z</time></trkpt><trkpt lat="40.8936067" lon="14.2865317"><ele>80.0</ele><time>2026-05-02T12:06:26.302Z</time></trkpt><trkpt lat="40.8935883" lon="14.2864433"><ele>80.14285714285714</ele><time>2026-05-02T12:06:28.302Z</time></trkpt><trkpt lat="40.8935683" lon="14.2863617"><ele>80.28571428571429</ele><time>2026-05-02T12:06:30.303Z</time></trkpt><trkpt lat="40.893535" lon="14.2862817"><ele>80.42857142857143</ele><time>2026-05-02T12:06:32.302Z</time></trkpt><trkpt lat="40.8934933" lon="14.28618"><ele>80.57142857142857</ele><time>2026-05-02T12:06:35.303Z</time></trkpt><trkpt lat="40.8934867" lon="14.2860883"><ele>80.71428571428571</ele><time>2026-05-02T12:06:38.302Z</time></trkpt><trkpt lat="40.8935567" lon="14.2860783"><ele>80.85714285714286</ele><time>2026-05-02T12:06:41.303Z</time></trkpt><trkpt lat="40.89362" lon="14.2860733"><ele>81.0</ele><time>2026-05-02T12:06:43.302Z</time></trkpt><trkpt lat="40.8936917" lon="14.2860733"><ele>81.0</ele><time>2026-05-02T12:06:45.302Z</time></trkpt><trkpt lat="40.8937617" lon="14.2860817"><ele>81.0</ele><time>2026-05-02T12:06:47.302Z</time></trkpt><trkpt lat="40.89383" lon="14.2860967"><ele>81.0</ele><time>2026-05-02T12:06:49.305Z</time></trkpt><trkpt lat="40.8939017" lon="14.2861133"><ele>81.0</ele><time>2026-05-02T12:06:51.302Z</time></trkpt><trkpt lat="40.893985" lon="14.2861233"><ele>81.0</ele><time>2026-05-02T12:06:53.302Z</time></trkpt><trkpt lat="40.8940567" lon="14.286135"><ele>81.0</ele><time>2026-05-02T12:06:55.303Z</time></trkpt><trkpt lat="40.894125" lon="14.28615"><ele>81.0</ele><time>2026-05-02T12:06:57.302Z</time></trkpt><trkpt lat="40.8941967" lon="14.2861567"><ele>80.85714285714286</ele><time>2026-05-02T12:06:59.302Z</time></trkpt><trkpt lat="40.8942633" lon="14.2861667"><ele>80.71428571428571</ele><time>2026-05-02T12:07:01.303Z</time></trkpt><trkpt lat="40.8943283" lon="14.2861683"><ele>80.57142857142857</ele><time>2026-05-02T12:07:03.301Z</time></trkpt><trkpt lat="40.894395" lon="14.28617"><ele>80.42857142857143</ele><time>2026-05-02T12:07:05.302Z</time></trkpt><trkpt lat="40.89446" lon="14.286175"><ele>80.28571428571429</ele><time>2026-05-02T12:07:07.302Z</time></trkpt><trkpt lat="40.89453" lon="14.2862"><ele>80.14285714285714</ele><time>2026-05-02T12:07:09.302Z</time></trkpt><trkpt lat="40.8945983" lon="14.2862183"><ele>80.0</ele><time>2026-05-02T12:07:11.302Z</time></trkpt><trkpt lat="40.8946633" lon="14.2862383"><ele>80.0</ele><time>2026-05-02T12:07:13.303Z</time></trkpt><trkpt lat="40.8947317" lon="14.286265"><ele>80.0</ele><time>2026-05-02T12:07:15.301Z</time></trkpt><trkpt lat="40.8947983" lon="14.2862983"><ele>80.0</ele><time>2026-05-02T12:07:17.302Z</time></trkpt><trkpt lat="40.8949067" lon="14.2863133"><ele>80.0</ele><time>2026-05-02T12:07:20.302Z</time></trkpt><trkpt lat="40.895035" lon="14.2863467"><ele>80.0</ele><time>2026-05-02T12:07:23.303Z</time></trkpt><trkpt lat="40.89512" lon="14.2863117"><ele>79.6</ele><time>2026-05-02T12:07:25.302Z</time></trkpt><trkpt lat="40.8952167" lon="14.2862767"><ele>79.2</ele><time>2026-05-02T12:07:27.302Z</time></trkpt><trkpt lat="40.89531" lon="14.286275"><ele>78.8</ele><time>2026-05-02T12:07:29.302Z</time></trkpt><trkpt lat="40.8954033" lon="14.28628"><ele>78.4</ele><time>2026-05-02T12:07:31.303Z</time></trkpt><trkpt lat="40.8954933" lon="14.28628"><ele>78.0</ele><time>2026-05-02T12:07:33.302Z</time></trkpt><trkpt lat="40.8955817" lon="14.28627"><ele>78.0</ele><time>2026-05-02T12:07:35.303Z</time></trkpt><trkpt lat="40.8956633" lon="14.2862717"><ele>78.0</ele><time>2026-05-02T12:07:37.303Z</time></trkpt><trkpt lat="40.895755" lon="14.2862917"><ele>78.0</ele><time>2026-05-02T12:07:39.302Z</time></trkpt><trkpt lat="40.8958467" lon="14.2863017"><ele>78.0</ele><time>2026-05-02T12:07:41.303Z</time></trkpt><trkpt lat="40.89594" lon="14.28631"><ele>78.0</ele><time>2026-05-02T12:07:43.303Z</time></trkpt><trkpt lat="40.896035" lon="14.2863217"><ele>78.33333333333333</ele><time>2026-05-02T12:07:45.302Z</time></trkpt><trkpt lat="40.8961183" lon="14.2863283"><ele>78.66666666666667</ele><time>2026-05-02T12:07:47.301Z</time></trkpt><trkpt lat="40.8961967" lon="14.286345"><ele>79.0</ele><time>2026-05-02T12:07:49.303Z</time></trkpt><trkpt lat="40.89628" lon="14.2863617"><ele>79.33333333333334</ele><time>2026-05-02T12:07:51.301Z</time></trkpt><trkpt lat="40.896365" lon="14.2863983"><ele>79.66666666666667</ele><time>2026-05-02T12:07:53.304Z</time></trkpt><trkpt lat="40.8964467" lon="14.2864267"><ele>80.0</ele><time>2026-05-02T12:07:55.303Z</time></trkpt><trkpt lat="40.8965267" lon="14.28645"><ele>80.0</ele><time>2026-05-02T12:07:57.301Z</time></trkpt><trkpt lat="40.8966017" lon="14.28646"><ele>80.0</ele><time>2026-05-02T12:07:59.302Z</time></trkpt><trkpt lat="40.89668" lon="14.2864483"><ele>80.0</ele><time>2026-05-02T12:08:01.303Z</time></trkpt><trkpt lat="40.8967517" lon="14.286405"><ele>80.0</ele><time>2026-05-02T12:08:03.302Z</time></trkpt><trkpt lat="40.8968183" lon="14.2863217"><ele>80.0</ele><time>2026-05-02T12:08:06.302Z</time></trkpt><trkpt lat="40.8968717" lon="14.28625"><ele>80.0</ele><time>2026-05-02T12:08:08.304Z</time></trkpt><trkpt lat="40.8969183" lon="14.2861783"><ele>80.33333333333334</ele><time>2026-05-02T12:08:10.302Z</time></trkpt><trkpt lat="40.896955" lon="14.2860967"><ele>80.66666666666667</ele><time>2026-05-02T12:08:12.302Z</time></trkpt><trkpt lat="40.8969933" lon="14.2860133"><ele>81.0</ele><time>2026-05-02T12:08:14.303Z</time></trkpt><trkpt lat="40.897035" lon="14.28593"><ele>81.33333333333333</ele><time>2026-05-02T12:08:16.302Z</time></trkpt><trkpt lat="40.89709" lon="14.2858517"><ele>81.66666666666666</ele><time>2026-05-02T12:08:18.302Z</time></trkpt><trkpt lat="40.8971467" lon="14.2857733"><ele>82.0</ele><time>2026-05-02T12:08:20.303Z</time></trkpt><trkpt lat="40.8972067" lon="14.2857083"><ele>82.0</ele><time>2026-05-02T12:08:22.302Z</time></trkpt><trkpt lat="40.8972683" lon="14.28563"><ele>82.0</ele><time>2026-05-02T12:08:24.302Z</time></trkpt><trkpt lat="40.897325" lon="14.2855517"><ele>82.0</ele><time>2026-05-02T12:08:26.302Z</time></trkpt><trkpt lat="40.8973767" lon="14.2854717"><ele>82.0</ele><time>2026-05-02T12:08:28.302Z</time></trkpt><trkpt lat="40.8974283" lon="14.2853867"><ele>82.0</ele><time>2026-05-02T12:08:30.309Z</time></trkpt><trkpt lat="40.8974783" lon="14.285305"><ele>82.0</ele><time>2026-05-02T12:08:32.302Z</time></trkpt><trkpt lat="40.8975333" lon="14.285225"><ele>81.66666666666666</ele><time>2026-05-02T12:08:34.302Z</time></trkpt><trkpt lat="40.8975933" lon="14.285145"><ele>81.33333333333333</ele><time>2026-05-02T12:08:36.302Z</time></trkpt><trkpt lat="40.89765" lon="14.2850533"><ele>81.0</ele><time>2026-05-02T12:08:38.302Z</time></trkpt><trkpt lat="40.89771" lon="14.28497"><ele>80.66666666666667</ele><time>2026-05-02T12:08:40.302Z</time></trkpt><trkpt lat="40.8977717" lon="14.2848883"><ele>80.33333333333334</ele><time>2026-05-02T12:08:42.302Z</time></trkpt><trkpt lat="40.8978267" lon="14.2847933"><ele>80.0</ele><time>2026-05-02T12:08:44.303Z</time></trkpt><trkpt lat="40.8978783" lon="14.28471"><ele>79.71428571428571</ele><time>2026-05-02T12:08:46.303Z</time></trkpt><trkpt lat="40.8979233" lon="14.2846267"><ele>79.42857142857143</ele><time>2026-05-02T12:08:48.303Z</time></trkpt><trkpt lat="40.8979583" lon="14.2845417"><ele>79.14285714285714</ele><time>2026-05-02T12:08:50.301Z</time></trkpt><trkpt lat="40.897995" lon="14.2844717"><ele>78.85714285714286</ele><time>2026-05-02T12:08:52.302Z</time></trkpt><trkpt lat="40.8980683" lon="14.284435"><ele>78.57142857142857</ele><time>2026-05-02T12:08:56.302Z</time></trkpt><trkpt lat="40.8981317" lon="14.2844983"><ele>78.28571428571429</ele><time>2026-05-02T12:08:59.303Z</time></trkpt><trkpt lat="40.89818" lon="14.2845617"><ele>78.0</ele><time>2026-05-02T12:09:01.302Z</time></trkpt><trkpt lat="40.8982333" lon="14.28463"><ele>78.0</ele><time>2026-05-02T12:09:03.304Z</time></trkpt><trkpt lat="40.8982867" lon="14.2846933"><ele>78.0</ele><time>2026-05-02T12:09:05.303Z</time></trkpt><trkpt lat="40.89834" lon="14.2847583"><ele>78.0</ele><time>2026-05-02T12:09:07.303Z</time></trkpt><trkpt lat="40.8984133" lon="14.284775"><ele>78.0</ele><time>2026-05-02T12:09:10.302Z</time></trkpt><trkpt lat="40.89847" lon="14.2847117"><ele>78.0</ele><time>2026-05-02T12:09:12.302Z</time></trkpt><trkpt lat="40.89852" lon="14.2846417"><ele>78.0</ele><time>2026-05-02T12:09:14.302Z</time></trkpt><trkpt lat="40.898575" lon="14.2845633"><ele>78.0</ele><time>2026-05-02T12:09:16.302Z</time></trkpt><trkpt lat="40.89864" lon="14.2844867"><ele>78.66666666666667</ele><time>2026-05-02T12:09:18.302Z</time></trkpt><trkpt lat="40.8987033" lon="14.284415"><ele>79.33333333333333</ele><time>2026-05-02T12:09:20.302Z</time></trkpt><trkpt lat="40.898765" lon="14.2843483"><ele>80.0</ele><time>2026-05-02T12:09:22.302Z</time></trkpt><trkpt lat="40.8988267" lon="14.2842933"><ele>80.66666666666666</ele><time>2026-05-02T12:09:24.302Z</time></trkpt><trkpt lat="40.8988883" lon="14.2842267"><ele>81.33333333333333</ele><time>2026-05-02T12:09:26.302Z</time></trkpt><trkpt lat="40.898955" lon="14.2841517"><ele>82.0</ele><time>2026-05-02T12:09:28.308Z</time></trkpt><trkpt lat="40.899025" lon="14.2840833"><ele>82.0</ele><time>2026-05-02T12:09:30.303Z</time></trkpt><trkpt lat="40.899095" lon="14.2840183"><ele>82.0</ele><time>2026-05-02T12:09:32.303Z</time></trkpt><trkpt lat="40.8991567" lon="14.2839383"><ele>82.0</ele><time>2026-05-02T12:09:34.304Z</time></trkpt><trkpt lat="40.8992167" lon="14.2838517"><ele>82.0</ele><time>2026-05-02T12:09:36.304Z</time></trkpt><trkpt lat="40.8992617" lon="14.2837717"><ele>82.0</ele><time>2026-05-02T12:09:38.303Z</time></trkpt><trkpt lat="40.8993167" lon="14.28371"><ele>82.0</ele><time>2026-05-02T12:09:40.302Z</time></trkpt><trkpt lat="40.89938" lon="14.2836467"><ele>82.16666666666666</ele><time>2026-05-02T12:09:42.302Z</time></trkpt><trkpt lat="40.8994333" lon="14.2835783"><ele>82.33333333333333</ele><time>2026-05-02T12:09:44.302Z</time></trkpt><trkpt lat="40.8994983" lon="14.2835217"><ele>82.5</ele><time>2026-05-02T12:09:46.304Z</time></trkpt><trkpt lat="40.899565" lon="14.28346"><ele>82.66666666666667</ele><time>2026-05-02T12:09:48.302Z</time></trkpt><trkpt lat="40.8996283" lon="14.2833933"><ele>82.83333333333334</ele><time>2026-05-02T12:09:50.302Z</time></trkpt><trkpt lat="40.8996983" lon="14.2833367"><ele>83.0</ele><time>2026-05-02T12:09:52.302Z</time></trkpt><trkpt lat="40.8997717" lon="14.2832767"><ele>83.0</ele><time>2026-05-02T12:09:54.303Z</time></trkpt><trkpt lat="40.8998433" lon="14.2832233"><ele>83.0</ele><time>2026-05-02T12:09:56.302Z</time></trkpt><trkpt lat="40.8999133" lon="14.2831583"><ele>83.0</ele><time>2026-05-02T12:09:58.302Z</time></trkpt><trkpt lat="40.899985" lon="14.2830917"><ele>83.0</ele><time>2026-05-02T12:10:00.303Z</time></trkpt><trkpt lat="40.9000633" lon="14.2830367"><ele>83.0</ele><time>2026-05-02T12:10:02.301Z</time></trkpt><trkpt lat="40.90013" lon="14.2829867"><ele>83.0</ele><time>2026-05-02T12:10:04.302Z</time></trkpt><trkpt lat="40.900185" lon="14.2829383"><ele>83.33333333333334</ele><time>2026-05-02T12:10:06.304Z</time></trkpt><trkpt lat="40.9002467" lon="14.2828917"><ele>83.66666666666667</ele><time>2026-05-02T12:10:08.302Z</time></trkpt><trkpt lat="40.9003133" lon="14.2828483"><ele>84.0</ele><time>2026-05-02T12:10:10.302Z</time></trkpt><trkpt lat="40.9003817" lon="14.2827933"><ele>84.33333333333333</ele><time>2026-05-02T12:10:12.302Z</time></trkpt><trkpt lat="40.9004467" lon="14.2827367"><ele>84.66666666666666</ele><time>2026-05-02T12:10:14.302Z</time></trkpt><trkpt lat="40.9005133" lon="14.28268"><ele>85.0</ele><time>2026-05-02T12:10:16.303Z</time></trkpt><trkpt lat="40.9005833" lon="14.2826267"><ele>85.0</ele><time>2026-05-02T12:10:18.302Z</time></trkpt><trkpt lat="40.9006483" lon="14.28256"><ele>85.0</ele><time>2026-05-02T12:10:20.302Z</time></trkpt><trkpt lat="40.9007183" lon="14.2824967"><ele>85.0</ele><time>2026-05-02T12:10:22.302Z</time></trkpt><trkpt lat="40.900785" lon="14.28244"><ele>85.0</ele><time>2026-05-02T12:10:24.302Z</time></trkpt><trkpt lat="40.9008533" lon="14.28239"><ele>85.0</ele><time>2026-05-02T12:10:26.302Z</time></trkpt><trkpt lat="40.9009217" lon="14.282325"><ele>85.0</ele><time>2026-05-02T12:10:28.301Z</time></trkpt><trkpt lat="40.9009833" lon="14.28226"><ele>85.0</ele><time>2026-05-02T12:10:30.303Z</time></trkpt><trkpt lat="40.901045" lon="14.2822017"><ele>85.0</ele><time>2026-05-02T12:10:32.302Z</time></trkpt><trkpt lat="40.9011183" lon="14.2821383"><ele>85.0</ele><time>2026-05-02T12:10:34.302Z</time></trkpt><trkpt lat="40.901195" lon="14.2820817"><ele>85.0</ele><time>2026-05-02T12:10:36.302Z</time></trkpt><trkpt lat="40.9012583" lon="14.282015"><ele>85.0</ele><time>2026-05-02T12:10:38.302Z</time></trkpt><trkpt lat="40.9013283" lon="14.281965"><ele>85.0</ele><time>2026-05-02T12:10:40.302Z</time></trkpt><trkpt lat="40.9014033" lon="14.2819167"><ele>85.0</ele><time>2026-05-02T12:10:42.302Z</time></trkpt><trkpt lat="40.901455" lon="14.281865"><ele>85.0</ele><time>2026-05-02T12:10:44.303Z</time></trkpt><trkpt lat="40.901515" lon="14.2818067"><ele>85.0</ele><time>2026-05-02T12:10:46.303Z</time></trkpt><trkpt lat="40.9015717" lon="14.2817467"><ele>85.0</ele><time>2026-05-02T12:10:48.303Z</time></trkpt><trkpt lat="40.9016167" lon="14.2816867"><ele>85.0</ele><time>2026-05-02T12:10:50.302Z</time></trkpt><trkpt lat="40.9016917" lon="14.2816133"><ele>85.0</ele><time>2026-05-02T12:10:54.305Z</time></trkpt><trkpt lat="40.9017617" lon="14.2816017"><ele>85.0</ele><time>2026-05-02T12:10:56.302Z</time></trkpt><trkpt lat="40.9018317" lon="14.2815683"><ele>85.0</ele><time>2026-05-02T12:10:58.302Z</time></trkpt><trkpt lat="40.901885" lon="14.28152"><ele>85.0</ele><time>2026-05-02T12:11:00.304Z</time></trkpt><trkpt lat="40.9019483" lon="14.28146"><ele>85.0</ele><time>2026-05-02T12:11:02.303Z</time></trkpt><trkpt lat="40.902015" lon="14.2814"><ele>85.0</ele><time>2026-05-02T12:11:04.303Z</time></trkpt><trkpt lat="40.90208" lon="14.28135"><ele>85.0</ele><time>2026-05-02T12:11:06.303Z</time></trkpt><trkpt lat="40.9021533" lon="14.2813117"><ele>85.0</ele><time>2026-05-02T12:11:08.303Z</time></trkpt><trkpt lat="40.9022367" lon="14.28127"><ele>84.2</ele><time>2026-05-02T12:11:10.306Z</time></trkpt><trkpt lat="40.90234" lon="14.2812117"><ele>83.4</ele><time>2026-05-02T12:11:13.303Z</time></trkpt><trkpt lat="40.9024267" lon="14.28115"><ele>82.6</ele><time>2026-05-02T12:11:16.302Z</time></trkpt><trkpt lat="40.9024967" lon="14.2811083"><ele>81.8</ele><time>2026-05-02T12:11:18.302Z</time></trkpt><trkpt lat="40.90257" lon="14.2810633"><ele>81.0</ele><time>2026-05-02T12:11:20.303Z</time></trkpt><trkpt lat="40.9026533" lon="14.2810317"><ele>80.83333333333333</ele><time>2026-05-02T12:11:22.303Z</time></trkpt><trkpt lat="40.9027533" lon="14.28102"><ele>80.66666666666667</ele><time>2026-05-02T12:11:24.301Z</time></trkpt><trkpt lat="40.90284" lon="14.2810017"><ele>80.5</ele><time>2026-05-02T12:11:26.302Z</time></trkpt><trkpt lat="40.9029133" lon="14.2809933"><ele>80.33333333333334</ele><time>2026-05-02T12:11:28.303Z</time></trkpt><trkpt lat="40.9029917" lon="14.280995"><ele>80.16666666666667</ele><time>2026-05-02T12:11:30.303Z</time></trkpt><trkpt lat="40.9030667" lon="14.281"><ele>80.0</ele><time>2026-05-02T12:11:32.302Z</time></trkpt><trkpt lat="40.90314" lon="14.281005"><ele>80.0</ele><time>2026-05-02T12:11:34.303Z</time></trkpt><trkpt lat="40.903215" lon="14.2810133"><ele>80.0</ele><time>2026-05-02T12:11:36.302Z</time></trkpt><trkpt lat="40.903285" lon="14.2810217"><ele>80.0</ele><time>2026-05-02T12:11:38.302Z</time></trkpt><trkpt lat="40.9033533" lon="14.2810183"><ele>80.0</ele><time>2026-05-02T12:11:40.302Z</time></trkpt><trkpt lat="40.9034333" lon="14.2810017"><ele>80.0</ele><time>2026-05-02T12:11:43.304Z</time></trkpt><trkpt lat="40.9034833" lon="14.2809117"><ele>80.0</ele><time>2026-05-02T12:11:47.302Z</time></trkpt><trkpt lat="40.9034917" lon="14.2808133"><ele>80.16666666666667</ele><time>2026-05-02T12:11:49.303Z</time></trkpt><trkpt lat="40.90347" lon="14.2807233"><ele>80.33333333333334</ele><time>2026-05-02T12:11:51.302Z</time></trkpt><trkpt lat="40.9034483" lon="14.2806433"><ele>80.5</ele><time>2026-05-02T12:11:53.304Z</time></trkpt><trkpt lat="40.903415" lon="14.280555"><ele>80.66666666666667</ele><time>2026-05-02T12:11:55.303Z</time></trkpt><trkpt lat="40.9033917" lon="14.2804667"><ele>80.83333333333333</ele><time>2026-05-02T12:11:57.302Z</time></trkpt><trkpt lat="40.9033433" lon="14.2803533"><ele>81.0</ele><time>2026-05-02T12:11:59.303Z</time></trkpt><trkpt lat="40.9032917" lon="14.280235"><ele>81.0</ele><time>2026-05-02T12:12:01.303Z</time></trkpt><trkpt lat="40.9032517" lon="14.28013"><ele>81.0</ele><time>2026-05-02T12:12:03.303Z</time></trkpt><trkpt lat="40.90321" lon="14.2800317"><ele>81.0</ele><time>2026-05-02T12:12:05.303Z</time></trkpt><trkpt lat="40.9031717" lon="14.2799267"><ele>81.0</ele><time>2026-05-02T12:12:07.303Z</time></trkpt><trkpt lat="40.9031283" lon="14.2798217"><ele>81.0</ele><time>2026-05-02T12:12:09.303Z</time></trkpt><trkpt lat="40.90309" lon="14.2797133"><ele>81.0</ele><time>2026-05-02T12:12:11.304Z</time></trkpt><trkpt lat="40.9030583" lon="14.2796133"><ele>81.0</ele><time>2026-05-02T12:12:13.303Z</time></trkpt><trkpt lat="40.9030217" lon="14.27949"><ele>81.0</ele><time>2026-05-02T12:12:16.306Z</time></trkpt><trkpt lat="40.9030017" lon="14.2793933"><ele>81.0</ele><time>2026-05-02T12:12:18.303Z</time></trkpt><trkpt lat="40.902975" lon="14.2793"><ele>81.0</ele><time>2026-05-02T12:12:20.302Z</time></trkpt><trkpt lat="40.90294" lon="14.2792083"><ele>81.0</ele><time>2026-05-02T12:12:22.302Z</time></trkpt><trkpt lat="40.9029033" lon="14.2791167"><ele>81.0</ele><time>2026-05-02T12:12:24.302Z</time></trkpt><trkpt lat="40.9028717" lon="14.2790233"><ele>80.83333333333333</ele><time>2026-05-02T12:12:26.301Z</time></trkpt><trkpt lat="40.9028417" lon="14.2789267"><ele>80.66666666666667</ele><time>2026-05-02T12:12:28.302Z</time></trkpt><trkpt lat="40.9028017" lon="14.278825"><ele>80.5</ele><time>2026-05-02T12:12:30.302Z</time></trkpt><trkpt lat="40.9027683" lon="14.2787217"><ele>80.33333333333334</ele><time>2026-05-02T12:12:32.303Z</time></trkpt><trkpt lat="40.9027317" lon="14.2786233"><ele>80.16666666666667</ele><time>2026-05-02T12:12:34.302Z</time></trkpt><trkpt lat="40.9026917" lon="14.2785283"><ele>80.0</ele><time>2026-05-02T12:12:36.302Z</time></trkpt><trkpt lat="40.90265" lon="14.2784333"><ele>80.0</ele><time>2026-05-02T12:12:38.304Z</time></trkpt><trkpt lat="40.90261" lon="14.27834"><ele>80.0</ele><time>2026-05-02T12:12:40.303Z</time></trkpt><trkpt lat="40.9025783" lon="14.2782433"><ele>80.0</ele><time>2026-05-02T12:12:42.302Z</time></trkpt><trkpt lat="40.9025417" lon="14.2781417"><ele>80.0</ele><time>2026-05-02T12:12:44.306Z</time></trkpt><trkpt lat="40.9025067" lon="14.2780417"><ele>80.0</ele><time>2026-05-02T12:12:46.303Z</time></trkpt><trkpt lat="40.9024683" lon="14.27794"><ele>80.0</ele><time>2026-05-02T12:12:48.303Z</time></trkpt><trkpt lat="40.902425" lon="14.2778317"><ele>80.16666666666667</ele><time>2026-05-02T12:12:50.304Z</time></trkpt><trkpt lat="40.9023867" lon="14.2777317"><ele>80.33333333333334</ele><time>2026-05-02T12:12:52.304Z</time></trkpt><trkpt lat="40.902345" lon="14.2776267"><ele>80.5</ele><time>2026-05-02T12:12:54.304Z</time></trkpt><trkpt lat="40.9023083" lon="14.2775233"><ele>80.66666666666667</ele><time>2026-05-02T12:12:56.303Z</time></trkpt><trkpt lat="40.902275" lon="14.2774233"><ele>80.83333333333333</ele><time>2026-05-02T12:12:58.304Z</time></trkpt><trkpt lat="40.90225" lon="14.27733"><ele>81.0</ele><time>2026-05-02T12:13:00.303Z</time></trkpt><trkpt lat="40.90223" lon="14.277245"><ele>81.0</ele><time>2026-05-02T12:13:03.302Z</time></trkpt><trkpt lat="40.9022" lon="14.2771633"><ele>81.0</ele><time>2026-05-02T12:13:10.306Z</time></trkpt><trkpt lat="40.9021717" lon="14.2770733"><ele>81.0</ele><time>2026-05-02T12:13:17.304Z</time></trkpt><trkpt lat="40.9021383" lon="14.2769833"><ele>81.0</ele><time>2026-05-02T12:13:19.304Z</time></trkpt><trkpt lat="40.9021067" lon="14.2768967"><ele>81.0</ele><time>2026-05-02T12:13:21.304Z</time></trkpt><trkpt lat="40.9020883" lon="14.2768067"><ele>81.0</ele><time>2026-05-02T12:13:23.303Z</time></trkpt><trkpt lat="40.9020667" lon="14.27672"><ele>81.0</ele><time>2026-05-02T12:13:25.306Z</time></trkpt><trkpt lat="40.902045" lon="14.2766283"><ele>81.0</ele><time>2026-05-02T12:13:27.303Z</time></trkpt><trkpt lat="40.90201" lon="14.2765433"><ele>81.0</ele><time>2026-05-02T12:13:29.302Z</time></trkpt><trkpt lat="40.901975" lon="14.276455"><ele>81.0</ele><time>2026-05-02T12:13:31.307Z</time></trkpt><trkpt lat="40.90194" lon="14.2763667"><ele>81.0</ele><time>2026-05-02T12:13:33.303Z</time></trkpt><trkpt lat="40.9019067" lon="14.2762817"><ele>81.0</ele><time>2026-05-02T12:13:35.303Z</time></trkpt><trkpt lat="40.9018783" lon="14.2762017"><ele>81.0</ele><time>2026-05-02T12:13:37.303Z</time></trkpt><trkpt lat="40.9018433" lon="14.2760883"><ele>80.66666666666667</ele><time>2026-05-02T12:13:40.304Z</time></trkpt><trkpt lat="40.9018067" lon="14.276"><ele>80.33333333333333</ele><time>2026-05-02T12:13:42.302Z</time></trkpt><trkpt lat="40.9017733" lon="14.2759183"><ele>80.0</ele><time>2026-05-02T12:13:44.303Z</time></trkpt><trkpt lat="40.9017383" lon="14.2758267"><ele>79.66666666666666</ele><time>2026-05-02T12:13:46.302Z</time></trkpt><trkpt lat="40.901695" lon="14.27574"><ele>79.33333333333333</ele><time>2026-05-02T12:13:48.303Z</time></trkpt><trkpt lat="40.901655" lon="14.2756517"><ele>79.0</ele><time>2026-05-02T12:13:50.303Z</time></trkpt><trkpt lat="40.901615" lon="14.2755583"><ele>80.0</ele><time>2026-05-02T12:13:52.303Z</time></trkpt><trkpt lat="40.9015617" lon="14.2754417"><ele>81.0</ele><time>2026-05-02T12:13:54.302Z</time></trkpt><trkpt lat="40.90153" lon="14.275355"><ele>82.0</ele><time>2026-05-02T12:13:56.304Z</time></trkpt><trkpt lat="40.9015033" lon="14.275265"><ele>83.0</ele><time>2026-05-02T12:13:58.302Z</time></trkpt><trkpt lat="40.9014683" lon="14.2751833"><ele>84.0</ele><time>2026-05-02T12:14:00.303Z</time></trkpt><trkpt lat="40.9014333" lon="14.27508"><ele>85.0</ele><time>2026-05-02T12:14:03.306Z</time></trkpt><trkpt lat="40.9014083" lon="14.2749917"><ele>85.0</ele><time>2026-05-02T12:14:06.303Z</time></trkpt><trkpt lat="40.90136" lon="14.2748967"><ele>85.0</ele><time>2026-05-02T12:14:09.303Z</time></trkpt><trkpt lat="40.901335" lon="14.2748167"><ele>85.0</ele><time>2026-05-02T12:14:11.303Z</time></trkpt><trkpt lat="40.9013167" lon="14.2747333"><ele>85.0</ele><time>2026-05-02T12:14:13.301Z</time></trkpt><trkpt lat="40.9012817" lon="14.2746417"><ele>85.0</ele><time>2026-05-02T12:14:15.301Z</time></trkpt><trkpt lat="40.9012417" lon="14.2745467"><ele>85.0</ele><time>2026-05-02T12:14:17.302Z</time></trkpt><trkpt lat="40.901205" lon="14.2744533"><ele>85.0</ele><time>2026-05-02T12:14:19.302Z</time></trkpt><trkpt lat="40.9011667" lon="14.2743833"><ele>85.0</ele><time>2026-05-02T12:14:21.301Z</time></trkpt><trkpt lat="40.90112" lon="14.2742767"><ele>85.0</ele><time>2026-05-02T12:14:24.303Z</time></trkpt><trkpt lat="40.9010933" lon="14.2742"><ele>85.0</ele><time>2026-05-02T12:14:26.302Z</time></trkpt><trkpt lat="40.901055" lon="14.2741233"><ele>85.0</ele><time>2026-05-02T12:14:28.302Z</time></trkpt><trkpt lat="40.90102" lon="14.27403"><ele>85.0</ele><time>2026-05-02T12:14:30.301Z</time></trkpt><trkpt lat="40.901" lon="14.2739317"><ele>85.0</ele><time>2026-05-02T12:14:32.306Z</time></trkpt><trkpt lat="40.9009617" lon="14.2738367"><ele>85.0</ele><time>2026-05-02T12:14:34.303Z</time></trkpt><trkpt lat="40.9009233" lon="14.2737517"><ele>85.0</ele><time>2026-05-02T12:14:36.302Z</time></trkpt><trkpt lat="40.9009" lon="14.27367"><ele>85.0</ele><time>2026-05-02T12:14:38.302Z</time></trkpt><trkpt lat="40.9008517" lon="14.2735717"><ele>85.0</ele><time>2026-05-02T12:14:41.302Z</time></trkpt><trkpt lat="40.90081" lon="14.2734883"><ele>85.0</ele><time>2026-05-02T12:14:43.302Z</time></trkpt><trkpt lat="40.900775" lon="14.273405"><ele>85.0</ele><time>2026-05-02T12:14:45.301Z</time></trkpt><trkpt lat="40.90074" lon="14.2733233"><ele>85.0</ele><time>2026-05-02T12:14:47.303Z</time></trkpt><trkpt lat="40.90071" lon="14.2732417"><ele>85.42857142857143</ele><time>2026-05-02T12:14:49.303Z</time></trkpt><trkpt lat="40.9006783" lon="14.2731567"><ele>85.85714285714285</ele><time>2026-05-02T12:14:51.304Z</time></trkpt><trkpt lat="40.9006467" lon="14.273065"><ele>86.28571428571428</ele><time>2026-05-02T12:14:53.303Z</time></trkpt><trkpt lat="40.90061" lon="14.2729667"><ele>86.71428571428572</ele><time>2026-05-02T12:14:55.303Z</time></trkpt><trkpt lat="40.900575" lon="14.2728833"><ele>87.14285714285714</ele><time>2026-05-02T12:14:57.301Z</time></trkpt><trkpt lat="40.9005367" lon="14.2728083"><ele>87.57142857142857</ele><time>2026-05-02T12:14:59.303Z</time></trkpt><trkpt lat="40.9005017" lon="14.2727267"><ele>88.0</ele><time>2026-05-02T12:15:01.302Z</time></trkpt><trkpt lat="40.9004667" lon="14.272635"><ele>88.14285714285714</ele><time>2026-05-02T12:15:03.302Z</time></trkpt><trkpt lat="40.9004367" lon="14.2725533"><ele>88.28571428571428</ele><time>2026-05-02T12:15:05.302Z</time></trkpt><trkpt lat="40.9004017" lon="14.2724633"><ele>88.42857142857142</ele><time>2026-05-02T12:15:07.302Z</time></trkpt><trkpt lat="40.9003683" lon="14.2723767"><ele>88.57142857142857</ele><time>2026-05-02T12:15:09.301Z</time></trkpt><trkpt lat="40.9003383" lon="14.2722917"><ele>88.71428571428571</ele><time>2026-05-02T12:15:11.303Z</time></trkpt><trkpt lat="40.90031" lon="14.2722067"><ele>88.85714285714285</ele><time>2026-05-02T12:15:13.302Z</time></trkpt><trkpt lat="40.9002767" lon="14.2721283"><ele>89.0</ele><time>2026-05-02T12:15:15.302Z</time></trkpt><trkpt lat="40.9002367" lon="14.2720517"><ele>88.99999999999999</ele><time>2026-05-02T12:15:17.303Z</time></trkpt><trkpt lat="40.9001983" lon="14.2719767"><ele>89.0</ele><time>2026-05-02T12:15:19.304Z</time></trkpt><trkpt lat="40.90016" lon="14.27189"><ele>89.0</ele><time>2026-05-02T12:15:21.301Z</time></trkpt><trkpt lat="40.9001283" lon="14.2718033"><ele>89.0</ele><time>2026-05-02T12:15:23.304Z</time></trkpt><trkpt lat="40.900085" lon="14.2717117"><ele>89.0</ele><time>2026-05-02T12:15:25.303Z</time></trkpt><trkpt lat="40.90005" lon="14.2716283"><ele>88.99999999999999</ele><time>2026-05-02T12:15:27.303Z</time></trkpt><trkpt lat="40.90002" lon="14.2715367"><ele>89.0</ele><time>2026-05-02T12:15:29.303Z</time></trkpt><trkpt lat="40.899985" lon="14.2714483"><ele>89.16666666666667</ele><time>2026-05-02T12:15:31.303Z</time></trkpt><trkpt lat="40.899955" lon="14.2713617"><ele>89.33333333333334</ele><time>2026-05-02T12:15:33.301Z</time></trkpt><trkpt lat="40.8999267" lon="14.271285"><ele>89.5</ele><time>2026-05-02T12:15:35.303Z</time></trkpt><trkpt lat="40.8998867" lon="14.2711767"><ele>89.66666666666667</ele><time>2026-05-02T12:15:37.303Z</time></trkpt><trkpt lat="40.899845" lon="14.2710867"><ele>89.83333333333333</ele><time>2026-05-02T12:15:39.302Z</time></trkpt><trkpt lat="40.8998067" lon="14.27101"><ele>90.0</ele><time>2026-05-02T12:15:41.303Z</time></trkpt><trkpt lat="40.8997733" lon="14.27092"><ele>90.0</ele><time>2026-05-02T12:15:43.303Z</time></trkpt><trkpt lat="40.89974" lon="14.27084"><ele>90.0</ele><time>2026-05-02T12:15:45.302Z</time></trkpt><trkpt lat="40.899705" lon="14.2707633"><ele>90.0</ele><time>2026-05-02T12:15:47.301Z</time></trkpt><trkpt lat="40.89968" lon="14.270675"><ele>90.0</ele><time>2026-05-02T12:15:49.302Z</time></trkpt><trkpt lat="40.8996467" lon="14.2705917"><ele>90.0</ele><time>2026-05-02T12:15:51.302Z</time></trkpt><trkpt lat="40.8996117" lon="14.2705067"><ele>90.0</ele><time>2026-05-02T12:15:53.303Z</time></trkpt><trkpt lat="40.8995733" lon="14.2704183"><ele>90.0</ele><time>2026-05-02T12:15:55.302Z</time></trkpt><trkpt lat="40.89954" lon="14.27033"><ele>90.0</ele><time>2026-05-02T12:15:57.303Z</time></trkpt><trkpt lat="40.8995067" lon="14.2702317"><ele>90.0</ele><time>2026-05-02T12:15:59.302Z</time></trkpt><trkpt lat="40.89947" lon="14.270135"><ele>90.0</ele><time>2026-05-02T12:16:01.302Z</time></trkpt><trkpt lat="40.8994317" lon="14.27004"><ele>90.0</ele><time>2026-05-02T12:16:03.302Z</time></trkpt><trkpt lat="40.8994067" lon="14.269945"><ele>90.0</ele><time>2026-05-02T12:16:05.303Z</time></trkpt><trkpt lat="40.8993767" lon="14.269865"><ele>90.0</ele><time>2026-05-02T12:16:07.303Z</time></trkpt><trkpt lat="40.8993383" lon="14.269775"><ele>89.71428571428571</ele><time>2026-05-02T12:16:10.301Z</time></trkpt><trkpt lat="40.8992983" lon="14.2697033"><ele>89.42857142857143</ele><time>2026-05-02T12:16:13.303Z</time></trkpt><trkpt lat="40.899265" lon="14.26962"><ele>89.14285714285714</ele><time>2026-05-02T12:16:16.302Z</time></trkpt><trkpt lat="40.89926" lon="14.2695333"><ele>88.85714285714286</ele><time>2026-05-02T12:16:19.303Z</time></trkpt><trkpt lat="40.89929" lon="14.269455"><ele>88.57142857142857</ele><time>2026-05-02T12:16:22.302Z</time></trkpt><trkpt lat="40.899295" lon="14.269355"><ele>88.28571428571429</ele><time>2026-05-02T12:16:26.302Z</time></trkpt><trkpt lat="40.899285" lon="14.2692567"><ele>88.0</ele><time>2026-05-02T12:16:30.301Z</time></trkpt><trkpt lat="40.89929" lon="14.2693467"><ele>88.0</ele><time>2026-05-02T12:16:39.302Z</time></trkpt><trkpt lat="40.8993033" lon="14.2694417"><ele>88.0</ele><time>2026-05-02T12:16:43.303Z</time></trkpt><trkpt lat="40.8993167" lon="14.269535"><ele>88.0</ele><time>2026-05-02T12:16:48.302Z</time></trkpt></trkseg><trkseg><trkpt lat="40.8992733" lon="14.269575"><ele>88.0</ele><time>2026-05-02T12:27:31.304Z</time></trkpt><trkpt lat="40.899255" lon="14.26967"><ele>88.0</ele><time>2026-05-02T12:27:36.303Z</time></trkpt><trkpt lat="40.8992217" lon="14.269745"><ele>88.0</ele><time>2026-05-02T12:27:42.302Z</time></trkpt><trkpt lat="40.8992767" lon="14.269815"><ele>88.0</ele><time>2026-05-02T12:27:46.304Z</time></trkpt><trkpt lat="40.899335" lon="14.26986"><ele>88.0</ele><time>2026-05-02T12:27:51.306Z</time></trkpt><trkpt lat="40.8993983" lon="14.2698183"><ele>88.0</ele><time>2026-05-02T12:27:55.304Z</time></trkpt><trkpt lat="40.8993817" lon="14.2697267"><ele>88.0</ele><time>2026-05-02T12:28:02.304Z</time></trkpt><trkpt lat="40.8993367" lon="14.2696583"><ele>88.0</ele><time>2026-05-02T12:28:07.306Z</time></trkpt><trkpt lat="40.899305" lon="14.269585"><ele>88.0</ele><time>2026-05-02T12:28:12.302Z</time></trkpt><trkpt lat="40.899295" lon="14.2694783"><ele>88.0</ele><time>2026-05-02T12:28:17.302Z</time></trkpt><trkpt lat="40.8992833" lon="14.2693883"><ele>88.0</ele><time>2026-05-02T12:28:21.303Z</time></trkpt><trkpt lat="40.89928" lon="14.2692883"><ele>88.0</ele><time>2026-05-02T12:28:26.303Z</time></trkpt><trkpt lat="40.89928" lon="14.269205"><ele>88.0</ele><time>2026-05-02T12:28:31.303Z</time></trkpt><trkpt lat="40.8992917" lon="14.2693083"><ele>88.0</ele><time>2026-05-02T12:28:40.303Z</time></trkpt><trkpt lat="40.8993017" lon="14.269405"><ele>88.0</ele><time>2026-05-02T12:28:44.303Z</time></trkpt><trkpt lat="40.8993133" lon="14.269505"><ele>88.0</ele><time>2026-05-02T12:28:48.303Z</time></trkpt><trkpt lat="40.89934" lon="14.2696"><ele>88.0</ele><time>2026-05-02T12:28:52.303Z</time></trkpt><trkpt lat="40.89937" lon="14.26968"><ele>88.0</ele><time>2026-05-02T12:28:57.303Z</time></trkpt><trkpt lat="40.8993317" lon="14.2697467"><ele>88.0</ele><time>2026-05-02T12:29:04.302Z</time></trkpt><trkpt lat="40.8993983" lon="14.2697783"><ele>88.0</ele><time>2026-05-02T12:29:09.304Z</time></trkpt><trkpt lat="40.89938" lon="14.2696883"><ele>88.0</ele><time>2026-05-02T12:29:15.306Z</time></trkpt><trkpt lat="40.89934" lon="14.2696133"><ele>88.0</ele><time>2026-05-02T12:29:19.303Z</time></trkpt><trkpt lat="40.8993067" lon="14.2695367"><ele>88.0</ele><time>2026-05-02T12:29:24.306Z</time></trkpt><trkpt lat="40.8992967" lon="14.2694367"><ele>88.0</ele><time>2026-05-02T12:29:29.303Z</time></trkpt><trkpt lat="40.8992783" lon="14.2693417"><ele>88.0</ele><time>2026-05-02T12:29:34.304Z</time></trkpt><trkpt lat="40.89927" lon="14.269255"><ele>88.0</ele><time>2026-05-02T12:29:38.302Z</time></trkpt><trkpt lat="40.8992617" lon="14.269165"><ele>88.0</ele><time>2026-05-02T12:33:12.301Z</time></trkpt><trkpt lat="40.8992717" lon="14.2690517"><ele>88.0</ele><time>2026-05-02T12:33:17.303Z</time></trkpt><trkpt lat="40.8992817" lon="14.2689467"><ele>88.0</ele><time>2026-05-02T12:33:19.302Z</time></trkpt><trkpt lat="40.8992967" lon="14.268835"><ele>88.0</ele><time>2026-05-02T12:33:21.302Z</time></trkpt><trkpt lat="40.899325" lon="14.2687117"><ele>88.0</ele><time>2026-05-02T12:33:23.303Z</time></trkpt><trkpt lat="40.8993667" lon="14.2685833"><ele>88.0</ele><time>2026-05-02T12:33:25.303Z</time></trkpt><trkpt lat="40.8994217" lon="14.2684567"><ele>88.0</ele><time>2026-05-02T12:33:27.302Z</time></trkpt><trkpt lat="40.8994883" lon="14.2683367"><ele>88.0</ele><time>2026-05-02T12:33:29.303Z</time></trkpt><trkpt lat="40.8995633" lon="14.2682183"><ele>88.0</ele><time>2026-05-02T12:33:31.303Z</time></trkpt><trkpt lat="40.899645" lon="14.2681"><ele>88.0</ele><time>2026-05-02T12:33:33.303Z</time></trkpt><trkpt lat="40.8997317" lon="14.2679833"><ele>88.0</ele><time>2026-05-02T12:33:35.303Z</time></trkpt><trkpt lat="40.899775" lon="14.2679217"><ele>88.0</ele><time>2026-05-02T12:33:36.303Z</time></trkpt><trkpt lat="40.8998167" lon="14.2678583"><ele>88.0</ele><time>2026-05-02T12:33:37.305Z</time></trkpt><trkpt lat="40.8998617" lon="14.267795"><ele>88.0</ele><time>2026-05-02T12:33:38.304Z</time></trkpt><trkpt lat="40.8999067" lon="14.2677283"><ele>88.0</ele><time>2026-05-02T12:33:39.303Z</time></trkpt><trkpt lat="40.8999517" lon="14.2676633"><ele>88.0</ele><time>2026-05-02T12:33:40.303Z</time></trkpt><trkpt lat="40.8999967" lon="14.2675983"><ele>88.0</ele><time>2026-05-02T12:33:41.303Z</time></trkpt><trkpt lat="40.900045" lon="14.2675317"><ele>88.0</ele><time>2026-05-02T12:33:42.303Z</time></trkpt><trkpt lat="40.9000933" lon="14.2674633"><ele>88.0</ele><time>2026-05-02T12:33:43.306Z</time></trkpt><trkpt lat="40.90014" lon="14.2673967"><ele>88.0</ele><time>2026-05-02T12:33:44.303Z</time></trkpt><trkpt lat="40.9001883" lon="14.267325"><ele>88.0</ele><time>2026-05-02T12:33:45.303Z</time></trkpt><trkpt lat="40.9002367" lon="14.2672517"><ele>88.0</ele><time>2026-05-02T12:33:46.303Z</time></trkpt><trkpt lat="40.900285" lon="14.2671817"><ele>88.0</ele><time>2026-05-02T12:33:47.303Z</time></trkpt><trkpt lat="40.90033" lon="14.2671117"><ele>88.0</ele><time>2026-05-02T12:33:48.303Z</time></trkpt><trkpt lat="40.9003783" lon="14.26704"><ele>88.0</ele><time>2026-05-02T12:33:49.304Z</time></trkpt><trkpt lat="40.900425" lon="14.2669717"><ele>88.0</ele><time>2026-05-02T12:33:50.302Z</time></trkpt><trkpt lat="40.9004767" lon="14.2668983"><ele>88.0</ele><time>2026-05-02T12:33:51.306Z</time></trkpt><trkpt lat="40.9005267" lon="14.266825"><ele>88.0</ele><time>2026-05-02T12:33:52.303Z</time></trkpt><trkpt lat="40.900575" lon="14.2667533"><ele>88.0</ele><time>2026-05-02T12:33:53.303Z</time></trkpt><trkpt lat="40.9006217" lon="14.266685"><ele>88.0</ele><time>2026-05-02T12:33:54.302Z</time></trkpt><trkpt lat="40.90067" lon="14.266615"><ele>88.0</ele><time>2026-05-02T12:33:55.303Z</time></trkpt><trkpt lat="40.90072" lon="14.2665467"><ele>88.0</ele><time>2026-05-02T12:33:56.302Z</time></trkpt><trkpt lat="40.9007733" lon="14.266475"><ele>88.0</ele><time>2026-05-02T12:33:57.302Z</time></trkpt><trkpt lat="40.900825" lon="14.2664033"><ele>88.14285714285714</ele><time>2026-05-02T12:33:58.303Z</time></trkpt><trkpt lat="40.9008733" lon="14.2663317"><ele>88.28571428571428</ele><time>2026-05-02T12:33:59.303Z</time></trkpt><trkpt lat="40.900925" lon="14.2662583"><ele>88.42857142857142</ele><time>2026-05-02T12:34:00.303Z</time></trkpt><trkpt lat="40.9009783" lon="14.2661867"><ele>88.57142857142857</ele><time>2026-05-02T12:34:01.303Z</time></trkpt><trkpt lat="40.90103" lon="14.2661183"><ele>88.71428571428571</ele><time>2026-05-02T12:34:02.303Z</time></trkpt><trkpt lat="40.9010833" lon="14.2660517"><ele>88.85714285714285</ele><time>2026-05-02T12:34:03.303Z</time></trkpt><trkpt lat="40.9011317" lon="14.2659817"><ele>89.0</ele><time>2026-05-02T12:34:04.304Z</time></trkpt><trkpt lat="40.9011817" lon="14.2659133"><ele>89.16666666666667</ele><time>2026-05-02T12:34:05.303Z</time></trkpt><trkpt lat="40.9012317" lon="14.2658417"><ele>89.33333333333334</ele><time>2026-05-02T12:34:06.304Z</time></trkpt><trkpt lat="40.901285" lon="14.2657733"><ele>89.5</ele><time>2026-05-02T12:34:07.303Z</time></trkpt><trkpt lat="40.9013367" lon="14.2656983"><ele>89.66666666666667</ele><time>2026-05-02T12:34:08.303Z</time></trkpt><trkpt lat="40.9013883" lon="14.2656267"><ele>89.83333333333333</ele><time>2026-05-02T12:34:09.303Z</time></trkpt><trkpt lat="40.90144" lon="14.2655517"><ele>90.0</ele><time>2026-05-02T12:34:10.303Z</time></trkpt><trkpt lat="40.90149" lon="14.26548"><ele>90.14285714285714</ele><time>2026-05-02T12:34:11.303Z</time></trkpt><trkpt lat="40.90154" lon="14.2654133"><ele>90.28571428571429</ele><time>2026-05-02T12:34:12.303Z</time></trkpt><trkpt lat="40.9015867" lon="14.265345"><ele>90.42857142857143</ele><time>2026-05-02T12:34:13.303Z</time></trkpt><trkpt lat="40.9016317" lon="14.2652733"><ele>90.57142857142857</ele><time>2026-05-02T12:34:14.303Z</time></trkpt><trkpt lat="40.9016767" lon="14.2652067"><ele>90.71428571428572</ele><time>2026-05-02T12:34:15.302Z</time></trkpt><trkpt lat="40.9017233" lon="14.2651383"><ele>90.85714285714286</ele><time>2026-05-02T12:34:16.302Z</time></trkpt><trkpt lat="40.9017683" lon="14.2650683"><ele>91.0</ele><time>2026-05-02T12:34:17.303Z</time></trkpt><trkpt lat="40.9018117" lon="14.2649983"><ele>90.42857142857143</ele><time>2026-05-02T12:34:18.303Z</time></trkpt><trkpt lat="40.9018567" lon="14.26493"><ele>89.85714285714286</ele><time>2026-05-02T12:34:19.303Z</time></trkpt><trkpt lat="40.9019033" lon="14.2648617"><ele>89.28571428571428</ele><time>2026-05-02T12:34:20.303Z</time></trkpt><trkpt lat="40.90195" lon="14.26479"><ele>88.71428571428572</ele><time>2026-05-02T12:34:21.302Z</time></trkpt><trkpt lat="40.901995" lon="14.26472"><ele>88.14285714285714</ele><time>2026-05-02T12:34:22.303Z</time></trkpt><trkpt lat="40.9020417" lon="14.26465"><ele>87.57142857142857</ele><time>2026-05-02T12:34:23.303Z</time></trkpt><trkpt lat="40.902085" lon="14.26458"><ele>87.0</ele><time>2026-05-02T12:34:24.303Z</time></trkpt><trkpt lat="40.9021283" lon="14.264505"><ele>87.0</ele><time>2026-05-02T12:34:25.304Z</time></trkpt><trkpt lat="40.9021733" lon="14.2644317"><ele>87.0</ele><time>2026-05-02T12:34:26.302Z</time></trkpt><trkpt lat="40.9022167" lon="14.2643617"><ele>87.0</ele><time>2026-05-02T12:34:27.303Z</time></trkpt><trkpt lat="40.9022617" lon="14.2642967"><ele>87.0</ele><time>2026-05-02T12:34:28.303Z</time></trkpt><trkpt lat="40.902305" lon="14.26423"><ele>87.0</ele><time>2026-05-02T12:34:29.304Z</time></trkpt><trkpt lat="40.9023483" lon="14.26416"><ele>87.0</ele><time>2026-05-02T12:34:30.303Z</time></trkpt><trkpt lat="40.9023917" lon="14.26409"><ele>87.0</ele><time>2026-05-02T12:34:31.304Z</time></trkpt><trkpt lat="40.902435" lon="14.2640167"><ele>87.14285714285714</ele><time>2026-05-02T12:34:32.303Z</time></trkpt><trkpt lat="40.9024817" lon="14.2639417"><ele>87.28571428571429</ele><time>2026-05-02T12:34:33.303Z</time></trkpt><trkpt lat="40.9025233" lon="14.26387"><ele>87.42857142857143</ele><time>2026-05-02T12:34:34.303Z</time></trkpt><trkpt lat="40.9025667" lon="14.263795"><ele>87.57142857142857</ele><time>2026-05-02T12:34:35.303Z</time></trkpt><trkpt lat="40.90261" lon="14.2637183"><ele>87.71428571428571</ele><time>2026-05-02T12:34:36.303Z</time></trkpt><trkpt lat="40.9026533" lon="14.2636433"><ele>87.85714285714286</ele><time>2026-05-02T12:34:37.303Z</time></trkpt><trkpt lat="40.9026983" lon="14.2635683"><ele>88.0</ele><time>2026-05-02T12:34:38.303Z</time></trkpt><trkpt lat="40.9027417" lon="14.2634983"><ele>88.0</ele><time>2026-05-02T12:34:39.303Z</time></trkpt><trkpt lat="40.9027867" lon="14.2634233"><ele>88.0</ele><time>2026-05-02T12:34:40.302Z</time></trkpt><trkpt lat="40.9028317" lon="14.2633467"><ele>88.0</ele><time>2026-05-02T12:34:41.303Z</time></trkpt><trkpt lat="40.9028783" lon="14.2632683"><ele>88.0</ele><time>2026-05-02T12:34:42.303Z</time></trkpt><trkpt lat="40.9029267" lon="14.2631917"><ele>88.0</ele><time>2026-05-02T12:34:43.304Z</time></trkpt><trkpt lat="40.9029783" lon="14.2631133"><ele>88.0</ele><time>2026-05-02T12:34:44.303Z</time></trkpt><trkpt lat="40.9030283" lon="14.2630333"><ele>88.0</ele><time>2026-05-02T12:34:45.303Z</time></trkpt><trkpt lat="40.90308" lon="14.262955"><ele>88.0</ele><time>2026-05-02T12:34:46.303Z</time></trkpt><trkpt lat="40.9031333" lon="14.262875"><ele>88.0</ele><time>2026-05-02T12:34:47.304Z</time></trkpt><trkpt lat="40.9031867" lon="14.2628"><ele>88.0</ele><time>2026-05-02T12:34:48.303Z</time></trkpt><trkpt lat="40.9032383" lon="14.2627217"><ele>88.0</ele><time>2026-05-02T12:34:49.304Z</time></trkpt><trkpt lat="40.9032883" lon="14.2626417"><ele>88.0</ele><time>2026-05-02T12:34:50.303Z</time></trkpt><trkpt lat="40.90334" lon="14.2625617"><ele>88.0</ele><time>2026-05-02T12:34:51.303Z</time></trkpt><trkpt lat="40.9033917" lon="14.26248"><ele>88.0</ele><time>2026-05-02T12:34:52.302Z</time></trkpt><trkpt lat="40.9034433" lon="14.2624"><ele>88.0</ele><time>2026-05-02T12:34:53.303Z</time></trkpt><trkpt lat="40.9035" lon="14.2623167"><ele>88.0</ele><time>2026-05-02T12:34:54.303Z</time></trkpt><trkpt lat="40.903555" lon="14.2622333"><ele>88.0</ele><time>2026-05-02T12:34:55.304Z</time></trkpt><trkpt lat="40.9036083" lon="14.2621517"><ele>88.0</ele><time>2026-05-02T12:34:56.303Z</time></trkpt><trkpt lat="40.9036633" lon="14.26207"><ele>88.66666666666666</ele><time>2026-05-02T12:34:57.303Z</time></trkpt><trkpt lat="40.9037183" lon="14.2619917"><ele>89.33333333333333</ele><time>2026-05-02T12:34:58.303Z</time></trkpt><trkpt lat="40.9037733" lon="14.26191"><ele>90.0</ele><time>2026-05-02T12:34:59.304Z</time></trkpt><trkpt lat="40.90383" lon="14.2618267"><ele>90.66666666666667</ele><time>2026-05-02T12:35:00.304Z</time></trkpt><trkpt lat="40.903885" lon="14.2617433"><ele>91.33333333333334</ele><time>2026-05-02T12:35:01.303Z</time></trkpt><trkpt lat="40.90394" lon="14.2616633"><ele>92.0</ele><time>2026-05-02T12:35:02.302Z</time></trkpt><trkpt lat="40.903995" lon="14.2615833"><ele>92.0</ele><time>2026-05-02T12:35:03.302Z</time></trkpt><trkpt lat="40.90405" lon="14.2615067"><ele>92.0</ele><time>2026-05-02T12:35:04.303Z</time></trkpt><trkpt lat="40.904105" lon="14.2614267"><ele>92.0</ele><time>2026-05-02T12:35:05.303Z</time></trkpt><trkpt lat="40.9041617" lon="14.2613483"><ele>92.0</ele><time>2026-05-02T12:35:06.305Z</time></trkpt><trkpt lat="40.90422" lon="14.2612617"><ele>92.0</ele><time>2026-05-02T12:35:07.303Z</time></trkpt><trkpt lat="40.9042767" lon="14.2611783"><ele>92.0</ele><time>2026-05-02T12:35:08.304Z</time></trkpt><trkpt lat="40.904335" lon="14.2610983"><ele>91.5</ele><time>2026-05-02T12:35:09.303Z</time></trkpt><trkpt lat="40.9043883" lon="14.26102"><ele>91.0</ele><time>2026-05-02T12:35:10.302Z</time></trkpt><trkpt lat="40.9044433" lon="14.2609417"><ele>90.5</ele><time>2026-05-02T12:35:11.303Z</time></trkpt><trkpt lat="40.9044983" lon="14.2608633"><ele>90.0</ele><time>2026-05-02T12:35:12.303Z</time></trkpt><trkpt lat="40.9045533" lon="14.2607833"><ele>89.5</ele><time>2026-05-02T12:35:13.302Z</time></trkpt><trkpt lat="40.9046133" lon="14.2607033"><ele>89.0</ele><time>2026-05-02T12:35:14.303Z</time></trkpt><trkpt lat="40.9046717" lon="14.2606233"><ele>89.16666666666667</ele><time>2026-05-02T12:35:15.303Z</time></trkpt><trkpt lat="40.9047317" lon="14.2605417"><ele>89.33333333333334</ele><time>2026-05-02T12:35:16.303Z</time></trkpt><trkpt lat="40.9047917" lon="14.260455"><ele>89.5</ele><time>2026-05-02T12:35:17.304Z</time></trkpt><trkpt lat="40.9048517" lon="14.2603667"><ele>89.66666666666667</ele><time>2026-05-02T12:35:18.303Z</time></trkpt><trkpt lat="40.9049117" lon="14.26028"><ele>89.83333333333333</ele><time>2026-05-02T12:35:19.303Z</time></trkpt><trkpt lat="40.9049733" lon="14.260195"><ele>90.0</ele><time>2026-05-02T12:35:20.303Z</time></trkpt><trkpt lat="40.905035" lon="14.26011"><ele>90.2</ele><time>2026-05-02T12:35:21.304Z</time></trkpt><trkpt lat="40.9050983" lon="14.260015"><ele>90.4</ele><time>2026-05-02T12:35:22.303Z</time></trkpt><trkpt lat="40.9051633" lon="14.2599217"><ele>90.6</ele><time>2026-05-02T12:35:23.303Z</time></trkpt><trkpt lat="40.9052283" lon="14.2598267"><ele>90.8</ele><time>2026-05-02T12:35:24.306Z</time></trkpt><trkpt lat="40.9052967" lon="14.25973"><ele>91.0</ele><time>2026-05-02T12:35:25.303Z</time></trkpt><trkpt lat="40.905365" lon="14.2596283"><ele>91.0</ele><time>2026-05-02T12:35:26.303Z</time></trkpt><trkpt lat="40.9054367" lon="14.25953"><ele>91.0</ele><time>2026-05-02T12:35:27.305Z</time></trkpt><trkpt lat="40.9055033" lon="14.2594283"><ele>91.0</ele><time>2026-05-02T12:35:28.303Z</time></trkpt><trkpt lat="40.9055717" lon="14.2593233"><ele>91.0</ele><time>2026-05-02T12:35:29.303Z</time></trkpt><trkpt lat="40.9056417" lon="14.25922"><ele>91.0</ele><time>2026-05-02T12:35:30.304Z</time></trkpt><trkpt lat="40.9057117" lon="14.2591167"><ele>91.0</ele><time>2026-05-02T12:35:31.303Z</time></trkpt><trkpt lat="40.9057817" lon="14.2590133"><ele>91.0</ele><time>2026-05-02T12:35:32.302Z</time></trkpt><trkpt lat="40.9058517" lon="14.2589083"><ele>91.0</ele><time>2026-05-02T12:35:33.302Z</time></trkpt><trkpt lat="40.9059183" lon="14.2588017"><ele>91.0</ele><time>2026-05-02T12:35:34.303Z</time></trkpt><trkpt lat="40.9059817" lon="14.2587017"><ele>91.0</ele><time>2026-05-02T12:35:35.303Z</time></trkpt><trkpt lat="40.9060433" lon="14.2586067"><ele>90.8</ele><time>2026-05-02T12:35:36.303Z</time></trkpt><trkpt lat="40.90611" lon="14.2585117"><ele>90.6</ele><time>2026-05-02T12:35:37.304Z</time></trkpt><trkpt lat="40.9061733" lon="14.2584217"><ele>90.4</ele><time>2026-05-02T12:35:38.303Z</time></trkpt><trkpt lat="40.9062433" lon="14.2583283"><ele>90.2</ele><time>2026-05-02T12:35:39.303Z</time></trkpt><trkpt lat="40.9063083" lon="14.2582367"><ele>90.0</ele><time>2026-05-02T12:35:40.302Z</time></trkpt><trkpt lat="40.9063717" lon="14.2581383"><ele>89.8</ele><time>2026-05-02T12:35:41.303Z</time></trkpt><trkpt lat="40.906435" lon="14.2580417"><ele>89.6</ele><time>2026-05-02T12:35:42.31Z</time></trkpt><trkpt lat="40.9064983" lon="14.257945"><ele>89.4</ele><time>2026-05-02T12:35:43.304Z</time></trkpt><trkpt lat="40.9065633" lon="14.25785"><ele>89.2</ele><time>2026-05-02T12:35:44.304Z</time></trkpt><trkpt lat="40.9066283" lon="14.257755"><ele>89.0</ele><time>2026-05-02T12:35:45.303Z</time></trkpt><trkpt lat="40.9066917" lon="14.25766"><ele>89.0</ele><time>2026-05-02T12:35:46.305Z</time></trkpt><trkpt lat="40.9067533" lon="14.2575667"><ele>89.0</ele><time>2026-05-02T12:35:47.303Z</time></trkpt><trkpt lat="40.9068133" lon="14.2574733"><ele>89.0</ele><time>2026-05-02T12:35:48.303Z</time></trkpt><trkpt lat="40.9068767" lon="14.2573817"><ele>89.0</ele><time>2026-05-02T12:35:49.303Z</time></trkpt><trkpt lat="40.9069383" lon="14.2572933"><ele>89.0</ele><time>2026-05-02T12:35:50.303Z</time></trkpt><trkpt lat="40.9070017" lon="14.2572033"><ele>89.0</ele><time>2026-05-02T12:35:51.303Z</time></trkpt><trkpt lat="40.907065" lon="14.2571133"><ele>89.0</ele><time>2026-05-02T12:35:52.303Z</time></trkpt><trkpt lat="40.907125" lon="14.2570233"><ele>89.0</ele><time>2026-05-02T12:35:53.304Z</time></trkpt><trkpt lat="40.907185" lon="14.2569333"><ele>89.0</ele><time>2026-05-02T12:35:54.303Z</time></trkpt><trkpt lat="40.9072483" lon="14.2568417"><ele>89.0</ele><time>2026-05-02T12:35:55.304Z</time></trkpt><trkpt lat="40.9073117" lon="14.2567517"><ele>89.0</ele><time>2026-05-02T12:35:56.303Z</time></trkpt><trkpt lat="40.9073733" lon="14.2566633"><ele>89.0</ele><time>2026-05-02T12:35:57.302Z</time></trkpt><trkpt lat="40.9074333" lon="14.2565733"><ele>89.0</ele><time>2026-05-02T12:35:58.303Z</time></trkpt><trkpt lat="40.9074883" lon="14.2564867"><ele>89.0</ele><time>2026-05-02T12:35:59.303Z</time></trkpt><trkpt lat="40.9075483" lon="14.2563967"><ele>89.0</ele><time>2026-05-02T12:36:00.303Z</time></trkpt><trkpt lat="40.9076083" lon="14.2563083"><ele>89.0</ele><time>2026-05-02T12:36:01.304Z</time></trkpt><trkpt lat="40.9076683" lon="14.25622"><ele>88.83333333333334</ele><time>2026-05-02T12:36:02.303Z</time></trkpt><trkpt lat="40.907725" lon="14.256135"><ele>88.66666666666667</ele><time>2026-05-02T12:36:03.303Z</time></trkpt><trkpt lat="40.9077817" lon="14.2560467"><ele>88.5</ele><time>2026-05-02T12:36:04.303Z</time></trkpt><trkpt lat="40.9078383" lon="14.25596"><ele>88.33333333333333</ele><time>2026-05-02T12:36:05.305Z</time></trkpt><trkpt lat="40.907895" lon="14.2558717"><ele>88.16666666666666</ele><time>2026-05-02T12:36:06.302Z</time></trkpt><trkpt lat="40.907955" lon="14.255785"><ele>88.0</ele><time>2026-05-02T12:36:07.303Z</time></trkpt><trkpt lat="40.908015" lon="14.2556967"><ele>88.0</ele><time>2026-05-02T12:36:08.303Z</time></trkpt><trkpt lat="40.908075" lon="14.2556083"><ele>88.0</ele><time>2026-05-02T12:36:09.303Z</time></trkpt><trkpt lat="40.9081333" lon="14.25552"><ele>88.0</ele><time>2026-05-02T12:36:10.303Z</time></trkpt><trkpt lat="40.9081917" lon="14.25543"><ele>88.0</ele><time>2026-05-02T12:36:11.307Z</time></trkpt><trkpt lat="40.90825" lon="14.255345"><ele>88.0</ele><time>2026-05-02T12:36:12.303Z</time></trkpt><trkpt lat="40.9083117" lon="14.2552567"><ele>88.0</ele><time>2026-05-02T12:36:13.303Z</time></trkpt><trkpt lat="40.9083733" lon="14.25517"><ele>88.0</ele><time>2026-05-02T12:36:14.303Z</time></trkpt><trkpt lat="40.9084367" lon="14.2550833"><ele>88.0</ele><time>2026-05-02T12:36:15.303Z</time></trkpt><trkpt lat="40.9084983" lon="14.255"><ele>88.0</ele><time>2026-05-02T12:36:16.303Z</time></trkpt><trkpt lat="40.9085567" lon="14.2549133"><ele>88.0</ele><time>2026-05-02T12:36:17.303Z</time></trkpt><trkpt lat="40.9086167" lon="14.254825"><ele>88.0</ele><time>2026-05-02T12:36:18.303Z</time></trkpt><trkpt lat="40.9086783" lon="14.25474"><ele>88.0</ele><time>2026-05-02T12:36:19.304Z</time></trkpt><trkpt lat="40.908735" lon="14.2546533"><ele>88.16666666666666</ele><time>2026-05-02T12:36:20.303Z</time></trkpt><trkpt lat="40.9087933" lon="14.2545617"><ele>88.33333333333333</ele><time>2026-05-02T12:36:21.303Z</time></trkpt><trkpt lat="40.90885" lon="14.2544733"><ele>88.5</ele><time>2026-05-02T12:36:22.304Z</time></trkpt><trkpt lat="40.90891" lon="14.254385"><ele>88.66666666666667</ele><time>2026-05-02T12:36:23.303Z</time></trkpt><trkpt lat="40.9089717" lon="14.2542983"><ele>88.83333333333334</ele><time>2026-05-02T12:36:24.303Z</time></trkpt><trkpt lat="40.9090317" lon="14.2542133"><ele>89.0</ele><time>2026-05-02T12:36:25.302Z</time></trkpt><trkpt lat="40.90909" lon="14.2541267"><ele>89.0</ele><time>2026-05-02T12:36:26.303Z</time></trkpt><trkpt lat="40.90915" lon="14.25404"><ele>89.0</ele><time>2026-05-02T12:36:27.301Z</time></trkpt><trkpt lat="40.909205" lon="14.2539533"><ele>89.0</ele><time>2026-05-02T12:36:28.302Z</time></trkpt><trkpt lat="40.9092617" lon="14.2538683"><ele>89.0</ele><time>2026-05-02T12:36:29.302Z</time></trkpt><trkpt lat="40.9093217" lon="14.2537833"><ele>89.0</ele><time>2026-05-02T12:36:30.302Z</time></trkpt><trkpt lat="40.9093833" lon="14.2536967"><ele>89.0</ele><time>2026-05-02T12:36:31.301Z</time></trkpt><trkpt lat="40.9094433" lon="14.2536083"><ele>89.0</ele><time>2026-05-02T12:36:32.303Z</time></trkpt><trkpt lat="40.9095017" lon="14.2535233"><ele>89.0</ele><time>2026-05-02T12:36:33.302Z</time></trkpt><trkpt lat="40.90956" lon="14.2534383"><ele>89.0</ele><time>2026-05-02T12:36:34.302Z</time></trkpt><trkpt lat="40.9096183" lon="14.2533533"><ele>89.0</ele><time>2026-05-02T12:36:35.302Z</time></trkpt><trkpt lat="40.909675" lon="14.253265"><ele>89.0</ele><time>2026-05-02T12:36:36.302Z</time></trkpt><trkpt lat="40.90973" lon="14.2531767"><ele>89.0</ele><time>2026-05-02T12:36:37.303Z</time></trkpt><trkpt lat="40.9097867" lon="14.2530883"><ele>89.0</ele><time>2026-05-02T12:36:38.302Z</time></trkpt><trkpt lat="40.9098467" lon="14.2530017"><ele>89.0</ele><time>2026-05-02T12:36:39.3Z</time></trkpt><trkpt lat="40.9099067" lon="14.2529167"><ele>89.0</ele><time>2026-05-02T12:36:40.302Z</time></trkpt><trkpt lat="40.9099617" lon="14.2528317"><ele>89.0</ele><time>2026-05-02T12:36:41.302Z</time></trkpt><trkpt lat="40.9100183" lon="14.2527433"><ele>89.0</ele><time>2026-05-02T12:36:42.302Z</time></trkpt><trkpt lat="40.9100733" lon="14.252655"><ele>89.0</ele><time>2026-05-02T12:36:43.303Z</time></trkpt><trkpt lat="40.9101283" lon="14.25257"><ele>89.0</ele><time>2026-05-02T12:36:44.302Z</time></trkpt><trkpt lat="40.9101867" lon="14.2524883"><ele>89.0</ele><time>2026-05-02T12:36:45.302Z</time></trkpt><trkpt lat="40.9102467" lon="14.2524083"><ele>89.0</ele><time>2026-05-02T12:36:46.302Z</time></trkpt><trkpt lat="40.9103067" lon="14.2523267"><ele>89.0</ele><time>2026-05-02T12:36:47.303Z</time></trkpt><trkpt lat="40.9103667" lon="14.2522433"><ele>89.0</ele><time>2026-05-02T12:36:48.301Z</time></trkpt><trkpt lat="40.910425" lon="14.2521567"><ele>89.0</ele><time>2026-05-02T12:36:49.303Z</time></trkpt><trkpt lat="40.9104817" lon="14.25207"><ele>89.0</ele><time>2026-05-02T12:36:50.302Z</time></trkpt><trkpt lat="40.9105383" lon="14.2519867"><ele>89.0</ele><time>2026-05-02T12:36:51.303Z</time></trkpt><trkpt lat="40.9105933" lon="14.2519083"><ele>89.0</ele><time>2026-05-02T12:36:52.302Z</time></trkpt><trkpt lat="40.9106483" lon="14.2518317"><ele>89.0</ele><time>2026-05-02T12:36:53.303Z</time></trkpt><trkpt lat="40.9107017" lon="14.2517567"><ele>89.0</ele><time>2026-05-02T12:36:54.302Z</time></trkpt><trkpt lat="40.9107533" lon="14.251675"><ele>89.0</ele><time>2026-05-02T12:36:55.302Z</time></trkpt><trkpt lat="40.9108067" lon="14.2515917"><ele>89.0</ele><time>2026-05-02T12:36:56.303Z</time></trkpt><trkpt lat="40.910855" lon="14.2515067"><ele>89.0</ele><time>2026-05-02T12:36:57.302Z</time></trkpt><trkpt lat="40.9109067" lon="14.2514267"><ele>89.0</ele><time>2026-05-02T12:36:58.302Z</time></trkpt><trkpt lat="40.9109583" lon="14.2513467"><ele>89.0</ele><time>2026-05-02T12:36:59.303Z</time></trkpt><trkpt lat="40.9110117" lon="14.251265"><ele>89.0</ele><time>2026-05-02T12:37:00.301Z</time></trkpt><trkpt lat="40.91107" lon="14.2511817"><ele>89.0</ele><time>2026-05-02T12:37:01.301Z</time></trkpt><trkpt lat="40.9111233" lon="14.2511"><ele>89.16666666666667</ele><time>2026-05-02T12:37:02.301Z</time></trkpt><trkpt lat="40.91118" lon="14.2510183"><ele>89.33333333333334</ele><time>2026-05-02T12:37:03.302Z</time></trkpt><trkpt lat="40.911235" lon="14.2509367"><ele>89.5</ele><time>2026-05-02T12:37:04.302Z</time></trkpt><trkpt lat="40.9112917" lon="14.2508533"><ele>89.66666666666667</ele><time>2026-05-02T12:37:05.302Z</time></trkpt><trkpt lat="40.9113483" lon="14.2507717"><ele>89.83333333333333</ele><time>2026-05-02T12:37:06.303Z</time></trkpt><trkpt lat="40.9114067" lon="14.2506917"><ele>90.0</ele><time>2026-05-02T12:37:07.302Z</time></trkpt><trkpt lat="40.911465" lon="14.2506083"><ele>90.0</ele><time>2026-05-02T12:37:08.302Z</time></trkpt><trkpt lat="40.9115217" lon="14.2505233"><ele>90.0</ele><time>2026-05-02T12:37:09.302Z</time></trkpt><trkpt lat="40.9115783" lon="14.2504433"><ele>90.0</ele><time>2026-05-02T12:37:10.302Z</time></trkpt><trkpt lat="40.911635" lon="14.2503617"><ele>90.0</ele><time>2026-05-02T12:37:11.302Z</time></trkpt><trkpt lat="40.91169" lon="14.2502767"><ele>90.0</ele><time>2026-05-02T12:37:12.302Z</time></trkpt><trkpt lat="40.9117467" lon="14.2501917"><ele>90.0</ele><time>2026-05-02T12:37:13.304Z</time></trkpt><trkpt lat="40.911805" lon="14.2501033"><ele>90.5</ele><time>2026-05-02T12:37:14.304Z</time></trkpt><trkpt lat="40.9118617" lon="14.2500217"><ele>91.0</ele><time>2026-05-02T12:37:15.302Z</time></trkpt><trkpt lat="40.911915" lon="14.2499367"><ele>91.5</ele><time>2026-05-02T12:37:16.302Z</time></trkpt><trkpt lat="40.9119683" lon="14.2498567"><ele>92.0</ele><time>2026-05-02T12:37:17.303Z</time></trkpt><trkpt lat="40.912025" lon="14.2497717"><ele>92.5</ele><time>2026-05-02T12:37:18.302Z</time></trkpt><trkpt lat="40.9120833" lon="14.249685"><ele>93.0</ele><time>2026-05-02T12:37:19.303Z</time></trkpt><trkpt lat="40.9121417" lon="14.2496"><ele>93.16666666666667</ele><time>2026-05-02T12:37:20.308Z</time></trkpt><trkpt lat="40.9122067" lon="14.2495167"><ele>93.33333333333333</ele><time>2026-05-02T12:37:21.302Z</time></trkpt><trkpt lat="40.91227" lon="14.24943"><ele>93.5</ele><time>2026-05-02T12:37:22.302Z</time></trkpt><trkpt lat="40.9123333" lon="14.2493433"><ele>93.66666666666666</ele><time>2026-05-02T12:37:23.302Z</time></trkpt><trkpt lat="40.9123883" lon="14.2492567"><ele>93.83333333333333</ele><time>2026-05-02T12:37:24.302Z</time></trkpt><trkpt lat="40.9124433" lon="14.24917"><ele>94.0</ele><time>2026-05-02T12:37:25.302Z</time></trkpt><trkpt lat="40.9125" lon="14.2490817"><ele>94.0</ele><time>2026-05-02T12:37:26.302Z</time></trkpt><trkpt lat="40.9125583" lon="14.2489933"><ele>94.0</ele><time>2026-05-02T12:37:27.302Z</time></trkpt><trkpt lat="40.9126183" lon="14.2489067"><ele>94.0</ele><time>2026-05-02T12:37:28.302Z</time></trkpt><trkpt lat="40.9126767" lon="14.2488183"><ele>94.0</ele><time>2026-05-02T12:37:29.302Z</time></trkpt><trkpt lat="40.912735" lon="14.2487283"><ele>94.0</ele><time>2026-05-02T12:37:30.302Z</time></trkpt><trkpt lat="40.9127917" lon="14.2486417"><ele>94.0</ele><time>2026-05-02T12:37:31.303Z</time></trkpt><trkpt lat="40.9128467" lon="14.2485533"><ele>93.83333333333333</ele><time>2026-05-02T12:37:32.303Z</time></trkpt><trkpt lat="40.912905" lon="14.2484667"><ele>93.66666666666666</ele><time>2026-05-02T12:37:33.302Z</time></trkpt><trkpt lat="40.9129633" lon="14.2483783"><ele>93.5</ele><time>2026-05-02T12:37:34.302Z</time></trkpt><trkpt lat="40.9130217" lon="14.2482883"><ele>93.33333333333333</ele><time>2026-05-02T12:37:35.303Z</time></trkpt><trkpt lat="40.9130767" lon="14.2481983"><ele>93.16666666666667</ele><time>2026-05-02T12:37:36.302Z</time></trkpt><trkpt lat="40.9131283" lon="14.248105"><ele>93.0</ele><time>2026-05-02T12:37:37.302Z</time></trkpt><trkpt lat="40.9131767" lon="14.2480133"><ele>92.66666666666667</ele><time>2026-05-02T12:37:38.303Z</time></trkpt><trkpt lat="40.9132233" lon="14.2479233"><ele>92.33333333333333</ele><time>2026-05-02T12:37:39.302Z</time></trkpt><trkpt lat="40.91327" lon="14.2478317"><ele>92.0</ele><time>2026-05-02T12:37:40.302Z</time></trkpt><trkpt lat="40.913315" lon="14.2477367"><ele>91.66666666666666</ele><time>2026-05-02T12:37:41.302Z</time></trkpt><trkpt lat="40.9133633" lon="14.2476367"><ele>91.33333333333333</ele><time>2026-05-02T12:37:42.303Z</time></trkpt><trkpt lat="40.9134133" lon="14.2475467"><ele>91.0</ele><time>2026-05-02T12:37:43.302Z</time></trkpt><trkpt lat="40.9134733" lon="14.2474567"><ele>91.0</ele><time>2026-05-02T12:37:44.302Z</time></trkpt><trkpt lat="40.9135483" lon="14.247385"><ele>91.0</ele><time>2026-05-02T12:37:45.302Z</time></trkpt><trkpt lat="40.91362" lon="14.2473167"><ele>91.0</ele><time>2026-05-02T12:37:46.302Z</time></trkpt><trkpt lat="40.9136867" lon="14.247245"><ele>91.0</ele><time>2026-05-02T12:37:47.301Z</time></trkpt><trkpt lat="40.9137517" lon="14.2471683"><ele>91.0</ele><time>2026-05-02T12:37:48.302Z</time></trkpt><trkpt lat="40.9138133" lon="14.2470933"><ele>91.0</ele><time>2026-05-02T12:37:49.303Z</time></trkpt><trkpt lat="40.9138717" lon="14.2470167"><ele>91.0</ele><time>2026-05-02T12:37:50.302Z</time></trkpt><trkpt lat="40.91393" lon="14.2469367"><ele>91.0</ele><time>2026-05-02T12:37:51.302Z</time></trkpt><trkpt lat="40.91399" lon="14.2468567"><ele>91.0</ele><time>2026-05-02T12:37:52.302Z</time></trkpt><trkpt lat="40.914045" lon="14.246775"><ele>91.0</ele><time>2026-05-02T12:37:53.302Z</time></trkpt><trkpt lat="40.9141017" lon="14.2466933"><ele>91.0</ele><time>2026-05-02T12:37:54.303Z</time></trkpt><trkpt lat="40.91416" lon="14.24661"><ele>91.0</ele><time>2026-05-02T12:37:55.302Z</time></trkpt><trkpt lat="40.9142183" lon="14.2465283"><ele>90.5</ele><time>2026-05-02T12:37:56.302Z</time></trkpt><trkpt lat="40.914275" lon="14.2464433"><ele>90.0</ele><time>2026-05-02T12:37:57.302Z</time></trkpt><trkpt lat="40.9143283" lon="14.246355"><ele>89.5</ele><time>2026-05-02T12:37:58.302Z</time></trkpt><trkpt lat="40.9143817" lon="14.2462667"><ele>89.0</ele><time>2026-05-02T12:37:59.303Z</time></trkpt><trkpt lat="40.91443" lon="14.246175"><ele>88.5</ele><time>2026-05-02T12:38:00.302Z</time></trkpt><trkpt lat="40.914475" lon="14.2460817"><ele>88.0</ele><time>2026-05-02T12:38:01.303Z</time></trkpt><trkpt lat="40.9145183" lon="14.245985"><ele>88.0</ele><time>2026-05-02T12:38:02.302Z</time></trkpt><trkpt lat="40.91456" lon="14.24589"><ele>88.0</ele><time>2026-05-02T12:38:03.302Z</time></trkpt><trkpt lat="40.9146033" lon="14.2457933"><ele>88.0</ele><time>2026-05-02T12:38:04.306Z</time></trkpt><trkpt lat="40.914645" lon="14.2456933"><ele>88.0</ele><time>2026-05-02T12:38:05.302Z</time></trkpt><trkpt lat="40.914685" lon="14.2455933"><ele>88.0</ele><time>2026-05-02T12:38:06.302Z</time></trkpt><trkpt lat="40.9147233" lon="14.2454917"><ele>88.0</ele><time>2026-05-02T12:38:07.302Z</time></trkpt><trkpt lat="40.91476" lon="14.2453933"><ele>88.0</ele><time>2026-05-02T12:38:08.302Z</time></trkpt><trkpt lat="40.9147933" lon="14.2452917"><ele>88.0</ele><time>2026-05-02T12:38:09.302Z</time></trkpt><trkpt lat="40.914825" lon="14.24519"><ele>88.0</ele><time>2026-05-02T12:38:10.301Z</time></trkpt><trkpt lat="40.9148567" lon="14.2450883"><ele>88.0</ele><time>2026-05-02T12:38:11.303Z</time></trkpt><trkpt lat="40.9148833" lon="14.244985"><ele>88.0</ele><time>2026-05-02T12:38:12.302Z</time></trkpt><trkpt lat="40.9149133" lon="14.2448783"><ele>88.0</ele><time>2026-05-02T12:38:13.302Z</time></trkpt><trkpt lat="40.91494" lon="14.2447733"><ele>88.0</ele><time>2026-05-02T12:38:14.302Z</time></trkpt><trkpt lat="40.914965" lon="14.24467"><ele>88.0</ele><time>2026-05-02T12:38:15.301Z</time></trkpt><trkpt lat="40.9149867" lon="14.24457"><ele>88.0</ele><time>2026-05-02T12:38:16.303Z</time></trkpt><trkpt lat="40.915015" lon="14.2444683"><ele>88.0</ele><time>2026-05-02T12:38:17.303Z</time></trkpt><trkpt lat="40.9150383" lon="14.244365"><ele>88.0</ele><time>2026-05-02T12:38:18.302Z</time></trkpt><trkpt lat="40.9150567" lon="14.2442567"><ele>88.0</ele><time>2026-05-02T12:38:19.303Z</time></trkpt><trkpt lat="40.9150717" lon="14.2441433"><ele>88.0</ele><time>2026-05-02T12:38:20.301Z</time></trkpt><trkpt lat="40.9150817" lon="14.24403"><ele>88.0</ele><time>2026-05-02T12:38:21.303Z</time></trkpt><trkpt lat="40.9150917" lon="14.24392"><ele>88.0</ele><time>2026-05-02T12:38:22.302Z</time></trkpt><trkpt lat="40.9151" lon="14.24381"><ele>88.0</ele><time>2026-05-02T12:38:23.304Z</time></trkpt><trkpt lat="40.9151083" lon="14.2437017"><ele>88.0</ele><time>2026-05-02T12:38:24.303Z</time></trkpt><trkpt lat="40.915115" lon="14.2435933"><ele>88.0</ele><time>2026-05-02T12:38:25.302Z</time></trkpt><trkpt lat="40.91512" lon="14.24348"><ele>88.66666666666666</ele><time>2026-05-02T12:38:26.302Z</time></trkpt><trkpt lat="40.9151183" lon="14.24337"><ele>89.33333333333333</ele><time>2026-05-02T12:38:27.302Z</time></trkpt><trkpt lat="40.9151167" lon="14.243255"><ele>90.0</ele><time>2026-05-02T12:38:28.302Z</time></trkpt><trkpt lat="40.9151117" lon="14.24314"><ele>90.66666666666667</ele><time>2026-05-02T12:38:29.302Z</time></trkpt><trkpt lat="40.9151067" lon="14.243025"><ele>91.33333333333334</ele><time>2026-05-02T12:38:30.303Z</time></trkpt><trkpt lat="40.9151017" lon="14.2429117"><ele>92.0</ele><time>2026-05-02T12:38:31.303Z</time></trkpt><trkpt lat="40.915095" lon="14.2427967"><ele>92.0</ele><time>2026-05-02T12:38:32.302Z</time></trkpt><trkpt lat="40.9150867" lon="14.2426867"><ele>92.0</ele><time>2026-05-02T12:38:33.302Z</time></trkpt><trkpt lat="40.915075" lon="14.242575"><ele>92.0</ele><time>2026-05-02T12:38:34.303Z</time></trkpt><trkpt lat="40.9150617" lon="14.2424633"><ele>92.0</ele><time>2026-05-02T12:38:35.302Z</time></trkpt><trkpt lat="40.915045" lon="14.24235"><ele>92.0</ele><time>2026-05-02T12:38:36.302Z</time></trkpt><trkpt lat="40.91503" lon="14.242235"><ele>92.0</ele><time>2026-05-02T12:38:37.305Z</time></trkpt><trkpt lat="40.9150117" lon="14.2421217"><ele>92.0</ele><time>2026-05-02T12:38:38.302Z</time></trkpt><trkpt lat="40.9149933" lon="14.24201"><ele>92.0</ele><time>2026-05-02T12:38:39.303Z</time></trkpt><trkpt lat="40.9149733" lon="14.2419"><ele>92.0</ele><time>2026-05-02T12:38:40.302Z</time></trkpt><trkpt lat="40.9149517" lon="14.2417917"><ele>92.0</ele><time>2026-05-02T12:38:41.302Z</time></trkpt><trkpt lat="40.9149267" lon="14.2416867"><ele>92.0</ele><time>2026-05-02T12:38:42.303Z</time></trkpt><trkpt lat="40.9149033" lon="14.2415783"><ele>92.0</ele><time>2026-05-02T12:38:43.302Z</time></trkpt><trkpt lat="40.9148767" lon="14.2414717"><ele>92.16666666666667</ele><time>2026-05-02T12:38:44.303Z</time></trkpt><trkpt lat="40.91485" lon="14.2413667"><ele>92.33333333333334</ele><time>2026-05-02T12:38:45.302Z</time></trkpt><trkpt lat="40.9148233" lon="14.2412667"><ele>92.5</ele><time>2026-05-02T12:38:46.303Z</time></trkpt><trkpt lat="40.914795" lon="14.241175"><ele>92.66666666666667</ele><time>2026-05-02T12:38:47.303Z</time></trkpt><trkpt lat="40.9147633" lon="14.2410833"><ele>92.83333333333333</ele><time>2026-05-02T12:38:48.304Z</time></trkpt><trkpt lat="40.9147283" lon="14.24099"><ele>93.0</ele><time>2026-05-02T12:38:49.303Z</time></trkpt><trkpt lat="40.9146917" lon="14.240895"><ele>93.0</ele><time>2026-05-02T12:38:50.302Z</time></trkpt><trkpt lat="40.9146567" lon="14.2407983"><ele>93.0</ele><time>2026-05-02T12:38:51.302Z</time></trkpt><trkpt lat="40.9146217" lon="14.2407083"><ele>93.0</ele><time>2026-05-02T12:38:52.302Z</time></trkpt><trkpt lat="40.91458" lon="14.2406167"><ele>93.0</ele><time>2026-05-02T12:38:53.302Z</time></trkpt><trkpt lat="40.9145367" lon="14.2405283"><ele>93.0</ele><time>2026-05-02T12:38:54.301Z</time></trkpt><trkpt lat="40.91449" lon="14.2404383"><ele>93.0</ele><time>2026-05-02T12:38:55.303Z</time></trkpt><trkpt lat="40.9144433" lon="14.2403517"><ele>93.0</ele><time>2026-05-02T12:38:56.302Z</time></trkpt><trkpt lat="40.914395" lon="14.2402633"><ele>93.0</ele><time>2026-05-02T12:38:57.302Z</time></trkpt><trkpt lat="40.9143483" lon="14.2401817"><ele>93.0</ele><time>2026-05-02T12:38:58.302Z</time></trkpt><trkpt lat="40.9143017" lon="14.2401"><ele>93.0</ele><time>2026-05-02T12:38:59.303Z</time></trkpt><trkpt lat="40.914255" lon="14.24002"><ele>93.0</ele><time>2026-05-02T12:39:00.301Z</time></trkpt><trkpt lat="40.9142067" lon="14.2399383"><ele>93.0</ele><time>2026-05-02T12:39:01.304Z</time></trkpt><trkpt lat="40.9141583" lon="14.2398583"><ele>93.16666666666667</ele><time>2026-05-02T12:39:02.304Z</time></trkpt><trkpt lat="40.9141083" lon="14.2397817"><ele>93.33333333333333</ele><time>2026-05-02T12:39:03.302Z</time></trkpt><trkpt lat="40.9140583" lon="14.2397017"><ele>93.5</ele><time>2026-05-02T12:39:04.303Z</time></trkpt><trkpt lat="40.91401" lon="14.2396217"><ele>93.66666666666666</ele><time>2026-05-02T12:39:05.303Z</time></trkpt><trkpt lat="40.9139583" lon="14.2395433"><ele>93.83333333333333</ele><time>2026-05-02T12:39:06.305Z</time></trkpt><trkpt lat="40.9139083" lon="14.239465"><ele>94.0</ele><time>2026-05-02T12:39:07.304Z</time></trkpt><trkpt lat="40.9138567" lon="14.2393933"><ele>94.0</ele><time>2026-05-02T12:39:08.302Z</time></trkpt><trkpt lat="40.9138067" lon="14.2393217"><ele>94.0</ele><time>2026-05-02T12:39:09.302Z</time></trkpt><trkpt lat="40.9137533" lon="14.239245"><ele>94.0</ele><time>2026-05-02T12:39:10.303Z</time></trkpt><trkpt lat="40.9137017" lon="14.23917"><ele>94.0</ele><time>2026-05-02T12:39:11.304Z</time></trkpt><trkpt lat="40.9136517" lon="14.2390933"><ele>94.0</ele><time>2026-05-02T12:39:12.305Z</time></trkpt><trkpt lat="40.9136017" lon="14.2390133"><ele>94.0</ele><time>2026-05-02T12:39:13.302Z</time></trkpt><trkpt lat="40.9135517" lon="14.2389333"><ele>94.28571428571428</ele><time>2026-05-02T12:39:14.302Z</time></trkpt><trkpt lat="40.9134983" lon="14.23886"><ele>94.57142857142857</ele><time>2026-05-02T12:39:15.302Z</time></trkpt><trkpt lat="40.9134483" lon="14.2387883"><ele>94.85714285714286</ele><time>2026-05-02T12:39:16.304Z</time></trkpt><trkpt lat="40.9134" lon="14.238715"><ele>95.14285714285714</ele><time>2026-05-02T12:39:17.303Z</time></trkpt><trkpt lat="40.91335" lon="14.2386367"><ele>95.42857142857143</ele><time>2026-05-02T12:39:18.302Z</time></trkpt><trkpt lat="40.9133017" lon="14.238565"><ele>95.71428571428571</ele><time>2026-05-02T12:39:19.303Z</time></trkpt><trkpt lat="40.9132533" lon="14.2384917"><ele>96.0</ele><time>2026-05-02T12:39:20.309Z</time></trkpt><trkpt lat="40.9132067" lon="14.2384183"><ele>96.33333333333333</ele><time>2026-05-02T12:39:21.302Z</time></trkpt><trkpt lat="40.9131533" lon="14.2383417"><ele>96.66666666666666</ele><time>2026-05-02T12:39:22.303Z</time></trkpt><trkpt lat="40.9130983" lon="14.238265"><ele>97.0</ele><time>2026-05-02T12:39:23.302Z</time></trkpt><trkpt lat="40.913045" lon="14.2381867"><ele>97.33333333333333</ele><time>2026-05-02T12:39:24.303Z</time></trkpt><trkpt lat="40.91299" lon="14.238105"><ele>97.66666666666666</ele><time>2026-05-02T12:39:25.303Z</time></trkpt><trkpt lat="40.9129367" lon="14.238025"><ele>98.0</ele><time>2026-05-02T12:39:26.303Z</time></trkpt><trkpt lat="40.91288" lon="14.2379433"><ele>98.4</ele><time>2026-05-02T12:39:27.303Z</time></trkpt><trkpt lat="40.9128233" lon="14.23786"><ele>98.80000000000001</ele><time>2026-05-02T12:39:28.302Z</time></trkpt><trkpt lat="40.9127683" lon="14.23777"><ele>99.2</ele><time>2026-05-02T12:39:29.303Z</time></trkpt><trkpt lat="40.9127067" lon="14.2376783"><ele>99.6</ele><time>2026-05-02T12:39:30.303Z</time></trkpt><trkpt lat="40.9126433" lon="14.237585"><ele>100.0</ele><time>2026-05-02T12:39:31.301Z</time></trkpt><trkpt lat="40.9125817" lon="14.2374883"><ele>99.6</ele><time>2026-05-02T12:39:32.302Z</time></trkpt><trkpt lat="40.912515" lon="14.2373933"><ele>99.2</ele><time>2026-05-02T12:39:33.302Z</time></trkpt><trkpt lat="40.9124467" lon="14.2372967"><ele>98.80000000000001</ele><time>2026-05-02T12:39:34.305Z</time></trkpt><trkpt lat="40.9123767" lon="14.2372017"><ele>98.4</ele><time>2026-05-02T12:39:35.303Z</time></trkpt><trkpt lat="40.9123083" lon="14.2371033"><ele>98.0</ele><time>2026-05-02T12:39:36.303Z</time></trkpt><trkpt lat="40.912245" lon="14.237005"><ele>98.80000000000001</ele><time>2026-05-02T12:39:37.303Z</time></trkpt><trkpt lat="40.91218" lon="14.2369117"><ele>99.6</ele><time>2026-05-02T12:39:38.303Z</time></trkpt><trkpt lat="40.912115" lon="14.23682"><ele>100.4</ele><time>2026-05-02T12:39:39.302Z</time></trkpt><trkpt lat="40.91205" lon="14.236725"><ele>101.19999999999999</ele><time>2026-05-02T12:39:40.303Z</time></trkpt><trkpt lat="40.9119883" lon="14.2366317"><ele>102.0</ele><time>2026-05-02T12:39:41.303Z</time></trkpt><trkpt lat="40.911925" lon="14.236535"><ele>102.0</ele><time>2026-05-02T12:39:42.302Z</time></trkpt><trkpt lat="40.911865" lon="14.2364417"><ele>102.0</ele><time>2026-05-02T12:39:43.304Z</time></trkpt><trkpt lat="40.911805" lon="14.2363483"><ele>102.0</ele><time>2026-05-02T12:39:44.302Z</time></trkpt><trkpt lat="40.9117483" lon="14.23626"><ele>102.0</ele><time>2026-05-02T12:39:45.302Z</time></trkpt><trkpt lat="40.911695" lon="14.2361717"><ele>102.0</ele><time>2026-05-02T12:39:46.304Z</time></trkpt><trkpt lat="40.9116467" lon="14.236085"><ele>102.0</ele><time>2026-05-02T12:39:47.302Z</time></trkpt><trkpt lat="40.91161" lon="14.236005"><ele>102.0</ele><time>2026-05-02T12:39:48.302Z</time></trkpt><trkpt lat="40.9115833" lon="14.2359217"><ele>102.0</ele><time>2026-05-02T12:39:49.304Z</time></trkpt><trkpt lat="40.911565" lon="14.2358367"><ele>102.0</ele><time>2026-05-02T12:39:50.302Z</time></trkpt><trkpt lat="40.9115367" lon="14.2357017"><ele>102.0</ele><time>2026-05-02T12:39:52.303Z</time></trkpt><trkpt lat="40.9114967" lon="14.2356283"><ele>102.0</ele><time>2026-05-02T12:39:54.302Z</time></trkpt><trkpt lat="40.91143" lon="14.2355433"><ele>102.0</ele><time>2026-05-02T12:39:57.305Z</time></trkpt><trkpt lat="40.911355" lon="14.235475"><ele>102.0</ele><time>2026-05-02T12:39:59.304Z</time></trkpt><trkpt lat="40.9112517" lon="14.2353983"><ele>102.0</ele><time>2026-05-02T12:40:01.302Z</time></trkpt><trkpt lat="40.911195" lon="14.2353583"><ele>102.0</ele><time>2026-05-02T12:40:02.303Z</time></trkpt><trkpt lat="40.9111417" lon="14.235305"><ele>102.0</ele><time>2026-05-02T12:40:03.302Z</time></trkpt><trkpt lat="40.9110917" lon="14.2352383"><ele>102.0</ele><time>2026-05-02T12:40:04.304Z</time></trkpt><trkpt lat="40.9110417" lon="14.2351617"><ele>102.0</ele><time>2026-05-02T12:40:05.303Z</time></trkpt><trkpt lat="40.91099" lon="14.2350867"><ele>102.0</ele><time>2026-05-02T12:40:06.302Z</time></trkpt><trkpt lat="40.9109367" lon="14.23501"><ele>102.0</ele><time>2026-05-02T12:40:07.303Z</time></trkpt><trkpt lat="40.91088" lon="14.23493"><ele>102.0</ele><time>2026-05-02T12:40:08.306Z</time></trkpt><trkpt lat="40.9108267" lon="14.2348533"><ele>102.0</ele><time>2026-05-02T12:40:09.303Z</time></trkpt><trkpt lat="40.910775" lon="14.2347733"><ele>102.0</ele><time>2026-05-02T12:40:10.303Z</time></trkpt><trkpt lat="40.9107283" lon="14.2346983"><ele>102.0</ele><time>2026-05-02T12:40:11.305Z</time></trkpt><trkpt lat="40.91068" lon="14.2346217"><ele>102.14285714285714</ele><time>2026-05-02T12:40:12.304Z</time></trkpt><trkpt lat="40.9106333" lon="14.2345433"><ele>102.28571428571429</ele><time>2026-05-02T12:40:13.303Z</time></trkpt><trkpt lat="40.9105883" lon="14.2344667"><ele>102.42857142857142</ele><time>2026-05-02T12:40:14.303Z</time></trkpt><trkpt lat="40.9105467" lon="14.2343867"><ele>102.57142857142857</ele><time>2026-05-02T12:40:15.302Z</time></trkpt><trkpt lat="40.9105033" lon="14.2343083"><ele>102.71428571428571</ele><time>2026-05-02T12:40:16.303Z</time></trkpt><trkpt lat="40.91046" lon="14.2342267"><ele>102.85714285714285</ele><time>2026-05-02T12:40:17.304Z</time></trkpt><trkpt lat="40.9104167" lon="14.2341417"><ele>103.0</ele><time>2026-05-02T12:40:18.302Z</time></trkpt><trkpt lat="40.9103733" lon="14.234055"><ele>103.16666666666667</ele><time>2026-05-02T12:40:19.303Z</time></trkpt><trkpt lat="40.910335" lon="14.2339683"><ele>103.33333333333334</ele><time>2026-05-02T12:40:20.302Z</time></trkpt><trkpt lat="40.9102983" lon="14.2338767"><ele>103.5</ele><time>2026-05-02T12:40:21.302Z</time></trkpt><trkpt lat="40.9102617" lon="14.233785"><ele>103.66666666666666</ele><time>2026-05-02T12:40:22.303Z</time></trkpt><trkpt lat="40.9102267" lon="14.2336933"><ele>103.83333333333333</ele><time>2026-05-02T12:40:23.302Z</time></trkpt><trkpt lat="40.9101883" lon="14.2335983"><ele>104.0</ele><time>2026-05-02T12:40:24.303Z</time></trkpt><trkpt lat="40.9101583" lon="14.2335033"><ele>103.99999999999999</ele><time>2026-05-02T12:40:25.304Z</time></trkpt><trkpt lat="40.9101267" lon="14.23341"><ele>104.0</ele><time>2026-05-02T12:40:26.303Z</time></trkpt><trkpt lat="40.910095" lon="14.2333133"><ele>104.0</ele><time>2026-05-02T12:40:27.303Z</time></trkpt><trkpt lat="40.9100667" lon="14.23322"><ele>104.0</ele><time>2026-05-02T12:40:28.304Z</time></trkpt><trkpt lat="40.910045" lon="14.2331217"><ele>103.99999999999999</ele><time>2026-05-02T12:40:29.306Z</time></trkpt><trkpt lat="40.9100233" lon="14.233025"><ele>104.0</ele><time>2026-05-02T12:40:30.304Z</time></trkpt><trkpt lat="40.9100017" lon="14.2329267"><ele>104.83333333333333</ele><time>2026-05-02T12:40:31.303Z</time></trkpt><trkpt lat="40.909985" lon="14.2328283"><ele>105.66666666666666</ele><time>2026-05-02T12:40:32.302Z</time></trkpt><trkpt lat="40.9099633" lon="14.2327317"><ele>106.5</ele><time>2026-05-02T12:40:33.302Z</time></trkpt><trkpt lat="40.909945" lon="14.2326333"><ele>107.33333333333334</ele><time>2026-05-02T12:40:34.303Z</time></trkpt><trkpt lat="40.9099267" lon="14.232535"><ele>108.16666666666667</ele><time>2026-05-02T12:40:35.303Z</time></trkpt><trkpt lat="40.9099083" lon="14.2324383"><ele>109.0</ele><time>2026-05-02T12:40:36.301Z</time></trkpt><trkpt lat="40.909895" lon="14.2323417"><ele>108.50000000000001</ele><time>2026-05-02T12:40:37.303Z</time></trkpt><trkpt lat="40.9098833" lon="14.2322383"><ele>108.0</ele><time>2026-05-02T12:40:38.303Z</time></trkpt><trkpt lat="40.9098733" lon="14.2321333"><ele>107.5</ele><time>2026-05-02T12:40:39.303Z</time></trkpt><trkpt lat="40.9098633" lon="14.23203"><ele>107.0</ele><time>2026-05-02T12:40:40.303Z</time></trkpt><trkpt lat="40.9098583" lon="14.2319233"><ele>106.50000000000001</ele><time>2026-05-02T12:40:41.304Z</time></trkpt><trkpt lat="40.9098533" lon="14.23182"><ele>106.0</ele><time>2026-05-02T12:40:42.303Z</time></trkpt><trkpt lat="40.90985" lon="14.2317183"><ele>106.00000000000001</ele><time>2026-05-02T12:40:43.303Z</time></trkpt><trkpt lat="40.90985" lon="14.2316167"><ele>106.0</ele><time>2026-05-02T12:40:44.303Z</time></trkpt><trkpt lat="40.9098517" lon="14.231515"><ele>106.0</ele><time>2026-05-02T12:40:45.302Z</time></trkpt><trkpt lat="40.909855" lon="14.231415"><ele>106.0</ele><time>2026-05-02T12:40:46.302Z</time></trkpt><trkpt lat="40.9098583" lon="14.2313067"><ele>106.00000000000001</ele><time>2026-05-02T12:40:47.303Z</time></trkpt><trkpt lat="40.9098617" lon="14.2312"><ele>106.0</ele><time>2026-05-02T12:40:48.303Z</time></trkpt><trkpt lat="40.9098683" lon="14.2310933"><ele>106.33333333333334</ele><time>2026-05-02T12:40:49.303Z</time></trkpt><trkpt lat="40.9098783" lon="14.2309883"><ele>106.66666666666667</ele><time>2026-05-02T12:40:50.303Z</time></trkpt><trkpt lat="40.90989" lon="14.2308833"><ele>107.0</ele><time>2026-05-02T12:40:51.302Z</time></trkpt><trkpt lat="40.9099033" lon="14.2307783"><ele>107.33333333333334</ele><time>2026-05-02T12:40:52.303Z</time></trkpt><trkpt lat="40.9099217" lon="14.230675"><ele>107.66666666666667</ele><time>2026-05-02T12:40:53.303Z</time></trkpt><trkpt lat="40.9099417" lon="14.23057"><ele>108.0</ele><time>2026-05-02T12:40:54.303Z</time></trkpt><trkpt lat="40.909965" lon="14.2304633"><ele>108.16666666666667</ele><time>2026-05-02T12:40:55.303Z</time></trkpt><trkpt lat="40.9099867" lon="14.2303517"><ele>108.33333333333334</ele><time>2026-05-02T12:40:56.303Z</time></trkpt><trkpt lat="40.91001" lon="14.2302433"><ele>108.5</ele><time>2026-05-02T12:40:57.302Z</time></trkpt><trkpt lat="40.910035" lon="14.23014"><ele>108.66666666666667</ele><time>2026-05-02T12:40:58.303Z</time></trkpt><trkpt lat="40.910065" lon="14.230035"><ele>108.83333333333334</ele><time>2026-05-02T12:40:59.303Z</time></trkpt><trkpt lat="40.9100967" lon="14.2299317"><ele>109.0</ele><time>2026-05-02T12:41:00.302Z</time></trkpt><trkpt lat="40.91013" lon="14.2298283"><ele>108.83333333333334</ele><time>2026-05-02T12:41:01.303Z</time></trkpt><trkpt lat="40.9101633" lon="14.2297267"><ele>108.66666666666667</ele><time>2026-05-02T12:41:02.304Z</time></trkpt><trkpt lat="40.9101983" lon="14.2296217"><ele>108.5</ele><time>2026-05-02T12:41:03.303Z</time></trkpt><trkpt lat="40.910235" lon="14.229515"><ele>108.33333333333334</ele><time>2026-05-02T12:41:04.303Z</time></trkpt><trkpt lat="40.9102717" lon="14.22941"><ele>108.16666666666667</ele><time>2026-05-02T12:41:05.303Z</time></trkpt><trkpt lat="40.91031" lon="14.2293067"><ele>108.0</ele><time>2026-05-02T12:41:06.303Z</time></trkpt><trkpt lat="40.9103467" lon="14.2292033"><ele>108.0</ele><time>2026-05-02T12:41:07.303Z</time></trkpt><trkpt lat="40.910385" lon="14.2291033"><ele>108.0</ele><time>2026-05-02T12:41:08.302Z</time></trkpt><trkpt lat="40.91042" lon="14.2289983"><ele>108.0</ele><time>2026-05-02T12:41:09.302Z</time></trkpt><trkpt lat="40.910455" lon="14.2288917"><ele>108.0</ele><time>2026-05-02T12:41:10.303Z</time></trkpt><trkpt lat="40.9104933" lon="14.22879"><ele>108.0</ele><time>2026-05-02T12:41:11.303Z</time></trkpt><trkpt lat="40.910535" lon="14.2286883"><ele>108.0</ele><time>2026-05-02T12:41:12.304Z</time></trkpt><trkpt lat="40.910575" lon="14.2285883"><ele>108.16666666666667</ele><time>2026-05-02T12:41:13.303Z</time></trkpt><trkpt lat="40.910615" lon="14.228485"><ele>108.33333333333334</ele><time>2026-05-02T12:41:14.303Z</time></trkpt><trkpt lat="40.9106517" lon="14.2283833"><ele>108.5</ele><time>2026-05-02T12:41:15.302Z</time></trkpt><trkpt lat="40.910685" lon="14.2282817"><ele>108.66666666666667</ele><time>2026-05-02T12:41:16.303Z</time></trkpt><trkpt lat="40.9107167" lon="14.2281783"><ele>108.83333333333334</ele><time>2026-05-02T12:41:17.303Z</time></trkpt><trkpt lat="40.9107533" lon="14.2280767"><ele>109.0</ele><time>2026-05-02T12:41:18.303Z</time></trkpt><trkpt lat="40.9107917" lon="14.227975"><ele>109.16666666666667</ele><time>2026-05-02T12:41:19.303Z</time></trkpt><trkpt lat="40.91083" lon="14.227875"><ele>109.33333333333334</ele><time>2026-05-02T12:41:20.303Z</time></trkpt><trkpt lat="40.9108667" lon="14.22777"><ele>109.5</ele><time>2026-05-02T12:41:21.303Z</time></trkpt><trkpt lat="40.9109017" lon="14.22766"><ele>109.66666666666666</ele><time>2026-05-02T12:41:22.303Z</time></trkpt><trkpt lat="40.9109333" lon="14.227555"><ele>109.83333333333333</ele><time>2026-05-02T12:41:23.304Z</time></trkpt><trkpt lat="40.910965" lon="14.2274417"><ele>110.0</ele><time>2026-05-02T12:41:24.302Z</time></trkpt><trkpt lat="40.9110033" lon="14.2273317"><ele>110.0</ele><time>2026-05-02T12:41:25.304Z</time></trkpt><trkpt lat="40.911045" lon="14.22722"><ele>110.0</ele><time>2026-05-02T12:41:26.302Z</time></trkpt><trkpt lat="40.9110783" lon="14.2271083"><ele>110.0</ele><time>2026-05-02T12:41:27.303Z</time></trkpt><trkpt lat="40.9111217" lon="14.2270067"><ele>110.0</ele><time>2026-05-02T12:41:28.303Z</time></trkpt><trkpt lat="40.9111667" lon="14.2268983"><ele>110.0</ele><time>2026-05-02T12:41:29.304Z</time></trkpt><trkpt lat="40.91121" lon="14.2267917"><ele>109.99999999999999</ele><time>2026-05-02T12:41:30.302Z</time></trkpt><trkpt lat="40.9112483" lon="14.2266917"><ele>110.0</ele><time>2026-05-02T12:41:31.304Z</time></trkpt><trkpt lat="40.9112867" lon="14.2265917"><ele>110.0</ele><time>2026-05-02T12:41:32.303Z</time></trkpt><trkpt lat="40.911325" lon="14.22649"><ele>110.0</ele><time>2026-05-02T12:41:33.302Z</time></trkpt><trkpt lat="40.9113633" lon="14.2263917"><ele>109.99999999999999</ele><time>2026-05-02T12:41:34.303Z</time></trkpt><trkpt lat="40.9114017" lon="14.226295"><ele>110.0</ele><time>2026-05-02T12:41:35.303Z</time></trkpt><trkpt lat="40.9114417" lon="14.226195"><ele>110.16666666666666</ele><time>2026-05-02T12:41:36.303Z</time></trkpt><trkpt lat="40.9114817" lon="14.226095"><ele>110.33333333333333</ele><time>2026-05-02T12:41:37.303Z</time></trkpt><trkpt lat="40.91152" lon="14.2259917"><ele>110.5</ele><time>2026-05-02T12:41:38.303Z</time></trkpt><trkpt lat="40.9115617" lon="14.2258867"><ele>110.66666666666666</ele><time>2026-05-02T12:41:39.302Z</time></trkpt><trkpt lat="40.9116067" lon="14.2257867"><ele>110.83333333333333</ele><time>2026-05-02T12:41:40.303Z</time></trkpt><trkpt lat="40.9116483" lon="14.2256867"><ele>111.0</ele><time>2026-05-02T12:41:41.303Z</time></trkpt><trkpt lat="40.9116867" lon="14.2255833"><ele>111.0</ele><time>2026-05-02T12:41:42.303Z</time></trkpt><trkpt lat="40.9117267" lon="14.22548"><ele>111.0</ele><time>2026-05-02T12:41:43.303Z</time></trkpt><trkpt lat="40.9117667" lon="14.225375"><ele>111.0</ele><time>2026-05-02T12:41:44.303Z</time></trkpt><trkpt lat="40.9118067" lon="14.225265"><ele>111.0</ele><time>2026-05-02T12:41:45.303Z</time></trkpt><trkpt lat="40.911845" lon="14.2251567"><ele>111.0</ele><time>2026-05-02T12:41:46.305Z</time></trkpt><trkpt lat="40.9118867" lon="14.225045"><ele>110.8</ele><time>2026-05-02T12:41:47.302Z</time></trkpt><trkpt lat="40.9119267" lon="14.2249367"><ele>110.6</ele><time>2026-05-02T12:41:48.302Z</time></trkpt><trkpt lat="40.9119667" lon="14.2248283"><ele>110.4</ele><time>2026-05-02T12:41:49.302Z</time></trkpt><trkpt lat="40.9120083" lon="14.2247233"><ele>110.2</ele><time>2026-05-02T12:41:50.302Z</time></trkpt><trkpt lat="40.9120483" lon="14.224615"><ele>110.0</ele><time>2026-05-02T12:41:51.301Z</time></trkpt><trkpt lat="40.9120917" lon="14.2245083"><ele>110.0</ele><time>2026-05-02T12:41:52.302Z</time></trkpt><trkpt lat="40.912135" lon="14.2244017"><ele>110.0</ele><time>2026-05-02T12:41:53.303Z</time></trkpt><trkpt lat="40.912175" lon="14.2242917"><ele>110.0</ele><time>2026-05-02T12:41:54.307Z</time></trkpt><trkpt lat="40.9122217" lon="14.2241783"><ele>110.0</ele><time>2026-05-02T12:41:55.302Z</time></trkpt><trkpt lat="40.912265" lon="14.2240683"><ele>110.0</ele><time>2026-05-02T12:41:56.302Z</time></trkpt><trkpt lat="40.9123083" lon="14.2239617"><ele>110.2</ele><time>2026-05-02T12:41:57.301Z</time></trkpt><trkpt lat="40.9123517" lon="14.223855"><ele>110.4</ele><time>2026-05-02T12:41:58.302Z</time></trkpt><trkpt lat="40.912395" lon="14.2237467"><ele>110.6</ele><time>2026-05-02T12:41:59.302Z</time></trkpt><trkpt lat="40.912435" lon="14.223635"><ele>110.8</ele><time>2026-05-02T12:42:00.302Z</time></trkpt><trkpt lat="40.9124783" lon="14.2235217"><ele>111.0</ele><time>2026-05-02T12:42:01.302Z</time></trkpt><trkpt lat="40.91252" lon="14.2234083"><ele>111.0</ele><time>2026-05-02T12:42:02.303Z</time></trkpt><trkpt lat="40.9125583" lon="14.2232967"><ele>111.0</ele><time>2026-05-02T12:42:03.301Z</time></trkpt><trkpt lat="40.9125983" lon="14.2231883"><ele>111.0</ele><time>2026-05-02T12:42:04.302Z</time></trkpt><trkpt lat="40.9126333" lon="14.223075"><ele>111.0</ele><time>2026-05-02T12:42:05.304Z</time></trkpt><trkpt lat="40.9126717" lon="14.2229633"><ele>111.0</ele><time>2026-05-02T12:42:06.302Z</time></trkpt><trkpt lat="40.9127083" lon="14.2228533"><ele>110.83333333333333</ele><time>2026-05-02T12:42:07.304Z</time></trkpt><trkpt lat="40.912745" lon="14.2227433"><ele>110.66666666666666</ele><time>2026-05-02T12:42:08.302Z</time></trkpt><trkpt lat="40.9127783" lon="14.2226367"><ele>110.5</ele><time>2026-05-02T12:42:09.302Z</time></trkpt><trkpt lat="40.9128133" lon="14.2225283"><ele>110.33333333333333</ele><time>2026-05-02T12:42:10.302Z</time></trkpt><trkpt lat="40.9128517" lon="14.2224217"><ele>110.16666666666666</ele><time>2026-05-02T12:42:11.303Z</time></trkpt><trkpt lat="40.9128983" lon="14.2223183"><ele>110.0</ele><time>2026-05-02T12:42:12.302Z</time></trkpt><trkpt lat="40.91294" lon="14.2222167"><ele>109.83333333333333</ele><time>2026-05-02T12:42:13.302Z</time></trkpt><trkpt lat="40.91298" lon="14.22211"><ele>109.66666666666666</ele><time>2026-05-02T12:42:14.303Z</time></trkpt><trkpt lat="40.913015" lon="14.2220033"><ele>109.5</ele><time>2026-05-02T12:42:15.303Z</time></trkpt><trkpt lat="40.9130583" lon="14.2219017"><ele>109.33333333333334</ele><time>2026-05-02T12:42:16.302Z</time></trkpt><trkpt lat="40.9130967" lon="14.2217983"><ele>109.16666666666667</ele><time>2026-05-02T12:42:17.302Z</time></trkpt><trkpt lat="40.913135" lon="14.221695"><ele>109.0</ele><time>2026-05-02T12:42:18.302Z</time></trkpt><trkpt lat="40.913175" lon="14.2215933"><ele>109.00000000000001</ele><time>2026-05-02T12:42:19.303Z</time></trkpt><trkpt lat="40.913215" lon="14.2214883"><ele>109.0</ele><time>2026-05-02T12:42:20.302Z</time></trkpt><trkpt lat="40.9132583" lon="14.2213833"><ele>109.0</ele><time>2026-05-02T12:42:21.302Z</time></trkpt><trkpt lat="40.9133017" lon="14.2212817"><ele>109.0</ele><time>2026-05-02T12:42:22.302Z</time></trkpt><trkpt lat="40.91334" lon="14.22118"><ele>109.00000000000001</ele><time>2026-05-02T12:42:23.303Z</time></trkpt><trkpt lat="40.9133817" lon="14.2210767"><ele>109.0</ele><time>2026-05-02T12:42:24.302Z</time></trkpt><trkpt lat="40.9134183" lon="14.2209717"><ele>109.16666666666667</ele><time>2026-05-02T12:42:25.303Z</time></trkpt><trkpt lat="40.9134583" lon="14.2208667"><ele>109.33333333333334</ele><time>2026-05-02T12:42:26.302Z</time></trkpt><trkpt lat="40.9134967" lon="14.2207633"><ele>109.5</ele><time>2026-05-02T12:42:27.302Z</time></trkpt><trkpt lat="40.9135333" lon="14.2206583"><ele>109.66666666666666</ele><time>2026-05-02T12:42:28.302Z</time></trkpt><trkpt lat="40.9135717" lon="14.220555"><ele>109.83333333333333</ele><time>2026-05-02T12:42:29.302Z</time></trkpt><trkpt lat="40.9136117" lon="14.22045"><ele>110.0</ele><time>2026-05-02T12:42:30.303Z</time></trkpt><trkpt lat="40.9136517" lon="14.2203433"><ele>110.0</ele><time>2026-05-02T12:42:31.303Z</time></trkpt><trkpt lat="40.9136933" lon="14.22024"><ele>110.0</ele><time>2026-05-02T12:42:32.302Z</time></trkpt><trkpt lat="40.9137383" lon="14.2201367"><ele>110.0</ele><time>2026-05-02T12:42:33.302Z</time></trkpt><trkpt lat="40.91378" lon="14.22003"><ele>110.0</ele><time>2026-05-02T12:42:34.302Z</time></trkpt><trkpt lat="40.913825" lon="14.2199217"><ele>110.0</ele><time>2026-05-02T12:42:35.302Z</time></trkpt><trkpt lat="40.9138633" lon="14.219815"><ele>109.83333333333333</ele><time>2026-05-02T12:42:36.303Z</time></trkpt><trkpt lat="40.9139033" lon="14.219705"><ele>109.66666666666666</ele><time>2026-05-02T12:42:37.302Z</time></trkpt><trkpt lat="40.91394" lon="14.2195967"><ele>109.5</ele><time>2026-05-02T12:42:38.302Z</time></trkpt><trkpt lat="40.9139767" lon="14.2194933"><ele>109.33333333333334</ele><time>2026-05-02T12:42:39.302Z</time></trkpt><trkpt lat="40.91402" lon="14.2193917"><ele>109.16666666666667</ele><time>2026-05-02T12:42:40.302Z</time></trkpt><trkpt lat="40.91406" lon="14.2192883"><ele>109.0</ele><time>2026-05-02T12:42:41.302Z</time></trkpt><trkpt lat="40.9141033" lon="14.2191833"><ele>109.0</ele><time>2026-05-02T12:42:42.302Z</time></trkpt><trkpt lat="40.9141417" lon="14.219075"><ele>109.0</ele><time>2026-05-02T12:42:43.302Z</time></trkpt><trkpt lat="40.9141733" lon="14.2189633"><ele>109.0</ele><time>2026-05-02T12:42:44.302Z</time></trkpt><trkpt lat="40.9142083" lon="14.218845"><ele>109.0</ele><time>2026-05-02T12:42:45.302Z</time></trkpt><trkpt lat="40.9142433" lon="14.2187367"><ele>109.0</ele><time>2026-05-02T12:42:46.301Z</time></trkpt><trkpt lat="40.9142767" lon="14.2186333"><ele>108.83333333333334</ele><time>2026-05-02T12:42:47.303Z</time></trkpt><trkpt lat="40.9143117" lon="14.2185333"><ele>108.66666666666667</ele><time>2026-05-02T12:42:48.302Z</time></trkpt><trkpt lat="40.9143383" lon="14.218435"><ele>108.5</ele><time>2026-05-02T12:42:49.302Z</time></trkpt><trkpt lat="40.914375" lon="14.2183517"><ele>108.33333333333334</ele><time>2026-05-02T12:42:50.302Z</time></trkpt><trkpt lat="40.9144133" lon="14.2182783"><ele>108.16666666666667</ele><time>2026-05-02T12:42:51.302Z</time></trkpt><trkpt lat="40.9145017" lon="14.2181667"><ele>108.0</ele><time>2026-05-02T12:42:53.304Z</time></trkpt><trkpt lat="40.9146" lon="14.21807"><ele>108.0</ele><time>2026-05-02T12:42:55.303Z</time></trkpt><trkpt lat="40.9146767" lon="14.2179467"><ele>108.0</ele><time>2026-05-02T12:42:57.302Z</time></trkpt><trkpt lat="40.9147033" lon="14.2178683"><ele>108.0</ele><time>2026-05-02T12:42:58.302Z</time></trkpt><trkpt lat="40.9147233" lon="14.217775"><ele>108.0</ele><time>2026-05-02T12:42:59.303Z</time></trkpt><trkpt lat="40.9147383" lon="14.2176733"><ele>108.0</ele><time>2026-05-02T12:43:00.301Z</time></trkpt><trkpt lat="40.91475" lon="14.217565"><ele>108.0</ele><time>2026-05-02T12:43:01.302Z</time></trkpt><trkpt lat="40.91476" lon="14.2174567"><ele>108.0</ele><time>2026-05-02T12:43:02.301Z</time></trkpt><trkpt lat="40.9147767" lon="14.2173517"><ele>108.0</ele><time>2026-05-02T12:43:03.302Z</time></trkpt><trkpt lat="40.9148017" lon="14.2172517"><ele>108.0</ele><time>2026-05-02T12:43:04.302Z</time></trkpt><trkpt lat="40.9148317" lon="14.2171517"><ele>108.0</ele><time>2026-05-02T12:43:05.302Z</time></trkpt><trkpt lat="40.914865" lon="14.2170517"><ele>108.0</ele><time>2026-05-02T12:43:06.302Z</time></trkpt><trkpt lat="40.9149" lon="14.21695"><ele>108.0</ele><time>2026-05-02T12:43:07.302Z</time></trkpt><trkpt lat="40.914935" lon="14.21685"><ele>108.5</ele><time>2026-05-02T12:43:08.302Z</time></trkpt><trkpt lat="40.9149733" lon="14.216755"><ele>109.0</ele><time>2026-05-02T12:43:09.301Z</time></trkpt><trkpt lat="40.9150133" lon="14.2166583"><ele>109.5</ele><time>2026-05-02T12:43:10.302Z</time></trkpt><trkpt lat="40.91505" lon="14.21656"><ele>110.0</ele><time>2026-05-02T12:43:11.303Z</time></trkpt><trkpt lat="40.9150883" lon="14.2164617"><ele>110.5</ele><time>2026-05-02T12:43:12.302Z</time></trkpt><trkpt lat="40.9151283" lon="14.21636"><ele>111.0</ele><time>2026-05-02T12:43:13.302Z</time></trkpt><trkpt lat="40.9151633" lon="14.2162617"><ele>111.16666666666667</ele><time>2026-05-02T12:43:14.303Z</time></trkpt><trkpt lat="40.9152017" lon="14.2161633"><ele>111.33333333333334</ele><time>2026-05-02T12:43:15.302Z</time></trkpt><trkpt lat="40.9152367" lon="14.2160617"><ele>111.5</ele><time>2026-05-02T12:43:16.303Z</time></trkpt><trkpt lat="40.9152733" lon="14.215965"><ele>111.66666666666667</ele><time>2026-05-02T12:43:17.302Z</time></trkpt><trkpt lat="40.9153117" lon="14.2158667"><ele>111.83333333333334</ele><time>2026-05-02T12:43:18.302Z</time></trkpt><trkpt lat="40.9153517" lon="14.2157667"><ele>112.0</ele><time>2026-05-02T12:43:19.302Z</time></trkpt><trkpt lat="40.9153917" lon="14.2156683"><ele>111.66666666666667</ele><time>2026-05-02T12:43:20.303Z</time></trkpt><trkpt lat="40.9154317" lon="14.2155667"><ele>111.33333333333334</ele><time>2026-05-02T12:43:21.302Z</time></trkpt><trkpt lat="40.9154733" lon="14.2154617"><ele>111.0</ele><time>2026-05-02T12:43:22.302Z</time></trkpt><trkpt lat="40.9155117" lon="14.2153567"><ele>110.66666666666666</ele><time>2026-05-02T12:43:23.302Z</time></trkpt><trkpt lat="40.9155483" lon="14.2152467"><ele>110.33333333333333</ele><time>2026-05-02T12:43:24.302Z</time></trkpt><trkpt lat="40.9155883" lon="14.21514"><ele>110.0</ele><time>2026-05-02T12:43:25.302Z</time></trkpt><trkpt lat="40.9156283" lon="14.215035"><ele>110.0</ele><time>2026-05-02T12:43:26.302Z</time></trkpt><trkpt lat="40.9156683" lon="14.214925"><ele>110.0</ele><time>2026-05-02T12:43:27.301Z</time></trkpt><trkpt lat="40.9157083" lon="14.2148183"><ele>110.0</ele><time>2026-05-02T12:43:28.301Z</time></trkpt><trkpt lat="40.9157467" lon="14.2147133"><ele>110.0</ele><time>2026-05-02T12:43:29.302Z</time></trkpt><trkpt lat="40.9157883" lon="14.2146033"><ele>110.0</ele><time>2026-05-02T12:43:30.302Z</time></trkpt><trkpt lat="40.91583" lon="14.214495"><ele>109.99999999999999</ele><time>2026-05-02T12:43:31.302Z</time></trkpt><trkpt lat="40.9158717" lon="14.21439"><ele>110.0</ele><time>2026-05-02T12:43:32.301Z</time></trkpt><trkpt lat="40.9159133" lon="14.2142833"><ele>110.0</ele><time>2026-05-02T12:43:33.302Z</time></trkpt><trkpt lat="40.91595" lon="14.2141767"><ele>110.0</ele><time>2026-05-02T12:43:34.303Z</time></trkpt><trkpt lat="40.9159883" lon="14.2140733"><ele>109.99999999999999</ele><time>2026-05-02T12:43:35.305Z</time></trkpt><trkpt lat="40.9160267" lon="14.2139683"><ele>110.0</ele><time>2026-05-02T12:43:36.302Z</time></trkpt><trkpt lat="40.9160667" lon="14.2138633"><ele>109.99999999999999</ele><time>2026-05-02T12:43:37.303Z</time></trkpt><trkpt lat="40.9161033" lon="14.2137583"><ele>110.0</ele><time>2026-05-02T12:43:38.302Z</time></trkpt><trkpt lat="40.91614" lon="14.2136517"><ele>110.0</ele><time>2026-05-02T12:43:39.303Z</time></trkpt><trkpt lat="40.9161733" lon="14.213545"><ele>110.0</ele><time>2026-05-02T12:43:40.303Z</time></trkpt><trkpt lat="40.9162033" lon="14.2134367"><ele>109.99999999999999</ele><time>2026-05-02T12:43:41.303Z</time></trkpt><trkpt lat="40.9162317" lon="14.213325"><ele>110.0</ele><time>2026-05-02T12:43:42.302Z</time></trkpt><trkpt lat="40.916255" lon="14.2132117"><ele>109.99999999999999</ele><time>2026-05-02T12:43:43.304Z</time></trkpt><trkpt lat="40.9162783" lon="14.2131017"><ele>110.0</ele><time>2026-05-02T12:43:44.303Z</time></trkpt><trkpt lat="40.9162983" lon="14.2129867"><ele>110.0</ele><time>2026-05-02T12:43:45.302Z</time></trkpt><trkpt lat="40.9163183" lon="14.2128717"><ele>110.0</ele><time>2026-05-02T12:43:46.302Z</time></trkpt><trkpt lat="40.916335" lon="14.2127567"><ele>109.99999999999999</ele><time>2026-05-02T12:43:47.303Z</time></trkpt><trkpt lat="40.9163533" lon="14.2126467"><ele>110.0</ele><time>2026-05-02T12:43:48.302Z</time></trkpt><trkpt lat="40.91637" lon="14.2125333"><ele>109.99999999999999</ele><time>2026-05-02T12:43:49.304Z</time></trkpt><trkpt lat="40.9163833" lon="14.2124167"><ele>110.0</ele><time>2026-05-02T12:43:50.304Z</time></trkpt><trkpt lat="40.9163933" lon="14.2123017"><ele>110.0</ele><time>2026-05-02T12:43:51.302Z</time></trkpt><trkpt lat="40.9164" lon="14.212185"><ele>110.0</ele><time>2026-05-02T12:43:52.302Z</time></trkpt><trkpt lat="40.916405" lon="14.2120683"><ele>109.99999999999999</ele><time>2026-05-02T12:43:53.302Z</time></trkpt><trkpt lat="40.9164133" lon="14.2119483"><ele>110.0</ele><time>2026-05-02T12:43:54.302Z</time></trkpt><trkpt lat="40.9164217" lon="14.2118317"><ele>110.16666666666666</ele><time>2026-05-02T12:43:55.302Z</time></trkpt><trkpt lat="40.9164317" lon="14.2117183"><ele>110.33333333333333</ele><time>2026-05-02T12:43:56.303Z</time></trkpt><trkpt lat="40.9164433" lon="14.2115983"><ele>110.5</ele><time>2026-05-02T12:43:57.302Z</time></trkpt><trkpt lat="40.9164517" lon="14.2114817"><ele>110.66666666666666</ele><time>2026-05-02T12:43:58.303Z</time></trkpt><trkpt lat="40.91646" lon="14.211365"><ele>110.83333333333333</ele><time>2026-05-02T12:43:59.302Z</time></trkpt><trkpt lat="40.91647" lon="14.21125"><ele>111.0</ele><time>2026-05-02T12:44:00.302Z</time></trkpt><trkpt lat="40.9164767" lon="14.211135"><ele>111.0</ele><time>2026-05-02T12:44:01.302Z</time></trkpt><trkpt lat="40.9164767" lon="14.2110167"><ele>111.0</ele><time>2026-05-02T12:44:02.303Z</time></trkpt><trkpt lat="40.9164767" lon="14.2109"><ele>111.0</ele><time>2026-05-02T12:44:03.302Z</time></trkpt><trkpt lat="40.91648" lon="14.2107833"><ele>111.0</ele><time>2026-05-02T12:44:04.303Z</time></trkpt><trkpt lat="40.9164867" lon="14.2106667"><ele>111.0</ele><time>2026-05-02T12:44:05.303Z</time></trkpt><trkpt lat="40.9164983" lon="14.2105517"><ele>111.0</ele><time>2026-05-02T12:44:06.304Z</time></trkpt><trkpt lat="40.9165067" lon="14.2104383"><ele>111.0</ele><time>2026-05-02T12:44:07.302Z</time></trkpt><trkpt lat="40.9165183" lon="14.2103233"><ele>111.0</ele><time>2026-05-02T12:44:08.303Z</time></trkpt><trkpt lat="40.9165283" lon="14.21021"><ele>111.0</ele><time>2026-05-02T12:44:09.302Z</time></trkpt><trkpt lat="40.916535" lon="14.2100917"><ele>111.0</ele><time>2026-05-02T12:44:10.303Z</time></trkpt><trkpt lat="40.9165417" lon="14.2099767"><ele>111.0</ele><time>2026-05-02T12:44:11.301Z</time></trkpt><trkpt lat="40.9165517" lon="14.209865"><ele>111.0</ele><time>2026-05-02T12:44:12.302Z</time></trkpt><trkpt lat="40.9165567" lon="14.20975"><ele>110.66666666666667</ele><time>2026-05-02T12:44:13.302Z</time></trkpt><trkpt lat="40.9165583" lon="14.2096367"><ele>110.33333333333334</ele><time>2026-05-02T12:44:14.302Z</time></trkpt><trkpt lat="40.9165633" lon="14.2095217"><ele>110.0</ele><time>2026-05-02T12:44:15.302Z</time></trkpt><trkpt lat="40.9165733" lon="14.2094067"><ele>109.66666666666667</ele><time>2026-05-02T12:44:16.303Z</time></trkpt><trkpt lat="40.9165817" lon="14.20929"><ele>109.33333333333334</ele><time>2026-05-02T12:44:17.303Z</time></trkpt><trkpt lat="40.9165917" lon="14.20917"><ele>109.0</ele><time>2026-05-02T12:44:18.302Z</time></trkpt><trkpt lat="40.9165983" lon="14.2090483"><ele>109.4</ele><time>2026-05-02T12:44:19.304Z</time></trkpt><trkpt lat="40.9166067" lon="14.208925"><ele>109.80000000000001</ele><time>2026-05-02T12:44:20.301Z</time></trkpt><trkpt lat="40.91662" lon="14.208805"><ele>110.19999999999999</ele><time>2026-05-02T12:44:21.302Z</time></trkpt><trkpt lat="40.9166267" lon="14.2086817"><ele>110.6</ele><time>2026-05-02T12:44:22.302Z</time></trkpt><trkpt lat="40.916635" lon="14.20856"><ele>111.0</ele><time>2026-05-02T12:44:23.305Z</time></trkpt><trkpt lat="40.9166433" lon="14.20844"><ele>111.0</ele><time>2026-05-02T12:44:24.302Z</time></trkpt><trkpt lat="40.916655" lon="14.2083217"><ele>111.0</ele><time>2026-05-02T12:44:25.304Z</time></trkpt><trkpt lat="40.916665" lon="14.208205"><ele>111.0</ele><time>2026-05-02T12:44:26.302Z</time></trkpt><trkpt lat="40.9166733" lon="14.2080867"><ele>111.0</ele><time>2026-05-02T12:44:27.303Z</time></trkpt><trkpt lat="40.91668" lon="14.20797"><ele>111.0</ele><time>2026-05-02T12:44:28.302Z</time></trkpt><trkpt lat="40.916685" lon="14.2078517"><ele>111.0</ele><time>2026-05-02T12:44:29.303Z</time></trkpt><trkpt lat="40.9166883" lon="14.2077333"><ele>111.33333333333333</ele><time>2026-05-02T12:44:30.302Z</time></trkpt><trkpt lat="40.9166933" lon="14.20762"><ele>111.66666666666666</ele><time>2026-05-02T12:44:31.303Z</time></trkpt><trkpt lat="40.9166983" lon="14.20751"><ele>112.0</ele><time>2026-05-02T12:44:32.302Z</time></trkpt><trkpt lat="40.9167067" lon="14.2074"><ele>112.33333333333333</ele><time>2026-05-02T12:44:33.301Z</time></trkpt><trkpt lat="40.916715" lon="14.2072917"><ele>112.66666666666666</ele><time>2026-05-02T12:44:34.303Z</time></trkpt><trkpt lat="40.9167233" lon="14.207185"><ele>113.0</ele><time>2026-05-02T12:44:35.302Z</time></trkpt><trkpt lat="40.9167283" lon="14.207075"><ele>113.16666666666666</ele><time>2026-05-02T12:44:36.302Z</time></trkpt><trkpt lat="40.9167267" lon="14.2069633"><ele>113.33333333333333</ele><time>2026-05-02T12:44:37.303Z</time></trkpt><trkpt lat="40.9167317" lon="14.2068617"><ele>113.5</ele><time>2026-05-02T12:44:38.303Z</time></trkpt><trkpt lat="40.9167367" lon="14.20676"><ele>113.66666666666666</ele><time>2026-05-02T12:44:39.302Z</time></trkpt><trkpt lat="40.9167417" lon="14.2066617"><ele>113.83333333333333</ele><time>2026-05-02T12:44:40.302Z</time></trkpt><trkpt lat="40.9167467" lon="14.206565"><ele>114.0</ele><time>2026-05-02T12:44:41.304Z</time></trkpt><trkpt lat="40.91675" lon="14.2064683"><ele>113.71428571428571</ele><time>2026-05-02T12:44:42.302Z</time></trkpt><trkpt lat="40.9167617" lon="14.206375"><ele>113.42857142857142</ele><time>2026-05-02T12:44:43.304Z</time></trkpt><trkpt lat="40.916775" lon="14.206285"><ele>113.14285714285714</ele><time>2026-05-02T12:44:44.302Z</time></trkpt><trkpt lat="40.916795" lon="14.206195"><ele>112.85714285714286</ele><time>2026-05-02T12:44:45.302Z</time></trkpt><trkpt lat="40.91682" lon="14.20611"><ele>112.57142857142857</ele><time>2026-05-02T12:44:46.303Z</time></trkpt><trkpt lat="40.9168567" lon="14.2060333"><ele>112.28571428571428</ele><time>2026-05-02T12:44:47.303Z</time></trkpt><trkpt lat="40.9169" lon="14.2059583"><ele>112.0</ele><time>2026-05-02T12:44:48.305Z</time></trkpt><trkpt lat="40.916935" lon="14.205875"><ele>112.00000000000001</ele><time>2026-05-02T12:44:49.303Z</time></trkpt><trkpt lat="40.9169617" lon="14.205725"><ele>112.0</ele><time>2026-05-02T12:44:51.302Z</time></trkpt><trkpt lat="40.916945" lon="14.20564"><ele>112.0</ele><time>2026-05-02T12:44:52.303Z</time></trkpt><trkpt lat="40.91692" lon="14.2055433"><ele>112.0</ele><time>2026-05-02T12:44:53.303Z</time></trkpt><trkpt lat="40.9168933" lon="14.2054467"><ele>112.00000000000001</ele><time>2026-05-02T12:44:54.303Z</time></trkpt><trkpt lat="40.9168717" lon="14.20535"><ele>112.0</ele><time>2026-05-02T12:44:55.302Z</time></trkpt><trkpt lat="40.916855" lon="14.205245"><ele>112.00000000000001</ele><time>2026-05-02T12:44:56.302Z</time></trkpt><trkpt lat="40.9168483" lon="14.2051417"><ele>112.0</ele><time>2026-05-02T12:44:57.302Z</time></trkpt><trkpt lat="40.9168533" lon="14.2050383"><ele>112.0</ele><time>2026-05-02T12:44:58.302Z</time></trkpt><trkpt lat="40.91686" lon="14.2049333"><ele>112.0</ele><time>2026-05-02T12:44:59.303Z</time></trkpt><trkpt lat="40.916865" lon="14.2048233"><ele>112.00000000000001</ele><time>2026-05-02T12:45:00.302Z</time></trkpt><trkpt lat="40.9168733" lon="14.2047117"><ele>112.0</ele><time>2026-05-02T12:45:01.302Z</time></trkpt><trkpt lat="40.9168817" lon="14.2046"><ele>112.00000000000001</ele><time>2026-05-02T12:45:02.302Z</time></trkpt><trkpt lat="40.9168917" lon="14.2044883"><ele>112.0</ele><time>2026-05-02T12:45:03.301Z</time></trkpt><trkpt lat="40.9168983" lon="14.2043767"><ele>112.0</ele><time>2026-05-02T12:45:04.302Z</time></trkpt><trkpt lat="40.9169033" lon="14.2042683"><ele>112.0</ele><time>2026-05-02T12:45:05.302Z</time></trkpt><trkpt lat="40.9169083" lon="14.20416"><ele>112.00000000000001</ele><time>2026-05-02T12:45:06.302Z</time></trkpt><trkpt lat="40.9169133" lon="14.204055"><ele>112.0</ele><time>2026-05-02T12:45:07.302Z</time></trkpt><trkpt lat="40.9169167" lon="14.2039483"><ele>112.00000000000001</ele><time>2026-05-02T12:45:08.301Z</time></trkpt><trkpt lat="40.9169217" lon="14.20384"><ele>112.0</ele><time>2026-05-02T12:45:09.301Z</time></trkpt><trkpt lat="40.91693" lon="14.2037367"><ele>112.0</ele><time>2026-05-02T12:45:10.302Z</time></trkpt><trkpt lat="40.9169367" lon="14.2036367"><ele>112.0</ele><time>2026-05-02T12:45:11.302Z</time></trkpt><trkpt lat="40.916945" lon="14.203535"><ele>112.00000000000001</ele><time>2026-05-02T12:45:12.302Z</time></trkpt><trkpt lat="40.91695" lon="14.2034317"><ele>112.0</ele><time>2026-05-02T12:45:13.304Z</time></trkpt><trkpt lat="40.916955" lon="14.2033333"><ele>112.00000000000001</ele><time>2026-05-02T12:45:14.303Z</time></trkpt><trkpt lat="40.9169583" lon="14.203235"><ele>112.0</ele><time>2026-05-02T12:45:15.303Z</time></trkpt><trkpt lat="40.9169633" lon="14.203135"><ele>112.0</ele><time>2026-05-02T12:45:16.302Z</time></trkpt><trkpt lat="40.9169683" lon="14.203035"><ele>112.0</ele><time>2026-05-02T12:45:17.303Z</time></trkpt><trkpt lat="40.916975" lon="14.2029367"><ele>112.00000000000001</ele><time>2026-05-02T12:45:18.302Z</time></trkpt><trkpt lat="40.9169833" lon="14.2028367"><ele>112.0</ele><time>2026-05-02T12:45:19.303Z</time></trkpt><trkpt lat="40.9169917" lon="14.2027333"><ele>112.00000000000001</ele><time>2026-05-02T12:45:20.302Z</time></trkpt><trkpt lat="40.9169967" lon="14.2026267"><ele>112.0</ele><time>2026-05-02T12:45:21.302Z</time></trkpt><trkpt lat="40.9170033" lon="14.2025167"><ele>112.0</ele><time>2026-05-02T12:45:22.302Z</time></trkpt><trkpt lat="40.9170133" lon="14.20241"><ele>112.0</ele><time>2026-05-02T12:45:23.302Z</time></trkpt><trkpt lat="40.917025" lon="14.2023033"><ele>112.00000000000001</ele><time>2026-05-02T12:45:24.301Z</time></trkpt><trkpt lat="40.9170317" lon="14.2021917"><ele>112.0</ele><time>2026-05-02T12:45:25.303Z</time></trkpt><trkpt lat="40.9170417" lon="14.202085"><ele>112.00000000000001</ele><time>2026-05-02T12:45:26.303Z</time></trkpt><trkpt lat="40.9170483" lon="14.201975"><ele>112.0</ele><time>2026-05-02T12:45:27.302Z</time></trkpt><trkpt lat="40.9170567" lon="14.2018667"><ele>112.0</ele><time>2026-05-02T12:45:28.302Z</time></trkpt><trkpt lat="40.9170667" lon="14.20176"><ele>112.0</ele><time>2026-05-02T12:45:29.303Z</time></trkpt><trkpt lat="40.917075" lon="14.2016583"><ele>112.00000000000001</ele><time>2026-05-02T12:45:30.302Z</time></trkpt><trkpt lat="40.9170833" lon="14.2015583"><ele>112.0</ele><time>2026-05-02T12:45:31.303Z</time></trkpt><trkpt lat="40.9170933" lon="14.201455"><ele>111.83333333333334</ele><time>2026-05-02T12:45:32.302Z</time></trkpt><trkpt lat="40.917105" lon="14.20135"><ele>111.66666666666667</ele><time>2026-05-02T12:45:33.302Z</time></trkpt><trkpt lat="40.9171133" lon="14.2012467"><ele>111.5</ele><time>2026-05-02T12:45:34.303Z</time></trkpt><trkpt lat="40.9171217" lon="14.2011433"><ele>111.33333333333334</ele><time>2026-05-02T12:45:35.303Z</time></trkpt><trkpt lat="40.9171317" lon="14.2010383"><ele>111.16666666666667</ele><time>2026-05-02T12:45:36.302Z</time></trkpt><trkpt lat="40.9171417" lon="14.200935"><ele>111.0</ele><time>2026-05-02T12:45:37.302Z</time></trkpt><trkpt lat="40.9171533" lon="14.20083"><ele>111.0</ele><time>2026-05-02T12:45:38.303Z</time></trkpt><trkpt lat="40.917165" lon="14.20072"><ele>111.0</ele><time>2026-05-02T12:45:39.302Z</time></trkpt><trkpt lat="40.917185" lon="14.2006133"><ele>111.0</ele><time>2026-05-02T12:45:40.303Z</time></trkpt><trkpt lat="40.9172083" lon="14.20051"><ele>111.0</ele><time>2026-05-02T12:45:41.303Z</time></trkpt><trkpt lat="40.9172317" lon="14.2004033"><ele>111.0</ele><time>2026-05-02T12:45:42.303Z</time></trkpt><trkpt lat="40.91725" lon="14.2002933"><ele>111.0</ele><time>2026-05-02T12:45:43.304Z</time></trkpt><trkpt lat="40.91727" lon="14.200185"><ele>111.0</ele><time>2026-05-02T12:45:44.302Z</time></trkpt><trkpt lat="40.917285" lon="14.2000783"><ele>111.0</ele><time>2026-05-02T12:45:45.301Z</time></trkpt><trkpt lat="40.917295" lon="14.1999667"><ele>111.0</ele><time>2026-05-02T12:45:46.303Z</time></trkpt><trkpt lat="40.9173033" lon="14.199855"><ele>111.0</ele><time>2026-05-02T12:45:47.303Z</time></trkpt><trkpt lat="40.91731" lon="14.19974"><ele>111.0</ele><time>2026-05-02T12:45:48.304Z</time></trkpt><trkpt lat="40.91732" lon="14.199625"><ele>111.0</ele><time>2026-05-02T12:45:49.303Z</time></trkpt><trkpt lat="40.9173267" lon="14.1995117"><ele>111.33333333333333</ele><time>2026-05-02T12:45:50.303Z</time></trkpt><trkpt lat="40.9173317" lon="14.1994017"><ele>111.66666666666666</ele><time>2026-05-02T12:45:51.302Z</time></trkpt><trkpt lat="40.9173317" lon="14.1992933"><ele>112.0</ele><time>2026-05-02T12:45:52.303Z</time></trkpt><trkpt lat="40.9173267" lon="14.19918"><ele>112.33333333333333</ele><time>2026-05-02T12:45:53.302Z</time></trkpt><trkpt lat="40.917315" lon="14.1990617"><ele>112.66666666666666</ele><time>2026-05-02T12:45:54.306Z</time></trkpt><trkpt lat="40.917305" lon="14.1989433"><ele>113.0</ele><time>2026-05-02T12:45:55.303Z</time></trkpt><trkpt lat="40.9173017" lon="14.1988283"><ele>113.16666666666666</ele><time>2026-05-02T12:45:56.302Z</time></trkpt><trkpt lat="40.9173017" lon="14.1987167"><ele>113.33333333333333</ele><time>2026-05-02T12:45:57.304Z</time></trkpt><trkpt lat="40.9173033" lon="14.1986"><ele>113.5</ele><time>2026-05-02T12:45:58.302Z</time></trkpt><trkpt lat="40.9173083" lon="14.1984867"><ele>113.66666666666666</ele><time>2026-05-02T12:45:59.303Z</time></trkpt><trkpt lat="40.9173167" lon="14.1983767"><ele>113.83333333333333</ele><time>2026-05-02T12:46:00.304Z</time></trkpt><trkpt lat="40.9173233" lon="14.1982633"><ele>114.0</ele><time>2026-05-02T12:46:01.304Z</time></trkpt><trkpt lat="40.9173283" lon="14.1981533"><ele>114.33333333333333</ele><time>2026-05-02T12:46:02.302Z</time></trkpt><trkpt lat="40.917335" lon="14.1980417"><ele>114.66666666666666</ele><time>2026-05-02T12:46:03.302Z</time></trkpt><trkpt lat="40.91734" lon="14.1979283"><ele>115.0</ele><time>2026-05-02T12:46:04.302Z</time></trkpt><trkpt lat="40.917345" lon="14.1978167"><ele>115.33333333333333</ele><time>2026-05-02T12:46:05.303Z</time></trkpt><trkpt lat="40.91735" lon="14.1977083"><ele>115.66666666666666</ele><time>2026-05-02T12:46:06.302Z</time></trkpt><trkpt lat="40.9173583" lon="14.1976"><ele>116.0</ele><time>2026-05-02T12:46:07.303Z</time></trkpt><trkpt lat="40.9173667" lon="14.1974933"><ele>115.99999999999999</ele><time>2026-05-02T12:46:08.303Z</time></trkpt><trkpt lat="40.9173767" lon="14.197385"><ele>116.0</ele><time>2026-05-02T12:46:09.302Z</time></trkpt><trkpt lat="40.917385" lon="14.19728"><ele>116.0</ele><time>2026-05-02T12:46:10.302Z</time></trkpt><trkpt lat="40.9173933" lon="14.1971767"><ele>116.0</ele><time>2026-05-02T12:46:11.31Z</time></trkpt><trkpt lat="40.9174017" lon="14.1970733"><ele>115.99999999999999</ele><time>2026-05-02T12:46:12.302Z</time></trkpt><trkpt lat="40.9174167" lon="14.1969683"><ele>116.0</ele><time>2026-05-02T12:46:13.303Z</time></trkpt><trkpt lat="40.9174417" lon="14.1968667"><ele>115.99999999999999</ele><time>2026-05-02T12:46:14.306Z</time></trkpt><trkpt lat="40.9174717" lon="14.1967633"><ele>116.0</ele><time>2026-05-02T12:46:15.302Z</time></trkpt><trkpt lat="40.9175133" lon="14.1966633"><ele>116.0</ele><time>2026-05-02T12:46:16.302Z</time></trkpt><trkpt lat="40.917555" lon="14.196565"><ele>116.0</ele><time>2026-05-02T12:46:17.303Z</time></trkpt><trkpt lat="40.9175883" lon="14.1964633"><ele>115.99999999999999</ele><time>2026-05-02T12:46:18.303Z</time></trkpt><trkpt lat="40.91761" lon="14.1963617"><ele>116.0</ele><time>2026-05-02T12:46:19.303Z</time></trkpt><trkpt lat="40.917615" lon="14.19626"><ele>115.99999999999999</ele><time>2026-05-02T12:46:20.303Z</time></trkpt><trkpt lat="40.9175983" lon="14.19616"><ele>116.0</ele><time>2026-05-02T12:46:21.302Z</time></trkpt><trkpt lat="40.91757" lon="14.196065"><ele>116.0</ele><time>2026-05-02T12:46:22.302Z</time></trkpt><trkpt lat="40.917535" lon="14.1959783"><ele>116.0</ele><time>2026-05-02T12:46:23.303Z</time></trkpt><trkpt lat="40.9174967" lon="14.1958967"><ele>115.99999999999999</ele><time>2026-05-02T12:46:24.303Z</time></trkpt><trkpt lat="40.91746" lon="14.1958133"><ele>116.0</ele><time>2026-05-02T12:46:25.408Z</time></trkpt><trkpt lat="40.9174117" lon="14.1956317"><ele>116.0</ele><time>2026-05-02T12:46:27.302Z</time></trkpt><trkpt lat="40.917395" lon="14.195535"><ele>116.0</ele><time>2026-05-02T12:46:28.302Z</time></trkpt><trkpt lat="40.9173833" lon="14.19544"><ele>116.0</ele><time>2026-05-02T12:46:29.303Z</time></trkpt><trkpt lat="40.9173717" lon="14.19535"><ele>116.0</ele><time>2026-05-02T12:46:30.302Z</time></trkpt><trkpt lat="40.9173483" lon="14.19519"><ele>116.0</ele><time>2026-05-02T12:46:32.303Z</time></trkpt><trkpt lat="40.9173233" lon="14.1950333"><ele>116.0</ele><time>2026-05-02T12:46:34.304Z</time></trkpt><trkpt lat="40.9173267" lon="14.1948883"><ele>116.0</ele><time>2026-05-02T12:46:36.302Z</time></trkpt><trkpt lat="40.91734" lon="14.1947433"><ele>116.0</ele><time>2026-05-02T12:46:38.302Z</time></trkpt><trkpt lat="40.91734" lon="14.1945783"><ele>116.0</ele><time>2026-05-02T12:46:40.306Z</time></trkpt><trkpt lat="40.91735" lon="14.1944867"><ele>116.0</ele><time>2026-05-02T12:46:41.302Z</time></trkpt><trkpt lat="40.9173533" lon="14.1943883"><ele>115.66666666666666</ele><time>2026-05-02T12:46:42.303Z</time></trkpt><trkpt lat="40.9173483" lon="14.1942783"><ele>115.33333333333333</ele><time>2026-05-02T12:46:43.303Z</time></trkpt><trkpt lat="40.9173417" lon="14.1941667"><ele>115.0</ele><time>2026-05-02T12:46:44.301Z</time></trkpt><trkpt lat="40.9173333" lon="14.194055"><ele>114.66666666666666</ele><time>2026-05-02T12:46:45.302Z</time></trkpt><trkpt lat="40.91733" lon="14.193945"><ele>114.33333333333333</ele><time>2026-05-02T12:46:46.302Z</time></trkpt><trkpt lat="40.917325" lon="14.1938367"><ele>114.0</ele><time>2026-05-02T12:46:47.303Z</time></trkpt><trkpt lat="40.9173217" lon="14.193725"><ele>114.0</ele><time>2026-05-02T12:46:48.302Z</time></trkpt><trkpt lat="40.9173167" lon="14.1936133"><ele>114.0</ele><time>2026-05-02T12:46:49.303Z</time></trkpt><trkpt lat="40.9173167" lon="14.1935117"><ele>114.0</ele><time>2026-05-02T12:46:50.302Z</time></trkpt><trkpt lat="40.9173167" lon="14.1934133"><ele>114.0</ele><time>2026-05-02T12:46:51.303Z</time></trkpt><trkpt lat="40.9173183" lon="14.1933133"><ele>114.0</ele><time>2026-05-02T12:46:52.303Z</time></trkpt><trkpt lat="40.9173133" lon="14.1932133"><ele>114.0</ele><time>2026-05-02T12:46:53.305Z</time></trkpt><trkpt lat="40.9173117" lon="14.19311"><ele>114.33333333333333</ele><time>2026-05-02T12:46:54.303Z</time></trkpt><trkpt lat="40.91731" lon="14.1930033"><ele>114.66666666666666</ele><time>2026-05-02T12:46:55.304Z</time></trkpt><trkpt lat="40.9173033" lon="14.1928933"><ele>115.0</ele><time>2026-05-02T12:46:56.301Z</time></trkpt><trkpt lat="40.91729" lon="14.1927867"><ele>115.33333333333333</ele><time>2026-05-02T12:46:57.302Z</time></trkpt><trkpt lat="40.9172867" lon="14.1926817"><ele>115.66666666666666</ele><time>2026-05-02T12:46:58.302Z</time></trkpt><trkpt lat="40.917285" lon="14.192575"><ele>116.0</ele><time>2026-05-02T12:46:59.303Z</time></trkpt><trkpt lat="40.91728" lon="14.1924683"><ele>115.99999999999999</ele><time>2026-05-02T12:47:00.31Z</time></trkpt><trkpt lat="40.91728" lon="14.1923683"><ele>116.0</ele><time>2026-05-02T12:47:01.302Z</time></trkpt><trkpt lat="40.9172783" lon="14.1922667"><ele>116.0</ele><time>2026-05-02T12:47:02.302Z</time></trkpt><trkpt lat="40.9172783" lon="14.1921633"><ele>116.0</ele><time>2026-05-02T12:47:03.302Z</time></trkpt><trkpt lat="40.9172817" lon="14.1920567"><ele>115.99999999999999</ele><time>2026-05-02T12:47:04.302Z</time></trkpt><trkpt lat="40.9172867" lon="14.1919533"><ele>116.0</ele><time>2026-05-02T12:47:05.303Z</time></trkpt><trkpt lat="40.9172883" lon="14.1918517"><ele>115.83333333333333</ele><time>2026-05-02T12:47:06.303Z</time></trkpt><trkpt lat="40.9172883" lon="14.1917483"><ele>115.66666666666666</ele><time>2026-05-02T12:47:07.303Z</time></trkpt><trkpt lat="40.91729" lon="14.1916417"><ele>115.5</ele><time>2026-05-02T12:47:08.303Z</time></trkpt><trkpt lat="40.9172917" lon="14.1915367"><ele>115.33333333333334</ele><time>2026-05-02T12:47:09.302Z</time></trkpt><trkpt lat="40.9172933" lon="14.1914333"><ele>115.16666666666667</ele><time>2026-05-02T12:47:10.303Z</time></trkpt><trkpt lat="40.9172967" lon="14.191335"><ele>115.0</ele><time>2026-05-02T12:47:11.303Z</time></trkpt><trkpt lat="40.9173033" lon="14.1912367"><ele>115.00000000000001</ele><time>2026-05-02T12:47:12.303Z</time></trkpt><trkpt lat="40.9173117" lon="14.1911333"><ele>115.0</ele><time>2026-05-02T12:47:13.303Z</time></trkpt><trkpt lat="40.9173167" lon="14.19103"><ele>115.0</ele><time>2026-05-02T12:47:14.302Z</time></trkpt><trkpt lat="40.9173267" lon="14.1909283"><ele>115.0</ele><time>2026-05-02T12:47:15.301Z</time></trkpt><trkpt lat="40.917335" lon="14.19083"><ele>115.00000000000001</ele><time>2026-05-02T12:47:16.301Z</time></trkpt><trkpt lat="40.91734" lon="14.1907283"><ele>115.0</ele><time>2026-05-02T12:47:17.303Z</time></trkpt><trkpt lat="40.9173467" lon="14.190625"><ele>115.00000000000001</ele><time>2026-05-02T12:47:18.305Z</time></trkpt><trkpt lat="40.91736" lon="14.1905233"><ele>115.0</ele><time>2026-05-02T12:47:19.303Z</time></trkpt><trkpt lat="40.917375" lon="14.1904217"><ele>115.0</ele><time>2026-05-02T12:47:20.303Z</time></trkpt><trkpt lat="40.9173983" lon="14.190325"><ele>115.0</ele><time>2026-05-02T12:47:21.302Z</time></trkpt><trkpt lat="40.9174167" lon="14.190225"><ele>115.00000000000001</ele><time>2026-05-02T12:47:22.303Z</time></trkpt><trkpt lat="40.9174333" lon="14.190125"><ele>115.0</ele><time>2026-05-02T12:47:23.303Z</time></trkpt><trkpt lat="40.917445" lon="14.190025"><ele>115.00000000000001</ele><time>2026-05-02T12:47:24.302Z</time></trkpt><trkpt lat="40.9174533" lon="14.1899217"><ele>115.0</ele><time>2026-05-02T12:47:25.303Z</time></trkpt><trkpt lat="40.9174633" lon="14.189815"><ele>115.0</ele><time>2026-05-02T12:47:26.303Z</time></trkpt><trkpt lat="40.9174783" lon="14.1897133"><ele>115.0</ele><time>2026-05-02T12:47:27.302Z</time></trkpt><trkpt lat="40.9174933" lon="14.18961"><ele>115.00000000000001</ele><time>2026-05-02T12:47:28.303Z</time></trkpt><trkpt lat="40.91751" lon="14.189505"><ele>115.0</ele><time>2026-05-02T12:47:29.306Z</time></trkpt><trkpt lat="40.91753" lon="14.1894"><ele>115.00000000000001</ele><time>2026-05-02T12:47:30.303Z</time></trkpt><trkpt lat="40.9175517" lon="14.1893017"><ele>115.0</ele><time>2026-05-02T12:47:31.303Z</time></trkpt><trkpt lat="40.9175733" lon="14.1892"><ele>115.0</ele><time>2026-05-02T12:47:32.303Z</time></trkpt><trkpt lat="40.9175917" lon="14.1890983"><ele>115.0</ele><time>2026-05-02T12:47:33.303Z</time></trkpt><trkpt lat="40.9176117" lon="14.1889967"><ele>115.00000000000001</ele><time>2026-05-02T12:47:34.302Z</time></trkpt><trkpt lat="40.9176333" lon="14.1888933"><ele>115.0</ele><time>2026-05-02T12:47:35.303Z</time></trkpt><trkpt lat="40.9176567" lon="14.18879"><ele>115.00000000000001</ele><time>2026-05-02T12:47:36.302Z</time></trkpt><trkpt lat="40.9176833" lon="14.1886933"><ele>115.0</ele><time>2026-05-02T12:47:37.302Z</time></trkpt><trkpt lat="40.9177117" lon="14.1885867"><ele>115.0</ele><time>2026-05-02T12:47:38.301Z</time></trkpt><trkpt lat="40.9177417" lon="14.18848"><ele>115.0</ele><time>2026-05-02T12:47:39.301Z</time></trkpt><trkpt lat="40.9177717" lon="14.18837"><ele>115.00000000000001</ele><time>2026-05-02T12:47:40.301Z</time></trkpt><trkpt lat="40.9178" lon="14.1882633"><ele>115.0</ele><time>2026-05-02T12:47:41.302Z</time></trkpt><trkpt lat="40.9178267" lon="14.1881567"><ele>115.16666666666667</ele><time>2026-05-02T12:47:42.302Z</time></trkpt><trkpt lat="40.91786" lon="14.1880533"><ele>115.33333333333334</ele><time>2026-05-02T12:47:43.302Z</time></trkpt><trkpt lat="40.9178917" lon="14.18795"><ele>115.5</ele><time>2026-05-02T12:47:44.302Z</time></trkpt><trkpt lat="40.9179217" lon="14.1878433"><ele>115.66666666666666</ele><time>2026-05-02T12:47:45.302Z</time></trkpt><trkpt lat="40.9179533" lon="14.1877367"><ele>115.83333333333333</ele><time>2026-05-02T12:47:46.301Z</time></trkpt><trkpt lat="40.9179867" lon="14.18763"><ele>116.0</ele><time>2026-05-02T12:47:47.302Z</time></trkpt><trkpt lat="40.91802" lon="14.1875233"><ele>115.99999999999999</ele><time>2026-05-02T12:47:48.302Z</time></trkpt><trkpt lat="40.918055" lon="14.1874167"><ele>116.0</ele><time>2026-05-02T12:47:49.302Z</time></trkpt><trkpt lat="40.9180883" lon="14.1873133"><ele>116.0</ele><time>2026-05-02T12:47:50.302Z</time></trkpt><trkpt lat="40.91812" lon="14.187215"><ele>116.0</ele><time>2026-05-02T12:47:51.301Z</time></trkpt><trkpt lat="40.9181483" lon="14.1871167"><ele>115.99999999999999</ele><time>2026-05-02T12:47:52.302Z</time></trkpt><trkpt lat="40.918175" lon="14.1870283"><ele>116.0</ele><time>2026-05-02T12:47:53.302Z</time></trkpt><trkpt lat="40.9182267" lon="14.1868883"><ele>115.8</ele><time>2026-05-02T12:47:55.302Z</time></trkpt><trkpt lat="40.9182817" lon="14.1867867"><ele>115.6</ele><time>2026-05-02T12:47:57.302Z</time></trkpt><trkpt lat="40.9183517" lon="14.1866833"><ele>115.4</ele><time>2026-05-02T12:47:59.302Z</time></trkpt><trkpt lat="40.9183917" lon="14.1865467"><ele>115.2</ele><time>2026-05-02T12:48:01.302Z</time></trkpt><trkpt lat="40.9184167" lon="14.18638"><ele>115.0</ele><time>2026-05-02T12:48:03.303Z</time></trkpt><trkpt lat="40.9184367" lon="14.186295"><ele>114.66666666666667</ele><time>2026-05-02T12:48:04.302Z</time></trkpt><trkpt lat="40.9184583" lon="14.1862067"><ele>114.33333333333334</ele><time>2026-05-02T12:48:05.302Z</time></trkpt><trkpt lat="40.9184867" lon="14.186115"><ele>114.0</ele><time>2026-05-02T12:48:06.302Z</time></trkpt><trkpt lat="40.9185117" lon="14.18602"><ele>113.66666666666666</ele><time>2026-05-02T12:48:07.303Z</time></trkpt><trkpt lat="40.9185367" lon="14.1859217"><ele>113.33333333333333</ele><time>2026-05-02T12:48:08.302Z</time></trkpt><trkpt lat="40.918565" lon="14.1858183"><ele>113.0</ele><time>2026-05-02T12:48:09.301Z</time></trkpt><trkpt lat="40.9186" lon="14.1857183"><ele>112.99999999999999</ele><time>2026-05-02T12:48:10.302Z</time></trkpt><trkpt lat="40.9186367" lon="14.1856167"><ele>113.0</ele><time>2026-05-02T12:48:11.302Z</time></trkpt><trkpt lat="40.91867" lon="14.1855167"><ele>113.0</ele><time>2026-05-02T12:48:12.303Z</time></trkpt><trkpt lat="40.9187017" lon="14.1854133"><ele>113.0</ele><time>2026-05-02T12:48:13.302Z</time></trkpt><trkpt lat="40.918735" lon="14.1853083"><ele>112.99999999999999</ele><time>2026-05-02T12:48:14.302Z</time></trkpt><trkpt lat="40.9187683" lon="14.1851983"><ele>113.0</ele><time>2026-05-02T12:48:15.302Z</time></trkpt><trkpt lat="40.9188017" lon="14.1850867"><ele>113.0</ele><time>2026-05-02T12:48:16.302Z</time></trkpt><trkpt lat="40.9188383" lon="14.1849733"><ele>113.00000000000001</ele><time>2026-05-02T12:48:17.303Z</time></trkpt><trkpt lat="40.918875" lon="14.1848567"><ele>113.00000000000001</ele><time>2026-05-02T12:48:18.302Z</time></trkpt><trkpt lat="40.9189133" lon="14.184735"><ele>113.0</ele><time>2026-05-02T12:48:19.303Z</time></trkpt><trkpt lat="40.918955" lon="14.1846183"><ele>113.0</ele><time>2026-05-02T12:48:20.302Z</time></trkpt><trkpt lat="40.9189983" lon="14.1845033"><ele>113.0</ele><time>2026-05-02T12:48:21.301Z</time></trkpt><trkpt lat="40.9190367" lon="14.18439"><ele>113.00000000000001</ele><time>2026-05-02T12:48:22.303Z</time></trkpt><trkpt lat="40.9190733" lon="14.184265"><ele>113.00000000000001</ele><time>2026-05-02T12:48:23.303Z</time></trkpt><trkpt lat="40.91911" lon="14.1841483"><ele>113.0</ele><time>2026-05-02T12:48:24.301Z</time></trkpt><trkpt lat="40.919145" lon="14.18404"><ele>113.0</ele><time>2026-05-02T12:48:25.302Z</time></trkpt><trkpt lat="40.91918" lon="14.1839283"><ele>112.99999999999999</ele><time>2026-05-02T12:48:26.302Z</time></trkpt><trkpt lat="40.919215" lon="14.1838167"><ele>113.0</ele><time>2026-05-02T12:48:27.302Z</time></trkpt><trkpt lat="40.91925" lon="14.1837083"><ele>113.0</ele><time>2026-05-02T12:48:28.302Z</time></trkpt><trkpt lat="40.91928" lon="14.183605"><ele>113.0</ele><time>2026-05-02T12:48:29.302Z</time></trkpt><trkpt lat="40.9193083" lon="14.183505"><ele>112.99999999999999</ele><time>2026-05-02T12:48:30.302Z</time></trkpt><trkpt lat="40.9193367" lon="14.1834017"><ele>113.0</ele><time>2026-05-02T12:48:31.302Z</time></trkpt><trkpt lat="40.9193717" lon="14.1833033"><ele>112.99999999999999</ele><time>2026-05-02T12:48:32.302Z</time></trkpt><trkpt lat="40.9194033" lon="14.1832033"><ele>113.0</ele><time>2026-05-02T12:48:33.302Z</time></trkpt><trkpt lat="40.9194317" lon="14.1830983"><ele>113.0</ele><time>2026-05-02T12:48:34.302Z</time></trkpt><trkpt lat="40.9194617" lon="14.1830017"><ele>113.0</ele><time>2026-05-02T12:48:35.302Z</time></trkpt><trkpt lat="40.91949" lon="14.1829017"><ele>112.99999999999999</ele><time>2026-05-02T12:48:36.302Z</time></trkpt><trkpt lat="40.91952" lon="14.1828067"><ele>113.0</ele><time>2026-05-02T12:48:37.302Z</time></trkpt><trkpt lat="40.919555" lon="14.1827133"><ele>113.14285714285714</ele><time>2026-05-02T12:48:38.302Z</time></trkpt><trkpt lat="40.9195917" lon="14.1826283"><ele>113.28571428571428</ele><time>2026-05-02T12:48:39.302Z</time></trkpt><trkpt lat="40.9196367" lon="14.1825567"><ele>113.42857142857142</ele><time>2026-05-02T12:48:40.302Z</time></trkpt><trkpt lat="40.9196867" lon="14.1824833"><ele>113.57142857142857</ele><time>2026-05-02T12:48:41.302Z</time></trkpt><trkpt lat="40.9197267" lon="14.1824"><ele>113.7142857142857</ele><time>2026-05-02T12:48:42.302Z</time></trkpt><trkpt lat="40.91976" lon="14.1823133"><ele>113.85714285714285</ele><time>2026-05-02T12:48:43.301Z</time></trkpt><trkpt lat="40.9197833" lon="14.1822233"><ele>114.0</ele><time>2026-05-02T12:48:44.302Z</time></trkpt><trkpt lat="40.9198017" lon="14.1821317"><ele>114.0</ele><time>2026-05-02T12:48:45.302Z</time></trkpt><trkpt lat="40.91981" lon="14.182035"><ele>113.99999999999999</ele><time>2026-05-02T12:48:46.303Z</time></trkpt><trkpt lat="40.91982" lon="14.1819417"><ele>114.0</ele><time>2026-05-02T12:48:47.302Z</time></trkpt><trkpt lat="40.9198317" lon="14.1818517"><ele>114.0</ele><time>2026-05-02T12:48:48.305Z</time></trkpt><trkpt lat="40.919845" lon="14.1817583"><ele>113.99999999999999</ele><time>2026-05-02T12:48:49.303Z</time></trkpt><trkpt lat="40.91986" lon="14.18166"><ele>114.0</ele><time>2026-05-02T12:48:50.302Z</time></trkpt><trkpt lat="40.9198783" lon="14.1815583"><ele>114.0</ele><time>2026-05-02T12:48:51.302Z</time></trkpt><trkpt lat="40.9199033" lon="14.1814617"><ele>114.0</ele><time>2026-05-02T12:48:52.302Z</time></trkpt><trkpt lat="40.9199317" lon="14.1813683"><ele>114.0</ele><time>2026-05-02T12:48:53.303Z</time></trkpt><trkpt lat="40.9199633" lon="14.1812683"><ele>114.0</ele><time>2026-05-02T12:48:54.302Z</time></trkpt><trkpt lat="40.919995" lon="14.18117"><ele>114.0</ele><time>2026-05-02T12:48:55.302Z</time></trkpt><trkpt lat="40.9200283" lon="14.181075"><ele>114.0</ele><time>2026-05-02T12:48:56.302Z</time></trkpt><trkpt lat="40.92006" lon="14.180975"><ele>114.0</ele><time>2026-05-02T12:48:57.302Z</time></trkpt><trkpt lat="40.9200917" lon="14.1808783"><ele>113.83333333333333</ele><time>2026-05-02T12:48:58.302Z</time></trkpt><trkpt lat="40.9201233" lon="14.1807817"><ele>113.66666666666666</ele><time>2026-05-02T12:48:59.302Z</time></trkpt><trkpt lat="40.920155" lon="14.1806817"><ele>113.5</ele><time>2026-05-02T12:49:00.301Z</time></trkpt><trkpt lat="40.920185" lon="14.1805833"><ele>113.33333333333333</ele><time>2026-05-02T12:49:01.301Z</time></trkpt><trkpt lat="40.9202183" lon="14.1804833"><ele>113.16666666666666</ele><time>2026-05-02T12:49:02.302Z</time></trkpt><trkpt lat="40.9202533" lon="14.1803817"><ele>113.0</ele><time>2026-05-02T12:49:03.303Z</time></trkpt><trkpt lat="40.9202883" lon="14.18028"><ele>112.99999999999999</ele><time>2026-05-02T12:49:04.302Z</time></trkpt><trkpt lat="40.9203217" lon="14.180175"><ele>113.0</ele><time>2026-05-02T12:49:05.303Z</time></trkpt><trkpt lat="40.9203533" lon="14.1800683"><ele>113.0</ele><time>2026-05-02T12:49:06.302Z</time></trkpt><trkpt lat="40.9203867" lon="14.1799583"><ele>113.0</ele><time>2026-05-02T12:49:07.302Z</time></trkpt><trkpt lat="40.92042" lon="14.17985"><ele>112.99999999999999</ele><time>2026-05-02T12:49:08.302Z</time></trkpt><trkpt lat="40.920455" lon="14.1797383"><ele>113.0</ele><time>2026-05-02T12:49:09.302Z</time></trkpt><trkpt lat="40.9204933" lon="14.1796317"><ele>112.99999999999999</ele><time>2026-05-02T12:49:10.302Z</time></trkpt><trkpt lat="40.9205283" lon="14.179525"><ele>113.0</ele><time>2026-05-02T12:49:11.303Z</time></trkpt><trkpt lat="40.9205567" lon="14.179425"><ele>113.0</ele><time>2026-05-02T12:49:12.302Z</time></trkpt><trkpt lat="40.92059" lon="14.1793233"><ele>113.0</ele><time>2026-05-02T12:49:13.302Z</time></trkpt><trkpt lat="40.9206217" lon="14.17922"><ele>112.99999999999999</ele><time>2026-05-02T12:49:14.302Z</time></trkpt><trkpt lat="40.9206483" lon="14.1791167"><ele>113.0</ele><time>2026-05-02T12:49:15.302Z</time></trkpt><trkpt lat="40.9206833" lon="14.1790167"><ele>112.99999999999999</ele><time>2026-05-02T12:49:16.302Z</time></trkpt><trkpt lat="40.92072" lon="14.1789133"><ele>113.0</ele><time>2026-05-02T12:49:17.303Z</time></trkpt><trkpt lat="40.9207533" lon="14.1788083"><ele>113.0</ele><time>2026-05-02T12:49:18.302Z</time></trkpt><trkpt lat="40.920785" lon="14.1787033"><ele>113.0</ele><time>2026-05-02T12:49:19.302Z</time></trkpt><trkpt lat="40.920815" lon="14.1786"><ele>112.99999999999999</ele><time>2026-05-02T12:49:20.302Z</time></trkpt><trkpt lat="40.9208483" lon="14.178495"><ele>113.0</ele><time>2026-05-02T12:49:21.302Z</time></trkpt><trkpt lat="40.92088" lon="14.1783883"><ele>112.66666666666666</ele><time>2026-05-02T12:49:22.302Z</time></trkpt><trkpt lat="40.920915" lon="14.1782817"><ele>112.33333333333333</ele><time>2026-05-02T12:49:23.302Z</time></trkpt><trkpt lat="40.9209467" lon="14.1781783"><ele>112.0</ele><time>2026-05-02T12:49:24.303Z</time></trkpt><trkpt lat="40.9209767" lon="14.1780733"><ele>111.66666666666666</ele><time>2026-05-02T12:49:25.302Z</time></trkpt><trkpt lat="40.92101" lon="14.17797"><ele>111.33333333333333</ele><time>2026-05-02T12:49:26.302Z</time></trkpt><trkpt lat="40.9210417" lon="14.1778617"><ele>111.0</ele><time>2026-05-02T12:49:27.302Z</time></trkpt><trkpt lat="40.921075" lon="14.17775"><ele>111.0</ele><time>2026-05-02T12:49:28.301Z</time></trkpt><trkpt lat="40.9211083" lon="14.1776417"><ele>111.0</ele><time>2026-05-02T12:49:29.302Z</time></trkpt><trkpt lat="40.9211433" lon="14.177535"><ele>111.0</ele><time>2026-05-02T12:49:30.303Z</time></trkpt><trkpt lat="40.9211767" lon="14.17743"><ele>111.0</ele><time>2026-05-02T12:49:31.302Z</time></trkpt><trkpt lat="40.92121" lon="14.1773233"><ele>111.0</ele><time>2026-05-02T12:49:32.302Z</time></trkpt><trkpt lat="40.9212417" lon="14.1772167"><ele>111.0</ele><time>2026-05-02T12:49:33.302Z</time></trkpt><trkpt lat="40.9212733" lon="14.1771133"><ele>111.0</ele><time>2026-05-02T12:49:34.302Z</time></trkpt><trkpt lat="40.921305" lon="14.1770067"><ele>111.0</ele><time>2026-05-02T12:49:35.302Z</time></trkpt><trkpt lat="40.9213367" lon="14.1769033"><ele>111.0</ele><time>2026-05-02T12:49:36.302Z</time></trkpt><trkpt lat="40.9213683" lon="14.1767983"><ele>111.0</ele><time>2026-05-02T12:49:37.302Z</time></trkpt><trkpt lat="40.9214017" lon="14.17669"><ele>111.0</ele><time>2026-05-02T12:49:38.302Z</time></trkpt><trkpt lat="40.9214317" lon="14.1765817"><ele>111.0</ele><time>2026-05-02T12:49:39.302Z</time></trkpt><trkpt lat="40.921465" lon="14.1764733"><ele>111.0</ele><time>2026-05-02T12:49:40.302Z</time></trkpt><trkpt lat="40.9214983" lon="14.1763683"><ele>111.0</ele><time>2026-05-02T12:49:41.302Z</time></trkpt><trkpt lat="40.92153" lon="14.1762617"><ele>111.0</ele><time>2026-05-02T12:49:42.301Z</time></trkpt><trkpt lat="40.921565" lon="14.1761533"><ele>111.0</ele><time>2026-05-02T12:49:43.302Z</time></trkpt><trkpt lat="40.9216017" lon="14.1760467"><ele>111.0</ele><time>2026-05-02T12:49:44.302Z</time></trkpt><trkpt lat="40.921635" lon="14.1759383"><ele>111.0</ele><time>2026-05-02T12:49:45.303Z</time></trkpt><trkpt lat="40.9216683" lon="14.17583"><ele>111.0</ele><time>2026-05-02T12:49:46.302Z</time></trkpt><trkpt lat="40.921705" lon="14.17572"><ele>111.0</ele><time>2026-05-02T12:49:47.303Z</time></trkpt><trkpt lat="40.92174" lon="14.1756067"><ele>111.0</ele><time>2026-05-02T12:49:48.302Z</time></trkpt><trkpt lat="40.9217767" lon="14.1754967"><ele>111.0</ele><time>2026-05-02T12:49:49.304Z</time></trkpt><trkpt lat="40.9218133" lon="14.1753867"><ele>111.0</ele><time>2026-05-02T12:49:50.302Z</time></trkpt><trkpt lat="40.9218467" lon="14.1752783"><ele>111.0</ele><time>2026-05-02T12:49:51.302Z</time></trkpt><trkpt lat="40.9218833" lon="14.17517"><ele>111.0</ele><time>2026-05-02T12:49:52.306Z</time></trkpt><trkpt lat="40.9219183" lon="14.1750617"><ele>111.0</ele><time>2026-05-02T12:49:53.302Z</time></trkpt><trkpt lat="40.9219517" lon="14.17495"><ele>111.0</ele><time>2026-05-02T12:49:54.301Z</time></trkpt><trkpt lat="40.9219883" lon="14.1748367"><ele>111.0</ele><time>2026-05-02T12:49:55.302Z</time></trkpt><trkpt lat="40.9220233" lon="14.17473"><ele>111.16666666666667</ele><time>2026-05-02T12:49:56.302Z</time></trkpt><trkpt lat="40.9220567" lon="14.174625"><ele>111.33333333333334</ele><time>2026-05-02T12:49:57.307Z</time></trkpt><trkpt lat="40.9220883" lon="14.17452"><ele>111.5</ele><time>2026-05-02T12:49:58.302Z</time></trkpt><trkpt lat="40.92212" lon="14.1744133"><ele>111.66666666666667</ele><time>2026-05-02T12:49:59.302Z</time></trkpt><trkpt lat="40.922155" lon="14.1743067"><ele>111.83333333333334</ele><time>2026-05-02T12:50:00.302Z</time></trkpt><trkpt lat="40.92219" lon="14.1742017"><ele>112.0</ele><time>2026-05-02T12:50:01.303Z</time></trkpt><trkpt lat="40.9222233" lon="14.1740967"><ele>111.83333333333334</ele><time>2026-05-02T12:50:02.303Z</time></trkpt><trkpt lat="40.9222533" lon="14.1739933"><ele>111.66666666666667</ele><time>2026-05-02T12:50:03.302Z</time></trkpt><trkpt lat="40.9222833" lon="14.1738883"><ele>111.5</ele><time>2026-05-02T12:50:04.302Z</time></trkpt><trkpt lat="40.92231" lon="14.1737833"><ele>111.33333333333334</ele><time>2026-05-02T12:50:05.303Z</time></trkpt><trkpt lat="40.9223383" lon="14.1736867"><ele>111.16666666666667</ele><time>2026-05-02T12:50:06.304Z</time></trkpt><trkpt lat="40.9223667" lon="14.1735917"><ele>111.0</ele><time>2026-05-02T12:50:07.306Z</time></trkpt><trkpt lat="40.9224017" lon="14.17351"><ele>111.0</ele><time>2026-05-02T12:50:08.302Z</time></trkpt><trkpt lat="40.9224417" lon="14.1734367"><ele>111.0</ele><time>2026-05-02T12:50:09.302Z</time></trkpt><trkpt lat="40.9224817" lon="14.1733683"><ele>111.0</ele><time>2026-05-02T12:50:10.303Z</time></trkpt><trkpt lat="40.9225133" lon="14.173295"><ele>111.0</ele><time>2026-05-02T12:50:11.302Z</time></trkpt><trkpt lat="40.9225367" lon="14.1732167"><ele>111.0</ele><time>2026-05-02T12:50:12.302Z</time></trkpt><trkpt lat="40.9225517" lon="14.173135"><ele>111.0</ele><time>2026-05-02T12:50:13.304Z</time></trkpt><trkpt lat="40.9225617" lon="14.1730517"><ele>111.0</ele><time>2026-05-02T12:50:14.302Z</time></trkpt><trkpt lat="40.9225733" lon="14.1729683"><ele>111.0</ele><time>2026-05-02T12:50:15.302Z</time></trkpt><trkpt lat="40.922595" lon="14.1728817"><ele>111.0</ele><time>2026-05-02T12:50:16.303Z</time></trkpt><trkpt lat="40.9226217" lon="14.172795"><ele>111.0</ele><time>2026-05-02T12:50:17.302Z</time></trkpt><trkpt lat="40.9226533" lon="14.1727"><ele>111.0</ele><time>2026-05-02T12:50:18.302Z</time></trkpt><trkpt lat="40.922685" lon="14.1726017"><ele>111.0</ele><time>2026-05-02T12:50:19.303Z</time></trkpt><trkpt lat="40.9227167" lon="14.172505"><ele>111.0</ele><time>2026-05-02T12:50:20.304Z</time></trkpt><trkpt lat="40.9227467" lon="14.1724083"><ele>111.0</ele><time>2026-05-02T12:50:21.302Z</time></trkpt><trkpt lat="40.92278" lon="14.1723133"><ele>111.0</ele><time>2026-05-02T12:50:22.302Z</time></trkpt><trkpt lat="40.9228117" lon="14.1722183"><ele>111.0</ele><time>2026-05-02T12:50:23.302Z</time></trkpt><trkpt lat="40.922845" lon="14.1721217"><ele>111.0</ele><time>2026-05-02T12:50:24.302Z</time></trkpt><trkpt lat="40.92288" lon="14.1720267"><ele>111.0</ele><time>2026-05-02T12:50:25.303Z</time></trkpt><trkpt lat="40.922915" lon="14.1719267"><ele>111.0</ele><time>2026-05-02T12:50:26.302Z</time></trkpt><trkpt lat="40.9229467" lon="14.1718267"><ele>111.0</ele><time>2026-05-02T12:50:27.302Z</time></trkpt><trkpt lat="40.9229783" lon="14.171725"><ele>111.0</ele><time>2026-05-02T12:50:28.302Z</time></trkpt><trkpt lat="40.92301" lon="14.1716167"><ele>111.0</ele><time>2026-05-02T12:50:29.305Z</time></trkpt><trkpt lat="40.9230417" lon="14.1715083"><ele>111.0</ele><time>2026-05-02T12:50:30.302Z</time></trkpt><trkpt lat="40.9230733" lon="14.1714"><ele>111.0</ele><time>2026-05-02T12:50:31.305Z</time></trkpt><trkpt lat="40.9231067" lon="14.1712917"><ele>111.0</ele><time>2026-05-02T12:50:32.306Z</time></trkpt><trkpt lat="40.9231383" lon="14.1711867"><ele>110.83333333333333</ele><time>2026-05-02T12:50:33.305Z</time></trkpt><trkpt lat="40.9231717" lon="14.1710833"><ele>110.66666666666666</ele><time>2026-05-02T12:50:34.302Z</time></trkpt><trkpt lat="40.923205" lon="14.1709733"><ele>110.5</ele><time>2026-05-02T12:50:35.303Z</time></trkpt><trkpt lat="40.9232383" lon="14.1708633"><ele>110.33333333333333</ele><time>2026-05-02T12:50:36.303Z</time></trkpt><trkpt lat="40.9232717" lon="14.1707533"><ele>110.16666666666666</ele><time>2026-05-02T12:50:37.303Z</time></trkpt><trkpt lat="40.923305" lon="14.1706533"><ele>110.0</ele><time>2026-05-02T12:50:38.402Z</time></trkpt><trkpt lat="40.92334" lon="14.1705533"><ele>109.99999999999999</ele><time>2026-05-02T12:50:39.302Z</time></trkpt><trkpt lat="40.9233733" lon="14.1704517"><ele>110.0</ele><time>2026-05-02T12:50:40.302Z</time></trkpt><trkpt lat="40.9234083" lon="14.17036"><ele>110.0</ele><time>2026-05-02T12:50:41.307Z</time></trkpt><trkpt lat="40.92345" lon="14.1702767"><ele>110.0</ele><time>2026-05-02T12:50:42.302Z</time></trkpt><trkpt lat="40.923495" lon="14.170205"><ele>109.99999999999999</ele><time>2026-05-02T12:50:43.303Z</time></trkpt><trkpt lat="40.9235667" lon="14.170135"><ele>110.0</ele><time>2026-05-02T12:50:45.302Z</time></trkpt><trkpt lat="40.9236217" lon="14.1700867"><ele>109.99999999999999</ele><time>2026-05-02T12:50:47.303Z</time></trkpt><trkpt lat="40.9236983" lon="14.170035"><ele>110.0</ele><time>2026-05-02T12:50:49.302Z</time></trkpt><trkpt lat="40.9237467" lon="14.1699283"><ele>110.0</ele><time>2026-05-02T12:50:51.302Z</time></trkpt><trkpt lat="40.92377" lon="14.1697717"><ele>110.0</ele><time>2026-05-02T12:50:53.302Z</time></trkpt><trkpt lat="40.92378" lon="14.1696817"><ele>109.99999999999999</ele><time>2026-05-02T12:50:54.303Z</time></trkpt><trkpt lat="40.9237933" lon="14.169585"><ele>110.0</ele><time>2026-05-02T12:50:55.303Z</time></trkpt><trkpt lat="40.9238067" lon="14.1694883"><ele>109.99999999999999</ele><time>2026-05-02T12:50:56.306Z</time></trkpt><trkpt lat="40.923815" lon="14.1693817"><ele>110.0</ele><time>2026-05-02T12:50:57.302Z</time></trkpt><trkpt lat="40.9238217" lon="14.1692733"><ele>110.0</ele><time>2026-05-02T12:50:58.303Z</time></trkpt><trkpt lat="40.92383" lon="14.1691617"><ele>110.0</ele><time>2026-05-02T12:50:59.303Z</time></trkpt><trkpt lat="40.92384" lon="14.16905"><ele>109.99999999999999</ele><time>2026-05-02T12:51:00.305Z</time></trkpt><trkpt lat="40.923855" lon="14.1689467"><ele>110.0</ele><time>2026-05-02T12:51:01.303Z</time></trkpt><trkpt lat="40.9238733" lon="14.16884"><ele>110.0</ele><time>2026-05-02T12:51:02.302Z</time></trkpt><trkpt lat="40.9238967" lon="14.1687283"><ele>110.0</ele><time>2026-05-02T12:51:03.302Z</time></trkpt><trkpt lat="40.923925" lon="14.168615"><ele>110.0</ele><time>2026-05-02T12:51:04.303Z</time></trkpt><trkpt lat="40.9239583" lon="14.1684983"><ele>110.0</ele><time>2026-05-02T12:51:05.303Z</time></trkpt><trkpt lat="40.9239967" lon="14.1683883"><ele>110.0</ele><time>2026-05-02T12:51:06.303Z</time></trkpt><trkpt lat="40.924035" lon="14.16828"><ele>109.8</ele><time>2026-05-02T12:51:07.304Z</time></trkpt><trkpt lat="40.924075" lon="14.1681667"><ele>109.6</ele><time>2026-05-02T12:51:08.303Z</time></trkpt><trkpt lat="40.9241133" lon="14.1680517"><ele>109.4</ele><time>2026-05-02T12:51:09.302Z</time></trkpt><trkpt lat="40.9241483" lon="14.167935"><ele>109.2</ele><time>2026-05-02T12:51:10.305Z</time></trkpt><trkpt lat="40.9241817" lon="14.1678117"><ele>109.0</ele><time>2026-05-02T12:51:11.303Z</time></trkpt><trkpt lat="40.9242217" lon="14.1676917"><ele>108.6</ele><time>2026-05-02T12:51:12.302Z</time></trkpt><trkpt lat="40.9242617" lon="14.16757"><ele>108.2</ele><time>2026-05-02T12:51:13.303Z</time></trkpt><trkpt lat="40.9243033" lon="14.1674567"><ele>107.79999999999998</ele><time>2026-05-02T12:51:14.303Z</time></trkpt><trkpt lat="40.9243433" lon="14.1673433"><ele>107.39999999999999</ele><time>2026-05-02T12:51:15.303Z</time></trkpt><trkpt lat="40.92438" lon="14.1672233"><ele>107.0</ele><time>2026-05-02T12:51:16.305Z</time></trkpt><trkpt lat="40.9244183" lon="14.1671067"><ele>107.0</ele><time>2026-05-02T12:51:17.301Z</time></trkpt><trkpt lat="40.924455" lon="14.1669917"><ele>106.99999999999999</ele><time>2026-05-02T12:51:18.302Z</time></trkpt><trkpt lat="40.9244917" lon="14.166875"><ele>106.99999999999999</ele><time>2026-05-02T12:51:19.303Z</time></trkpt><trkpt lat="40.9245283" lon="14.1667567"><ele>107.0</ele><time>2026-05-02T12:51:20.302Z</time></trkpt><trkpt lat="40.9245683" lon="14.1666417"><ele>107.0</ele><time>2026-05-02T12:51:21.302Z</time></trkpt><trkpt lat="40.9246067" lon="14.166525"><ele>107.19999999999999</ele><time>2026-05-02T12:51:22.303Z</time></trkpt><trkpt lat="40.9246433" lon="14.16641"><ele>107.39999999999999</ele><time>2026-05-02T12:51:23.302Z</time></trkpt><trkpt lat="40.92468" lon="14.166295"><ele>107.60000000000001</ele><time>2026-05-02T12:51:24.303Z</time></trkpt><trkpt lat="40.9247167" lon="14.1661767"><ele>107.80000000000001</ele><time>2026-05-02T12:51:25.306Z</time></trkpt><trkpt lat="40.9247567" lon="14.16606"><ele>108.0</ele><time>2026-05-02T12:51:26.302Z</time></trkpt><trkpt lat="40.9248" lon="14.1659433"><ele>108.0</ele><time>2026-05-02T12:51:27.305Z</time></trkpt><trkpt lat="40.9248367" lon="14.1658233"><ele>108.00000000000001</ele><time>2026-05-02T12:51:28.303Z</time></trkpt><trkpt lat="40.92487" lon="14.1657033"><ele>108.00000000000001</ele><time>2026-05-02T12:51:29.303Z</time></trkpt><trkpt lat="40.924905" lon="14.1655867"><ele>108.0</ele><time>2026-05-02T12:51:30.304Z</time></trkpt><trkpt lat="40.92494" lon="14.1654683"><ele>108.0</ele><time>2026-05-02T12:51:31.305Z</time></trkpt><trkpt lat="40.9249767" lon="14.1653483"><ele>107.80000000000001</ele><time>2026-05-02T12:51:32.304Z</time></trkpt><trkpt lat="40.9250183" lon="14.1652267"><ele>107.60000000000001</ele><time>2026-05-02T12:51:33.302Z</time></trkpt><trkpt lat="40.9250567" lon="14.1651083"><ele>107.39999999999999</ele><time>2026-05-02T12:51:34.302Z</time></trkpt><trkpt lat="40.9250933" lon="14.16499"><ele>107.19999999999999</ele><time>2026-05-02T12:51:35.305Z</time></trkpt><trkpt lat="40.92513" lon="14.1648717"><ele>107.0</ele><time>2026-05-02T12:51:36.303Z</time></trkpt><trkpt lat="40.925165" lon="14.1647533"><ele>107.0</ele><time>2026-05-02T12:51:37.304Z</time></trkpt><trkpt lat="40.9252033" lon="14.164635"><ele>106.99999999999999</ele><time>2026-05-02T12:51:38.302Z</time></trkpt><trkpt lat="40.9252417" lon="14.1645183"><ele>106.99999999999999</ele><time>2026-05-02T12:51:39.304Z</time></trkpt><trkpt lat="40.9252783" lon="14.1643983"><ele>107.0</ele><time>2026-05-02T12:51:40.303Z</time></trkpt><trkpt lat="40.9253167" lon="14.1642817"><ele>107.0</ele><time>2026-05-02T12:51:41.303Z</time></trkpt><trkpt lat="40.9253567" lon="14.1641633"><ele>107.0</ele><time>2026-05-02T12:51:42.303Z</time></trkpt><trkpt lat="40.9253967" lon="14.1640433"><ele>106.99999999999999</ele><time>2026-05-02T12:51:43.303Z</time></trkpt><trkpt lat="40.9254367" lon="14.1639267"><ele>106.99999999999999</ele><time>2026-05-02T12:51:44.303Z</time></trkpt><trkpt lat="40.9254767" lon="14.163805"><ele>107.0</ele><time>2026-05-02T12:51:45.306Z</time></trkpt><trkpt lat="40.9255117" lon="14.1636817"><ele>107.0</ele><time>2026-05-02T12:51:46.305Z</time></trkpt><trkpt lat="40.9255467" lon="14.1635583"><ele>106.6</ele><time>2026-05-02T12:51:47.302Z</time></trkpt><trkpt lat="40.925585" lon="14.1634383"><ele>106.19999999999999</ele><time>2026-05-02T12:51:48.303Z</time></trkpt><trkpt lat="40.9256233" lon="14.163315"><ele>105.8</ele><time>2026-05-02T12:51:49.303Z</time></trkpt><trkpt lat="40.9256583" lon="14.1631917"><ele>105.4</ele><time>2026-05-02T12:51:50.302Z</time></trkpt><trkpt lat="40.9256967" lon="14.1630667"><ele>105.0</ele><time>2026-05-02T12:51:51.303Z</time></trkpt><trkpt lat="40.9257333" lon="14.162945"><ele>105.0</ele><time>2026-05-02T12:51:52.303Z</time></trkpt><trkpt lat="40.92577" lon="14.16282"><ele>105.0</ele><time>2026-05-02T12:51:53.302Z</time></trkpt><trkpt lat="40.9258083" lon="14.1626967"><ele>105.0</ele><time>2026-05-02T12:51:54.305Z</time></trkpt><trkpt lat="40.9258467" lon="14.1625783"><ele>105.0</ele><time>2026-05-02T12:51:55.305Z</time></trkpt><trkpt lat="40.925885" lon="14.1624583"><ele>105.0</ele><time>2026-05-02T12:51:56.304Z</time></trkpt><trkpt lat="40.9259233" lon="14.1623383"><ele>105.0</ele><time>2026-05-02T12:51:57.304Z</time></trkpt><trkpt lat="40.92596" lon="14.16222"><ele>105.0</ele><time>2026-05-02T12:51:58.305Z</time></trkpt><trkpt lat="40.9259983" lon="14.1620933"><ele>105.0</ele><time>2026-05-02T12:51:59.304Z</time></trkpt><trkpt lat="40.926035" lon="14.1619583"><ele>105.0</ele><time>2026-05-02T12:52:00.305Z</time></trkpt><trkpt lat="40.9260717" lon="14.16183"><ele>105.0</ele><time>2026-05-02T12:52:01.306Z</time></trkpt><trkpt lat="40.9261067" lon="14.1617117"><ele>105.0</ele><time>2026-05-02T12:52:02.305Z</time></trkpt><trkpt lat="40.9261433" lon="14.1615983"><ele>105.0</ele><time>2026-05-02T12:52:03.305Z</time></trkpt><trkpt lat="40.926185" lon="14.1614883"><ele>105.0</ele><time>2026-05-02T12:52:04.305Z</time></trkpt><trkpt lat="40.92623" lon="14.161385"><ele>105.0</ele><time>2026-05-02T12:52:05.304Z</time></trkpt><trkpt lat="40.92628" lon="14.161285"><ele>105.0</ele><time>2026-05-02T12:52:06.304Z</time></trkpt><trkpt lat="40.9263283" lon="14.1611833"><ele>104.83333333333333</ele><time>2026-05-02T12:52:07.305Z</time></trkpt><trkpt lat="40.9263633" lon="14.1610767"><ele>104.66666666666666</ele><time>2026-05-02T12:52:08.306Z</time></trkpt><trkpt lat="40.926385" lon="14.1609633"><ele>104.5</ele><time>2026-05-02T12:52:09.304Z</time></trkpt><trkpt lat="40.9264033" lon="14.1608483"><ele>104.33333333333333</ele><time>2026-05-02T12:52:10.304Z</time></trkpt><trkpt lat="40.9264283" lon="14.160735"><ele>104.16666666666666</ele><time>2026-05-02T12:52:11.305Z</time></trkpt><trkpt lat="40.9264617" lon="14.1606217"><ele>104.0</ele><time>2026-05-02T12:52:12.305Z</time></trkpt><trkpt lat="40.926495" lon="14.1605067"><ele>104.0</ele><time>2026-05-02T12:52:13.303Z</time></trkpt><trkpt lat="40.9265267" lon="14.1603867"><ele>104.0</ele><time>2026-05-02T12:52:14.306Z</time></trkpt><trkpt lat="40.9265567" lon="14.16027"><ele>104.0</ele><time>2026-05-02T12:52:15.306Z</time></trkpt><trkpt lat="40.92659" lon="14.1601633"><ele>104.0</ele><time>2026-05-02T12:52:16.304Z</time></trkpt><trkpt lat="40.9266283" lon="14.160055"><ele>104.0</ele><time>2026-05-02T12:52:17.304Z</time></trkpt><trkpt lat="40.9266617" lon="14.1599433"><ele>103.99999999999999</ele><time>2026-05-02T12:52:18.305Z</time></trkpt><trkpt lat="40.926695" lon="14.15983"><ele>104.0</ele><time>2026-05-02T12:52:19.304Z</time></trkpt><trkpt lat="40.926725" lon="14.1597233"><ele>104.0</ele><time>2026-05-02T12:52:20.304Z</time></trkpt><trkpt lat="40.9267617" lon="14.159615"><ele>104.0</ele><time>2026-05-02T12:52:21.303Z</time></trkpt><trkpt lat="40.9267967" lon="14.1595017"><ele>103.99999999999999</ele><time>2026-05-02T12:52:22.303Z</time></trkpt><trkpt lat="40.92683" lon="14.159395"><ele>104.0</ele><time>2026-05-02T12:52:23.307Z</time></trkpt><trkpt lat="40.9268583" lon="14.1592933"><ele>103.66666666666666</ele><time>2026-05-02T12:52:24.304Z</time></trkpt><trkpt lat="40.926885" lon="14.1591917"><ele>103.33333333333333</ele><time>2026-05-02T12:52:25.337Z</time></trkpt><trkpt lat="40.92691" lon="14.1590733"><ele>103.0</ele><time>2026-05-02T12:52:26.303Z</time></trkpt><trkpt lat="40.9269367" lon="14.1589583"><ele>102.66666666666666</ele><time>2026-05-02T12:52:27.303Z</time></trkpt><trkpt lat="40.9269767" lon="14.1588533"><ele>102.33333333333333</ele><time>2026-05-02T12:52:28.304Z</time></trkpt><trkpt lat="40.9270167" lon="14.15874"><ele>102.0</ele><time>2026-05-02T12:52:29.304Z</time></trkpt><trkpt lat="40.92705" lon="14.1586283"><ele>102.0</ele><time>2026-05-02T12:52:30.303Z</time></trkpt><trkpt lat="40.927085" lon="14.1585183"><ele>102.0</ele><time>2026-05-02T12:52:31.303Z</time></trkpt><trkpt lat="40.92712" lon="14.1584083"><ele>102.0</ele><time>2026-05-02T12:52:32.304Z</time></trkpt><trkpt lat="40.92716" lon="14.1583067"><ele>102.0</ele><time>2026-05-02T12:52:33.302Z</time></trkpt><trkpt lat="40.9272" lon="14.1582033"><ele>102.0</ele><time>2026-05-02T12:52:34.303Z</time></trkpt><trkpt lat="40.92724" lon="14.1580917"><ele>102.0</ele><time>2026-05-02T12:52:35.306Z</time></trkpt><trkpt lat="40.9272833" lon="14.1579767"><ele>102.0</ele><time>2026-05-02T12:52:36.303Z</time></trkpt><trkpt lat="40.9273167" lon="14.157855"><ele>102.0</ele><time>2026-05-02T12:52:37.303Z</time></trkpt><trkpt lat="40.92735" lon="14.1577267"><ele>102.0</ele><time>2026-05-02T12:52:38.306Z</time></trkpt><trkpt lat="40.9273833" lon="14.1576"><ele>102.0</ele><time>2026-05-02T12:52:39.306Z</time></trkpt><trkpt lat="40.92742" lon="14.157475"><ele>102.0</ele><time>2026-05-02T12:52:40.304Z</time></trkpt><trkpt lat="40.9274617" lon="14.1573483"><ele>102.0</ele><time>2026-05-02T12:52:41.305Z</time></trkpt><trkpt lat="40.9274983" lon="14.1572233"><ele>102.0</ele><time>2026-05-02T12:52:42.301Z</time></trkpt><trkpt lat="40.9275367" lon="14.1570983"><ele>102.0</ele><time>2026-05-02T12:52:43.303Z</time></trkpt><trkpt lat="40.92758" lon="14.1569767"><ele>102.0</ele><time>2026-05-02T12:52:44.303Z</time></trkpt><trkpt lat="40.92762" lon="14.156855"><ele>102.0</ele><time>2026-05-02T12:52:45.303Z</time></trkpt><trkpt lat="40.9276583" lon="14.1567333"><ele>101.39999999999999</ele><time>2026-05-02T12:52:46.303Z</time></trkpt><trkpt lat="40.927695" lon="14.1566167"><ele>100.8</ele><time>2026-05-02T12:52:47.303Z</time></trkpt><trkpt lat="40.927735" lon="14.1565033"><ele>100.2</ele><time>2026-05-02T12:52:48.303Z</time></trkpt><trkpt lat="40.9277733" lon="14.156395"><ele>99.6</ele><time>2026-05-02T12:52:49.303Z</time></trkpt><trkpt lat="40.9278117" lon="14.1562817"><ele>99.0</ele><time>2026-05-02T12:52:50.304Z</time></trkpt><trkpt lat="40.9278467" lon="14.1561667"><ele>98.80000000000001</ele><time>2026-05-02T12:52:51.303Z</time></trkpt><trkpt lat="40.92788" lon="14.1560517"><ele>98.60000000000001</ele><time>2026-05-02T12:52:52.303Z</time></trkpt><trkpt lat="40.9279133" lon="14.1559383"><ele>98.4</ele><time>2026-05-02T12:52:53.303Z</time></trkpt><trkpt lat="40.92795" lon="14.1558217"><ele>98.2</ele><time>2026-05-02T12:52:54.302Z</time></trkpt><trkpt lat="40.9279867" lon="14.155705"><ele>98.0</ele><time>2026-05-02T12:52:55.304Z</time></trkpt><trkpt lat="40.9280233" lon="14.1555883"><ele>97.80000000000001</ele><time>2026-05-02T12:52:56.303Z</time></trkpt><trkpt lat="40.92806" lon="14.1554683"><ele>97.6</ele><time>2026-05-02T12:52:57.303Z</time></trkpt><trkpt lat="40.9280983" lon="14.15535"><ele>97.4</ele><time>2026-05-02T12:52:58.304Z</time></trkpt><trkpt lat="40.9281333" lon="14.1552317"><ele>97.19999999999999</ele><time>2026-05-02T12:52:59.303Z</time></trkpt><trkpt lat="40.9281683" lon="14.15511"><ele>97.0</ele><time>2026-05-02T12:53:00.305Z</time></trkpt><trkpt lat="40.9282033" lon="14.1549933"><ele>97.0</ele><time>2026-05-02T12:53:01.304Z</time></trkpt><trkpt lat="40.92824" lon="14.154875"><ele>97.0</ele><time>2026-05-02T12:53:02.303Z</time></trkpt><trkpt lat="40.928275" lon="14.154755"><ele>97.0</ele><time>2026-05-02T12:53:03.306Z</time></trkpt><trkpt lat="40.928305" lon="14.1546367"><ele>97.0</ele><time>2026-05-02T12:53:04.306Z</time></trkpt><trkpt lat="40.928335" lon="14.1545133"><ele>97.0</ele><time>2026-05-02T12:53:05.305Z</time></trkpt><trkpt lat="40.9283683" lon="14.1543933"><ele>97.19999999999999</ele><time>2026-05-02T12:53:06.305Z</time></trkpt><trkpt lat="40.928405" lon="14.154275"><ele>97.4</ele><time>2026-05-02T12:53:07.306Z</time></trkpt><trkpt lat="40.9284467" lon="14.154155"><ele>97.6</ele><time>2026-05-02T12:53:08.302Z</time></trkpt><trkpt lat="40.928485" lon="14.1540333"><ele>97.80000000000001</ele><time>2026-05-02T12:53:09.307Z</time></trkpt><trkpt lat="40.9285233" lon="14.15391"><ele>98.0</ele><time>2026-05-02T12:53:10.303Z</time></trkpt><trkpt lat="40.928565" lon="14.1537883"><ele>97.60000000000001</ele><time>2026-05-02T12:53:11.305Z</time></trkpt><trkpt lat="40.928605" lon="14.1536633"><ele>97.2</ele><time>2026-05-02T12:53:12.306Z</time></trkpt><trkpt lat="40.9286433" lon="14.1535333"><ele>96.8</ele><time>2026-05-02T12:53:13.304Z</time></trkpt><trkpt lat="40.9286817" lon="14.15341"><ele>96.4</ele><time>2026-05-02T12:53:14.305Z</time></trkpt><trkpt lat="40.9287183" lon="14.1532867"><ele>96.0</ele><time>2026-05-02T12:53:15.305Z</time></trkpt><trkpt lat="40.92875" lon="14.1531617"><ele>95.8</ele><time>2026-05-02T12:53:16.305Z</time></trkpt><trkpt lat="40.9287833" lon="14.1530367"><ele>95.6</ele><time>2026-05-02T12:53:17.305Z</time></trkpt><trkpt lat="40.92882" lon="14.1529167"><ele>95.4</ele><time>2026-05-02T12:53:18.303Z</time></trkpt><trkpt lat="40.9288567" lon="14.1527967"><ele>95.2</ele><time>2026-05-02T12:53:19.302Z</time></trkpt><trkpt lat="40.9288933" lon="14.1526783"><ele>95.0</ele><time>2026-05-02T12:53:20.303Z</time></trkpt><trkpt lat="40.92893" lon="14.1525617"><ele>95.0</ele><time>2026-05-02T12:53:21.303Z</time></trkpt><trkpt lat="40.9289683" lon="14.1524433"><ele>95.0</ele><time>2026-05-02T12:53:22.306Z</time></trkpt><trkpt lat="40.9290033" lon="14.1523217"><ele>95.0</ele><time>2026-05-02T12:53:23.302Z</time></trkpt><trkpt lat="40.9290367" lon="14.1521983"><ele>95.0</ele><time>2026-05-02T12:53:24.302Z</time></trkpt><trkpt lat="40.9290683" lon="14.152075"><ele>95.0</ele><time>2026-05-02T12:53:25.306Z</time></trkpt><trkpt lat="40.9290983" lon="14.1519517"><ele>95.0</ele><time>2026-05-02T12:53:26.303Z</time></trkpt><trkpt lat="40.9291333" lon="14.1518267"><ele>95.0</ele><time>2026-05-02T12:53:27.303Z</time></trkpt><trkpt lat="40.929165" lon="14.1517017"><ele>95.0</ele><time>2026-05-02T12:53:28.303Z</time></trkpt><trkpt lat="40.9291917" lon="14.1515733"><ele>95.0</ele><time>2026-05-02T12:53:29.306Z</time></trkpt><trkpt lat="40.92921" lon="14.1514433"><ele>95.0</ele><time>2026-05-02T12:53:30.302Z</time></trkpt><trkpt lat="40.9292283" lon="14.1513117"><ele>94.8</ele><time>2026-05-02T12:53:31.303Z</time></trkpt><trkpt lat="40.929245" lon="14.1511817"><ele>94.6</ele><time>2026-05-02T12:53:32.303Z</time></trkpt><trkpt lat="40.9292567" lon="14.151055"><ele>94.4</ele><time>2026-05-02T12:53:33.302Z</time></trkpt><trkpt lat="40.9292633" lon="14.150925"><ele>94.2</ele><time>2026-05-02T12:53:34.303Z</time></trkpt><trkpt lat="40.9292683" lon="14.1507967"><ele>94.0</ele><time>2026-05-02T12:53:35.303Z</time></trkpt><trkpt lat="40.9292767" lon="14.1506717"><ele>93.80000000000001</ele><time>2026-05-02T12:53:36.303Z</time></trkpt><trkpt lat="40.9292817" lon="14.1505517"><ele>93.60000000000001</ele><time>2026-05-02T12:53:37.303Z</time></trkpt><trkpt lat="40.929285" lon="14.15043"><ele>93.4</ele><time>2026-05-02T12:53:38.306Z</time></trkpt><trkpt lat="40.9292867" lon="14.1503083"><ele>93.2</ele><time>2026-05-02T12:53:39.305Z</time></trkpt><trkpt lat="40.9292933" lon="14.1501817"><ele>93.0</ele><time>2026-05-02T12:53:40.304Z</time></trkpt><trkpt lat="40.9293" lon="14.150055"><ele>93.0</ele><time>2026-05-02T12:53:41.302Z</time></trkpt><trkpt lat="40.929305" lon="14.1499233"><ele>93.0</ele><time>2026-05-02T12:53:42.303Z</time></trkpt><trkpt lat="40.9293083" lon="14.149795"><ele>93.0</ele><time>2026-05-02T12:53:43.302Z</time></trkpt><trkpt lat="40.9293133" lon="14.1496667"><ele>93.0</ele><time>2026-05-02T12:53:44.304Z</time></trkpt><trkpt lat="40.92932" lon="14.1495467"><ele>93.0</ele><time>2026-05-02T12:53:45.302Z</time></trkpt><trkpt lat="40.9293267" lon="14.1494283"><ele>92.60000000000001</ele><time>2026-05-02T12:53:46.303Z</time></trkpt><trkpt lat="40.9293383" lon="14.1493083"><ele>92.2</ele><time>2026-05-02T12:53:47.303Z</time></trkpt><trkpt lat="40.92935" lon="14.1491833"><ele>91.8</ele><time>2026-05-02T12:53:48.303Z</time></trkpt><trkpt lat="40.9293583" lon="14.1490617"><ele>91.4</ele><time>2026-05-02T12:53:49.302Z</time></trkpt><trkpt lat="40.929365" lon="14.1489367"><ele>91.0</ele><time>2026-05-02T12:53:50.302Z</time></trkpt><trkpt lat="40.9293733" lon="14.1488117"><ele>90.4</ele><time>2026-05-02T12:53:51.301Z</time></trkpt><trkpt lat="40.9293833" lon="14.1486867"><ele>89.8</ele><time>2026-05-02T12:53:52.304Z</time></trkpt><trkpt lat="40.9293933" lon="14.1485667"><ele>89.2</ele><time>2026-05-02T12:53:53.302Z</time></trkpt><trkpt lat="40.929405" lon="14.1484467"><ele>88.60000000000001</ele><time>2026-05-02T12:53:54.304Z</time></trkpt><trkpt lat="40.929415" lon="14.1483333"><ele>88.0</ele><time>2026-05-02T12:53:55.303Z</time></trkpt><trkpt lat="40.9294233" lon="14.1482117"><ele>88.0</ele><time>2026-05-02T12:53:56.302Z</time></trkpt><trkpt lat="40.9294317" lon="14.1480917"><ele>88.0</ele><time>2026-05-02T12:53:57.305Z</time></trkpt><trkpt lat="40.929445" lon="14.1479733"><ele>88.0</ele><time>2026-05-02T12:53:58.301Z</time></trkpt><trkpt lat="40.9294583" lon="14.1478533"><ele>88.0</ele><time>2026-05-02T12:53:59.302Z</time></trkpt><trkpt lat="40.9294683" lon="14.1477283"><ele>88.0</ele><time>2026-05-02T12:54:00.302Z</time></trkpt><trkpt lat="40.9294767" lon="14.1476017"><ele>88.0</ele><time>2026-05-02T12:54:01.303Z</time></trkpt><trkpt lat="40.929485" lon="14.1474783"><ele>88.0</ele><time>2026-05-02T12:54:02.301Z</time></trkpt><trkpt lat="40.9294917" lon="14.147355"><ele>88.0</ele><time>2026-05-02T12:54:03.302Z</time></trkpt><trkpt lat="40.9294983" lon="14.1472333"><ele>88.0</ele><time>2026-05-02T12:54:04.302Z</time></trkpt><trkpt lat="40.9295083" lon="14.147115"><ele>88.0</ele><time>2026-05-02T12:54:05.302Z</time></trkpt><trkpt lat="40.9295183" lon="14.1469967"><ele>88.0</ele><time>2026-05-02T12:54:06.302Z</time></trkpt><trkpt lat="40.9295233" lon="14.14688"><ele>88.0</ele><time>2026-05-02T12:54:07.305Z</time></trkpt><trkpt lat="40.9295317" lon="14.1467617"><ele>88.0</ele><time>2026-05-02T12:54:08.302Z</time></trkpt><trkpt lat="40.9295467" lon="14.146645"><ele>88.0</ele><time>2026-05-02T12:54:09.302Z</time></trkpt><trkpt lat="40.9295683" lon="14.1465267"><ele>88.0</ele><time>2026-05-02T12:54:10.304Z</time></trkpt><trkpt lat="40.9295933" lon="14.14641"><ele>87.83333333333333</ele><time>2026-05-02T12:54:11.304Z</time></trkpt><trkpt lat="40.9296233" lon="14.146295"><ele>87.66666666666666</ele><time>2026-05-02T12:54:12.301Z</time></trkpt><trkpt lat="40.9296517" lon="14.1461783"><ele>87.5</ele><time>2026-05-02T12:54:13.305Z</time></trkpt><trkpt lat="40.92968" lon="14.1460683"><ele>87.33333333333333</ele><time>2026-05-02T12:54:14.304Z</time></trkpt><trkpt lat="40.92971" lon="14.1459617"><ele>87.16666666666667</ele><time>2026-05-02T12:54:15.302Z</time></trkpt><trkpt lat="40.9297417" lon="14.1458567"><ele>87.0</ele><time>2026-05-02T12:54:16.308Z</time></trkpt><trkpt lat="40.9297733" lon="14.1457533"><ele>86.83333333333333</ele><time>2026-05-02T12:54:17.301Z</time></trkpt><trkpt lat="40.92981" lon="14.145645"><ele>86.66666666666667</ele><time>2026-05-02T12:54:18.305Z</time></trkpt><trkpt lat="40.9298483" lon="14.1455433"><ele>86.5</ele><time>2026-05-02T12:54:19.303Z</time></trkpt><trkpt lat="40.9298883" lon="14.1454433"><ele>86.33333333333334</ele><time>2026-05-02T12:54:20.302Z</time></trkpt><trkpt lat="40.929935" lon="14.1453467"><ele>86.16666666666667</ele><time>2026-05-02T12:54:21.301Z</time></trkpt><trkpt lat="40.9299767" lon="14.1452483"><ele>86.0</ele><time>2026-05-02T12:54:22.302Z</time></trkpt><trkpt lat="40.9300067" lon="14.145145"><ele>86.0</ele><time>2026-05-02T12:54:23.305Z</time></trkpt><trkpt lat="40.9300217" lon="14.145035"><ele>86.0</ele><time>2026-05-02T12:54:24.304Z</time></trkpt><trkpt lat="40.9300183" lon="14.144925"><ele>86.0</ele><time>2026-05-02T12:54:25.303Z</time></trkpt><trkpt lat="40.9299933" lon="14.1448217"><ele>86.0</ele><time>2026-05-02T12:54:26.302Z</time></trkpt><trkpt lat="40.9299483" lon="14.1447317"><ele>86.0</ele><time>2026-05-02T12:54:27.302Z</time></trkpt><trkpt lat="40.9298933" lon="14.1446617"><ele>86.0</ele><time>2026-05-02T12:54:28.302Z</time></trkpt><trkpt lat="40.9298367" lon="14.1445883"><ele>85.83333333333334</ele><time>2026-05-02T12:54:29.303Z</time></trkpt><trkpt lat="40.929785" lon="14.1445133"><ele>85.66666666666667</ele><time>2026-05-02T12:54:30.302Z</time></trkpt><trkpt lat="40.9297417" lon="14.1444283"><ele>85.5</ele><time>2026-05-02T12:54:31.304Z</time></trkpt><trkpt lat="40.92971" lon="14.1443333"><ele>85.33333333333333</ele><time>2026-05-02T12:54:32.302Z</time></trkpt><trkpt lat="40.9296967" lon="14.144225"><ele>85.16666666666666</ele><time>2026-05-02T12:54:33.302Z</time></trkpt><trkpt lat="40.9296917" lon="14.1441133"><ele>85.0</ele><time>2026-05-02T12:54:34.305Z</time></trkpt><trkpt lat="40.9296883" lon="14.1440033"><ele>85.0</ele><time>2026-05-02T12:54:35.301Z</time></trkpt><trkpt lat="40.9296867" lon="14.1438917"><ele>85.0</ele><time>2026-05-02T12:54:36.301Z</time></trkpt><trkpt lat="40.92969" lon="14.14378"><ele>85.0</ele><time>2026-05-02T12:54:37.302Z</time></trkpt><trkpt lat="40.9296967" lon="14.1436633"><ele>85.0</ele><time>2026-05-02T12:54:38.301Z</time></trkpt><trkpt lat="40.9297" lon="14.1435483"><ele>85.0</ele><time>2026-05-02T12:54:39.303Z</time></trkpt><trkpt lat="40.9297067" lon="14.1434367"><ele>85.0</ele><time>2026-05-02T12:54:40.302Z</time></trkpt><trkpt lat="40.9297117" lon="14.1433217"><ele>85.0</ele><time>2026-05-02T12:54:41.302Z</time></trkpt><trkpt lat="40.929715" lon="14.1432083"><ele>85.0</ele><time>2026-05-02T12:54:42.302Z</time></trkpt><trkpt lat="40.9297167" lon="14.1430933"><ele>85.0</ele><time>2026-05-02T12:54:43.302Z</time></trkpt><trkpt lat="40.9297183" lon="14.1429683"><ele>85.0</ele><time>2026-05-02T12:54:44.301Z</time></trkpt><trkpt lat="40.9297217" lon="14.14284"><ele>85.0</ele><time>2026-05-02T12:54:45.302Z</time></trkpt><trkpt lat="40.9297267" lon="14.142705"><ele>85.0</ele><time>2026-05-02T12:54:46.301Z</time></trkpt><trkpt lat="40.9297417" lon="14.1425733"><ele>85.0</ele><time>2026-05-02T12:54:47.302Z</time></trkpt><trkpt lat="40.9297533" lon="14.142445"><ele>85.0</ele><time>2026-05-02T12:54:48.305Z</time></trkpt><trkpt lat="40.9297683" lon="14.1423167"><ele>85.0</ele><time>2026-05-02T12:54:49.302Z</time></trkpt><trkpt lat="40.92978" lon="14.1421917"><ele>85.0</ele><time>2026-05-02T12:54:50.304Z</time></trkpt><trkpt lat="40.92979" lon="14.1420683"><ele>85.0</ele><time>2026-05-02T12:54:51.302Z</time></trkpt><trkpt lat="40.9298" lon="14.14195"><ele>85.0</ele><time>2026-05-02T12:54:52.302Z</time></trkpt><trkpt lat="40.9298067" lon="14.1418283"><ele>85.0</ele><time>2026-05-02T12:54:53.301Z</time></trkpt><trkpt lat="40.9298067" lon="14.141705"><ele>85.0</ele><time>2026-05-02T12:54:54.302Z</time></trkpt><trkpt lat="40.92981" lon="14.1415817"><ele>85.0</ele><time>2026-05-02T12:54:55.302Z</time></trkpt><trkpt lat="40.9298167" lon="14.141455"><ele>85.0</ele><time>2026-05-02T12:54:56.301Z</time></trkpt><trkpt lat="40.9298283" lon="14.1413317"><ele>85.0</ele><time>2026-05-02T12:54:57.301Z</time></trkpt><trkpt lat="40.929835" lon="14.14121"><ele>85.0</ele><time>2026-05-02T12:54:58.3Z</time></trkpt><trkpt lat="40.92984" lon="14.1410883"><ele>85.0</ele><time>2026-05-02T12:54:59.302Z</time></trkpt><trkpt lat="40.9298483" lon="14.140965"><ele>85.0</ele><time>2026-05-02T12:55:00.301Z</time></trkpt><trkpt lat="40.9298583" lon="14.140845"><ele>85.0</ele><time>2026-05-02T12:55:01.302Z</time></trkpt><trkpt lat="40.929865" lon="14.1407217"><ele>85.0</ele><time>2026-05-02T12:55:02.303Z</time></trkpt><trkpt lat="40.9298683" lon="14.1405967"><ele>85.0</ele><time>2026-05-02T12:55:03.301Z</time></trkpt><trkpt lat="40.92987" lon="14.1404717"><ele>85.0</ele><time>2026-05-02T12:55:04.302Z</time></trkpt><trkpt lat="40.929875" lon="14.140345"><ele>85.0</ele><time>2026-05-02T12:55:05.302Z</time></trkpt><trkpt lat="40.9298833" lon="14.1402233"><ele>85.0</ele><time>2026-05-02T12:55:06.302Z</time></trkpt><trkpt lat="40.92989" lon="14.1401017"><ele>85.0</ele><time>2026-05-02T12:55:07.302Z</time></trkpt><trkpt lat="40.9298983" lon="14.1399833"><ele>85.0</ele><time>2026-05-02T12:55:08.302Z</time></trkpt><trkpt lat="40.9299083" lon="14.1398633"><ele>85.0</ele><time>2026-05-02T12:55:09.301Z</time></trkpt><trkpt lat="40.9299167" lon="14.139745"><ele>85.0</ele><time>2026-05-02T12:55:10.301Z</time></trkpt><trkpt lat="40.9299267" lon="14.13963"><ele>85.0</ele><time>2026-05-02T12:55:11.302Z</time></trkpt><trkpt lat="40.929935" lon="14.1395133"><ele>85.0</ele><time>2026-05-02T12:55:12.302Z</time></trkpt><trkpt lat="40.92994" lon="14.1393967"><ele>85.0</ele><time>2026-05-02T12:55:13.305Z</time></trkpt><trkpt lat="40.9299467" lon="14.1392767"><ele>85.0</ele><time>2026-05-02T12:55:14.304Z</time></trkpt><trkpt lat="40.929955" lon="14.13916"><ele>85.0</ele><time>2026-05-02T12:55:15.301Z</time></trkpt><trkpt lat="40.9299633" lon="14.13904"><ele>85.0</ele><time>2026-05-02T12:55:16.305Z</time></trkpt><trkpt lat="40.92997" lon="14.13892"><ele>85.2</ele><time>2026-05-02T12:55:17.302Z</time></trkpt><trkpt lat="40.9299767" lon="14.1388"><ele>85.4</ele><time>2026-05-02T12:55:18.302Z</time></trkpt><trkpt lat="40.9299867" lon="14.1386817"><ele>85.6</ele><time>2026-05-02T12:55:19.302Z</time></trkpt><trkpt lat="40.929995" lon="14.1385617"><ele>85.8</ele><time>2026-05-02T12:55:20.301Z</time></trkpt><trkpt lat="40.93" lon="14.1384333"><ele>86.0</ele><time>2026-05-02T12:55:21.302Z</time></trkpt><trkpt lat="40.9300083" lon="14.1383133"><ele>86.0</ele><time>2026-05-02T12:55:22.301Z</time></trkpt><trkpt lat="40.930015" lon="14.1381933"><ele>86.0</ele><time>2026-05-02T12:55:23.302Z</time></trkpt><trkpt lat="40.9300233" lon="14.1380733"><ele>86.0</ele><time>2026-05-02T12:55:24.301Z</time></trkpt><trkpt lat="40.9300333" lon="14.1379483"><ele>86.0</ele><time>2026-05-02T12:55:25.303Z</time></trkpt><trkpt lat="40.93004" lon="14.1378217"><ele>86.0</ele><time>2026-05-02T12:55:26.304Z</time></trkpt><trkpt lat="40.9300483" lon="14.1377"><ele>86.0</ele><time>2026-05-02T12:55:27.304Z</time></trkpt><trkpt lat="40.9300533" lon="14.1375733"><ele>86.0</ele><time>2026-05-02T12:55:28.302Z</time></trkpt><trkpt lat="40.9300583" lon="14.1374467"><ele>86.0</ele><time>2026-05-02T12:55:29.302Z</time></trkpt><trkpt lat="40.93006" lon="14.1373233"><ele>86.0</ele><time>2026-05-02T12:55:30.305Z</time></trkpt><trkpt lat="40.9300667" lon="14.1371983"><ele>86.0</ele><time>2026-05-02T12:55:31.305Z</time></trkpt><trkpt lat="40.9300717" lon="14.137075"><ele>86.0</ele><time>2026-05-02T12:55:32.301Z</time></trkpt><trkpt lat="40.930075" lon="14.1369533"><ele>86.0</ele><time>2026-05-02T12:55:33.301Z</time></trkpt><trkpt lat="40.9300817" lon="14.13683"><ele>86.0</ele><time>2026-05-02T12:55:34.305Z</time></trkpt><trkpt lat="40.9300883" lon="14.1367067"><ele>86.0</ele><time>2026-05-02T12:55:35.303Z</time></trkpt><trkpt lat="40.9300917" lon="14.1365833"><ele>86.0</ele><time>2026-05-02T12:55:36.302Z</time></trkpt><trkpt lat="40.9300983" lon="14.1364617"><ele>85.19999999999999</ele><time>2026-05-02T12:55:37.302Z</time></trkpt><trkpt lat="40.9301017" lon="14.1363317"><ele>84.39999999999999</ele><time>2026-05-02T12:55:38.302Z</time></trkpt><trkpt lat="40.9301083" lon="14.1362117"><ele>83.6</ele><time>2026-05-02T12:55:39.301Z</time></trkpt><trkpt lat="40.9301133" lon="14.13609"><ele>82.8</ele><time>2026-05-02T12:55:40.302Z</time></trkpt><trkpt lat="40.9301183" lon="14.1359717"><ele>82.0</ele><time>2026-05-02T12:55:41.302Z</time></trkpt><trkpt lat="40.9301217" lon="14.135855"><ele>82.0</ele><time>2026-05-02T12:55:42.302Z</time></trkpt><trkpt lat="40.9301233" lon="14.1357317"><ele>82.0</ele><time>2026-05-02T12:55:43.305Z</time></trkpt><trkpt lat="40.9301267" lon="14.1356083"><ele>82.0</ele><time>2026-05-02T12:55:44.305Z</time></trkpt><trkpt lat="40.93013" lon="14.1354817"><ele>82.0</ele><time>2026-05-02T12:55:45.301Z</time></trkpt><trkpt lat="40.9301383" lon="14.135355"><ele>82.0</ele><time>2026-05-02T12:55:46.302Z</time></trkpt><trkpt lat="40.9301483" lon="14.1352283"><ele>82.0</ele><time>2026-05-02T12:55:47.302Z</time></trkpt><trkpt lat="40.9301567" lon="14.1351083"><ele>82.0</ele><time>2026-05-02T12:55:48.303Z</time></trkpt><trkpt lat="40.9301617" lon="14.13499"><ele>82.0</ele><time>2026-05-02T12:55:49.303Z</time></trkpt><trkpt lat="40.93017" lon="14.1348733"><ele>82.0</ele><time>2026-05-02T12:55:50.302Z</time></trkpt><trkpt lat="40.9301767" lon="14.1347533"><ele>82.0</ele><time>2026-05-02T12:55:51.3Z</time></trkpt><trkpt lat="40.930185" lon="14.1346333"><ele>82.19999999999999</ele><time>2026-05-02T12:55:52.302Z</time></trkpt><trkpt lat="40.93019" lon="14.13451"><ele>82.4</ele><time>2026-05-02T12:55:53.303Z</time></trkpt><trkpt lat="40.9301933" lon="14.1343883"><ele>82.6</ele><time>2026-05-02T12:55:54.305Z</time></trkpt><trkpt lat="40.930195" lon="14.1342683"><ele>82.80000000000001</ele><time>2026-05-02T12:55:55.304Z</time></trkpt><trkpt lat="40.9302017" lon="14.13415"><ele>83.0</ele><time>2026-05-02T12:55:56.301Z</time></trkpt><trkpt lat="40.9302067" lon="14.134035"><ele>82.66666666666667</ele><time>2026-05-02T12:55:57.303Z</time></trkpt><trkpt lat="40.9302117" lon="14.13392"><ele>82.33333333333334</ele><time>2026-05-02T12:55:58.301Z</time></trkpt><trkpt lat="40.93022" lon="14.1338067"><ele>82.0</ele><time>2026-05-02T12:55:59.302Z</time></trkpt><trkpt lat="40.930225" lon="14.1336983"><ele>81.66666666666667</ele><time>2026-05-02T12:56:00.301Z</time></trkpt><trkpt lat="40.9302283" lon="14.13359"><ele>81.33333333333333</ele><time>2026-05-02T12:56:01.303Z</time></trkpt><trkpt lat="40.9302333" lon="14.1334783"><ele>81.0</ele><time>2026-05-02T12:56:02.302Z</time></trkpt><trkpt lat="40.9302367" lon="14.133365"><ele>81.0</ele><time>2026-05-02T12:56:03.305Z</time></trkpt><trkpt lat="40.93024" lon="14.1332467"><ele>81.0</ele><time>2026-05-02T12:56:04.302Z</time></trkpt><trkpt lat="40.9302433" lon="14.1331317"><ele>81.0</ele><time>2026-05-02T12:56:05.303Z</time></trkpt><trkpt lat="40.930245" lon="14.1330133"><ele>81.0</ele><time>2026-05-02T12:56:06.305Z</time></trkpt><trkpt lat="40.9302467" lon="14.1328983"><ele>81.0</ele><time>2026-05-02T12:56:07.307Z</time></trkpt><trkpt lat="40.9302533" lon="14.1327833"><ele>81.0</ele><time>2026-05-02T12:56:08.305Z</time></trkpt><trkpt lat="40.93026" lon="14.1326683"><ele>81.0</ele><time>2026-05-02T12:56:09.305Z</time></trkpt><trkpt lat="40.9302617" lon="14.1325517"><ele>81.0</ele><time>2026-05-02T12:56:10.305Z</time></trkpt><trkpt lat="40.930265" lon="14.13244"><ele>81.0</ele><time>2026-05-02T12:56:11.304Z</time></trkpt><trkpt lat="40.9302683" lon="14.1323267"><ele>81.0</ele><time>2026-05-02T12:56:12.304Z</time></trkpt><trkpt lat="40.930275" lon="14.1322167"><ele>81.0</ele><time>2026-05-02T12:56:13.303Z</time></trkpt><trkpt lat="40.93028" lon="14.132105"><ele>81.0</ele><time>2026-05-02T12:56:14.302Z</time></trkpt><trkpt lat="40.9302833" lon="14.1319933"><ele>81.0</ele><time>2026-05-02T12:56:15.302Z</time></trkpt><trkpt lat="40.9302883" lon="14.1318817"><ele>81.0</ele><time>2026-05-02T12:56:16.302Z</time></trkpt><trkpt lat="40.9303" lon="14.1317733"><ele>81.0</ele><time>2026-05-02T12:56:17.302Z</time></trkpt><trkpt lat="40.9303133" lon="14.1316683"><ele>81.0</ele><time>2026-05-02T12:56:18.302Z</time></trkpt><trkpt lat="40.9303367" lon="14.1315617"><ele>81.0</ele><time>2026-05-02T12:56:19.303Z</time></trkpt><trkpt lat="40.930365" lon="14.1314517"><ele>81.0</ele><time>2026-05-02T12:56:20.303Z</time></trkpt><trkpt lat="40.9303983" lon="14.131345"><ele>80.83333333333333</ele><time>2026-05-02T12:56:21.302Z</time></trkpt><trkpt lat="40.93042" lon="14.13125"><ele>80.66666666666667</ele><time>2026-05-02T12:56:22.302Z</time></trkpt><trkpt lat="40.9304667" lon="14.1311433"><ele>80.5</ele><time>2026-05-02T12:56:23.304Z</time></trkpt><trkpt lat="40.9304883" lon="14.1310567"><ele>80.33333333333334</ele><time>2026-05-02T12:56:24.302Z</time></trkpt><trkpt lat="40.9304983" lon="14.13094"><ele>80.16666666666667</ele><time>2026-05-02T12:56:25.305Z</time></trkpt><trkpt lat="40.9305067" lon="14.1308317"><ele>80.0</ele><time>2026-05-02T12:56:26.302Z</time></trkpt><trkpt lat="40.930515" lon="14.1307317"><ele>80.0</ele><time>2026-05-02T12:56:27.302Z</time></trkpt><trkpt lat="40.9305267" lon="14.1306217"><ele>80.0</ele><time>2026-05-02T12:56:28.303Z</time></trkpt><trkpt lat="40.9305367" lon="14.1305133"><ele>80.0</ele><time>2026-05-02T12:56:29.302Z</time></trkpt><trkpt lat="40.930545" lon="14.1304"><ele>80.0</ele><time>2026-05-02T12:56:30.302Z</time></trkpt><trkpt lat="40.9305533" lon="14.130285"><ele>80.0</ele><time>2026-05-02T12:56:31.303Z</time></trkpt><trkpt lat="40.93056" lon="14.1301733"><ele>80.0</ele><time>2026-05-02T12:56:32.301Z</time></trkpt><trkpt lat="40.9305667" lon="14.1300617"><ele>80.0</ele><time>2026-05-02T12:56:33.302Z</time></trkpt><trkpt lat="40.930575" lon="14.1299483"><ele>80.0</ele><time>2026-05-02T12:56:34.303Z</time></trkpt><trkpt lat="40.9305817" lon="14.1298333"><ele>80.0</ele><time>2026-05-02T12:56:35.302Z</time></trkpt><trkpt lat="40.93059" lon="14.1297233"><ele>80.0</ele><time>2026-05-02T12:56:36.303Z</time></trkpt><trkpt lat="40.930595" lon="14.12961"><ele>80.0</ele><time>2026-05-02T12:56:37.303Z</time></trkpt><trkpt lat="40.9306017" lon="14.1295"><ele>80.0</ele><time>2026-05-02T12:56:38.303Z</time></trkpt><trkpt lat="40.93061" lon="14.1293883"><ele>80.0</ele><time>2026-05-02T12:56:39.302Z</time></trkpt><trkpt lat="40.93062" lon="14.129285"><ele>80.0</ele><time>2026-05-02T12:56:40.302Z</time></trkpt><trkpt lat="40.9306267" lon="14.1291817"><ele>80.0</ele><time>2026-05-02T12:56:41.304Z</time></trkpt><trkpt lat="40.9306333" lon="14.129075"><ele>80.0</ele><time>2026-05-02T12:56:42.303Z</time></trkpt><trkpt lat="40.9306367" lon="14.128965"><ele>80.0</ele><time>2026-05-02T12:56:43.303Z</time></trkpt><trkpt lat="40.9306417" lon="14.128855"><ele>80.0</ele><time>2026-05-02T12:56:44.303Z</time></trkpt><trkpt lat="40.9306433" lon="14.1287433"><ele>79.66666666666667</ele><time>2026-05-02T12:56:45.302Z</time></trkpt><trkpt lat="40.9306483" lon="14.1286283"><ele>79.33333333333334</ele><time>2026-05-02T12:56:46.303Z</time></trkpt><trkpt lat="40.9306583" lon="14.12852"><ele>79.0</ele><time>2026-05-02T12:56:47.304Z</time></trkpt><trkpt lat="40.9306633" lon="14.1284117"><ele>78.66666666666667</ele><time>2026-05-02T12:56:48.302Z</time></trkpt><trkpt lat="40.930665" lon="14.128305"><ele>78.33333333333333</ele><time>2026-05-02T12:56:49.303Z</time></trkpt><trkpt lat="40.93067" lon="14.128195"><ele>78.0</ele><time>2026-05-02T12:56:50.303Z</time></trkpt><trkpt lat="40.9306733" lon="14.1280833"><ele>78.0</ele><time>2026-05-02T12:56:51.302Z</time></trkpt><trkpt lat="40.93068" lon="14.1279733"><ele>78.0</ele><time>2026-05-02T12:56:52.303Z</time></trkpt><trkpt lat="40.9306867" lon="14.1278617"><ele>78.0</ele><time>2026-05-02T12:56:53.303Z</time></trkpt><trkpt lat="40.9306883" lon="14.127745"><ele>78.0</ele><time>2026-05-02T12:56:54.301Z</time></trkpt><trkpt lat="40.9306917" lon="14.1276317"><ele>78.0</ele><time>2026-05-02T12:56:55.304Z</time></trkpt><trkpt lat="40.930695" lon="14.12752"><ele>78.0</ele><time>2026-05-02T12:56:56.303Z</time></trkpt><trkpt lat="40.9306983" lon="14.1274083"><ele>78.16666666666667</ele><time>2026-05-02T12:56:57.302Z</time></trkpt><trkpt lat="40.930705" lon="14.1272983"><ele>78.33333333333333</ele><time>2026-05-02T12:56:58.303Z</time></trkpt><trkpt lat="40.930715" lon="14.127195"><ele>78.5</ele><time>2026-05-02T12:56:59.302Z</time></trkpt><trkpt lat="40.930725" lon="14.1270883"><ele>78.66666666666666</ele><time>2026-05-02T12:57:00.303Z</time></trkpt><trkpt lat="40.9307333" lon="14.12698"><ele>78.83333333333333</ele><time>2026-05-02T12:57:01.304Z</time></trkpt><trkpt lat="40.9307367" lon="14.126865"><ele>79.0</ele><time>2026-05-02T12:57:02.303Z</time></trkpt><trkpt lat="40.93074" lon="14.1267483"><ele>79.0</ele><time>2026-05-02T12:57:03.302Z</time></trkpt><trkpt lat="40.9307417" lon="14.126635"><ele>79.0</ele><time>2026-05-02T12:57:04.303Z</time></trkpt><trkpt lat="40.9307433" lon="14.12652"><ele>79.0</ele><time>2026-05-02T12:57:05.303Z</time></trkpt><trkpt lat="40.9307483" lon="14.1264083"><ele>79.0</ele><time>2026-05-02T12:57:06.303Z</time></trkpt><trkpt lat="40.9307517" lon="14.1263033"><ele>79.0</ele><time>2026-05-02T12:57:07.303Z</time></trkpt><trkpt lat="40.9307583" lon="14.126195"><ele>79.0</ele><time>2026-05-02T12:57:08.303Z</time></trkpt><trkpt lat="40.9307617" lon="14.1260833"><ele>78.5</ele><time>2026-05-02T12:57:09.302Z</time></trkpt><trkpt lat="40.930765" lon="14.125965"><ele>78.0</ele><time>2026-05-02T12:57:10.302Z</time></trkpt><trkpt lat="40.93077" lon="14.1258483"><ele>77.5</ele><time>2026-05-02T12:57:11.303Z</time></trkpt><trkpt lat="40.930775" lon="14.12573"><ele>77.0</ele><time>2026-05-02T12:57:12.303Z</time></trkpt><trkpt lat="40.9307817" lon="14.1256133"><ele>76.5</ele><time>2026-05-02T12:57:13.303Z</time></trkpt><trkpt lat="40.9307867" lon="14.1254917"><ele>76.0</ele><time>2026-05-02T12:57:14.303Z</time></trkpt><trkpt lat="40.9307883" lon="14.1253717"><ele>75.66666666666666</ele><time>2026-05-02T12:57:15.302Z</time></trkpt><trkpt lat="40.930785" lon="14.1252517"><ele>75.33333333333333</ele><time>2026-05-02T12:57:16.302Z</time></trkpt><trkpt lat="40.9307833" lon="14.1251367"><ele>75.0</ele><time>2026-05-02T12:57:17.303Z</time></trkpt><trkpt lat="40.9307767" lon="14.1250267"><ele>74.66666666666667</ele><time>2026-05-02T12:57:18.303Z</time></trkpt><trkpt lat="40.9307717" lon="14.124915"><ele>74.33333333333334</ele><time>2026-05-02T12:57:19.304Z</time></trkpt><trkpt lat="40.930765" lon="14.1248033"><ele>74.0</ele><time>2026-05-02T12:57:20.303Z</time></trkpt><trkpt lat="40.930755" lon="14.1246883"><ele>74.0</ele><time>2026-05-02T12:57:21.303Z</time></trkpt><trkpt lat="40.93075" lon="14.124575"><ele>74.0</ele><time>2026-05-02T12:57:22.303Z</time></trkpt><trkpt lat="40.930745" lon="14.1244633"><ele>74.0</ele><time>2026-05-02T12:57:23.303Z</time></trkpt><trkpt lat="40.9307383" lon="14.1243483"><ele>74.0</ele><time>2026-05-02T12:57:24.302Z</time></trkpt><trkpt lat="40.930735" lon="14.12423"><ele>74.0</ele><time>2026-05-02T12:57:25.303Z</time></trkpt><trkpt lat="40.9307367" lon="14.124115"><ele>74.0</ele><time>2026-05-02T12:57:26.303Z</time></trkpt><trkpt lat="40.930735" lon="14.1239967"><ele>74.16666666666667</ele><time>2026-05-02T12:57:27.303Z</time></trkpt><trkpt lat="40.930735" lon="14.1238783"><ele>74.33333333333334</ele><time>2026-05-02T12:57:28.303Z</time></trkpt><trkpt lat="40.9307383" lon="14.1237633"><ele>74.5</ele><time>2026-05-02T12:57:29.306Z</time></trkpt><trkpt lat="40.9307367" lon="14.1236483"><ele>74.66666666666667</ele><time>2026-05-02T12:57:30.303Z</time></trkpt><trkpt lat="40.93074" lon="14.1235383"><ele>74.83333333333333</ele><time>2026-05-02T12:57:31.303Z</time></trkpt><trkpt lat="40.9307433" lon="14.1234283"><ele>75.0</ele><time>2026-05-02T12:57:32.302Z</time></trkpt><trkpt lat="40.9307433" lon="14.1233183"><ele>74.83333333333333</ele><time>2026-05-02T12:57:33.304Z</time></trkpt><trkpt lat="40.93074" lon="14.1232067"><ele>74.66666666666667</ele><time>2026-05-02T12:57:34.302Z</time></trkpt><trkpt lat="40.9307417" lon="14.1230917"><ele>74.5</ele><time>2026-05-02T12:57:35.303Z</time></trkpt><trkpt lat="40.9307433" lon="14.1229767"><ele>74.33333333333334</ele><time>2026-05-02T12:57:36.302Z</time></trkpt><trkpt lat="40.930745" lon="14.1228633"><ele>74.16666666666667</ele><time>2026-05-02T12:57:37.303Z</time></trkpt><trkpt lat="40.9307417" lon="14.1227483"><ele>74.0</ele><time>2026-05-02T12:57:38.302Z</time></trkpt><trkpt lat="40.9307417" lon="14.1226317"><ele>74.0</ele><time>2026-05-02T12:57:39.302Z</time></trkpt><trkpt lat="40.9307417" lon="14.122515"><ele>74.0</ele><time>2026-05-02T12:57:40.302Z</time></trkpt><trkpt lat="40.9307483" lon="14.122405"><ele>74.0</ele><time>2026-05-02T12:57:41.304Z</time></trkpt><trkpt lat="40.9307583" lon="14.122295"><ele>74.0</ele><time>2026-05-02T12:57:42.301Z</time></trkpt><trkpt lat="40.9307533" lon="14.1221783"><ele>74.0</ele><time>2026-05-02T12:57:43.303Z</time></trkpt><trkpt lat="40.9307467" lon="14.1220633"><ele>74.0</ele><time>2026-05-02T12:57:44.302Z</time></trkpt><trkpt lat="40.930745" lon="14.1219417"><ele>73.4</ele><time>2026-05-02T12:57:45.302Z</time></trkpt><trkpt lat="40.930745" lon="14.12182"><ele>72.80000000000001</ele><time>2026-05-02T12:57:46.302Z</time></trkpt><trkpt lat="40.930745" lon="14.1216983"><ele>72.19999999999999</ele><time>2026-05-02T12:57:47.303Z</time></trkpt><trkpt lat="40.9307467" lon="14.12158"><ele>71.6</ele><time>2026-05-02T12:57:48.303Z</time></trkpt><trkpt lat="40.9307483" lon="14.121465"><ele>71.0</ele><time>2026-05-02T12:57:49.303Z</time></trkpt><trkpt lat="40.9307483" lon="14.1213417"><ele>70.39999999999999</ele><time>2026-05-02T12:57:50.303Z</time></trkpt><trkpt lat="40.93075" lon="14.121215"><ele>69.8</ele><time>2026-05-02T12:57:51.303Z</time></trkpt><trkpt lat="40.9307533" lon="14.1210933"><ele>69.19999999999999</ele><time>2026-05-02T12:57:52.302Z</time></trkpt><trkpt lat="40.9307567" lon="14.1209733"><ele>68.6</ele><time>2026-05-02T12:57:53.303Z</time></trkpt><trkpt lat="40.9307567" lon="14.1208533"><ele>68.0</ele><time>2026-05-02T12:57:54.303Z</time></trkpt><trkpt lat="40.93076" lon="14.120735"><ele>67.83333333333334</ele><time>2026-05-02T12:57:55.303Z</time></trkpt><trkpt lat="40.9307633" lon="14.1206183"><ele>67.66666666666667</ele><time>2026-05-02T12:57:56.305Z</time></trkpt><trkpt lat="40.9307667" lon="14.1205083"><ele>67.5</ele><time>2026-05-02T12:57:57.301Z</time></trkpt><trkpt lat="40.9307717" lon="14.12039"><ele>67.33333333333333</ele><time>2026-05-02T12:57:58.302Z</time></trkpt><trkpt lat="40.930775" lon="14.1202717"><ele>67.16666666666666</ele><time>2026-05-02T12:57:59.301Z</time></trkpt><trkpt lat="40.9307783" lon="14.1201533"><ele>67.0</ele><time>2026-05-02T12:58:00.303Z</time></trkpt><trkpt lat="40.9307817" lon="14.1200333"><ele>67.0</ele><time>2026-05-02T12:58:01.303Z</time></trkpt><trkpt lat="40.930785" lon="14.1199117"><ele>67.0</ele><time>2026-05-02T12:58:02.302Z</time></trkpt><trkpt lat="40.9307867" lon="14.1197917"><ele>67.0</ele><time>2026-05-02T12:58:03.305Z</time></trkpt><trkpt lat="40.9307917" lon="14.119675"><ele>67.0</ele><time>2026-05-02T12:58:04.302Z</time></trkpt><trkpt lat="40.930795" lon="14.1195583"><ele>67.0</ele><time>2026-05-02T12:58:05.302Z</time></trkpt><trkpt lat="40.9308" lon="14.1194433"><ele>67.0</ele><time>2026-05-02T12:58:06.305Z</time></trkpt><trkpt lat="40.930805" lon="14.1193283"><ele>67.0</ele><time>2026-05-02T12:58:07.306Z</time></trkpt><trkpt lat="40.9308117" lon="14.1192167"><ele>67.0</ele><time>2026-05-02T12:58:08.303Z</time></trkpt><trkpt lat="40.93082" lon="14.1191067"><ele>67.0</ele><time>2026-05-02T12:58:09.302Z</time></trkpt><trkpt lat="40.9308317" lon="14.118995"><ele>67.0</ele><time>2026-05-02T12:58:10.302Z</time></trkpt><trkpt lat="40.930845" lon="14.118875"><ele>67.0</ele><time>2026-05-02T12:58:11.303Z</time></trkpt><trkpt lat="40.9308617" lon="14.11876"><ele>67.0</ele><time>2026-05-02T12:58:12.306Z</time></trkpt><trkpt lat="40.9308767" lon="14.1186467"><ele>67.0</ele><time>2026-05-02T12:58:13.303Z</time></trkpt><trkpt lat="40.9308883" lon="14.1185317"><ele>67.0</ele><time>2026-05-02T12:58:14.303Z</time></trkpt><trkpt lat="40.9308983" lon="14.1184167"><ele>67.0</ele><time>2026-05-02T12:58:15.302Z</time></trkpt><trkpt lat="40.9309117" lon="14.1183017"><ele>67.0</ele><time>2026-05-02T12:58:16.302Z</time></trkpt><trkpt lat="40.9309217" lon="14.1181867"><ele>67.0</ele><time>2026-05-02T12:58:17.306Z</time></trkpt><trkpt lat="40.93093" lon="14.11807"><ele>67.0</ele><time>2026-05-02T12:58:18.305Z</time></trkpt><trkpt lat="40.9309367" lon="14.1179517"><ele>66.8</ele><time>2026-05-02T12:58:19.304Z</time></trkpt><trkpt lat="40.9309433" lon="14.1178317"><ele>66.6</ele><time>2026-05-02T12:58:20.302Z</time></trkpt><trkpt lat="40.93095" lon="14.1177117"><ele>66.39999999999999</ele><time>2026-05-02T12:58:21.302Z</time></trkpt><trkpt lat="40.930955" lon="14.117595"><ele>66.2</ele><time>2026-05-02T12:58:22.306Z</time></trkpt><trkpt lat="40.9309583" lon="14.117475"><ele>66.0</ele><time>2026-05-02T12:58:23.302Z</time></trkpt><trkpt lat="40.9309617" lon="14.1173517"><ele>66.0</ele><time>2026-05-02T12:58:24.305Z</time></trkpt><trkpt lat="40.9309633" lon="14.1172267"><ele>66.0</ele><time>2026-05-02T12:58:25.303Z</time></trkpt><trkpt lat="40.9309683" lon="14.1171067"><ele>66.0</ele><time>2026-05-02T12:58:26.303Z</time></trkpt><trkpt lat="40.930975" lon="14.116985"><ele>66.0</ele><time>2026-05-02T12:58:27.304Z</time></trkpt><trkpt lat="40.9309783" lon="14.116865"><ele>66.0</ele><time>2026-05-02T12:58:28.302Z</time></trkpt><trkpt lat="40.9309867" lon="14.1167417"><ele>66.0</ele><time>2026-05-02T12:58:29.303Z</time></trkpt><trkpt lat="40.931" lon="14.1166233"><ele>66.0</ele><time>2026-05-02T12:58:30.303Z</time></trkpt><trkpt lat="40.9310083" lon="14.1165083"><ele>66.0</ele><time>2026-05-02T12:58:31.303Z</time></trkpt><trkpt lat="40.9310133" lon="14.1163883"><ele>66.0</ele><time>2026-05-02T12:58:32.303Z</time></trkpt><trkpt lat="40.9310167" lon="14.1162717"><ele>66.0</ele><time>2026-05-02T12:58:33.302Z</time></trkpt><trkpt lat="40.9310233" lon="14.116155"><ele>66.0</ele><time>2026-05-02T12:58:34.303Z</time></trkpt><trkpt lat="40.931035" lon="14.11604"><ele>66.0</ele><time>2026-05-02T12:58:35.303Z</time></trkpt><trkpt lat="40.9310467" lon="14.115925"><ele>66.0</ele><time>2026-05-02T12:58:36.307Z</time></trkpt><trkpt lat="40.9310583" lon="14.11581"><ele>66.0</ele><time>2026-05-02T12:58:37.304Z</time></trkpt><trkpt lat="40.9310667" lon="14.115695"><ele>66.0</ele><time>2026-05-02T12:58:38.305Z</time></trkpt><trkpt lat="40.9310733" lon="14.11558"><ele>66.0</ele><time>2026-05-02T12:58:39.302Z</time></trkpt><trkpt lat="40.93108" lon="14.11547"><ele>66.0</ele><time>2026-05-02T12:58:40.302Z</time></trkpt><trkpt lat="40.9310883" lon="14.1153583"><ele>65.83333333333333</ele><time>2026-05-02T12:58:41.303Z</time></trkpt><trkpt lat="40.9310967" lon="14.1152467"><ele>65.66666666666667</ele><time>2026-05-02T12:58:42.302Z</time></trkpt><trkpt lat="40.9311083" lon="14.1151333"><ele>65.5</ele><time>2026-05-02T12:58:43.305Z</time></trkpt><trkpt lat="40.9311183" lon="14.1150183"><ele>65.33333333333334</ele><time>2026-05-02T12:58:44.303Z</time></trkpt><trkpt lat="40.9311283" lon="14.1149"><ele>65.16666666666667</ele><time>2026-05-02T12:58:45.303Z</time></trkpt><trkpt lat="40.9311383" lon="14.1147833"><ele>65.0</ele><time>2026-05-02T12:58:46.303Z</time></trkpt><trkpt lat="40.9311517" lon="14.11467"><ele>64.83333333333334</ele><time>2026-05-02T12:58:47.303Z</time></trkpt><trkpt lat="40.9311633" lon="14.1145567"><ele>64.66666666666667</ele><time>2026-05-02T12:58:48.302Z</time></trkpt><trkpt lat="40.931175" lon="14.11444"><ele>64.5</ele><time>2026-05-02T12:58:49.303Z</time></trkpt><trkpt lat="40.931185" lon="14.1143283"><ele>64.33333333333333</ele><time>2026-05-02T12:58:50.303Z</time></trkpt><trkpt lat="40.93119" lon="14.1142117"><ele>64.16666666666666</ele><time>2026-05-02T12:58:51.303Z</time></trkpt><trkpt lat="40.9312" lon="14.1140917"><ele>64.0</ele><time>2026-05-02T12:58:52.303Z</time></trkpt><trkpt lat="40.9312067" lon="14.1139733"><ele>63.99999999999999</ele><time>2026-05-02T12:58:53.303Z</time></trkpt><trkpt lat="40.9312117" lon="14.1138533"><ele>64.0</ele><time>2026-05-02T12:58:54.304Z</time></trkpt><trkpt lat="40.93122" lon="14.1137367"><ele>64.0</ele><time>2026-05-02T12:58:55.304Z</time></trkpt><trkpt lat="40.93123" lon="14.11362"><ele>64.0</ele><time>2026-05-02T12:58:56.303Z</time></trkpt><trkpt lat="40.9312417" lon="14.1135033"><ele>63.99999999999999</ele><time>2026-05-02T12:58:57.303Z</time></trkpt><trkpt lat="40.9312567" lon="14.1133867"><ele>64.0</ele><time>2026-05-02T12:58:58.302Z</time></trkpt><trkpt lat="40.93127" lon="14.11327"><ele>63.800000000000004</ele><time>2026-05-02T12:58:59.303Z</time></trkpt><trkpt lat="40.93128" lon="14.1131533"><ele>63.60000000000001</ele><time>2026-05-02T12:59:00.302Z</time></trkpt><trkpt lat="40.9312867" lon="14.1130333"><ele>63.4</ele><time>2026-05-02T12:59:01.304Z</time></trkpt><trkpt lat="40.9313017" lon="14.112915"><ele>63.2</ele><time>2026-05-02T12:59:02.303Z</time></trkpt><trkpt lat="40.9313133" lon="14.112795"><ele>63.0</ele><time>2026-05-02T12:59:03.303Z</time></trkpt><trkpt lat="40.9313283" lon="14.1126767"><ele>63.0</ele><time>2026-05-02T12:59:04.302Z</time></trkpt><trkpt lat="40.9313383" lon="14.1125583"><ele>63.0</ele><time>2026-05-02T12:59:05.303Z</time></trkpt><trkpt lat="40.931345" lon="14.1124383"><ele>63.0</ele><time>2026-05-02T12:59:06.303Z</time></trkpt><trkpt lat="40.9313533" lon="14.112315"><ele>63.0</ele><time>2026-05-02T12:59:07.304Z</time></trkpt><trkpt lat="40.9313633" lon="14.1121917"><ele>63.0</ele><time>2026-05-02T12:59:08.303Z</time></trkpt><trkpt lat="40.9313717" lon="14.1120717"><ele>63.0</ele><time>2026-05-02T12:59:09.302Z</time></trkpt><trkpt lat="40.9313783" lon="14.1119517"><ele>63.0</ele><time>2026-05-02T12:59:10.303Z</time></trkpt><trkpt lat="40.9313867" lon="14.1118333"><ele>63.0</ele><time>2026-05-02T12:59:11.302Z</time></trkpt><trkpt lat="40.9313967" lon="14.11172"><ele>63.0</ele><time>2026-05-02T12:59:12.302Z</time></trkpt><trkpt lat="40.931405" lon="14.111605"><ele>63.0</ele><time>2026-05-02T12:59:13.303Z</time></trkpt><trkpt lat="40.9314117" lon="14.1114867"><ele>63.0</ele><time>2026-05-02T12:59:14.303Z</time></trkpt><trkpt lat="40.931415" lon="14.11137"><ele>63.0</ele><time>2026-05-02T12:59:15.303Z</time></trkpt><trkpt lat="40.9314217" lon="14.111255"><ele>63.0</ele><time>2026-05-02T12:59:16.305Z</time></trkpt><trkpt lat="40.931425" lon="14.11114"><ele>63.0</ele><time>2026-05-02T12:59:17.302Z</time></trkpt><trkpt lat="40.9314283" lon="14.111025"><ele>63.0</ele><time>2026-05-02T12:59:18.302Z</time></trkpt><trkpt lat="40.93143" lon="14.1109117"><ele>63.0</ele><time>2026-05-02T12:59:19.303Z</time></trkpt><trkpt lat="40.9314333" lon="14.110795"><ele>63.0</ele><time>2026-05-02T12:59:20.303Z</time></trkpt><trkpt lat="40.9314383" lon="14.11068"><ele>62.833333333333336</ele><time>2026-05-02T12:59:21.303Z</time></trkpt><trkpt lat="40.9314417" lon="14.1105617"><ele>62.66666666666667</ele><time>2026-05-02T12:59:22.302Z</time></trkpt><trkpt lat="40.9314433" lon="14.1104433"><ele>62.5</ele><time>2026-05-02T12:59:23.303Z</time></trkpt><trkpt lat="40.931445" lon="14.1103283"><ele>62.333333333333336</ele><time>2026-05-02T12:59:24.301Z</time></trkpt><trkpt lat="40.931445" lon="14.1102117"><ele>62.16666666666667</ele><time>2026-05-02T12:59:25.305Z</time></trkpt><trkpt lat="40.9314483" lon="14.1100933"><ele>62.0</ele><time>2026-05-02T12:59:26.302Z</time></trkpt><trkpt lat="40.93145" lon="14.1099733"><ele>61.833333333333336</ele><time>2026-05-02T12:59:27.302Z</time></trkpt><trkpt lat="40.9314533" lon="14.1098567"><ele>61.66666666666667</ele><time>2026-05-02T12:59:28.302Z</time></trkpt><trkpt lat="40.9314567" lon="14.1097383"><ele>61.5</ele><time>2026-05-02T12:59:29.303Z</time></trkpt><trkpt lat="40.9314583" lon="14.1096233"><ele>61.33333333333333</ele><time>2026-05-02T12:59:30.302Z</time></trkpt><trkpt lat="40.9314617" lon="14.1095067"><ele>61.166666666666664</ele><time>2026-05-02T12:59:31.302Z</time></trkpt><trkpt lat="40.931465" lon="14.109395"><ele>61.0</ele><time>2026-05-02T12:59:32.302Z</time></trkpt><trkpt lat="40.931465" lon="14.1092833"><ele>60.99999999999999</ele><time>2026-05-02T12:59:33.302Z</time></trkpt><trkpt lat="40.931465" lon="14.1091717"><ele>61.0</ele><time>2026-05-02T12:59:34.302Z</time></trkpt><trkpt lat="40.9314683" lon="14.10906"><ele>61.0</ele><time>2026-05-02T12:59:35.301Z</time></trkpt><trkpt lat="40.931475" lon="14.10895"><ele>61.0</ele><time>2026-05-02T12:59:36.302Z</time></trkpt><trkpt lat="40.93148" lon="14.1088417"><ele>60.99999999999999</ele><time>2026-05-02T12:59:37.303Z</time></trkpt><trkpt lat="40.9314867" lon="14.1087317"><ele>61.0</ele><time>2026-05-02T12:59:38.301Z</time></trkpt><trkpt lat="40.9314917" lon="14.1086167"><ele>60.83333333333333</ele><time>2026-05-02T12:59:39.303Z</time></trkpt><trkpt lat="40.9314967" lon="14.1085033"><ele>60.666666666666664</ele><time>2026-05-02T12:59:40.302Z</time></trkpt><trkpt lat="40.9315017" lon="14.1083883"><ele>60.5</ele><time>2026-05-02T12:59:41.304Z</time></trkpt><trkpt lat="40.931505" lon="14.1082717"><ele>60.33333333333333</ele><time>2026-05-02T12:59:42.302Z</time></trkpt><trkpt lat="40.9315083" lon="14.1081583"><ele>60.166666666666664</ele><time>2026-05-02T12:59:43.302Z</time></trkpt><trkpt lat="40.9315067" lon="14.10804"><ele>60.0</ele><time>2026-05-02T12:59:44.302Z</time></trkpt><trkpt lat="40.9315033" lon="14.1079267"><ele>60.0</ele><time>2026-05-02T12:59:45.303Z</time></trkpt><trkpt lat="40.9315033" lon="14.1078117"><ele>60.0</ele><time>2026-05-02T12:59:46.302Z</time></trkpt><trkpt lat="40.931505" lon="14.1077017"><ele>60.0</ele><time>2026-05-02T12:59:47.303Z</time></trkpt><trkpt lat="40.9315117" lon="14.1075883"><ele>60.0</ele><time>2026-05-02T12:59:48.303Z</time></trkpt><trkpt lat="40.9315183" lon="14.1074783"><ele>60.0</ele><time>2026-05-02T12:59:49.303Z</time></trkpt><trkpt lat="40.9315233" lon="14.10737"><ele>60.0</ele><time>2026-05-02T12:59:50.302Z</time></trkpt><trkpt lat="40.93153" lon="14.107265"><ele>60.0</ele><time>2026-05-02T12:59:51.302Z</time></trkpt><trkpt lat="40.931535" lon="14.107165"><ele>60.0</ele><time>2026-05-02T12:59:52.301Z</time></trkpt><trkpt lat="40.93154" lon="14.1070717"><ele>60.0</ele><time>2026-05-02T12:59:53.302Z</time></trkpt><trkpt lat="40.9315467" lon="14.1069783"><ele>60.0</ele><time>2026-05-02T12:59:54.302Z</time></trkpt><trkpt lat="40.931555" lon="14.106895"><ele>60.0</ele><time>2026-05-02T12:59:55.303Z</time></trkpt><trkpt lat="40.93157" lon="14.1067317"><ele>60.0</ele><time>2026-05-02T12:59:57.303Z</time></trkpt><trkpt lat="40.931585" lon="14.1065667"><ele>60.0</ele><time>2026-05-02T12:59:59.303Z</time></trkpt><trkpt lat="40.931595" lon="14.1064083"><ele>60.0</ele><time>2026-05-02T13:00:01.303Z</time></trkpt><trkpt lat="40.9316" lon="14.106325"><ele>60.0</ele><time>2026-05-02T13:00:02.302Z</time></trkpt><trkpt lat="40.9316" lon="14.1062383"><ele>60.0</ele><time>2026-05-02T13:00:03.302Z</time></trkpt><trkpt lat="40.9316033" lon="14.1061517"><ele>60.0</ele><time>2026-05-02T13:00:04.302Z</time></trkpt><trkpt lat="40.9316083" lon="14.1060633"><ele>60.0</ele><time>2026-05-02T13:00:05.302Z</time></trkpt><trkpt lat="40.9316117" lon="14.1059733"><ele>60.0</ele><time>2026-05-02T13:00:06.303Z</time></trkpt><trkpt lat="40.9316133" lon="14.10588"><ele>60.0</ele><time>2026-05-02T13:00:07.303Z</time></trkpt><trkpt lat="40.9316167" lon="14.105785"><ele>60.0</ele><time>2026-05-02T13:00:08.303Z</time></trkpt><trkpt lat="40.93162" lon="14.1056917"><ele>60.0</ele><time>2026-05-02T13:00:09.302Z</time></trkpt><trkpt lat="40.9316233" lon="14.1055967"><ele>60.0</ele><time>2026-05-02T13:00:10.302Z</time></trkpt><trkpt lat="40.9316283" lon="14.1055033"><ele>60.0</ele><time>2026-05-02T13:00:11.303Z</time></trkpt><trkpt lat="40.9316317" lon="14.1054067"><ele>60.0</ele><time>2026-05-02T13:00:12.303Z</time></trkpt><trkpt lat="40.9316383" lon="14.1053083"><ele>60.0</ele><time>2026-05-02T13:00:13.303Z</time></trkpt><trkpt lat="40.9316417" lon="14.1052067"><ele>59.666666666666664</ele><time>2026-05-02T13:00:14.303Z</time></trkpt><trkpt lat="40.9316467" lon="14.1051"><ele>59.33333333333333</ele><time>2026-05-02T13:00:15.302Z</time></trkpt><trkpt lat="40.9316533" lon="14.1049933"><ele>59.0</ele><time>2026-05-02T13:00:16.303Z</time></trkpt><trkpt lat="40.93166" lon="14.1048833"><ele>58.666666666666664</ele><time>2026-05-02T13:00:17.303Z</time></trkpt><trkpt lat="40.9316633" lon="14.10477"><ele>58.33333333333333</ele><time>2026-05-02T13:00:18.303Z</time></trkpt><trkpt lat="40.9316667" lon="14.1046533"><ele>58.0</ele><time>2026-05-02T13:00:19.303Z</time></trkpt><trkpt lat="40.9316767" lon="14.1045317"><ele>57.8</ele><time>2026-05-02T13:00:20.303Z</time></trkpt><trkpt lat="40.931685" lon="14.1044067"><ele>57.599999999999994</ele><time>2026-05-02T13:00:21.302Z</time></trkpt><trkpt lat="40.931695" lon="14.10428"><ele>57.400000000000006</ele><time>2026-05-02T13:00:22.302Z</time></trkpt><trkpt lat="40.9317" lon="14.10415"><ele>57.2</ele><time>2026-05-02T13:00:23.303Z</time></trkpt><trkpt lat="40.931705" lon="14.1040217"><ele>57.0</ele><time>2026-05-02T13:00:24.303Z</time></trkpt><trkpt lat="40.9317117" lon="14.1038917"><ele>56.400000000000006</ele><time>2026-05-02T13:00:25.302Z</time></trkpt><trkpt lat="40.9317183" lon="14.1037583"><ele>55.800000000000004</ele><time>2026-05-02T13:00:26.302Z</time></trkpt><trkpt lat="40.9317283" lon="14.103625"><ele>55.2</ele><time>2026-05-02T13:00:27.303Z</time></trkpt><trkpt lat="40.9317383" lon="14.10349"><ele>54.6</ele><time>2026-05-02T13:00:28.303Z</time></trkpt><trkpt lat="40.9317467" lon="14.10335"><ele>54.0</ele><time>2026-05-02T13:00:29.301Z</time></trkpt><trkpt lat="40.931755" lon="14.103215"><ele>53.800000000000004</ele><time>2026-05-02T13:00:30.302Z</time></trkpt><trkpt lat="40.9317633" lon="14.1030833"><ele>53.60000000000001</ele><time>2026-05-02T13:00:31.302Z</time></trkpt><trkpt lat="40.93177" lon="14.102955"><ele>53.4</ele><time>2026-05-02T13:00:32.307Z</time></trkpt><trkpt lat="40.9317767" lon="14.1028333"><ele>53.2</ele><time>2026-05-02T13:00:33.301Z</time></trkpt><trkpt lat="40.931785" lon="14.1027167"><ele>53.0</ele><time>2026-05-02T13:00:34.302Z</time></trkpt><trkpt lat="40.931795" lon="14.1026083"><ele>53.00000000000001</ele><time>2026-05-02T13:00:35.302Z</time></trkpt><trkpt lat="40.931805" lon="14.1024983"><ele>53.0</ele><time>2026-05-02T13:00:36.301Z</time></trkpt><trkpt lat="40.9318133" lon="14.1023883"><ele>53.0</ele><time>2026-05-02T13:00:37.302Z</time></trkpt><trkpt lat="40.9318233" lon="14.10228"><ele>53.0</ele><time>2026-05-02T13:00:38.301Z</time></trkpt><trkpt lat="40.9318317" lon="14.1021667"><ele>53.00000000000001</ele><time>2026-05-02T13:00:39.301Z</time></trkpt><trkpt lat="40.9318367" lon="14.1020567"><ele>53.0</ele><time>2026-05-02T13:00:40.302Z</time></trkpt><trkpt lat="40.9318433" lon="14.1019467"><ele>52.50000000000001</ele><time>2026-05-02T13:00:41.302Z</time></trkpt><trkpt lat="40.9318517" lon="14.1018333"><ele>52.0</ele><time>2026-05-02T13:00:42.302Z</time></trkpt><trkpt lat="40.931855" lon="14.1017267"><ele>51.5</ele><time>2026-05-02T13:00:43.302Z</time></trkpt><trkpt lat="40.9318567" lon="14.1016167"><ele>51.0</ele><time>2026-05-02T13:00:44.301Z</time></trkpt><trkpt lat="40.93186" lon="14.1015067"><ele>50.50000000000001</ele><time>2026-05-02T13:00:45.301Z</time></trkpt><trkpt lat="40.9318667" lon="14.1013983"><ele>50.0</ele><time>2026-05-02T13:00:46.302Z</time></trkpt><trkpt lat="40.9318733" lon="14.1012917"><ele>49.833333333333336</ele><time>2026-05-02T13:00:47.302Z</time></trkpt><trkpt lat="40.9318833" lon="14.1011867"><ele>49.66666666666667</ele><time>2026-05-02T13:00:48.301Z</time></trkpt><trkpt lat="40.9318917" lon="14.101085"><ele>49.5</ele><time>2026-05-02T13:00:49.302Z</time></trkpt><trkpt lat="40.9319033" lon="14.1009817"><ele>49.33333333333333</ele><time>2026-05-02T13:00:50.304Z</time></trkpt><trkpt lat="40.931915" lon="14.100875"><ele>49.166666666666664</ele><time>2026-05-02T13:00:51.302Z</time></trkpt><trkpt lat="40.93193" lon="14.1007683"><ele>49.0</ele><time>2026-05-02T13:00:52.302Z</time></trkpt><trkpt lat="40.9319417" lon="14.1006617"><ele>48.99999999999999</ele><time>2026-05-02T13:00:53.302Z</time></trkpt><trkpt lat="40.9319517" lon="14.100555"><ele>49.0</ele><time>2026-05-02T13:00:54.301Z</time></trkpt><trkpt lat="40.9319583" lon="14.1004483"><ele>49.0</ele><time>2026-05-02T13:00:55.303Z</time></trkpt><trkpt lat="40.9319617" lon="14.1003417"><ele>49.0</ele><time>2026-05-02T13:00:56.302Z</time></trkpt><trkpt lat="40.931965" lon="14.1002333"><ele>48.99999999999999</ele><time>2026-05-02T13:00:57.302Z</time></trkpt><trkpt lat="40.93197" lon="14.1001267"><ele>49.0</ele><time>2026-05-02T13:00:58.302Z</time></trkpt><trkpt lat="40.9319717" lon="14.10002"><ele>48.99999999999999</ele><time>2026-05-02T13:00:59.302Z</time></trkpt><trkpt lat="40.9319683" lon="14.0999133"><ele>49.0</ele><time>2026-05-02T13:01:00.302Z</time></trkpt><trkpt lat="40.931965" lon="14.0998033"><ele>49.0</ele><time>2026-05-02T13:01:01.302Z</time></trkpt><trkpt lat="40.9319617" lon="14.099695"><ele>49.0</ele><time>2026-05-02T13:01:02.302Z</time></trkpt><trkpt lat="40.9319617" lon="14.0995883"><ele>48.99999999999999</ele><time>2026-05-02T13:01:03.305Z</time></trkpt><trkpt lat="40.93196" lon="14.09948"><ele>49.0</ele><time>2026-05-02T13:01:04.302Z</time></trkpt><trkpt lat="40.93196" lon="14.0993717"><ele>48.99999999999999</ele><time>2026-05-02T13:01:05.302Z</time></trkpt><trkpt lat="40.9319583" lon="14.0992683"><ele>49.0</ele><time>2026-05-02T13:01:06.303Z</time></trkpt><trkpt lat="40.9319583" lon="14.0991617"><ele>49.0</ele><time>2026-05-02T13:01:07.302Z</time></trkpt><trkpt lat="40.93196" lon="14.0990533"><ele>49.0</ele><time>2026-05-02T13:01:08.302Z</time></trkpt><trkpt lat="40.9319617" lon="14.0989433"><ele>48.99999999999999</ele><time>2026-05-02T13:01:09.302Z</time></trkpt><trkpt lat="40.931965" lon="14.0988333"><ele>49.0</ele><time>2026-05-02T13:01:10.302Z</time></trkpt><trkpt lat="40.93197" lon="14.098725"><ele>48.99999999999999</ele><time>2026-05-02T13:01:11.303Z</time></trkpt><trkpt lat="40.931975" lon="14.0986167"><ele>49.0</ele><time>2026-05-02T13:01:12.302Z</time></trkpt><trkpt lat="40.93198" lon="14.0985067"><ele>49.0</ele><time>2026-05-02T13:01:13.302Z</time></trkpt><trkpt lat="40.931985" lon="14.0983967"><ele>49.0</ele><time>2026-05-02T13:01:14.302Z</time></trkpt><trkpt lat="40.9319883" lon="14.098285"><ele>48.99999999999999</ele><time>2026-05-02T13:01:15.302Z</time></trkpt><trkpt lat="40.931995" lon="14.098175"><ele>49.0</ele><time>2026-05-02T13:01:16.305Z</time></trkpt><trkpt lat="40.932" lon="14.09806"><ele>48.99999999999999</ele><time>2026-05-02T13:01:17.302Z</time></trkpt><trkpt lat="40.9320067" lon="14.0979467"><ele>49.0</ele><time>2026-05-02T13:01:18.302Z</time></trkpt><trkpt lat="40.93201" lon="14.097835"><ele>49.0</ele><time>2026-05-02T13:01:19.302Z</time></trkpt><trkpt lat="40.932015" lon="14.097725"><ele>49.0</ele><time>2026-05-02T13:01:20.302Z</time></trkpt><trkpt lat="40.93202" lon="14.0976167"><ele>48.99999999999999</ele><time>2026-05-02T13:01:21.302Z</time></trkpt><trkpt lat="40.932025" lon="14.0975067"><ele>49.0</ele><time>2026-05-02T13:01:22.303Z</time></trkpt><trkpt lat="40.9320267" lon="14.0973967"><ele>48.83333333333333</ele><time>2026-05-02T13:01:23.303Z</time></trkpt><trkpt lat="40.93203" lon="14.0972833"><ele>48.666666666666664</ele><time>2026-05-02T13:01:24.303Z</time></trkpt><trkpt lat="40.932035" lon="14.0971733"><ele>48.5</ele><time>2026-05-02T13:01:25.303Z</time></trkpt><trkpt lat="40.93204" lon="14.0970633"><ele>48.33333333333333</ele><time>2026-05-02T13:01:26.302Z</time></trkpt><trkpt lat="40.9320483" lon="14.0969533"><ele>48.166666666666664</ele><time>2026-05-02T13:01:27.302Z</time></trkpt><trkpt lat="40.932055" lon="14.096845"><ele>48.0</ele><time>2026-05-02T13:01:28.302Z</time></trkpt><trkpt lat="40.9320567" lon="14.0967467"><ele>48.0</ele><time>2026-05-02T13:01:29.302Z</time></trkpt><trkpt lat="40.932055" lon="14.09665"><ele>48.0</ele><time>2026-05-02T13:01:30.303Z</time></trkpt><trkpt lat="40.9320567" lon="14.096545"><ele>48.0</ele><time>2026-05-02T13:01:31.303Z</time></trkpt><trkpt lat="40.93206" lon="14.0964367"><ele>48.0</ele><time>2026-05-02T13:01:32.301Z</time></trkpt><trkpt lat="40.9320667" lon="14.09633"><ele>48.0</ele><time>2026-05-02T13:01:33.301Z</time></trkpt><trkpt lat="40.9320683" lon="14.0962217"><ele>48.0</ele><time>2026-05-02T13:01:34.302Z</time></trkpt><trkpt lat="40.932075" lon="14.0961133"><ele>48.0</ele><time>2026-05-02T13:01:35.302Z</time></trkpt><trkpt lat="40.93208" lon="14.0960083"><ele>48.0</ele><time>2026-05-02T13:01:36.302Z</time></trkpt><trkpt lat="40.932085" lon="14.0959017"><ele>48.0</ele><time>2026-05-02T13:01:37.302Z</time></trkpt><trkpt lat="40.93209" lon="14.0957917"><ele>48.0</ele><time>2026-05-02T13:01:38.302Z</time></trkpt><trkpt lat="40.932095" lon="14.0956767"><ele>48.0</ele><time>2026-05-02T13:01:39.301Z</time></trkpt><trkpt lat="40.9321017" lon="14.095565"><ele>48.0</ele><time>2026-05-02T13:01:40.302Z</time></trkpt><trkpt lat="40.93211" lon="14.0954533"><ele>48.0</ele><time>2026-05-02T13:01:41.302Z</time></trkpt><trkpt lat="40.9321133" lon="14.0953417"><ele>48.0</ele><time>2026-05-02T13:01:42.304Z</time></trkpt><trkpt lat="40.9321167" lon="14.0952333"><ele>48.0</ele><time>2026-05-02T13:01:43.302Z</time></trkpt><trkpt lat="40.93212" lon="14.0951167"><ele>48.0</ele><time>2026-05-02T13:01:44.302Z</time></trkpt><trkpt lat="40.9321233" lon="14.094995"><ele>48.0</ele><time>2026-05-02T13:01:45.301Z</time></trkpt><trkpt lat="40.93213" lon="14.0948733"><ele>48.0</ele><time>2026-05-02T13:01:46.302Z</time></trkpt><trkpt lat="40.9321383" lon="14.094755"><ele>47.833333333333336</ele><time>2026-05-02T13:01:47.302Z</time></trkpt><trkpt lat="40.93215" lon="14.0946383"><ele>47.666666666666664</ele><time>2026-05-02T13:01:48.301Z</time></trkpt><trkpt lat="40.9321583" lon="14.09452"><ele>47.5</ele><time>2026-05-02T13:01:49.303Z</time></trkpt><trkpt lat="40.9321633" lon="14.09441"><ele>47.33333333333333</ele><time>2026-05-02T13:01:50.302Z</time></trkpt><trkpt lat="40.93217" lon="14.0943033"><ele>47.166666666666664</ele><time>2026-05-02T13:01:51.301Z</time></trkpt><trkpt lat="40.9321767" lon="14.0941933"><ele>47.0</ele><time>2026-05-02T13:01:52.302Z</time></trkpt><trkpt lat="40.932185" lon="14.0940883"><ele>47.0</ele><time>2026-05-02T13:01:53.303Z</time></trkpt><trkpt lat="40.9321917" lon="14.09398"><ele>47.0</ele><time>2026-05-02T13:01:54.302Z</time></trkpt><trkpt lat="40.9321967" lon="14.0938683"><ele>47.0</ele><time>2026-05-02T13:01:55.302Z</time></trkpt><trkpt lat="40.9322033" lon="14.09376"><ele>47.0</ele><time>2026-05-02T13:01:56.301Z</time></trkpt><trkpt lat="40.9322083" lon="14.0936433"><ele>47.0</ele><time>2026-05-02T13:01:57.302Z</time></trkpt><trkpt lat="40.9322133" lon="14.0935333"><ele>47.0</ele><time>2026-05-02T13:01:58.305Z</time></trkpt><trkpt lat="40.93222" lon="14.09342"><ele>47.0</ele><time>2026-05-02T13:01:59.302Z</time></trkpt><trkpt lat="40.932225" lon="14.0933117"><ele>47.0</ele><time>2026-05-02T13:02:00.302Z</time></trkpt><trkpt lat="40.9322317" lon="14.0932017"><ele>47.0</ele><time>2026-05-02T13:02:01.303Z</time></trkpt><trkpt lat="40.9322367" lon="14.0930883"><ele>47.0</ele><time>2026-05-02T13:02:02.302Z</time></trkpt><trkpt lat="40.9322417" lon="14.0929733"><ele>47.0</ele><time>2026-05-02T13:02:03.303Z</time></trkpt><trkpt lat="40.9322467" lon="14.09286"><ele>47.0</ele><time>2026-05-02T13:02:04.302Z</time></trkpt><trkpt lat="40.9322517" lon="14.0927433"><ele>47.0</ele><time>2026-05-02T13:02:05.307Z</time></trkpt><trkpt lat="40.9322583" lon="14.09263"><ele>47.0</ele><time>2026-05-02T13:02:06.302Z</time></trkpt><trkpt lat="40.932265" lon="14.092515"><ele>47.0</ele><time>2026-05-02T13:02:07.306Z</time></trkpt><trkpt lat="40.9322717" lon="14.0923983"><ele>47.0</ele><time>2026-05-02T13:02:08.302Z</time></trkpt><trkpt lat="40.93228" lon="14.092285"><ele>47.0</ele><time>2026-05-02T13:02:09.302Z</time></trkpt><trkpt lat="40.932285" lon="14.0921667"><ele>47.0</ele><time>2026-05-02T13:02:10.305Z</time></trkpt><trkpt lat="40.9322883" lon="14.0920517"><ele>47.0</ele><time>2026-05-02T13:02:11.305Z</time></trkpt><trkpt lat="40.9322933" lon="14.091935"><ele>47.0</ele><time>2026-05-02T13:02:12.302Z</time></trkpt><trkpt lat="40.9323" lon="14.0918183"><ele>47.0</ele><time>2026-05-02T13:02:13.302Z</time></trkpt><trkpt lat="40.9323067" lon="14.091705"><ele>47.0</ele><time>2026-05-02T13:02:14.302Z</time></trkpt><trkpt lat="40.9323133" lon="14.09159"><ele>47.0</ele><time>2026-05-02T13:02:15.302Z</time></trkpt><trkpt lat="40.9323183" lon="14.091475"><ele>47.0</ele><time>2026-05-02T13:02:16.302Z</time></trkpt><trkpt lat="40.932325" lon="14.09136"><ele>46.83333333333333</ele><time>2026-05-02T13:02:17.302Z</time></trkpt><trkpt lat="40.9323283" lon="14.0912433"><ele>46.666666666666664</ele><time>2026-05-02T13:02:18.302Z</time></trkpt><trkpt lat="40.9323333" lon="14.091125"><ele>46.5</ele><time>2026-05-02T13:02:19.301Z</time></trkpt><trkpt lat="40.93234" lon="14.0910117"><ele>46.333333333333336</ele><time>2026-05-02T13:02:20.302Z</time></trkpt><trkpt lat="40.9323483" lon="14.0908983"><ele>46.16666666666667</ele><time>2026-05-02T13:02:21.305Z</time></trkpt><trkpt lat="40.9323567" lon="14.0907867"><ele>46.0</ele><time>2026-05-02T13:02:22.302Z</time></trkpt><trkpt lat="40.9323633" lon="14.0906733"><ele>46.0</ele><time>2026-05-02T13:02:23.302Z</time></trkpt><trkpt lat="40.93237" lon="14.0905617"><ele>46.0</ele><time>2026-05-02T13:02:24.302Z</time></trkpt><trkpt lat="40.9323767" lon="14.09045"><ele>46.0</ele><time>2026-05-02T13:02:25.303Z</time></trkpt><trkpt lat="40.9323817" lon="14.090335"><ele>46.0</ele><time>2026-05-02T13:02:26.305Z</time></trkpt><trkpt lat="40.9323867" lon="14.0902183"><ele>46.0</ele><time>2026-05-02T13:02:27.302Z</time></trkpt><trkpt lat="40.9323933" lon="14.0901"><ele>46.0</ele><time>2026-05-02T13:02:28.305Z</time></trkpt><trkpt lat="40.9323983" lon="14.0899833"><ele>46.0</ele><time>2026-05-02T13:02:29.302Z</time></trkpt><trkpt lat="40.932405" lon="14.0898667"><ele>46.0</ele><time>2026-05-02T13:02:30.302Z</time></trkpt><trkpt lat="40.932415" lon="14.089755"><ele>46.0</ele><time>2026-05-02T13:02:31.301Z</time></trkpt><trkpt lat="40.93242" lon="14.08964"><ele>46.0</ele><time>2026-05-02T13:02:32.302Z</time></trkpt><trkpt lat="40.932425" lon="14.089525"><ele>46.0</ele><time>2026-05-02T13:02:33.304Z</time></trkpt><trkpt lat="40.93243" lon="14.0894117"><ele>46.0</ele><time>2026-05-02T13:02:34.302Z</time></trkpt><trkpt lat="40.932435" lon="14.0893"><ele>46.0</ele><time>2026-05-02T13:02:35.302Z</time></trkpt><trkpt lat="40.93244" lon="14.08919"><ele>46.0</ele><time>2026-05-02T13:02:36.302Z</time></trkpt><trkpt lat="40.9324467" lon="14.0890767"><ele>46.0</ele><time>2026-05-02T13:02:37.303Z</time></trkpt><trkpt lat="40.9324533" lon="14.08897"><ele>46.0</ele><time>2026-05-02T13:02:38.302Z</time></trkpt><trkpt lat="40.93246" lon="14.08886"><ele>46.0</ele><time>2026-05-02T13:02:39.302Z</time></trkpt><trkpt lat="40.9324667" lon="14.0887483"><ele>46.0</ele><time>2026-05-02T13:02:40.302Z</time></trkpt><trkpt lat="40.9324717" lon="14.0886317"><ele>46.16666666666667</ele><time>2026-05-02T13:02:41.302Z</time></trkpt><trkpt lat="40.932475" lon="14.088515"><ele>46.333333333333336</ele><time>2026-05-02T13:02:42.302Z</time></trkpt><trkpt lat="40.9324783" lon="14.0884017"><ele>46.5</ele><time>2026-05-02T13:02:43.303Z</time></trkpt><trkpt lat="40.9324833" lon="14.0882867"><ele>46.666666666666664</ele><time>2026-05-02T13:02:44.302Z</time></trkpt><trkpt lat="40.932485" lon="14.0881683"><ele>46.83333333333333</ele><time>2026-05-02T13:02:45.302Z</time></trkpt><trkpt lat="40.932485" lon="14.08805"><ele>47.0</ele><time>2026-05-02T13:02:46.305Z</time></trkpt><trkpt lat="40.9324883" lon="14.087935"><ele>47.0</ele><time>2026-05-02T13:02:47.302Z</time></trkpt><trkpt lat="40.9324917" lon="14.08782"><ele>47.0</ele><time>2026-05-02T13:02:48.302Z</time></trkpt><trkpt lat="40.932495" lon="14.0877083"><ele>47.0</ele><time>2026-05-02T13:02:49.302Z</time></trkpt><trkpt lat="40.9325017" lon="14.0875967"><ele>47.0</ele><time>2026-05-02T13:02:50.305Z</time></trkpt><trkpt lat="40.9325067" lon="14.0874817"><ele>47.0</ele><time>2026-05-02T13:02:51.302Z</time></trkpt><trkpt lat="40.9325117" lon="14.0873717"><ele>47.0</ele><time>2026-05-02T13:02:52.302Z</time></trkpt><trkpt lat="40.93252" lon="14.0872633"><ele>46.666666666666664</ele><time>2026-05-02T13:02:53.302Z</time></trkpt><trkpt lat="40.9325283" lon="14.087155"><ele>46.33333333333333</ele><time>2026-05-02T13:02:54.307Z</time></trkpt><trkpt lat="40.9325333" lon="14.087045"><ele>46.0</ele><time>2026-05-02T13:02:55.302Z</time></trkpt><trkpt lat="40.93254" lon="14.08693"><ele>45.666666666666664</ele><time>2026-05-02T13:02:56.303Z</time></trkpt><trkpt lat="40.9325467" lon="14.086815"><ele>45.333333333333336</ele><time>2026-05-02T13:02:57.302Z</time></trkpt><trkpt lat="40.9325533" lon="14.0867"><ele>45.0</ele><time>2026-05-02T13:02:58.302Z</time></trkpt><trkpt lat="40.93256" lon="14.0865867"><ele>45.0</ele><time>2026-05-02T13:02:59.302Z</time></trkpt><trkpt lat="40.9325667" lon="14.0864783"><ele>45.0</ele><time>2026-05-02T13:03:00.302Z</time></trkpt><trkpt lat="40.9325717" lon="14.0863667"><ele>45.0</ele><time>2026-05-02T13:03:01.302Z</time></trkpt><trkpt lat="40.932575" lon="14.0862583"><ele>45.0</ele><time>2026-05-02T13:03:02.302Z</time></trkpt><trkpt lat="40.9325783" lon="14.0861483"><ele>45.0</ele><time>2026-05-02T13:03:03.302Z</time></trkpt><trkpt lat="40.9325817" lon="14.0860367"><ele>45.0</ele><time>2026-05-02T13:03:04.302Z</time></trkpt><trkpt lat="40.932585" lon="14.085925"><ele>45.0</ele><time>2026-05-02T13:03:05.302Z</time></trkpt><trkpt lat="40.93259" lon="14.0858167"><ele>45.0</ele><time>2026-05-02T13:03:06.303Z</time></trkpt><trkpt lat="40.932595" lon="14.08571"><ele>45.0</ele><time>2026-05-02T13:03:07.302Z</time></trkpt><trkpt lat="40.9326017" lon="14.0856017"><ele>45.0</ele><time>2026-05-02T13:03:08.304Z</time></trkpt><trkpt lat="40.9326083" lon="14.085495"><ele>45.0</ele><time>2026-05-02T13:03:09.303Z</time></trkpt><trkpt lat="40.932615" lon="14.0853833"><ele>45.0</ele><time>2026-05-02T13:03:10.303Z</time></trkpt><trkpt lat="40.93262" lon="14.085275"><ele>45.166666666666664</ele><time>2026-05-02T13:03:11.303Z</time></trkpt><trkpt lat="40.9326233" lon="14.085165"><ele>45.333333333333336</ele><time>2026-05-02T13:03:12.301Z</time></trkpt><trkpt lat="40.9326267" lon="14.08506"><ele>45.5</ele><time>2026-05-02T13:03:13.303Z</time></trkpt><trkpt lat="40.93263" lon="14.084955"><ele>45.66666666666667</ele><time>2026-05-02T13:03:14.302Z</time></trkpt><trkpt lat="40.9326333" lon="14.0848467"><ele>45.833333333333336</ele><time>2026-05-02T13:03:15.302Z</time></trkpt><trkpt lat="40.9326383" lon="14.0847383"><ele>46.0</ele><time>2026-05-02T13:03:16.302Z</time></trkpt><trkpt lat="40.9326433" lon="14.0846317"><ele>46.0</ele><time>2026-05-02T13:03:17.303Z</time></trkpt><trkpt lat="40.93265" lon="14.0845233"><ele>46.0</ele><time>2026-05-02T13:03:18.302Z</time></trkpt><trkpt lat="40.9326533" lon="14.084415"><ele>46.0</ele><time>2026-05-02T13:03:19.304Z</time></trkpt><trkpt lat="40.9326583" lon="14.0843067"><ele>46.0</ele><time>2026-05-02T13:03:20.305Z</time></trkpt><trkpt lat="40.9326667" lon="14.0842"><ele>46.0</ele><time>2026-05-02T13:03:21.302Z</time></trkpt><trkpt lat="40.9326733" lon="14.0840933"><ele>46.0</ele><time>2026-05-02T13:03:22.302Z</time></trkpt><trkpt lat="40.9326783" lon="14.0839833"><ele>46.0</ele><time>2026-05-02T13:03:23.302Z</time></trkpt><trkpt lat="40.932685" lon="14.083875"><ele>46.0</ele><time>2026-05-02T13:03:24.302Z</time></trkpt><trkpt lat="40.93269" lon="14.0837633"><ele>46.0</ele><time>2026-05-02T13:03:25.304Z</time></trkpt><trkpt lat="40.9326967" lon="14.083655"><ele>46.0</ele><time>2026-05-02T13:03:26.302Z</time></trkpt><trkpt lat="40.9327" lon="14.0835417"><ele>46.0</ele><time>2026-05-02T13:03:27.302Z</time></trkpt><trkpt lat="40.932705" lon="14.0834283"><ele>46.0</ele><time>2026-05-02T13:03:28.301Z</time></trkpt><trkpt lat="40.93271" lon="14.0833133"><ele>45.66666666666667</ele><time>2026-05-02T13:03:29.302Z</time></trkpt><trkpt lat="40.932715" lon="14.0831983"><ele>45.333333333333336</ele><time>2026-05-02T13:03:30.303Z</time></trkpt><trkpt lat="40.932725" lon="14.083085"><ele>45.0</ele><time>2026-05-02T13:03:31.307Z</time></trkpt><trkpt lat="40.9327283" lon="14.0829717"><ele>44.666666666666664</ele><time>2026-05-02T13:03:32.304Z</time></trkpt><trkpt lat="40.9327317" lon="14.08286"><ele>44.33333333333333</ele><time>2026-05-02T13:03:33.301Z</time></trkpt><trkpt lat="40.9327383" lon="14.0827483"><ele>44.0</ele><time>2026-05-02T13:03:34.303Z</time></trkpt><trkpt lat="40.9327467" lon="14.0826417"><ele>44.0</ele><time>2026-05-02T13:03:35.305Z</time></trkpt><trkpt lat="40.9327533" lon="14.0825283"><ele>44.0</ele><time>2026-05-02T13:03:36.307Z</time></trkpt><trkpt lat="40.93276" lon="14.08241"><ele>44.0</ele><time>2026-05-02T13:03:37.308Z</time></trkpt><trkpt lat="40.9327667" lon="14.0822933"><ele>44.0</ele><time>2026-05-02T13:03:38.305Z</time></trkpt><trkpt lat="40.9327767" lon="14.08218"><ele>44.0</ele><time>2026-05-02T13:03:39.307Z</time></trkpt><trkpt lat="40.932785" lon="14.0820667"><ele>44.0</ele><time>2026-05-02T13:03:40.306Z</time></trkpt><trkpt lat="40.932795" lon="14.0819533"><ele>43.83333333333333</ele><time>2026-05-02T13:03:41.306Z</time></trkpt><trkpt lat="40.9328033" lon="14.0818433"><ele>43.666666666666664</ele><time>2026-05-02T13:03:42.305Z</time></trkpt><trkpt lat="40.9328117" lon="14.08173"><ele>43.5</ele><time>2026-05-02T13:03:43.307Z</time></trkpt><trkpt lat="40.93282" lon="14.0816167"><ele>43.333333333333336</ele><time>2026-05-02T13:03:44.307Z</time></trkpt><trkpt lat="40.93283" lon="14.0815017"><ele>43.16666666666667</ele><time>2026-05-02T13:03:45.307Z</time></trkpt><trkpt lat="40.9328417" lon="14.08139"><ele>43.0</ele><time>2026-05-02T13:03:46.306Z</time></trkpt><trkpt lat="40.93285" lon="14.0812767"><ele>42.66666666666667</ele><time>2026-05-02T13:03:47.304Z</time></trkpt><trkpt lat="40.93286" lon="14.0811633"><ele>42.333333333333336</ele><time>2026-05-02T13:03:48.304Z</time></trkpt><trkpt lat="40.93287" lon="14.08105"><ele>42.0</ele><time>2026-05-02T13:03:49.306Z</time></trkpt><trkpt lat="40.93288" lon="14.0809383"><ele>41.666666666666664</ele><time>2026-05-02T13:03:50.305Z</time></trkpt><trkpt lat="40.9328883" lon="14.080825"><ele>41.33333333333333</ele><time>2026-05-02T13:03:51.305Z</time></trkpt><trkpt lat="40.9328983" lon="14.08071"><ele>41.0</ele><time>2026-05-02T13:03:52.303Z</time></trkpt><trkpt lat="40.9329083" lon="14.0805967"><ele>41.0</ele><time>2026-05-02T13:03:53.305Z</time></trkpt><trkpt lat="40.93292" lon="14.080485"><ele>41.0</ele><time>2026-05-02T13:03:54.305Z</time></trkpt><trkpt lat="40.9329317" lon="14.08037"><ele>41.0</ele><time>2026-05-02T13:03:55.305Z</time></trkpt><trkpt lat="40.9329433" lon="14.080255"><ele>41.0</ele><time>2026-05-02T13:03:56.305Z</time></trkpt><trkpt lat="40.9329533" lon="14.0801367"><ele>41.0</ele><time>2026-05-02T13:03:57.304Z</time></trkpt><trkpt lat="40.9329667" lon="14.0800183"><ele>41.0</ele><time>2026-05-02T13:03:58.307Z</time></trkpt><trkpt lat="40.93298" lon="14.0799017"><ele>41.0</ele><time>2026-05-02T13:03:59.307Z</time></trkpt><trkpt lat="40.9329933" lon="14.07979"><ele>41.0</ele><time>2026-05-02T13:04:00.306Z</time></trkpt><trkpt lat="40.933005" lon="14.0796767"><ele>41.0</ele><time>2026-05-02T13:04:01.307Z</time></trkpt><trkpt lat="40.9330183" lon="14.079565"><ele>41.0</ele><time>2026-05-02T13:04:02.307Z</time></trkpt><trkpt lat="40.9330317" lon="14.0794517"><ele>41.0</ele><time>2026-05-02T13:04:03.307Z</time></trkpt><trkpt lat="40.9330433" lon="14.0793367"><ele>41.0</ele><time>2026-05-02T13:04:04.307Z</time></trkpt><trkpt lat="40.933055" lon="14.079225"><ele>41.0</ele><time>2026-05-02T13:04:05.307Z</time></trkpt><trkpt lat="40.9330667" lon="14.0791067"><ele>41.0</ele><time>2026-05-02T13:04:06.307Z</time></trkpt><trkpt lat="40.93308" lon="14.0789917"><ele>41.0</ele><time>2026-05-02T13:04:07.307Z</time></trkpt><trkpt lat="40.9330933" lon="14.0788783"><ele>41.0</ele><time>2026-05-02T13:04:08.307Z</time></trkpt><trkpt lat="40.9331083" lon="14.0787667"><ele>41.0</ele><time>2026-05-02T13:04:09.305Z</time></trkpt><trkpt lat="40.9331217" lon="14.078655"><ele>41.0</ele><time>2026-05-02T13:04:10.305Z</time></trkpt><trkpt lat="40.9331317" lon="14.0785417"><ele>40.83333333333333</ele><time>2026-05-02T13:04:11.305Z</time></trkpt><trkpt lat="40.9331433" lon="14.0784333"><ele>40.666666666666664</ele><time>2026-05-02T13:04:12.305Z</time></trkpt><trkpt lat="40.9331567" lon="14.0783117"><ele>40.5</ele><time>2026-05-02T13:04:13.307Z</time></trkpt><trkpt lat="40.9331717" lon="14.0781967"><ele>40.333333333333336</ele><time>2026-05-02T13:04:14.307Z</time></trkpt><trkpt lat="40.9331817" lon="14.0780817"><ele>40.16666666666667</ele><time>2026-05-02T13:04:15.307Z</time></trkpt><trkpt lat="40.9331967" lon="14.0779633"><ele>40.0</ele><time>2026-05-02T13:04:16.307Z</time></trkpt><trkpt lat="40.9332083" lon="14.077845"><ele>40.0</ele><time>2026-05-02T13:04:17.305Z</time></trkpt><trkpt lat="40.93322" lon="14.0777267"><ele>40.0</ele><time>2026-05-02T13:04:18.305Z</time></trkpt><trkpt lat="40.9332333" lon="14.0776083"><ele>40.0</ele><time>2026-05-02T13:04:19.307Z</time></trkpt><trkpt lat="40.933245" lon="14.0774933"><ele>40.0</ele><time>2026-05-02T13:04:20.305Z</time></trkpt><trkpt lat="40.933255" lon="14.0773783"><ele>40.0</ele><time>2026-05-02T13:04:21.304Z</time></trkpt><trkpt lat="40.9332617" lon="14.0772617"><ele>40.0</ele><time>2026-05-02T13:04:22.306Z</time></trkpt><trkpt lat="40.93327" lon="14.0771433"><ele>40.0</ele><time>2026-05-02T13:04:23.304Z</time></trkpt><trkpt lat="40.9332867" lon="14.077025"><ele>40.0</ele><time>2026-05-02T13:04:24.305Z</time></trkpt><trkpt lat="40.9333" lon="14.0769117"><ele>40.0</ele><time>2026-05-02T13:04:25.306Z</time></trkpt><trkpt lat="40.933315" lon="14.0767983"><ele>40.0</ele><time>2026-05-02T13:04:26.306Z</time></trkpt><trkpt lat="40.93333" lon="14.0766883"><ele>40.0</ele><time>2026-05-02T13:04:27.305Z</time></trkpt><trkpt lat="40.9333433" lon="14.0765767"><ele>40.0</ele><time>2026-05-02T13:04:28.304Z</time></trkpt><trkpt lat="40.9333567" lon="14.07646"><ele>40.0</ele><time>2026-05-02T13:04:29.306Z</time></trkpt><trkpt lat="40.9333683" lon="14.0763433"><ele>40.0</ele><time>2026-05-02T13:04:30.305Z</time></trkpt><trkpt lat="40.9333783" lon="14.0762283"><ele>40.0</ele><time>2026-05-02T13:04:31.306Z</time></trkpt><trkpt lat="40.93339" lon="14.07611"><ele>40.0</ele><time>2026-05-02T13:04:32.304Z</time></trkpt><trkpt lat="40.9333967" lon="14.0759933"><ele>40.0</ele><time>2026-05-02T13:04:33.303Z</time></trkpt><trkpt lat="40.9334017" lon="14.075875"><ele>40.0</ele><time>2026-05-02T13:04:34.305Z</time></trkpt><trkpt lat="40.9334067" lon="14.0757567"><ele>39.4</ele><time>2026-05-02T13:04:35.305Z</time></trkpt><trkpt lat="40.9334117" lon="14.0756367"><ele>38.8</ele><time>2026-05-02T13:04:36.306Z</time></trkpt><trkpt lat="40.9334167" lon="14.075515"><ele>38.2</ele><time>2026-05-02T13:04:37.305Z</time></trkpt><trkpt lat="40.9334233" lon="14.0753933"><ele>37.6</ele><time>2026-05-02T13:04:38.306Z</time></trkpt><trkpt lat="40.9334283" lon="14.0752733"><ele>37.0</ele><time>2026-05-02T13:04:39.304Z</time></trkpt><trkpt lat="40.9334333" lon="14.0751533"><ele>37.0</ele><time>2026-05-02T13:04:40.306Z</time></trkpt><trkpt lat="40.9334367" lon="14.0750333"><ele>37.0</ele><time>2026-05-02T13:04:41.305Z</time></trkpt><trkpt lat="40.9334383" lon="14.0749133"><ele>37.0</ele><time>2026-05-02T13:04:42.305Z</time></trkpt><trkpt lat="40.9334433" lon="14.07479"><ele>37.0</ele><time>2026-05-02T13:04:43.306Z</time></trkpt><trkpt lat="40.9334483" lon="14.0746717"><ele>37.0</ele><time>2026-05-02T13:04:44.307Z</time></trkpt><trkpt lat="40.9334517" lon="14.0745517"><ele>37.0</ele><time>2026-05-02T13:04:45.307Z</time></trkpt><trkpt lat="40.9334533" lon="14.074435"><ele>37.0</ele><time>2026-05-02T13:04:46.305Z</time></trkpt><trkpt lat="40.9334567" lon="14.074315"><ele>37.0</ele><time>2026-05-02T13:04:47.305Z</time></trkpt><trkpt lat="40.93346" lon="14.074195"><ele>37.0</ele><time>2026-05-02T13:04:48.306Z</time></trkpt><trkpt lat="40.9334633" lon="14.0740717"><ele>37.0</ele><time>2026-05-02T13:04:49.304Z</time></trkpt><trkpt lat="40.933465" lon="14.0739517"><ele>36.6</ele><time>2026-05-02T13:04:50.305Z</time></trkpt><trkpt lat="40.933465" lon="14.07383"><ele>36.2</ele><time>2026-05-02T13:04:51.305Z</time></trkpt><trkpt lat="40.9334683" lon="14.0737133"><ele>35.8</ele><time>2026-05-02T13:04:52.305Z</time></trkpt><trkpt lat="40.93347" lon="14.0735983"><ele>35.4</ele><time>2026-05-02T13:04:53.305Z</time></trkpt><trkpt lat="40.93347" lon="14.073475"><ele>35.0</ele><time>2026-05-02T13:04:54.304Z</time></trkpt><trkpt lat="40.93347" lon="14.0733567"><ele>34.8</ele><time>2026-05-02T13:04:55.305Z</time></trkpt><trkpt lat="40.9334733" lon="14.0732383"><ele>34.6</ele><time>2026-05-02T13:04:56.305Z</time></trkpt><trkpt lat="40.9334733" lon="14.0731167"><ele>34.4</ele><time>2026-05-02T13:04:57.304Z</time></trkpt><trkpt lat="40.933475" lon="14.0729967"><ele>34.2</ele><time>2026-05-02T13:04:58.305Z</time></trkpt><trkpt lat="40.9334783" lon="14.0728767"><ele>34.0</ele><time>2026-05-02T13:04:59.306Z</time></trkpt><trkpt lat="40.9334833" lon="14.0727533"><ele>34.0</ele><time>2026-05-02T13:05:00.307Z</time></trkpt><trkpt lat="40.9334867" lon="14.0726333"><ele>34.0</ele><time>2026-05-02T13:05:01.307Z</time></trkpt><trkpt lat="40.93349" lon="14.0725117"><ele>34.0</ele><time>2026-05-02T13:05:02.308Z</time></trkpt><trkpt lat="40.9334933" lon="14.0723917"><ele>34.0</ele><time>2026-05-02T13:05:03.307Z</time></trkpt><trkpt lat="40.933495" lon="14.0722767"><ele>34.0</ele><time>2026-05-02T13:05:04.307Z</time></trkpt><trkpt lat="40.9334983" lon="14.0721633"><ele>34.0</ele><time>2026-05-02T13:05:05.307Z</time></trkpt><trkpt lat="40.9335" lon="14.0720533"><ele>34.16666666666667</ele><time>2026-05-02T13:05:06.307Z</time></trkpt><trkpt lat="40.9335" lon="14.07194"><ele>34.333333333333336</ele><time>2026-05-02T13:05:07.308Z</time></trkpt><trkpt lat="40.9335017" lon="14.07183"><ele>34.5</ele><time>2026-05-02T13:05:08.307Z</time></trkpt><trkpt lat="40.9334983" lon="14.0717183"><ele>34.666666666666664</ele><time>2026-05-02T13:05:09.307Z</time></trkpt><trkpt lat="40.9334983" lon="14.0716067"><ele>34.83333333333333</ele><time>2026-05-02T13:05:10.306Z</time></trkpt><trkpt lat="40.9335" lon="14.07149"><ele>35.0</ele><time>2026-05-02T13:05:11.307Z</time></trkpt><trkpt lat="40.9335017" lon="14.0713767"><ele>35.0</ele><time>2026-05-02T13:05:12.307Z</time></trkpt><trkpt lat="40.933505" lon="14.0712633"><ele>35.0</ele><time>2026-05-02T13:05:13.308Z</time></trkpt><trkpt lat="40.933505" lon="14.07115"><ele>35.0</ele><time>2026-05-02T13:05:14.306Z</time></trkpt><trkpt lat="40.9335067" lon="14.07104"><ele>35.0</ele><time>2026-05-02T13:05:15.307Z</time></trkpt><trkpt lat="40.9335067" lon="14.07093"><ele>35.0</ele><time>2026-05-02T13:05:16.304Z</time></trkpt><trkpt lat="40.9335083" lon="14.070815"><ele>35.0</ele><time>2026-05-02T13:05:17.304Z</time></trkpt><trkpt lat="40.93351" lon="14.0707"><ele>35.0</ele><time>2026-05-02T13:05:18.305Z</time></trkpt><trkpt lat="40.9335133" lon="14.0705867"><ele>35.0</ele><time>2026-05-02T13:05:19.306Z</time></trkpt><trkpt lat="40.933515" lon="14.0704717"><ele>35.0</ele><time>2026-05-02T13:05:20.304Z</time></trkpt><trkpt lat="40.9335183" lon="14.07036"><ele>35.0</ele><time>2026-05-02T13:05:21.303Z</time></trkpt><trkpt lat="40.93352" lon="14.0702483"><ele>35.0</ele><time>2026-05-02T13:05:22.304Z</time></trkpt><trkpt lat="40.93352" lon="14.07014"><ele>35.0</ele><time>2026-05-02T13:05:23.307Z</time></trkpt><trkpt lat="40.9335183" lon="14.07003"><ele>35.0</ele><time>2026-05-02T13:05:24.307Z</time></trkpt><trkpt lat="40.93352" lon="14.0699183"><ele>35.0</ele><time>2026-05-02T13:05:25.308Z</time></trkpt><trkpt lat="40.9335233" lon="14.0698033"><ele>35.0</ele><time>2026-05-02T13:05:26.307Z</time></trkpt><trkpt lat="40.9335283" lon="14.0696917"><ele>35.0</ele><time>2026-05-02T13:05:27.307Z</time></trkpt><trkpt lat="40.933535" lon="14.0695817"><ele>35.0</ele><time>2026-05-02T13:05:28.306Z</time></trkpt><trkpt lat="40.9335383" lon="14.0694667"><ele>35.0</ele><time>2026-05-02T13:05:29.307Z</time></trkpt><trkpt lat="40.9335417" lon="14.0693533"><ele>35.0</ele><time>2026-05-02T13:05:30.307Z</time></trkpt><trkpt lat="40.9335467" lon="14.0692433"><ele>35.0</ele><time>2026-05-02T13:05:31.307Z</time></trkpt><trkpt lat="40.9335483" lon="14.0691333"><ele>35.0</ele><time>2026-05-02T13:05:32.306Z</time></trkpt><trkpt lat="40.9335533" lon="14.069025"><ele>35.0</ele><time>2026-05-02T13:05:33.307Z</time></trkpt><trkpt lat="40.9335567" lon="14.0689133"><ele>35.0</ele><time>2026-05-02T13:05:34.307Z</time></trkpt><trkpt lat="40.9335633" lon="14.0688067"><ele>35.0</ele><time>2026-05-02T13:05:35.307Z</time></trkpt><trkpt lat="40.9335667" lon="14.0687033"><ele>35.0</ele><time>2026-05-02T13:05:36.306Z</time></trkpt><trkpt lat="40.93357" lon="14.0685967"><ele>35.0</ele><time>2026-05-02T13:05:37.307Z</time></trkpt><trkpt lat="40.933575" lon="14.0684917"><ele>35.0</ele><time>2026-05-02T13:05:38.307Z</time></trkpt><trkpt lat="40.9335783" lon="14.0683833"><ele>35.0</ele><time>2026-05-02T13:05:39.307Z</time></trkpt><trkpt lat="40.9335817" lon="14.0682767"><ele>35.0</ele><time>2026-05-02T13:05:40.308Z</time></trkpt><trkpt lat="40.933585" lon="14.0681733"><ele>35.0</ele><time>2026-05-02T13:05:41.307Z</time></trkpt><trkpt lat="40.93359" lon="14.0680683"><ele>35.0</ele><time>2026-05-02T13:05:42.307Z</time></trkpt><trkpt lat="40.933595" lon="14.0679617"><ele>35.0</ele><time>2026-05-02T13:05:43.307Z</time></trkpt><trkpt lat="40.9336" lon="14.0678583"><ele>35.0</ele><time>2026-05-02T13:05:44.308Z</time></trkpt><trkpt lat="40.9336017" lon="14.067755"><ele>35.0</ele><time>2026-05-02T13:05:45.307Z</time></trkpt><trkpt lat="40.9336" lon="14.0676533"><ele>35.0</ele><time>2026-05-02T13:05:46.305Z</time></trkpt><trkpt lat="40.9335967" lon="14.06755"><ele>35.0</ele><time>2026-05-02T13:05:47.306Z</time></trkpt><trkpt lat="40.933595" lon="14.0674483"><ele>35.0</ele><time>2026-05-02T13:05:48.305Z</time></trkpt><trkpt lat="40.9335917" lon="14.0673467"><ele>35.0</ele><time>2026-05-02T13:05:49.306Z</time></trkpt><trkpt lat="40.9335883" lon="14.0672433"><ele>35.0</ele><time>2026-05-02T13:05:50.306Z</time></trkpt><trkpt lat="40.933585" lon="14.0671383"><ele>35.0</ele><time>2026-05-02T13:05:51.305Z</time></trkpt><trkpt lat="40.93358" lon="14.0670317"><ele>35.0</ele><time>2026-05-02T13:05:52.305Z</time></trkpt><trkpt lat="40.933575" lon="14.066925"><ele>35.0</ele><time>2026-05-02T13:05:53.307Z</time></trkpt><trkpt lat="40.93357" lon="14.0668133"><ele>35.0</ele><time>2026-05-02T13:05:54.307Z</time></trkpt><trkpt lat="40.93357" lon="14.0667067"><ele>35.0</ele><time>2026-05-02T13:05:55.308Z</time></trkpt><trkpt lat="40.9335717" lon="14.0665917"><ele>35.0</ele><time>2026-05-02T13:05:56.307Z</time></trkpt><trkpt lat="40.933575" lon="14.0664817"><ele>35.0</ele><time>2026-05-02T13:05:57.307Z</time></trkpt><trkpt lat="40.9335767" lon="14.06637"><ele>35.0</ele><time>2026-05-02T13:05:58.307Z</time></trkpt><trkpt lat="40.93358" lon="14.0662617"><ele>35.0</ele><time>2026-05-02T13:05:59.307Z</time></trkpt><trkpt lat="40.9335817" lon="14.066155"><ele>34.83333333333333</ele><time>2026-05-02T13:06:00.306Z</time></trkpt><trkpt lat="40.933585" lon="14.06605"><ele>34.666666666666664</ele><time>2026-05-02T13:06:01.306Z</time></trkpt><trkpt lat="40.9335883" lon="14.065945"><ele>34.5</ele><time>2026-05-02T13:06:02.306Z</time></trkpt><trkpt lat="40.9335933" lon="14.06584"><ele>34.333333333333336</ele><time>2026-05-02T13:06:03.307Z</time></trkpt><trkpt lat="40.9336" lon="14.0657333"><ele>34.16666666666667</ele><time>2026-05-02T13:06:04.306Z</time></trkpt><trkpt lat="40.9336033" lon="14.0656283"><ele>34.0</ele><time>2026-05-02T13:06:05.307Z</time></trkpt><trkpt lat="40.9336083" lon="14.0655233"><ele>34.0</ele><time>2026-05-02T13:06:06.307Z</time></trkpt><trkpt lat="40.9336117" lon="14.0654167"><ele>34.0</ele><time>2026-05-02T13:06:07.307Z</time></trkpt><trkpt lat="40.9336167" lon="14.0653133"><ele>34.0</ele><time>2026-05-02T13:06:08.307Z</time></trkpt><trkpt lat="40.9336217" lon="14.0652083"><ele>34.0</ele><time>2026-05-02T13:06:09.307Z</time></trkpt><trkpt lat="40.9336233" lon="14.0651017"><ele>34.0</ele><time>2026-05-02T13:06:10.307Z</time></trkpt><trkpt lat="40.9336283" lon="14.064995"><ele>34.0</ele><time>2026-05-02T13:06:11.307Z</time></trkpt><trkpt lat="40.93363" lon="14.064885"><ele>33.833333333333336</ele><time>2026-05-02T13:06:12.306Z</time></trkpt><trkpt lat="40.9336367" lon="14.0647833"><ele>33.66666666666667</ele><time>2026-05-02T13:06:13.307Z</time></trkpt><trkpt lat="40.9336433" lon="14.0646783"><ele>33.5</ele><time>2026-05-02T13:06:14.307Z</time></trkpt><trkpt lat="40.9336467" lon="14.0645717"><ele>33.333333333333336</ele><time>2026-05-02T13:06:15.307Z</time></trkpt><trkpt lat="40.9336533" lon="14.064465"><ele>33.166666666666664</ele><time>2026-05-02T13:06:16.307Z</time></trkpt><trkpt lat="40.93366" lon="14.06436"><ele>33.0</ele><time>2026-05-02T13:06:17.307Z</time></trkpt><trkpt lat="40.9336667" lon="14.0642533"><ele>33.0</ele><time>2026-05-02T13:06:18.307Z</time></trkpt><trkpt lat="40.933675" lon="14.0641467"><ele>33.0</ele><time>2026-05-02T13:06:19.307Z</time></trkpt><trkpt lat="40.9336833" lon="14.06404"><ele>33.0</ele><time>2026-05-02T13:06:20.308Z</time></trkpt><trkpt lat="40.9336933" lon="14.0639333"><ele>33.0</ele><time>2026-05-02T13:06:21.307Z</time></trkpt><trkpt lat="40.9336967" lon="14.0638283"><ele>33.0</ele><time>2026-05-02T13:06:22.306Z</time></trkpt><trkpt lat="40.933705" lon="14.0637217"><ele>33.0</ele><time>2026-05-02T13:06:23.307Z</time></trkpt><trkpt lat="40.9337133" lon="14.063615"><ele>33.0</ele><time>2026-05-02T13:06:24.307Z</time></trkpt><trkpt lat="40.9337217" lon="14.0635083"><ele>33.0</ele><time>2026-05-02T13:06:25.308Z</time></trkpt><trkpt lat="40.93373" lon="14.0634"><ele>33.0</ele><time>2026-05-02T13:06:26.305Z</time></trkpt><trkpt lat="40.9337367" lon="14.06329"><ele>33.0</ele><time>2026-05-02T13:06:27.307Z</time></trkpt><trkpt lat="40.9337467" lon="14.0631817"><ele>33.0</ele><time>2026-05-02T13:06:28.306Z</time></trkpt><trkpt lat="40.9337567" lon="14.0630733"><ele>33.0</ele><time>2026-05-02T13:06:29.307Z</time></trkpt><trkpt lat="40.9337683" lon="14.062965"><ele>32.833333333333336</ele><time>2026-05-02T13:06:30.307Z</time></trkpt><trkpt lat="40.9337783" lon="14.0628567"><ele>32.666666666666664</ele><time>2026-05-02T13:06:31.307Z</time></trkpt><trkpt lat="40.93379" lon="14.0627467"><ele>32.5</ele><time>2026-05-02T13:06:32.307Z</time></trkpt><trkpt lat="40.9338033" lon="14.0626367"><ele>32.33333333333333</ele><time>2026-05-02T13:06:33.307Z</time></trkpt><trkpt lat="40.9338133" lon="14.0625267"><ele>32.166666666666664</ele><time>2026-05-02T13:06:34.307Z</time></trkpt><trkpt lat="40.9338233" lon="14.0624183"><ele>32.0</ele><time>2026-05-02T13:06:35.307Z</time></trkpt><trkpt lat="40.9338333" lon="14.0623083"><ele>31.833333333333332</ele><time>2026-05-02T13:06:36.307Z</time></trkpt><trkpt lat="40.933845" lon="14.0622"><ele>31.666666666666664</ele><time>2026-05-02T13:06:37.308Z</time></trkpt><trkpt lat="40.9338567" lon="14.0620933"><ele>31.5</ele><time>2026-05-02T13:06:38.307Z</time></trkpt><trkpt lat="40.933865" lon="14.0619817"><ele>31.333333333333336</ele><time>2026-05-02T13:06:39.307Z</time></trkpt><trkpt lat="40.933875" lon="14.061875"><ele>31.166666666666668</ele><time>2026-05-02T13:06:40.307Z</time></trkpt><trkpt lat="40.9338817" lon="14.0617683"><ele>31.0</ele><time>2026-05-02T13:06:41.308Z</time></trkpt><trkpt lat="40.93389" lon="14.0616633"><ele>30.833333333333336</ele><time>2026-05-02T13:06:42.307Z</time></trkpt><trkpt lat="40.9339" lon="14.0615617"><ele>30.666666666666668</ele><time>2026-05-02T13:06:43.307Z</time></trkpt><trkpt lat="40.9339117" lon="14.0614633"><ele>30.5</ele><time>2026-05-02T13:06:44.306Z</time></trkpt><trkpt lat="40.9339167" lon="14.06136"><ele>30.333333333333336</ele><time>2026-05-02T13:06:45.304Z</time></trkpt><trkpt lat="40.9339217" lon="14.0612533"><ele>30.166666666666668</ele><time>2026-05-02T13:06:46.308Z</time></trkpt><trkpt lat="40.9339317" lon="14.0611467"><ele>30.0</ele><time>2026-05-02T13:06:47.307Z</time></trkpt><trkpt lat="40.93394" lon="14.061045"><ele>30.0</ele><time>2026-05-02T13:06:48.306Z</time></trkpt><trkpt lat="40.9339517" lon="14.060945"><ele>30.0</ele><time>2026-05-02T13:06:49.307Z</time></trkpt><trkpt lat="40.9339617" lon="14.0608417"><ele>30.0</ele><time>2026-05-02T13:06:50.307Z</time></trkpt><trkpt lat="40.9339733" lon="14.0607417"><ele>30.0</ele><time>2026-05-02T13:06:51.307Z</time></trkpt><trkpt lat="40.933985" lon="14.0606417"><ele>30.0</ele><time>2026-05-02T13:06:52.307Z</time></trkpt><trkpt lat="40.9339933" lon="14.0605417"><ele>30.0</ele><time>2026-05-02T13:06:53.307Z</time></trkpt><trkpt lat="40.9339983" lon="14.0604433"><ele>30.0</ele><time>2026-05-02T13:06:54.307Z</time></trkpt><trkpt lat="40.9340067" lon="14.0603417"><ele>30.0</ele><time>2026-05-02T13:06:55.307Z</time></trkpt><trkpt lat="40.9340167" lon="14.06024"><ele>30.0</ele><time>2026-05-02T13:06:56.306Z</time></trkpt><trkpt lat="40.9340267" lon="14.0601317"><ele>30.0</ele><time>2026-05-02T13:06:57.306Z</time></trkpt><trkpt lat="40.9340333" lon="14.0600267"><ele>30.0</ele><time>2026-05-02T13:06:58.306Z</time></trkpt><trkpt lat="40.9340417" lon="14.0599217"><ele>30.0</ele><time>2026-05-02T13:06:59.308Z</time></trkpt><trkpt lat="40.9340483" lon="14.0598133"><ele>30.166666666666668</ele><time>2026-05-02T13:07:00.307Z</time></trkpt><trkpt lat="40.9340567" lon="14.059705"><ele>30.333333333333336</ele><time>2026-05-02T13:07:01.309Z</time></trkpt><trkpt lat="40.9340617" lon="14.0595967"><ele>30.5</ele><time>2026-05-02T13:07:02.308Z</time></trkpt><trkpt lat="40.9340667" lon="14.0594883"><ele>30.666666666666668</ele><time>2026-05-02T13:07:03.307Z</time></trkpt><trkpt lat="40.9340733" lon="14.0593833"><ele>30.833333333333336</ele><time>2026-05-02T13:07:04.307Z</time></trkpt><trkpt lat="40.9340767" lon="14.0592767"><ele>31.0</ele><time>2026-05-02T13:07:05.307Z</time></trkpt><trkpt lat="40.9340833" lon="14.0591667"><ele>31.166666666666668</ele><time>2026-05-02T13:07:06.307Z</time></trkpt><trkpt lat="40.9340883" lon="14.059055"><ele>31.333333333333336</ele><time>2026-05-02T13:07:07.308Z</time></trkpt><trkpt lat="40.934095" lon="14.0589433"><ele>31.5</ele><time>2026-05-02T13:07:08.307Z</time></trkpt><trkpt lat="40.9341033" lon="14.0588367"><ele>31.666666666666664</ele><time>2026-05-02T13:07:09.307Z</time></trkpt><trkpt lat="40.9341133" lon="14.0587283"><ele>31.833333333333332</ele><time>2026-05-02T13:07:10.308Z</time></trkpt><trkpt lat="40.93412" lon="14.05863"><ele>32.0</ele><time>2026-05-02T13:07:11.308Z</time></trkpt><trkpt lat="40.9341267" lon="14.0585333"><ele>31.999999999999996</ele><time>2026-05-02T13:07:12.305Z</time></trkpt><trkpt lat="40.934135" lon="14.058435"><ele>32.0</ele><time>2026-05-02T13:07:13.304Z</time></trkpt><trkpt lat="40.9341383" lon="14.0583333"><ele>32.0</ele><time>2026-05-02T13:07:14.304Z</time></trkpt><trkpt lat="40.934145" lon="14.0582283"><ele>32.0</ele><time>2026-05-02T13:07:15.307Z</time></trkpt><trkpt lat="40.9341517" lon="14.058125"><ele>31.999999999999996</ele><time>2026-05-02T13:07:16.305Z</time></trkpt><trkpt lat="40.93416" lon="14.0580183"><ele>32.0</ele><time>2026-05-02T13:07:17.309Z</time></trkpt><trkpt lat="40.9341717" lon="14.05791"><ele>31.833333333333332</ele><time>2026-05-02T13:07:18.306Z</time></trkpt><trkpt lat="40.9341817" lon="14.0578017"><ele>31.666666666666664</ele><time>2026-05-02T13:07:19.305Z</time></trkpt><trkpt lat="40.93419" lon="14.0576867"><ele>31.5</ele><time>2026-05-02T13:07:20.305Z</time></trkpt><trkpt lat="40.9341983" lon="14.05757"><ele>31.333333333333336</ele><time>2026-05-02T13:07:21.304Z</time></trkpt><trkpt lat="40.9342083" lon="14.0574467"><ele>31.166666666666668</ele><time>2026-05-02T13:07:22.305Z</time></trkpt><trkpt lat="40.9342233" lon="14.0573267"><ele>31.0</ele><time>2026-05-02T13:07:23.304Z</time></trkpt><trkpt lat="40.9342367" lon="14.057205"><ele>30.6</ele><time>2026-05-02T13:07:24.305Z</time></trkpt><trkpt lat="40.9342483" lon="14.0570833"><ele>30.200000000000003</ele><time>2026-05-02T13:07:25.306Z</time></trkpt><trkpt lat="40.9342617" lon="14.056965"><ele>29.799999999999997</ele><time>2026-05-02T13:07:26.305Z</time></trkpt><trkpt lat="40.934275" lon="14.0568417"><ele>29.4</ele><time>2026-05-02T13:07:27.303Z</time></trkpt><trkpt lat="40.9342967" lon="14.0567217"><ele>29.0</ele><time>2026-05-02T13:07:28.307Z</time></trkpt><trkpt lat="40.9343133" lon="14.0566033"><ele>29.0</ele><time>2026-05-02T13:07:29.307Z</time></trkpt><trkpt lat="40.9343317" lon="14.0564817"><ele>29.0</ele><time>2026-05-02T13:07:30.307Z</time></trkpt><trkpt lat="40.9343483" lon="14.0563633"><ele>29.0</ele><time>2026-05-02T13:07:31.307Z</time></trkpt><trkpt lat="40.9343617" lon="14.0562417"><ele>29.0</ele><time>2026-05-02T13:07:32.306Z</time></trkpt><trkpt lat="40.9343717" lon="14.0561167"><ele>29.0</ele><time>2026-05-02T13:07:33.307Z</time></trkpt><trkpt lat="40.9343767" lon="14.0559933"><ele>29.0</ele><time>2026-05-02T13:07:34.307Z</time></trkpt><trkpt lat="40.9343767" lon="14.0558683"><ele>29.0</ele><time>2026-05-02T13:07:35.307Z</time></trkpt><trkpt lat="40.9343733" lon="14.0557483"><ele>29.0</ele><time>2026-05-02T13:07:36.307Z</time></trkpt><trkpt lat="40.9343683" lon="14.0556267"><ele>29.0</ele><time>2026-05-02T13:07:37.306Z</time></trkpt><trkpt lat="40.934365" lon="14.0554983"><ele>29.0</ele><time>2026-05-02T13:07:38.306Z</time></trkpt><trkpt lat="40.93436" lon="14.05537"><ele>29.0</ele><time>2026-05-02T13:07:39.306Z</time></trkpt><trkpt lat="40.9343583" lon="14.0552433"><ele>29.0</ele><time>2026-05-02T13:07:40.306Z</time></trkpt><trkpt lat="40.934355" lon="14.0551133"><ele>29.0</ele><time>2026-05-02T13:07:41.305Z</time></trkpt><trkpt lat="40.9343533" lon="14.054985"><ele>29.0</ele><time>2026-05-02T13:07:42.305Z</time></trkpt><trkpt lat="40.934325" lon="14.0548417"><ele>29.0</ele><time>2026-05-02T13:07:43.307Z</time></trkpt><trkpt lat="40.9342883" lon="14.0547067"><ele>29.0</ele><time>2026-05-02T13:07:44.306Z</time></trkpt><trkpt lat="40.9342633" lon="14.0545783"><ele>29.0</ele><time>2026-05-02T13:07:45.304Z</time></trkpt><trkpt lat="40.9342417" lon="14.0544433"><ele>29.0</ele><time>2026-05-02T13:07:46.305Z</time></trkpt><trkpt lat="40.9342267" lon="14.054315"><ele>29.0</ele><time>2026-05-02T13:07:47.305Z</time></trkpt><trkpt lat="40.9342167" lon="14.054185"><ele>29.0</ele><time>2026-05-02T13:07:48.305Z</time></trkpt><trkpt lat="40.9342083" lon="14.0540517"><ele>28.499999999999996</ele><time>2026-05-02T13:07:49.306Z</time></trkpt><trkpt lat="40.9342" lon="14.0539217"><ele>28.0</ele><time>2026-05-02T13:07:50.304Z</time></trkpt><trkpt lat="40.9342017" lon="14.0537983"><ele>27.5</ele><time>2026-05-02T13:07:51.306Z</time></trkpt><trkpt lat="40.9342067" lon="14.05368"><ele>27.0</ele><time>2026-05-02T13:07:52.305Z</time></trkpt><trkpt lat="40.9342067" lon="14.053575"><ele>26.499999999999996</ele><time>2026-05-02T13:07:53.305Z</time></trkpt><trkpt lat="40.9342067" lon="14.053475"><ele>26.0</ele><time>2026-05-02T13:07:54.307Z</time></trkpt><trkpt lat="40.9342133" lon="14.053375"><ele>25.999999999999996</ele><time>2026-05-02T13:07:55.309Z</time></trkpt><trkpt lat="40.9342167" lon="14.0532733"><ele>26.0</ele><time>2026-05-02T13:07:56.307Z</time></trkpt><trkpt lat="40.9342217" lon="14.053175"><ele>26.0</ele><time>2026-05-02T13:07:57.304Z</time></trkpt><trkpt lat="40.9342283" lon="14.0530733"><ele>26.0</ele><time>2026-05-02T13:07:58.307Z</time></trkpt><trkpt lat="40.9342333" lon="14.0529733"><ele>25.999999999999996</ele><time>2026-05-02T13:07:59.305Z</time></trkpt><trkpt lat="40.9342367" lon="14.0528683"><ele>26.0</ele><time>2026-05-02T13:08:00.307Z</time></trkpt><trkpt lat="40.93424" lon="14.05277"><ele>26.0</ele><time>2026-05-02T13:08:01.306Z</time></trkpt><trkpt lat="40.934245" lon="14.0526683"><ele>26.0</ele><time>2026-05-02T13:08:02.307Z</time></trkpt><trkpt lat="40.934245" lon="14.0525683"><ele>26.0</ele><time>2026-05-02T13:08:03.307Z</time></trkpt><trkpt lat="40.93425" lon="14.0524783"><ele>26.0</ele><time>2026-05-02T13:08:04.307Z</time></trkpt><trkpt lat="40.9342533" lon="14.0523867"><ele>26.0</ele><time>2026-05-02T13:08:05.307Z</time></trkpt><trkpt lat="40.9342583" lon="14.0522983"><ele>26.0</ele><time>2026-05-02T13:08:06.307Z</time></trkpt><trkpt lat="40.93426" lon="14.0522067"><ele>26.0</ele><time>2026-05-02T13:08:07.307Z</time></trkpt><trkpt lat="40.934265" lon="14.0521067"><ele>25.666666666666664</ele><time>2026-05-02T13:08:08.306Z</time></trkpt><trkpt lat="40.93427" lon="14.052005"><ele>25.333333333333332</ele><time>2026-05-02T13:08:09.307Z</time></trkpt><trkpt lat="40.9342767" lon="14.0519017"><ele>25.0</ele><time>2026-05-02T13:08:10.308Z</time></trkpt><trkpt lat="40.9342833" lon="14.0518"><ele>24.666666666666664</ele><time>2026-05-02T13:08:11.306Z</time></trkpt><trkpt lat="40.9342883" lon="14.0516983"><ele>24.333333333333332</ele><time>2026-05-02T13:08:12.307Z</time></trkpt><trkpt lat="40.9342967" lon="14.051595"><ele>24.0</ele><time>2026-05-02T13:08:13.308Z</time></trkpt><trkpt lat="40.9343033" lon="14.0514967"><ele>23.5</ele><time>2026-05-02T13:08:14.307Z</time></trkpt><trkpt lat="40.9343067" lon="14.0513967"><ele>23.0</ele><time>2026-05-02T13:08:15.308Z</time></trkpt><trkpt lat="40.9343117" lon="14.0512933"><ele>22.5</ele><time>2026-05-02T13:08:16.307Z</time></trkpt><trkpt lat="40.934315" lon="14.05119"><ele>22.0</ele><time>2026-05-02T13:08:17.306Z</time></trkpt><trkpt lat="40.93432" lon="14.05108"><ele>21.5</ele><time>2026-05-02T13:08:18.306Z</time></trkpt><trkpt lat="40.9343267" lon="14.0509717"><ele>21.0</ele><time>2026-05-02T13:08:19.309Z</time></trkpt><trkpt lat="40.9343367" lon="14.0508567"><ele>21.0</ele><time>2026-05-02T13:08:20.307Z</time></trkpt><trkpt lat="40.9343467" lon="14.0507383"><ele>21.0</ele><time>2026-05-02T13:08:21.307Z</time></trkpt><trkpt lat="40.934355" lon="14.0506183"><ele>21.0</ele><time>2026-05-02T13:08:22.307Z</time></trkpt><trkpt lat="40.934365" lon="14.0505017"><ele>21.0</ele><time>2026-05-02T13:08:23.304Z</time></trkpt><trkpt lat="40.9343767" lon="14.0503767"><ele>21.0</ele><time>2026-05-02T13:08:24.307Z</time></trkpt><trkpt lat="40.934385" lon="14.0502517"><ele>21.0</ele><time>2026-05-02T13:08:25.308Z</time></trkpt><trkpt lat="40.934395" lon="14.0501267"><ele>21.0</ele><time>2026-05-02T13:08:26.307Z</time></trkpt><trkpt lat="40.9344033" lon="14.05"><ele>21.0</ele><time>2026-05-02T13:08:27.307Z</time></trkpt><trkpt lat="40.93441" lon="14.0498733"><ele>21.0</ele><time>2026-05-02T13:08:28.306Z</time></trkpt><trkpt lat="40.93442" lon="14.0497467"><ele>21.0</ele><time>2026-05-02T13:08:29.307Z</time></trkpt><trkpt lat="40.93443" lon="14.049625"><ele>21.166666666666668</ele><time>2026-05-02T13:08:30.307Z</time></trkpt><trkpt lat="40.93444" lon="14.04951"><ele>21.333333333333332</ele><time>2026-05-02T13:08:31.308Z</time></trkpt><trkpt lat="40.93445" lon="14.0493967"><ele>21.5</ele><time>2026-05-02T13:08:32.307Z</time></trkpt><trkpt lat="40.93446" lon="14.0492833"><ele>21.666666666666664</ele><time>2026-05-02T13:08:33.306Z</time></trkpt><trkpt lat="40.9344717" lon="14.0491717"><ele>21.833333333333332</ele><time>2026-05-02T13:08:34.307Z</time></trkpt><trkpt lat="40.9344833" lon="14.04906"><ele>22.0</ele><time>2026-05-02T13:08:35.307Z</time></trkpt><trkpt lat="40.9344967" lon="14.0489483"><ele>22.166666666666664</ele><time>2026-05-02T13:08:36.307Z</time></trkpt><trkpt lat="40.9345083" lon="14.0488417"><ele>22.333333333333332</ele><time>2026-05-02T13:08:37.308Z</time></trkpt><trkpt lat="40.9345183" lon="14.0487367"><ele>22.5</ele><time>2026-05-02T13:08:38.306Z</time></trkpt><trkpt lat="40.9345267" lon="14.0486333"><ele>22.666666666666668</ele><time>2026-05-02T13:08:39.306Z</time></trkpt><trkpt lat="40.934535" lon="14.0485283"><ele>22.833333333333336</ele><time>2026-05-02T13:08:40.307Z</time></trkpt><trkpt lat="40.93454" lon="14.0484233"><ele>23.0</ele><time>2026-05-02T13:08:41.308Z</time></trkpt><trkpt lat="40.9345417" lon="14.0483183"><ele>22.833333333333336</ele><time>2026-05-02T13:08:42.307Z</time></trkpt><trkpt lat="40.934545" lon="14.0482133"><ele>22.666666666666668</ele><time>2026-05-02T13:08:43.306Z</time></trkpt><trkpt lat="40.9345483" lon="14.0481083"><ele>22.5</ele><time>2026-05-02T13:08:44.307Z</time></trkpt><trkpt lat="40.93455" lon="14.04801"><ele>22.333333333333332</ele><time>2026-05-02T13:08:45.308Z</time></trkpt><trkpt lat="40.9345517" lon="14.04791"><ele>22.166666666666664</ele><time>2026-05-02T13:08:46.305Z</time></trkpt><trkpt lat="40.93455" lon="14.04781"><ele>22.0</ele><time>2026-05-02T13:08:47.306Z</time></trkpt><trkpt lat="40.9345467" lon="14.0477083"><ele>22.0</ele><time>2026-05-02T13:08:48.308Z</time></trkpt><trkpt lat="40.93454" lon="14.0476067"><ele>22.0</ele><time>2026-05-02T13:08:49.309Z</time></trkpt><trkpt lat="40.93453" lon="14.0475033"><ele>22.0</ele><time>2026-05-02T13:08:50.306Z</time></trkpt><trkpt lat="40.9345167" lon="14.0474"><ele>22.0</ele><time>2026-05-02T13:08:51.307Z</time></trkpt><trkpt lat="40.9345067" lon="14.0472967"><ele>22.0</ele><time>2026-05-02T13:08:52.306Z</time></trkpt><trkpt lat="40.9344967" lon="14.0471967"><ele>22.0</ele><time>2026-05-02T13:08:53.308Z</time></trkpt><trkpt lat="40.9344833" lon="14.0470917"><ele>21.833333333333332</ele><time>2026-05-02T13:08:54.308Z</time></trkpt><trkpt lat="40.9344717" lon="14.0469867"><ele>21.666666666666664</ele><time>2026-05-02T13:08:55.308Z</time></trkpt><trkpt lat="40.93446" lon="14.0468817"><ele>21.5</ele><time>2026-05-02T13:08:56.307Z</time></trkpt><trkpt lat="40.9344467" lon="14.0467733"><ele>21.333333333333332</ele><time>2026-05-02T13:08:57.307Z</time></trkpt><trkpt lat="40.9344333" lon="14.0466667"><ele>21.166666666666668</ele><time>2026-05-02T13:08:58.308Z</time></trkpt><trkpt lat="40.93442" lon="14.0465633"><ele>21.0</ele><time>2026-05-02T13:08:59.307Z</time></trkpt><trkpt lat="40.9344083" lon="14.0464567"><ele>20.833333333333332</ele><time>2026-05-02T13:09:00.309Z</time></trkpt><trkpt lat="40.9343917" lon="14.0463483"><ele>20.666666666666668</ele><time>2026-05-02T13:09:01.308Z</time></trkpt><trkpt lat="40.934375" lon="14.0462383"><ele>20.5</ele><time>2026-05-02T13:09:02.307Z</time></trkpt><trkpt lat="40.9343583" lon="14.046125"><ele>20.333333333333336</ele><time>2026-05-02T13:09:03.307Z</time></trkpt><trkpt lat="40.934345" lon="14.0460117"><ele>20.166666666666668</ele><time>2026-05-02T13:09:04.307Z</time></trkpt><trkpt lat="40.9343333" lon="14.0459017"><ele>20.0</ele><time>2026-05-02T13:09:05.308Z</time></trkpt><trkpt lat="40.93432" lon="14.0457917"><ele>19.666666666666668</ele><time>2026-05-02T13:09:06.308Z</time></trkpt><trkpt lat="40.934305" lon="14.0456783"><ele>19.333333333333336</ele><time>2026-05-02T13:09:07.308Z</time></trkpt><trkpt lat="40.93429" lon="14.0455667"><ele>19.0</ele><time>2026-05-02T13:09:08.307Z</time></trkpt><trkpt lat="40.9342733" lon="14.0454567"><ele>18.666666666666668</ele><time>2026-05-02T13:09:09.307Z</time></trkpt><trkpt lat="40.934255" lon="14.0453433"><ele>18.333333333333332</ele><time>2026-05-02T13:09:10.307Z</time></trkpt><trkpt lat="40.9342383" lon="14.0452367"><ele>18.0</ele><time>2026-05-02T13:09:11.307Z</time></trkpt><trkpt lat="40.9342317" lon="14.045125"><ele>18.0</ele><time>2026-05-02T13:09:12.307Z</time></trkpt><trkpt lat="40.9342283" lon="14.0450133"><ele>18.0</ele><time>2026-05-02T13:09:13.308Z</time></trkpt><trkpt lat="40.9342233" lon="14.0449067"><ele>18.0</ele><time>2026-05-02T13:09:14.306Z</time></trkpt><trkpt lat="40.93421" lon="14.0448017"><ele>18.0</ele><time>2026-05-02T13:09:15.306Z</time></trkpt><trkpt lat="40.9341883" lon="14.0447017"><ele>18.0</ele><time>2026-05-02T13:09:16.306Z</time></trkpt><trkpt lat="40.9341633" lon="14.0446017"><ele>18.0</ele><time>2026-05-02T13:09:17.306Z</time></trkpt><trkpt lat="40.9341333" lon="14.0445017"><ele>17.5</ele><time>2026-05-02T13:09:18.306Z</time></trkpt><trkpt lat="40.9341033" lon="14.0444017"><ele>17.0</ele><time>2026-05-02T13:09:19.307Z</time></trkpt><trkpt lat="40.9340783" lon="14.0443033"><ele>16.5</ele><time>2026-05-02T13:09:20.307Z</time></trkpt><trkpt lat="40.9340517" lon="14.044205"><ele>16.0</ele><time>2026-05-02T13:09:21.307Z</time></trkpt><trkpt lat="40.9340233" lon="14.044105"><ele>15.5</ele><time>2026-05-02T13:09:22.306Z</time></trkpt><trkpt lat="40.9339933" lon="14.044005"><ele>15.0</ele><time>2026-05-02T13:09:23.306Z</time></trkpt><trkpt lat="40.9339667" lon="14.0439017"><ele>14.166666666666666</ele><time>2026-05-02T13:09:24.307Z</time></trkpt><trkpt lat="40.933945" lon="14.0437967"><ele>13.333333333333334</ele><time>2026-05-02T13:09:25.307Z</time></trkpt><trkpt lat="40.9339283" lon="14.0436883"><ele>12.5</ele><time>2026-05-02T13:09:26.307Z</time></trkpt><trkpt lat="40.933915" lon="14.04358"><ele>11.666666666666668</ele><time>2026-05-02T13:09:27.306Z</time></trkpt><trkpt lat="40.9339067" lon="14.0434833"><ele>10.833333333333334</ele><time>2026-05-02T13:09:28.306Z</time></trkpt><trkpt lat="40.9338917" lon="14.0433767"><ele>10.0</ele><time>2026-05-02T13:09:30.305Z</time></trkpt><trkpt lat="40.9339167" lon="14.0434667"><ele>10.0</ele><time>2026-05-02T13:09:37.306Z</time></trkpt><trkpt lat="40.9338733" lon="14.0433717"><ele>10.0</ele><time>2026-05-02T13:09:52.304Z</time></trkpt><trkpt lat="40.933865" lon="14.0432517"><ele>10.0</ele><time>2026-05-02T13:09:54.306Z</time></trkpt><trkpt lat="40.933845" lon="14.0431033"><ele>10.0</ele><time>2026-05-02T13:09:56.307Z</time></trkpt><trkpt lat="40.93382" lon="14.0429383"><ele>10.0</ele><time>2026-05-02T13:09:58.307Z</time></trkpt><trkpt lat="40.9337967" lon="14.04279"><ele>9.0</ele><time>2026-05-02T13:10:00.307Z</time></trkpt><trkpt lat="40.933775" lon="14.0426667"><ele>8.0</ele><time>2026-05-02T13:10:02.307Z</time></trkpt><trkpt lat="40.9337517" lon="14.0425517"><ele>7.0</ele><time>2026-05-02T13:10:04.306Z</time></trkpt><trkpt lat="40.933705" lon="14.0424433"><ele>6.0</ele><time>2026-05-02T13:10:06.305Z</time></trkpt><trkpt lat="40.9336333" lon="14.0423483"><ele>5.0</ele><time>2026-05-02T13:10:08.307Z</time></trkpt><trkpt lat="40.93354" lon="14.0422783"><ele>5.0</ele><time>2026-05-02T13:10:10.303Z</time></trkpt><trkpt lat="40.9334317" lon="14.0421967"><ele>5.0</ele><time>2026-05-02T13:10:12.305Z</time></trkpt><trkpt lat="40.9333733" lon="14.0421517"><ele>5.0</ele><time>2026-05-02T13:10:13.303Z</time></trkpt><trkpt lat="40.93331" lon="14.0421083"><ele>5.0</ele><time>2026-05-02T13:10:14.307Z</time></trkpt><trkpt lat="40.9332483" lon="14.0420617"><ele>5.0</ele><time>2026-05-02T13:10:15.304Z</time></trkpt><trkpt lat="40.933185" lon="14.0420133"><ele>5.0</ele><time>2026-05-02T13:10:16.305Z</time></trkpt><trkpt lat="40.9331267" lon="14.0419567"><ele>5.0</ele><time>2026-05-02T13:10:17.304Z</time></trkpt><trkpt lat="40.9330683" lon="14.0418967"><ele>5.0</ele><time>2026-05-02T13:10:18.303Z</time></trkpt><trkpt lat="40.9330133" lon="14.0418333"><ele>5.0</ele><time>2026-05-02T13:10:19.305Z</time></trkpt><trkpt lat="40.9329567" lon="14.0417617"><ele>5.0</ele><time>2026-05-02T13:10:20.303Z</time></trkpt><trkpt lat="40.932905" lon="14.04169"><ele>5.0</ele><time>2026-05-02T13:10:21.305Z</time></trkpt><trkpt lat="40.93286" lon="14.0416133"><ele>5.0</ele><time>2026-05-02T13:10:22.303Z</time></trkpt><trkpt lat="40.93282" lon="14.0415267"><ele>4.333333333333334</ele><time>2026-05-02T13:10:23.306Z</time></trkpt><trkpt lat="40.9327817" lon="14.041435"><ele>3.666666666666667</ele><time>2026-05-02T13:10:24.307Z</time></trkpt><trkpt lat="40.9327517" lon="14.0413383"><ele>3.0</ele><time>2026-05-02T13:10:25.307Z</time></trkpt><trkpt lat="40.9327267" lon="14.0412333"><ele>2.3333333333333335</ele><time>2026-05-02T13:10:26.306Z</time></trkpt><trkpt lat="40.932705" lon="14.04113"><ele>1.6666666666666665</ele><time>2026-05-02T13:10:27.306Z</time></trkpt><trkpt lat="40.9326867" lon="14.0410317"><ele>1.0</ele><time>2026-05-02T13:10:28.307Z</time></trkpt><trkpt lat="40.9326667" lon="14.0409267"><ele>1.0</ele><time>2026-05-02T13:10:29.303Z</time></trkpt><trkpt lat="40.9326467" lon="14.0408233"><ele>0.9999999999999999</ele><time>2026-05-02T13:10:30.306Z</time></trkpt><trkpt lat="40.93263" lon="14.0407267"><ele>1.0</ele><time>2026-05-02T13:10:31.307Z</time></trkpt><trkpt lat="40.9326117" lon="14.040635"><ele>1.0</ele><time>2026-05-02T13:10:32.304Z</time></trkpt><trkpt lat="40.9325967" lon="14.04055"><ele>0.9999999999999999</ele><time>2026-05-02T13:10:33.304Z</time></trkpt><trkpt lat="40.932585" lon="14.0404583"><ele>1.0</ele><time>2026-05-02T13:10:34.305Z</time></trkpt><trkpt lat="40.9325683" lon="14.0403633"><ele>1.0</ele><time>2026-05-02T13:10:35.304Z</time></trkpt><trkpt lat="40.9325517" lon="14.0402667"><ele>1.1428571428571428</ele><time>2026-05-02T13:10:36.306Z</time></trkpt><trkpt lat="40.9325333" lon="14.0401733"><ele>1.2857142857142856</ele><time>2026-05-02T13:10:37.305Z</time></trkpt><trkpt lat="40.9325183" lon="14.0400817"><ele>1.4285714285714284</ele><time>2026-05-02T13:10:38.306Z</time></trkpt><trkpt lat="40.932505" lon="14.03999"><ele>1.5714285714285714</ele><time>2026-05-02T13:10:39.307Z</time></trkpt><trkpt lat="40.93249" lon="14.0399"><ele>1.714285714285714</ele><time>2026-05-02T13:10:40.306Z</time></trkpt><trkpt lat="40.932475" lon="14.03981"><ele>1.857142857142857</ele><time>2026-05-02T13:10:41.306Z</time></trkpt><trkpt lat="40.932465" lon="14.0397217"><ele>2.0</ele><time>2026-05-02T13:10:42.308Z</time></trkpt><trkpt lat="40.9324517" lon="14.03964"><ele>2.0</ele><time>2026-05-02T13:10:43.307Z</time></trkpt><trkpt lat="40.9324467" lon="14.03948"><ele>2.0</ele><time>2026-05-02T13:10:45.306Z</time></trkpt><trkpt lat="40.9325017" lon="14.0393367"><ele>2.0</ele><time>2026-05-02T13:10:47.304Z</time></trkpt><trkpt lat="40.9326267" lon="14.0392767"><ele>2.0</ele><time>2026-05-02T13:10:49.306Z</time></trkpt><trkpt lat="40.932705" lon="14.0392767"><ele>1.3333333333333333</ele><time>2026-05-02T13:10:50.302Z</time></trkpt><trkpt lat="40.9327883" lon="14.0392917"><ele>0.6666666666666666</ele><time>2026-05-02T13:10:51.305Z</time></trkpt><trkpt lat="40.9328683" lon="14.0393183"><ele>0.0</ele><time>2026-05-02T13:10:52.303Z</time></trkpt><trkpt lat="40.932945" lon="14.0393567"><ele>-0.6666666666666666</ele><time>2026-05-02T13:10:53.304Z</time></trkpt><trkpt lat="40.9330183" lon="14.039405"><ele>-1.3333333333333333</ele><time>2026-05-02T13:10:54.307Z</time></trkpt><trkpt lat="40.93309" lon="14.0394617"><ele>-2.0</ele><time>2026-05-02T13:10:55.306Z</time></trkpt><trkpt lat="40.9331583" lon="14.0395183"><ele>-2.0</ele><time>2026-05-02T13:10:56.304Z</time></trkpt><trkpt lat="40.933225" lon="14.03957"><ele>-1.9999999999999998</ele><time>2026-05-02T13:10:57.303Z</time></trkpt><trkpt lat="40.9332917" lon="14.0396217"><ele>-2.0</ele><time>2026-05-02T13:10:58.307Z</time></trkpt><trkpt lat="40.9333583" lon="14.039665"><ele>-2.0</ele><time>2026-05-02T13:10:59.305Z</time></trkpt><trkpt lat="40.9334233" lon="14.039705"><ele>-1.9999999999999998</ele><time>2026-05-02T13:11:00.302Z</time></trkpt><trkpt lat="40.9334867" lon="14.0397483"><ele>-2.0</ele><time>2026-05-02T13:11:01.305Z</time></trkpt><trkpt lat="40.9335483" lon="14.0397933"><ele>-2.0</ele><time>2026-05-02T13:11:02.302Z</time></trkpt><trkpt lat="40.9336067" lon="14.039835"><ele>-2.0</ele><time>2026-05-02T13:11:03.303Z</time></trkpt><trkpt lat="40.933665" lon="14.039875"><ele>-1.9999999999999998</ele><time>2026-05-02T13:11:04.304Z</time></trkpt><trkpt lat="40.9337217" lon="14.039915"><ele>-2.0</ele><time>2026-05-02T13:11:05.302Z</time></trkpt><trkpt lat="40.9337783" lon="14.0399583"><ele>-2.0</ele><time>2026-05-02T13:11:06.302Z</time></trkpt><trkpt lat="40.9338417" lon="14.0400033"><ele>-1.9999999999999998</ele><time>2026-05-02T13:11:07.304Z</time></trkpt><trkpt lat="40.933905" lon="14.04005"><ele>-2.0</ele><time>2026-05-02T13:11:08.321Z</time></trkpt><trkpt lat="40.9339633" lon="14.04009"><ele>-2.0</ele><time>2026-05-02T13:11:09.303Z</time></trkpt><trkpt lat="40.93402" lon="14.0401317"><ele>-1.9999999999999998</ele><time>2026-05-02T13:11:10.311Z</time></trkpt><trkpt lat="40.9341233" lon="14.0402183"><ele>-2.0</ele><time>2026-05-02T13:11:12.304Z</time></trkpt><trkpt lat="40.9341833" lon="14.04025"><ele>-2.0</ele><time>2026-05-02T13:11:13.302Z</time></trkpt><trkpt lat="40.9342417" lon="14.0402867"><ele>-2.0</ele><time>2026-05-02T13:11:14.303Z</time></trkpt><trkpt lat="40.9343583" lon="14.0403667"><ele>-1.9999999999999998</ele><time>2026-05-02T13:11:16.317Z</time></trkpt><trkpt lat="40.934415" lon="14.040405"><ele>-2.0</ele><time>2026-05-02T13:11:17.302Z</time></trkpt><trkpt lat="40.9344733" lon="14.0404433"><ele>-1.9999999999999998</ele><time>2026-05-02T13:11:18.305Z</time></trkpt><trkpt lat="40.9345317" lon="14.0404833"><ele>-2.0</ele><time>2026-05-02T13:11:19.303Z</time></trkpt><trkpt lat="40.9345967" lon="14.04052"><ele>-2.0</ele><time>2026-05-02T13:11:20.302Z</time></trkpt><trkpt lat="40.9346583" lon="14.0405533"><ele>-2.0</ele><time>2026-05-02T13:11:21.303Z</time></trkpt><trkpt lat="40.9347217" lon="14.0405783"><ele>-1.9999999999999998</ele><time>2026-05-02T13:11:22.303Z</time></trkpt><trkpt lat="40.934785" lon="14.040605"><ele>-2.0</ele><time>2026-05-02T13:11:23.301Z</time></trkpt><trkpt lat="40.9349083" lon="14.0406567"><ele>-1.9999999999999998</ele><time>2026-05-02T13:11:25.305Z</time></trkpt><trkpt lat="40.9349817" lon="14.0406767"><ele>-2.0</ele><time>2026-05-02T13:11:26.301Z</time></trkpt><trkpt lat="40.9350517" lon="14.040685"><ele>-2.0</ele><time>2026-05-02T13:11:27.303Z</time></trkpt><trkpt lat="40.9351233" lon="14.0406983"><ele>-2.0</ele><time>2026-05-02T13:11:28.304Z</time></trkpt><trkpt lat="40.9351983" lon="14.0407167"><ele>-1.9999999999999998</ele><time>2026-05-02T13:11:29.304Z</time></trkpt><trkpt lat="40.935275" lon="14.0407367"><ele>-2.0</ele><time>2026-05-02T13:11:30.301Z</time></trkpt><trkpt lat="40.9353567" lon="14.0407617"><ele>-1.9999999999999998</ele><time>2026-05-02T13:11:31.304Z</time></trkpt><trkpt lat="40.9354417" lon="14.04079"><ele>-2.0</ele><time>2026-05-02T13:11:32.302Z</time></trkpt><trkpt lat="40.9355267" lon="14.0408"><ele>-2.0</ele><time>2026-05-02T13:11:33.302Z</time></trkpt><trkpt lat="40.9356133" lon="14.0408233"><ele>-2.0</ele><time>2026-05-02T13:11:34.304Z</time></trkpt><trkpt lat="40.93569" lon="14.0408533"><ele>-1.9999999999999998</ele><time>2026-05-02T13:11:35.305Z</time></trkpt><trkpt lat="40.9357733" lon="14.0408717"><ele>-2.0</ele><time>2026-05-02T13:11:36.303Z</time></trkpt><trkpt lat="40.935845" lon="14.0408833"><ele>-1.9999999999999998</ele><time>2026-05-02T13:11:37.303Z</time></trkpt><trkpt lat="40.9359217" lon="14.0409033"><ele>-2.0</ele><time>2026-05-02T13:11:38.304Z</time></trkpt><trkpt lat="40.9360017" lon="14.0409183"><ele>-2.0</ele><time>2026-05-02T13:11:39.317Z</time></trkpt><trkpt lat="40.9360783" lon="14.04093"><ele>-2.0</ele><time>2026-05-02T13:11:40.302Z</time></trkpt><trkpt lat="40.9361583" lon="14.0409517"><ele>-1.9999999999999998</ele><time>2026-05-02T13:11:41.302Z</time></trkpt><trkpt lat="40.9362367" lon="14.0409717"><ele>-2.0</ele><time>2026-05-02T13:11:42.302Z</time></trkpt><trkpt lat="40.9363133" lon="14.040985"><ele>-2.0</ele><time>2026-05-02T13:11:43.313Z</time></trkpt><trkpt lat="40.9363867" lon="14.0410017"><ele>-1.9999999999999998</ele><time>2026-05-02T13:11:44.301Z</time></trkpt><trkpt lat="40.9364633" lon="14.0410217"><ele>-2.0</ele><time>2026-05-02T13:11:45.305Z</time></trkpt><trkpt lat="40.9365367" lon="14.0410417"><ele>-2.0</ele><time>2026-05-02T13:11:46.302Z</time></trkpt><trkpt lat="40.936605" lon="14.0410583"><ele>-1.9999999999999998</ele><time>2026-05-02T13:11:47.302Z</time></trkpt><trkpt lat="40.93667" lon="14.0410717"><ele>-2.0</ele><time>2026-05-02T13:11:48.302Z</time></trkpt><trkpt lat="40.9367383" lon="14.041085"><ele>-2.0</ele><time>2026-05-02T13:11:49.303Z</time></trkpt><trkpt lat="40.9368033" lon="14.0410967"><ele>-2.0</ele><time>2026-05-02T13:11:50.301Z</time></trkpt><trkpt lat="40.9369217" lon="14.0411233"><ele>-2.0</ele><time>2026-05-02T13:11:52.303Z</time></trkpt><trkpt lat="40.9369833" lon="14.0411417"><ele>-2.0</ele><time>2026-05-02T13:11:53.302Z</time></trkpt><trkpt lat="40.937055" lon="14.0411683"><ele>-2.0</ele><time>2026-05-02T13:11:54.304Z</time></trkpt><trkpt lat="40.93718" lon="14.0412167"><ele>-2.0</ele><time>2026-05-02T13:11:56.301Z</time></trkpt><trkpt lat="40.9373" lon="14.0412517"><ele>-2.0</ele><time>2026-05-02T13:11:58.302Z</time></trkpt><trkpt lat="40.9373667" lon="14.0412733"><ele>-1.9999999999999998</ele><time>2026-05-02T13:11:59.301Z</time></trkpt><trkpt lat="40.9374333" lon="14.0412883"><ele>-2.0</ele><time>2026-05-02T13:12:00.307Z</time></trkpt><trkpt lat="40.9375" lon="14.0413067"><ele>-2.0</ele><time>2026-05-02T13:12:01.313Z</time></trkpt><trkpt lat="40.937575" lon="14.04132"><ele>-1.9999999999999998</ele><time>2026-05-02T13:12:02.302Z</time></trkpt><trkpt lat="40.9376533" lon="14.0413333"><ele>-2.0</ele><time>2026-05-02T13:12:03.302Z</time></trkpt><trkpt lat="40.937725" lon="14.0413533"><ele>-2.0</ele><time>2026-05-02T13:12:04.308Z</time></trkpt><trkpt lat="40.9378" lon="14.04137"><ele>-1.9999999999999998</ele><time>2026-05-02T13:12:05.301Z</time></trkpt><trkpt lat="40.9378783" lon="14.0413933"><ele>-2.0</ele><time>2026-05-02T13:12:06.303Z</time></trkpt><trkpt lat="40.93796" lon="14.041405"><ele>-2.0</ele><time>2026-05-02T13:12:07.303Z</time></trkpt><trkpt lat="40.938035" lon="14.0414167"><ele>-2.0</ele><time>2026-05-02T13:12:08.302Z</time></trkpt><trkpt lat="40.938115" lon="14.0414233"><ele>-1.9999999999999998</ele><time>2026-05-02T13:12:09.304Z</time></trkpt><trkpt lat="40.9381967" lon="14.041425"><ele>-2.0</ele><time>2026-05-02T13:12:10.303Z</time></trkpt><trkpt lat="40.9382817" lon="14.0414283"><ele>-1.9999999999999998</ele><time>2026-05-02T13:12:11.302Z</time></trkpt><trkpt lat="40.9383667" lon="14.0414283"><ele>-2.0</ele><time>2026-05-02T13:12:12.303Z</time></trkpt><trkpt lat="40.9384567" lon="14.04143"><ele>-2.0</ele><time>2026-05-02T13:12:13.304Z</time></trkpt><trkpt lat="40.9385517" lon="14.0414283"><ele>-2.0</ele><time>2026-05-02T13:12:14.302Z</time></trkpt><trkpt lat="40.93864" lon="14.0414267"><ele>-1.9999999999999998</ele><time>2026-05-02T13:12:15.302Z</time></trkpt><trkpt lat="40.9387267" lon="14.0414283"><ele>-2.0</ele><time>2026-05-02T13:12:16.302Z</time></trkpt><trkpt lat="40.9388083" lon="14.0414283"><ele>-1.9999999999999998</ele><time>2026-05-02T13:12:17.302Z</time></trkpt><trkpt lat="40.93889" lon="14.041425"><ele>-2.0</ele><time>2026-05-02T13:12:18.303Z</time></trkpt><trkpt lat="40.9389683" lon="14.04142"><ele>-2.0</ele><time>2026-05-02T13:12:19.306Z</time></trkpt><trkpt lat="40.9390417" lon="14.0414117"><ele>-2.0</ele><time>2026-05-02T13:12:20.302Z</time></trkpt><trkpt lat="40.939115" lon="14.041405"><ele>-1.9999999999999998</ele><time>2026-05-02T13:12:21.304Z</time></trkpt><trkpt lat="40.939185" lon="14.0414017"><ele>-2.0</ele><time>2026-05-02T13:12:22.306Z</time></trkpt><trkpt lat="40.9392583" lon="14.0413967"><ele>-1.857142857142857</ele><time>2026-05-02T13:12:23.302Z</time></trkpt><trkpt lat="40.9393283" lon="14.0413883"><ele>-1.714285714285714</ele><time>2026-05-02T13:12:24.307Z</time></trkpt><trkpt lat="40.9393967" lon="14.04138"><ele>-1.5714285714285714</ele><time>2026-05-02T13:12:25.309Z</time></trkpt><trkpt lat="40.9394633" lon="14.0413733"><ele>-1.4285714285714284</ele><time>2026-05-02T13:12:26.302Z</time></trkpt><trkpt lat="40.9395317" lon="14.0413583"><ele>-1.2857142857142856</ele><time>2026-05-02T13:12:27.303Z</time></trkpt><trkpt lat="40.9396" lon="14.04134"><ele>-1.1428571428571428</ele><time>2026-05-02T13:12:28.321Z</time></trkpt><trkpt lat="40.9396667" lon="14.0413167"><ele>-1.0</ele><time>2026-05-02T13:12:29.301Z</time></trkpt><trkpt lat="40.93973" lon="14.0412933"><ele>-1.0</ele><time>2026-05-02T13:12:30.303Z</time></trkpt><trkpt lat="40.9398433" lon="14.0412583"><ele>-1.0</ele><time>2026-05-02T13:12:32.303Z</time></trkpt><trkpt lat="40.9399617" lon="14.0412383"><ele>-1.0</ele><time>2026-05-02T13:12:34.306Z</time></trkpt><trkpt lat="40.9400667" lon="14.04122"><ele>-1.0</ele><time>2026-05-02T13:12:36.302Z</time></trkpt><trkpt lat="40.940155" lon="14.0411967"><ele>-1.0</ele><time>2026-05-02T13:12:38.302Z</time></trkpt><trkpt lat="40.9402467" lon="14.0411633"><ele>-0.8333333333333333</ele><time>2026-05-02T13:12:40.302Z</time></trkpt><trkpt lat="40.94036" lon="14.041135"><ele>-0.6666666666666666</ele><time>2026-05-02T13:12:42.302Z</time></trkpt><trkpt lat="40.9404217" lon="14.041115"><ele>-0.5</ele><time>2026-05-02T13:12:43.303Z</time></trkpt><trkpt lat="40.940485" lon="14.04109"><ele>-0.3333333333333333</ele><time>2026-05-02T13:12:44.301Z</time></trkpt><trkpt lat="40.94055" lon="14.0410733"><ele>-0.16666666666666666</ele><time>2026-05-02T13:12:45.303Z</time></trkpt><trkpt lat="40.9406683" lon="14.0410317"><ele>0.0</ele><time>2026-05-02T13:12:47.302Z</time></trkpt><trkpt lat="40.9407817" lon="14.0409983"><ele>0.0</ele><time>2026-05-02T13:12:49.303Z</time></trkpt><trkpt lat="40.9408983" lon="14.040965"><ele>0.0</ele><time>2026-05-02T13:12:51.304Z</time></trkpt><trkpt lat="40.941005" lon="14.0409333"><ele>0.0</ele><time>2026-05-02T13:12:53.302Z</time></trkpt><trkpt lat="40.94111" lon="14.0409"><ele>0.0</ele><time>2026-05-02T13:12:55.304Z</time></trkpt><trkpt lat="40.941205" lon="14.0408667"><ele>0.0</ele><time>2026-05-02T13:12:57.303Z</time></trkpt><trkpt lat="40.9413033" lon="14.0408417"><ele>0.0</ele><time>2026-05-02T13:12:59.302Z</time></trkpt><trkpt lat="40.9413967" lon="14.0408117"><ele>0.0</ele><time>2026-05-02T13:13:01.303Z</time></trkpt><trkpt lat="40.9414783" lon="14.040785"><ele>0.0</ele><time>2026-05-02T13:13:03.303Z</time></trkpt><trkpt lat="40.9415633" lon="14.0407583"><ele>0.0</ele><time>2026-05-02T13:13:05.302Z</time></trkpt><trkpt lat="40.941655" lon="14.0407317"><ele>0.0</ele><time>2026-05-02T13:13:07.303Z</time></trkpt><trkpt lat="40.9417517" lon="14.040705"><ele>-0.5</ele><time>2026-05-02T13:13:09.303Z</time></trkpt><trkpt lat="40.9418533" lon="14.0406683"><ele>-1.0</ele><time>2026-05-02T13:13:11.302Z</time></trkpt><trkpt lat="40.94196" lon="14.0406333"><ele>-1.5</ele><time>2026-05-02T13:13:13.304Z</time></trkpt><trkpt lat="40.9420783" lon="14.0405933"><ele>-2.0</ele><time>2026-05-02T13:13:15.303Z</time></trkpt><trkpt lat="40.942195" lon="14.040555"><ele>-2.0</ele><time>2026-05-02T13:13:17.303Z</time></trkpt><trkpt lat="40.9423117" lon="14.0405133"><ele>-2.0</ele><time>2026-05-02T13:13:19.306Z</time></trkpt><trkpt lat="40.9424267" lon="14.0404867"><ele>-2.0</ele><time>2026-05-02T13:13:21.305Z</time></trkpt><trkpt lat="40.9425433" lon="14.0404583"><ele>-2.0</ele><time>2026-05-02T13:13:23.307Z</time></trkpt><trkpt lat="40.94266" lon="14.04041"><ele>-1.6666666666666665</ele><time>2026-05-02T13:13:25.307Z</time></trkpt><trkpt lat="40.9427783" lon="14.0403633"><ele>-1.3333333333333333</ele><time>2026-05-02T13:13:27.304Z</time></trkpt><trkpt lat="40.9428417" lon="14.0403367"><ele>-1.0</ele><time>2026-05-02T13:13:28.305Z</time></trkpt><trkpt lat="40.942905" lon="14.0403067"><ele>-0.6666666666666666</ele><time>2026-05-02T13:13:29.306Z</time></trkpt><trkpt lat="40.942965" lon="14.0402733"><ele>-0.3333333333333333</ele><time>2026-05-02T13:13:30.305Z</time></trkpt><trkpt lat="40.9430283" lon="14.0402383"><ele>0.0</ele><time>2026-05-02T13:13:31.305Z</time></trkpt><trkpt lat="40.9430933" lon="14.0402017"><ele>0.0</ele><time>2026-05-02T13:13:32.304Z</time></trkpt><trkpt lat="40.9431583" lon="14.04016"><ele>0.0</ele><time>2026-05-02T13:13:33.304Z</time></trkpt><trkpt lat="40.9432217" lon="14.0401167"><ele>0.0</ele><time>2026-05-02T13:13:34.306Z</time></trkpt><trkpt lat="40.943285" lon="14.040065"><ele>0.0</ele><time>2026-05-02T13:13:35.307Z</time></trkpt><trkpt lat="40.94335" lon="14.04001"><ele>0.0</ele><time>2026-05-02T13:13:36.307Z</time></trkpt><trkpt lat="40.9434133" lon="14.0399567"><ele>0.0</ele><time>2026-05-02T13:13:37.307Z</time></trkpt><trkpt lat="40.943475" lon="14.0399067"><ele>0.0</ele><time>2026-05-02T13:13:38.306Z</time></trkpt><trkpt lat="40.9435367" lon="14.0398533"><ele>0.2857142857142857</ele><time>2026-05-02T13:13:39.307Z</time></trkpt><trkpt lat="40.943595" lon="14.0397983"><ele>0.5714285714285714</ele><time>2026-05-02T13:13:40.307Z</time></trkpt><trkpt lat="40.9436517" lon="14.0397417"><ele>0.8571428571428571</ele><time>2026-05-02T13:13:41.307Z</time></trkpt><trkpt lat="40.9437067" lon="14.0396833"><ele>1.1428571428571428</ele><time>2026-05-02T13:13:42.307Z</time></trkpt><trkpt lat="40.9437583" lon="14.0396267"><ele>1.4285714285714284</ele><time>2026-05-02T13:13:43.307Z</time></trkpt><trkpt lat="40.94381" lon="14.039565"><ele>1.7142857142857142</ele><time>2026-05-02T13:13:44.307Z</time></trkpt><trkpt lat="40.9438567" lon="14.0395033"><ele>2.0</ele><time>2026-05-02T13:13:45.307Z</time></trkpt><trkpt lat="40.9439" lon="14.0394417"><ele>2.0</ele><time>2026-05-02T13:13:46.306Z</time></trkpt><trkpt lat="40.9439867" lon="14.039325"><ele>2.0</ele><time>2026-05-02T13:13:48.306Z</time></trkpt><trkpt lat="40.9440633" lon="14.0392133"><ele>2.0</ele><time>2026-05-02T13:13:50.307Z</time></trkpt><trkpt lat="40.94414" lon="14.0391067"><ele>2.0</ele><time>2026-05-02T13:13:52.306Z</time></trkpt><trkpt lat="40.9442117" lon="14.038995"><ele>1.75</ele><time>2026-05-02T13:13:54.306Z</time></trkpt><trkpt lat="40.9442867" lon="14.0388817"><ele>1.5</ele><time>2026-05-02T13:13:56.306Z</time></trkpt><trkpt lat="40.944365" lon="14.0387667"><ele>1.25</ele><time>2026-05-02T13:13:58.307Z</time></trkpt><trkpt lat="40.94444" lon="14.038655"><ele>1.0</ele><time>2026-05-02T13:14:00.306Z</time></trkpt><trkpt lat="40.9445167" lon="14.0385417"><ele>1.0</ele><time>2026-05-02T13:14:02.305Z</time></trkpt><trkpt lat="40.9445867" lon="14.0384333"><ele>1.0</ele><time>2026-05-02T13:14:04.305Z</time></trkpt><trkpt lat="40.944655" lon="14.0383283"><ele>1.0</ele><time>2026-05-02T13:14:06.305Z</time></trkpt><trkpt lat="40.944725" lon="14.0382267"><ele>1.0</ele><time>2026-05-02T13:14:08.304Z</time></trkpt><trkpt lat="40.9447983" lon="14.0381017"><ele>1.0</ele><time>2026-05-02T13:14:10.306Z</time></trkpt><trkpt lat="40.9448633" lon="14.0379667"><ele>0.8</ele><time>2026-05-02T13:14:12.307Z</time></trkpt><trkpt lat="40.9449133" lon="14.03782"><ele>0.6000000000000001</ele><time>2026-05-02T13:14:14.307Z</time></trkpt><trkpt lat="40.9449667" lon="14.0376667"><ele>0.4</ele><time>2026-05-02T13:14:16.307Z</time></trkpt><trkpt lat="40.945025" lon="14.0375183"><ele>0.2</ele><time>2026-05-02T13:14:18.307Z</time></trkpt><trkpt lat="40.9450583" lon="14.0374467"><ele>0.0</ele><time>2026-05-02T13:14:19.307Z</time></trkpt><trkpt lat="40.9451233" lon="14.0373067"><ele>-0.14285714285714285</ele><time>2026-05-02T13:14:21.305Z</time></trkpt><trkpt lat="40.9451567" lon="14.037235"><ele>-0.2857142857142857</ele><time>2026-05-02T13:14:22.307Z</time></trkpt><trkpt lat="40.94519" lon="14.03716"><ele>-0.42857142857142855</ele><time>2026-05-02T13:14:23.307Z</time></trkpt><trkpt lat="40.9452217" lon="14.03708"><ele>-0.5714285714285714</ele><time>2026-05-02T13:14:24.306Z</time></trkpt><trkpt lat="40.94525" lon="14.037"><ele>-0.7142857142857142</ele><time>2026-05-02T13:14:25.307Z</time></trkpt><trkpt lat="40.9452783" lon="14.03692"><ele>-0.8571428571428571</ele><time>2026-05-02T13:14:26.307Z</time></trkpt><trkpt lat="40.9453033" lon="14.0368417"><ele>-1.0</ele><time>2026-05-02T13:14:27.307Z</time></trkpt><trkpt lat="40.9453467" lon="14.0366917"><ele>-1.0</ele><time>2026-05-02T13:14:29.306Z</time></trkpt><trkpt lat="40.9453867" lon="14.03654"><ele>-1.0</ele><time>2026-05-02T13:14:31.304Z</time></trkpt><trkpt lat="40.9454183" lon="14.036385"><ele>-1.0</ele><time>2026-05-02T13:14:33.305Z</time></trkpt><trkpt lat="40.9454483" lon="14.03623"><ele>-1.0</ele><time>2026-05-02T13:14:35.305Z</time></trkpt><trkpt lat="40.9454717" lon="14.036075"><ele>-0.9999999999999999</ele><time>2026-05-02T13:14:37.306Z</time></trkpt><trkpt lat="40.9454983" lon="14.035915"><ele>-1.0</ele><time>2026-05-02T13:14:39.303Z</time></trkpt><trkpt lat="40.9455083" lon="14.0358317"><ele>-1.0</ele><time>2026-05-02T13:14:40.304Z</time></trkpt><trkpt lat="40.9455217" lon="14.035665"><ele>-1.0</ele><time>2026-05-02T13:14:42.305Z</time></trkpt><trkpt lat="40.945525" lon="14.0355767"><ele>-0.9999999999999999</ele><time>2026-05-02T13:14:43.307Z</time></trkpt><trkpt lat="40.945525" lon="14.0354917"><ele>-1.0</ele><time>2026-05-02T13:14:44.305Z</time></trkpt><trkpt lat="40.9455217" lon="14.035405"><ele>-1.4</ele><time>2026-05-02T13:14:45.307Z</time></trkpt><trkpt lat="40.945515" lon="14.0353217"><ele>-1.8</ele><time>2026-05-02T13:14:46.305Z</time></trkpt><trkpt lat="40.9455" lon="14.0352383"><ele>-2.1999999999999997</ele><time>2026-05-02T13:14:47.305Z</time></trkpt><trkpt lat="40.945455" lon="14.0350883"><ele>-2.6</ele><time>2026-05-02T13:14:49.31Z</time></trkpt><trkpt lat="40.9453917" lon="14.0349583"><ele>-3.0</ele><time>2026-05-02T13:14:51.305Z</time></trkpt><trkpt lat="40.945325" lon="14.0348367"><ele>-3.0</ele><time>2026-05-02T13:14:53.305Z</time></trkpt><trkpt lat="40.94525" lon="14.0347217"><ele>-3.0</ele><time>2026-05-02T13:14:55.306Z</time></trkpt><trkpt lat="40.9451667" lon="14.0345983"><ele>-3.0</ele><time>2026-05-02T13:14:57.307Z</time></trkpt><trkpt lat="40.9450833" lon="14.0344867"><ele>-3.0</ele><time>2026-05-02T13:14:59.308Z</time></trkpt><trkpt lat="40.9450017" lon="14.0343733"><ele>-2.8</ele><time>2026-05-02T13:15:01.308Z</time></trkpt><trkpt lat="40.9449267" lon="14.0342667"><ele>-2.5999999999999996</ele><time>2026-05-02T13:15:03.307Z</time></trkpt><trkpt lat="40.944855" lon="14.0341633"><ele>-2.4000000000000004</ele><time>2026-05-02T13:15:05.307Z</time></trkpt><trkpt lat="40.9447733" lon="14.03405"><ele>-2.2</ele><time>2026-05-02T13:15:07.307Z</time></trkpt><trkpt lat="40.9447" lon="14.033935"><ele>-2.0</ele><time>2026-05-02T13:15:09.307Z</time></trkpt><trkpt lat="40.9446317" lon="14.033825"><ele>-2.0</ele><time>2026-05-02T13:15:11.307Z</time></trkpt><trkpt lat="40.9445617" lon="14.0337233"><ele>-2.0</ele><time>2026-05-02T13:15:13.306Z</time></trkpt><trkpt lat="40.94448" lon="14.033615"><ele>-2.0</ele><time>2026-05-02T13:15:15.307Z</time></trkpt><trkpt lat="40.9443983" lon="14.0335033"><ele>-2.0</ele><time>2026-05-02T13:15:17.305Z</time></trkpt><trkpt lat="40.9443333" lon="14.03338"><ele>-2.1666666666666665</ele><time>2026-05-02T13:15:19.304Z</time></trkpt><trkpt lat="40.9442717" lon="14.0332483"><ele>-2.333333333333333</ele><time>2026-05-02T13:15:21.305Z</time></trkpt><trkpt lat="40.944205" lon="14.03311"><ele>-2.5</ele><time>2026-05-02T13:15:23.305Z</time></trkpt><trkpt lat="40.9441733" lon="14.033035"><ele>-2.6666666666666665</ele><time>2026-05-02T13:15:24.304Z</time></trkpt><trkpt lat="40.9441433" lon="14.0329583"><ele>-2.8333333333333335</ele><time>2026-05-02T13:15:25.306Z</time></trkpt><trkpt lat="40.9441133" lon="14.0328833"><ele>-3.0</ele><time>2026-05-02T13:15:26.305Z</time></trkpt><trkpt lat="40.9440833" lon="14.0328083"><ele>-2.6</ele><time>2026-05-02T13:15:27.303Z</time></trkpt><trkpt lat="40.9440517" lon="14.032735"><ele>-2.1999999999999997</ele><time>2026-05-02T13:15:28.307Z</time></trkpt><trkpt lat="40.943995" lon="14.032585"><ele>-1.8</ele><time>2026-05-02T13:15:30.305Z</time></trkpt><trkpt lat="40.9439667" lon="14.03251"><ele>-1.4</ele><time>2026-05-02T13:15:31.307Z</time></trkpt><trkpt lat="40.9439117" lon="14.0323683"><ele>-1.0</ele><time>2026-05-02T13:15:33.307Z</time></trkpt><trkpt lat="40.9438583" lon="14.0322233"><ele>-1.0</ele><time>2026-05-02T13:15:35.307Z</time></trkpt><trkpt lat="40.9438033" lon="14.032075"><ele>-1.0</ele><time>2026-05-02T13:15:37.308Z</time></trkpt><trkpt lat="40.943775" lon="14.032"><ele>-1.0</ele><time>2026-05-02T13:15:38.305Z</time></trkpt><trkpt lat="40.9437483" lon="14.0319233"><ele>-1.0</ele><time>2026-05-02T13:15:39.307Z</time></trkpt><trkpt lat="40.9436983" lon="14.0317817"><ele>-1.0</ele><time>2026-05-02T13:15:41.306Z</time></trkpt><trkpt lat="40.9436517" lon="14.031635"><ele>-1.1666666666666665</ele><time>2026-05-02T13:15:43.307Z</time></trkpt><trkpt lat="40.9436283" lon="14.0315567"><ele>-1.3333333333333333</ele><time>2026-05-02T13:15:44.308Z</time></trkpt><trkpt lat="40.9436067" lon="14.0314767"><ele>-1.5</ele><time>2026-05-02T13:15:45.307Z</time></trkpt><trkpt lat="40.9435933" lon="14.031395"><ele>-1.6666666666666665</ele><time>2026-05-02T13:15:46.307Z</time></trkpt><trkpt lat="40.94358" lon="14.031235"><ele>-1.8333333333333333</ele><time>2026-05-02T13:15:48.303Z</time></trkpt><trkpt lat="40.943585" lon="14.0310733"><ele>-2.0</ele><time>2026-05-02T13:15:50.305Z</time></trkpt><trkpt lat="40.9435967" lon="14.030915"><ele>-1.75</ele><time>2026-05-02T13:15:52.304Z</time></trkpt><trkpt lat="40.943605" lon="14.0307517"><ele>-1.5</ele><time>2026-05-02T13:15:54.305Z</time></trkpt><trkpt lat="40.943615" lon="14.030585"><ele>-1.25</ele><time>2026-05-02T13:15:56.304Z</time></trkpt><trkpt lat="40.9436183" lon="14.0304183"><ele>-1.0</ele><time>2026-05-02T13:15:58.307Z</time></trkpt><trkpt lat="40.9436133" lon="14.0302533"><ele>-0.9999999999999999</ele><time>2026-05-02T13:16:00.307Z</time></trkpt><trkpt lat="40.9436033" lon="14.03017"><ele>-1.0</ele><time>2026-05-02T13:16:01.307Z</time></trkpt><trkpt lat="40.9435717" lon="14.030005"><ele>-1.0</ele><time>2026-05-02T13:16:03.308Z</time></trkpt><trkpt lat="40.94355" lon="14.02992"><ele>-1.0</ele><time>2026-05-02T13:16:04.306Z</time></trkpt><trkpt lat="40.9435233" lon="14.0298367"><ele>-0.9999999999999999</ele><time>2026-05-02T13:16:05.307Z</time></trkpt><trkpt lat="40.9434983" lon="14.0297533"><ele>-1.0</ele><time>2026-05-02T13:16:06.307Z</time></trkpt><trkpt lat="40.943475" lon="14.0296717"><ele>-0.9999999999999999</ele><time>2026-05-02T13:16:07.307Z</time></trkpt><trkpt lat="40.9434517" lon="14.0295917"><ele>-1.0</ele><time>2026-05-02T13:16:08.308Z</time></trkpt><trkpt lat="40.94343" lon="14.02951"><ele>-1.0</ele><time>2026-05-02T13:16:09.306Z</time></trkpt><trkpt lat="40.9434083" lon="14.0294283"><ele>-1.0</ele><time>2026-05-02T13:16:10.306Z</time></trkpt><trkpt lat="40.94339" lon="14.0293483"><ele>-0.9999999999999999</ele><time>2026-05-02T13:16:11.306Z</time></trkpt><trkpt lat="40.94335" lon="14.0291883"><ele>-1.0</ele><time>2026-05-02T13:16:13.307Z</time></trkpt><trkpt lat="40.9433283" lon="14.0291067"><ele>-0.9999999999999999</ele><time>2026-05-02T13:16:14.307Z</time></trkpt><trkpt lat="40.9433067" lon="14.0290283"><ele>-1.0</ele><time>2026-05-02T13:16:15.307Z</time></trkpt><trkpt lat="40.943285" lon="14.02895"><ele>-1.0</ele><time>2026-05-02T13:16:16.307Z</time></trkpt><trkpt lat="40.9432617" lon="14.0288717"><ele>-1.0</ele><time>2026-05-02T13:16:17.303Z</time></trkpt><trkpt lat="40.94322" lon="14.0287167"><ele>-0.9999999999999999</ele><time>2026-05-02T13:16:19.304Z</time></trkpt><trkpt lat="40.9431767" lon="14.0285667"><ele>-1.0</ele><time>2026-05-02T13:16:21.304Z</time></trkpt><trkpt lat="40.9431367" lon="14.0284133"><ele>-1.25</ele><time>2026-05-02T13:16:23.305Z</time></trkpt><trkpt lat="40.9430933" lon="14.0282633"><ele>-1.5</ele><time>2026-05-02T13:16:25.304Z</time></trkpt><trkpt lat="40.94305" lon="14.0281167"><ele>-1.75</ele><time>2026-05-02T13:16:27.305Z</time></trkpt><trkpt lat="40.9430133" lon="14.0279683"><ele>-2.0</ele><time>2026-05-02T13:16:29.307Z</time></trkpt><trkpt lat="40.9429733" lon="14.02782"><ele>-2.0</ele><time>2026-05-02T13:16:31.307Z</time></trkpt><trkpt lat="40.94293" lon="14.0276767"><ele>-2.0</ele><time>2026-05-02T13:16:33.306Z</time></trkpt><trkpt lat="40.9428867" lon="14.02753"><ele>-2.0</ele><time>2026-05-02T13:16:35.306Z</time></trkpt><trkpt lat="40.9428433" lon="14.0273833"><ele>-2.0</ele><time>2026-05-02T13:16:37.307Z</time></trkpt><trkpt lat="40.9427983" lon="14.0272317"><ele>-1.9999999999999998</ele><time>2026-05-02T13:16:39.307Z</time></trkpt><trkpt lat="40.9427483" lon="14.0270783"><ele>-2.0</ele><time>2026-05-02T13:16:41.307Z</time></trkpt><trkpt lat="40.9427183" lon="14.027"><ele>-2.0</ele><time>2026-05-02T13:16:42.306Z</time></trkpt><trkpt lat="40.9426867" lon="14.0269233"><ele>-2.0</ele><time>2026-05-02T13:16:43.307Z</time></trkpt><trkpt lat="40.9426567" lon="14.0268467"><ele>-1.9999999999999998</ele><time>2026-05-02T13:16:44.306Z</time></trkpt><trkpt lat="40.9426217" lon="14.0267733"><ele>-2.0</ele><time>2026-05-02T13:16:45.306Z</time></trkpt><trkpt lat="40.9425467" lon="14.0266417"><ele>-2.0</ele><time>2026-05-02T13:16:47.306Z</time></trkpt><trkpt lat="40.9424583" lon="14.026525"><ele>-2.0</ele><time>2026-05-02T13:16:49.304Z</time></trkpt><trkpt lat="40.9423583" lon="14.0264317"><ele>-2.0</ele><time>2026-05-02T13:16:51.305Z</time></trkpt><trkpt lat="40.9422583" lon="14.0263467"><ele>-2.0</ele><time>2026-05-02T13:16:53.305Z</time></trkpt><trkpt lat="40.9421533" lon="14.0262667"><ele>-2.0</ele><time>2026-05-02T13:16:55.305Z</time></trkpt><trkpt lat="40.94204" lon="14.026195"><ele>-2.0</ele><time>2026-05-02T13:16:57.302Z</time></trkpt><trkpt lat="40.9419833" lon="14.0261567"><ele>-2.0</ele><time>2026-05-02T13:16:58.303Z</time></trkpt><trkpt lat="40.9418717" lon="14.0260817"><ele>-2.0</ele><time>2026-05-02T13:17:00.304Z</time></trkpt><trkpt lat="40.941815" lon="14.026045"><ele>-2.0</ele><time>2026-05-02T13:17:01.305Z</time></trkpt><trkpt lat="40.9417067" lon="14.0259683"><ele>-2.0</ele><time>2026-05-02T13:17:03.305Z</time></trkpt><trkpt lat="40.9416033" lon="14.0258917"><ele>-2.0</ele><time>2026-05-02T13:17:05.305Z</time></trkpt><trkpt lat="40.9414967" lon="14.0258183"><ele>-2.0</ele><time>2026-05-02T13:17:07.304Z</time></trkpt><trkpt lat="40.9413883" lon="14.0257367"><ele>-2.0</ele><time>2026-05-02T13:17:09.303Z</time></trkpt><trkpt lat="40.9412817" lon="14.0256517"><ele>-2.0</ele><time>2026-05-02T13:17:11.304Z</time></trkpt><trkpt lat="40.9412267" lon="14.02561"><ele>-1.9999999999999998</ele><time>2026-05-02T13:17:12.304Z</time></trkpt><trkpt lat="40.9411183" lon="14.0255317"><ele>-2.0</ele><time>2026-05-02T13:17:14.306Z</time></trkpt><trkpt lat="40.9410633" lon="14.0254883"><ele>-2.0</ele><time>2026-05-02T13:17:15.306Z</time></trkpt><trkpt lat="40.9410083" lon="14.025445"><ele>-1.9999999999999998</ele><time>2026-05-02T13:17:16.304Z</time></trkpt><trkpt lat="40.9409533" lon="14.0254"><ele>-2.0</ele><time>2026-05-02T13:17:17.304Z</time></trkpt><trkpt lat="40.9409017" lon="14.0253517"><ele>-2.0</ele><time>2026-05-02T13:17:18.305Z</time></trkpt><trkpt lat="40.9408067" lon="14.0252533"><ele>-2.0</ele><time>2026-05-02T13:17:20.304Z</time></trkpt><trkpt lat="40.9407567" lon="14.0252017"><ele>-1.9999999999999998</ele><time>2026-05-02T13:17:21.306Z</time></trkpt><trkpt lat="40.9407067" lon="14.0251467"><ele>-2.0</ele><time>2026-05-02T13:17:22.305Z</time></trkpt><trkpt lat="40.9406583" lon="14.0250883"><ele>-2.0</ele><time>2026-05-02T13:17:23.305Z</time></trkpt><trkpt lat="40.94061" lon="14.0250317"><ele>-1.9999999999999998</ele><time>2026-05-02T13:17:24.304Z</time></trkpt><trkpt lat="40.9405633" lon="14.0249733"><ele>-2.0</ele><time>2026-05-02T13:17:25.304Z</time></trkpt><trkpt lat="40.9404767" lon="14.02486"><ele>-2.0</ele><time>2026-05-02T13:17:27.305Z</time></trkpt><trkpt lat="40.9403917" lon="14.0247467"><ele>-2.0</ele><time>2026-05-02T13:17:29.304Z</time></trkpt><trkpt lat="40.9403067" lon="14.02463"><ele>-2.0</ele><time>2026-05-02T13:17:31.306Z</time></trkpt><trkpt lat="40.9402183" lon="14.0245167"><ele>-2.0</ele><time>2026-05-02T13:17:33.305Z</time></trkpt><trkpt lat="40.9401233" lon="14.0244133"><ele>-2.0</ele><time>2026-05-02T13:17:35.306Z</time></trkpt><trkpt lat="40.9400717" lon="14.0243633"><ele>-2.0</ele><time>2026-05-02T13:17:36.306Z</time></trkpt><trkpt lat="40.9400183" lon="14.0243183"><ele>-1.75</ele><time>2026-05-02T13:17:37.307Z</time></trkpt><trkpt lat="40.9399117" lon="14.024235"><ele>-1.5</ele><time>2026-05-02T13:17:39.306Z</time></trkpt><trkpt lat="40.9398017" lon="14.0241667"><ele>-1.25</ele><time>2026-05-02T13:17:41.306Z</time></trkpt><trkpt lat="40.93969" lon="14.0241"><ele>-1.0</ele><time>2026-05-02T13:17:43.307Z</time></trkpt><trkpt lat="40.9395817" lon="14.024035"><ele>-1.0</ele><time>2026-05-02T13:17:45.306Z</time></trkpt><trkpt lat="40.93947" lon="14.023975"><ele>-1.0</ele><time>2026-05-02T13:17:47.305Z</time></trkpt><trkpt lat="40.93936" lon="14.0239083"><ele>-1.0</ele><time>2026-05-02T13:17:49.304Z</time></trkpt><trkpt lat="40.939255" lon="14.02383"><ele>-1.0</ele><time>2026-05-02T13:17:51.303Z</time></trkpt><trkpt lat="40.9391917" lon="14.0237"><ele>-1.0</ele><time>2026-05-02T13:17:53.308Z</time></trkpt><trkpt lat="40.9392133" lon="14.0235517"><ele>-1.0</ele><time>2026-05-02T13:17:55.308Z</time></trkpt><trkpt lat="40.939265" lon="14.0234233"><ele>-1.0</ele><time>2026-05-02T13:17:57.306Z</time></trkpt><trkpt lat="40.93932" lon="14.023295"><ele>-1.0</ele><time>2026-05-02T13:17:59.308Z</time></trkpt><trkpt lat="40.939375" lon="14.02317"><ele>-1.0</ele><time>2026-05-02T13:18:01.306Z</time></trkpt><trkpt lat="40.939425" lon="14.0230467"><ele>-0.8</ele><time>2026-05-02T13:18:03.307Z</time></trkpt><trkpt lat="40.93947" lon="14.0229317"><ele>-0.6000000000000001</ele><time>2026-05-02T13:18:05.307Z</time></trkpt><trkpt lat="40.9395183" lon="14.022805"><ele>-0.4</ele><time>2026-05-02T13:18:07.306Z</time></trkpt><trkpt lat="40.93957" lon="14.0226817"><ele>-0.2</ele><time>2026-05-02T13:18:09.307Z</time></trkpt><trkpt lat="40.9396217" lon="14.022565"><ele>0.0</ele><time>2026-05-02T13:18:11.306Z</time></trkpt><trkpt lat="40.9396717" lon="14.0224517"><ele>0.0</ele><time>2026-05-02T13:18:13.308Z</time></trkpt><trkpt lat="40.9397217" lon="14.022335"><ele>0.0</ele><time>2026-05-02T13:18:15.307Z</time></trkpt><trkpt lat="40.939775" lon="14.0222133"><ele>0.0</ele><time>2026-05-02T13:18:17.307Z</time></trkpt><trkpt lat="40.939825" lon="14.0220883"><ele>0.0</ele><time>2026-05-02T13:18:19.307Z</time></trkpt><trkpt lat="40.9398733" lon="14.02197"><ele>0.0</ele><time>2026-05-02T13:18:21.307Z</time></trkpt><trkpt lat="40.939925" lon="14.0218517"><ele>0.0</ele><time>2026-05-02T13:18:23.307Z</time></trkpt><trkpt lat="40.9399717" lon="14.02173"><ele>0.0</ele><time>2026-05-02T13:18:25.304Z</time></trkpt><trkpt lat="40.9400217" lon="14.02161"><ele>0.0</ele><time>2026-05-02T13:18:27.307Z</time></trkpt><trkpt lat="40.9400733" lon="14.02149"><ele>0.0</ele><time>2026-05-02T13:18:29.308Z</time></trkpt><trkpt lat="40.9401317" lon="14.021365"><ele>0.0</ele><time>2026-05-02T13:18:31.308Z</time></trkpt><trkpt lat="40.940185" lon="14.0212367"><ele>0.2</ele><time>2026-05-02T13:18:33.307Z</time></trkpt><trkpt lat="40.9402383" lon="14.0211083"><ele>0.4</ele><time>2026-05-02T13:18:35.307Z</time></trkpt><trkpt lat="40.9402833" lon="14.0209933"><ele>0.6000000000000001</ele><time>2026-05-02T13:18:37.308Z</time></trkpt><trkpt lat="40.9403333" lon="14.02088"><ele>0.8</ele><time>2026-05-02T13:18:39.308Z</time></trkpt><trkpt lat="40.9403817" lon="14.02077"><ele>1.0</ele><time>2026-05-02T13:18:41.307Z</time></trkpt><trkpt lat="40.9404333" lon="14.020655"><ele>1.0</ele><time>2026-05-02T13:18:43.307Z</time></trkpt><trkpt lat="40.94049" lon="14.02054"><ele>1.0</ele><time>2026-05-02T13:18:45.306Z</time></trkpt><trkpt lat="40.9405583" lon="14.020435"><ele>1.0</ele><time>2026-05-02T13:18:47.306Z</time></trkpt><trkpt lat="40.9406417" lon="14.0203533"><ele>1.0</ele><time>2026-05-02T13:18:49.306Z</time></trkpt><trkpt lat="40.940735" lon="14.020295"><ele>1.0</ele><time>2026-05-02T13:18:51.305Z</time></trkpt><trkpt lat="40.9408367" lon="14.0202683"><ele>1.0</ele><time>2026-05-02T13:18:53.306Z</time></trkpt><trkpt lat="40.9409283" lon="14.02024"><ele>1.0</ele><time>2026-05-02T13:18:55.306Z</time></trkpt><trkpt lat="40.9409883" lon="14.020155"><ele>1.0</ele><time>2026-05-02T13:18:57.307Z</time></trkpt><trkpt lat="40.941015" lon="14.020045"><ele>1.0</ele><time>2026-05-02T13:18:59.304Z</time></trkpt><trkpt lat="40.941015" lon="14.0199117"><ele>1.0</ele><time>2026-05-02T13:19:01.306Z</time></trkpt><trkpt lat="40.941015" lon="14.0197667"><ele>0.8333333333333333</ele><time>2026-05-02T13:19:03.307Z</time></trkpt><trkpt lat="40.9410133" lon="14.0196267"><ele>0.6666666666666666</ele><time>2026-05-02T13:19:05.307Z</time></trkpt><trkpt lat="40.9410117" lon="14.0194783"><ele>0.5</ele><time>2026-05-02T13:19:07.308Z</time></trkpt><trkpt lat="40.9410117" lon="14.01939"><ele>0.3333333333333333</ele><time>2026-05-02T13:19:08.307Z</time></trkpt><trkpt lat="40.941015" lon="14.0193033"><ele>0.16666666666666666</ele><time>2026-05-02T13:19:09.307Z</time></trkpt><trkpt lat="40.9410117" lon="14.01922"><ele>0.0</ele><time>2026-05-02T13:19:10.307Z</time></trkpt><trkpt lat="40.94101" lon="14.0190617"><ele>0.4</ele><time>2026-05-02T13:19:12.307Z</time></trkpt><trkpt lat="40.9410067" lon="14.0189067"><ele>0.8</ele><time>2026-05-02T13:19:14.307Z</time></trkpt><trkpt lat="40.941" lon="14.01876"><ele>1.2000000000000002</ele><time>2026-05-02T13:19:16.307Z</time></trkpt><trkpt lat="40.9410017" lon="14.018615"><ele>1.6</ele><time>2026-05-02T13:19:18.308Z</time></trkpt><trkpt lat="40.9410033" lon="14.0184783"><ele>2.0</ele><time>2026-05-02T13:19:20.307Z</time></trkpt><trkpt lat="40.941" lon="14.018345"><ele>2.5</ele><time>2026-05-02T13:19:22.307Z</time></trkpt><trkpt lat="40.941" lon="14.0182167"><ele>3.0</ele><time>2026-05-02T13:19:24.306Z</time></trkpt><trkpt lat="40.9410017" lon="14.0180933"><ele>3.5</ele><time>2026-05-02T13:19:26.307Z</time></trkpt><trkpt lat="40.9409933" lon="14.01798"><ele>4.0</ele><time>2026-05-02T13:19:28.307Z</time></trkpt><trkpt lat="40.9409933" lon="14.0178667"><ele>4.5</ele><time>2026-05-02T13:19:30.307Z</time></trkpt><trkpt lat="40.9410017" lon="14.017755"><ele>5.0</ele><time>2026-05-02T13:19:32.306Z</time></trkpt><trkpt lat="40.94101" lon="14.01765"><ele>5.0</ele><time>2026-05-02T13:19:34.307Z</time></trkpt><trkpt lat="40.9410167" lon="14.017555"><ele>5.0</ele><time>2026-05-02T13:19:36.307Z</time></trkpt><trkpt lat="40.9409633" lon="14.017465"><ele>5.0</ele><time>2026-05-02T13:19:39.307Z</time></trkpt><trkpt lat="40.94089" lon="14.017445"><ele>5.0</ele><time>2026-05-02T13:19:41.306Z</time></trkpt><trkpt lat="40.9408083" lon="14.0174667"><ele>5.0</ele><time>2026-05-02T13:19:43.307Z</time></trkpt><trkpt lat="40.9407317" lon="14.0175117"><ele>5.0</ele><time>2026-05-02T13:19:45.307Z</time></trkpt><trkpt lat="40.940655" lon="14.0175617"><ele>5.2</ele><time>2026-05-02T13:19:47.306Z</time></trkpt><trkpt lat="40.94057" lon="14.0176267"><ele>5.4</ele><time>2026-05-02T13:19:49.305Z</time></trkpt><trkpt lat="40.94048" lon="14.0177"><ele>5.6</ele><time>2026-05-02T13:19:51.305Z</time></trkpt><trkpt lat="40.9403783" lon="14.0177683"><ele>5.8</ele><time>2026-05-02T13:19:53.307Z</time></trkpt><trkpt lat="40.9402733" lon="14.0178383"><ele>6.0</ele><time>2026-05-02T13:19:55.307Z</time></trkpt><trkpt lat="40.9401683" lon="14.01791"><ele>6.0</ele><time>2026-05-02T13:19:57.307Z</time></trkpt><trkpt lat="40.9400583" lon="14.0179783"><ele>6.0</ele><time>2026-05-02T13:19:59.308Z</time></trkpt><trkpt lat="40.9399433" lon="14.018045"><ele>6.0</ele><time>2026-05-02T13:20:01.307Z</time></trkpt><trkpt lat="40.9398833" lon="14.0180817"><ele>6.0</ele><time>2026-05-02T13:20:02.306Z</time></trkpt><trkpt lat="40.939825" lon="14.0181183"><ele>6.0</ele><time>2026-05-02T13:20:03.307Z</time></trkpt><trkpt lat="40.939715" lon="14.0181933"><ele>5.857142857142857</ele><time>2026-05-02T13:20:05.304Z</time></trkpt><trkpt lat="40.9396517" lon="14.0182283"><ele>5.714285714285714</ele><time>2026-05-02T13:20:06.306Z</time></trkpt><trkpt lat="40.93959" lon="14.0182667"><ele>5.571428571428571</ele><time>2026-05-02T13:20:07.306Z</time></trkpt><trkpt lat="40.9395333" lon="14.0183067"><ele>5.428571428571429</ele><time>2026-05-02T13:20:08.307Z</time></trkpt><trkpt lat="40.939475" lon="14.0183433"><ele>5.285714285714286</ele><time>2026-05-02T13:20:09.307Z</time></trkpt><trkpt lat="40.9394117" lon="14.018375"><ele>5.142857142857142</ele><time>2026-05-02T13:20:10.307Z</time></trkpt><trkpt lat="40.9393533" lon="14.0184117"><ele>5.0</ele><time>2026-05-02T13:20:11.306Z</time></trkpt><trkpt lat="40.9392933" lon="14.0184517"><ele>5.0</ele><time>2026-05-02T13:20:12.307Z</time></trkpt><trkpt lat="40.939235" lon="14.018495"><ele>5.0</ele><time>2026-05-02T13:20:13.307Z</time></trkpt><trkpt lat="40.9391717" lon="14.018535"><ele>5.0</ele><time>2026-05-02T13:20:14.307Z</time></trkpt><trkpt lat="40.93911" lon="14.01857"><ele>5.0</ele><time>2026-05-02T13:20:15.306Z</time></trkpt><trkpt lat="40.9390467" lon="14.018605"><ele>5.0</ele><time>2026-05-02T13:20:16.307Z</time></trkpt><trkpt lat="40.9389833" lon="14.0186367"><ele>5.0</ele><time>2026-05-02T13:20:17.307Z</time></trkpt><trkpt lat="40.93892" lon="14.0186667"><ele>5.0</ele><time>2026-05-02T13:20:18.307Z</time></trkpt><trkpt lat="40.9388583" lon="14.0187017"><ele>5.428571428571429</ele><time>2026-05-02T13:20:19.308Z</time></trkpt><trkpt lat="40.9387967" lon="14.0187383"><ele>5.857142857142858</ele><time>2026-05-02T13:20:20.306Z</time></trkpt><trkpt lat="40.938735" lon="14.0187767"><ele>6.285714285714286</ele><time>2026-05-02T13:20:21.306Z</time></trkpt><trkpt lat="40.9386717" lon="14.0188167"><ele>6.7142857142857135</ele><time>2026-05-02T13:20:22.306Z</time></trkpt><trkpt lat="40.9386133" lon="14.0188617"><ele>7.142857142857142</ele><time>2026-05-02T13:20:23.307Z</time></trkpt><trkpt lat="40.93855" lon="14.018905"><ele>7.571428571428571</ele><time>2026-05-02T13:20:24.304Z</time></trkpt><trkpt lat="40.9384883" lon="14.018945"><ele>8.0</ele><time>2026-05-02T13:20:25.308Z</time></trkpt><trkpt lat="40.93842" lon="14.018985"><ele>8.285714285714285</ele><time>2026-05-02T13:20:26.307Z</time></trkpt><trkpt lat="40.938355" lon="14.0190217"><ele>8.571428571428571</ele><time>2026-05-02T13:20:27.306Z</time></trkpt><trkpt lat="40.9382883" lon="14.0190533"><ele>8.857142857142858</ele><time>2026-05-02T13:20:28.307Z</time></trkpt><trkpt lat="40.9382233" lon="14.0190917"><ele>9.142857142857142</ele><time>2026-05-02T13:20:29.306Z</time></trkpt><trkpt lat="40.9381583" lon="14.01913"><ele>9.428571428571429</ele><time>2026-05-02T13:20:30.307Z</time></trkpt><trkpt lat="40.93809" lon="14.0191667"><ele>9.714285714285714</ele><time>2026-05-02T13:20:31.307Z</time></trkpt><trkpt lat="40.938025" lon="14.0192017"><ele>10.0</ele><time>2026-05-02T13:20:32.307Z</time></trkpt><trkpt lat="40.9379567" lon="14.0192383"><ele>10.0</ele><time>2026-05-02T13:20:33.306Z</time></trkpt><trkpt lat="40.9378933" lon="14.019275"><ele>10.0</ele><time>2026-05-02T13:20:34.307Z</time></trkpt><trkpt lat="40.93783" lon="14.0193117"><ele>10.0</ele><time>2026-05-02T13:20:35.306Z</time></trkpt><trkpt lat="40.937765" lon="14.0193467"><ele>10.0</ele><time>2026-05-02T13:20:36.305Z</time></trkpt><trkpt lat="40.9377" lon="14.0193833"><ele>10.0</ele><time>2026-05-02T13:20:37.306Z</time></trkpt><trkpt lat="40.937635" lon="14.0194167"><ele>10.0</ele><time>2026-05-02T13:20:38.306Z</time></trkpt><trkpt lat="40.9375733" lon="14.01945"><ele>10.0</ele><time>2026-05-02T13:20:39.307Z</time></trkpt><trkpt lat="40.9375133" lon="14.0194867"><ele>10.0</ele><time>2026-05-02T13:20:40.306Z</time></trkpt><trkpt lat="40.93745" lon="14.0195217"><ele>10.0</ele><time>2026-05-02T13:20:41.306Z</time></trkpt><trkpt lat="40.937385" lon="14.0195583"><ele>10.0</ele><time>2026-05-02T13:20:42.306Z</time></trkpt><trkpt lat="40.9373217" lon="14.0195917"><ele>10.0</ele><time>2026-05-02T13:20:43.307Z</time></trkpt><trkpt lat="40.93726" lon="14.0196283"><ele>10.0</ele><time>2026-05-02T13:20:44.305Z</time></trkpt><trkpt lat="40.9372" lon="14.0196633"><ele>10.0</ele><time>2026-05-02T13:20:45.307Z</time></trkpt><trkpt lat="40.9371417" lon="14.0197"><ele>10.0</ele><time>2026-05-02T13:20:46.304Z</time></trkpt><trkpt lat="40.9370817" lon="14.01974"><ele>10.0</ele><time>2026-05-02T13:20:47.307Z</time></trkpt><trkpt lat="40.9370183" lon="14.0197767"><ele>10.0</ele><time>2026-05-02T13:20:48.307Z</time></trkpt><trkpt lat="40.9369567" lon="14.01981"><ele>10.0</ele><time>2026-05-02T13:20:49.305Z</time></trkpt><trkpt lat="40.936895" lon="14.019845"><ele>10.0</ele><time>2026-05-02T13:20:50.307Z</time></trkpt><trkpt lat="40.9368317" lon="14.01988"><ele>10.0</ele><time>2026-05-02T13:20:51.307Z</time></trkpt><trkpt lat="40.9367683" lon="14.019915"><ele>10.0</ele><time>2026-05-02T13:20:52.306Z</time></trkpt><trkpt lat="40.9367083" lon="14.0199483"><ele>10.0</ele><time>2026-05-02T13:20:53.308Z</time></trkpt><trkpt lat="40.9366483" lon="14.0199833"><ele>9.285714285714285</ele><time>2026-05-02T13:20:54.304Z</time></trkpt><trkpt lat="40.936585" lon="14.0200183"><ele>8.571428571428571</ele><time>2026-05-02T13:20:55.306Z</time></trkpt><trkpt lat="40.9365233" lon="14.0200517"><ele>7.857142857142858</ele><time>2026-05-02T13:20:56.305Z</time></trkpt><trkpt lat="40.9364633" lon="14.0200883"><ele>7.142857142857142</ele><time>2026-05-02T13:20:57.308Z</time></trkpt><trkpt lat="40.9364033" lon="14.020125"><ele>6.428571428571429</ele><time>2026-05-02T13:20:58.307Z</time></trkpt><trkpt lat="40.9363417" lon="14.020165"><ele>5.714285714285714</ele><time>2026-05-02T13:20:59.307Z</time></trkpt><trkpt lat="40.9362767" lon="14.0202033"><ele>5.0</ele><time>2026-05-02T13:21:00.307Z</time></trkpt><trkpt lat="40.9362133" lon="14.0202433"><ele>5.0</ele><time>2026-05-02T13:21:01.306Z</time></trkpt><trkpt lat="40.9361483" lon="14.02028"><ele>5.0</ele><time>2026-05-02T13:21:02.308Z</time></trkpt><trkpt lat="40.9360833" lon="14.0203167"><ele>5.0</ele><time>2026-05-02T13:21:03.307Z</time></trkpt><trkpt lat="40.9360167" lon="14.0203533"><ele>5.0</ele><time>2026-05-02T13:21:04.307Z</time></trkpt><trkpt lat="40.9359533" lon="14.02039"><ele>5.0</ele><time>2026-05-02T13:21:05.307Z</time></trkpt><trkpt lat="40.9358833" lon="14.0204317"><ele>5.0</ele><time>2026-05-02T13:21:06.307Z</time></trkpt><trkpt lat="40.9358167" lon="14.020475"><ele>5.0</ele><time>2026-05-02T13:21:07.307Z</time></trkpt><trkpt lat="40.9357517" lon="14.0205133"><ele>5.571428571428571</ele><time>2026-05-02T13:21:08.307Z</time></trkpt><trkpt lat="40.93569" lon="14.020555"><ele>6.142857142857143</ele><time>2026-05-02T13:21:09.307Z</time></trkpt><trkpt lat="40.9356233" lon="14.0205967"><ele>6.714285714285715</ele><time>2026-05-02T13:21:10.308Z</time></trkpt><trkpt lat="40.9355583" lon="14.0206317"><ele>7.2857142857142865</ele><time>2026-05-02T13:21:11.306Z</time></trkpt><trkpt lat="40.9354933" lon="14.0206683"><ele>7.857142857142858</ele><time>2026-05-02T13:21:12.304Z</time></trkpt><trkpt lat="40.93543" lon="14.0207083"><ele>8.428571428571429</ele><time>2026-05-02T13:21:13.307Z</time></trkpt><trkpt lat="40.9353633" lon="14.020745"><ele>9.0</ele><time>2026-05-02T13:21:14.307Z</time></trkpt><trkpt lat="40.9352983" lon="14.02078"><ele>9.000000000000002</ele><time>2026-05-02T13:21:15.308Z</time></trkpt><trkpt lat="40.93523" lon="14.020815"><ele>9.0</ele><time>2026-05-02T13:21:16.306Z</time></trkpt><trkpt lat="40.9351633" lon="14.0208517"><ele>9.0</ele><time>2026-05-02T13:21:17.305Z</time></trkpt><trkpt lat="40.935095" lon="14.0208883"><ele>9.0</ele><time>2026-05-02T13:21:18.307Z</time></trkpt><trkpt lat="40.93503" lon="14.0209283"><ele>9.0</ele><time>2026-05-02T13:21:19.307Z</time></trkpt><trkpt lat="40.9349633" lon="14.0209683"><ele>9.000000000000002</ele><time>2026-05-02T13:21:20.308Z</time></trkpt><trkpt lat="40.9349017" lon="14.0210083"><ele>9.0</ele><time>2026-05-02T13:21:21.305Z</time></trkpt><trkpt lat="40.934835" lon="14.021045"><ele>8.857142857142858</ele><time>2026-05-02T13:21:22.306Z</time></trkpt><trkpt lat="40.93477" lon="14.0210817"><ele>8.714285714285715</ele><time>2026-05-02T13:21:23.308Z</time></trkpt><trkpt lat="40.934705" lon="14.0211233"><ele>8.571428571428571</ele><time>2026-05-02T13:21:24.307Z</time></trkpt><trkpt lat="40.93464" lon="14.021165"><ele>8.428571428571429</ele><time>2026-05-02T13:21:25.306Z</time></trkpt><trkpt lat="40.93457" lon="14.0212083"><ele>8.285714285714285</ele><time>2026-05-02T13:21:26.307Z</time></trkpt><trkpt lat="40.9345017" lon="14.0212483"><ele>8.142857142857142</ele><time>2026-05-02T13:21:27.308Z</time></trkpt><trkpt lat="40.9344333" lon="14.0212867"><ele>8.0</ele><time>2026-05-02T13:21:28.307Z</time></trkpt><trkpt lat="40.9343667" lon="14.0213267"><ele>7.999999999999999</ele><time>2026-05-02T13:21:29.308Z</time></trkpt><trkpt lat="40.9343" lon="14.0213667"><ele>8.0</ele><time>2026-05-02T13:21:30.307Z</time></trkpt><trkpt lat="40.93423" lon="14.021405"><ele>8.0</ele><time>2026-05-02T13:21:31.308Z</time></trkpt><trkpt lat="40.9341617" lon="14.0214417"><ele>8.0</ele><time>2026-05-02T13:21:32.307Z</time></trkpt><trkpt lat="40.9340917" lon="14.0214833"><ele>7.999999999999999</ele><time>2026-05-02T13:21:33.307Z</time></trkpt><trkpt lat="40.9340217" lon="14.021525"><ele>8.0</ele><time>2026-05-02T13:21:34.307Z</time></trkpt><trkpt lat="40.9339517" lon="14.0215667"><ele>8.333333333333332</ele><time>2026-05-02T13:21:35.307Z</time></trkpt><trkpt lat="40.9338817" lon="14.0216067"><ele>8.666666666666666</ele><time>2026-05-02T13:21:36.307Z</time></trkpt><trkpt lat="40.93381" lon="14.021645"><ele>9.0</ele><time>2026-05-02T13:21:37.307Z</time></trkpt><trkpt lat="40.93374" lon="14.0216817"><ele>9.333333333333334</ele><time>2026-05-02T13:21:38.304Z</time></trkpt><trkpt lat="40.933665" lon="14.0217217"><ele>9.666666666666668</ele><time>2026-05-02T13:21:39.306Z</time></trkpt><trkpt lat="40.9335917" lon="14.0217617"><ele>10.0</ele><time>2026-05-02T13:21:40.308Z</time></trkpt><trkpt lat="40.9335217" lon="14.021805"><ele>9.0</ele><time>2026-05-02T13:21:41.307Z</time></trkpt><trkpt lat="40.9334533" lon="14.0218467"><ele>8.0</ele><time>2026-05-02T13:21:42.306Z</time></trkpt><trkpt lat="40.9333833" lon="14.0218883"><ele>7.0</ele><time>2026-05-02T13:21:43.309Z</time></trkpt><trkpt lat="40.9333117" lon="14.02193"><ele>6.0</ele><time>2026-05-02T13:21:44.307Z</time></trkpt><trkpt lat="40.93324" lon="14.02197"><ele>5.0</ele><time>2026-05-02T13:21:45.307Z</time></trkpt><trkpt lat="40.9331683" lon="14.0220117"><ele>4.0</ele><time>2026-05-02T13:21:46.308Z</time></trkpt><trkpt lat="40.9330983" lon="14.0220533"><ele>4.0</ele><time>2026-05-02T13:21:47.307Z</time></trkpt><trkpt lat="40.9330333" lon="14.0220967"><ele>3.9999999999999996</ele><time>2026-05-02T13:21:48.307Z</time></trkpt><trkpt lat="40.9329683" lon="14.02214"><ele>4.0</ele><time>2026-05-02T13:21:49.306Z</time></trkpt><trkpt lat="40.9329" lon="14.0221817"><ele>4.0</ele><time>2026-05-02T13:21:50.307Z</time></trkpt><trkpt lat="40.93283" lon="14.02222"><ele>3.9999999999999996</ele><time>2026-05-02T13:21:51.308Z</time></trkpt><trkpt lat="40.9327633" lon="14.022255"><ele>4.0</ele><time>2026-05-02T13:21:52.307Z</time></trkpt><trkpt lat="40.932695" lon="14.0222933"><ele>4.0</ele><time>2026-05-02T13:21:53.308Z</time></trkpt><trkpt lat="40.9326283" lon="14.0223317"><ele>4.0</ele><time>2026-05-02T13:21:54.304Z</time></trkpt><trkpt lat="40.9325617" lon="14.02237"><ele>3.9999999999999996</ele><time>2026-05-02T13:21:55.308Z</time></trkpt><trkpt lat="40.932495" lon="14.0224083"><ele>4.0</ele><time>2026-05-02T13:21:56.306Z</time></trkpt><trkpt lat="40.9324317" lon="14.0224467"><ele>4.0</ele><time>2026-05-02T13:21:57.307Z</time></trkpt><trkpt lat="40.9323683" lon="14.0224917"><ele>3.9999999999999996</ele><time>2026-05-02T13:21:58.309Z</time></trkpt><trkpt lat="40.9323083" lon="14.0225367"><ele>4.0</ele><time>2026-05-02T13:21:59.307Z</time></trkpt><trkpt lat="40.932245" lon="14.0225817"><ele>4.0</ele><time>2026-05-02T13:22:00.307Z</time></trkpt><trkpt lat="40.9321767" lon="14.0226183"><ele>4.571428571428571</ele><time>2026-05-02T13:22:01.306Z</time></trkpt><trkpt lat="40.9321083" lon="14.0226483"><ele>5.142857142857142</ele><time>2026-05-02T13:22:02.306Z</time></trkpt><trkpt lat="40.93204" lon="14.0226783"><ele>5.7142857142857135</ele><time>2026-05-02T13:22:03.308Z</time></trkpt><trkpt lat="40.9319767" lon="14.0227133"><ele>6.285714285714286</ele><time>2026-05-02T13:22:04.307Z</time></trkpt><trkpt lat="40.931915" lon="14.0227517"><ele>6.857142857142856</ele><time>2026-05-02T13:22:05.307Z</time></trkpt><trkpt lat="40.9318533" lon="14.02279"><ele>7.428571428571428</ele><time>2026-05-02T13:22:06.305Z</time></trkpt><trkpt lat="40.9317867" lon="14.0228233"><ele>8.0</ele><time>2026-05-02T13:22:07.308Z</time></trkpt><trkpt lat="40.9317217" lon="14.0228567"><ele>8.428571428571429</ele><time>2026-05-02T13:22:08.304Z</time></trkpt><trkpt lat="40.9316567" lon="14.0228967"><ele>8.857142857142856</ele><time>2026-05-02T13:22:09.307Z</time></trkpt><trkpt lat="40.9315933" lon="14.0229367"><ele>9.285714285714285</ele><time>2026-05-02T13:22:10.307Z</time></trkpt><trkpt lat="40.9315283" lon="14.0229783"><ele>9.714285714285714</ele><time>2026-05-02T13:22:11.307Z</time></trkpt><trkpt lat="40.93146" lon="14.0230167"><ele>10.142857142857142</ele><time>2026-05-02T13:22:12.305Z</time></trkpt><trkpt lat="40.9313933" lon="14.023055"><ele>10.571428571428571</ele><time>2026-05-02T13:22:13.307Z</time></trkpt><trkpt lat="40.9313283" lon="14.0230933"><ele>11.0</ele><time>2026-05-02T13:22:14.307Z</time></trkpt><trkpt lat="40.9312633" lon="14.02313"><ele>11.0</ele><time>2026-05-02T13:22:15.307Z</time></trkpt><trkpt lat="40.9311983" lon="14.02317"><ele>11.0</ele><time>2026-05-02T13:22:16.308Z</time></trkpt><trkpt lat="40.9311317" lon="14.0232067"><ele>11.0</ele><time>2026-05-02T13:22:17.305Z</time></trkpt><trkpt lat="40.9310683" lon="14.0232467"><ele>11.0</ele><time>2026-05-02T13:22:18.308Z</time></trkpt><trkpt lat="40.9310017" lon="14.023285"><ele>11.0</ele><time>2026-05-02T13:22:19.308Z</time></trkpt><trkpt lat="40.9309333" lon="14.0233267"><ele>11.0</ele><time>2026-05-02T13:22:20.307Z</time></trkpt><trkpt lat="40.930865" lon="14.0233633"><ele>11.0</ele><time>2026-05-02T13:22:21.307Z</time></trkpt><trkpt lat="40.9307983" lon="14.0234017"><ele>10.5</ele><time>2026-05-02T13:22:22.307Z</time></trkpt><trkpt lat="40.9307283" lon="14.02344"><ele>10.0</ele><time>2026-05-02T13:22:23.305Z</time></trkpt><trkpt lat="40.9306567" lon="14.0234783"><ele>9.5</ele><time>2026-05-02T13:22:24.308Z</time></trkpt><trkpt lat="40.9305867" lon="14.0235167"><ele>9.0</ele><time>2026-05-02T13:22:25.308Z</time></trkpt><trkpt lat="40.9305167" lon="14.0235533"><ele>8.5</ele><time>2026-05-02T13:22:26.307Z</time></trkpt><trkpt lat="40.9304483" lon="14.0235917"><ele>8.0</ele><time>2026-05-02T13:22:27.307Z</time></trkpt><trkpt lat="40.9303767" lon="14.0236283"><ele>8.0</ele><time>2026-05-02T13:22:28.308Z</time></trkpt><trkpt lat="40.9303083" lon="14.0236683"><ele>7.999999999999999</ele><time>2026-05-02T13:22:29.307Z</time></trkpt><trkpt lat="40.9302433" lon="14.02371"><ele>8.0</ele><time>2026-05-02T13:22:30.308Z</time></trkpt><trkpt lat="40.9301733" lon="14.0237533"><ele>8.0</ele><time>2026-05-02T13:22:31.308Z</time></trkpt><trkpt lat="40.9301033" lon="14.0238"><ele>7.999999999999999</ele><time>2026-05-02T13:22:32.305Z</time></trkpt><trkpt lat="40.9300383" lon="14.023845"><ele>8.0</ele><time>2026-05-02T13:22:33.307Z</time></trkpt><trkpt lat="40.9299717" lon="14.023885"><ele>8.0</ele><time>2026-05-02T13:22:34.306Z</time></trkpt><trkpt lat="40.929905" lon="14.0239217"><ele>7.666666666666666</ele><time>2026-05-02T13:22:35.306Z</time></trkpt><trkpt lat="40.9298383" lon="14.0239633"><ele>7.333333333333333</ele><time>2026-05-02T13:22:36.308Z</time></trkpt><trkpt lat="40.92977" lon="14.0240067"><ele>7.0</ele><time>2026-05-02T13:22:37.308Z</time></trkpt><trkpt lat="40.9297" lon="14.0240467"><ele>6.666666666666666</ele><time>2026-05-02T13:22:38.307Z</time></trkpt><trkpt lat="40.9296283" lon="14.0240833"><ele>6.333333333333333</ele><time>2026-05-02T13:22:39.307Z</time></trkpt><trkpt lat="40.9295583" lon="14.0241217"><ele>6.0</ele><time>2026-05-02T13:22:40.305Z</time></trkpt><trkpt lat="40.9294917" lon="14.0241617"><ele>6.0</ele><time>2026-05-02T13:22:41.307Z</time></trkpt><trkpt lat="40.9294233" lon="14.0242033"><ele>6.0</ele><time>2026-05-02T13:22:42.308Z</time></trkpt><trkpt lat="40.9293533" lon="14.0242433"><ele>6.0</ele><time>2026-05-02T13:22:43.305Z</time></trkpt><trkpt lat="40.9292817" lon="14.0242783"><ele>6.0</ele><time>2026-05-02T13:22:44.308Z</time></trkpt><trkpt lat="40.9292117" lon="14.0243133"><ele>6.0</ele><time>2026-05-02T13:22:45.308Z</time></trkpt><trkpt lat="40.92914" lon="14.0243483"><ele>6.0</ele><time>2026-05-02T13:22:46.307Z</time></trkpt><trkpt lat="40.9290667" lon="14.0243833"><ele>6.833333333333333</ele><time>2026-05-02T13:22:47.304Z</time></trkpt><trkpt lat="40.9289933" lon="14.0244167"><ele>7.666666666666666</ele><time>2026-05-02T13:22:48.305Z</time></trkpt><trkpt lat="40.92892" lon="14.0244517"><ele>8.5</ele><time>2026-05-02T13:22:49.307Z</time></trkpt><trkpt lat="40.9288467" lon="14.0244817"><ele>9.333333333333332</ele><time>2026-05-02T13:22:50.305Z</time></trkpt><trkpt lat="40.9287717" lon="14.02451"><ele>10.166666666666666</ele><time>2026-05-02T13:22:51.304Z</time></trkpt><trkpt lat="40.9287" lon="14.0245433"><ele>11.0</ele><time>2026-05-02T13:22:52.305Z</time></trkpt><trkpt lat="40.9286283" lon="14.0245733"><ele>11.0</ele><time>2026-05-02T13:22:53.309Z</time></trkpt><trkpt lat="40.9285567" lon="14.0246"><ele>11.0</ele><time>2026-05-02T13:22:54.308Z</time></trkpt><trkpt lat="40.9284817" lon="14.0246233"><ele>11.0</ele><time>2026-05-02T13:22:55.308Z</time></trkpt><trkpt lat="40.9284083" lon="14.0246483"><ele>11.0</ele><time>2026-05-02T13:22:56.307Z</time></trkpt><trkpt lat="40.9283267" lon="14.02467"><ele>11.0</ele><time>2026-05-02T13:22:57.308Z</time></trkpt><trkpt lat="40.9282467" lon="14.0246917"><ele>11.0</ele><time>2026-05-02T13:22:58.308Z</time></trkpt><trkpt lat="40.9281717" lon="14.0247133"><ele>11.166666666666666</ele><time>2026-05-02T13:22:59.307Z</time></trkpt><trkpt lat="40.9280983" lon="14.024735"><ele>11.333333333333332</ele><time>2026-05-02T13:23:00.304Z</time></trkpt><trkpt lat="40.9280233" lon="14.0247517"><ele>11.5</ele><time>2026-05-02T13:23:01.305Z</time></trkpt><trkpt lat="40.9279483" lon="14.0247683"><ele>11.666666666666666</ele><time>2026-05-02T13:23:02.306Z</time></trkpt><trkpt lat="40.9278733" lon="14.0247817"><ele>11.833333333333334</ele><time>2026-05-02T13:23:03.304Z</time></trkpt><trkpt lat="40.9277967" lon="14.0247917"><ele>12.0</ele><time>2026-05-02T13:23:04.306Z</time></trkpt><trkpt lat="40.9277233" lon="14.024805"><ele>11.999999999999998</ele><time>2026-05-02T13:23:05.308Z</time></trkpt><trkpt lat="40.92765" lon="14.0248233"><ele>12.0</ele><time>2026-05-02T13:23:06.307Z</time></trkpt><trkpt lat="40.9275717" lon="14.0248367"><ele>12.0</ele><time>2026-05-02T13:23:07.307Z</time></trkpt><trkpt lat="40.9274983" lon="14.0248467"><ele>12.0</ele><time>2026-05-02T13:23:08.307Z</time></trkpt><trkpt lat="40.927425" lon="14.024855"><ele>12.0</ele><time>2026-05-02T13:23:09.307Z</time></trkpt><trkpt lat="40.9273517" lon="14.0248617"><ele>11.999999999999998</ele><time>2026-05-02T13:23:10.307Z</time></trkpt><trkpt lat="40.9272783" lon="14.0248683"><ele>12.0</ele><time>2026-05-02T13:23:11.307Z</time></trkpt><trkpt lat="40.9272083" lon="14.0248767"><ele>11.857142857142856</ele><time>2026-05-02T13:23:12.309Z</time></trkpt><trkpt lat="40.9271367" lon="14.0248833"><ele>11.714285714285714</ele><time>2026-05-02T13:23:13.309Z</time></trkpt><trkpt lat="40.9270617" lon="14.0248883"><ele>11.571428571428571</ele><time>2026-05-02T13:23:14.308Z</time></trkpt><trkpt lat="40.92699" lon="14.02489"><ele>11.428571428571427</ele><time>2026-05-02T13:23:15.307Z</time></trkpt><trkpt lat="40.9269167" lon="14.02489"><ele>11.285714285714285</ele><time>2026-05-02T13:23:16.306Z</time></trkpt><trkpt lat="40.9268433" lon="14.0248883"><ele>11.142857142857142</ele><time>2026-05-02T13:23:17.305Z</time></trkpt><trkpt lat="40.92677" lon="14.024885"><ele>11.0</ele><time>2026-05-02T13:23:18.306Z</time></trkpt><trkpt lat="40.9266933" lon="14.0248817"><ele>11.0</ele><time>2026-05-02T13:23:19.306Z</time></trkpt><trkpt lat="40.92662" lon="14.0248767"><ele>11.0</ele><time>2026-05-02T13:23:20.305Z</time></trkpt><trkpt lat="40.9265483" lon="14.02487"><ele>11.0</ele><time>2026-05-02T13:23:21.304Z</time></trkpt><trkpt lat="40.9264733" lon="14.024865"><ele>11.0</ele><time>2026-05-02T13:23:22.305Z</time></trkpt><trkpt lat="40.9264" lon="14.0248617"><ele>11.0</ele><time>2026-05-02T13:23:23.308Z</time></trkpt><trkpt lat="40.926325" lon="14.024855"><ele>11.0</ele><time>2026-05-02T13:23:24.307Z</time></trkpt><trkpt lat="40.92625" lon="14.02485"><ele>11.0</ele><time>2026-05-02T13:23:25.308Z</time></trkpt><trkpt lat="40.9261767" lon="14.024845"><ele>11.0</ele><time>2026-05-02T13:23:26.307Z</time></trkpt><trkpt lat="40.9261" lon="14.02484"><ele>11.0</ele><time>2026-05-02T13:23:27.307Z</time></trkpt><trkpt lat="40.9260267" lon="14.024835"><ele>11.0</ele><time>2026-05-02T13:23:28.307Z</time></trkpt><trkpt lat="40.9259517" lon="14.024825"><ele>11.0</ele><time>2026-05-02T13:23:29.307Z</time></trkpt><trkpt lat="40.925875" lon="14.0248183"><ele>11.0</ele><time>2026-05-02T13:23:30.306Z</time></trkpt><trkpt lat="40.9257983" lon="14.0248117"><ele>11.0</ele><time>2026-05-02T13:23:31.307Z</time></trkpt><trkpt lat="40.9257233" lon="14.0248067"><ele>11.142857142857142</ele><time>2026-05-02T13:23:32.308Z</time></trkpt><trkpt lat="40.92565" lon="14.0248"><ele>11.285714285714285</ele><time>2026-05-02T13:23:33.304Z</time></trkpt><trkpt lat="40.9255767" lon="14.024795"><ele>11.428571428571427</ele><time>2026-05-02T13:23:34.308Z</time></trkpt><trkpt lat="40.925505" lon="14.02479"><ele>11.571428571428571</ele><time>2026-05-02T13:23:35.306Z</time></trkpt><trkpt lat="40.9254317" lon="14.0247833"><ele>11.714285714285714</ele><time>2026-05-02T13:23:36.306Z</time></trkpt><trkpt lat="40.9253583" lon="14.0247783"><ele>11.857142857142856</ele><time>2026-05-02T13:23:37.307Z</time></trkpt><trkpt lat="40.9252867" lon="14.0247717"><ele>12.0</ele><time>2026-05-02T13:23:38.307Z</time></trkpt><trkpt lat="40.9252133" lon="14.0247667"><ele>11.999999999999998</ele><time>2026-05-02T13:23:39.306Z</time></trkpt><trkpt lat="40.9251433" lon="14.0247633"><ele>12.0</ele><time>2026-05-02T13:23:40.305Z</time></trkpt><trkpt lat="40.92507" lon="14.0247567"><ele>12.0</ele><time>2026-05-02T13:23:41.308Z</time></trkpt><trkpt lat="40.9249967" lon="14.0247517"><ele>12.0</ele><time>2026-05-02T13:23:42.306Z</time></trkpt><trkpt lat="40.9249233" lon="14.024745"><ele>12.0</ele><time>2026-05-02T13:23:43.307Z</time></trkpt><trkpt lat="40.92485" lon="14.0247333"><ele>11.999999999999998</ele><time>2026-05-02T13:23:44.305Z</time></trkpt><trkpt lat="40.924775" lon="14.024725"><ele>12.0</ele><time>2026-05-02T13:23:45.307Z</time></trkpt><trkpt lat="40.9247" lon="14.0247183"><ele>11.571428571428571</ele><time>2026-05-02T13:23:46.304Z</time></trkpt><trkpt lat="40.9246267" lon="14.0247117"><ele>11.142857142857142</ele><time>2026-05-02T13:23:47.305Z</time></trkpt><trkpt lat="40.924555" lon="14.0247033"><ele>10.714285714285715</ele><time>2026-05-02T13:23:48.304Z</time></trkpt><trkpt lat="40.9244833" lon="14.0246933"><ele>10.285714285714285</ele><time>2026-05-02T13:23:49.305Z</time></trkpt><trkpt lat="40.9244083" lon="14.024685"><ele>9.857142857142858</ele><time>2026-05-02T13:23:50.304Z</time></trkpt><trkpt lat="40.9243367" lon="14.02468"><ele>9.428571428571429</ele><time>2026-05-02T13:23:51.303Z</time></trkpt><trkpt lat="40.9242633" lon="14.0246733"><ele>9.0</ele><time>2026-05-02T13:23:52.305Z</time></trkpt><trkpt lat="40.92419" lon="14.02467"><ele>8.857142857142858</ele><time>2026-05-02T13:23:53.305Z</time></trkpt><trkpt lat="40.9241133" lon="14.0246633"><ele>8.714285714285715</ele><time>2026-05-02T13:23:54.306Z</time></trkpt><trkpt lat="40.9240417" lon="14.0246567"><ele>8.571428571428571</ele><time>2026-05-02T13:23:55.307Z</time></trkpt><trkpt lat="40.9239717" lon="14.0246517"><ele>8.428571428571429</ele><time>2026-05-02T13:23:56.306Z</time></trkpt><trkpt lat="40.9238983" lon="14.0246467"><ele>8.285714285714285</ele><time>2026-05-02T13:23:57.307Z</time></trkpt><trkpt lat="40.9238233" lon="14.0246417"><ele>8.142857142857142</ele><time>2026-05-02T13:23:58.307Z</time></trkpt><trkpt lat="40.9237517" lon="14.0246383"><ele>8.0</ele><time>2026-05-02T13:23:59.307Z</time></trkpt><trkpt lat="40.9236783" lon="14.0246333"><ele>8.0</ele><time>2026-05-02T13:24:00.307Z</time></trkpt><trkpt lat="40.9236033" lon="14.024625"><ele>7.999999999999999</ele><time>2026-05-02T13:24:01.307Z</time></trkpt><trkpt lat="40.9235317" lon="14.0246217"><ele>8.0</ele><time>2026-05-02T13:24:02.306Z</time></trkpt><trkpt lat="40.92346" lon="14.0246117"><ele>8.0</ele><time>2026-05-02T13:24:03.307Z</time></trkpt><trkpt lat="40.9233867" lon="14.0246033"><ele>7.999999999999999</ele><time>2026-05-02T13:24:04.307Z</time></trkpt><trkpt lat="40.9233167" lon="14.0245983"><ele>8.0</ele><time>2026-05-02T13:24:05.307Z</time></trkpt><trkpt lat="40.923245" lon="14.0245917"><ele>8.0</ele><time>2026-05-02T13:24:06.307Z</time></trkpt><trkpt lat="40.9231767" lon="14.024585"><ele>7.428571428571428</ele><time>2026-05-02T13:24:07.308Z</time></trkpt><trkpt lat="40.923105" lon="14.02458"><ele>6.857142857142856</ele><time>2026-05-02T13:24:08.307Z</time></trkpt><trkpt lat="40.923035" lon="14.0245783"><ele>6.285714285714286</ele><time>2026-05-02T13:24:09.307Z</time></trkpt><trkpt lat="40.922965" lon="14.02457"><ele>5.7142857142857135</ele><time>2026-05-02T13:24:10.306Z</time></trkpt><trkpt lat="40.9228933" lon="14.0245633"><ele>5.142857142857142</ele><time>2026-05-02T13:24:11.307Z</time></trkpt><trkpt lat="40.9228233" lon="14.02456"><ele>4.571428571428571</ele><time>2026-05-02T13:24:12.306Z</time></trkpt><trkpt lat="40.9227533" lon="14.0245567"><ele>4.0</ele><time>2026-05-02T13:24:13.307Z</time></trkpt><trkpt lat="40.9226833" lon="14.0245517"><ele>4.0</ele><time>2026-05-02T13:24:14.307Z</time></trkpt><trkpt lat="40.9226133" lon="14.0245417"><ele>3.9999999999999996</ele><time>2026-05-02T13:24:15.306Z</time></trkpt><trkpt lat="40.92254" lon="14.0245333"><ele>4.0</ele><time>2026-05-02T13:24:16.303Z</time></trkpt><trkpt lat="40.92247" lon="14.0245267"><ele>4.0</ele><time>2026-05-02T13:24:17.306Z</time></trkpt><trkpt lat="40.9223967" lon="14.0245183"><ele>3.9999999999999996</ele><time>2026-05-02T13:24:18.304Z</time></trkpt><trkpt lat="40.9223233" lon="14.02451"><ele>4.0</ele><time>2026-05-02T13:24:19.305Z</time></trkpt><trkpt lat="40.92225" lon="14.0245033"><ele>4.0</ele><time>2026-05-02T13:24:20.303Z</time></trkpt><trkpt lat="40.922175" lon="14.0245"><ele>4.0</ele><time>2026-05-02T13:24:21.304Z</time></trkpt><trkpt lat="40.9221017" lon="14.024495"><ele>3.9999999999999996</ele><time>2026-05-02T13:24:22.305Z</time></trkpt><trkpt lat="40.9220317" lon="14.0244917"><ele>4.0</ele><time>2026-05-02T13:24:23.307Z</time></trkpt><trkpt lat="40.92196" lon="14.0244867"><ele>4.0</ele><time>2026-05-02T13:24:24.306Z</time></trkpt><trkpt lat="40.9218883" lon="14.02448"><ele>3.9999999999999996</ele><time>2026-05-02T13:24:25.307Z</time></trkpt><trkpt lat="40.921815" lon="14.0244767"><ele>4.0</ele><time>2026-05-02T13:24:26.306Z</time></trkpt><trkpt lat="40.9217417" lon="14.0244717"><ele>4.0</ele><time>2026-05-02T13:24:27.307Z</time></trkpt><trkpt lat="40.9216667" lon="14.0244683"><ele>4.0</ele><time>2026-05-02T13:24:28.307Z</time></trkpt><trkpt lat="40.9215967" lon="14.0244633"><ele>3.9999999999999996</ele><time>2026-05-02T13:24:29.306Z</time></trkpt><trkpt lat="40.9215267" lon="14.0244517"><ele>4.0</ele><time>2026-05-02T13:24:30.307Z</time></trkpt><trkpt lat="40.9214583" lon="14.0244467"><ele>4.0</ele><time>2026-05-02T13:24:31.307Z</time></trkpt><trkpt lat="40.9213867" lon="14.0244433"><ele>3.9999999999999996</ele><time>2026-05-02T13:24:32.307Z</time></trkpt><trkpt lat="40.92132" lon="14.0244367"><ele>4.0</ele><time>2026-05-02T13:24:33.307Z</time></trkpt><trkpt lat="40.9212533" lon="14.0244267"><ele>4.0</ele><time>2026-05-02T13:24:34.307Z</time></trkpt><trkpt lat="40.921165" lon="14.0244033"><ele>3.9999999999999996</ele><time>2026-05-02T13:24:36.307Z</time></trkpt><trkpt lat="40.9211267" lon="14.0243067"><ele>4.0</ele><time>2026-05-02T13:24:39.307Z</time></trkpt><trkpt lat="40.92111" lon="14.0243917"><ele>4.0</ele><time>2026-05-02T13:32:34.305Z</time></trkpt><trkpt lat="40.9210934" lon="14.0243096"><ele>4.0</ele><time>2026-05-02T13:33:23.413Z</time></trkpt><trkpt lat="40.9210833" lon="14.0242033"><ele>3.9999999999999996</ele><time>2026-05-02T13:39:41.303Z</time></trkpt><trkpt lat="40.9211383" lon="14.02435"><ele>4.0</ele><time>2026-05-02T13:48:01.305Z</time></trkpt><trkpt lat="40.9210933" lon="14.0242867"><ele>3.9999999999999996</ele><time>2026-05-02T13:48:06.307Z</time></trkpt><trkpt lat="40.921137" lon="14.0243473"><ele>4.0</ele><time>2026-05-02T13:50:58.345Z</time></trkpt><trkpt lat="40.9210722" lon="14.0244009"><ele>4.0</ele><time>2026-05-02T13:51:07.434Z</time></trkpt><trkpt lat="40.9209788" lon="14.0243762"><ele>4.0</ele><time>2026-05-02T13:51:09.342Z</time></trkpt><trkpt lat="40.9209221" lon="14.0244428"><ele>3.9999999999999996</ele><time>2026-05-02T13:51:11.368Z</time></trkpt><trkpt lat="40.9208595" lon="14.0244716"><ele>4.0</ele><time>2026-05-02T13:51:13.379Z</time></trkpt><trkpt lat="40.9207837" lon="14.0244456"><ele>4.285714285714286</ele><time>2026-05-02T13:51:15.394Z</time></trkpt><trkpt lat="40.92072" lon="14.024405"><ele>4.571428571428571</ele><time>2026-05-02T13:51:17.306Z</time></trkpt><trkpt lat="40.920645" lon="14.0243983"><ele>4.857142857142857</ele><time>2026-05-02T13:51:19.305Z</time></trkpt><trkpt lat="40.9205767" lon="14.0243933"><ele>5.142857142857142</ele><time>2026-05-02T13:51:21.304Z</time></trkpt><trkpt lat="40.9205017" lon="14.0243867"><ele>5.428571428571429</ele><time>2026-05-02T13:51:23.305Z</time></trkpt><trkpt lat="40.9204333" lon="14.0243833"><ele>5.7142857142857135</ele><time>2026-05-02T13:51:25.304Z</time></trkpt><trkpt lat="40.9203567" lon="14.0243767"><ele>6.0</ele><time>2026-05-02T13:51:27.303Z</time></trkpt><trkpt lat="40.92028" lon="14.0243667"><ele>6.0</ele><time>2026-05-02T13:51:29.306Z</time></trkpt><trkpt lat="40.9202017" lon="14.02436"><ele>6.0</ele><time>2026-05-02T13:51:31.308Z</time></trkpt><trkpt lat="40.9201267" lon="14.024355"><ele>6.0</ele><time>2026-05-02T13:51:33.304Z</time></trkpt><trkpt lat="40.920055" lon="14.02435"><ele>6.0</ele><time>2026-05-02T13:51:35.302Z</time></trkpt><trkpt lat="40.9199867" lon="14.0243383"><ele>6.0</ele><time>2026-05-02T13:51:37.304Z</time></trkpt><trkpt lat="40.919895" lon="14.0243317"><ele>6.0</ele><time>2026-05-02T13:51:40.304Z</time></trkpt><trkpt lat="40.919825" lon="14.0243467"><ele>6.0</ele><time>2026-05-02T13:51:42.303Z</time></trkpt><trkpt lat="40.9197633" lon="14.0243633"><ele>6.0</ele><time>2026-05-02T13:51:44.302Z</time></trkpt><trkpt lat="40.9196733" lon="14.0243883"><ele>6.0</ele><time>2026-05-02T13:51:47.302Z</time></trkpt><trkpt lat="40.91961" lon="14.024395"><ele>6.0</ele><time>2026-05-02T13:51:49.304Z</time></trkpt><trkpt lat="40.91951" lon="14.0244417"><ele>6.0</ele><time>2026-05-02T13:51:52.302Z</time></trkpt><trkpt lat="40.9194367" lon="14.0244767"><ele>6.0</ele><time>2026-05-02T13:51:54.306Z</time></trkpt><trkpt lat="40.91936" lon="14.0244967"><ele>6.0</ele><time>2026-05-02T13:51:56.302Z</time></trkpt><trkpt lat="40.9192933" lon="14.024535"><ele>6.0</ele><time>2026-05-02T13:51:58.302Z</time></trkpt><trkpt lat="40.9192183" lon="14.0245917"><ele>6.0</ele><time>2026-05-02T13:52:00.302Z</time></trkpt><trkpt lat="40.91914" lon="14.0246283"><ele>6.0</ele><time>2026-05-02T13:52:02.302Z</time></trkpt><trkpt lat="40.9190667" lon="14.0246717"><ele>6.0</ele><time>2026-05-02T13:52:04.303Z</time></trkpt><trkpt lat="40.918995" lon="14.0247167"><ele>6.0</ele><time>2026-05-02T13:52:06.302Z</time></trkpt><trkpt lat="40.9189233" lon="14.0247783"><ele>6.0</ele><time>2026-05-02T13:52:08.303Z</time></trkpt><trkpt lat="40.9188617" lon="14.02486"><ele>6.0</ele><time>2026-05-02T13:52:10.302Z</time></trkpt><trkpt lat="40.9187917" lon="14.0249367"><ele>6.0</ele><time>2026-05-02T13:52:12.304Z</time></trkpt><trkpt lat="40.9187267" lon="14.025005"><ele>6.0</ele><time>2026-05-02T13:52:14.302Z</time></trkpt><trkpt lat="40.9186717" lon="14.0250783"><ele>6.0</ele><time>2026-05-02T13:52:16.303Z</time></trkpt><trkpt lat="40.9186167" lon="14.0251517"><ele>6.0</ele><time>2026-05-02T13:52:18.304Z</time></trkpt><trkpt lat="40.9185633" lon="14.02522"><ele>5.833333333333333</ele><time>2026-05-02T13:52:20.301Z</time></trkpt><trkpt lat="40.9185067" lon="14.025315"><ele>5.666666666666667</ele><time>2026-05-02T13:52:22.303Z</time></trkpt><trkpt lat="40.9184567" lon="14.0254083"><ele>5.5</ele><time>2026-05-02T13:52:24.303Z</time></trkpt><trkpt lat="40.9184167" lon="14.02551"><ele>5.333333333333334</ele><time>2026-05-02T13:52:26.302Z</time></trkpt><trkpt lat="40.9183683" lon="14.0255983"><ele>5.166666666666667</ele><time>2026-05-02T13:52:28.31Z</time></trkpt><trkpt lat="40.9183233" lon="14.0256917"><ele>5.0</ele><time>2026-05-02T13:52:30.303Z</time></trkpt><trkpt lat="40.9182783" lon="14.0257983"><ele>4.8</ele><time>2026-05-02T13:52:32.303Z</time></trkpt><trkpt lat="40.9182433" lon="14.0259067"><ele>4.6</ele><time>2026-05-02T13:52:34.302Z</time></trkpt><trkpt lat="40.9182133" lon="14.026025"><ele>4.4</ele><time>2026-05-02T13:52:36.302Z</time></trkpt><trkpt lat="40.9181867" lon="14.0261433"><ele>4.2</ele><time>2026-05-02T13:52:38.303Z</time></trkpt><trkpt lat="40.9181617" lon="14.0262767"><ele>4.0</ele><time>2026-05-02T13:52:40.302Z</time></trkpt><trkpt lat="40.918145" lon="14.0264017"><ele>4.0</ele><time>2026-05-02T13:52:42.303Z</time></trkpt><trkpt lat="40.9181233" lon="14.026525"><ele>4.0</ele><time>2026-05-02T13:52:44.303Z</time></trkpt><trkpt lat="40.9181083" lon="14.0266467"><ele>4.0</ele><time>2026-05-02T13:52:46.303Z</time></trkpt><trkpt lat="40.9180917" lon="14.0267633"><ele>4.0</ele><time>2026-05-02T13:52:48.303Z</time></trkpt><trkpt lat="40.9180817" lon="14.0268883"><ele>4.0</ele><time>2026-05-02T13:52:50.302Z</time></trkpt><trkpt lat="40.9180667" lon="14.0270217"><ele>3.8000000000000003</ele><time>2026-05-02T13:52:52.303Z</time></trkpt><trkpt lat="40.9180583" lon="14.0271583"><ele>3.6000000000000005</ele><time>2026-05-02T13:52:54.302Z</time></trkpt><trkpt lat="40.91804" lon="14.02729"><ele>3.4</ele><time>2026-05-02T13:52:56.305Z</time></trkpt><trkpt lat="40.9180233" lon="14.027415"><ele>3.2</ele><time>2026-05-02T13:52:58.302Z</time></trkpt><trkpt lat="40.91802" lon="14.02754"><ele>3.0</ele><time>2026-05-02T13:53:00.303Z</time></trkpt><trkpt lat="40.9180067" lon="14.0276717"><ele>2.8</ele><time>2026-05-02T13:53:02.303Z</time></trkpt><trkpt lat="40.9179967" lon="14.027805"><ele>2.5999999999999996</ele><time>2026-05-02T13:53:04.303Z</time></trkpt><trkpt lat="40.91799" lon="14.0279417"><ele>2.4000000000000004</ele><time>2026-05-02T13:53:06.309Z</time></trkpt><trkpt lat="40.9179833" lon="14.0280783"><ele>2.2</ele><time>2026-05-02T13:53:08.302Z</time></trkpt><trkpt lat="40.917975" lon="14.0282083"><ele>2.0</ele><time>2026-05-02T13:53:10.303Z</time></trkpt><trkpt lat="40.9179633" lon="14.0283267"><ele>2.8</ele><time>2026-05-02T13:53:12.304Z</time></trkpt><trkpt lat="40.91795" lon="14.0284517"><ele>3.6</ele><time>2026-05-02T13:53:14.303Z</time></trkpt><trkpt lat="40.91794" lon="14.0285667"><ele>4.3999999999999995</ele><time>2026-05-02T13:53:16.303Z</time></trkpt><trkpt lat="40.9179317" lon="14.0286883"><ele>5.2</ele><time>2026-05-02T13:53:18.302Z</time></trkpt><trkpt lat="40.9179183" lon="14.028815"><ele>6.0</ele><time>2026-05-02T13:53:20.302Z</time></trkpt><trkpt lat="40.9179033" lon="14.0289417"><ele>6.0</ele><time>2026-05-02T13:53:22.302Z</time></trkpt><trkpt lat="40.9178917" lon="14.0290733"><ele>6.0</ele><time>2026-05-02T13:53:24.303Z</time></trkpt><trkpt lat="40.9178783" lon="14.0292133"><ele>6.0</ele><time>2026-05-02T13:53:26.302Z</time></trkpt><trkpt lat="40.9178617" lon="14.0293417"><ele>6.0</ele><time>2026-05-02T13:53:28.303Z</time></trkpt><trkpt lat="40.9178467" lon="14.029465"><ele>6.0</ele><time>2026-05-02T13:53:30.302Z</time></trkpt><trkpt lat="40.9178383" lon="14.0295733"><ele>7.199999999999999</ele><time>2026-05-02T13:53:32.302Z</time></trkpt><trkpt lat="40.91783" lon="14.029685"><ele>8.399999999999999</ele><time>2026-05-02T13:53:34.303Z</time></trkpt><trkpt lat="40.9178133" lon="14.029805"><ele>9.6</ele><time>2026-05-02T13:53:36.303Z</time></trkpt><trkpt lat="40.9177983" lon="14.02993"><ele>10.799999999999999</ele><time>2026-05-02T13:53:38.303Z</time></trkpt><trkpt lat="40.9177817" lon="14.0300567"><ele>12.0</ele><time>2026-05-02T13:53:40.303Z</time></trkpt><trkpt lat="40.9177733" lon="14.0301817"><ele>12.0</ele><time>2026-05-02T13:53:42.302Z</time></trkpt><trkpt lat="40.9177583" lon="14.0303117"><ele>12.0</ele><time>2026-05-02T13:53:44.303Z</time></trkpt><trkpt lat="40.9177517" lon="14.0304433"><ele>12.0</ele><time>2026-05-02T13:53:46.304Z</time></trkpt><trkpt lat="40.9177517" lon="14.030575"><ele>12.0</ele><time>2026-05-02T13:53:48.303Z</time></trkpt><trkpt lat="40.9177533" lon="14.0307"><ele>12.0</ele><time>2026-05-02T13:53:50.302Z</time></trkpt><trkpt lat="40.9177417" lon="14.03084"><ele>11.8</ele><time>2026-05-02T13:53:52.304Z</time></trkpt><trkpt lat="40.917725" lon="14.0309683"><ele>11.6</ele><time>2026-05-02T13:53:54.303Z</time></trkpt><trkpt lat="40.9177117" lon="14.0311067"><ele>11.4</ele><time>2026-05-02T13:53:56.303Z</time></trkpt><trkpt lat="40.9176967" lon="14.0312467"><ele>11.200000000000001</ele><time>2026-05-02T13:53:58.303Z</time></trkpt><trkpt lat="40.9176783" lon="14.0313883"><ele>11.0</ele><time>2026-05-02T13:54:00.301Z</time></trkpt><trkpt lat="40.9176583" lon="14.0315317"><ele>11.200000000000001</ele><time>2026-05-02T13:54:02.303Z</time></trkpt><trkpt lat="40.91764" lon="14.031675"><ele>11.4</ele><time>2026-05-02T13:54:04.303Z</time></trkpt><trkpt lat="40.9176317" lon="14.03182"><ele>11.6</ele><time>2026-05-02T13:54:06.302Z</time></trkpt><trkpt lat="40.9176167" lon="14.0319617"><ele>11.8</ele><time>2026-05-02T13:54:08.303Z</time></trkpt><trkpt lat="40.9176017" lon="14.0321033"><ele>12.0</ele><time>2026-05-02T13:54:10.303Z</time></trkpt><trkpt lat="40.91758" lon="14.03225"><ele>11.833333333333334</ele><time>2026-05-02T13:54:12.301Z</time></trkpt><trkpt lat="40.9175667" lon="14.0323317"><ele>11.666666666666666</ele><time>2026-05-02T13:54:13.304Z</time></trkpt><trkpt lat="40.9175517" lon="14.0324883"><ele>11.5</ele><time>2026-05-02T13:54:15.303Z</time></trkpt><trkpt lat="40.9175367" lon="14.0326517"><ele>11.333333333333332</ele><time>2026-05-02T13:54:17.303Z</time></trkpt><trkpt lat="40.9175283" lon="14.032735"><ele>11.166666666666666</ele><time>2026-05-02T13:54:18.302Z</time></trkpt><trkpt lat="40.9175183" lon="14.03282"><ele>11.0</ele><time>2026-05-02T13:54:19.303Z</time></trkpt><trkpt lat="40.91751" lon="14.0329033"><ele>11.0</ele><time>2026-05-02T13:54:20.302Z</time></trkpt><trkpt lat="40.9175017" lon="14.03299"><ele>11.0</ele><time>2026-05-02T13:54:21.302Z</time></trkpt><trkpt lat="40.9174933" lon="14.0330767"><ele>11.0</ele><time>2026-05-02T13:54:22.303Z</time></trkpt><trkpt lat="40.917485" lon="14.0331633"><ele>11.0</ele><time>2026-05-02T13:54:23.303Z</time></trkpt><trkpt lat="40.9174783" lon="14.0332483"><ele>11.0</ele><time>2026-05-02T13:54:24.303Z</time></trkpt><trkpt lat="40.9174683" lon="14.0333317"><ele>11.0</ele><time>2026-05-02T13:54:25.309Z</time></trkpt><trkpt lat="40.9174517" lon="14.0334983"><ele>11.166666666666666</ele><time>2026-05-02T13:54:27.302Z</time></trkpt><trkpt lat="40.9174433" lon="14.0335833"><ele>11.333333333333332</ele><time>2026-05-02T13:54:28.302Z</time></trkpt><trkpt lat="40.917435" lon="14.0336683"><ele>11.5</ele><time>2026-05-02T13:54:29.303Z</time></trkpt><trkpt lat="40.91742" lon="14.0338317"><ele>11.666666666666666</ele><time>2026-05-02T13:54:31.303Z</time></trkpt><trkpt lat="40.9174083" lon="14.0339167"><ele>11.833333333333334</ele><time>2026-05-02T13:54:32.304Z</time></trkpt><trkpt lat="40.917385" lon="14.03408"><ele>12.0</ele><time>2026-05-02T13:54:34.303Z</time></trkpt><trkpt lat="40.917365" lon="14.0341617"><ele>11.714285714285714</ele><time>2026-05-02T13:54:35.303Z</time></trkpt><trkpt lat="40.9173433" lon="14.034245"><ele>11.428571428571429</ele><time>2026-05-02T13:54:36.303Z</time></trkpt><trkpt lat="40.91732" lon="14.0343267"><ele>11.142857142857142</ele><time>2026-05-02T13:54:37.303Z</time></trkpt><trkpt lat="40.9172967" lon="14.0344083"><ele>10.857142857142858</ele><time>2026-05-02T13:54:38.304Z</time></trkpt><trkpt lat="40.91727" lon="14.0344917"><ele>10.571428571428571</ele><time>2026-05-02T13:54:39.302Z</time></trkpt><trkpt lat="40.9172383" lon="14.0345717"><ele>10.285714285714285</ele><time>2026-05-02T13:54:40.303Z</time></trkpt><trkpt lat="40.9172017" lon="14.0346517"><ele>10.0</ele><time>2026-05-02T13:54:41.303Z</time></trkpt><trkpt lat="40.9171583" lon="14.03473"><ele>10.0</ele><time>2026-05-02T13:54:42.303Z</time></trkpt><trkpt lat="40.917115" lon="14.0348083"><ele>10.0</ele><time>2026-05-02T13:54:43.303Z</time></trkpt><trkpt lat="40.9170667" lon="14.034885"><ele>10.0</ele><time>2026-05-02T13:54:44.306Z</time></trkpt><trkpt lat="40.9170167" lon="14.0349633"><ele>10.0</ele><time>2026-05-02T13:54:45.302Z</time></trkpt><trkpt lat="40.9169617" lon="14.03504"><ele>10.0</ele><time>2026-05-02T13:54:46.303Z</time></trkpt><trkpt lat="40.916905" lon="14.0351117"><ele>10.0</ele><time>2026-05-02T13:54:47.303Z</time></trkpt><trkpt lat="40.9168483" lon="14.03518"><ele>10.0</ele><time>2026-05-02T13:54:48.302Z</time></trkpt><trkpt lat="40.9167883" lon="14.0352383"><ele>10.0</ele><time>2026-05-02T13:54:49.304Z</time></trkpt><trkpt lat="40.9167283" lon="14.0352967"><ele>10.0</ele><time>2026-05-02T13:54:50.302Z</time></trkpt><trkpt lat="40.9166667" lon="14.0353533"><ele>10.0</ele><time>2026-05-02T13:54:51.302Z</time></trkpt><trkpt lat="40.9166" lon="14.03541"><ele>10.0</ele><time>2026-05-02T13:54:52.303Z</time></trkpt><trkpt lat="40.9165283" lon="14.0354683"><ele>10.0</ele><time>2026-05-02T13:54:53.303Z</time></trkpt><trkpt lat="40.916455" lon="14.0355217"><ele>9.166666666666668</ele><time>2026-05-02T13:54:54.303Z</time></trkpt><trkpt lat="40.91638" lon="14.0355667"><ele>8.333333333333334</ele><time>2026-05-02T13:54:55.303Z</time></trkpt><trkpt lat="40.9163033" lon="14.0356083"><ele>7.5</ele><time>2026-05-02T13:54:56.303Z</time></trkpt><trkpt lat="40.9162233" lon="14.035645"><ele>6.666666666666667</ele><time>2026-05-02T13:54:57.303Z</time></trkpt><trkpt lat="40.916145" lon="14.0356833"><ele>5.833333333333334</ele><time>2026-05-02T13:54:58.302Z</time></trkpt><trkpt lat="40.9160683" lon="14.0357167"><ele>5.0</ele><time>2026-05-02T13:54:59.302Z</time></trkpt><trkpt lat="40.91599" lon="14.0357417"><ele>5.0</ele><time>2026-05-02T13:55:00.303Z</time></trkpt><trkpt lat="40.9159117" lon="14.0357617"><ele>5.0</ele><time>2026-05-02T13:55:01.303Z</time></trkpt><trkpt lat="40.91583" lon="14.0357883"><ele>5.0</ele><time>2026-05-02T13:55:02.303Z</time></trkpt><trkpt lat="40.9157483" lon="14.0358117"><ele>5.0</ele><time>2026-05-02T13:55:03.302Z</time></trkpt><trkpt lat="40.915665" lon="14.0358367"><ele>5.0</ele><time>2026-05-02T13:55:04.303Z</time></trkpt><trkpt lat="40.915585" lon="14.0358617"><ele>5.0</ele><time>2026-05-02T13:55:05.302Z</time></trkpt><trkpt lat="40.91551" lon="14.0358867"><ele>4.666666666666667</ele><time>2026-05-02T13:55:06.304Z</time></trkpt><trkpt lat="40.915435" lon="14.0359117"><ele>4.333333333333334</ele><time>2026-05-02T13:55:07.303Z</time></trkpt><trkpt lat="40.9153617" lon="14.035935"><ele>4.0</ele><time>2026-05-02T13:55:08.303Z</time></trkpt><trkpt lat="40.91529" lon="14.0359583"><ele>3.666666666666667</ele><time>2026-05-02T13:55:09.304Z</time></trkpt><trkpt lat="40.915215" lon="14.0359783"><ele>3.3333333333333335</ele><time>2026-05-02T13:55:10.303Z</time></trkpt><trkpt lat="40.9151417" lon="14.0359967"><ele>3.0</ele><time>2026-05-02T13:55:11.303Z</time></trkpt><trkpt lat="40.9150683" lon="14.0360167"><ele>2.571428571428571</ele><time>2026-05-02T13:55:12.303Z</time></trkpt><trkpt lat="40.9149983" lon="14.036035"><ele>2.142857142857143</ele><time>2026-05-02T13:55:13.303Z</time></trkpt><trkpt lat="40.9149267" lon="14.0360533"><ele>1.7142857142857142</ele><time>2026-05-02T13:55:14.302Z</time></trkpt><trkpt lat="40.9148567" lon="14.0360733"><ele>1.2857142857142856</ele><time>2026-05-02T13:55:15.302Z</time></trkpt><trkpt lat="40.91479" lon="14.0360917"><ele>0.8571428571428571</ele><time>2026-05-02T13:55:16.303Z</time></trkpt><trkpt lat="40.9147267" lon="14.036115"><ele>0.42857142857142855</ele><time>2026-05-02T13:55:17.303Z</time></trkpt><trkpt lat="40.9146533" lon="14.0361383"><ele>0.0</ele><time>2026-05-02T13:55:18.303Z</time></trkpt><trkpt lat="40.914585" lon="14.0361617"><ele>0.0</ele><time>2026-05-02T13:55:19.303Z</time></trkpt><trkpt lat="40.9145167" lon="14.036185"><ele>0.0</ele><time>2026-05-02T13:55:20.303Z</time></trkpt><trkpt lat="40.91445" lon="14.0362083"><ele>0.0</ele><time>2026-05-02T13:55:21.303Z</time></trkpt><trkpt lat="40.9143833" lon="14.0362333"><ele>0.0</ele><time>2026-05-02T13:55:22.305Z</time></trkpt><trkpt lat="40.9143133" lon="14.036255"><ele>0.0</ele><time>2026-05-02T13:55:23.303Z</time></trkpt><trkpt lat="40.9142467" lon="14.0362717"><ele>0.0</ele><time>2026-05-02T13:55:24.303Z</time></trkpt><trkpt lat="40.9141817" lon="14.0362933"><ele>0.0</ele><time>2026-05-02T13:55:25.303Z</time></trkpt><trkpt lat="40.914115" lon="14.036315"><ele>0.2857142857142857</ele><time>2026-05-02T13:55:26.303Z</time></trkpt><trkpt lat="40.91405" lon="14.0363333"><ele>0.5714285714285714</ele><time>2026-05-02T13:55:27.302Z</time></trkpt><trkpt lat="40.9139817" lon="14.03635"><ele>0.8571428571428571</ele><time>2026-05-02T13:55:28.306Z</time></trkpt><trkpt lat="40.913915" lon="14.0363717"><ele>1.1428571428571428</ele><time>2026-05-02T13:55:29.303Z</time></trkpt><trkpt lat="40.9138483" lon="14.0363917"><ele>1.4285714285714284</ele><time>2026-05-02T13:55:30.303Z</time></trkpt><trkpt lat="40.91378" lon="14.036415"><ele>1.7142857142857142</ele><time>2026-05-02T13:55:31.303Z</time></trkpt><trkpt lat="40.9137133" lon="14.0364383"><ele>2.0</ele><time>2026-05-02T13:55:32.302Z</time></trkpt><trkpt lat="40.9136467" lon="14.0364617"><ele>2.0</ele><time>2026-05-02T13:55:33.303Z</time></trkpt><trkpt lat="40.9135783" lon="14.0364817"><ele>1.9999999999999998</ele><time>2026-05-02T13:55:34.302Z</time></trkpt><trkpt lat="40.9135083" lon="14.0364933"><ele>2.0</ele><time>2026-05-02T13:55:35.303Z</time></trkpt><trkpt lat="40.9134417" lon="14.0365083"><ele>2.0</ele><time>2026-05-02T13:55:36.302Z</time></trkpt><trkpt lat="40.9133767" lon="14.03653"><ele>1.9999999999999998</ele><time>2026-05-02T13:55:37.303Z</time></trkpt><trkpt lat="40.9133133" lon="14.0365533"><ele>2.0</ele><time>2026-05-02T13:55:38.302Z</time></trkpt><trkpt lat="40.9132433" lon="14.0365683"><ele>2.0</ele><time>2026-05-02T13:55:39.304Z</time></trkpt><trkpt lat="40.913175" lon="14.0365817"><ele>2.0</ele><time>2026-05-02T13:55:40.303Z</time></trkpt><trkpt lat="40.9131067" lon="14.0365967"><ele>1.9999999999999998</ele><time>2026-05-02T13:55:41.303Z</time></trkpt><trkpt lat="40.9130383" lon="14.0366117"><ele>2.0</ele><time>2026-05-02T13:55:42.303Z</time></trkpt><trkpt lat="40.9129683" lon="14.0366333"><ele>2.0</ele><time>2026-05-02T13:55:43.304Z</time></trkpt><trkpt lat="40.9128933" lon="14.036655"><ele>1.9999999999999998</ele><time>2026-05-02T13:55:44.303Z</time></trkpt><trkpt lat="40.9128233" lon="14.0366767"><ele>2.0</ele><time>2026-05-02T13:55:45.304Z</time></trkpt><trkpt lat="40.9127583" lon="14.0366967"><ele>2.0</ele><time>2026-05-02T13:55:46.302Z</time></trkpt><trkpt lat="40.9126867" lon="14.0367183"><ele>2.0</ele><time>2026-05-02T13:55:47.304Z</time></trkpt><trkpt lat="40.9126133" lon="14.0367383"><ele>1.9999999999999998</ele><time>2026-05-02T13:55:48.301Z</time></trkpt><trkpt lat="40.9125417" lon="14.0367617"><ele>2.0</ele><time>2026-05-02T13:55:49.304Z</time></trkpt><trkpt lat="40.9124683" lon="14.0367867"><ele>2.0</ele><time>2026-05-02T13:55:50.303Z</time></trkpt><trkpt lat="40.9124" lon="14.0368117"><ele>1.9999999999999998</ele><time>2026-05-02T13:55:51.303Z</time></trkpt><trkpt lat="40.912325" lon="14.036835"><ele>2.0</ele><time>2026-05-02T13:55:52.302Z</time></trkpt><trkpt lat="40.91225" lon="14.0368583"><ele>2.0</ele><time>2026-05-02T13:55:53.303Z</time></trkpt><trkpt lat="40.9121783" lon="14.03688"><ele>1.9999999999999998</ele><time>2026-05-02T13:55:54.304Z</time></trkpt><trkpt lat="40.912105" lon="14.0369033"><ele>2.0</ele><time>2026-05-02T13:55:55.303Z</time></trkpt><trkpt lat="40.9120317" lon="14.0369283"><ele>2.0</ele><time>2026-05-02T13:55:56.303Z</time></trkpt><trkpt lat="40.9119633" lon="14.036955"><ele>2.0</ele><time>2026-05-02T13:55:57.302Z</time></trkpt><trkpt lat="40.9118983" lon="14.0369833"><ele>1.9999999999999998</ele><time>2026-05-02T13:55:58.302Z</time></trkpt><trkpt lat="40.91182" lon="14.0370183"><ele>2.0</ele><time>2026-05-02T13:55:59.303Z</time></trkpt><trkpt lat="40.9117383" lon="14.037045"><ele>1.6666666666666665</ele><time>2026-05-02T13:56:00.302Z</time></trkpt><trkpt lat="40.9116667" lon="14.0370567"><ele>1.3333333333333333</ele><time>2026-05-02T13:56:01.303Z</time></trkpt><trkpt lat="40.9115933" lon="14.03708"><ele>1.0</ele><time>2026-05-02T13:56:02.303Z</time></trkpt><trkpt lat="40.9115217" lon="14.0371017"><ele>0.6666666666666666</ele><time>2026-05-02T13:56:03.302Z</time></trkpt><trkpt lat="40.911445" lon="14.037125"><ele>0.3333333333333333</ele><time>2026-05-02T13:56:04.302Z</time></trkpt><trkpt lat="40.9113683" lon="14.0371467"><ele>0.0</ele><time>2026-05-02T13:56:05.302Z</time></trkpt><trkpt lat="40.91129" lon="14.0371717"><ele>0.0</ele><time>2026-05-02T13:56:06.302Z</time></trkpt><trkpt lat="40.91121" lon="14.0371967"><ele>0.0</ele><time>2026-05-02T13:56:07.302Z</time></trkpt><trkpt lat="40.91113" lon="14.03722"><ele>0.0</ele><time>2026-05-02T13:56:08.302Z</time></trkpt><trkpt lat="40.91105" lon="14.037245"><ele>0.0</ele><time>2026-05-02T13:56:09.301Z</time></trkpt><trkpt lat="40.91097" lon="14.0372667"><ele>0.0</ele><time>2026-05-02T13:56:10.301Z</time></trkpt><trkpt lat="40.9108883" lon="14.0372917"><ele>0.0</ele><time>2026-05-02T13:56:11.303Z</time></trkpt><trkpt lat="40.910805" lon="14.0373183"><ele>0.0</ele><time>2026-05-02T13:56:12.301Z</time></trkpt><trkpt lat="40.9107217" lon="14.0373433"><ele>0.0</ele><time>2026-05-02T13:56:13.302Z</time></trkpt><trkpt lat="40.9106383" lon="14.03737"><ele>0.0</ele><time>2026-05-02T13:56:14.302Z</time></trkpt><trkpt lat="40.9105533" lon="14.0373933"><ele>0.0</ele><time>2026-05-02T13:56:15.302Z</time></trkpt><trkpt lat="40.91047" lon="14.0374183"><ele>0.0</ele><time>2026-05-02T13:56:16.302Z</time></trkpt><trkpt lat="40.9103867" lon="14.0374417"><ele>0.0</ele><time>2026-05-02T13:56:17.302Z</time></trkpt><trkpt lat="40.9103033" lon="14.0374667"><ele>0.16666666666666666</ele><time>2026-05-02T13:56:18.302Z</time></trkpt><trkpt lat="40.9102217" lon="14.0374933"><ele>0.3333333333333333</ele><time>2026-05-02T13:56:19.302Z</time></trkpt><trkpt lat="40.9101367" lon="14.0375183"><ele>0.5</ele><time>2026-05-02T13:56:20.301Z</time></trkpt><trkpt lat="40.9100517" lon="14.037545"><ele>0.6666666666666666</ele><time>2026-05-02T13:56:21.302Z</time></trkpt><trkpt lat="40.90997" lon="14.03757"><ele>0.8333333333333333</ele><time>2026-05-02T13:56:22.3Z</time></trkpt><trkpt lat="40.909885" lon="14.0375933"><ele>1.0</ele><time>2026-05-02T13:56:23.304Z</time></trkpt><trkpt lat="40.9098017" lon="14.037615"><ele>0.9999999999999999</ele><time>2026-05-02T13:56:24.302Z</time></trkpt><trkpt lat="40.9097217" lon="14.03764"><ele>1.0</ele><time>2026-05-02T13:56:25.304Z</time></trkpt><trkpt lat="40.9096417" lon="14.037665"><ele>1.0</ele><time>2026-05-02T13:56:26.302Z</time></trkpt><trkpt lat="40.9095617" lon="14.03769"><ele>1.0</ele><time>2026-05-02T13:56:27.301Z</time></trkpt><trkpt lat="40.90948" lon="14.0377117"><ele>0.9999999999999999</ele><time>2026-05-02T13:56:28.301Z</time></trkpt><trkpt lat="40.9094017" lon="14.0377333"><ele>1.0</ele><time>2026-05-02T13:56:29.302Z</time></trkpt><trkpt lat="40.9093183" lon="14.037755"><ele>0.6666666666666666</ele><time>2026-05-02T13:56:30.303Z</time></trkpt><trkpt lat="40.9092333" lon="14.0377783"><ele>0.3333333333333333</ele><time>2026-05-02T13:56:31.302Z</time></trkpt><trkpt lat="40.9091483" lon="14.0378"><ele>0.0</ele><time>2026-05-02T13:56:32.302Z</time></trkpt><trkpt lat="40.9090683" lon="14.037825"><ele>-0.3333333333333333</ele><time>2026-05-02T13:56:33.301Z</time></trkpt><trkpt lat="40.908985" lon="14.0378517"><ele>-0.6666666666666666</ele><time>2026-05-02T13:56:34.303Z</time></trkpt><trkpt lat="40.9089033" lon="14.03788"><ele>-1.0</ele><time>2026-05-02T13:56:35.302Z</time></trkpt><trkpt lat="40.90882" lon="14.037905"><ele>-0.9999999999999999</ele><time>2026-05-02T13:56:36.303Z</time></trkpt><trkpt lat="40.9087367" lon="14.037925"><ele>-1.0</ele><time>2026-05-02T13:56:37.301Z</time></trkpt><trkpt lat="40.9086567" lon="14.0379467"><ele>-1.0</ele><time>2026-05-02T13:56:38.302Z</time></trkpt><trkpt lat="40.908575" lon="14.0379683"><ele>-1.0</ele><time>2026-05-02T13:56:39.302Z</time></trkpt><trkpt lat="40.9084967" lon="14.03799"><ele>-0.9999999999999999</ele><time>2026-05-02T13:56:40.302Z</time></trkpt><trkpt lat="40.9084167" lon="14.03801"><ele>-1.0</ele><time>2026-05-02T13:56:41.302Z</time></trkpt><trkpt lat="40.9083317" lon="14.0380367"><ele>-0.6666666666666666</ele><time>2026-05-02T13:56:42.302Z</time></trkpt><trkpt lat="40.90825" lon="14.0380617"><ele>-0.3333333333333333</ele><time>2026-05-02T13:56:43.302Z</time></trkpt><trkpt lat="40.9081717" lon="14.038085"><ele>0.0</ele><time>2026-05-02T13:56:44.302Z</time></trkpt><trkpt lat="40.9080933" lon="14.03811"><ele>0.3333333333333333</ele><time>2026-05-02T13:56:45.303Z</time></trkpt><trkpt lat="40.9080183" lon="14.0381333"><ele>0.6666666666666666</ele><time>2026-05-02T13:56:46.302Z</time></trkpt><trkpt lat="40.9079433" lon="14.0381583"><ele>1.0</ele><time>2026-05-02T13:56:47.303Z</time></trkpt><trkpt lat="40.9078667" lon="14.0381783"><ele>0.9999999999999999</ele><time>2026-05-02T13:56:48.303Z</time></trkpt><trkpt lat="40.907795" lon="14.038205"><ele>1.0</ele><time>2026-05-02T13:56:49.305Z</time></trkpt><trkpt lat="40.9077183" lon="14.0382283"><ele>1.0</ele><time>2026-05-02T13:56:50.302Z</time></trkpt><trkpt lat="40.90764" lon="14.0382533"><ele>1.0</ele><time>2026-05-02T13:56:51.313Z</time></trkpt><trkpt lat="40.9075617" lon="14.0382767"><ele>0.9999999999999999</ele><time>2026-05-02T13:56:52.305Z</time></trkpt><trkpt lat="40.9074833" lon="14.0382983"><ele>1.0</ele><time>2026-05-02T13:56:53.301Z</time></trkpt><trkpt lat="40.9074033" lon="14.0383283"><ele>1.1666666666666665</ele><time>2026-05-02T13:56:54.304Z</time></trkpt><trkpt lat="40.9073233" lon="14.0383567"><ele>1.3333333333333333</ele><time>2026-05-02T13:56:55.302Z</time></trkpt><trkpt lat="40.907245" lon="14.0383783"><ele>1.5</ele><time>2026-05-02T13:56:56.302Z</time></trkpt><trkpt lat="40.907165" lon="14.0384"><ele>1.6666666666666665</ele><time>2026-05-02T13:56:57.302Z</time></trkpt><trkpt lat="40.9070817" lon="14.0384233"><ele>1.8333333333333333</ele><time>2026-05-02T13:56:58.302Z</time></trkpt><trkpt lat="40.9070017" lon="14.038445"><ele>2.0</ele><time>2026-05-02T13:56:59.302Z</time></trkpt><trkpt lat="40.9069233" lon="14.0384667"><ele>1.9999999999999998</ele><time>2026-05-02T13:57:00.303Z</time></trkpt><trkpt lat="40.906845" lon="14.0384883"><ele>2.0</ele><time>2026-05-02T13:57:01.301Z</time></trkpt><trkpt lat="40.9067683" lon="14.03851"><ele>2.0</ele><time>2026-05-02T13:57:02.303Z</time></trkpt><trkpt lat="40.9066883" lon="14.038535"><ele>2.0</ele><time>2026-05-02T13:57:03.302Z</time></trkpt><trkpt lat="40.9066067" lon="14.0385617"><ele>1.9999999999999998</ele><time>2026-05-02T13:57:04.301Z</time></trkpt><trkpt lat="40.9065283" lon="14.0385867"><ele>2.0</ele><time>2026-05-02T13:57:05.302Z</time></trkpt><trkpt lat="40.9064467" lon="14.0386167"><ele>1.8333333333333333</ele><time>2026-05-02T13:57:06.301Z</time></trkpt><trkpt lat="40.9063683" lon="14.038645"><ele>1.6666666666666665</ele><time>2026-05-02T13:57:07.301Z</time></trkpt><trkpt lat="40.90629" lon="14.0386733"><ele>1.5</ele><time>2026-05-02T13:57:08.302Z</time></trkpt><trkpt lat="40.90621" lon="14.0387"><ele>1.3333333333333333</ele><time>2026-05-02T13:57:09.301Z</time></trkpt><trkpt lat="40.9061283" lon="14.038725"><ele>1.1666666666666665</ele><time>2026-05-02T13:57:10.302Z</time></trkpt><trkpt lat="40.9060483" lon="14.0387483"><ele>1.0</ele><time>2026-05-02T13:57:11.302Z</time></trkpt><trkpt lat="40.9059667" lon="14.03877"><ele>0.9999999999999999</ele><time>2026-05-02T13:57:12.303Z</time></trkpt><trkpt lat="40.905885" lon="14.0387917"><ele>1.0</ele><time>2026-05-02T13:57:13.302Z</time></trkpt><trkpt lat="40.905805" lon="14.0388167"><ele>1.0</ele><time>2026-05-02T13:57:14.302Z</time></trkpt><trkpt lat="40.9057267" lon="14.03884"><ele>1.0</ele><time>2026-05-02T13:57:15.302Z</time></trkpt><trkpt lat="40.90565" lon="14.038865"><ele>0.9999999999999999</ele><time>2026-05-02T13:57:16.301Z</time></trkpt><trkpt lat="40.9055717" lon="14.0388883"><ele>1.0</ele><time>2026-05-02T13:57:17.303Z</time></trkpt><trkpt lat="40.9054933" lon="14.0389117"><ele>1.0</ele><time>2026-05-02T13:57:18.303Z</time></trkpt><trkpt lat="40.9054183" lon="14.0389367"><ele>0.9999999999999999</ele><time>2026-05-02T13:57:19.304Z</time></trkpt><trkpt lat="40.905345" lon="14.0389567"><ele>1.0</ele><time>2026-05-02T13:57:20.302Z</time></trkpt><trkpt lat="40.90527" lon="14.038975"><ele>1.0</ele><time>2026-05-02T13:57:21.303Z</time></trkpt><trkpt lat="40.905195" lon="14.0389967"><ele>0.9999999999999999</ele><time>2026-05-02T13:57:22.301Z</time></trkpt><trkpt lat="40.9051233" lon="14.0390183"><ele>1.0</ele><time>2026-05-02T13:57:23.303Z</time></trkpt><trkpt lat="40.905055" lon="14.0390417"><ele>1.0</ele><time>2026-05-02T13:57:24.301Z</time></trkpt><trkpt lat="40.9049883" lon="14.03907"><ele>0.9999999999999999</ele><time>2026-05-02T13:57:25.302Z</time></trkpt><trkpt lat="40.904915" lon="14.0391"><ele>1.0</ele><time>2026-05-02T13:57:26.309Z</time></trkpt><trkpt lat="40.904845" lon="14.0391283"><ele>1.0</ele><time>2026-05-02T13:57:27.302Z</time></trkpt><trkpt lat="40.904765" lon="14.0391517"><ele>1.0</ele><time>2026-05-02T13:57:28.301Z</time></trkpt><trkpt lat="40.9046817" lon="14.0391717"><ele>0.9999999999999999</ele><time>2026-05-02T13:57:29.301Z</time></trkpt><trkpt lat="40.9045983" lon="14.0391983"><ele>1.0</ele><time>2026-05-02T13:57:30.302Z</time></trkpt><trkpt lat="40.9045133" lon="14.039225"><ele>0.9999999999999999</ele><time>2026-05-02T13:57:31.303Z</time></trkpt><trkpt lat="40.904425" lon="14.0392533"><ele>1.0</ele><time>2026-05-02T13:57:32.302Z</time></trkpt><trkpt lat="40.9043383" lon="14.03928"><ele>1.0</ele><time>2026-05-02T13:57:33.302Z</time></trkpt><trkpt lat="40.9042533" lon="14.039305"><ele>1.0</ele><time>2026-05-02T13:57:34.302Z</time></trkpt><trkpt lat="40.9041733" lon="14.0393233"><ele>0.9999999999999999</ele><time>2026-05-02T13:57:35.303Z</time></trkpt><trkpt lat="40.9040917" lon="14.039345"><ele>1.0</ele><time>2026-05-02T13:57:36.303Z</time></trkpt><trkpt lat="40.9040083" lon="14.0393717"><ele>0.9999999999999999</ele><time>2026-05-02T13:57:37.302Z</time></trkpt><trkpt lat="40.9039233" lon="14.039395"><ele>1.0</ele><time>2026-05-02T13:57:38.303Z</time></trkpt><trkpt lat="40.9038417" lon="14.03942"><ele>1.0</ele><time>2026-05-02T13:57:39.301Z</time></trkpt><trkpt lat="40.9037633" lon="14.0394433"><ele>1.0</ele><time>2026-05-02T13:57:40.306Z</time></trkpt><trkpt lat="40.90369" lon="14.0394633"><ele>0.9999999999999999</ele><time>2026-05-02T13:57:41.302Z</time></trkpt><trkpt lat="40.9036167" lon="14.039485"><ele>1.0</ele><time>2026-05-02T13:57:42.301Z</time></trkpt><trkpt lat="40.90354" lon="14.0394967"><ele>0.9999999999999999</ele><time>2026-05-02T13:57:43.303Z</time></trkpt><trkpt lat="40.9034583" lon="14.03952"><ele>1.0</ele><time>2026-05-02T13:57:44.302Z</time></trkpt><trkpt lat="40.9033783" lon="14.0395483"><ele>1.0</ele><time>2026-05-02T13:57:45.302Z</time></trkpt><trkpt lat="40.9033017" lon="14.0395733"><ele>1.0</ele><time>2026-05-02T13:57:46.304Z</time></trkpt><trkpt lat="40.9032267" lon="14.0395983"><ele>0.9999999999999999</ele><time>2026-05-02T13:57:47.308Z</time></trkpt><trkpt lat="40.9031467" lon="14.0396217"><ele>1.0</ele><time>2026-05-02T13:57:48.303Z</time></trkpt><trkpt lat="40.9030633" lon="14.039645"><ele>1.1666666666666665</ele><time>2026-05-02T13:57:49.303Z</time></trkpt><trkpt lat="40.90298" lon="14.0396683"><ele>1.3333333333333333</ele><time>2026-05-02T13:57:50.306Z</time></trkpt><trkpt lat="40.9028933" lon="14.039695"><ele>1.5</ele><time>2026-05-02T13:57:51.302Z</time></trkpt><trkpt lat="40.9028083" lon="14.0397217"><ele>1.6666666666666665</ele><time>2026-05-02T13:57:52.303Z</time></trkpt><trkpt lat="40.902725" lon="14.039745"><ele>1.8333333333333333</ele><time>2026-05-02T13:57:53.302Z</time></trkpt><trkpt lat="40.9026433" lon="14.039765"><ele>2.0</ele><time>2026-05-02T13:57:54.302Z</time></trkpt><trkpt lat="40.9025617" lon="14.0397867"><ele>1.6666666666666665</ele><time>2026-05-02T13:57:55.304Z</time></trkpt><trkpt lat="40.902485" lon="14.03981"><ele>1.3333333333333333</ele><time>2026-05-02T13:57:56.302Z</time></trkpt><trkpt lat="40.9024083" lon="14.039835"><ele>1.0</ele><time>2026-05-02T13:57:57.302Z</time></trkpt><trkpt lat="40.9023317" lon="14.0398583"><ele>0.6666666666666666</ele><time>2026-05-02T13:57:58.302Z</time></trkpt><trkpt lat="40.9022567" lon="14.0398767"><ele>0.3333333333333333</ele><time>2026-05-02T13:57:59.302Z</time></trkpt><trkpt lat="40.9021833" lon="14.0398967"><ele>0.0</ele><time>2026-05-02T13:58:00.302Z</time></trkpt><trkpt lat="40.9021117" lon="14.0399167"><ele>0.0</ele><time>2026-05-02T13:58:01.303Z</time></trkpt><trkpt lat="40.9020383" lon="14.0399367"><ele>0.0</ele><time>2026-05-02T13:58:02.301Z</time></trkpt><trkpt lat="40.9019667" lon="14.0399567"><ele>0.0</ele><time>2026-05-02T13:58:03.304Z</time></trkpt><trkpt lat="40.9018917" lon="14.0399783"><ele>0.0</ele><time>2026-05-02T13:58:04.301Z</time></trkpt><trkpt lat="40.9018167" lon="14.04"><ele>0.0</ele><time>2026-05-02T13:58:05.306Z</time></trkpt><trkpt lat="40.9017383" lon="14.0400217"><ele>0.0</ele><time>2026-05-02T13:58:06.302Z</time></trkpt><trkpt lat="40.9016583" lon="14.0400433"><ele>0.16666666666666666</ele><time>2026-05-02T13:58:07.302Z</time></trkpt><trkpt lat="40.9015817" lon="14.040065"><ele>0.3333333333333333</ele><time>2026-05-02T13:58:08.302Z</time></trkpt><trkpt lat="40.901505" lon="14.0400917"><ele>0.5</ele><time>2026-05-02T13:58:09.302Z</time></trkpt><trkpt lat="40.90143" lon="14.04012"><ele>0.6666666666666666</ele><time>2026-05-02T13:58:10.302Z</time></trkpt><trkpt lat="40.9013517" lon="14.040145"><ele>0.8333333333333333</ele><time>2026-05-02T13:58:11.302Z</time></trkpt><trkpt lat="40.9012733" lon="14.0401733"><ele>1.0</ele><time>2026-05-02T13:58:12.302Z</time></trkpt><trkpt lat="40.9011967" lon="14.0401983"><ele>0.9999999999999999</ele><time>2026-05-02T13:58:13.303Z</time></trkpt><trkpt lat="40.9011183" lon="14.0402217"><ele>1.0</ele><time>2026-05-02T13:58:14.302Z</time></trkpt><trkpt lat="40.9010517" lon="14.040245"><ele>1.0</ele><time>2026-05-02T13:58:15.301Z</time></trkpt><trkpt lat="40.900945" lon="14.04029"><ele>1.0</ele><time>2026-05-02T13:58:17.303Z</time></trkpt><trkpt lat="40.9008567" lon="14.0403317"><ele>0.9999999999999999</ele><time>2026-05-02T13:58:19.303Z</time></trkpt><trkpt lat="40.9007833" lon="14.0403367"><ele>1.0</ele><time>2026-05-02T13:58:21.302Z</time></trkpt><trkpt lat="40.9007167" lon="14.0403083"><ele>1.1666666666666665</ele><time>2026-05-02T13:58:23.303Z</time></trkpt><trkpt lat="40.90065" lon="14.0402817"><ele>1.3333333333333333</ele><time>2026-05-02T13:58:25.304Z</time></trkpt><trkpt lat="40.9005817" lon="14.040285"><ele>1.5</ele><time>2026-05-02T13:58:27.302Z</time></trkpt><trkpt lat="40.90053" lon="14.040355"><ele>1.6666666666666665</ele><time>2026-05-02T13:58:29.302Z</time></trkpt><trkpt lat="40.900485" lon="14.0404633"><ele>1.8333333333333333</ele><time>2026-05-02T13:58:31.303Z</time></trkpt><trkpt lat="40.90042" lon="14.0405717"><ele>2.0</ele><time>2026-05-02T13:58:33.302Z</time></trkpt><trkpt lat="40.9003283" lon="14.0406867"><ele>2.0</ele><time>2026-05-02T13:58:35.302Z</time></trkpt><trkpt lat="40.900275" lon="14.0407483"><ele>1.9999999999999998</ele><time>2026-05-02T13:58:36.302Z</time></trkpt><trkpt lat="40.9002267" lon="14.0408083"><ele>2.0</ele><time>2026-05-02T13:58:37.304Z</time></trkpt><trkpt lat="40.900175" lon="14.0408717"><ele>2.0</ele><time>2026-05-02T13:58:38.302Z</time></trkpt><trkpt lat="40.900125" lon="14.0409383"><ele>1.9999999999999998</ele><time>2026-05-02T13:58:39.302Z</time></trkpt><trkpt lat="40.9000733" lon="14.0410017"><ele>2.0</ele><time>2026-05-02T13:58:40.302Z</time></trkpt><trkpt lat="40.9000183" lon="14.0410667"><ele>2.0</ele><time>2026-05-02T13:58:41.304Z</time></trkpt><trkpt lat="40.8999683" lon="14.0411333"><ele>1.9999999999999998</ele><time>2026-05-02T13:58:42.302Z</time></trkpt><trkpt lat="40.8999167" lon="14.041205"><ele>2.0</ele><time>2026-05-02T13:58:43.302Z</time></trkpt><trkpt lat="40.8998667" lon="14.0412767"><ele>2.0</ele><time>2026-05-02T13:58:44.302Z</time></trkpt><trkpt lat="40.8998117" lon="14.0413517"><ele>2.0</ele><time>2026-05-02T13:58:45.3Z</time></trkpt><trkpt lat="40.8997567" lon="14.041425"><ele>1.9999999999999998</ele><time>2026-05-02T13:58:46.302Z</time></trkpt><trkpt lat="40.8996967" lon="14.0414983"><ele>2.0</ele><time>2026-05-02T13:58:47.304Z</time></trkpt><trkpt lat="40.8996267" lon="14.041575"><ele>2.1666666666666665</ele><time>2026-05-02T13:58:48.303Z</time></trkpt><trkpt lat="40.8995683" lon="14.0416533"><ele>2.333333333333333</ele><time>2026-05-02T13:58:49.303Z</time></trkpt><trkpt lat="40.8995133" lon="14.0417333"><ele>2.5</ele><time>2026-05-02T13:58:50.303Z</time></trkpt><trkpt lat="40.899455" lon="14.0418117"><ele>2.6666666666666665</ele><time>2026-05-02T13:58:51.301Z</time></trkpt><trkpt lat="40.8993967" lon="14.0418917"><ele>2.8333333333333335</ele><time>2026-05-02T13:58:52.305Z</time></trkpt><trkpt lat="40.899335" lon="14.0419683"><ele>3.0</ele><time>2026-05-02T13:58:53.302Z</time></trkpt><trkpt lat="40.8992783" lon="14.042045"><ele>3.0</ele><time>2026-05-02T13:58:54.301Z</time></trkpt><trkpt lat="40.89922" lon="14.0421217"><ele>3.0</ele><time>2026-05-02T13:58:55.302Z</time></trkpt><trkpt lat="40.899165" lon="14.0422"><ele>3.0</ele><time>2026-05-02T13:58:56.302Z</time></trkpt><trkpt lat="40.899105" lon="14.0422767"><ele>3.0</ele><time>2026-05-02T13:58:57.303Z</time></trkpt><trkpt lat="40.8990483" lon="14.04235"><ele>3.0</ele><time>2026-05-02T13:58:58.301Z</time></trkpt><trkpt lat="40.8989883" lon="14.0424267"><ele>3.0</ele><time>2026-05-02T13:58:59.302Z</time></trkpt><trkpt lat="40.8989267" lon="14.0425017"><ele>3.0</ele><time>2026-05-02T13:59:00.302Z</time></trkpt><trkpt lat="40.8988683" lon="14.0425733"><ele>3.0</ele><time>2026-05-02T13:59:01.303Z</time></trkpt><trkpt lat="40.8988067" lon="14.04265"><ele>3.0</ele><time>2026-05-02T13:59:02.302Z</time></trkpt><trkpt lat="40.8987517" lon="14.042725"><ele>3.0</ele><time>2026-05-02T13:59:03.302Z</time></trkpt><trkpt lat="40.8987" lon="14.0427967"><ele>3.0</ele><time>2026-05-02T13:59:04.302Z</time></trkpt><trkpt lat="40.8986433" lon="14.0428683"><ele>3.0</ele><time>2026-05-02T13:59:05.302Z</time></trkpt><trkpt lat="40.8985883" lon="14.0429383"><ele>2.9999999999999996</ele><time>2026-05-02T13:59:06.302Z</time></trkpt><trkpt lat="40.898535" lon="14.0430067"><ele>3.0</ele><time>2026-05-02T13:59:07.302Z</time></trkpt><trkpt lat="40.8984783" lon="14.043075"><ele>3.0</ele><time>2026-05-02T13:59:08.302Z</time></trkpt><trkpt lat="40.8984233" lon="14.0431417"><ele>3.0</ele><time>2026-05-02T13:59:09.302Z</time></trkpt><trkpt lat="40.8983683" lon="14.043205"><ele>3.0</ele><time>2026-05-02T13:59:10.302Z</time></trkpt><trkpt lat="40.8983117" lon="14.0432667"><ele>2.9999999999999996</ele><time>2026-05-02T13:59:11.303Z</time></trkpt><trkpt lat="40.8982517" lon="14.04333"><ele>3.0</ele><time>2026-05-02T13:59:12.302Z</time></trkpt><trkpt lat="40.8981883" lon="14.04339"><ele>2.6666666666666665</ele><time>2026-05-02T13:59:13.302Z</time></trkpt><trkpt lat="40.898125" lon="14.04345"><ele>2.3333333333333335</ele><time>2026-05-02T13:59:14.304Z</time></trkpt><trkpt lat="40.89806" lon="14.0435067"><ele>2.0</ele><time>2026-05-02T13:59:15.302Z</time></trkpt><trkpt lat="40.8979983" lon="14.0435633"><ele>1.6666666666666665</ele><time>2026-05-02T13:59:16.303Z</time></trkpt><trkpt lat="40.89793" lon="14.043615"><ele>1.3333333333333333</ele><time>2026-05-02T13:59:17.303Z</time></trkpt><trkpt lat="40.8978617" lon="14.0436667"><ele>1.0</ele><time>2026-05-02T13:59:18.302Z</time></trkpt><trkpt lat="40.8977933" lon="14.0437133"><ele>1.0</ele><time>2026-05-02T13:59:19.303Z</time></trkpt><trkpt lat="40.8977267" lon="14.043755"><ele>0.9999999999999999</ele><time>2026-05-02T13:59:20.302Z</time></trkpt><trkpt lat="40.8976617" lon="14.043795"><ele>1.0</ele><time>2026-05-02T13:59:21.302Z</time></trkpt><trkpt lat="40.8975967" lon="14.043835"><ele>1.0</ele><time>2026-05-02T13:59:22.302Z</time></trkpt><trkpt lat="40.897525" lon="14.0438733"><ele>0.9999999999999999</ele><time>2026-05-02T13:59:23.302Z</time></trkpt><trkpt lat="40.8974567" lon="14.0439067"><ele>1.0</ele><time>2026-05-02T13:59:24.303Z</time></trkpt><trkpt lat="40.89739" lon="14.0439367"><ele>1.0</ele><time>2026-05-02T13:59:25.303Z</time></trkpt><trkpt lat="40.897325" lon="14.0439667"><ele>1.0</ele><time>2026-05-02T13:59:26.304Z</time></trkpt><trkpt lat="40.89726" lon="14.0439883"><ele>0.9999999999999999</ele><time>2026-05-02T13:59:27.302Z</time></trkpt><trkpt lat="40.8971917" lon="14.04401"><ele>1.0</ele><time>2026-05-02T13:59:28.302Z</time></trkpt><trkpt lat="40.897125" lon="14.04403"><ele>1.0</ele><time>2026-05-02T13:59:29.303Z</time></trkpt><trkpt lat="40.8970517" lon="14.0440517"><ele>0.9999999999999999</ele><time>2026-05-02T13:59:30.303Z</time></trkpt><trkpt lat="40.8969817" lon="14.04407"><ele>1.0</ele><time>2026-05-02T13:59:31.302Z</time></trkpt><trkpt lat="40.8969083" lon="14.044085"><ele>1.0</ele><time>2026-05-02T13:59:32.303Z</time></trkpt><trkpt lat="40.896835" lon="14.0441"><ele>0.9999999999999999</ele><time>2026-05-02T13:59:33.302Z</time></trkpt><trkpt lat="40.8967633" lon="14.0441167"><ele>1.0</ele><time>2026-05-02T13:59:34.303Z</time></trkpt><trkpt lat="40.89669" lon="14.0441333"><ele>1.0</ele><time>2026-05-02T13:59:35.302Z</time></trkpt><trkpt lat="40.8966167" lon="14.0441467"><ele>1.0</ele><time>2026-05-02T13:59:36.302Z</time></trkpt><trkpt lat="40.8965417" lon="14.044165"><ele>0.9999999999999999</ele><time>2026-05-02T13:59:37.303Z</time></trkpt><trkpt lat="40.8964667" lon="14.044185"><ele>1.0</ele><time>2026-05-02T13:59:38.303Z</time></trkpt><trkpt lat="40.89639" lon="14.044205"><ele>1.0</ele><time>2026-05-02T13:59:39.303Z</time></trkpt><trkpt lat="40.8963167" lon="14.044225"><ele>0.9999999999999999</ele><time>2026-05-02T13:59:40.303Z</time></trkpt><trkpt lat="40.896245" lon="14.044245"><ele>1.0</ele><time>2026-05-02T13:59:41.304Z</time></trkpt><trkpt lat="40.8961717" lon="14.04426"><ele>1.0</ele><time>2026-05-02T13:59:42.302Z</time></trkpt><trkpt lat="40.8960983" lon="14.04427"><ele>0.9999999999999999</ele><time>2026-05-02T13:59:43.303Z</time></trkpt><trkpt lat="40.896025" lon="14.0442833"><ele>1.0</ele><time>2026-05-02T13:59:44.302Z</time></trkpt><trkpt lat="40.89595" lon="14.044295"><ele>1.0</ele><time>2026-05-02T13:59:45.302Z</time></trkpt><trkpt lat="40.8958733" lon="14.0443117"><ele>0.8333333333333333</ele><time>2026-05-02T13:59:46.303Z</time></trkpt><trkpt lat="40.8958" lon="14.04433"><ele>0.6666666666666666</ele><time>2026-05-02T13:59:47.302Z</time></trkpt><trkpt lat="40.895725" lon="14.0443517"><ele>0.5</ele><time>2026-05-02T13:59:48.302Z</time></trkpt><trkpt lat="40.8956517" lon="14.0443683"><ele>0.3333333333333333</ele><time>2026-05-02T13:59:49.303Z</time></trkpt><trkpt lat="40.8955767" lon="14.04439"><ele>0.16666666666666666</ele><time>2026-05-02T13:59:50.304Z</time></trkpt><trkpt lat="40.8955017" lon="14.044405"><ele>0.0</ele><time>2026-05-02T13:59:51.302Z</time></trkpt><trkpt lat="40.895425" lon="14.04442"><ele>0.0</ele><time>2026-05-02T13:59:52.303Z</time></trkpt><trkpt lat="40.89535" lon="14.0444317"><ele>0.0</ele><time>2026-05-02T13:59:53.302Z</time></trkpt><trkpt lat="40.895275" lon="14.0444483"><ele>0.0</ele><time>2026-05-02T13:59:54.304Z</time></trkpt><trkpt lat="40.895195" lon="14.0444667"><ele>0.0</ele><time>2026-05-02T13:59:55.303Z</time></trkpt><trkpt lat="40.8951183" lon="14.0444867"><ele>0.0</ele><time>2026-05-02T13:59:56.303Z</time></trkpt><trkpt lat="40.8950417" lon="14.0445067"><ele>0.0</ele><time>2026-05-02T13:59:57.301Z</time></trkpt><trkpt lat="40.8949667" lon="14.0445317"><ele>0.16666666666666666</ele><time>2026-05-02T13:59:58.302Z</time></trkpt><trkpt lat="40.8948917" lon="14.0445517"><ele>0.3333333333333333</ele><time>2026-05-02T13:59:59.303Z</time></trkpt><trkpt lat="40.894815" lon="14.04457"><ele>0.5</ele><time>2026-05-02T14:00:00.303Z</time></trkpt><trkpt lat="40.8947383" lon="14.0445833"><ele>0.6666666666666666</ele><time>2026-05-02T14:00:01.304Z</time></trkpt><trkpt lat="40.8946567" lon="14.044605"><ele>0.8333333333333333</ele><time>2026-05-02T14:00:02.302Z</time></trkpt><trkpt lat="40.8945717" lon="14.0446267"><ele>1.0</ele><time>2026-05-02T14:00:03.303Z</time></trkpt><trkpt lat="40.89449" lon="14.0446433"><ele>0.9999999999999999</ele><time>2026-05-02T14:00:04.302Z</time></trkpt><trkpt lat="40.8944117" lon="14.0446583"><ele>1.0</ele><time>2026-05-02T14:00:05.303Z</time></trkpt><trkpt lat="40.8943367" lon="14.0446783"><ele>1.0</ele><time>2026-05-02T14:00:06.303Z</time></trkpt><trkpt lat="40.8942533" lon="14.0447"><ele>1.0</ele><time>2026-05-02T14:00:07.303Z</time></trkpt><trkpt lat="40.8941717" lon="14.0447183"><ele>0.9999999999999999</ele><time>2026-05-02T14:00:08.302Z</time></trkpt><trkpt lat="40.8940883" lon="14.04474"><ele>1.0</ele><time>2026-05-02T14:00:09.302Z</time></trkpt><trkpt lat="40.894005" lon="14.04476"><ele>0.8571428571428571</ele><time>2026-05-02T14:00:10.302Z</time></trkpt><trkpt lat="40.8939333" lon="14.0447717"><ele>0.7142857142857142</ele><time>2026-05-02T14:00:11.303Z</time></trkpt><trkpt lat="40.89386" lon="14.044785"><ele>0.5714285714285714</ele><time>2026-05-02T14:00:12.302Z</time></trkpt><trkpt lat="40.89379" lon="14.0448"><ele>0.42857142857142855</ele><time>2026-05-02T14:00:13.303Z</time></trkpt><trkpt lat="40.893715" lon="14.0448117"><ele>0.2857142857142857</ele><time>2026-05-02T14:00:14.302Z</time></trkpt><trkpt lat="40.8936433" lon="14.0448233"><ele>0.14285714285714285</ele><time>2026-05-02T14:00:15.302Z</time></trkpt><trkpt lat="40.8935717" lon="14.0448417"><ele>0.0</ele><time>2026-05-02T14:00:16.301Z</time></trkpt><trkpt lat="40.8934967" lon="14.0448617"><ele>0.0</ele><time>2026-05-02T14:00:17.303Z</time></trkpt><trkpt lat="40.8934217" lon="14.0448817"><ele>0.0</ele><time>2026-05-02T14:00:18.303Z</time></trkpt><trkpt lat="40.8933433" lon="14.0449017"><ele>0.0</ele><time>2026-05-02T14:00:19.303Z</time></trkpt><trkpt lat="40.89327" lon="14.04492"><ele>0.0</ele><time>2026-05-02T14:00:20.303Z</time></trkpt><trkpt lat="40.8931967" lon="14.0449383"><ele>0.0</ele><time>2026-05-02T14:00:21.304Z</time></trkpt><trkpt lat="40.8931183" lon="14.0449617"><ele>0.0</ele><time>2026-05-02T14:00:22.303Z</time></trkpt><trkpt lat="40.89304" lon="14.0449817"><ele>0.0</ele><time>2026-05-02T14:00:23.302Z</time></trkpt><trkpt lat="40.892945" lon="14.0450067"><ele>0.0</ele><time>2026-05-02T14:00:24.303Z</time></trkpt><trkpt lat="40.8928667" lon="14.0450217"><ele>0.0</ele><time>2026-05-02T14:00:25.303Z</time></trkpt><trkpt lat="40.8927867" lon="14.045035"><ele>0.0</ele><time>2026-05-02T14:00:26.302Z</time></trkpt><trkpt lat="40.8927067" lon="14.0450517"><ele>0.0</ele><time>2026-05-02T14:00:27.302Z</time></trkpt><trkpt lat="40.8926233" lon="14.0450667"><ele>0.0</ele><time>2026-05-02T14:00:28.303Z</time></trkpt><trkpt lat="40.89254" lon="14.0450817"><ele>0.16666666666666666</ele><time>2026-05-02T14:00:29.303Z</time></trkpt><trkpt lat="40.8924583" lon="14.0450983"><ele>0.3333333333333333</ele><time>2026-05-02T14:00:30.303Z</time></trkpt><trkpt lat="40.8923767" lon="14.0451167"><ele>0.5</ele><time>2026-05-02T14:00:31.302Z</time></trkpt><trkpt lat="40.8922933" lon="14.0451383"><ele>0.6666666666666666</ele><time>2026-05-02T14:00:32.303Z</time></trkpt><trkpt lat="40.8922083" lon="14.0451567"><ele>0.8333333333333333</ele><time>2026-05-02T14:00:33.304Z</time></trkpt><trkpt lat="40.8921217" lon="14.0451733"><ele>1.0</ele><time>2026-05-02T14:00:34.304Z</time></trkpt><trkpt lat="40.8920367" lon="14.04519"><ele>0.9999999999999999</ele><time>2026-05-02T14:00:35.302Z</time></trkpt><trkpt lat="40.8919533" lon="14.0452067"><ele>1.0</ele><time>2026-05-02T14:00:36.302Z</time></trkpt><trkpt lat="40.8918717" lon="14.045225"><ele>1.0</ele><time>2026-05-02T14:00:37.304Z</time></trkpt><trkpt lat="40.8917933" lon="14.0452467"><ele>1.0</ele><time>2026-05-02T14:00:38.304Z</time></trkpt><trkpt lat="40.8917117" lon="14.0452683"><ele>0.9999999999999999</ele><time>2026-05-02T14:00:39.302Z</time></trkpt><trkpt lat="40.891635" lon="14.0452883"><ele>1.0</ele><time>2026-05-02T14:00:40.303Z</time></trkpt><trkpt lat="40.891555" lon="14.0453083"><ele>0.8333333333333333</ele><time>2026-05-02T14:00:41.303Z</time></trkpt><trkpt lat="40.8914733" lon="14.0453317"><ele>0.6666666666666666</ele><time>2026-05-02T14:00:42.302Z</time></trkpt><trkpt lat="40.891395" lon="14.04535"><ele>0.5</ele><time>2026-05-02T14:00:43.303Z</time></trkpt><trkpt lat="40.8913183" lon="14.0453683"><ele>0.3333333333333333</ele><time>2026-05-02T14:00:44.303Z</time></trkpt><trkpt lat="40.8912383" lon="14.0453867"><ele>0.16666666666666666</ele><time>2026-05-02T14:00:45.302Z</time></trkpt><trkpt lat="40.8911567" lon="14.0454067"><ele>0.0</ele><time>2026-05-02T14:00:46.302Z</time></trkpt><trkpt lat="40.8910733" lon="14.0454267"><ele>0.0</ele><time>2026-05-02T14:00:47.303Z</time></trkpt><trkpt lat="40.8909883" lon="14.045445"><ele>0.0</ele><time>2026-05-02T14:00:48.302Z</time></trkpt><trkpt lat="40.890905" lon="14.0454617"><ele>0.0</ele><time>2026-05-02T14:00:49.304Z</time></trkpt><trkpt lat="40.890815" lon="14.0454817"><ele>0.0</ele><time>2026-05-02T14:00:50.302Z</time></trkpt><trkpt lat="40.8907267" lon="14.045505"><ele>0.0</ele><time>2026-05-02T14:00:51.302Z</time></trkpt><trkpt lat="40.8906367" lon="14.0455267"><ele>0.0</ele><time>2026-05-02T14:00:52.303Z</time></trkpt><trkpt lat="40.8905467" lon="14.0455483"><ele>-0.4</ele><time>2026-05-02T14:00:53.303Z</time></trkpt><trkpt lat="40.8904567" lon="14.0455733"><ele>-0.8</ele><time>2026-05-02T14:00:54.302Z</time></trkpt><trkpt lat="40.8903683" lon="14.0455933"><ele>-1.2000000000000002</ele><time>2026-05-02T14:00:55.303Z</time></trkpt><trkpt lat="40.8902833" lon="14.045615"><ele>-1.6</ele><time>2026-05-02T14:00:56.302Z</time></trkpt><trkpt lat="40.8901917" lon="14.04564"><ele>-2.0</ele><time>2026-05-02T14:00:57.302Z</time></trkpt><trkpt lat="40.890105" lon="14.0456633"><ele>-1.8333333333333333</ele><time>2026-05-02T14:00:58.302Z</time></trkpt><trkpt lat="40.8900233" lon="14.0456817"><ele>-1.6666666666666665</ele><time>2026-05-02T14:00:59.303Z</time></trkpt><trkpt lat="40.8899383" lon="14.045695"><ele>-1.5</ele><time>2026-05-02T14:01:00.302Z</time></trkpt><trkpt lat="40.8898533" lon="14.0457067"><ele>-1.3333333333333333</ele><time>2026-05-02T14:01:01.302Z</time></trkpt><trkpt lat="40.8897683" lon="14.04572"><ele>-1.1666666666666665</ele><time>2026-05-02T14:01:02.302Z</time></trkpt><trkpt lat="40.8896867" lon="14.0457383"><ele>-1.0</ele><time>2026-05-02T14:01:03.301Z</time></trkpt><trkpt lat="40.8896033" lon="14.0457617"><ele>-0.9999999999999999</ele><time>2026-05-02T14:01:04.302Z</time></trkpt><trkpt lat="40.8895217" lon="14.0457767"><ele>-1.0</ele><time>2026-05-02T14:01:05.302Z</time></trkpt><trkpt lat="40.8894367" lon="14.045795"><ele>-1.0</ele><time>2026-05-02T14:01:06.301Z</time></trkpt><trkpt lat="40.889355" lon="14.0458117"><ele>-1.0</ele><time>2026-05-02T14:01:07.302Z</time></trkpt><trkpt lat="40.8892717" lon="14.04583"><ele>-0.9999999999999999</ele><time>2026-05-02T14:01:08.303Z</time></trkpt><trkpt lat="40.88919" lon="14.0458483"><ele>-1.0</ele><time>2026-05-02T14:01:09.302Z</time></trkpt><trkpt lat="40.8891067" lon="14.04586"><ele>-1.3333333333333333</ele><time>2026-05-02T14:01:10.303Z</time></trkpt><trkpt lat="40.8890217" lon="14.0458767"><ele>-1.6666666666666665</ele><time>2026-05-02T14:01:11.303Z</time></trkpt><trkpt lat="40.888935" lon="14.045895"><ele>-2.0</ele><time>2026-05-02T14:01:12.303Z</time></trkpt><trkpt lat="40.8888467" lon="14.0459167"><ele>-2.3333333333333335</ele><time>2026-05-02T14:01:13.302Z</time></trkpt><trkpt lat="40.8887617" lon="14.04594"><ele>-2.6666666666666665</ele><time>2026-05-02T14:01:14.303Z</time></trkpt><trkpt lat="40.88868" lon="14.0459583"><ele>-3.0</ele><time>2026-05-02T14:01:15.302Z</time></trkpt><trkpt lat="40.8885933" lon="14.0459767"><ele>-3.0</ele><time>2026-05-02T14:01:16.303Z</time></trkpt><trkpt lat="40.8885083" lon="14.045995"><ele>-3.0</ele><time>2026-05-02T14:01:17.303Z</time></trkpt><trkpt lat="40.888425" lon="14.0460133"><ele>-3.0</ele><time>2026-05-02T14:01:18.302Z</time></trkpt><trkpt lat="40.88834" lon="14.0460317"><ele>-3.0</ele><time>2026-05-02T14:01:19.303Z</time></trkpt><trkpt lat="40.88825" lon="14.04605"><ele>-3.0</ele><time>2026-05-02T14:01:20.304Z</time></trkpt><trkpt lat="40.8881583" lon="14.04607"><ele>-3.0</ele><time>2026-05-02T14:01:21.302Z</time></trkpt><trkpt lat="40.8880667" lon="14.04609"><ele>-3.1666666666666665</ele><time>2026-05-02T14:01:22.302Z</time></trkpt><trkpt lat="40.88798" lon="14.0461117"><ele>-3.333333333333333</ele><time>2026-05-02T14:01:23.303Z</time></trkpt><trkpt lat="40.8878917" lon="14.04613"><ele>-3.5</ele><time>2026-05-02T14:01:24.302Z</time></trkpt><trkpt lat="40.887805" lon="14.0461483"><ele>-3.6666666666666665</ele><time>2026-05-02T14:01:25.303Z</time></trkpt><trkpt lat="40.8877167" lon="14.0461683"><ele>-3.833333333333333</ele><time>2026-05-02T14:01:26.306Z</time></trkpt><trkpt lat="40.88763" lon="14.0461883"><ele>-4.0</ele><time>2026-05-02T14:01:27.302Z</time></trkpt><trkpt lat="40.8875433" lon="14.0462083"><ele>-4.166666666666666</ele><time>2026-05-02T14:01:28.304Z</time></trkpt><trkpt lat="40.8874567" lon="14.0462283"><ele>-4.333333333333333</ele><time>2026-05-02T14:01:29.303Z</time></trkpt><trkpt lat="40.88737" lon="14.0462517"><ele>-4.5</ele><time>2026-05-02T14:01:30.302Z</time></trkpt><trkpt lat="40.887285" lon="14.04627"><ele>-4.666666666666667</ele><time>2026-05-02T14:01:31.303Z</time></trkpt><trkpt lat="40.8872" lon="14.0462917"><ele>-4.833333333333334</ele><time>2026-05-02T14:01:32.302Z</time></trkpt><trkpt lat="40.8871133" lon="14.0463133"><ele>-5.0</ele><time>2026-05-02T14:01:33.302Z</time></trkpt><trkpt lat="40.8870317" lon="14.0463333"><ele>-5.0</ele><time>2026-05-02T14:01:34.302Z</time></trkpt><trkpt lat="40.8869483" lon="14.0463467"><ele>-5.0</ele><time>2026-05-02T14:01:35.303Z</time></trkpt><trkpt lat="40.8868667" lon="14.0463633"><ele>-5.0</ele><time>2026-05-02T14:01:36.302Z</time></trkpt><trkpt lat="40.8867817" lon="14.0463817"><ele>-5.0</ele><time>2026-05-02T14:01:37.302Z</time></trkpt><trkpt lat="40.8866933" lon="14.0464017"><ele>-5.0</ele><time>2026-05-02T14:01:38.303Z</time></trkpt><trkpt lat="40.8866083" lon="14.04642"><ele>-5.0</ele><time>2026-05-02T14:01:39.302Z</time></trkpt><trkpt lat="40.886525" lon="14.0464417"><ele>-4.5</ele><time>2026-05-02T14:01:40.302Z</time></trkpt><trkpt lat="40.886445" lon="14.046465"><ele>-4.0</ele><time>2026-05-02T14:01:41.303Z</time></trkpt><trkpt lat="40.8863617" lon="14.0464833"><ele>-3.5</ele><time>2026-05-02T14:01:42.302Z</time></trkpt><trkpt lat="40.8862767" lon="14.0465017"><ele>-3.0</ele><time>2026-05-02T14:01:43.303Z</time></trkpt><trkpt lat="40.886195" lon="14.0465233"><ele>-2.5</ele><time>2026-05-02T14:01:44.302Z</time></trkpt><trkpt lat="40.8861117" lon="14.0465433"><ele>-2.0</ele><time>2026-05-02T14:01:45.303Z</time></trkpt><trkpt lat="40.88603" lon="14.0465583"><ele>-1.9999999999999998</ele><time>2026-05-02T14:01:46.302Z</time></trkpt><trkpt lat="40.885945" lon="14.0465733"><ele>-2.0</ele><time>2026-05-02T14:01:47.303Z</time></trkpt><trkpt lat="40.8858567" lon="14.0465917"><ele>-2.0</ele><time>2026-05-02T14:01:48.302Z</time></trkpt><trkpt lat="40.88577" lon="14.0466117"><ele>-2.0</ele><time>2026-05-02T14:01:49.302Z</time></trkpt><trkpt lat="40.8856883" lon="14.0466317"><ele>-1.9999999999999998</ele><time>2026-05-02T14:01:50.302Z</time></trkpt><trkpt lat="40.8856083" lon="14.0466467"><ele>-2.0</ele><time>2026-05-02T14:01:51.302Z</time></trkpt><trkpt lat="40.8855283" lon="14.0466683"><ele>-1.8333333333333333</ele><time>2026-05-02T14:01:52.302Z</time></trkpt><trkpt lat="40.8854483" lon="14.0466883"><ele>-1.6666666666666665</ele><time>2026-05-02T14:01:53.303Z</time></trkpt><trkpt lat="40.8853683" lon="14.0467083"><ele>-1.5</ele><time>2026-05-02T14:01:54.303Z</time></trkpt><trkpt lat="40.8852867" lon="14.0467283"><ele>-1.3333333333333333</ele><time>2026-05-02T14:01:55.302Z</time></trkpt><trkpt lat="40.885205" lon="14.0467483"><ele>-1.1666666666666665</ele><time>2026-05-02T14:01:56.303Z</time></trkpt><trkpt lat="40.8851217" lon="14.0467733"><ele>-1.0</ele><time>2026-05-02T14:01:57.302Z</time></trkpt><trkpt lat="40.8850383" lon="14.0467967"><ele>-0.6666666666666666</ele><time>2026-05-02T14:01:58.303Z</time></trkpt><trkpt lat="40.8849533" lon="14.0468167"><ele>-0.3333333333333333</ele><time>2026-05-02T14:01:59.303Z</time></trkpt><trkpt lat="40.8848683" lon="14.0468367"><ele>0.0</ele><time>2026-05-02T14:02:00.302Z</time></trkpt><trkpt lat="40.8847867" lon="14.0468533"><ele>0.3333333333333333</ele><time>2026-05-02T14:02:01.303Z</time></trkpt><trkpt lat="40.8847017" lon="14.0468733"><ele>0.6666666666666666</ele><time>2026-05-02T14:02:02.303Z</time></trkpt><trkpt lat="40.884615" lon="14.0468917"><ele>1.0</ele><time>2026-05-02T14:02:03.302Z</time></trkpt><trkpt lat="40.88453" lon="14.04691"><ele>0.9999999999999999</ele><time>2026-05-02T14:02:04.305Z</time></trkpt><trkpt lat="40.8844467" lon="14.04693"><ele>1.0</ele><time>2026-05-02T14:02:05.304Z</time></trkpt><trkpt lat="40.8843633" lon="14.0469517"><ele>1.0</ele><time>2026-05-02T14:02:06.302Z</time></trkpt><trkpt lat="40.8842817" lon="14.0469717"><ele>1.0</ele><time>2026-05-02T14:02:07.303Z</time></trkpt><trkpt lat="40.8841967" lon="14.046995"><ele>0.9999999999999999</ele><time>2026-05-02T14:02:08.303Z</time></trkpt><trkpt lat="40.8841117" lon="14.0470167"><ele>1.0</ele><time>2026-05-02T14:02:09.302Z</time></trkpt><trkpt lat="40.884025" lon="14.0470367"><ele>1.1666666666666665</ele><time>2026-05-02T14:02:10.302Z</time></trkpt><trkpt lat="40.883935" lon="14.047055"><ele>1.3333333333333333</ele><time>2026-05-02T14:02:11.303Z</time></trkpt><trkpt lat="40.8838483" lon="14.0470717"><ele>1.5</ele><time>2026-05-02T14:02:12.302Z</time></trkpt><trkpt lat="40.883765" lon="14.0470867"><ele>1.6666666666666665</ele><time>2026-05-02T14:02:13.303Z</time></trkpt><trkpt lat="40.8836783" lon="14.047105"><ele>1.8333333333333333</ele><time>2026-05-02T14:02:14.302Z</time></trkpt><trkpt lat="40.88359" lon="14.0471233"><ele>2.0</ele><time>2026-05-02T14:02:15.302Z</time></trkpt><trkpt lat="40.8835033" lon="14.0471433"><ele>1.8333333333333333</ele><time>2026-05-02T14:02:16.303Z</time></trkpt><trkpt lat="40.8834167" lon="14.0471633"><ele>1.6666666666666665</ele><time>2026-05-02T14:02:17.303Z</time></trkpt><trkpt lat="40.88333" lon="14.0471833"><ele>1.5</ele><time>2026-05-02T14:02:18.302Z</time></trkpt><trkpt lat="40.88324" lon="14.0472017"><ele>1.3333333333333333</ele><time>2026-05-02T14:02:19.303Z</time></trkpt><trkpt lat="40.8831517" lon="14.0472233"><ele>1.1666666666666665</ele><time>2026-05-02T14:02:20.302Z</time></trkpt><trkpt lat="40.8830633" lon="14.0472467"><ele>1.0</ele><time>2026-05-02T14:02:21.303Z</time></trkpt><trkpt lat="40.882975" lon="14.0472683"><ele>0.9999999999999999</ele><time>2026-05-02T14:02:22.302Z</time></trkpt><trkpt lat="40.8828883" lon="14.04729"><ele>1.0</ele><time>2026-05-02T14:02:23.304Z</time></trkpt><trkpt lat="40.882805" lon="14.0473117"><ele>1.0</ele><time>2026-05-02T14:02:24.303Z</time></trkpt><trkpt lat="40.88272" lon="14.04733"><ele>1.0</ele><time>2026-05-02T14:02:25.303Z</time></trkpt><trkpt lat="40.882635" lon="14.04735"><ele>0.9999999999999999</ele><time>2026-05-02T14:02:26.302Z</time></trkpt><trkpt lat="40.88255" lon="14.0473667"><ele>1.0</ele><time>2026-05-02T14:02:27.303Z</time></trkpt><trkpt lat="40.8824633" lon="14.0473833"><ele>0.9999999999999999</ele><time>2026-05-02T14:02:28.303Z</time></trkpt><trkpt lat="40.8823767" lon="14.0474"><ele>1.0</ele><time>2026-05-02T14:02:29.303Z</time></trkpt><trkpt lat="40.8822883" lon="14.0474183"><ele>1.0</ele><time>2026-05-02T14:02:30.303Z</time></trkpt><trkpt lat="40.8822" lon="14.0474367"><ele>1.0</ele><time>2026-05-02T14:02:31.303Z</time></trkpt><trkpt lat="40.8821117" lon="14.047455"><ele>0.9999999999999999</ele><time>2026-05-02T14:02:32.302Z</time></trkpt><trkpt lat="40.882025" lon="14.0474733"><ele>1.0</ele><time>2026-05-02T14:02:33.302Z</time></trkpt><trkpt lat="40.88194" lon="14.0474917"><ele>0.8333333333333333</ele><time>2026-05-02T14:02:34.303Z</time></trkpt><trkpt lat="40.8818517" lon="14.0475083"><ele>0.6666666666666666</ele><time>2026-05-02T14:02:35.302Z</time></trkpt><trkpt lat="40.8817617" lon="14.0475217"><ele>0.5</ele><time>2026-05-02T14:02:36.303Z</time></trkpt><trkpt lat="40.8816717" lon="14.04754"><ele>0.3333333333333333</ele><time>2026-05-02T14:02:37.302Z</time></trkpt><trkpt lat="40.8815833" lon="14.0475667"><ele>0.16666666666666666</ele><time>2026-05-02T14:02:38.302Z</time></trkpt><trkpt lat="40.8814983" lon="14.0475933"><ele>0.0</ele><time>2026-05-02T14:02:39.302Z</time></trkpt><trkpt lat="40.8814117" lon="14.0476183"><ele>0.0</ele><time>2026-05-02T14:02:40.305Z</time></trkpt><trkpt lat="40.88132" lon="14.0476433"><ele>0.0</ele><time>2026-05-02T14:02:41.302Z</time></trkpt><trkpt lat="40.8812333" lon="14.047665"><ele>0.0</ele><time>2026-05-02T14:02:42.303Z</time></trkpt><trkpt lat="40.8811433" lon="14.04769"><ele>0.0</ele><time>2026-05-02T14:02:43.303Z</time></trkpt><trkpt lat="40.8810533" lon="14.047715"><ele>0.0</ele><time>2026-05-02T14:02:44.303Z</time></trkpt><trkpt lat="40.88096" lon="14.047735"><ele>0.0</ele><time>2026-05-02T14:02:45.302Z</time></trkpt><trkpt lat="40.8808667" lon="14.0477517"><ele>0.0</ele><time>2026-05-02T14:02:46.303Z</time></trkpt><trkpt lat="40.880775" lon="14.04777"><ele>0.0</ele><time>2026-05-02T14:02:47.303Z</time></trkpt><trkpt lat="40.8806833" lon="14.04779"><ele>0.0</ele><time>2026-05-02T14:02:48.304Z</time></trkpt><trkpt lat="40.8805883" lon="14.0478083"><ele>0.0</ele><time>2026-05-02T14:02:49.303Z</time></trkpt><trkpt lat="40.8804967" lon="14.0478283"><ele>0.0</ele><time>2026-05-02T14:02:50.302Z</time></trkpt><trkpt lat="40.8804033" lon="14.0478467"><ele>0.0</ele><time>2026-05-02T14:02:51.302Z</time></trkpt><trkpt lat="40.8803117" lon="14.0478683"><ele>0.0</ele><time>2026-05-02T14:02:52.303Z</time></trkpt><trkpt lat="40.8802233" lon="14.0478917"><ele>0.0</ele><time>2026-05-02T14:02:53.303Z</time></trkpt><trkpt lat="40.8801333" lon="14.0479183"><ele>0.0</ele><time>2026-05-02T14:02:54.304Z</time></trkpt><trkpt lat="40.8800417" lon="14.0479433"><ele>0.0</ele><time>2026-05-02T14:02:55.303Z</time></trkpt><trkpt lat="40.8799533" lon="14.0479617"><ele>0.0</ele><time>2026-05-02T14:02:56.303Z</time></trkpt><trkpt lat="40.879865" lon="14.04798"><ele>0.0</ele><time>2026-05-02T14:02:57.302Z</time></trkpt><trkpt lat="40.8797767" lon="14.0479983"><ele>0.0</ele><time>2026-05-02T14:02:58.302Z</time></trkpt><trkpt lat="40.8796867" lon="14.04802"><ele>0.0</ele><time>2026-05-02T14:02:59.303Z</time></trkpt><trkpt lat="40.8795967" lon="14.048045"><ele>0.0</ele><time>2026-05-02T14:03:00.303Z</time></trkpt><trkpt lat="40.8795067" lon="14.0480683"><ele>0.0</ele><time>2026-05-02T14:03:01.303Z</time></trkpt><trkpt lat="40.8794183" lon="14.0480883"><ele>0.0</ele><time>2026-05-02T14:03:02.303Z</time></trkpt><trkpt lat="40.8793283" lon="14.0481083"><ele>0.0</ele><time>2026-05-02T14:03:03.303Z</time></trkpt><trkpt lat="40.8792383" lon="14.0481283"><ele>0.0</ele><time>2026-05-02T14:03:04.304Z</time></trkpt><trkpt lat="40.8791483" lon="14.0481483"><ele>0.16666666666666666</ele><time>2026-05-02T14:03:05.302Z</time></trkpt><trkpt lat="40.8790567" lon="14.04817"><ele>0.3333333333333333</ele><time>2026-05-02T14:03:06.302Z</time></trkpt><trkpt lat="40.8789683" lon="14.0481933"><ele>0.5</ele><time>2026-05-02T14:03:07.302Z</time></trkpt><trkpt lat="40.87888" lon="14.048215"><ele>0.6666666666666666</ele><time>2026-05-02T14:03:08.303Z</time></trkpt><trkpt lat="40.8787933" lon="14.048235"><ele>0.8333333333333333</ele><time>2026-05-02T14:03:09.303Z</time></trkpt><trkpt lat="40.8787067" lon="14.0482567"><ele>1.0</ele><time>2026-05-02T14:03:10.303Z</time></trkpt><trkpt lat="40.8786167" lon="14.0482767"><ele>0.9999999999999999</ele><time>2026-05-02T14:03:11.303Z</time></trkpt><trkpt lat="40.87853" lon="14.0482967"><ele>1.0</ele><time>2026-05-02T14:03:12.302Z</time></trkpt><trkpt lat="40.87844" lon="14.0483167"><ele>1.0</ele><time>2026-05-02T14:03:13.305Z</time></trkpt><trkpt lat="40.8783533" lon="14.04834"><ele>1.0</ele><time>2026-05-02T14:03:14.302Z</time></trkpt><trkpt lat="40.878265" lon="14.04836"><ele>0.9999999999999999</ele><time>2026-05-02T14:03:15.303Z</time></trkpt><trkpt lat="40.878175" lon="14.0483817"><ele>1.0</ele><time>2026-05-02T14:03:16.302Z</time></trkpt><trkpt lat="40.8780833" lon="14.0484"><ele>0.6000000000000001</ele><time>2026-05-02T14:03:17.303Z</time></trkpt><trkpt lat="40.8779917" lon="14.0484183"><ele>0.20000000000000007</ele><time>2026-05-02T14:03:18.302Z</time></trkpt><trkpt lat="40.8779017" lon="14.04844"><ele>-0.20000000000000007</ele><time>2026-05-02T14:03:19.303Z</time></trkpt><trkpt lat="40.87781" lon="14.0484617"><ele>-0.6000000000000001</ele><time>2026-05-02T14:03:20.302Z</time></trkpt><trkpt lat="40.87772" lon="14.0484867"><ele>-1.0</ele><time>2026-05-02T14:03:21.302Z</time></trkpt><trkpt lat="40.8776317" lon="14.04851"><ele>-0.8</ele><time>2026-05-02T14:03:22.302Z</time></trkpt><trkpt lat="40.8775433" lon="14.0485317"><ele>-0.6000000000000001</ele><time>2026-05-02T14:03:23.303Z</time></trkpt><trkpt lat="40.8774517" lon="14.0485517"><ele>-0.4</ele><time>2026-05-02T14:03:24.303Z</time></trkpt><trkpt lat="40.8773617" lon="14.0485717"><ele>-0.2</ele><time>2026-05-02T14:03:25.303Z</time></trkpt><trkpt lat="40.8772717" lon="14.0485883"><ele>0.0</ele><time>2026-05-02T14:03:26.303Z</time></trkpt><trkpt lat="40.8771783" lon="14.0486033"><ele>0.0</ele><time>2026-05-02T14:03:27.303Z</time></trkpt><trkpt lat="40.8770833" lon="14.0486233"><ele>0.0</ele><time>2026-05-02T14:03:28.304Z</time></trkpt><trkpt lat="40.8769883" lon="14.0486433"><ele>0.0</ele><time>2026-05-02T14:03:29.303Z</time></trkpt><trkpt lat="40.8768967" lon="14.0486617"><ele>0.0</ele><time>2026-05-02T14:03:30.303Z</time></trkpt><trkpt lat="40.8768033" lon="14.04868"><ele>0.0</ele><time>2026-05-02T14:03:31.304Z</time></trkpt><trkpt lat="40.8767117" lon="14.048695"><ele>0.0</ele><time>2026-05-02T14:03:32.303Z</time></trkpt><trkpt lat="40.87662" lon="14.0487117"><ele>0.0</ele><time>2026-05-02T14:03:33.303Z</time></trkpt><trkpt lat="40.87653" lon="14.0487333"><ele>0.0</ele><time>2026-05-02T14:03:34.303Z</time></trkpt><trkpt lat="40.87644" lon="14.0487583"><ele>0.0</ele><time>2026-05-02T14:03:35.303Z</time></trkpt><trkpt lat="40.87635" lon="14.04878"><ele>0.0</ele><time>2026-05-02T14:03:36.304Z</time></trkpt><trkpt lat="40.8762633" lon="14.0487983"><ele>0.0</ele><time>2026-05-02T14:03:37.303Z</time></trkpt><trkpt lat="40.8761767" lon="14.0488183"><ele>0.0</ele><time>2026-05-02T14:03:38.303Z</time></trkpt><trkpt lat="40.8760883" lon="14.0488383"><ele>0.0</ele><time>2026-05-02T14:03:39.303Z</time></trkpt><trkpt lat="40.8760033" lon="14.0488583"><ele>0.0</ele><time>2026-05-02T14:03:40.303Z</time></trkpt><trkpt lat="40.8759133" lon="14.0488767"><ele>0.0</ele><time>2026-05-02T14:03:41.303Z</time></trkpt><trkpt lat="40.8758267" lon="14.048895"><ele>0.0</ele><time>2026-05-02T14:03:42.303Z</time></trkpt><trkpt lat="40.8757367" lon="14.048915"><ele>0.0</ele><time>2026-05-02T14:03:43.303Z</time></trkpt><trkpt lat="40.8756467" lon="14.0489367"><ele>0.0</ele><time>2026-05-02T14:03:44.302Z</time></trkpt><trkpt lat="40.8755517" lon="14.04896"><ele>0.0</ele><time>2026-05-02T14:03:45.302Z</time></trkpt><trkpt lat="40.8754583" lon="14.0489833"><ele>0.0</ele><time>2026-05-02T14:03:46.302Z</time></trkpt><trkpt lat="40.875365" lon="14.049005"><ele>0.0</ele><time>2026-05-02T14:03:47.305Z</time></trkpt><trkpt lat="40.8752717" lon="14.0490233"><ele>0.0</ele><time>2026-05-02T14:03:48.302Z</time></trkpt><trkpt lat="40.8751817" lon="14.0490467"><ele>0.0</ele><time>2026-05-02T14:03:49.303Z</time></trkpt><trkpt lat="40.8750933" lon="14.0490667"><ele>0.0</ele><time>2026-05-02T14:03:50.304Z</time></trkpt><trkpt lat="40.875005" lon="14.04909"><ele>0.0</ele><time>2026-05-02T14:03:51.302Z</time></trkpt><trkpt lat="40.87492" lon="14.0491133"><ele>0.0</ele><time>2026-05-02T14:03:52.303Z</time></trkpt><trkpt lat="40.8748333" lon="14.0491383"><ele>0.0</ele><time>2026-05-02T14:03:53.303Z</time></trkpt><trkpt lat="40.87475" lon="14.04916"><ele>0.16666666666666666</ele><time>2026-05-02T14:03:54.303Z</time></trkpt><trkpt lat="40.8746667" lon="14.0491817"><ele>0.3333333333333333</ele><time>2026-05-02T14:03:55.303Z</time></trkpt><trkpt lat="40.8745817" lon="14.0492"><ele>0.5</ele><time>2026-05-02T14:03:56.303Z</time></trkpt><trkpt lat="40.8744983" lon="14.0492167"><ele>0.6666666666666666</ele><time>2026-05-02T14:03:57.302Z</time></trkpt><trkpt lat="40.8744117" lon="14.0492417"><ele>0.8333333333333333</ele><time>2026-05-02T14:03:58.303Z</time></trkpt><trkpt lat="40.874325" lon="14.049265"><ele>1.0</ele><time>2026-05-02T14:03:59.302Z</time></trkpt><trkpt lat="40.8742417" lon="14.0492783"><ele>0.6666666666666666</ele><time>2026-05-02T14:04:00.304Z</time></trkpt><trkpt lat="40.874155" lon="14.0492933"><ele>0.3333333333333333</ele><time>2026-05-02T14:04:01.303Z</time></trkpt><trkpt lat="40.87407" lon="14.0493117"><ele>0.0</ele><time>2026-05-02T14:04:02.302Z</time></trkpt><trkpt lat="40.8739833" lon="14.0493317"><ele>-0.3333333333333333</ele><time>2026-05-02T14:04:03.302Z</time></trkpt><trkpt lat="40.8739017" lon="14.0493483"><ele>-0.6666666666666666</ele><time>2026-05-02T14:04:04.303Z</time></trkpt><trkpt lat="40.8738217" lon="14.0493683"><ele>-1.0</ele><time>2026-05-02T14:04:05.304Z</time></trkpt><trkpt lat="40.87374" lon="14.0493883"><ele>-0.9999999999999999</ele><time>2026-05-02T14:04:06.303Z</time></trkpt><trkpt lat="40.8736583" lon="14.0494083"><ele>-1.0</ele><time>2026-05-02T14:04:07.304Z</time></trkpt><trkpt lat="40.8735767" lon="14.04943"><ele>-1.0</ele><time>2026-05-02T14:04:08.303Z</time></trkpt><trkpt lat="40.873495" lon="14.0494533"><ele>-1.0</ele><time>2026-05-02T14:04:09.303Z</time></trkpt><trkpt lat="40.873415" lon="14.0494683"><ele>-0.9999999999999999</ele><time>2026-05-02T14:04:10.303Z</time></trkpt><trkpt lat="40.873335" lon="14.0494867"><ele>-1.0</ele><time>2026-05-02T14:04:11.303Z</time></trkpt><trkpt lat="40.8732533" lon="14.0495117"><ele>-0.9999999999999999</ele><time>2026-05-02T14:04:12.303Z</time></trkpt><trkpt lat="40.87317" lon="14.0495383"><ele>-1.0</ele><time>2026-05-02T14:04:13.303Z</time></trkpt><trkpt lat="40.8730867" lon="14.04957"><ele>-1.0</ele><time>2026-05-02T14:04:14.303Z</time></trkpt><trkpt lat="40.8730133" lon="14.0496067"><ele>-1.0</ele><time>2026-05-02T14:04:15.301Z</time></trkpt><trkpt lat="40.8729333" lon="14.0496533"><ele>-0.9999999999999999</ele><time>2026-05-02T14:04:16.303Z</time></trkpt><trkpt lat="40.8728533" lon="14.0497"><ele>-1.0</ele><time>2026-05-02T14:04:17.303Z</time></trkpt><trkpt lat="40.8727767" lon="14.04975"><ele>-0.9999999999999999</ele><time>2026-05-02T14:04:18.305Z</time></trkpt><trkpt lat="40.8727033" lon="14.0498"><ele>-1.0</ele><time>2026-05-02T14:04:19.303Z</time></trkpt><trkpt lat="40.8726333" lon="14.049855"><ele>-1.0</ele><time>2026-05-02T14:04:20.303Z</time></trkpt><trkpt lat="40.8725667" lon="14.0499167"><ele>-1.0</ele><time>2026-05-02T14:04:21.302Z</time></trkpt><trkpt lat="40.8725017" lon="14.04998"><ele>-0.9999999999999999</ele><time>2026-05-02T14:04:22.302Z</time></trkpt><trkpt lat="40.8724367" lon="14.0500483"><ele>-1.0</ele><time>2026-05-02T14:04:23.303Z</time></trkpt><trkpt lat="40.872375" lon="14.05012"><ele>-0.49999999999999994</ele><time>2026-05-02T14:04:24.303Z</time></trkpt><trkpt lat="40.8723117" lon="14.0501967"><ele>0.0</ele><time>2026-05-02T14:04:25.303Z</time></trkpt><trkpt lat="40.8722467" lon="14.0502717"><ele>0.5</ele><time>2026-05-02T14:04:26.302Z</time></trkpt><trkpt lat="40.8721883" lon="14.0503517"><ele>1.0</ele><time>2026-05-02T14:04:27.302Z</time></trkpt><trkpt lat="40.8721267" lon="14.0504367"><ele>1.4999999999999998</ele><time>2026-05-02T14:04:28.303Z</time></trkpt><trkpt lat="40.8720683" lon="14.0505233"><ele>2.0</ele><time>2026-05-02T14:04:29.303Z</time></trkpt><trkpt lat="40.8720133" lon="14.0506167"><ele>1.9999999999999998</ele><time>2026-05-02T14:04:30.303Z</time></trkpt><trkpt lat="40.8719667" lon="14.050715"><ele>2.0</ele><time>2026-05-02T14:04:31.303Z</time></trkpt><trkpt lat="40.8719233" lon="14.0508167"><ele>2.0</ele><time>2026-05-02T14:04:32.303Z</time></trkpt><trkpt lat="40.87188" lon="14.05092"><ele>2.0</ele><time>2026-05-02T14:04:33.302Z</time></trkpt><trkpt lat="40.87184" lon="14.0510267"><ele>1.9999999999999998</ele><time>2026-05-02T14:04:34.303Z</time></trkpt><trkpt lat="40.8718033" lon="14.051135"><ele>2.0</ele><time>2026-05-02T14:04:35.305Z</time></trkpt><trkpt lat="40.87177" lon="14.051245"><ele>2.2</ele><time>2026-05-02T14:04:36.303Z</time></trkpt><trkpt lat="40.8717383" lon="14.0513617"><ele>2.4000000000000004</ele><time>2026-05-02T14:04:37.305Z</time></trkpt><trkpt lat="40.8717083" lon="14.05148"><ele>2.5999999999999996</ele><time>2026-05-02T14:04:38.303Z</time></trkpt><trkpt lat="40.8716767" lon="14.0515967"><ele>2.8</ele><time>2026-05-02T14:04:39.302Z</time></trkpt><trkpt lat="40.8716467" lon="14.0517133"><ele>3.0</ele><time>2026-05-02T14:04:40.303Z</time></trkpt><trkpt lat="40.871615" lon="14.0518317"><ele>3.0</ele><time>2026-05-02T14:04:41.303Z</time></trkpt><trkpt lat="40.8715833" lon="14.0519517"><ele>3.0</ele><time>2026-05-02T14:04:42.303Z</time></trkpt><trkpt lat="40.871555" lon="14.0520717"><ele>3.0</ele><time>2026-05-02T14:04:43.303Z</time></trkpt><trkpt lat="40.8715317" lon="14.0521883"><ele>3.0</ele><time>2026-05-02T14:04:44.303Z</time></trkpt><trkpt lat="40.8715033" lon="14.0523067"><ele>3.0</ele><time>2026-05-02T14:04:45.302Z</time></trkpt><trkpt lat="40.871475" lon="14.052425"><ele>2.6</ele><time>2026-05-02T14:04:46.302Z</time></trkpt><trkpt lat="40.8714467" lon="14.052545"><ele>2.1999999999999997</ele><time>2026-05-02T14:04:47.303Z</time></trkpt><trkpt lat="40.871415" lon="14.0526633"><ele>1.8</ele><time>2026-05-02T14:04:48.302Z</time></trkpt><trkpt lat="40.8713867" lon="14.0527817"><ele>1.4</ele><time>2026-05-02T14:04:49.307Z</time></trkpt><trkpt lat="40.871355" lon="14.0529"><ele>1.0</ele><time>2026-05-02T14:04:50.301Z</time></trkpt><trkpt lat="40.871325" lon="14.0530183"><ele>0.9999999999999999</ele><time>2026-05-02T14:04:51.302Z</time></trkpt><trkpt lat="40.8712983" lon="14.0531317"><ele>1.0</ele><time>2026-05-02T14:04:52.302Z</time></trkpt><trkpt lat="40.87127" lon="14.053245"><ele>1.0</ele><time>2026-05-02T14:04:53.303Z</time></trkpt><trkpt lat="40.8712433" lon="14.0533583"><ele>1.0</ele><time>2026-05-02T14:04:54.304Z</time></trkpt><trkpt lat="40.871215" lon="14.0534717"><ele>0.9999999999999999</ele><time>2026-05-02T14:04:55.303Z</time></trkpt><trkpt lat="40.871185" lon="14.0535783"><ele>1.0</ele><time>2026-05-02T14:04:56.302Z</time></trkpt><trkpt lat="40.8711567" lon="14.05369"><ele>0.9999999999999999</ele><time>2026-05-02T14:04:57.302Z</time></trkpt><trkpt lat="40.87113" lon="14.0538017"><ele>1.0</ele><time>2026-05-02T14:04:58.303Z</time></trkpt><trkpt lat="40.8711017" lon="14.0539117"><ele>1.0</ele><time>2026-05-02T14:04:59.303Z</time></trkpt><trkpt lat="40.8710717" lon="14.0540217"><ele>1.0</ele><time>2026-05-02T14:05:00.303Z</time></trkpt><trkpt lat="40.8710433" lon="14.0541267"><ele>0.9999999999999999</ele><time>2026-05-02T14:05:01.303Z</time></trkpt><trkpt lat="40.871015" lon="14.0542317"><ele>1.0</ele><time>2026-05-02T14:05:02.303Z</time></trkpt><trkpt lat="40.8709867" lon="14.0543367"><ele>0.9999999999999999</ele><time>2026-05-02T14:05:03.302Z</time></trkpt><trkpt lat="40.87096" lon="14.054445"><ele>1.0</ele><time>2026-05-02T14:05:04.302Z</time></trkpt><trkpt lat="40.8709317" lon="14.0545533"><ele>1.0</ele><time>2026-05-02T14:05:05.303Z</time></trkpt><trkpt lat="40.8709067" lon="14.0546567"><ele>1.0</ele><time>2026-05-02T14:05:06.302Z</time></trkpt><trkpt lat="40.8708783" lon="14.0547617"><ele>0.9999999999999999</ele><time>2026-05-02T14:05:07.302Z</time></trkpt><trkpt lat="40.8708533" lon="14.0548667"><ele>1.0</ele><time>2026-05-02T14:05:08.303Z</time></trkpt><trkpt lat="40.8708283" lon="14.0549733"><ele>0.9999999999999999</ele><time>2026-05-02T14:05:09.303Z</time></trkpt><trkpt lat="40.8708017" lon="14.0550767"><ele>1.0</ele><time>2026-05-02T14:05:10.307Z</time></trkpt><trkpt lat="40.870775" lon="14.0551783"><ele>1.0</ele><time>2026-05-02T14:05:11.303Z</time></trkpt><trkpt lat="40.8707467" lon="14.0552817"><ele>1.0</ele><time>2026-05-02T14:05:12.302Z</time></trkpt><trkpt lat="40.870715" lon="14.055385"><ele>0.9999999999999999</ele><time>2026-05-02T14:05:13.303Z</time></trkpt><trkpt lat="40.8706817" lon="14.05549"><ele>1.0</ele><time>2026-05-02T14:05:14.303Z</time></trkpt><trkpt lat="40.8706517" lon="14.055595"><ele>1.0</ele><time>2026-05-02T14:05:15.303Z</time></trkpt><trkpt lat="40.870625" lon="14.055705"><ele>1.0</ele><time>2026-05-02T14:05:16.304Z</time></trkpt><trkpt lat="40.8705967" lon="14.0558183"><ele>1.0</ele><time>2026-05-02T14:05:17.305Z</time></trkpt><trkpt lat="40.87057" lon="14.0559367"><ele>1.0</ele><time>2026-05-02T14:05:18.303Z</time></trkpt><trkpt lat="40.8705433" lon="14.0560533"><ele>1.0</ele><time>2026-05-02T14:05:19.304Z</time></trkpt><trkpt lat="40.8705117" lon="14.0561717"><ele>1.2000000000000002</ele><time>2026-05-02T14:05:20.303Z</time></trkpt><trkpt lat="40.87048" lon="14.0562917"><ele>1.4000000000000001</ele><time>2026-05-02T14:05:21.303Z</time></trkpt><trkpt lat="40.8704483" lon="14.0564133"><ele>1.6</ele><time>2026-05-02T14:05:22.304Z</time></trkpt><trkpt lat="40.8704167" lon="14.0565367"><ele>1.8</ele><time>2026-05-02T14:05:23.302Z</time></trkpt><trkpt lat="40.8703867" lon="14.0566617"><ele>2.0</ele><time>2026-05-02T14:05:24.302Z</time></trkpt><trkpt lat="40.8703517" lon="14.05679"><ele>2.0</ele><time>2026-05-02T14:05:25.303Z</time></trkpt><trkpt lat="40.870315" lon="14.0569217"><ele>2.0</ele><time>2026-05-02T14:05:26.302Z</time></trkpt><trkpt lat="40.870275" lon="14.0570567"><ele>2.0</ele><time>2026-05-02T14:05:27.302Z</time></trkpt><trkpt lat="40.8702367" lon="14.0571883"><ele>2.0</ele><time>2026-05-02T14:05:28.302Z</time></trkpt><trkpt lat="40.8702017" lon="14.05732"><ele>2.0</ele><time>2026-05-02T14:05:29.302Z</time></trkpt><trkpt lat="40.870165" lon="14.057455"><ele>2.0</ele><time>2026-05-02T14:05:30.302Z</time></trkpt><trkpt lat="40.8701283" lon="14.05759"><ele>2.0</ele><time>2026-05-02T14:05:31.304Z</time></trkpt><trkpt lat="40.8700933" lon="14.0577233"><ele>2.0</ele><time>2026-05-02T14:05:32.302Z</time></trkpt><trkpt lat="40.87006" lon="14.0578583"><ele>2.0</ele><time>2026-05-02T14:05:33.301Z</time></trkpt><trkpt lat="40.870025" lon="14.0579933"><ele>2.0</ele><time>2026-05-02T14:05:34.302Z</time></trkpt><trkpt lat="40.86999" lon="14.058125"><ele>2.0</ele><time>2026-05-02T14:05:35.302Z</time></trkpt><trkpt lat="40.8699567" lon="14.0582533"><ele>2.0</ele><time>2026-05-02T14:05:36.303Z</time></trkpt><trkpt lat="40.8699217" lon="14.0583767"><ele>2.0</ele><time>2026-05-02T14:05:37.302Z</time></trkpt><trkpt lat="40.86989" lon="14.0584983"><ele>2.0</ele><time>2026-05-02T14:05:38.302Z</time></trkpt><trkpt lat="40.8698567" lon="14.0586233"><ele>2.0</ele><time>2026-05-02T14:05:39.301Z</time></trkpt><trkpt lat="40.8698233" lon="14.058745"><ele>2.0</ele><time>2026-05-02T14:05:40.302Z</time></trkpt><trkpt lat="40.8697867" lon="14.0588667"><ele>2.0</ele><time>2026-05-02T14:05:41.302Z</time></trkpt><trkpt lat="40.8697517" lon="14.0589883"><ele>2.0</ele><time>2026-05-02T14:05:42.303Z</time></trkpt><trkpt lat="40.8697167" lon="14.0591067"><ele>2.0</ele><time>2026-05-02T14:05:43.303Z</time></trkpt><trkpt lat="40.86968" lon="14.0592267"><ele>2.0</ele><time>2026-05-02T14:05:44.302Z</time></trkpt><trkpt lat="40.8696433" lon="14.0593417"><ele>2.2</ele><time>2026-05-02T14:05:45.301Z</time></trkpt><trkpt lat="40.8696067" lon="14.059455"><ele>2.4000000000000004</ele><time>2026-05-02T14:05:46.302Z</time></trkpt><trkpt lat="40.86957" lon="14.0595667"><ele>2.5999999999999996</ele><time>2026-05-02T14:05:47.303Z</time></trkpt><trkpt lat="40.8695333" lon="14.059675"><ele>2.8</ele><time>2026-05-02T14:05:48.303Z</time></trkpt><trkpt lat="40.8694933" lon="14.0597833"><ele>3.0</ele><time>2026-05-02T14:05:49.302Z</time></trkpt><trkpt lat="40.8694567" lon="14.05989"><ele>3.0</ele><time>2026-05-02T14:05:50.303Z</time></trkpt><trkpt lat="40.8694217" lon="14.059995"><ele>3.0</ele><time>2026-05-02T14:05:51.302Z</time></trkpt><trkpt lat="40.8693883" lon="14.0600967"><ele>3.0</ele><time>2026-05-02T14:05:52.302Z</time></trkpt><trkpt lat="40.869355" lon="14.060195"><ele>3.0</ele><time>2026-05-02T14:05:53.302Z</time></trkpt><trkpt lat="40.8693233" lon="14.0602967"><ele>3.0</ele><time>2026-05-02T14:05:54.302Z</time></trkpt><trkpt lat="40.8692883" lon="14.0604017"><ele>3.0</ele><time>2026-05-02T14:05:55.302Z</time></trkpt><trkpt lat="40.8692517" lon="14.0605083"><ele>3.0</ele><time>2026-05-02T14:05:56.302Z</time></trkpt><trkpt lat="40.8692117" lon="14.0606167"><ele>3.0</ele><time>2026-05-02T14:05:57.301Z</time></trkpt><trkpt lat="40.8691683" lon="14.06072"><ele>3.0</ele><time>2026-05-02T14:05:58.302Z</time></trkpt><trkpt lat="40.8691267" lon="14.0608267"><ele>3.0</ele><time>2026-05-02T14:05:59.303Z</time></trkpt><trkpt lat="40.8690867" lon="14.06093"><ele>3.0</ele><time>2026-05-02T14:06:00.302Z</time></trkpt><trkpt lat="40.8690467" lon="14.061035"><ele>3.0</ele><time>2026-05-02T14:06:01.302Z</time></trkpt><trkpt lat="40.86901" lon="14.0611383"><ele>3.0</ele><time>2026-05-02T14:06:02.302Z</time></trkpt><trkpt lat="40.8689717" lon="14.0612367"><ele>3.0</ele><time>2026-05-02T14:06:03.301Z</time></trkpt><trkpt lat="40.8689317" lon="14.061335"><ele>3.0</ele><time>2026-05-02T14:06:04.302Z</time></trkpt><trkpt lat="40.8688933" lon="14.061425"><ele>3.0</ele><time>2026-05-02T14:06:05.304Z</time></trkpt><trkpt lat="40.86886" lon="14.0615117"><ele>3.0</ele><time>2026-05-02T14:06:06.302Z</time></trkpt><trkpt lat="40.86883" lon="14.0615933"><ele>3.0</ele><time>2026-05-02T14:06:07.302Z</time></trkpt><trkpt lat="40.8687917" lon="14.0617183"><ele>3.1666666666666665</ele><time>2026-05-02T14:06:09.302Z</time></trkpt><trkpt lat="40.86876" lon="14.0618283"><ele>3.333333333333333</ele><time>2026-05-02T14:06:11.302Z</time></trkpt><trkpt lat="40.86875" lon="14.061945"><ele>3.5</ele><time>2026-05-02T14:06:13.302Z</time></trkpt><trkpt lat="40.8687967" lon="14.0620283"><ele>3.6666666666666665</ele><time>2026-05-02T14:06:15.302Z</time></trkpt><trkpt lat="40.8688667" lon="14.0620167"><ele>3.833333333333333</ele><time>2026-05-02T14:06:17.302Z</time></trkpt><trkpt lat="40.868945" lon="14.0619733"><ele>4.0</ele><time>2026-05-02T14:06:19.306Z</time></trkpt><trkpt lat="40.8690433" lon="14.0619583"><ele>4.0</ele><time>2026-05-02T14:06:21.302Z</time></trkpt><trkpt lat="40.86915" lon="14.0619567"><ele>4.0</ele><time>2026-05-02T14:06:23.303Z</time></trkpt><trkpt lat="40.8692533" lon="14.06197"><ele>4.0</ele><time>2026-05-02T14:06:25.303Z</time></trkpt><trkpt lat="40.8693617" lon="14.0619783"><ele>4.0</ele><time>2026-05-02T14:06:27.302Z</time></trkpt><trkpt lat="40.8694717" lon="14.0619817"><ele>4.0</ele><time>2026-05-02T14:06:29.303Z</time></trkpt><trkpt lat="40.86959" lon="14.0619833"><ele>4.142857142857142</ele><time>2026-05-02T14:06:31.302Z</time></trkpt><trkpt lat="40.8696567" lon="14.0619783"><ele>4.285714285714286</ele><time>2026-05-02T14:06:32.302Z</time></trkpt><trkpt lat="40.8697233" lon="14.0619783"><ele>4.428571428571429</ele><time>2026-05-02T14:06:33.301Z</time></trkpt><trkpt lat="40.869795" lon="14.0619867"><ele>4.571428571428571</ele><time>2026-05-02T14:06:34.302Z</time></trkpt><trkpt lat="40.8698683" lon="14.0619883"><ele>4.714285714285714</ele><time>2026-05-02T14:06:35.302Z</time></trkpt><trkpt lat="40.8699467" lon="14.061985"><ele>4.857142857142857</ele><time>2026-05-02T14:06:36.305Z</time></trkpt><trkpt lat="40.8700267" lon="14.0619833"><ele>5.0</ele><time>2026-05-02T14:06:37.302Z</time></trkpt><trkpt lat="40.8701033" lon="14.0619867"><ele>5.0</ele><time>2026-05-02T14:06:38.302Z</time></trkpt><trkpt lat="40.8701783" lon="14.0619983"><ele>5.0</ele><time>2026-05-02T14:06:39.303Z</time></trkpt><trkpt lat="40.8702517" lon="14.0620033"><ele>5.0</ele><time>2026-05-02T14:06:40.305Z</time></trkpt><trkpt lat="40.870325" lon="14.062005"><ele>5.0</ele><time>2026-05-02T14:06:41.306Z</time></trkpt><trkpt lat="40.8704017" lon="14.06201"><ele>5.0</ele><time>2026-05-02T14:06:42.302Z</time></trkpt><trkpt lat="40.870475" lon="14.062015"><ele>5.0</ele><time>2026-05-02T14:06:43.303Z</time></trkpt><trkpt lat="40.8705467" lon="14.06202"><ele>5.0</ele><time>2026-05-02T14:06:44.302Z</time></trkpt><trkpt lat="40.8706183" lon="14.062025"><ele>5.0</ele><time>2026-05-02T14:06:45.302Z</time></trkpt><trkpt lat="40.8706917" lon="14.06203"><ele>5.0</ele><time>2026-05-02T14:06:46.303Z</time></trkpt><trkpt lat="40.8707633" lon="14.062035"><ele>5.0</ele><time>2026-05-02T14:06:47.302Z</time></trkpt><trkpt lat="40.8708367" lon="14.06204"><ele>5.0</ele><time>2026-05-02T14:06:48.302Z</time></trkpt><trkpt lat="40.8709083" lon="14.0620483"><ele>5.0</ele><time>2026-05-02T14:06:49.302Z</time></trkpt><trkpt lat="40.8709767" lon="14.062055"><ele>5.0</ele><time>2026-05-02T14:06:50.302Z</time></trkpt><trkpt lat="40.8710467" lon="14.06206"><ele>5.0</ele><time>2026-05-02T14:06:51.304Z</time></trkpt><trkpt lat="40.8711167" lon="14.0620683"><ele>5.0</ele><time>2026-05-02T14:06:52.302Z</time></trkpt><trkpt lat="40.8711883" lon="14.0620783"><ele>5.0</ele><time>2026-05-02T14:06:53.302Z</time></trkpt><trkpt lat="40.8712583" lon="14.06209"><ele>5.0</ele><time>2026-05-02T14:06:54.302Z</time></trkpt><trkpt lat="40.871325" lon="14.0620967"><ele>5.0</ele><time>2026-05-02T14:06:55.302Z</time></trkpt><trkpt lat="40.8713933" lon="14.062105"><ele>5.0</ele><time>2026-05-02T14:06:56.302Z</time></trkpt><trkpt lat="40.8714633" lon="14.0621133"><ele>5.0</ele><time>2026-05-02T14:06:57.302Z</time></trkpt><trkpt lat="40.8715317" lon="14.062125"><ele>5.0</ele><time>2026-05-02T14:06:58.302Z</time></trkpt><trkpt lat="40.8716" lon="14.0621333"><ele>5.0</ele><time>2026-05-02T14:06:59.302Z</time></trkpt><trkpt lat="40.8716667" lon="14.062135"><ele>5.0</ele><time>2026-05-02T14:07:00.303Z</time></trkpt><trkpt lat="40.87173" lon="14.06214"><ele>5.0</ele><time>2026-05-02T14:07:01.303Z</time></trkpt><trkpt lat="40.8717933" lon="14.062145"><ele>5.0</ele><time>2026-05-02T14:07:02.302Z</time></trkpt><trkpt lat="40.8718583" lon="14.06215"><ele>5.0</ele><time>2026-05-02T14:07:03.303Z</time></trkpt><trkpt lat="40.871925" lon="14.0621583"><ele>5.0</ele><time>2026-05-02T14:07:04.303Z</time></trkpt><trkpt lat="40.87199" lon="14.0621633"><ele>5.0</ele><time>2026-05-02T14:07:05.302Z</time></trkpt><trkpt lat="40.8720567" lon="14.0621683"><ele>5.0</ele><time>2026-05-02T14:07:06.302Z</time></trkpt><trkpt lat="40.8721267" lon="14.0621733"><ele>5.0</ele><time>2026-05-02T14:07:07.303Z</time></trkpt><trkpt lat="40.8721983" lon="14.0621767"><ele>5.0</ele><time>2026-05-02T14:07:08.309Z</time></trkpt><trkpt lat="40.87227" lon="14.0621817"><ele>5.0</ele><time>2026-05-02T14:07:09.302Z</time></trkpt><trkpt lat="40.8723433" lon="14.0621833"><ele>5.0</ele><time>2026-05-02T14:07:10.303Z</time></trkpt><trkpt lat="40.87242" lon="14.062185"><ele>5.0</ele><time>2026-05-02T14:07:11.302Z</time></trkpt><trkpt lat="40.872495" lon="14.0621917"><ele>5.0</ele><time>2026-05-02T14:07:12.302Z</time></trkpt><trkpt lat="40.87257" lon="14.0621983"><ele>5.0</ele><time>2026-05-02T14:07:13.304Z</time></trkpt><trkpt lat="40.87265" lon="14.0622067"><ele>5.0</ele><time>2026-05-02T14:07:14.302Z</time></trkpt><trkpt lat="40.8727317" lon="14.0622083"><ele>5.0</ele><time>2026-05-02T14:07:15.302Z</time></trkpt><trkpt lat="40.8728183" lon="14.0622117"><ele>5.0</ele><time>2026-05-02T14:07:16.302Z</time></trkpt><trkpt lat="40.8729" lon="14.06222"><ele>5.0</ele><time>2026-05-02T14:07:17.302Z</time></trkpt><trkpt lat="40.87298" lon="14.0622317"><ele>5.0</ele><time>2026-05-02T14:07:18.302Z</time></trkpt><trkpt lat="40.873065" lon="14.0622417"><ele>5.0</ele><time>2026-05-02T14:07:19.302Z</time></trkpt><trkpt lat="40.8731517" lon="14.0622483"><ele>5.0</ele><time>2026-05-02T14:07:20.302Z</time></trkpt><trkpt lat="40.87324" lon="14.0622567"><ele>5.0</ele><time>2026-05-02T14:07:21.302Z</time></trkpt><trkpt lat="40.873325" lon="14.0622633"><ele>5.0</ele><time>2026-05-02T14:07:22.303Z</time></trkpt><trkpt lat="40.87341" lon="14.0622633"><ele>5.0</ele><time>2026-05-02T14:07:23.303Z</time></trkpt><trkpt lat="40.8734967" lon="14.0622667"><ele>5.0</ele><time>2026-05-02T14:07:24.303Z</time></trkpt><trkpt lat="40.8735817" lon="14.062275"><ele>5.0</ele><time>2026-05-02T14:07:25.302Z</time></trkpt><trkpt lat="40.8736633" lon="14.0622883"><ele>5.0</ele><time>2026-05-02T14:07:26.303Z</time></trkpt><trkpt lat="40.8737433" lon="14.0622933"><ele>5.0</ele><time>2026-05-02T14:07:27.302Z</time></trkpt><trkpt lat="40.8738233" lon="14.0622983"><ele>5.0</ele><time>2026-05-02T14:07:28.303Z</time></trkpt><trkpt lat="40.873905" lon="14.0623017"><ele>5.0</ele><time>2026-05-02T14:07:29.302Z</time></trkpt><trkpt lat="40.8739867" lon="14.0623083"><ele>5.0</ele><time>2026-05-02T14:07:30.303Z</time></trkpt><trkpt lat="40.8740667" lon="14.06232"><ele>5.0</ele><time>2026-05-02T14:07:31.303Z</time></trkpt><trkpt lat="40.87415" lon="14.0623317"><ele>5.0</ele><time>2026-05-02T14:07:32.302Z</time></trkpt><trkpt lat="40.874235" lon="14.06234"><ele>5.0</ele><time>2026-05-02T14:07:33.303Z</time></trkpt><trkpt lat="40.8743217" lon="14.0623533"><ele>5.0</ele><time>2026-05-02T14:07:34.302Z</time></trkpt><trkpt lat="40.874405" lon="14.062365"><ele>5.0</ele><time>2026-05-02T14:07:35.303Z</time></trkpt><trkpt lat="40.874485" lon="14.06237"><ele>5.0</ele><time>2026-05-02T14:07:36.303Z</time></trkpt><trkpt lat="40.8745667" lon="14.0623767"><ele>4.666666666666667</ele><time>2026-05-02T14:07:37.303Z</time></trkpt><trkpt lat="40.8746467" lon="14.0623833"><ele>4.333333333333334</ele><time>2026-05-02T14:07:38.304Z</time></trkpt><trkpt lat="40.8747267" lon="14.06239"><ele>4.0</ele><time>2026-05-02T14:07:39.302Z</time></trkpt><trkpt lat="40.8748033" lon="14.0623917"><ele>3.666666666666667</ele><time>2026-05-02T14:07:40.302Z</time></trkpt><trkpt lat="40.87488" lon="14.06239"><ele>3.3333333333333335</ele><time>2026-05-02T14:07:41.302Z</time></trkpt><trkpt lat="40.8749583" lon="14.062385"><ele>3.0</ele><time>2026-05-02T14:07:42.303Z</time></trkpt><trkpt lat="40.8750367" lon="14.06239"><ele>3.1666666666666665</ele><time>2026-05-02T14:07:43.304Z</time></trkpt><trkpt lat="40.8751167" lon="14.062395"><ele>3.333333333333333</ele><time>2026-05-02T14:07:44.302Z</time></trkpt><trkpt lat="40.875195" lon="14.062395"><ele>3.5</ele><time>2026-05-02T14:07:45.303Z</time></trkpt><trkpt lat="40.87527" lon="14.0623967"><ele>3.6666666666666665</ele><time>2026-05-02T14:07:46.302Z</time></trkpt><trkpt lat="40.875345" lon="14.0623967"><ele>3.833333333333333</ele><time>2026-05-02T14:07:47.302Z</time></trkpt><trkpt lat="40.87542" lon="14.06239"><ele>4.0</ele><time>2026-05-02T14:07:48.303Z</time></trkpt><trkpt lat="40.8754917" lon="14.06239"><ele>4.0</ele><time>2026-05-02T14:07:49.302Z</time></trkpt><trkpt lat="40.8755683" lon="14.062405"><ele>3.9999999999999996</ele><time>2026-05-02T14:07:50.302Z</time></trkpt><trkpt lat="40.8756383" lon="14.0624117"><ele>4.0</ele><time>2026-05-02T14:07:51.303Z</time></trkpt><trkpt lat="40.8757033" lon="14.0624117"><ele>4.0</ele><time>2026-05-02T14:07:52.302Z</time></trkpt><trkpt lat="40.8757767" lon="14.0624167"><ele>3.9999999999999996</ele><time>2026-05-02T14:07:53.303Z</time></trkpt><trkpt lat="40.87585" lon="14.062425"><ele>4.0</ele><time>2026-05-02T14:07:54.303Z</time></trkpt><trkpt lat="40.8759217" lon="14.062425"><ele>4.0</ele><time>2026-05-02T14:07:55.304Z</time></trkpt><trkpt lat="40.8759883" lon="14.062425"><ele>4.0</ele><time>2026-05-02T14:07:56.302Z</time></trkpt><trkpt lat="40.8760533" lon="14.0624367"><ele>4.0</ele><time>2026-05-02T14:07:57.302Z</time></trkpt><trkpt lat="40.8761617" lon="14.0625133"><ele>4.0</ele><time>2026-05-02T14:07:59.303Z</time></trkpt><trkpt lat="40.876235" lon="14.06265"><ele>4.0</ele><time>2026-05-02T14:08:01.305Z</time></trkpt><trkpt lat="40.8762617" lon="14.06273"><ele>4.0</ele><time>2026-05-02T14:08:02.303Z</time></trkpt><trkpt lat="40.8762883" lon="14.0628133"><ele>4.428571428571429</ele><time>2026-05-02T14:08:03.302Z</time></trkpt><trkpt lat="40.8763167" lon="14.062895"><ele>4.857142857142857</ele><time>2026-05-02T14:08:04.304Z</time></trkpt><trkpt lat="40.8763483" lon="14.0629767"><ele>5.285714285714286</ele><time>2026-05-02T14:08:05.303Z</time></trkpt><trkpt lat="40.8763817" lon="14.063065"><ele>5.714285714285714</ele><time>2026-05-02T14:08:06.305Z</time></trkpt><trkpt lat="40.8764133" lon="14.0631567"><ele>6.142857142857142</ele><time>2026-05-02T14:08:07.303Z</time></trkpt><trkpt lat="40.8764483" lon="14.0632483"><ele>6.571428571428571</ele><time>2026-05-02T14:08:08.303Z</time></trkpt><trkpt lat="40.8764833" lon="14.0633383"><ele>7.0</ele><time>2026-05-02T14:08:09.302Z</time></trkpt><trkpt lat="40.8765183" lon="14.0634333"><ele>7.333333333333334</ele><time>2026-05-02T14:08:10.303Z</time></trkpt><trkpt lat="40.8765567" lon="14.06353"><ele>7.666666666666667</ele><time>2026-05-02T14:08:11.303Z</time></trkpt><trkpt lat="40.8765933" lon="14.063625"><ele>8.0</ele><time>2026-05-02T14:08:12.304Z</time></trkpt><trkpt lat="40.8766267" lon="14.0637233"><ele>8.333333333333334</ele><time>2026-05-02T14:08:13.303Z</time></trkpt><trkpt lat="40.8766617" lon="14.0638233"><ele>8.666666666666666</ele><time>2026-05-02T14:08:14.304Z</time></trkpt><trkpt lat="40.8766983" lon="14.063925"><ele>9.0</ele><time>2026-05-02T14:08:15.302Z</time></trkpt><trkpt lat="40.8767333" lon="14.0640267"><ele>9.333333333333334</ele><time>2026-05-02T14:08:16.303Z</time></trkpt><trkpt lat="40.8767717" lon="14.0641267"><ele>9.666666666666666</ele><time>2026-05-02T14:08:17.303Z</time></trkpt><trkpt lat="40.8768083" lon="14.06423"><ele>10.0</ele><time>2026-05-02T14:08:18.303Z</time></trkpt><trkpt lat="40.8768417" lon="14.064335"><ele>10.333333333333332</ele><time>2026-05-02T14:08:19.303Z</time></trkpt><trkpt lat="40.8768783" lon="14.0644333"><ele>10.666666666666666</ele><time>2026-05-02T14:08:20.303Z</time></trkpt><trkpt lat="40.8769117" lon="14.06453"><ele>11.0</ele><time>2026-05-02T14:08:21.303Z</time></trkpt><trkpt lat="40.876945" lon="14.06463"><ele>11.0</ele><time>2026-05-02T14:08:22.304Z</time></trkpt><trkpt lat="40.8769717" lon="14.06473"><ele>11.0</ele><time>2026-05-02T14:08:23.303Z</time></trkpt><trkpt lat="40.8769967" lon="14.06483"><ele>11.0</ele><time>2026-05-02T14:08:24.302Z</time></trkpt><trkpt lat="40.87702" lon="14.0649333"><ele>11.0</ele><time>2026-05-02T14:08:25.303Z</time></trkpt><trkpt lat="40.8770433" lon="14.065035"><ele>11.0</ele><time>2026-05-02T14:08:26.303Z</time></trkpt><trkpt lat="40.877065" lon="14.06514"><ele>11.0</ele><time>2026-05-02T14:08:27.303Z</time></trkpt><trkpt lat="40.87709" lon="14.0652433"><ele>10.666666666666666</ele><time>2026-05-02T14:08:28.304Z</time></trkpt><trkpt lat="40.877115" lon="14.065345"><ele>10.333333333333332</ele><time>2026-05-02T14:08:29.305Z</time></trkpt><trkpt lat="40.8771367" lon="14.0654483"><ele>10.0</ele><time>2026-05-02T14:08:30.303Z</time></trkpt><trkpt lat="40.8771617" lon="14.0655467"><ele>9.666666666666666</ele><time>2026-05-02T14:08:31.304Z</time></trkpt><trkpt lat="40.87719" lon="14.0656417"><ele>9.333333333333334</ele><time>2026-05-02T14:08:32.304Z</time></trkpt><trkpt lat="40.8772167" lon="14.0657383"><ele>9.0</ele><time>2026-05-02T14:08:33.303Z</time></trkpt><trkpt lat="40.8772417" lon="14.0658367"><ele>9.0</ele><time>2026-05-02T14:08:34.303Z</time></trkpt><trkpt lat="40.8772667" lon="14.06594"><ele>9.0</ele><time>2026-05-02T14:08:35.303Z</time></trkpt><trkpt lat="40.8772933" lon="14.06604"><ele>9.0</ele><time>2026-05-02T14:08:36.303Z</time></trkpt><trkpt lat="40.8773183" lon="14.0661367"><ele>9.0</ele><time>2026-05-02T14:08:37.306Z</time></trkpt><trkpt lat="40.87734" lon="14.0662367"><ele>9.0</ele><time>2026-05-02T14:08:38.304Z</time></trkpt><trkpt lat="40.877365" lon="14.066335"><ele>9.0</ele><time>2026-05-02T14:08:39.302Z</time></trkpt><trkpt lat="40.8773933" lon="14.066435"><ele>9.0</ele><time>2026-05-02T14:08:40.302Z</time></trkpt><trkpt lat="40.8774233" lon="14.0665333"><ele>9.0</ele><time>2026-05-02T14:08:41.303Z</time></trkpt><trkpt lat="40.8774517" lon="14.0666317"><ele>9.0</ele><time>2026-05-02T14:08:42.302Z</time></trkpt><trkpt lat="40.8774767" lon="14.0667317"><ele>9.0</ele><time>2026-05-02T14:08:43.303Z</time></trkpt><trkpt lat="40.877505" lon="14.0668383"><ele>9.0</ele><time>2026-05-02T14:08:44.301Z</time></trkpt><trkpt lat="40.8775367" lon="14.06694"><ele>9.0</ele><time>2026-05-02T14:08:45.303Z</time></trkpt><trkpt lat="40.877565" lon="14.0670367"><ele>8.833333333333334</ele><time>2026-05-02T14:08:46.302Z</time></trkpt><trkpt lat="40.8775933" lon="14.0671317"><ele>8.666666666666666</ele><time>2026-05-02T14:08:47.303Z</time></trkpt><trkpt lat="40.87762" lon="14.0672217"><ele>8.5</ele><time>2026-05-02T14:08:48.302Z</time></trkpt><trkpt lat="40.8776467" lon="14.0673167"><ele>8.333333333333332</ele><time>2026-05-02T14:08:49.305Z</time></trkpt><trkpt lat="40.8776767" lon="14.0674117"><ele>8.166666666666666</ele><time>2026-05-02T14:08:50.304Z</time></trkpt><trkpt lat="40.8777033" lon="14.06751"><ele>8.0</ele><time>2026-05-02T14:08:51.303Z</time></trkpt><trkpt lat="40.877735" lon="14.0675983"><ele>8.428571428571429</ele><time>2026-05-02T14:08:52.303Z</time></trkpt><trkpt lat="40.8777633" lon="14.0676833"><ele>8.857142857142856</ele><time>2026-05-02T14:08:53.303Z</time></trkpt><trkpt lat="40.8777967" lon="14.06777"><ele>9.285714285714285</ele><time>2026-05-02T14:08:54.303Z</time></trkpt><trkpt lat="40.87783" lon="14.0678567"><ele>9.714285714285714</ele><time>2026-05-02T14:08:55.304Z</time></trkpt><trkpt lat="40.87786" lon="14.067945"><ele>10.142857142857142</ele><time>2026-05-02T14:08:56.302Z</time></trkpt><trkpt lat="40.87789" lon="14.0680333"><ele>10.571428571428571</ele><time>2026-05-02T14:08:57.302Z</time></trkpt><trkpt lat="40.8779133" lon="14.0681283"><ele>11.0</ele><time>2026-05-02T14:08:58.303Z</time></trkpt><trkpt lat="40.877935" lon="14.0682217"><ele>11.571428571428571</ele><time>2026-05-02T14:08:59.303Z</time></trkpt><trkpt lat="40.87796" lon="14.0683117"><ele>12.142857142857142</ele><time>2026-05-02T14:09:00.304Z</time></trkpt><trkpt lat="40.8779883" lon="14.0684017"><ele>12.714285714285715</ele><time>2026-05-02T14:09:01.304Z</time></trkpt><trkpt lat="40.878015" lon="14.0684917"><ele>13.285714285714285</ele><time>2026-05-02T14:09:02.302Z</time></trkpt><trkpt lat="40.878045" lon="14.0685817"><ele>13.857142857142856</ele><time>2026-05-02T14:09:03.303Z</time></trkpt><trkpt lat="40.87807" lon="14.0686783"><ele>14.428571428571429</ele><time>2026-05-02T14:09:04.304Z</time></trkpt><trkpt lat="40.8780983" lon="14.068775"><ele>15.0</ele><time>2026-05-02T14:09:05.303Z</time></trkpt><trkpt lat="40.8781267" lon="14.0688733"><ele>15.0</ele><time>2026-05-02T14:09:06.303Z</time></trkpt><trkpt lat="40.8781567" lon="14.06897"><ele>15.0</ele><time>2026-05-02T14:09:07.303Z</time></trkpt><trkpt lat="40.8781867" lon="14.0690667"><ele>15.0</ele><time>2026-05-02T14:09:08.303Z</time></trkpt><trkpt lat="40.8782167" lon="14.0691583"><ele>15.0</ele><time>2026-05-02T14:09:09.303Z</time></trkpt><trkpt lat="40.8782483" lon="14.0692483"><ele>15.0</ele><time>2026-05-02T14:09:10.303Z</time></trkpt><trkpt lat="40.87828" lon="14.069345"><ele>15.0</ele><time>2026-05-02T14:09:11.303Z</time></trkpt><trkpt lat="40.8783133" lon="14.0694367"><ele>15.666666666666666</ele><time>2026-05-02T14:09:12.303Z</time></trkpt><trkpt lat="40.8783467" lon="14.0695283"><ele>16.333333333333332</ele><time>2026-05-02T14:09:13.304Z</time></trkpt><trkpt lat="40.878385" lon="14.0696217"><ele>17.0</ele><time>2026-05-02T14:09:14.304Z</time></trkpt><trkpt lat="40.8784233" lon="14.06972"><ele>17.666666666666664</ele><time>2026-05-02T14:09:15.304Z</time></trkpt><trkpt lat="40.87846" lon="14.06982"><ele>18.333333333333332</ele><time>2026-05-02T14:09:16.305Z</time></trkpt><trkpt lat="40.8784983" lon="14.0699217"><ele>19.0</ele><time>2026-05-02T14:09:17.304Z</time></trkpt><trkpt lat="40.8785433" lon="14.070015"><ele>20.333333333333332</ele><time>2026-05-02T14:09:18.305Z</time></trkpt><trkpt lat="40.87859" lon="14.070105"><ele>21.666666666666664</ele><time>2026-05-02T14:09:19.304Z</time></trkpt><trkpt lat="40.8786383" lon="14.07019"><ele>23.0</ele><time>2026-05-02T14:09:20.303Z</time></trkpt><trkpt lat="40.8786833" lon="14.0702717"><ele>24.333333333333332</ele><time>2026-05-02T14:09:21.302Z</time></trkpt><trkpt lat="40.8787217" lon="14.0703567"><ele>25.666666666666668</ele><time>2026-05-02T14:09:22.303Z</time></trkpt><trkpt lat="40.8787617" lon="14.0704417"><ele>27.0</ele><time>2026-05-02T14:09:23.303Z</time></trkpt><trkpt lat="40.8788" lon="14.0705267"><ele>27.0</ele><time>2026-05-02T14:09:24.302Z</time></trkpt><trkpt lat="40.87884" lon="14.070615"><ele>27.0</ele><time>2026-05-02T14:09:25.304Z</time></trkpt><trkpt lat="40.87888" lon="14.0706967"><ele>27.0</ele><time>2026-05-02T14:09:26.302Z</time></trkpt><trkpt lat="40.8789217" lon="14.0707767"><ele>27.0</ele><time>2026-05-02T14:09:27.303Z</time></trkpt><trkpt lat="40.8789667" lon="14.0708533"><ele>27.0</ele><time>2026-05-02T14:09:28.303Z</time></trkpt><trkpt lat="40.8790117" lon="14.07093"><ele>27.0</ele><time>2026-05-02T14:09:29.303Z</time></trkpt><trkpt lat="40.879055" lon="14.07101"><ele>27.0</ele><time>2026-05-02T14:09:30.303Z</time></trkpt><trkpt lat="40.8791" lon="14.0710883"><ele>26.857142857142858</ele><time>2026-05-02T14:09:31.306Z</time></trkpt><trkpt lat="40.8791417" lon="14.071165"><ele>26.714285714285715</ele><time>2026-05-02T14:09:32.302Z</time></trkpt><trkpt lat="40.8791867" lon="14.0712433"><ele>26.57142857142857</ele><time>2026-05-02T14:09:33.302Z</time></trkpt><trkpt lat="40.8792333" lon="14.071325"><ele>26.42857142857143</ele><time>2026-05-02T14:09:34.302Z</time></trkpt><trkpt lat="40.8792783" lon="14.071405"><ele>26.28571428571429</ele><time>2026-05-02T14:09:35.303Z</time></trkpt><trkpt lat="40.87932" lon="14.071485"><ele>26.142857142857142</ele><time>2026-05-02T14:09:36.302Z</time></trkpt><trkpt lat="40.8793617" lon="14.07157"><ele>26.0</ele><time>2026-05-02T14:09:37.303Z</time></trkpt><trkpt lat="40.8794033" lon="14.071655"><ele>27.142857142857142</ele><time>2026-05-02T14:09:38.303Z</time></trkpt><trkpt lat="40.8794417" lon="14.07174"><ele>28.285714285714285</ele><time>2026-05-02T14:09:39.301Z</time></trkpt><trkpt lat="40.87948" lon="14.07182"><ele>29.428571428571427</ele><time>2026-05-02T14:09:40.302Z</time></trkpt><trkpt lat="40.8795233" lon="14.0718967"><ele>30.57142857142857</ele><time>2026-05-02T14:09:41.303Z</time></trkpt><trkpt lat="40.8795683" lon="14.07197"><ele>31.714285714285715</ele><time>2026-05-02T14:09:42.301Z</time></trkpt><trkpt lat="40.8796167" lon="14.0720383"><ele>32.857142857142854</ele><time>2026-05-02T14:09:43.303Z</time></trkpt><trkpt lat="40.879665" lon="14.0721017"><ele>34.0</ele><time>2026-05-02T14:09:44.306Z</time></trkpt><trkpt lat="40.8797133" lon="14.07216"><ele>33.99999999999999</ele><time>2026-05-02T14:09:45.302Z</time></trkpt><trkpt lat="40.8797617" lon="14.07222"><ele>34.0</ele><time>2026-05-02T14:09:46.302Z</time></trkpt><trkpt lat="40.8798117" lon="14.07228"><ele>34.0</ele><time>2026-05-02T14:09:47.303Z</time></trkpt><trkpt lat="40.8798633" lon="14.0723367"><ele>34.0</ele><time>2026-05-02T14:09:48.303Z</time></trkpt><trkpt lat="40.879915" lon="14.0723883"><ele>34.0</ele><time>2026-05-02T14:09:49.303Z</time></trkpt><trkpt lat="40.8799667" lon="14.0724433"><ele>33.99999999999999</ele><time>2026-05-02T14:09:50.303Z</time></trkpt><trkpt lat="40.88002" lon="14.072495"><ele>34.0</ele><time>2026-05-02T14:09:51.302Z</time></trkpt><trkpt lat="40.8800717" lon="14.072545"><ele>33.42857142857142</ele><time>2026-05-02T14:09:52.304Z</time></trkpt><trkpt lat="40.8801233" lon="14.0726017"><ele>32.857142857142854</ele><time>2026-05-02T14:09:53.303Z</time></trkpt><trkpt lat="40.8801733" lon="14.07266"><ele>32.285714285714285</ele><time>2026-05-02T14:09:54.304Z</time></trkpt><trkpt lat="40.8802233" lon="14.0727167"><ele>31.71428571428571</ele><time>2026-05-02T14:09:55.303Z</time></trkpt><trkpt lat="40.8802733" lon="14.0727717"><ele>31.14285714285714</ele><time>2026-05-02T14:09:56.302Z</time></trkpt><trkpt lat="40.8803217" lon="14.0728317"><ele>30.571428571428573</ele><time>2026-05-02T14:09:57.302Z</time></trkpt><trkpt lat="40.880365" lon="14.0728933"><ele>30.0</ele><time>2026-05-02T14:09:58.303Z</time></trkpt><trkpt lat="40.88041" lon="14.0729533"><ele>30.0</ele><time>2026-05-02T14:09:59.303Z</time></trkpt><trkpt lat="40.880455" lon="14.0730133"><ele>30.0</ele><time>2026-05-02T14:10:00.303Z</time></trkpt><trkpt lat="40.880505" lon="14.07307"><ele>30.0</ele><time>2026-05-02T14:10:01.303Z</time></trkpt><trkpt lat="40.880555" lon="14.07313"><ele>30.0</ele><time>2026-05-02T14:10:02.302Z</time></trkpt><trkpt lat="40.880605" lon="14.0731883"><ele>30.0</ele><time>2026-05-02T14:10:03.303Z</time></trkpt><trkpt lat="40.88065" lon="14.073255"><ele>30.0</ele><time>2026-05-02T14:10:04.302Z</time></trkpt><trkpt lat="40.8806983" lon="14.07332"><ele>30.0</ele><time>2026-05-02T14:10:05.303Z</time></trkpt><trkpt lat="40.8807467" lon="14.0733867"><ele>30.142857142857146</ele><time>2026-05-02T14:10:06.302Z</time></trkpt><trkpt lat="40.8807933" lon="14.073455"><ele>30.285714285714285</ele><time>2026-05-02T14:10:07.305Z</time></trkpt><trkpt lat="40.8808417" lon="14.0735183"><ele>30.42857142857143</ele><time>2026-05-02T14:10:08.302Z</time></trkpt><trkpt lat="40.8808883" lon="14.0735833"><ele>30.571428571428573</ele><time>2026-05-02T14:10:09.303Z</time></trkpt><trkpt lat="40.8809333" lon="14.0736483"><ele>30.714285714285715</ele><time>2026-05-02T14:10:10.303Z</time></trkpt><trkpt lat="40.88098" lon="14.0737117"><ele>30.857142857142858</ele><time>2026-05-02T14:10:11.303Z</time></trkpt><trkpt lat="40.8810267" lon="14.0737783"><ele>31.0</ele><time>2026-05-02T14:10:12.302Z</time></trkpt><trkpt lat="40.88107" lon="14.0738467"><ele>31.166666666666668</ele><time>2026-05-02T14:10:13.303Z</time></trkpt><trkpt lat="40.881115" lon="14.0739083"><ele>31.333333333333336</ele><time>2026-05-02T14:10:14.302Z</time></trkpt><trkpt lat="40.88116" lon="14.0739683"><ele>31.5</ele><time>2026-05-02T14:10:15.303Z</time></trkpt><trkpt lat="40.88125" lon="14.0740917"><ele>31.666666666666664</ele><time>2026-05-02T14:10:17.303Z</time></trkpt><trkpt lat="40.881295" lon="14.0741583"><ele>31.833333333333332</ele><time>2026-05-02T14:10:18.303Z</time></trkpt><trkpt lat="40.8813383" lon="14.074225"><ele>32.0</ele><time>2026-05-02T14:10:19.304Z</time></trkpt><trkpt lat="40.8813783" lon="14.0742967"><ele>31.999999999999996</ele><time>2026-05-02T14:10:20.302Z</time></trkpt><trkpt lat="40.8814233" lon="14.0743667"><ele>32.0</ele><time>2026-05-02T14:10:21.302Z</time></trkpt><trkpt lat="40.8814717" lon="14.0744333"><ele>32.0</ele><time>2026-05-02T14:10:22.302Z</time></trkpt><trkpt lat="40.8815167" lon="14.074495"><ele>32.0</ele><time>2026-05-02T14:10:23.304Z</time></trkpt><trkpt lat="40.881605" lon="14.0746183"><ele>31.999999999999996</ele><time>2026-05-02T14:10:25.303Z</time></trkpt><trkpt lat="40.8816483" lon="14.0746817"><ele>32.0</ele><time>2026-05-02T14:10:26.302Z</time></trkpt><trkpt lat="40.88169" lon="14.074745"><ele>31.833333333333332</ele><time>2026-05-02T14:10:27.302Z</time></trkpt><trkpt lat="40.8817667" lon="14.0748767"><ele>31.666666666666664</ele><time>2026-05-02T14:10:29.303Z</time></trkpt><trkpt lat="40.8818083" lon="14.0749433"><ele>31.5</ele><time>2026-05-02T14:10:30.302Z</time></trkpt><trkpt lat="40.881855" lon="14.07501"><ele>31.333333333333336</ele><time>2026-05-02T14:10:31.303Z</time></trkpt><trkpt lat="40.8819017" lon="14.075075"><ele>31.166666666666668</ele><time>2026-05-02T14:10:32.302Z</time></trkpt><trkpt lat="40.8819483" lon="14.0751417"><ele>31.0</ele><time>2026-05-02T14:10:33.302Z</time></trkpt><trkpt lat="40.88199" lon="14.07521"><ele>31.857142857142858</ele><time>2026-05-02T14:10:34.302Z</time></trkpt><trkpt lat="40.8820333" lon="14.07528"><ele>32.714285714285715</ele><time>2026-05-02T14:10:35.302Z</time></trkpt><trkpt lat="40.8820783" lon="14.0753483"><ele>33.57142857142857</ele><time>2026-05-02T14:10:36.303Z</time></trkpt><trkpt lat="40.88212" lon="14.0754217"><ele>34.42857142857143</ele><time>2026-05-02T14:10:37.303Z</time></trkpt><trkpt lat="40.8821567" lon="14.0754917"><ele>35.285714285714285</ele><time>2026-05-02T14:10:38.303Z</time></trkpt><trkpt lat="40.882195" lon="14.0755717"><ele>36.142857142857146</ele><time>2026-05-02T14:10:39.303Z</time></trkpt><trkpt lat="40.882235" lon="14.0756517"><ele>37.0</ele><time>2026-05-02T14:10:40.303Z</time></trkpt><trkpt lat="40.88228" lon="14.0757267"><ele>37.142857142857146</ele><time>2026-05-02T14:10:41.303Z</time></trkpt><trkpt lat="40.88232" lon="14.0758067"><ele>37.285714285714285</ele><time>2026-05-02T14:10:42.304Z</time></trkpt><trkpt lat="40.8823617" lon="14.075885"><ele>37.42857142857143</ele><time>2026-05-02T14:10:43.305Z</time></trkpt><trkpt lat="40.8824033" lon="14.0759633"><ele>37.57142857142857</ele><time>2026-05-02T14:10:44.305Z</time></trkpt><trkpt lat="40.8824433" lon="14.0760417"><ele>37.714285714285715</ele><time>2026-05-02T14:10:45.303Z</time></trkpt><trkpt lat="40.8824883" lon="14.0761183"><ele>37.857142857142854</ele><time>2026-05-02T14:10:46.304Z</time></trkpt><trkpt lat="40.8825283" lon="14.0761933"><ele>38.0</ele><time>2026-05-02T14:10:47.304Z</time></trkpt><trkpt lat="40.88257" lon="14.0762733"><ele>38.42857142857142</ele><time>2026-05-02T14:10:48.303Z</time></trkpt><trkpt lat="40.88261" lon="14.0763517"><ele>38.85714285714286</ele><time>2026-05-02T14:10:49.304Z</time></trkpt><trkpt lat="40.882655" lon="14.0764283"><ele>39.285714285714285</ele><time>2026-05-02T14:10:50.303Z</time></trkpt><trkpt lat="40.8826983" lon="14.0765033"><ele>39.71428571428571</ele><time>2026-05-02T14:10:51.303Z</time></trkpt><trkpt lat="40.882745" lon="14.0765783"><ele>40.14285714285714</ele><time>2026-05-02T14:10:52.304Z</time></trkpt><trkpt lat="40.88279" lon="14.07666"><ele>40.57142857142857</ele><time>2026-05-02T14:10:53.304Z</time></trkpt><trkpt lat="40.882835" lon="14.07674"><ele>41.0</ele><time>2026-05-02T14:10:54.303Z</time></trkpt><trkpt lat="40.88288" lon="14.07682"><ele>40.99999999999999</ele><time>2026-05-02T14:10:55.307Z</time></trkpt><trkpt lat="40.8829217" lon="14.0769017"><ele>41.0</ele><time>2026-05-02T14:10:56.304Z</time></trkpt><trkpt lat="40.8829617" lon="14.07698"><ele>41.0</ele><time>2026-05-02T14:10:57.305Z</time></trkpt><trkpt lat="40.8830033" lon="14.0770617"><ele>41.0</ele><time>2026-05-02T14:10:58.303Z</time></trkpt><trkpt lat="40.8830417" lon="14.0771433"><ele>41.0</ele><time>2026-05-02T14:10:59.304Z</time></trkpt><trkpt lat="40.8830783" lon="14.0772317"><ele>40.99999999999999</ele><time>2026-05-02T14:11:00.303Z</time></trkpt><trkpt lat="40.883115" lon="14.0773217"><ele>41.0</ele><time>2026-05-02T14:11:01.304Z</time></trkpt><trkpt lat="40.8831567" lon="14.07741"><ele>41.0</ele><time>2026-05-02T14:11:02.304Z</time></trkpt><trkpt lat="40.8831983" lon="14.0774983"><ele>41.0</ele><time>2026-05-02T14:11:03.303Z</time></trkpt><trkpt lat="40.8832417" lon="14.0775817"><ele>41.0</ele><time>2026-05-02T14:11:04.303Z</time></trkpt><trkpt lat="40.8832783" lon="14.0776667"><ele>41.0</ele><time>2026-05-02T14:11:05.302Z</time></trkpt><trkpt lat="40.8833133" lon="14.0777567"><ele>41.0</ele><time>2026-05-02T14:11:06.301Z</time></trkpt><trkpt lat="40.8833517" lon="14.0778467"><ele>41.0</ele><time>2026-05-02T14:11:07.305Z</time></trkpt><trkpt lat="40.8833917" lon="14.0779367"><ele>41.33333333333333</ele><time>2026-05-02T14:11:08.304Z</time></trkpt><trkpt lat="40.8834383" lon="14.0780233"><ele>41.666666666666664</ele><time>2026-05-02T14:11:09.302Z</time></trkpt><trkpt lat="40.8834867" lon="14.0781133"><ele>42.0</ele><time>2026-05-02T14:11:10.303Z</time></trkpt><trkpt lat="40.88354" lon="14.0782083"><ele>42.333333333333336</ele><time>2026-05-02T14:11:11.304Z</time></trkpt><trkpt lat="40.88359" lon="14.0783083"><ele>42.66666666666667</ele><time>2026-05-02T14:11:12.303Z</time></trkpt><trkpt lat="40.8836467" lon="14.0783983"><ele>43.0</ele><time>2026-05-02T14:11:13.303Z</time></trkpt><trkpt lat="40.8837017" lon="14.0784833"><ele>43.0</ele><time>2026-05-02T14:11:14.302Z</time></trkpt><trkpt lat="40.8837617" lon="14.078565"><ele>43.0</ele><time>2026-05-02T14:11:15.301Z</time></trkpt><trkpt lat="40.8838183" lon="14.078645"><ele>43.0</ele><time>2026-05-02T14:11:16.303Z</time></trkpt><trkpt lat="40.8838683" lon="14.0787267"><ele>43.0</ele><time>2026-05-02T14:11:17.303Z</time></trkpt><trkpt lat="40.8839217" lon="14.0788"><ele>43.0</ele><time>2026-05-02T14:11:18.303Z</time></trkpt><trkpt lat="40.8839733" lon="14.07887"><ele>43.0</ele><time>2026-05-02T14:11:19.304Z</time></trkpt><trkpt lat="40.884025" lon="14.0789417"><ele>43.0</ele><time>2026-05-02T14:11:20.303Z</time></trkpt><trkpt lat="40.884075" lon="14.0790133"><ele>43.0</ele><time>2026-05-02T14:11:21.304Z</time></trkpt><trkpt lat="40.8841267" lon="14.0790817"><ele>43.0</ele><time>2026-05-02T14:11:22.302Z</time></trkpt><trkpt lat="40.88418" lon="14.0791517"><ele>43.0</ele><time>2026-05-02T14:11:23.303Z</time></trkpt><trkpt lat="40.884235" lon="14.079225"><ele>43.0</ele><time>2026-05-02T14:11:24.303Z</time></trkpt><trkpt lat="40.8842883" lon="14.0792983"><ele>43.0</ele><time>2026-05-02T14:11:25.306Z</time></trkpt><trkpt lat="40.884345" lon="14.079365"><ele>42.714285714285715</ele><time>2026-05-02T14:11:26.306Z</time></trkpt><trkpt lat="40.884395" lon="14.0794467"><ele>42.42857142857143</ele><time>2026-05-02T14:11:27.302Z</time></trkpt><trkpt lat="40.8844433" lon="14.0795267"><ele>42.14285714285714</ele><time>2026-05-02T14:11:28.303Z</time></trkpt><trkpt lat="40.8844917" lon="14.079605"><ele>41.85714285714286</ele><time>2026-05-02T14:11:29.304Z</time></trkpt><trkpt lat="40.8845417" lon="14.079675"><ele>41.57142857142857</ele><time>2026-05-02T14:11:30.303Z</time></trkpt><trkpt lat="40.8845917" lon="14.0797433"><ele>41.285714285714285</ele><time>2026-05-02T14:11:31.303Z</time></trkpt><trkpt lat="40.8846467" lon="14.0798017"><ele>41.0</ele><time>2026-05-02T14:11:32.303Z</time></trkpt><trkpt lat="40.884705" lon="14.0798567"><ele>41.0</ele><time>2026-05-02T14:11:33.301Z</time></trkpt><trkpt lat="40.8847683" lon="14.0799017"><ele>41.0</ele><time>2026-05-02T14:11:34.304Z</time></trkpt><trkpt lat="40.884835" lon="14.0799483"><ele>41.0</ele><time>2026-05-02T14:11:35.304Z</time></trkpt><trkpt lat="40.8849067" lon="14.079995"><ele>41.0</ele><time>2026-05-02T14:11:36.303Z</time></trkpt><trkpt lat="40.8849817" lon="14.080045"><ele>41.0</ele><time>2026-05-02T14:11:37.305Z</time></trkpt><trkpt lat="40.885055" lon="14.0800983"><ele>41.0</ele><time>2026-05-02T14:11:38.302Z</time></trkpt><trkpt lat="40.885135" lon="14.0801517"><ele>42.33333333333333</ele><time>2026-05-02T14:11:39.304Z</time></trkpt><trkpt lat="40.885215" lon="14.0802033"><ele>43.666666666666664</ele><time>2026-05-02T14:11:40.303Z</time></trkpt><trkpt lat="40.8852917" lon="14.0802517"><ele>45.0</ele><time>2026-05-02T14:11:41.305Z</time></trkpt><trkpt lat="40.8853667" lon="14.0802983"><ele>46.33333333333333</ele><time>2026-05-02T14:11:42.302Z</time></trkpt><trkpt lat="40.8854433" lon="14.0803433"><ele>47.666666666666664</ele><time>2026-05-02T14:11:43.302Z</time></trkpt><trkpt lat="40.8855217" lon="14.080385"><ele>49.0</ele><time>2026-05-02T14:11:44.303Z</time></trkpt><trkpt lat="40.8856033" lon="14.080415"><ele>48.99999999999999</ele><time>2026-05-02T14:11:45.303Z</time></trkpt><trkpt lat="40.88569" lon="14.08042"><ele>49.0</ele><time>2026-05-02T14:11:46.302Z</time></trkpt><trkpt lat="40.885775" lon="14.0804083"><ele>49.0</ele><time>2026-05-02T14:11:47.305Z</time></trkpt><trkpt lat="40.885855" lon="14.08038"><ele>49.0</ele><time>2026-05-02T14:11:48.304Z</time></trkpt><trkpt lat="40.8859367" lon="14.0803517"><ele>48.99999999999999</ele><time>2026-05-02T14:11:49.303Z</time></trkpt><trkpt lat="40.8860167" lon="14.0803267"><ele>49.0</ele><time>2026-05-02T14:11:50.302Z</time></trkpt><trkpt lat="40.8860967" lon="14.0803017"><ele>49.99999999999999</ele><time>2026-05-02T14:11:51.304Z</time></trkpt><trkpt lat="40.8861783" lon="14.0802817"><ele>51.0</ele><time>2026-05-02T14:11:52.303Z</time></trkpt><trkpt lat="40.88626" lon="14.080265"><ele>52.0</ele><time>2026-05-02T14:11:53.304Z</time></trkpt><trkpt lat="40.8863417" lon="14.080255"><ele>53.0</ele><time>2026-05-02T14:11:54.304Z</time></trkpt><trkpt lat="40.88642" lon="14.0802433"><ele>53.99999999999999</ele><time>2026-05-02T14:11:55.306Z</time></trkpt><trkpt lat="40.8865017" lon="14.0802383"><ele>55.0</ele><time>2026-05-02T14:11:56.303Z</time></trkpt><trkpt lat="40.8865833" lon="14.0802333"><ele>54.99999999999999</ele><time>2026-05-02T14:11:57.303Z</time></trkpt><trkpt lat="40.8866617" lon="14.0802283"><ele>55.0</ele><time>2026-05-02T14:11:58.303Z</time></trkpt><trkpt lat="40.886745" lon="14.0802233"><ele>55.0</ele><time>2026-05-02T14:11:59.303Z</time></trkpt><trkpt lat="40.8868283" lon="14.0802317"><ele>55.0</ele><time>2026-05-02T14:12:00.302Z</time></trkpt><trkpt lat="40.8869117" lon="14.0802533"><ele>54.99999999999999</ele><time>2026-05-02T14:12:01.303Z</time></trkpt><trkpt lat="40.8869917" lon="14.0802817"><ele>55.0</ele><time>2026-05-02T14:12:02.301Z</time></trkpt><trkpt lat="40.8870667" lon="14.08032"><ele>55.49999999999999</ele><time>2026-05-02T14:12:03.302Z</time></trkpt><trkpt lat="40.8871433" lon="14.0803617"><ele>56.0</ele><time>2026-05-02T14:12:04.302Z</time></trkpt><trkpt lat="40.8872167" lon="14.0804033"><ele>56.5</ele><time>2026-05-02T14:12:05.306Z</time></trkpt><trkpt lat="40.8872883" lon="14.0804433"><ele>57.0</ele><time>2026-05-02T14:12:06.303Z</time></trkpt><trkpt lat="40.887355" lon="14.0804883"><ele>57.49999999999999</ele><time>2026-05-02T14:12:07.303Z</time></trkpt><trkpt lat="40.88742" lon="14.0805317"><ele>58.0</ele><time>2026-05-02T14:12:08.303Z</time></trkpt><trkpt lat="40.88748" lon="14.08057"><ele>58.0</ele><time>2026-05-02T14:12:09.302Z</time></trkpt><trkpt lat="40.88754" lon="14.080605"><ele>58.0</ele><time>2026-05-02T14:12:10.304Z</time></trkpt><trkpt lat="40.88765" lon="14.0806633"><ele>58.0</ele><time>2026-05-02T14:12:12.303Z</time></trkpt><trkpt lat="40.8877467" lon="14.0807283"><ele>58.0</ele><time>2026-05-02T14:12:14.303Z</time></trkpt><trkpt lat="40.8878383" lon="14.0807667"><ele>58.0</ele><time>2026-05-02T14:12:16.304Z</time></trkpt><trkpt lat="40.8879233" lon="14.08081"><ele>58.0</ele><time>2026-05-02T14:12:18.302Z</time></trkpt><trkpt lat="40.8880017" lon="14.08085"><ele>58.0</ele><time>2026-05-02T14:12:20.304Z</time></trkpt><trkpt lat="40.8880833" lon="14.0809033"><ele>58.0</ele><time>2026-05-02T14:12:22.304Z</time></trkpt><trkpt lat="40.88817" lon="14.0809567"><ele>58.0</ele><time>2026-05-02T14:12:24.303Z</time></trkpt><trkpt lat="40.8882617" lon="14.08101"><ele>58.0</ele><time>2026-05-02T14:12:26.304Z</time></trkpt><trkpt lat="40.8883483" lon="14.0810667"><ele>57.8</ele><time>2026-05-02T14:12:28.303Z</time></trkpt><trkpt lat="40.8884367" lon="14.081115"><ele>57.599999999999994</ele><time>2026-05-02T14:12:30.305Z</time></trkpt><trkpt lat="40.8885317" lon="14.0811867"><ele>57.400000000000006</ele><time>2026-05-02T14:12:32.303Z</time></trkpt><trkpt lat="40.8886333" lon="14.081255"><ele>57.2</ele><time>2026-05-02T14:12:34.302Z</time></trkpt><trkpt lat="40.8887317" lon="14.0813483"><ele>57.0</ele><time>2026-05-02T14:12:36.305Z</time></trkpt><trkpt lat="40.8888033" lon="14.0814767"><ele>57.0</ele><time>2026-05-02T14:12:38.303Z</time></trkpt><trkpt lat="40.8888217" lon="14.0815567"><ele>57.0</ele><time>2026-05-02T14:12:39.302Z</time></trkpt><trkpt lat="40.8888433" lon="14.0816367"><ele>57.0</ele><time>2026-05-02T14:12:40.303Z</time></trkpt><trkpt lat="40.8888883" lon="14.0817817"><ele>57.0</ele><time>2026-05-02T14:12:42.304Z</time></trkpt><trkpt lat="40.88894" lon="14.0819283"><ele>57.0</ele><time>2026-05-02T14:12:44.31Z</time></trkpt><trkpt lat="40.8890017" lon="14.0820667"><ele>57.0</ele><time>2026-05-02T14:12:46.303Z</time></trkpt><trkpt lat="40.8890617" lon="14.0821967"><ele>57.0</ele><time>2026-05-02T14:12:48.304Z</time></trkpt><trkpt lat="40.8891183" lon="14.0823367"><ele>57.0</ele><time>2026-05-02T14:12:50.303Z</time></trkpt><trkpt lat="40.8891733" lon="14.08248"><ele>57.0</ele><time>2026-05-02T14:12:52.305Z</time></trkpt><trkpt lat="40.8892067" lon="14.0825517"><ele>57.0</ele><time>2026-05-02T14:12:53.304Z</time></trkpt><trkpt lat="40.88924" lon="14.0826283"><ele>57.333333333333336</ele><time>2026-05-02T14:12:54.304Z</time></trkpt><trkpt lat="40.889275" lon="14.0827017"><ele>57.66666666666667</ele><time>2026-05-02T14:12:55.305Z</time></trkpt><trkpt lat="40.8893133" lon="14.0827717"><ele>58.0</ele><time>2026-05-02T14:12:56.304Z</time></trkpt><trkpt lat="40.8893533" lon="14.08284"><ele>58.333333333333336</ele><time>2026-05-02T14:12:57.303Z</time></trkpt><trkpt lat="40.889395" lon="14.0829067"><ele>58.66666666666667</ele><time>2026-05-02T14:12:58.303Z</time></trkpt><trkpt lat="40.8894817" lon="14.0830317"><ele>59.0</ele><time>2026-05-02T14:13:00.303Z</time></trkpt><trkpt lat="40.8895617" lon="14.0831567"><ele>59.5</ele><time>2026-05-02T14:13:02.303Z</time></trkpt><trkpt lat="40.8896383" lon="14.0832733"><ele>60.0</ele><time>2026-05-02T14:13:04.302Z</time></trkpt><trkpt lat="40.8897183" lon="14.0833867"><ele>60.5</ele><time>2026-05-02T14:13:06.303Z</time></trkpt><trkpt lat="40.889795" lon="14.0835017"><ele>61.0</ele><time>2026-05-02T14:13:08.305Z</time></trkpt><trkpt lat="40.88987" lon="14.0836033"><ele>60.99999999999999</ele><time>2026-05-02T14:13:10.303Z</time></trkpt><trkpt lat="40.889955" lon="14.0837183"><ele>61.0</ele><time>2026-05-02T14:13:12.303Z</time></trkpt><trkpt lat="40.8900383" lon="14.0838433"><ele>61.0</ele><time>2026-05-02T14:13:14.302Z</time></trkpt><trkpt lat="40.8900833" lon="14.0839083"><ele>61.0</ele><time>2026-05-02T14:13:15.31Z</time></trkpt><trkpt lat="40.89013" lon="14.083975"><ele>60.99999999999999</ele><time>2026-05-02T14:13:16.302Z</time></trkpt><trkpt lat="40.8901717" lon="14.08404"><ele>61.0</ele><time>2026-05-02T14:13:17.304Z</time></trkpt><trkpt lat="40.89026" lon="14.0841567"><ele>61.375</ele><time>2026-05-02T14:13:19.303Z</time></trkpt><trkpt lat="40.8903017" lon="14.08422"><ele>61.75</ele><time>2026-05-02T14:13:20.301Z</time></trkpt><trkpt lat="40.8903433" lon="14.084285"><ele>62.125</ele><time>2026-05-02T14:13:21.302Z</time></trkpt><trkpt lat="40.8903867" lon="14.0843467"><ele>62.5</ele><time>2026-05-02T14:13:22.301Z</time></trkpt><trkpt lat="40.8904317" lon="14.084405"><ele>62.875</ele><time>2026-05-02T14:13:23.303Z</time></trkpt><trkpt lat="40.8904783" lon="14.084465"><ele>63.25</ele><time>2026-05-02T14:13:24.301Z</time></trkpt><trkpt lat="40.890525" lon="14.0845217"><ele>63.625</ele><time>2026-05-02T14:13:25.302Z</time></trkpt><trkpt lat="40.89057" lon="14.0845833"><ele>64.0</ele><time>2026-05-02T14:13:26.302Z</time></trkpt><trkpt lat="40.8906167" lon="14.0846467"><ele>64.0</ele><time>2026-05-02T14:13:27.301Z</time></trkpt><trkpt lat="40.8906617" lon="14.08471"><ele>63.99999999999999</ele><time>2026-05-02T14:13:28.302Z</time></trkpt><trkpt lat="40.8907083" lon="14.08477"><ele>64.0</ele><time>2026-05-02T14:13:29.305Z</time></trkpt><trkpt lat="40.8907533" lon="14.0848283"><ele>64.0</ele><time>2026-05-02T14:13:30.303Z</time></trkpt><trkpt lat="40.8907983" lon="14.0848883"><ele>63.99999999999999</ele><time>2026-05-02T14:13:31.302Z</time></trkpt><trkpt lat="40.8908433" lon="14.08495"><ele>64.0</ele><time>2026-05-02T14:13:32.304Z</time></trkpt><trkpt lat="40.8908867" lon="14.0850133"><ele>64.0</ele><time>2026-05-02T14:13:33.301Z</time></trkpt><trkpt lat="40.8909333" lon="14.0850733"><ele>64.5</ele><time>2026-05-02T14:13:34.302Z</time></trkpt><trkpt lat="40.89098" lon="14.0851317"><ele>65.0</ele><time>2026-05-02T14:13:35.302Z</time></trkpt><trkpt lat="40.891025" lon="14.08519"><ele>65.5</ele><time>2026-05-02T14:13:36.302Z</time></trkpt><trkpt lat="40.8910717" lon="14.08525"><ele>66.0</ele><time>2026-05-02T14:13:37.302Z</time></trkpt><trkpt lat="40.8911167" lon="14.08531"><ele>66.5</ele><time>2026-05-02T14:13:38.302Z</time></trkpt><trkpt lat="40.891205" lon="14.08543"><ele>67.0</ele><time>2026-05-02T14:13:40.302Z</time></trkpt><trkpt lat="40.891285" lon="14.0855617"><ele>67.0</ele><time>2026-05-02T14:13:42.302Z</time></trkpt><trkpt lat="40.8913467" lon="14.0857083"><ele>67.0</ele><time>2026-05-02T14:13:44.305Z</time></trkpt><trkpt lat="40.8913683" lon="14.08579"><ele>67.0</ele><time>2026-05-02T14:13:45.302Z</time></trkpt><trkpt lat="40.8913817" lon="14.0858733"><ele>67.0</ele><time>2026-05-02T14:13:46.301Z</time></trkpt><trkpt lat="40.8913833" lon="14.08596"><ele>67.0</ele><time>2026-05-02T14:13:47.302Z</time></trkpt><trkpt lat="40.8913767" lon="14.086045"><ele>67.0</ele><time>2026-05-02T14:13:48.302Z</time></trkpt><trkpt lat="40.8913633" lon="14.0861267"><ele>67.5</ele><time>2026-05-02T14:13:49.302Z</time></trkpt><trkpt lat="40.8913433" lon="14.08621"><ele>68.0</ele><time>2026-05-02T14:13:50.301Z</time></trkpt><trkpt lat="40.89132" lon="14.0862917"><ele>68.5</ele><time>2026-05-02T14:13:51.302Z</time></trkpt><trkpt lat="40.891295" lon="14.08637"><ele>69.0</ele><time>2026-05-02T14:13:52.304Z</time></trkpt><trkpt lat="40.89127" lon="14.0864467"><ele>69.5</ele><time>2026-05-02T14:13:53.303Z</time></trkpt><trkpt lat="40.89124" lon="14.0865233"><ele>70.0</ele><time>2026-05-02T14:13:54.302Z</time></trkpt><trkpt lat="40.8911817" lon="14.0866717"><ele>70.14285714285714</ele><time>2026-05-02T14:13:56.301Z</time></trkpt><trkpt lat="40.8911533" lon="14.08675"><ele>70.28571428571428</ele><time>2026-05-02T14:13:57.301Z</time></trkpt><trkpt lat="40.8911267" lon="14.0868267"><ele>70.42857142857143</ele><time>2026-05-02T14:13:58.302Z</time></trkpt><trkpt lat="40.8911017" lon="14.08691"><ele>70.57142857142857</ele><time>2026-05-02T14:13:59.302Z</time></trkpt><trkpt lat="40.8910717" lon="14.0869933"><ele>70.71428571428571</ele><time>2026-05-02T14:14:00.302Z</time></trkpt><trkpt lat="40.8910433" lon="14.0870767"><ele>70.85714285714286</ele><time>2026-05-02T14:14:01.302Z</time></trkpt><trkpt lat="40.891015" lon="14.0871583"><ele>71.0</ele><time>2026-05-02T14:14:02.301Z</time></trkpt><trkpt lat="40.8909883" lon="14.08724"><ele>71.0</ele><time>2026-05-02T14:14:03.302Z</time></trkpt><trkpt lat="40.89096" lon="14.087325"><ele>71.0</ele><time>2026-05-02T14:14:04.303Z</time></trkpt><trkpt lat="40.8909333" lon="14.087415"><ele>71.0</ele><time>2026-05-02T14:14:05.304Z</time></trkpt><trkpt lat="40.8909067" lon="14.0875033"><ele>71.0</ele><time>2026-05-02T14:14:06.303Z</time></trkpt><trkpt lat="40.89088" lon="14.087595"><ele>71.0</ele><time>2026-05-02T14:14:07.303Z</time></trkpt><trkpt lat="40.8908533" lon="14.0876833"><ele>71.0</ele><time>2026-05-02T14:14:08.302Z</time></trkpt><trkpt lat="40.8908233" lon="14.0877733"><ele>71.0</ele><time>2026-05-02T14:14:09.303Z</time></trkpt><trkpt lat="40.8907933" lon="14.0878633"><ele>71.16666666666667</ele><time>2026-05-02T14:14:10.305Z</time></trkpt><trkpt lat="40.8907617" lon="14.087955"><ele>71.33333333333334</ele><time>2026-05-02T14:14:11.302Z</time></trkpt><trkpt lat="40.8907333" lon="14.0880483"><ele>71.5</ele><time>2026-05-02T14:14:12.302Z</time></trkpt><trkpt lat="40.8907067" lon="14.0881417"><ele>71.66666666666667</ele><time>2026-05-02T14:14:13.302Z</time></trkpt><trkpt lat="40.8906783" lon="14.0882333"><ele>71.83333333333333</ele><time>2026-05-02T14:14:14.301Z</time></trkpt><trkpt lat="40.8906567" lon="14.08833"><ele>72.0</ele><time>2026-05-02T14:14:15.303Z</time></trkpt><trkpt lat="40.8906417" lon="14.0884333"><ele>72.0</ele><time>2026-05-02T14:14:16.302Z</time></trkpt><trkpt lat="40.8906367" lon="14.08854"><ele>72.0</ele><time>2026-05-02T14:14:17.303Z</time></trkpt><trkpt lat="40.8906383" lon="14.088645"><ele>72.0</ele><time>2026-05-02T14:14:18.302Z</time></trkpt><trkpt lat="40.890645" lon="14.0887533"><ele>72.0</ele><time>2026-05-02T14:14:19.302Z</time></trkpt><trkpt lat="40.8906583" lon="14.08886"><ele>72.0</ele><time>2026-05-02T14:14:20.301Z</time></trkpt><trkpt lat="40.8906767" lon="14.0889633"><ele>72.0</ele><time>2026-05-02T14:14:21.3Z</time></trkpt><trkpt lat="40.8907" lon="14.0890667"><ele>72.16666666666667</ele><time>2026-05-02T14:14:22.302Z</time></trkpt><trkpt lat="40.8907267" lon="14.0891667"><ele>72.33333333333333</ele><time>2026-05-02T14:14:23.304Z</time></trkpt><trkpt lat="40.890755" lon="14.0892617"><ele>72.5</ele><time>2026-05-02T14:14:24.302Z</time></trkpt><trkpt lat="40.8907817" lon="14.0893583"><ele>72.66666666666666</ele><time>2026-05-02T14:14:25.302Z</time></trkpt><trkpt lat="40.8908067" lon="14.0894567"><ele>72.83333333333333</ele><time>2026-05-02T14:14:26.303Z</time></trkpt><trkpt lat="40.8908283" lon="14.089555"><ele>73.0</ele><time>2026-05-02T14:14:27.304Z</time></trkpt><trkpt lat="40.8908483" lon="14.089655"><ele>73.0</ele><time>2026-05-02T14:14:28.302Z</time></trkpt><trkpt lat="40.8908733" lon="14.0897583"><ele>73.0</ele><time>2026-05-02T14:14:29.302Z</time></trkpt><trkpt lat="40.8908967" lon="14.08986"><ele>73.0</ele><time>2026-05-02T14:14:30.303Z</time></trkpt><trkpt lat="40.8909217" lon="14.0899617"><ele>73.0</ele><time>2026-05-02T14:14:31.303Z</time></trkpt><trkpt lat="40.890945" lon="14.0900617"><ele>73.0</ele><time>2026-05-02T14:14:32.304Z</time></trkpt><trkpt lat="40.89097" lon="14.0901683"><ele>73.0</ele><time>2026-05-02T14:14:33.302Z</time></trkpt><trkpt lat="40.8909933" lon="14.0902717"><ele>73.33333333333333</ele><time>2026-05-02T14:14:34.303Z</time></trkpt><trkpt lat="40.8910167" lon="14.0903733"><ele>73.66666666666666</ele><time>2026-05-02T14:14:35.302Z</time></trkpt><trkpt lat="40.89104" lon="14.090475"><ele>74.0</ele><time>2026-05-02T14:14:36.304Z</time></trkpt><trkpt lat="40.89106" lon="14.09057"><ele>74.33333333333333</ele><time>2026-05-02T14:14:37.302Z</time></trkpt><trkpt lat="40.89108" lon="14.090665"><ele>74.66666666666667</ele><time>2026-05-02T14:14:38.302Z</time></trkpt><trkpt lat="40.8911017" lon="14.0907583"><ele>75.0</ele><time>2026-05-02T14:14:39.302Z</time></trkpt><trkpt lat="40.8911167" lon="14.0908483"><ele>75.28571428571428</ele><time>2026-05-02T14:14:40.302Z</time></trkpt><trkpt lat="40.8911267" lon="14.0909417"><ele>75.57142857142857</ele><time>2026-05-02T14:14:41.302Z</time></trkpt><trkpt lat="40.8911417" lon="14.0910433"><ele>75.85714285714286</ele><time>2026-05-02T14:14:42.302Z</time></trkpt><trkpt lat="40.8911567" lon="14.0911417"><ele>76.14285714285714</ele><time>2026-05-02T14:14:43.303Z</time></trkpt><trkpt lat="40.8911717" lon="14.09124"><ele>76.42857142857143</ele><time>2026-05-02T14:14:44.301Z</time></trkpt><trkpt lat="40.891185" lon="14.0913367"><ele>76.71428571428571</ele><time>2026-05-02T14:14:45.302Z</time></trkpt><trkpt lat="40.8911983" lon="14.0914317"><ele>77.0</ele><time>2026-05-02T14:14:46.302Z</time></trkpt><trkpt lat="40.89121" lon="14.09153"><ele>77.16666666666667</ele><time>2026-05-02T14:14:47.303Z</time></trkpt><trkpt lat="40.8912217" lon="14.09163"><ele>77.33333333333334</ele><time>2026-05-02T14:14:48.302Z</time></trkpt><trkpt lat="40.8912317" lon="14.0917317"><ele>77.5</ele><time>2026-05-02T14:14:49.304Z</time></trkpt><trkpt lat="40.891245" lon="14.0918317"><ele>77.66666666666667</ele><time>2026-05-02T14:14:50.302Z</time></trkpt><trkpt lat="40.8912583" lon="14.0919333"><ele>77.83333333333333</ele><time>2026-05-02T14:14:51.302Z</time></trkpt><trkpt lat="40.8912717" lon="14.0920317"><ele>78.0</ele><time>2026-05-02T14:14:52.303Z</time></trkpt><trkpt lat="40.8912867" lon="14.092135"><ele>78.0</ele><time>2026-05-02T14:14:53.302Z</time></trkpt><trkpt lat="40.8912983" lon="14.0922383"><ele>78.0</ele><time>2026-05-02T14:14:54.302Z</time></trkpt><trkpt lat="40.891315" lon="14.092345"><ele>78.0</ele><time>2026-05-02T14:14:55.302Z</time></trkpt><trkpt lat="40.8913333" lon="14.0924467"><ele>78.0</ele><time>2026-05-02T14:14:56.302Z</time></trkpt><trkpt lat="40.89135" lon="14.0925467"><ele>78.0</ele><time>2026-05-02T14:14:57.302Z</time></trkpt><trkpt lat="40.8913717" lon="14.0926467"><ele>78.0</ele><time>2026-05-02T14:14:58.302Z</time></trkpt><trkpt lat="40.89139" lon="14.0927433"><ele>78.16666666666667</ele><time>2026-05-02T14:14:59.303Z</time></trkpt><trkpt lat="40.8914083" lon="14.0928383"><ele>78.33333333333333</ele><time>2026-05-02T14:15:00.302Z</time></trkpt><trkpt lat="40.8914283" lon="14.0929317"><ele>78.5</ele><time>2026-05-02T14:15:01.302Z</time></trkpt><trkpt lat="40.8914533" lon="14.0930283"><ele>78.66666666666666</ele><time>2026-05-02T14:15:02.302Z</time></trkpt><trkpt lat="40.8914783" lon="14.0931233"><ele>78.83333333333333</ele><time>2026-05-02T14:15:03.302Z</time></trkpt><trkpt lat="40.8915067" lon="14.093215"><ele>79.0</ele><time>2026-05-02T14:15:04.302Z</time></trkpt><trkpt lat="40.8915383" lon="14.0933067"><ele>79.0</ele><time>2026-05-02T14:15:05.302Z</time></trkpt><trkpt lat="40.891575" lon="14.0933983"><ele>79.0</ele><time>2026-05-02T14:15:06.302Z</time></trkpt><trkpt lat="40.89161" lon="14.0934883"><ele>79.0</ele><time>2026-05-02T14:15:07.302Z</time></trkpt><trkpt lat="40.8916483" lon="14.093575"><ele>79.0</ele><time>2026-05-02T14:15:08.302Z</time></trkpt><trkpt lat="40.8916883" lon="14.09366"><ele>79.0</ele><time>2026-05-02T14:15:09.302Z</time></trkpt><trkpt lat="40.891735" lon="14.0937433"><ele>79.0</ele><time>2026-05-02T14:15:10.303Z</time></trkpt><trkpt lat="40.8917783" lon="14.0938283"><ele>79.33333333333333</ele><time>2026-05-02T14:15:11.302Z</time></trkpt><trkpt lat="40.8918233" lon="14.09391"><ele>79.66666666666666</ele><time>2026-05-02T14:15:12.302Z</time></trkpt><trkpt lat="40.8918667" lon="14.093995"><ele>80.0</ele><time>2026-05-02T14:15:13.303Z</time></trkpt><trkpt lat="40.8919067" lon="14.0940833"><ele>80.33333333333333</ele><time>2026-05-02T14:15:14.303Z</time></trkpt><trkpt lat="40.891945" lon="14.094175"><ele>80.66666666666667</ele><time>2026-05-02T14:15:15.302Z</time></trkpt><trkpt lat="40.8919833" lon="14.0942583"><ele>81.0</ele><time>2026-05-02T14:15:16.301Z</time></trkpt><trkpt lat="40.8920217" lon="14.0943433"><ele>81.16666666666667</ele><time>2026-05-02T14:15:17.302Z</time></trkpt><trkpt lat="40.8920567" lon="14.09443"><ele>81.33333333333333</ele><time>2026-05-02T14:15:18.302Z</time></trkpt><trkpt lat="40.892095" lon="14.0945117"><ele>81.5</ele><time>2026-05-02T14:15:19.302Z</time></trkpt><trkpt lat="40.8921317" lon="14.0945983"><ele>81.66666666666666</ele><time>2026-05-02T14:15:20.304Z</time></trkpt><trkpt lat="40.8921683" lon="14.094685"><ele>81.83333333333333</ele><time>2026-05-02T14:15:21.302Z</time></trkpt><trkpt lat="40.8922067" lon="14.094775"><ele>82.0</ele><time>2026-05-02T14:15:22.302Z</time></trkpt><trkpt lat="40.89225" lon="14.094865"><ele>82.33333333333333</ele><time>2026-05-02T14:15:23.302Z</time></trkpt><trkpt lat="40.8922933" lon="14.0949517"><ele>82.66666666666666</ele><time>2026-05-02T14:15:24.302Z</time></trkpt><trkpt lat="40.8923367" lon="14.09504"><ele>83.0</ele><time>2026-05-02T14:15:25.304Z</time></trkpt><trkpt lat="40.8923783" lon="14.0951267"><ele>83.33333333333333</ele><time>2026-05-02T14:15:26.303Z</time></trkpt><trkpt lat="40.89242" lon="14.0952117"><ele>83.66666666666667</ele><time>2026-05-02T14:15:27.302Z</time></trkpt><trkpt lat="40.8924633" lon="14.0952967"><ele>84.0</ele><time>2026-05-02T14:15:28.302Z</time></trkpt><trkpt lat="40.8925033" lon="14.0953833"><ele>84.0</ele><time>2026-05-02T14:15:29.302Z</time></trkpt><trkpt lat="40.8925433" lon="14.0954717"><ele>84.0</ele><time>2026-05-02T14:15:30.303Z</time></trkpt><trkpt lat="40.89258" lon="14.0955633"><ele>84.0</ele><time>2026-05-02T14:15:31.303Z</time></trkpt><trkpt lat="40.892615" lon="14.0956567"><ele>84.0</ele><time>2026-05-02T14:15:32.301Z</time></trkpt><trkpt lat="40.89265" lon="14.0957467"><ele>84.0</ele><time>2026-05-02T14:15:33.301Z</time></trkpt><trkpt lat="40.8926833" lon="14.0958383"><ele>84.0</ele><time>2026-05-02T14:15:34.302Z</time></trkpt><trkpt lat="40.8927133" lon="14.0959333"><ele>84.16666666666667</ele><time>2026-05-02T14:15:35.304Z</time></trkpt><trkpt lat="40.8927433" lon="14.0960283"><ele>84.33333333333333</ele><time>2026-05-02T14:15:36.302Z</time></trkpt><trkpt lat="40.8927717" lon="14.09612"><ele>84.5</ele><time>2026-05-02T14:15:37.303Z</time></trkpt><trkpt lat="40.8927983" lon="14.0962117"><ele>84.66666666666666</ele><time>2026-05-02T14:15:38.302Z</time></trkpt><trkpt lat="40.8928217" lon="14.09631"><ele>84.83333333333333</ele><time>2026-05-02T14:15:39.302Z</time></trkpt><trkpt lat="40.8928467" lon="14.0964067"><ele>85.0</ele><time>2026-05-02T14:15:40.302Z</time></trkpt><trkpt lat="40.89287" lon="14.0965017"><ele>85.33333333333333</ele><time>2026-05-02T14:15:41.304Z</time></trkpt><trkpt lat="40.8928917" lon="14.0965983"><ele>85.66666666666666</ele><time>2026-05-02T14:15:42.302Z</time></trkpt><trkpt lat="40.892915" lon="14.0967"><ele>86.0</ele><time>2026-05-02T14:15:43.308Z</time></trkpt><trkpt lat="40.89294" lon="14.0967983"><ele>86.33333333333333</ele><time>2026-05-02T14:15:44.302Z</time></trkpt><trkpt lat="40.892965" lon="14.0968933"><ele>86.66666666666667</ele><time>2026-05-02T14:15:45.302Z</time></trkpt><trkpt lat="40.8929933" lon="14.0969883"><ele>87.0</ele><time>2026-05-02T14:15:46.303Z</time></trkpt><trkpt lat="40.89302" lon="14.0970833"><ele>87.0</ele><time>2026-05-02T14:15:47.302Z</time></trkpt><trkpt lat="40.8930483" lon="14.0971817"><ele>87.0</ele><time>2026-05-02T14:15:48.302Z</time></trkpt><trkpt lat="40.893075" lon="14.097275"><ele>87.0</ele><time>2026-05-02T14:15:49.302Z</time></trkpt><trkpt lat="40.8930983" lon="14.09737"><ele>87.0</ele><time>2026-05-02T14:15:50.301Z</time></trkpt><trkpt lat="40.8931233" lon="14.09747"><ele>87.0</ele><time>2026-05-02T14:15:51.302Z</time></trkpt><trkpt lat="40.8931433" lon="14.09757"><ele>87.0</ele><time>2026-05-02T14:15:52.304Z</time></trkpt><trkpt lat="40.8931667" lon="14.0976683"><ele>87.0</ele><time>2026-05-02T14:15:53.303Z</time></trkpt><trkpt lat="40.8931933" lon="14.0977667"><ele>87.0</ele><time>2026-05-02T14:15:54.305Z</time></trkpt><trkpt lat="40.8932217" lon="14.0978633"><ele>87.0</ele><time>2026-05-02T14:15:55.303Z</time></trkpt><trkpt lat="40.8932483" lon="14.09796"><ele>87.0</ele><time>2026-05-02T14:15:56.304Z</time></trkpt><trkpt lat="40.8932767" lon="14.098055"><ele>87.0</ele><time>2026-05-02T14:15:57.302Z</time></trkpt><trkpt lat="40.893305" lon="14.098155"><ele>87.0</ele><time>2026-05-02T14:15:58.303Z</time></trkpt><trkpt lat="40.8933317" lon="14.0982583"><ele>87.0</ele><time>2026-05-02T14:15:59.303Z</time></trkpt><trkpt lat="40.8933583" lon="14.09836"><ele>87.0</ele><time>2026-05-02T14:16:00.303Z</time></trkpt><trkpt lat="40.8933883" lon="14.0984617"><ele>87.0</ele><time>2026-05-02T14:16:01.303Z</time></trkpt><trkpt lat="40.893415" lon="14.0985667"><ele>87.0</ele><time>2026-05-02T14:16:02.304Z</time></trkpt><trkpt lat="40.89344" lon="14.09867"><ele>87.0</ele><time>2026-05-02T14:16:03.301Z</time></trkpt><trkpt lat="40.8934633" lon="14.0987717"><ele>87.0</ele><time>2026-05-02T14:16:04.304Z</time></trkpt><trkpt lat="40.8934883" lon="14.0988717"><ele>87.0</ele><time>2026-05-02T14:16:05.302Z</time></trkpt><trkpt lat="40.893515" lon="14.0989767"><ele>87.0</ele><time>2026-05-02T14:16:06.302Z</time></trkpt><trkpt lat="40.89354" lon="14.09908"><ele>87.0</ele><time>2026-05-02T14:16:07.303Z</time></trkpt><trkpt lat="40.893565" lon="14.099185"><ele>87.0</ele><time>2026-05-02T14:16:08.302Z</time></trkpt><trkpt lat="40.8935883" lon="14.09929"><ele>87.0</ele><time>2026-05-02T14:16:09.302Z</time></trkpt><trkpt lat="40.8936133" lon="14.0993933"><ele>87.0</ele><time>2026-05-02T14:16:10.302Z</time></trkpt><trkpt lat="40.8936367" lon="14.0994967"><ele>87.16666666666667</ele><time>2026-05-02T14:16:11.303Z</time></trkpt><trkpt lat="40.8936567" lon="14.0996067"><ele>87.33333333333333</ele><time>2026-05-02T14:16:12.303Z</time></trkpt><trkpt lat="40.8936783" lon="14.0997167"><ele>87.5</ele><time>2026-05-02T14:16:13.303Z</time></trkpt><trkpt lat="40.8937033" lon="14.0998233"><ele>87.66666666666666</ele><time>2026-05-02T14:16:14.305Z</time></trkpt><trkpt lat="40.89373" lon="14.099925"><ele>87.83333333333333</ele><time>2026-05-02T14:16:15.304Z</time></trkpt><trkpt lat="40.8937583" lon="14.10003"><ele>88.0</ele><time>2026-05-02T14:16:16.302Z</time></trkpt><trkpt lat="40.8937867" lon="14.1001367"><ele>88.0</ele><time>2026-05-02T14:16:17.306Z</time></trkpt><trkpt lat="40.893815" lon="14.1002417"><ele>88.0</ele><time>2026-05-02T14:16:18.303Z</time></trkpt><trkpt lat="40.8938433" lon="14.1003433"><ele>88.0</ele><time>2026-05-02T14:16:19.303Z</time></trkpt><trkpt lat="40.89387" lon="14.100445"><ele>88.0</ele><time>2026-05-02T14:16:20.302Z</time></trkpt><trkpt lat="40.8938967" lon="14.1005483"><ele>88.0</ele><time>2026-05-02T14:16:21.303Z</time></trkpt><trkpt lat="40.8939233" lon="14.10065"><ele>88.0</ele><time>2026-05-02T14:16:22.302Z</time></trkpt><trkpt lat="40.8939483" lon="14.100755"><ele>88.16666666666666</ele><time>2026-05-02T14:16:23.304Z</time></trkpt><trkpt lat="40.8939733" lon="14.1008583"><ele>88.33333333333333</ele><time>2026-05-02T14:16:24.302Z</time></trkpt><trkpt lat="40.8939983" lon="14.1009583"><ele>88.5</ele><time>2026-05-02T14:16:25.304Z</time></trkpt><trkpt lat="40.8940233" lon="14.1010633"><ele>88.66666666666667</ele><time>2026-05-02T14:16:26.302Z</time></trkpt><trkpt lat="40.89405" lon="14.1011633"><ele>88.83333333333334</ele><time>2026-05-02T14:16:27.302Z</time></trkpt><trkpt lat="40.894075" lon="14.1012667"><ele>89.0</ele><time>2026-05-02T14:16:28.302Z</time></trkpt><trkpt lat="40.8941017" lon="14.1013717"><ele>89.0</ele><time>2026-05-02T14:16:29.305Z</time></trkpt><trkpt lat="40.8941233" lon="14.1014783"><ele>89.0</ele><time>2026-05-02T14:16:30.301Z</time></trkpt><trkpt lat="40.8941483" lon="14.1015867"><ele>89.0</ele><time>2026-05-02T14:16:31.307Z</time></trkpt><trkpt lat="40.894175" lon="14.10169"><ele>89.0</ele><time>2026-05-02T14:16:32.303Z</time></trkpt><trkpt lat="40.8942" lon="14.1017933"><ele>89.0</ele><time>2026-05-02T14:16:33.303Z</time></trkpt><trkpt lat="40.894225" lon="14.101895"><ele>89.0</ele><time>2026-05-02T14:16:34.304Z</time></trkpt><trkpt lat="40.89425" lon="14.1019983"><ele>89.0</ele><time>2026-05-02T14:16:35.303Z</time></trkpt><trkpt lat="40.8942767" lon="14.1021033"><ele>89.0</ele><time>2026-05-02T14:16:36.303Z</time></trkpt><trkpt lat="40.8943033" lon="14.1022083"><ele>89.0</ele><time>2026-05-02T14:16:37.303Z</time></trkpt><trkpt lat="40.8943317" lon="14.1023133"><ele>89.0</ele><time>2026-05-02T14:16:38.303Z</time></trkpt><trkpt lat="40.89436" lon="14.1024217"><ele>89.0</ele><time>2026-05-02T14:16:39.302Z</time></trkpt><trkpt lat="40.89439" lon="14.102525"><ele>89.0</ele><time>2026-05-02T14:16:40.302Z</time></trkpt><trkpt lat="40.89442" lon="14.1026317"><ele>89.0</ele><time>2026-05-02T14:16:41.302Z</time></trkpt><trkpt lat="40.8944467" lon="14.1027467"><ele>89.0</ele><time>2026-05-02T14:16:42.305Z</time></trkpt><trkpt lat="40.894475" lon="14.1028617"><ele>89.0</ele><time>2026-05-02T14:16:43.304Z</time></trkpt><trkpt lat="40.894505" lon="14.1029717"><ele>89.0</ele><time>2026-05-02T14:16:44.303Z</time></trkpt><trkpt lat="40.8945333" lon="14.10308"><ele>89.0</ele><time>2026-05-02T14:16:45.303Z</time></trkpt><trkpt lat="40.8945617" lon="14.1031917"><ele>89.0</ele><time>2026-05-02T14:16:46.303Z</time></trkpt><trkpt lat="40.89459" lon="14.1032983"><ele>89.5</ele><time>2026-05-02T14:16:47.302Z</time></trkpt><trkpt lat="40.8946183" lon="14.1034033"><ele>90.0</ele><time>2026-05-02T14:16:48.304Z</time></trkpt><trkpt lat="40.8946517" lon="14.1035033"><ele>90.5</ele><time>2026-05-02T14:16:49.303Z</time></trkpt><trkpt lat="40.8946933" lon="14.1036"><ele>91.0</ele><time>2026-05-02T14:16:50.303Z</time></trkpt><trkpt lat="40.89474" lon="14.1036917"><ele>91.5</ele><time>2026-05-02T14:16:51.302Z</time></trkpt><trkpt lat="40.8947917" lon="14.103775"><ele>92.0</ele><time>2026-05-02T14:16:52.302Z</time></trkpt><trkpt lat="40.8948533" lon="14.10385"><ele>92.0</ele><time>2026-05-02T14:16:53.303Z</time></trkpt><trkpt lat="40.8949183" lon="14.103915"><ele>92.0</ele><time>2026-05-02T14:16:54.303Z</time></trkpt><trkpt lat="40.8949883" lon="14.1039733"><ele>92.0</ele><time>2026-05-02T14:16:55.302Z</time></trkpt><trkpt lat="40.8950617" lon="14.10403"><ele>92.0</ele><time>2026-05-02T14:16:56.303Z</time></trkpt><trkpt lat="40.8951333" lon="14.1040867"><ele>92.0</ele><time>2026-05-02T14:16:57.302Z</time></trkpt><trkpt lat="40.8952033" lon="14.1041433"><ele>92.0</ele><time>2026-05-02T14:16:58.304Z</time></trkpt><trkpt lat="40.895275" lon="14.1041983"><ele>92.16666666666667</ele><time>2026-05-02T14:16:59.305Z</time></trkpt><trkpt lat="40.8953467" lon="14.1042533"><ele>92.33333333333334</ele><time>2026-05-02T14:17:00.303Z</time></trkpt><trkpt lat="40.8954183" lon="14.104305"><ele>92.5</ele><time>2026-05-02T14:17:01.303Z</time></trkpt><trkpt lat="40.89549" lon="14.1043583"><ele>92.66666666666667</ele><time>2026-05-02T14:17:02.303Z</time></trkpt><trkpt lat="40.8955633" lon="14.1044133"><ele>92.83333333333333</ele><time>2026-05-02T14:17:03.304Z</time></trkpt><trkpt lat="40.8956367" lon="14.10447"><ele>93.0</ele><time>2026-05-02T14:17:04.302Z</time></trkpt><trkpt lat="40.89571" lon="14.104525"><ele>93.0</ele><time>2026-05-02T14:17:05.303Z</time></trkpt><trkpt lat="40.89578" lon="14.1045783"><ele>93.0</ele><time>2026-05-02T14:17:06.303Z</time></trkpt><trkpt lat="40.8958533" lon="14.1046283"><ele>93.0</ele><time>2026-05-02T14:17:07.304Z</time></trkpt><trkpt lat="40.8959267" lon="14.10468"><ele>93.0</ele><time>2026-05-02T14:17:08.303Z</time></trkpt><trkpt lat="40.8959983" lon="14.1047333"><ele>93.0</ele><time>2026-05-02T14:17:09.303Z</time></trkpt><trkpt lat="40.8960683" lon="14.1047867"><ele>93.0</ele><time>2026-05-02T14:17:10.302Z</time></trkpt><trkpt lat="40.8961383" lon="14.1048383"><ele>93.16666666666667</ele><time>2026-05-02T14:17:11.303Z</time></trkpt><trkpt lat="40.89621" lon="14.1048917"><ele>93.33333333333333</ele><time>2026-05-02T14:17:12.302Z</time></trkpt><trkpt lat="40.8962833" lon="14.1049483"><ele>93.5</ele><time>2026-05-02T14:17:13.303Z</time></trkpt><trkpt lat="40.8963567" lon="14.1050083"><ele>93.66666666666666</ele><time>2026-05-02T14:17:14.303Z</time></trkpt><trkpt lat="40.89643" lon="14.1050617"><ele>93.83333333333333</ele><time>2026-05-02T14:17:15.302Z</time></trkpt><trkpt lat="40.8965017" lon="14.105115"><ele>94.0</ele><time>2026-05-02T14:17:16.303Z</time></trkpt><trkpt lat="40.8965733" lon="14.1051717"><ele>94.16666666666666</ele><time>2026-05-02T14:17:17.303Z</time></trkpt><trkpt lat="40.896645" lon="14.1052267"><ele>94.33333333333333</ele><time>2026-05-02T14:17:18.302Z</time></trkpt><trkpt lat="40.8967167" lon="14.105285"><ele>94.5</ele><time>2026-05-02T14:17:19.303Z</time></trkpt><trkpt lat="40.8967867" lon="14.1053417"><ele>94.66666666666667</ele><time>2026-05-02T14:17:20.303Z</time></trkpt><trkpt lat="40.8968533" lon="14.1053983"><ele>94.83333333333334</ele><time>2026-05-02T14:17:21.303Z</time></trkpt><trkpt lat="40.89692" lon="14.10545"><ele>95.0</ele><time>2026-05-02T14:17:22.301Z</time></trkpt><trkpt lat="40.8969867" lon="14.1055017"><ele>95.16666666666667</ele><time>2026-05-02T14:17:23.302Z</time></trkpt><trkpt lat="40.897055" lon="14.105555"><ele>95.33333333333334</ele><time>2026-05-02T14:17:24.302Z</time></trkpt><trkpt lat="40.8971217" lon="14.1056083"><ele>95.5</ele><time>2026-05-02T14:17:25.302Z</time></trkpt><trkpt lat="40.8971867" lon="14.1056633"><ele>95.66666666666667</ele><time>2026-05-02T14:17:26.304Z</time></trkpt><trkpt lat="40.8972517" lon="14.1057267"><ele>95.83333333333333</ele><time>2026-05-02T14:17:27.303Z</time></trkpt><trkpt lat="40.8973133" lon="14.1057933"><ele>96.0</ele><time>2026-05-02T14:17:28.303Z</time></trkpt><trkpt lat="40.897375" lon="14.1058583"><ele>96.0</ele><time>2026-05-02T14:17:29.303Z</time></trkpt><trkpt lat="40.8974333" lon="14.1059267"><ele>96.0</ele><time>2026-05-02T14:17:30.304Z</time></trkpt><trkpt lat="40.8974917" lon="14.1059983"><ele>96.0</ele><time>2026-05-02T14:17:31.303Z</time></trkpt><trkpt lat="40.8975483" lon="14.1060733"><ele>96.0</ele><time>2026-05-02T14:17:32.303Z</time></trkpt><trkpt lat="40.8976067" lon="14.10615"><ele>96.0</ele><time>2026-05-02T14:17:33.302Z</time></trkpt><trkpt lat="40.897665" lon="14.106225"><ele>96.0</ele><time>2026-05-02T14:17:34.303Z</time></trkpt><trkpt lat="40.8977233" lon="14.1063017"><ele>96.0</ele><time>2026-05-02T14:17:35.304Z</time></trkpt><trkpt lat="40.8977817" lon="14.106375"><ele>96.0</ele><time>2026-05-02T14:17:36.302Z</time></trkpt><trkpt lat="40.8978383" lon="14.1064517"><ele>96.0</ele><time>2026-05-02T14:17:37.304Z</time></trkpt><trkpt lat="40.8978933" lon="14.1065267"><ele>96.0</ele><time>2026-05-02T14:17:38.305Z</time></trkpt><trkpt lat="40.8979467" lon="14.106605"><ele>96.0</ele><time>2026-05-02T14:17:39.304Z</time></trkpt><trkpt lat="40.8979967" lon="14.106685"><ele>96.0</ele><time>2026-05-02T14:17:40.303Z</time></trkpt><trkpt lat="40.89805" lon="14.1067633"><ele>96.16666666666667</ele><time>2026-05-02T14:17:41.303Z</time></trkpt><trkpt lat="40.8981017" lon="14.106845"><ele>96.33333333333334</ele><time>2026-05-02T14:17:42.304Z</time></trkpt><trkpt lat="40.898155" lon="14.10693"><ele>96.5</ele><time>2026-05-02T14:17:43.303Z</time></trkpt><trkpt lat="40.8982033" lon="14.1070183"><ele>96.66666666666667</ele><time>2026-05-02T14:17:44.302Z</time></trkpt><trkpt lat="40.89825" lon="14.107105"><ele>96.83333333333334</ele><time>2026-05-02T14:17:45.302Z</time></trkpt><trkpt lat="40.8982967" lon="14.10719"><ele>97.0</ele><time>2026-05-02T14:17:46.302Z</time></trkpt><trkpt lat="40.8983417" lon="14.1072717"><ele>97.00000000000001</ele><time>2026-05-02T14:17:47.302Z</time></trkpt><trkpt lat="40.89839" lon="14.107355"><ele>97.0</ele><time>2026-05-02T14:17:48.303Z</time></trkpt><trkpt lat="40.8984383" lon="14.1074417"><ele>97.0</ele><time>2026-05-02T14:17:49.303Z</time></trkpt><trkpt lat="40.8984833" lon="14.1075317"><ele>97.0</ele><time>2026-05-02T14:17:50.302Z</time></trkpt><trkpt lat="40.89853" lon="14.10762"><ele>97.00000000000001</ele><time>2026-05-02T14:17:51.304Z</time></trkpt><trkpt lat="40.8985817" lon="14.1077083"><ele>97.0</ele><time>2026-05-02T14:17:52.304Z</time></trkpt><trkpt lat="40.8986333" lon="14.1077967"><ele>97.50000000000001</ele><time>2026-05-02T14:17:53.303Z</time></trkpt><trkpt lat="40.898685" lon="14.1078833"><ele>98.0</ele><time>2026-05-02T14:17:54.302Z</time></trkpt><trkpt lat="40.8987367" lon="14.107975"><ele>98.5</ele><time>2026-05-02T14:17:55.304Z</time></trkpt><trkpt lat="40.8987867" lon="14.108065"><ele>99.0</ele><time>2026-05-02T14:17:56.303Z</time></trkpt><trkpt lat="40.8988383" lon="14.10815"><ele>99.50000000000001</ele><time>2026-05-02T14:17:57.302Z</time></trkpt><trkpt lat="40.8988883" lon="14.10823"><ele>100.0</ele><time>2026-05-02T14:17:58.304Z</time></trkpt><trkpt lat="40.898945" lon="14.1083117"><ele>100.00000000000001</ele><time>2026-05-02T14:17:59.303Z</time></trkpt><trkpt lat="40.8990067" lon="14.108385"><ele>100.0</ele><time>2026-05-02T14:18:00.303Z</time></trkpt><trkpt lat="40.89907" lon="14.1084533"><ele>100.0</ele><time>2026-05-02T14:18:01.305Z</time></trkpt><trkpt lat="40.8991367" lon="14.1085183"><ele>100.0</ele><time>2026-05-02T14:18:02.304Z</time></trkpt><trkpt lat="40.8992033" lon="14.108585"><ele>100.00000000000001</ele><time>2026-05-02T14:18:03.303Z</time></trkpt><trkpt lat="40.8992683" lon="14.1086517"><ele>100.0</ele><time>2026-05-02T14:18:04.303Z</time></trkpt><trkpt lat="40.89933" lon="14.1087183"><ele>100.16666666666667</ele><time>2026-05-02T14:18:05.303Z</time></trkpt><trkpt lat="40.899395" lon="14.1087833"><ele>100.33333333333334</ele><time>2026-05-02T14:18:06.302Z</time></trkpt><trkpt lat="40.8994617" lon="14.1088467"><ele>100.5</ele><time>2026-05-02T14:18:07.303Z</time></trkpt><trkpt lat="40.8995317" lon="14.1089083"><ele>100.66666666666666</ele><time>2026-05-02T14:18:08.303Z</time></trkpt><trkpt lat="40.8996017" lon="14.1089667"><ele>100.83333333333333</ele><time>2026-05-02T14:18:09.302Z</time></trkpt><trkpt lat="40.899675" lon="14.1090333"><ele>101.0</ele><time>2026-05-02T14:18:10.303Z</time></trkpt><trkpt lat="40.899745" lon="14.109095"><ele>100.99999999999999</ele><time>2026-05-02T14:18:11.302Z</time></trkpt><trkpt lat="40.899815" lon="14.1091617"><ele>101.0</ele><time>2026-05-02T14:18:12.303Z</time></trkpt><trkpt lat="40.8998833" lon="14.109225"><ele>101.0</ele><time>2026-05-02T14:18:13.303Z</time></trkpt><trkpt lat="40.8999483" lon="14.1092867"><ele>101.0</ele><time>2026-05-02T14:18:14.303Z</time></trkpt><trkpt lat="40.9000133" lon="14.10935"><ele>100.99999999999999</ele><time>2026-05-02T14:18:15.302Z</time></trkpt><trkpt lat="40.9000783" lon="14.109415"><ele>101.0</ele><time>2026-05-02T14:18:16.305Z</time></trkpt><trkpt lat="40.9001433" lon="14.1094783"><ele>100.99999999999999</ele><time>2026-05-02T14:18:17.303Z</time></trkpt><trkpt lat="40.9002083" lon="14.10954"><ele>101.0</ele><time>2026-05-02T14:18:18.303Z</time></trkpt><trkpt lat="40.900275" lon="14.109605"><ele>101.0</ele><time>2026-05-02T14:18:19.304Z</time></trkpt><trkpt lat="40.9003433" lon="14.1096683"><ele>101.0</ele><time>2026-05-02T14:18:20.304Z</time></trkpt><trkpt lat="40.900405" lon="14.109725"><ele>100.99999999999999</ele><time>2026-05-02T14:18:21.302Z</time></trkpt><trkpt lat="40.90047" lon="14.1097883"><ele>101.0</ele><time>2026-05-02T14:18:22.305Z</time></trkpt><trkpt lat="40.9005383" lon="14.10985"><ele>100.99999999999999</ele><time>2026-05-02T14:18:23.302Z</time></trkpt><trkpt lat="40.9006083" lon="14.1099083"><ele>101.0</ele><time>2026-05-02T14:18:24.303Z</time></trkpt><trkpt lat="40.9006767" lon="14.1099667"><ele>101.0</ele><time>2026-05-02T14:18:25.303Z</time></trkpt><trkpt lat="40.9007483" lon="14.110025"><ele>101.0</ele><time>2026-05-02T14:18:26.302Z</time></trkpt><trkpt lat="40.9008217" lon="14.1100783"><ele>100.99999999999999</ele><time>2026-05-02T14:18:27.302Z</time></trkpt><trkpt lat="40.9008967" lon="14.1101283"><ele>101.0</ele><time>2026-05-02T14:18:28.302Z</time></trkpt><trkpt lat="40.90097" lon="14.1101833"><ele>100.66666666666666</ele><time>2026-05-02T14:18:29.303Z</time></trkpt><trkpt lat="40.9010433" lon="14.1102367"><ele>100.33333333333333</ele><time>2026-05-02T14:18:30.302Z</time></trkpt><trkpt lat="40.9011183" lon="14.1102933"><ele>100.0</ele><time>2026-05-02T14:18:31.303Z</time></trkpt><trkpt lat="40.9011967" lon="14.1103483"><ele>99.66666666666666</ele><time>2026-05-02T14:18:32.303Z</time></trkpt><trkpt lat="40.9012733" lon="14.1104017"><ele>99.33333333333333</ele><time>2026-05-02T14:18:33.303Z</time></trkpt><trkpt lat="40.9013483" lon="14.1104583"><ele>99.0</ele><time>2026-05-02T14:18:34.302Z</time></trkpt><trkpt lat="40.9014233" lon="14.110515"><ele>99.0</ele><time>2026-05-02T14:18:35.303Z</time></trkpt><trkpt lat="40.9015" lon="14.1105717"><ele>99.0</ele><time>2026-05-02T14:18:36.302Z</time></trkpt><trkpt lat="40.9015767" lon="14.1106267"><ele>99.0</ele><time>2026-05-02T14:18:37.304Z</time></trkpt><trkpt lat="40.9016533" lon="14.110685"><ele>99.0</ele><time>2026-05-02T14:18:38.304Z</time></trkpt><trkpt lat="40.90173" lon="14.110745"><ele>99.0</ele><time>2026-05-02T14:18:39.302Z</time></trkpt><trkpt lat="40.9018067" lon="14.1108067"><ele>99.0</ele><time>2026-05-02T14:18:40.303Z</time></trkpt><trkpt lat="40.9018833" lon="14.1108733"><ele>99.0</ele><time>2026-05-02T14:18:41.303Z</time></trkpt><trkpt lat="40.9019567" lon="14.1109383"><ele>99.0</ele><time>2026-05-02T14:18:42.303Z</time></trkpt><trkpt lat="40.9020283" lon="14.1110067"><ele>99.0</ele><time>2026-05-02T14:18:43.304Z</time></trkpt><trkpt lat="40.9020983" lon="14.1110733"><ele>99.0</ele><time>2026-05-02T14:18:44.302Z</time></trkpt><trkpt lat="40.90217" lon="14.11114"><ele>99.0</ele><time>2026-05-02T14:18:45.302Z</time></trkpt><trkpt lat="40.9022417" lon="14.1112117"><ele>99.0</ele><time>2026-05-02T14:18:46.303Z</time></trkpt><trkpt lat="40.9023083" lon="14.1112917"><ele>99.0</ele><time>2026-05-02T14:18:47.303Z</time></trkpt><trkpt lat="40.9023733" lon="14.1113767"><ele>99.0</ele><time>2026-05-02T14:18:48.302Z</time></trkpt><trkpt lat="40.9024367" lon="14.1114667"><ele>99.0</ele><time>2026-05-02T14:18:49.303Z</time></trkpt><trkpt lat="40.9024933" lon="14.1115583"><ele>99.0</ele><time>2026-05-02T14:18:50.303Z</time></trkpt><trkpt lat="40.9025467" lon="14.1116517"><ele>99.0</ele><time>2026-05-02T14:18:51.301Z</time></trkpt><trkpt lat="40.9025983" lon="14.1117483"><ele>99.2</ele><time>2026-05-02T14:18:52.303Z</time></trkpt><trkpt lat="40.9026467" lon="14.1118517"><ele>99.4</ele><time>2026-05-02T14:18:53.303Z</time></trkpt><trkpt lat="40.9026883" lon="14.111955"><ele>99.6</ele><time>2026-05-02T14:18:54.303Z</time></trkpt><trkpt lat="40.902725" lon="14.1120633"><ele>99.8</ele><time>2026-05-02T14:18:55.303Z</time></trkpt><trkpt lat="40.902755" lon="14.1121783"><ele>100.0</ele><time>2026-05-02T14:18:56.303Z</time></trkpt><trkpt lat="40.9027833" lon="14.1122917"><ele>100.00000000000001</ele><time>2026-05-02T14:18:57.303Z</time></trkpt><trkpt lat="40.9028067" lon="14.112405"><ele>100.0</ele><time>2026-05-02T14:18:58.303Z</time></trkpt><trkpt lat="40.9028267" lon="14.11252"><ele>100.0</ele><time>2026-05-02T14:18:59.303Z</time></trkpt><trkpt lat="40.9028433" lon="14.112635"><ele>100.0</ele><time>2026-05-02T14:19:00.303Z</time></trkpt><trkpt lat="40.9028617" lon="14.11275"><ele>100.00000000000001</ele><time>2026-05-02T14:19:01.304Z</time></trkpt><trkpt lat="40.90288" lon="14.112865"><ele>100.0</ele><time>2026-05-02T14:19:02.303Z</time></trkpt><trkpt lat="40.9029" lon="14.1129817"><ele>100.4</ele><time>2026-05-02T14:19:03.303Z</time></trkpt><trkpt lat="40.9029217" lon="14.113095"><ele>100.8</ele><time>2026-05-02T14:19:04.304Z</time></trkpt><trkpt lat="40.9029417" lon="14.1132133"><ele>101.19999999999999</ele><time>2026-05-02T14:19:05.303Z</time></trkpt><trkpt lat="40.90296" lon="14.1133333"><ele>101.6</ele><time>2026-05-02T14:19:06.303Z</time></trkpt><trkpt lat="40.9029767" lon="14.1134533"><ele>102.0</ele><time>2026-05-02T14:19:07.302Z</time></trkpt><trkpt lat="40.9029933" lon="14.1135733"><ele>102.0</ele><time>2026-05-02T14:19:08.303Z</time></trkpt><trkpt lat="40.9030117" lon="14.1136883"><ele>102.0</ele><time>2026-05-02T14:19:09.303Z</time></trkpt><trkpt lat="40.9030317" lon="14.1138017"><ele>102.0</ele><time>2026-05-02T14:19:10.303Z</time></trkpt><trkpt lat="40.9030533" lon="14.1139183"><ele>102.0</ele><time>2026-05-02T14:19:11.303Z</time></trkpt><trkpt lat="40.903075" lon="14.1140383"><ele>102.0</ele><time>2026-05-02T14:19:12.304Z</time></trkpt><trkpt lat="40.9030983" lon="14.11416"><ele>101.8</ele><time>2026-05-02T14:19:13.303Z</time></trkpt><trkpt lat="40.90312" lon="14.1142783"><ele>101.6</ele><time>2026-05-02T14:19:14.303Z</time></trkpt><trkpt lat="40.90314" lon="14.1144"><ele>101.39999999999999</ele><time>2026-05-02T14:19:15.303Z</time></trkpt><trkpt lat="40.9031617" lon="14.1145183"><ele>101.19999999999999</ele><time>2026-05-02T14:19:16.303Z</time></trkpt><trkpt lat="40.903185" lon="14.1146367"><ele>101.0</ele><time>2026-05-02T14:19:17.303Z</time></trkpt><trkpt lat="40.9032067" lon="14.1147583"><ele>101.0</ele><time>2026-05-02T14:19:18.303Z</time></trkpt><trkpt lat="40.9032267" lon="14.1148817"><ele>101.0</ele><time>2026-05-02T14:19:19.304Z</time></trkpt><trkpt lat="40.9032483" lon="14.1150033"><ele>101.0</ele><time>2026-05-02T14:19:20.303Z</time></trkpt><trkpt lat="40.9032683" lon="14.115125"><ele>101.0</ele><time>2026-05-02T14:19:21.305Z</time></trkpt><trkpt lat="40.9032867" lon="14.1152433"><ele>101.0</ele><time>2026-05-02T14:19:22.303Z</time></trkpt><trkpt lat="40.9033067" lon="14.1153617"><ele>101.0</ele><time>2026-05-02T14:19:23.302Z</time></trkpt><trkpt lat="40.9033267" lon="14.11548"><ele>101.0</ele><time>2026-05-02T14:19:24.303Z</time></trkpt><trkpt lat="40.9033483" lon="14.1156017"><ele>101.0</ele><time>2026-05-02T14:19:25.304Z</time></trkpt><trkpt lat="40.90337" lon="14.1157183"><ele>101.0</ele><time>2026-05-02T14:19:26.303Z</time></trkpt><trkpt lat="40.90339" lon="14.1158383"><ele>101.0</ele><time>2026-05-02T14:19:27.303Z</time></trkpt><trkpt lat="40.903415" lon="14.115955"><ele>101.6</ele><time>2026-05-02T14:19:28.303Z</time></trkpt><trkpt lat="40.9034367" lon="14.1160733"><ele>102.19999999999999</ele><time>2026-05-02T14:19:29.304Z</time></trkpt><trkpt lat="40.9034567" lon="14.11619"><ele>102.80000000000001</ele><time>2026-05-02T14:19:30.304Z</time></trkpt><trkpt lat="40.903475" lon="14.1163033"><ele>103.4</ele><time>2026-05-02T14:19:31.305Z</time></trkpt><trkpt lat="40.9034967" lon="14.1164183"><ele>104.0</ele><time>2026-05-02T14:19:32.303Z</time></trkpt><trkpt lat="40.9035167" lon="14.116535"><ele>103.99999999999999</ele><time>2026-05-02T14:19:33.302Z</time></trkpt><trkpt lat="40.9035383" lon="14.11665"><ele>104.0</ele><time>2026-05-02T14:19:34.303Z</time></trkpt><trkpt lat="40.9035583" lon="14.1167617"><ele>104.0</ele><time>2026-05-02T14:19:35.306Z</time></trkpt><trkpt lat="40.9035717" lon="14.1168667"><ele>104.0</ele><time>2026-05-02T14:19:36.303Z</time></trkpt><trkpt lat="40.9035833" lon="14.1169783"><ele>103.99999999999999</ele><time>2026-05-02T14:19:37.305Z</time></trkpt><trkpt lat="40.9035917" lon="14.1170867"><ele>104.0</ele><time>2026-05-02T14:19:38.303Z</time></trkpt><trkpt lat="40.9035983" lon="14.1172033"><ele>104.0</ele><time>2026-05-02T14:19:39.302Z</time></trkpt><trkpt lat="40.903605" lon="14.1173217"><ele>104.0</ele><time>2026-05-02T14:19:40.303Z</time></trkpt><trkpt lat="40.90361" lon="14.1174417"><ele>104.0</ele><time>2026-05-02T14:19:41.303Z</time></trkpt><trkpt lat="40.903615" lon="14.1175633"><ele>104.0</ele><time>2026-05-02T14:19:42.303Z</time></trkpt><trkpt lat="40.9036217" lon="14.1176917"><ele>104.0</ele><time>2026-05-02T14:19:43.303Z</time></trkpt><trkpt lat="40.9036267" lon="14.1178217"><ele>104.2</ele><time>2026-05-02T14:19:44.303Z</time></trkpt><trkpt lat="40.9036333" lon="14.1179517"><ele>104.4</ele><time>2026-05-02T14:19:45.303Z</time></trkpt><trkpt lat="40.9036383" lon="14.1180883"><ele>104.6</ele><time>2026-05-02T14:19:46.303Z</time></trkpt><trkpt lat="40.903645" lon="14.1182233"><ele>104.8</ele><time>2026-05-02T14:19:47.303Z</time></trkpt><trkpt lat="40.903655" lon="14.1183567"><ele>105.0</ele><time>2026-05-02T14:19:48.303Z</time></trkpt><trkpt lat="40.90367" lon="14.118495"><ele>105.2</ele><time>2026-05-02T14:19:49.303Z</time></trkpt><trkpt lat="40.9036917" lon="14.1186317"><ele>105.4</ele><time>2026-05-02T14:19:50.303Z</time></trkpt><trkpt lat="40.90372" lon="14.11877"><ele>105.6</ele><time>2026-05-02T14:19:51.302Z</time></trkpt><trkpt lat="40.9037533" lon="14.1189067"><ele>105.8</ele><time>2026-05-02T14:19:52.302Z</time></trkpt><trkpt lat="40.9037933" lon="14.1190367"><ele>106.0</ele><time>2026-05-02T14:19:53.302Z</time></trkpt><trkpt lat="40.9038333" lon="14.11917"><ele>106.4</ele><time>2026-05-02T14:19:54.302Z</time></trkpt><trkpt lat="40.9038767" lon="14.1193033"><ele>106.8</ele><time>2026-05-02T14:19:55.302Z</time></trkpt><trkpt lat="40.9039267" lon="14.1194383"><ele>107.20000000000002</ele><time>2026-05-02T14:19:56.302Z</time></trkpt><trkpt lat="40.9039783" lon="14.1195717"><ele>107.60000000000001</ele><time>2026-05-02T14:19:57.302Z</time></trkpt><trkpt lat="40.9040333" lon="14.1196983"><ele>108.0</ele><time>2026-05-02T14:19:58.302Z</time></trkpt><trkpt lat="40.90409" lon="14.1198267"><ele>108.4</ele><time>2026-05-02T14:19:59.302Z</time></trkpt><trkpt lat="40.9041483" lon="14.11995"><ele>108.80000000000001</ele><time>2026-05-02T14:20:00.302Z</time></trkpt><trkpt lat="40.90421" lon="14.1200733"><ele>109.2</ele><time>2026-05-02T14:20:01.304Z</time></trkpt><trkpt lat="40.9042717" lon="14.1202017"><ele>109.6</ele><time>2026-05-02T14:20:02.302Z</time></trkpt><trkpt lat="40.904325" lon="14.1203217"><ele>110.0</ele><time>2026-05-02T14:20:03.303Z</time></trkpt><trkpt lat="40.90436" lon="14.1204467"><ele>110.33333333333333</ele><time>2026-05-02T14:20:04.302Z</time></trkpt><trkpt lat="40.9043667" lon="14.1205667"><ele>110.66666666666666</ele><time>2026-05-02T14:20:05.304Z</time></trkpt><trkpt lat="40.90435" lon="14.12068"><ele>111.0</ele><time>2026-05-02T14:20:06.304Z</time></trkpt><trkpt lat="40.9043083" lon="14.12078"><ele>111.33333333333334</ele><time>2026-05-02T14:20:07.305Z</time></trkpt><trkpt lat="40.9042717" lon="14.120885"><ele>111.66666666666667</ele><time>2026-05-02T14:20:08.302Z</time></trkpt><trkpt lat="40.9042467" lon="14.1209917"><ele>112.0</ele><time>2026-05-02T14:20:09.301Z</time></trkpt><trkpt lat="40.904235" lon="14.1210883"><ele>111.16666666666667</ele><time>2026-05-02T14:20:10.302Z</time></trkpt><trkpt lat="40.9042483" lon="14.121185"><ele>110.33333333333334</ele><time>2026-05-02T14:20:11.302Z</time></trkpt><trkpt lat="40.90429" lon="14.1212717"><ele>109.5</ele><time>2026-05-02T14:20:12.303Z</time></trkpt><trkpt lat="40.904355" lon="14.12134"><ele>108.66666666666666</ele><time>2026-05-02T14:20:13.303Z</time></trkpt><trkpt lat="40.90444" lon="14.1213983"><ele>107.83333333333333</ele><time>2026-05-02T14:20:14.304Z</time></trkpt><trkpt lat="40.904515" lon="14.12146"><ele>107.0</ele><time>2026-05-02T14:20:15.303Z</time></trkpt><trkpt lat="40.9045817" lon="14.121535"><ele>106.83333333333333</ele><time>2026-05-02T14:20:16.303Z</time></trkpt><trkpt lat="40.9046383" lon="14.1216167"><ele>106.66666666666666</ele><time>2026-05-02T14:20:17.303Z</time></trkpt><trkpt lat="40.9046883" lon="14.121705"><ele>106.5</ele><time>2026-05-02T14:20:18.303Z</time></trkpt><trkpt lat="40.9047333" lon="14.1217933"><ele>106.33333333333334</ele><time>2026-05-02T14:20:19.304Z</time></trkpt><trkpt lat="40.9047733" lon="14.1218833"><ele>106.16666666666667</ele><time>2026-05-02T14:20:20.303Z</time></trkpt><trkpt lat="40.9048133" lon="14.1219717"><ele>106.0</ele><time>2026-05-02T14:20:21.304Z</time></trkpt><trkpt lat="40.9048483" lon="14.12206"><ele>106.00000000000001</ele><time>2026-05-02T14:20:22.304Z</time></trkpt><trkpt lat="40.9048833" lon="14.1221467"><ele>106.0</ele><time>2026-05-02T14:20:23.303Z</time></trkpt><trkpt lat="40.904915" lon="14.1222383"><ele>106.0</ele><time>2026-05-02T14:20:24.305Z</time></trkpt><trkpt lat="40.90495" lon="14.1223333"><ele>106.0</ele><time>2026-05-02T14:20:25.303Z</time></trkpt><trkpt lat="40.9049833" lon="14.12243"><ele>106.00000000000001</ele><time>2026-05-02T14:20:26.304Z</time></trkpt><trkpt lat="40.905015" lon="14.1225183"><ele>106.0</ele><time>2026-05-02T14:20:27.304Z</time></trkpt><trkpt lat="40.9050483" lon="14.1226067"><ele>106.28571428571429</ele><time>2026-05-02T14:20:28.303Z</time></trkpt><trkpt lat="40.9050783" lon="14.1226933"><ele>106.57142857142857</ele><time>2026-05-02T14:20:29.303Z</time></trkpt><trkpt lat="40.9051067" lon="14.12278"><ele>106.85714285714286</ele><time>2026-05-02T14:20:30.304Z</time></trkpt><trkpt lat="40.9051383" lon="14.1228683"><ele>107.14285714285714</ele><time>2026-05-02T14:20:31.303Z</time></trkpt><trkpt lat="40.90517" lon="14.12296"><ele>107.42857142857142</ele><time>2026-05-02T14:20:32.304Z</time></trkpt><trkpt lat="40.9052" lon="14.1230517"><ele>107.71428571428571</ele><time>2026-05-02T14:20:33.303Z</time></trkpt><trkpt lat="40.9052317" lon="14.1231417"><ele>108.0</ele><time>2026-05-02T14:20:34.303Z</time></trkpt><trkpt lat="40.9052633" lon="14.123235"><ele>107.16666666666667</ele><time>2026-05-02T14:20:35.304Z</time></trkpt><trkpt lat="40.905295" lon="14.1233283"><ele>106.33333333333334</ele><time>2026-05-02T14:20:36.304Z</time></trkpt><trkpt lat="40.9053267" lon="14.1234233"><ele>105.5</ele><time>2026-05-02T14:20:37.303Z</time></trkpt><trkpt lat="40.9053583" lon="14.1235167"><ele>104.66666666666667</ele><time>2026-05-02T14:20:38.303Z</time></trkpt><trkpt lat="40.9053917" lon="14.1236083"><ele>103.83333333333334</ele><time>2026-05-02T14:20:39.303Z</time></trkpt><trkpt lat="40.9054267" lon="14.1237033"><ele>103.0</ele><time>2026-05-02T14:20:40.302Z</time></trkpt><trkpt lat="40.9054617" lon="14.1237983"><ele>103.00000000000001</ele><time>2026-05-02T14:20:41.303Z</time></trkpt><trkpt lat="40.9054967" lon="14.1238967"><ele>103.0</ele><time>2026-05-02T14:20:42.302Z</time></trkpt><trkpt lat="40.90553" lon="14.124"><ele>103.0</ele><time>2026-05-02T14:20:43.303Z</time></trkpt><trkpt lat="40.9055633" lon="14.1240967"><ele>103.0</ele><time>2026-05-02T14:20:44.304Z</time></trkpt><trkpt lat="40.9055983" lon="14.1241933"><ele>103.00000000000001</ele><time>2026-05-02T14:20:45.303Z</time></trkpt><trkpt lat="40.9056283" lon="14.12429"><ele>103.0</ele><time>2026-05-02T14:20:46.303Z</time></trkpt><trkpt lat="40.90566" lon="14.1243833"><ele>103.66666666666667</ele><time>2026-05-02T14:20:47.302Z</time></trkpt><trkpt lat="40.9056917" lon="14.12448"><ele>104.33333333333334</ele><time>2026-05-02T14:20:48.302Z</time></trkpt><trkpt lat="40.905725" lon="14.1245733"><ele>105.0</ele><time>2026-05-02T14:20:49.303Z</time></trkpt><trkpt lat="40.9057583" lon="14.1246683"><ele>105.66666666666666</ele><time>2026-05-02T14:20:50.303Z</time></trkpt><trkpt lat="40.90579" lon="14.1247617"><ele>106.33333333333333</ele><time>2026-05-02T14:20:51.302Z</time></trkpt><trkpt lat="40.90582" lon="14.1248533"><ele>107.0</ele><time>2026-05-02T14:20:52.303Z</time></trkpt><trkpt lat="40.905855" lon="14.12495"><ele>106.99999999999999</ele><time>2026-05-02T14:20:53.304Z</time></trkpt><trkpt lat="40.9058883" lon="14.1250467"><ele>107.0</ele><time>2026-05-02T14:20:54.303Z</time></trkpt><trkpt lat="40.9059217" lon="14.1251433"><ele>107.0</ele><time>2026-05-02T14:20:55.304Z</time></trkpt><trkpt lat="40.905955" lon="14.125245"><ele>107.0</ele><time>2026-05-02T14:20:56.302Z</time></trkpt><trkpt lat="40.905985" lon="14.125345"><ele>106.99999999999999</ele><time>2026-05-02T14:20:57.303Z</time></trkpt><trkpt lat="40.9060167" lon="14.1254433"><ele>107.0</ele><time>2026-05-02T14:20:58.303Z</time></trkpt><trkpt lat="40.906055" lon="14.12554"><ele>106.66666666666666</ele><time>2026-05-02T14:20:59.304Z</time></trkpt><trkpt lat="40.906095" lon="14.1256383"><ele>106.33333333333333</ele><time>2026-05-02T14:21:00.304Z</time></trkpt><trkpt lat="40.90613" lon="14.1257367"><ele>106.0</ele><time>2026-05-02T14:21:01.307Z</time></trkpt><trkpt lat="40.9061667" lon="14.1258317"><ele>105.66666666666666</ele><time>2026-05-02T14:21:02.304Z</time></trkpt><trkpt lat="40.9062033" lon="14.125925"><ele>105.33333333333333</ele><time>2026-05-02T14:21:03.301Z</time></trkpt><trkpt lat="40.9062383" lon="14.1260217"><ele>105.0</ele><time>2026-05-02T14:21:04.303Z</time></trkpt><trkpt lat="40.9062767" lon="14.1261217"><ele>105.0</ele><time>2026-05-02T14:21:05.303Z</time></trkpt><trkpt lat="40.9063133" lon="14.1262233"><ele>105.0</ele><time>2026-05-02T14:21:06.303Z</time></trkpt><trkpt lat="40.9063517" lon="14.126325"><ele>105.0</ele><time>2026-05-02T14:21:07.302Z</time></trkpt><trkpt lat="40.9063867" lon="14.126425"><ele>105.0</ele><time>2026-05-02T14:21:08.304Z</time></trkpt><trkpt lat="40.9064217" lon="14.126525"><ele>105.0</ele><time>2026-05-02T14:21:09.304Z</time></trkpt><trkpt lat="40.9064533" lon="14.1266283"><ele>105.0</ele><time>2026-05-02T14:21:10.303Z</time></trkpt><trkpt lat="40.9064833" lon="14.1267317"><ele>105.33333333333333</ele><time>2026-05-02T14:21:11.304Z</time></trkpt><trkpt lat="40.9065183" lon="14.1268283"><ele>105.66666666666666</ele><time>2026-05-02T14:21:12.303Z</time></trkpt><trkpt lat="40.9065533" lon="14.1269267"><ele>106.0</ele><time>2026-05-02T14:21:13.303Z</time></trkpt><trkpt lat="40.90659" lon="14.127025"><ele>106.33333333333333</ele><time>2026-05-02T14:21:14.303Z</time></trkpt><trkpt lat="40.9066267" lon="14.1271233"><ele>106.66666666666666</ele><time>2026-05-02T14:21:15.302Z</time></trkpt><trkpt lat="40.9066617" lon="14.12723"><ele>107.0</ele><time>2026-05-02T14:21:16.303Z</time></trkpt><trkpt lat="40.9067" lon="14.1273333"><ele>107.33333333333333</ele><time>2026-05-02T14:21:17.303Z</time></trkpt><trkpt lat="40.9067383" lon="14.127435"><ele>107.66666666666666</ele><time>2026-05-02T14:21:18.304Z</time></trkpt><trkpt lat="40.9067733" lon="14.12754"><ele>108.0</ele><time>2026-05-02T14:21:19.303Z</time></trkpt><trkpt lat="40.9068117" lon="14.1276417"><ele>108.33333333333334</ele><time>2026-05-02T14:21:20.303Z</time></trkpt><trkpt lat="40.9068517" lon="14.1277483"><ele>108.66666666666667</ele><time>2026-05-02T14:21:21.305Z</time></trkpt><trkpt lat="40.90689" lon="14.1278533"><ele>109.0</ele><time>2026-05-02T14:21:22.304Z</time></trkpt><trkpt lat="40.9069283" lon="14.1279617"><ele>108.50000000000001</ele><time>2026-05-02T14:21:23.303Z</time></trkpt><trkpt lat="40.90697" lon="14.12807"><ele>108.0</ele><time>2026-05-02T14:21:24.303Z</time></trkpt><trkpt lat="40.9070067" lon="14.1281717"><ele>107.5</ele><time>2026-05-02T14:21:25.303Z</time></trkpt><trkpt lat="40.9070417" lon="14.1282733"><ele>107.0</ele><time>2026-05-02T14:21:26.303Z</time></trkpt><trkpt lat="40.9070733" lon="14.1283767"><ele>106.50000000000001</ele><time>2026-05-02T14:21:27.303Z</time></trkpt><trkpt lat="40.907105" lon="14.1284833"><ele>106.0</ele><time>2026-05-02T14:21:28.303Z</time></trkpt><trkpt lat="40.9071417" lon="14.1285933"><ele>106.0</ele><time>2026-05-02T14:21:29.305Z</time></trkpt><trkpt lat="40.9071783" lon="14.128705"><ele>106.0</ele><time>2026-05-02T14:21:30.303Z</time></trkpt><trkpt lat="40.9072167" lon="14.1288133"><ele>106.0</ele><time>2026-05-02T14:21:31.303Z</time></trkpt><trkpt lat="40.907255" lon="14.12892"><ele>106.0</ele><time>2026-05-02T14:21:32.302Z</time></trkpt><trkpt lat="40.9072933" lon="14.12903"><ele>106.0</ele><time>2026-05-02T14:21:33.303Z</time></trkpt><trkpt lat="40.90733" lon="14.129145"><ele>105.8</ele><time>2026-05-02T14:21:34.303Z</time></trkpt><trkpt lat="40.907365" lon="14.129255"><ele>105.6</ele><time>2026-05-02T14:21:35.304Z</time></trkpt><trkpt lat="40.9074033" lon="14.1293617"><ele>105.4</ele><time>2026-05-02T14:21:36.303Z</time></trkpt><trkpt lat="40.9074417" lon="14.1294733"><ele>105.2</ele><time>2026-05-02T14:21:37.304Z</time></trkpt><trkpt lat="40.9074833" lon="14.1295817"><ele>105.0</ele><time>2026-05-02T14:21:38.303Z</time></trkpt><trkpt lat="40.907525" lon="14.1296917"><ele>105.0</ele><time>2026-05-02T14:21:39.303Z</time></trkpt><trkpt lat="40.9075633" lon="14.1298"><ele>105.0</ele><time>2026-05-02T14:21:40.302Z</time></trkpt><trkpt lat="40.9076017" lon="14.1299083"><ele>105.0</ele><time>2026-05-02T14:21:41.303Z</time></trkpt><trkpt lat="40.90764" lon="14.13002"><ele>105.0</ele><time>2026-05-02T14:21:42.303Z</time></trkpt><trkpt lat="40.9076783" lon="14.1301333"><ele>105.0</ele><time>2026-05-02T14:21:43.304Z</time></trkpt><trkpt lat="40.9077183" lon="14.1302433"><ele>104.83333333333333</ele><time>2026-05-02T14:21:44.303Z</time></trkpt><trkpt lat="40.9077567" lon="14.1303517"><ele>104.66666666666666</ele><time>2026-05-02T14:21:45.303Z</time></trkpt><trkpt lat="40.90779" lon="14.1304583"><ele>104.5</ele><time>2026-05-02T14:21:46.303Z</time></trkpt><trkpt lat="40.9078267" lon="14.1305633"><ele>104.33333333333333</ele><time>2026-05-02T14:21:47.306Z</time></trkpt><trkpt lat="40.9078667" lon="14.1306667"><ele>104.16666666666666</ele><time>2026-05-02T14:21:48.303Z</time></trkpt><trkpt lat="40.9079067" lon="14.1307683"><ele>104.0</ele><time>2026-05-02T14:21:49.304Z</time></trkpt><trkpt lat="40.9079467" lon="14.1308733"><ele>103.99999999999999</ele><time>2026-05-02T14:21:50.303Z</time></trkpt><trkpt lat="40.9079867" lon="14.1309767"><ele>104.0</ele><time>2026-05-02T14:21:51.303Z</time></trkpt><trkpt lat="40.9080217" lon="14.1310833"><ele>104.0</ele><time>2026-05-02T14:21:52.303Z</time></trkpt><trkpt lat="40.9080583" lon="14.13119"><ele>104.0</ele><time>2026-05-02T14:21:53.305Z</time></trkpt><trkpt lat="40.9080917" lon="14.1313"><ele>103.99999999999999</ele><time>2026-05-02T14:21:54.304Z</time></trkpt><trkpt lat="40.9081283" lon="14.1314083"><ele>104.0</ele><time>2026-05-02T14:21:55.304Z</time></trkpt><trkpt lat="40.9081683" lon="14.131515"><ele>104.4</ele><time>2026-05-02T14:21:56.304Z</time></trkpt><trkpt lat="40.908205" lon="14.1316217"><ele>104.80000000000001</ele><time>2026-05-02T14:21:57.303Z</time></trkpt><trkpt lat="40.9082433" lon="14.1317333"><ele>105.19999999999999</ele><time>2026-05-02T14:21:58.303Z</time></trkpt><trkpt lat="40.90828" lon="14.1318467"><ele>105.6</ele><time>2026-05-02T14:21:59.304Z</time></trkpt><trkpt lat="40.9083183" lon="14.1319583"><ele>106.0</ele><time>2026-05-02T14:22:00.304Z</time></trkpt><trkpt lat="40.908355" lon="14.1320667"><ele>106.0</ele><time>2026-05-02T14:22:01.303Z</time></trkpt><trkpt lat="40.908395" lon="14.13218"><ele>106.0</ele><time>2026-05-02T14:22:02.302Z</time></trkpt><trkpt lat="40.9084317" lon="14.1322883"><ele>106.0</ele><time>2026-05-02T14:22:03.303Z</time></trkpt><trkpt lat="40.90847" lon="14.132395"><ele>106.0</ele><time>2026-05-02T14:22:04.304Z</time></trkpt><trkpt lat="40.9085067" lon="14.1325017"><ele>106.0</ele><time>2026-05-02T14:22:05.304Z</time></trkpt><trkpt lat="40.9085417" lon="14.1326117"><ele>105.4</ele><time>2026-05-02T14:22:06.303Z</time></trkpt><trkpt lat="40.9085783" lon="14.132725"><ele>104.8</ele><time>2026-05-02T14:22:07.303Z</time></trkpt><trkpt lat="40.9086183" lon="14.1328367"><ele>104.2</ele><time>2026-05-02T14:22:08.304Z</time></trkpt><trkpt lat="40.9086617" lon="14.1329483"><ele>103.60000000000001</ele><time>2026-05-02T14:22:09.302Z</time></trkpt><trkpt lat="40.9087033" lon="14.1330583"><ele>103.0</ele><time>2026-05-02T14:22:10.303Z</time></trkpt><trkpt lat="40.9087483" lon="14.1331733"><ele>103.0</ele><time>2026-05-02T14:22:11.302Z</time></trkpt><trkpt lat="40.9087933" lon="14.133285"><ele>103.0</ele><time>2026-05-02T14:22:12.304Z</time></trkpt><trkpt lat="40.9088367" lon="14.1334"><ele>103.0</ele><time>2026-05-02T14:22:13.304Z</time></trkpt><trkpt lat="40.9088767" lon="14.133515"><ele>103.0</ele><time>2026-05-02T14:22:14.303Z</time></trkpt><trkpt lat="40.9089167" lon="14.1336367"><ele>103.0</ele><time>2026-05-02T14:22:15.303Z</time></trkpt><trkpt lat="40.9089583" lon="14.1337567"><ele>103.0</ele><time>2026-05-02T14:22:16.304Z</time></trkpt><trkpt lat="40.909" lon="14.1338733"><ele>103.0</ele><time>2026-05-02T14:22:17.304Z</time></trkpt><trkpt lat="40.9090417" lon="14.1339883"><ele>103.0</ele><time>2026-05-02T14:22:18.305Z</time></trkpt><trkpt lat="40.9090817" lon="14.1341"><ele>103.0</ele><time>2026-05-02T14:22:19.304Z</time></trkpt><trkpt lat="40.909125" lon="14.1342117"><ele>103.0</ele><time>2026-05-02T14:22:20.303Z</time></trkpt><trkpt lat="40.90917" lon="14.1343217"><ele>103.2</ele><time>2026-05-02T14:22:21.304Z</time></trkpt><trkpt lat="40.9092117" lon="14.1344367"><ele>103.4</ele><time>2026-05-02T14:22:22.304Z</time></trkpt><trkpt lat="40.9092517" lon="14.1345517"><ele>103.60000000000001</ele><time>2026-05-02T14:22:23.305Z</time></trkpt><trkpt lat="40.9092933" lon="14.1346617"><ele>103.80000000000001</ele><time>2026-05-02T14:22:24.303Z</time></trkpt><trkpt lat="40.90933" lon="14.1347633"><ele>104.0</ele><time>2026-05-02T14:22:25.305Z</time></trkpt><trkpt lat="40.9093667" lon="14.1348617"><ele>103.33333333333333</ele><time>2026-05-02T14:22:26.305Z</time></trkpt><trkpt lat="40.9093983" lon="14.1349567"><ele>102.66666666666666</ele><time>2026-05-02T14:22:27.303Z</time></trkpt><trkpt lat="40.90943" lon="14.1350517"><ele>102.0</ele><time>2026-05-02T14:22:28.304Z</time></trkpt><trkpt lat="40.9094633" lon="14.13515"><ele>101.33333333333334</ele><time>2026-05-02T14:22:29.304Z</time></trkpt><trkpt lat="40.9094967" lon="14.1352417"><ele>100.66666666666667</ele><time>2026-05-02T14:22:30.303Z</time></trkpt><trkpt lat="40.9095267" lon="14.1353317"><ele>100.0</ele><time>2026-05-02T14:22:31.303Z</time></trkpt><trkpt lat="40.9095567" lon="14.1354217"><ele>100.00000000000001</ele><time>2026-05-02T14:22:32.302Z</time></trkpt><trkpt lat="40.90959" lon="14.1355167"><ele>100.0</ele><time>2026-05-02T14:22:33.304Z</time></trkpt><trkpt lat="40.909625" lon="14.1356133"><ele>100.0</ele><time>2026-05-02T14:22:34.303Z</time></trkpt><trkpt lat="40.9096617" lon="14.1357133"><ele>100.0</ele><time>2026-05-02T14:22:35.304Z</time></trkpt><trkpt lat="40.9097" lon="14.1358167"><ele>100.00000000000001</ele><time>2026-05-02T14:22:36.303Z</time></trkpt><trkpt lat="40.9097417" lon="14.135925"><ele>100.0</ele><time>2026-05-02T14:22:37.304Z</time></trkpt><trkpt lat="40.9097833" lon="14.1360417"><ele>100.4</ele><time>2026-05-02T14:22:38.303Z</time></trkpt><trkpt lat="40.909825" lon="14.13616"><ele>100.8</ele><time>2026-05-02T14:22:39.303Z</time></trkpt><trkpt lat="40.9098633" lon="14.1362767"><ele>101.19999999999999</ele><time>2026-05-02T14:22:40.304Z</time></trkpt><trkpt lat="40.9099033" lon="14.1363917"><ele>101.6</ele><time>2026-05-02T14:22:41.304Z</time></trkpt><trkpt lat="40.909945" lon="14.1365033"><ele>102.0</ele><time>2026-05-02T14:22:42.303Z</time></trkpt><trkpt lat="40.9099833" lon="14.1366117"><ele>102.39999999999999</ele><time>2026-05-02T14:22:43.304Z</time></trkpt><trkpt lat="40.9100217" lon="14.1367183"><ele>102.8</ele><time>2026-05-02T14:22:44.303Z</time></trkpt><trkpt lat="40.91006" lon="14.1368283"><ele>103.2</ele><time>2026-05-02T14:22:45.303Z</time></trkpt><trkpt lat="40.9100967" lon="14.13694"><ele>103.6</ele><time>2026-05-02T14:22:46.303Z</time></trkpt><trkpt lat="40.9101333" lon="14.1370467"><ele>104.0</ele><time>2026-05-02T14:22:47.304Z</time></trkpt><trkpt lat="40.9101717" lon="14.1371533"><ele>103.16666666666666</ele><time>2026-05-02T14:22:48.304Z</time></trkpt><trkpt lat="40.9102067" lon="14.1372583"><ele>102.33333333333333</ele><time>2026-05-02T14:22:49.304Z</time></trkpt><trkpt lat="40.9102433" lon="14.1373617"><ele>101.5</ele><time>2026-05-02T14:22:50.303Z</time></trkpt><trkpt lat="40.91028" lon="14.13747"><ele>100.66666666666666</ele><time>2026-05-02T14:22:51.302Z</time></trkpt><trkpt lat="40.91032" lon="14.13758"><ele>99.83333333333333</ele><time>2026-05-02T14:22:52.302Z</time></trkpt><trkpt lat="40.91036" lon="14.13769"><ele>99.0</ele><time>2026-05-02T14:22:53.303Z</time></trkpt><trkpt lat="40.9103983" lon="14.137805"><ele>99.0</ele><time>2026-05-02T14:22:54.303Z</time></trkpt><trkpt lat="40.910435" lon="14.13792"><ele>99.0</ele><time>2026-05-02T14:22:55.303Z</time></trkpt><trkpt lat="40.910475" lon="14.1380367"><ele>99.0</ele><time>2026-05-02T14:22:56.303Z</time></trkpt><trkpt lat="40.9105133" lon="14.138155"><ele>99.0</ele><time>2026-05-02T14:22:57.301Z</time></trkpt><trkpt lat="40.9105517" lon="14.1382683"><ele>99.0</ele><time>2026-05-02T14:22:58.303Z</time></trkpt><trkpt lat="40.9105917" lon="14.1383833"><ele>99.0</ele><time>2026-05-02T14:22:59.303Z</time></trkpt><trkpt lat="40.91063" lon="14.1384983"><ele>99.0</ele><time>2026-05-02T14:23:00.304Z</time></trkpt><trkpt lat="40.9106717" lon="14.138615"><ele>99.0</ele><time>2026-05-02T14:23:01.304Z</time></trkpt><trkpt lat="40.91071" lon="14.138735"><ele>99.0</ele><time>2026-05-02T14:23:02.303Z</time></trkpt><trkpt lat="40.9107533" lon="14.13885"><ele>99.0</ele><time>2026-05-02T14:23:03.303Z</time></trkpt><trkpt lat="40.9107967" lon="14.1389667"><ele>98.80000000000001</ele><time>2026-05-02T14:23:04.303Z</time></trkpt><trkpt lat="40.91084" lon="14.1390867"><ele>98.60000000000001</ele><time>2026-05-02T14:23:05.303Z</time></trkpt><trkpt lat="40.9108783" lon="14.1392083"><ele>98.4</ele><time>2026-05-02T14:23:06.302Z</time></trkpt><trkpt lat="40.91092" lon="14.1393283"><ele>98.2</ele><time>2026-05-02T14:23:07.305Z</time></trkpt><trkpt lat="40.9109617" lon="14.1394433"><ele>98.0</ele><time>2026-05-02T14:23:08.302Z</time></trkpt><trkpt lat="40.9110017" lon="14.139555"><ele>98.0</ele><time>2026-05-02T14:23:09.303Z</time></trkpt><trkpt lat="40.9110433" lon="14.1396667"><ele>98.0</ele><time>2026-05-02T14:23:10.302Z</time></trkpt><trkpt lat="40.9110833" lon="14.1397783"><ele>98.0</ele><time>2026-05-02T14:23:11.303Z</time></trkpt><trkpt lat="40.911125" lon="14.139895"><ele>98.0</ele><time>2026-05-02T14:23:12.303Z</time></trkpt><trkpt lat="40.91117" lon="14.140015"><ele>98.0</ele><time>2026-05-02T14:23:13.303Z</time></trkpt><trkpt lat="40.911215" lon="14.140135"><ele>98.2</ele><time>2026-05-02T14:23:14.302Z</time></trkpt><trkpt lat="40.9112583" lon="14.1402567"><ele>98.4</ele><time>2026-05-02T14:23:15.302Z</time></trkpt><trkpt lat="40.9113033" lon="14.1403783"><ele>98.60000000000001</ele><time>2026-05-02T14:23:16.302Z</time></trkpt><trkpt lat="40.9113467" lon="14.1405017"><ele>98.80000000000001</ele><time>2026-05-02T14:23:17.303Z</time></trkpt><trkpt lat="40.91139" lon="14.1406267"><ele>99.0</ele><time>2026-05-02T14:23:18.303Z</time></trkpt><trkpt lat="40.9114367" lon="14.14075"><ele>99.0</ele><time>2026-05-02T14:23:19.304Z</time></trkpt><trkpt lat="40.9114833" lon="14.1408783"><ele>99.0</ele><time>2026-05-02T14:23:20.302Z</time></trkpt><trkpt lat="40.9115267" lon="14.1410033"><ele>99.0</ele><time>2026-05-02T14:23:21.302Z</time></trkpt><trkpt lat="40.91157" lon="14.1411333"><ele>99.0</ele><time>2026-05-02T14:23:22.302Z</time></trkpt><trkpt lat="40.911615" lon="14.1412617"><ele>99.0</ele><time>2026-05-02T14:23:23.303Z</time></trkpt><trkpt lat="40.9116617" lon="14.141385"><ele>99.0</ele><time>2026-05-02T14:23:24.303Z</time></trkpt><trkpt lat="40.9117067" lon="14.1415117"><ele>99.0</ele><time>2026-05-02T14:23:25.303Z</time></trkpt><trkpt lat="40.9117533" lon="14.1416383"><ele>99.0</ele><time>2026-05-02T14:23:26.305Z</time></trkpt><trkpt lat="40.9118" lon="14.1417683"><ele>99.0</ele><time>2026-05-02T14:23:27.303Z</time></trkpt><trkpt lat="40.9118467" lon="14.1419"><ele>99.0</ele><time>2026-05-02T14:23:28.304Z</time></trkpt><trkpt lat="40.91189" lon="14.1420283"><ele>98.6</ele><time>2026-05-02T14:23:29.302Z</time></trkpt><trkpt lat="40.911935" lon="14.142155"><ele>98.2</ele><time>2026-05-02T14:23:30.303Z</time></trkpt><trkpt lat="40.9119817" lon="14.1422833"><ele>97.8</ele><time>2026-05-02T14:23:31.303Z</time></trkpt><trkpt lat="40.9120267" lon="14.1424133"><ele>97.39999999999999</ele><time>2026-05-02T14:23:32.302Z</time></trkpt><trkpt lat="40.91207" lon="14.1425383"><ele>97.0</ele><time>2026-05-02T14:23:33.302Z</time></trkpt><trkpt lat="40.91211" lon="14.1426667"><ele>97.0</ele><time>2026-05-02T14:23:34.305Z</time></trkpt><trkpt lat="40.9121533" lon="14.1427933"><ele>97.0</ele><time>2026-05-02T14:23:35.303Z</time></trkpt><trkpt lat="40.9121983" lon="14.142915"><ele>97.0</ele><time>2026-05-02T14:23:36.303Z</time></trkpt><trkpt lat="40.9122417" lon="14.1430383"><ele>97.0</ele><time>2026-05-02T14:23:37.303Z</time></trkpt><trkpt lat="40.912285" lon="14.14316"><ele>97.0</ele><time>2026-05-02T14:23:38.303Z</time></trkpt><trkpt lat="40.912325" lon="14.1432767"><ele>97.39999999999999</ele><time>2026-05-02T14:23:39.303Z</time></trkpt><trkpt lat="40.9123667" lon="14.1433933"><ele>97.8</ele><time>2026-05-02T14:23:40.304Z</time></trkpt><trkpt lat="40.912405" lon="14.1435117"><ele>98.2</ele><time>2026-05-02T14:23:41.303Z</time></trkpt><trkpt lat="40.9124467" lon="14.14363"><ele>98.6</ele><time>2026-05-02T14:23:42.302Z</time></trkpt><trkpt lat="40.9124883" lon="14.143745"><ele>99.0</ele><time>2026-05-02T14:23:43.303Z</time></trkpt><trkpt lat="40.91253" lon="14.14386"><ele>99.0</ele><time>2026-05-02T14:23:44.304Z</time></trkpt><trkpt lat="40.9125717" lon="14.1439717"><ele>99.0</ele><time>2026-05-02T14:23:45.302Z</time></trkpt><trkpt lat="40.91261" lon="14.14408"><ele>99.0</ele><time>2026-05-02T14:23:46.302Z</time></trkpt><trkpt lat="40.9126517" lon="14.1441883"><ele>99.0</ele><time>2026-05-02T14:23:47.303Z</time></trkpt><trkpt lat="40.9126917" lon="14.1443"><ele>99.0</ele><time>2026-05-02T14:23:48.303Z</time></trkpt><trkpt lat="40.91273" lon="14.1444117"><ele>98.5</ele><time>2026-05-02T14:23:49.304Z</time></trkpt><trkpt lat="40.9127683" lon="14.1445217"><ele>98.0</ele><time>2026-05-02T14:23:50.302Z</time></trkpt><trkpt lat="40.912805" lon="14.1446233"><ele>97.5</ele><time>2026-05-02T14:23:51.303Z</time></trkpt><trkpt lat="40.9128417" lon="14.1447267"><ele>97.0</ele><time>2026-05-02T14:23:52.303Z</time></trkpt><trkpt lat="40.9128767" lon="14.1448233"><ele>96.5</ele><time>2026-05-02T14:23:53.304Z</time></trkpt><trkpt lat="40.9129133" lon="14.1449183"><ele>96.0</ele><time>2026-05-02T14:23:54.303Z</time></trkpt><trkpt lat="40.9129517" lon="14.14501"><ele>96.0</ele><time>2026-05-02T14:23:55.303Z</time></trkpt><trkpt lat="40.912985" lon="14.1451017"><ele>96.0</ele><time>2026-05-02T14:23:56.302Z</time></trkpt><trkpt lat="40.9130183" lon="14.1451967"><ele>96.0</ele><time>2026-05-02T14:23:57.304Z</time></trkpt><trkpt lat="40.91304" lon="14.1453017"><ele>96.0</ele><time>2026-05-02T14:23:58.303Z</time></trkpt><trkpt lat="40.913045" lon="14.1454117"><ele>96.0</ele><time>2026-05-02T14:23:59.304Z</time></trkpt><trkpt lat="40.9130383" lon="14.1455233"><ele>96.0</ele><time>2026-05-02T14:24:00.303Z</time></trkpt><trkpt lat="40.9130283" lon="14.1456317"><ele>96.16666666666667</ele><time>2026-05-02T14:24:01.302Z</time></trkpt><trkpt lat="40.91302" lon="14.1457417"><ele>96.33333333333334</ele><time>2026-05-02T14:24:02.304Z</time></trkpt><trkpt lat="40.9130083" lon="14.1458533"><ele>96.5</ele><time>2026-05-02T14:24:03.302Z</time></trkpt><trkpt lat="40.9129883" lon="14.14596"><ele>96.66666666666667</ele><time>2026-05-02T14:24:04.303Z</time></trkpt><trkpt lat="40.9129667" lon="14.1460683"><ele>96.83333333333334</ele><time>2026-05-02T14:24:05.303Z</time></trkpt><trkpt lat="40.9129383" lon="14.1461683"><ele>97.0</ele><time>2026-05-02T14:24:06.304Z</time></trkpt><trkpt lat="40.9129083" lon="14.1462683"><ele>97.00000000000001</ele><time>2026-05-02T14:24:07.303Z</time></trkpt><trkpt lat="40.9128817" lon="14.14637"><ele>97.0</ele><time>2026-05-02T14:24:08.303Z</time></trkpt><trkpt lat="40.912855" lon="14.146475"><ele>97.0</ele><time>2026-05-02T14:24:09.303Z</time></trkpt><trkpt lat="40.9128317" lon="14.1465833"><ele>97.0</ele><time>2026-05-02T14:24:10.303Z</time></trkpt><trkpt lat="40.91281" lon="14.146695"><ele>97.00000000000001</ele><time>2026-05-02T14:24:11.304Z</time></trkpt><trkpt lat="40.91279" lon="14.1468067"><ele>97.0</ele><time>2026-05-02T14:24:12.304Z</time></trkpt><trkpt lat="40.9127867" lon="14.14692"><ele>97.00000000000001</ele><time>2026-05-02T14:24:13.304Z</time></trkpt><trkpt lat="40.9127967" lon="14.1470333"><ele>97.0</ele><time>2026-05-02T14:24:14.305Z</time></trkpt><trkpt lat="40.9128183" lon="14.1471467"><ele>97.0</ele><time>2026-05-02T14:24:15.302Z</time></trkpt><trkpt lat="40.9128533" lon="14.147255"><ele>97.0</ele><time>2026-05-02T14:24:16.309Z</time></trkpt><trkpt lat="40.912895" lon="14.1473583"><ele>97.00000000000001</ele><time>2026-05-02T14:24:17.304Z</time></trkpt><trkpt lat="40.9129417" lon="14.1474533"><ele>97.0</ele><time>2026-05-02T14:24:18.303Z</time></trkpt><trkpt lat="40.9129933" lon="14.147545"><ele>97.16666666666667</ele><time>2026-05-02T14:24:19.306Z</time></trkpt><trkpt lat="40.9130383" lon="14.14764"><ele>97.33333333333334</ele><time>2026-05-02T14:24:20.303Z</time></trkpt><trkpt lat="40.9130833" lon="14.1477383"><ele>97.5</ele><time>2026-05-02T14:24:21.305Z</time></trkpt><trkpt lat="40.91313" lon="14.1478367"><ele>97.66666666666666</ele><time>2026-05-02T14:24:22.303Z</time></trkpt><trkpt lat="40.9131783" lon="14.147935"><ele>97.83333333333333</ele><time>2026-05-02T14:24:23.303Z</time></trkpt><trkpt lat="40.913225" lon="14.14803"><ele>98.0</ele><time>2026-05-02T14:24:24.304Z</time></trkpt><trkpt lat="40.9132733" lon="14.1481183"><ele>97.99999999999999</ele><time>2026-05-02T14:24:25.304Z</time></trkpt><trkpt lat="40.9133233" lon="14.148205"><ele>98.0</ele><time>2026-05-02T14:24:26.303Z</time></trkpt><trkpt lat="40.9133767" lon="14.14829"><ele>98.0</ele><time>2026-05-02T14:24:27.303Z</time></trkpt><trkpt lat="40.91343" lon="14.14837"><ele>98.0</ele><time>2026-05-02T14:24:28.303Z</time></trkpt><trkpt lat="40.9134833" lon="14.1484517"><ele>97.99999999999999</ele><time>2026-05-02T14:24:29.303Z</time></trkpt><trkpt lat="40.9135283" lon="14.148535"><ele>98.0</ele><time>2026-05-02T14:24:30.303Z</time></trkpt><trkpt lat="40.9135683" lon="14.14862"><ele>98.0</ele><time>2026-05-02T14:24:31.303Z</time></trkpt><trkpt lat="40.9136067" lon="14.1487067"><ele>98.0</ele><time>2026-05-02T14:24:32.303Z</time></trkpt><trkpt lat="40.9136367" lon="14.1487983"><ele>98.0</ele><time>2026-05-02T14:24:33.303Z</time></trkpt><trkpt lat="40.9136633" lon="14.14889"><ele>98.0</ele><time>2026-05-02T14:24:34.303Z</time></trkpt><trkpt lat="40.9136883" lon="14.1489833"><ele>98.0</ele><time>2026-05-02T14:24:35.303Z</time></trkpt><trkpt lat="40.9137067" lon="14.1490783"><ele>98.0</ele><time>2026-05-02T14:24:36.303Z</time></trkpt><trkpt lat="40.913725" lon="14.1491717"><ele>98.0</ele><time>2026-05-02T14:24:37.304Z</time></trkpt><trkpt lat="40.9137417" lon="14.149265"><ele>98.42857142857143</ele><time>2026-05-02T14:24:38.303Z</time></trkpt><trkpt lat="40.9137517" lon="14.1493617"><ele>98.85714285714286</ele><time>2026-05-02T14:24:39.303Z</time></trkpt><trkpt lat="40.913755" lon="14.1494583"><ele>99.28571428571428</ele><time>2026-05-02T14:24:40.304Z</time></trkpt><trkpt lat="40.9137517" lon="14.1495583"><ele>99.71428571428572</ele><time>2026-05-02T14:24:41.304Z</time></trkpt><trkpt lat="40.913745" lon="14.149655"><ele>100.14285714285714</ele><time>2026-05-02T14:24:42.304Z</time></trkpt><trkpt lat="40.91374" lon="14.1497533"><ele>100.57142857142857</ele><time>2026-05-02T14:24:43.304Z</time></trkpt><trkpt lat="40.913735" lon="14.14985"><ele>101.0</ele><time>2026-05-02T14:24:44.303Z</time></trkpt><trkpt lat="40.913735" lon="14.1499467"><ele>101.14285714285714</ele><time>2026-05-02T14:24:45.303Z</time></trkpt><trkpt lat="40.9137367" lon="14.1500433"><ele>101.28571428571428</ele><time>2026-05-02T14:24:46.304Z</time></trkpt><trkpt lat="40.9137417" lon="14.150135"><ele>101.42857142857143</ele><time>2026-05-02T14:24:47.304Z</time></trkpt><trkpt lat="40.9137517" lon="14.1502283"><ele>101.57142857142857</ele><time>2026-05-02T14:24:48.303Z</time></trkpt><trkpt lat="40.9137683" lon="14.1503167"><ele>101.71428571428572</ele><time>2026-05-02T14:24:49.304Z</time></trkpt><trkpt lat="40.9137867" lon="14.1504083"><ele>101.85714285714286</ele><time>2026-05-02T14:24:50.303Z</time></trkpt><trkpt lat="40.9138067" lon="14.150505"><ele>102.0</ele><time>2026-05-02T14:24:51.303Z</time></trkpt><trkpt lat="40.9138333" lon="14.1506"><ele>102.0</ele><time>2026-05-02T14:24:52.303Z</time></trkpt><trkpt lat="40.9138617" lon="14.1506933"><ele>102.0</ele><time>2026-05-02T14:24:53.303Z</time></trkpt><trkpt lat="40.9138917" lon="14.1507817"><ele>102.0</ele><time>2026-05-02T14:24:54.303Z</time></trkpt><trkpt lat="40.913925" lon="14.1508667"><ele>102.0</ele><time>2026-05-02T14:24:55.304Z</time></trkpt><trkpt lat="40.9139583" lon="14.1509467"><ele>102.0</ele><time>2026-05-02T14:24:56.304Z</time></trkpt><trkpt lat="40.9139933" lon="14.1510267"><ele>102.0</ele><time>2026-05-02T14:24:57.303Z</time></trkpt><trkpt lat="40.914025" lon="14.151115"><ele>102.0</ele><time>2026-05-02T14:24:58.303Z</time></trkpt><trkpt lat="40.9140533" lon="14.151205"><ele>102.16666666666667</ele><time>2026-05-02T14:24:59.304Z</time></trkpt><trkpt lat="40.9140833" lon="14.1512933"><ele>102.33333333333334</ele><time>2026-05-02T14:25:00.304Z</time></trkpt><trkpt lat="40.914105" lon="14.151385"><ele>102.5</ele><time>2026-05-02T14:25:01.302Z</time></trkpt><trkpt lat="40.9141217" lon="14.151485"><ele>102.66666666666667</ele><time>2026-05-02T14:25:02.304Z</time></trkpt><trkpt lat="40.9141317" lon="14.15159"><ele>102.83333333333334</ele><time>2026-05-02T14:25:03.303Z</time></trkpt><trkpt lat="40.9141367" lon="14.1517"><ele>103.0</ele><time>2026-05-02T14:25:04.304Z</time></trkpt><trkpt lat="40.91414" lon="14.1518083"><ele>103.50000000000001</ele><time>2026-05-02T14:25:05.302Z</time></trkpt><trkpt lat="40.9141433" lon="14.1519183"><ele>104.0</ele><time>2026-05-02T14:25:06.303Z</time></trkpt><trkpt lat="40.9141433" lon="14.15203"><ele>104.5</ele><time>2026-05-02T14:25:07.304Z</time></trkpt><trkpt lat="40.914145" lon="14.1521417"><ele>105.0</ele><time>2026-05-02T14:25:08.304Z</time></trkpt><trkpt lat="40.9141467" lon="14.15225"><ele>105.50000000000001</ele><time>2026-05-02T14:25:09.303Z</time></trkpt><trkpt lat="40.9141567" lon="14.152355"><ele>106.0</ele><time>2026-05-02T14:25:10.304Z</time></trkpt><trkpt lat="40.914175" lon="14.15246"><ele>106.00000000000001</ele><time>2026-05-02T14:25:11.303Z</time></trkpt><trkpt lat="40.914205" lon="14.1525617"><ele>106.0</ele><time>2026-05-02T14:25:12.303Z</time></trkpt><trkpt lat="40.9142417" lon="14.1526533"><ele>106.0</ele><time>2026-05-02T14:25:13.304Z</time></trkpt><trkpt lat="40.9142883" lon="14.1527367"><ele>106.0</ele><time>2026-05-02T14:25:14.303Z</time></trkpt><trkpt lat="40.9143533" lon="14.152815"><ele>106.00000000000001</ele><time>2026-05-02T14:25:15.303Z</time></trkpt><trkpt lat="40.9144233" lon="14.152885"><ele>106.0</ele><time>2026-05-02T14:25:16.303Z</time></trkpt><trkpt lat="40.9144917" lon="14.1529633"><ele>106.00000000000001</ele><time>2026-05-02T14:25:17.303Z</time></trkpt><trkpt lat="40.91456" lon="14.153035"><ele>106.0</ele><time>2026-05-02T14:25:18.303Z</time></trkpt><trkpt lat="40.9146267" lon="14.1531083"><ele>106.0</ele><time>2026-05-02T14:25:19.302Z</time></trkpt><trkpt lat="40.914695" lon="14.15318"><ele>106.0</ele><time>2026-05-02T14:25:20.303Z</time></trkpt><trkpt lat="40.9147567" lon="14.1532517"><ele>106.00000000000001</ele><time>2026-05-02T14:25:21.306Z</time></trkpt><trkpt lat="40.9148217" lon="14.15332"><ele>106.0</ele><time>2026-05-02T14:25:22.303Z</time></trkpt><trkpt lat="40.9148867" lon="14.1533867"><ele>106.00000000000001</ele><time>2026-05-02T14:25:23.305Z</time></trkpt><trkpt lat="40.9149517" lon="14.1534583"><ele>106.0</ele><time>2026-05-02T14:25:24.304Z</time></trkpt><trkpt lat="40.9150133" lon="14.1535267"><ele>106.0</ele><time>2026-05-02T14:25:25.305Z</time></trkpt><trkpt lat="40.915075" lon="14.1536"><ele>106.0</ele><time>2026-05-02T14:25:26.304Z</time></trkpt><trkpt lat="40.9151317" lon="14.153675"><ele>106.00000000000001</ele><time>2026-05-02T14:25:27.304Z</time></trkpt><trkpt lat="40.9151867" lon="14.1537567"><ele>106.0</ele><time>2026-05-02T14:25:28.302Z</time></trkpt><trkpt lat="40.9152367" lon="14.1538483"><ele>105.83333333333334</ele><time>2026-05-02T14:25:29.304Z</time></trkpt><trkpt lat="40.91528" lon="14.1539417"><ele>105.66666666666667</ele><time>2026-05-02T14:25:30.303Z</time></trkpt><trkpt lat="40.9153117" lon="14.1540383"><ele>105.5</ele><time>2026-05-02T14:25:31.304Z</time></trkpt><trkpt lat="40.915335" lon="14.1541367"><ele>105.33333333333334</ele><time>2026-05-02T14:25:32.304Z</time></trkpt><trkpt lat="40.9153517" lon="14.154235"><ele>105.16666666666667</ele><time>2026-05-02T14:25:33.302Z</time></trkpt><trkpt lat="40.915365" lon="14.1543383"><ele>105.0</ele><time>2026-05-02T14:25:34.302Z</time></trkpt><trkpt lat="40.9153733" lon="14.1544467"><ele>105.33333333333333</ele><time>2026-05-02T14:25:35.302Z</time></trkpt><trkpt lat="40.915385" lon="14.1545583"><ele>105.66666666666666</ele><time>2026-05-02T14:25:36.303Z</time></trkpt><trkpt lat="40.9153967" lon="14.154665"><ele>106.0</ele><time>2026-05-02T14:25:37.303Z</time></trkpt><trkpt lat="40.9154083" lon="14.1547683"><ele>106.33333333333333</ele><time>2026-05-02T14:25:38.302Z</time></trkpt><trkpt lat="40.9154183" lon="14.1548683"><ele>106.66666666666666</ele><time>2026-05-02T14:25:39.302Z</time></trkpt><trkpt lat="40.915425" lon="14.1549633"><ele>107.0</ele><time>2026-05-02T14:25:40.302Z</time></trkpt><trkpt lat="40.9154283" lon="14.15506"><ele>107.42857142857143</ele><time>2026-05-02T14:25:41.302Z</time></trkpt><trkpt lat="40.9154317" lon="14.1551567"><ele>107.85714285714286</ele><time>2026-05-02T14:25:42.304Z</time></trkpt><trkpt lat="40.915435" lon="14.1552517"><ele>108.28571428571428</ele><time>2026-05-02T14:25:43.302Z</time></trkpt><trkpt lat="40.9154383" lon="14.155345"><ele>108.71428571428572</ele><time>2026-05-02T14:25:44.302Z</time></trkpt><trkpt lat="40.9154417" lon="14.15544"><ele>109.14285714285714</ele><time>2026-05-02T14:25:45.302Z</time></trkpt><trkpt lat="40.9154433" lon="14.1555317"><ele>109.57142857142857</ele><time>2026-05-02T14:25:46.303Z</time></trkpt><trkpt lat="40.9154433" lon="14.1556267"><ele>110.0</ele><time>2026-05-02T14:25:47.303Z</time></trkpt><trkpt lat="40.915445" lon="14.15572"><ele>109.99999999999999</ele><time>2026-05-02T14:25:48.302Z</time></trkpt><trkpt lat="40.9154467" lon="14.155815"><ele>110.0</ele><time>2026-05-02T14:25:49.302Z</time></trkpt><trkpt lat="40.9154483" lon="14.15591"><ele>110.0</ele><time>2026-05-02T14:25:50.303Z</time></trkpt><trkpt lat="40.9154483" lon="14.1560017"><ele>110.0</ele><time>2026-05-02T14:25:51.302Z</time></trkpt><trkpt lat="40.9154467" lon="14.1561"><ele>110.0</ele><time>2026-05-02T14:25:52.303Z</time></trkpt><trkpt lat="40.915445" lon="14.1561983"><ele>109.99999999999999</ele><time>2026-05-02T14:25:53.303Z</time></trkpt><trkpt lat="40.9154433" lon="14.1562967"><ele>110.0</ele><time>2026-05-02T14:25:54.302Z</time></trkpt><trkpt lat="40.91544" lon="14.1563967"><ele>109.99999999999999</ele><time>2026-05-02T14:25:55.302Z</time></trkpt><trkpt lat="40.91544" lon="14.1564983"><ele>110.0</ele><time>2026-05-02T14:25:56.302Z</time></trkpt><trkpt lat="40.915445" lon="14.1566"><ele>110.0</ele><time>2026-05-02T14:25:57.303Z</time></trkpt><trkpt lat="40.9154483" lon="14.1567033"><ele>110.0</ele><time>2026-05-02T14:25:58.302Z</time></trkpt><trkpt lat="40.9154517" lon="14.1568067"><ele>109.99999999999999</ele><time>2026-05-02T14:25:59.302Z</time></trkpt><trkpt lat="40.9154517" lon="14.1569133"><ele>110.0</ele><time>2026-05-02T14:26:00.302Z</time></trkpt><trkpt lat="40.9154517" lon="14.1570167"><ele>109.99999999999999</ele><time>2026-05-02T14:26:01.302Z</time></trkpt><trkpt lat="40.9154517" lon="14.15712"><ele>110.0</ele><time>2026-05-02T14:26:02.302Z</time></trkpt><trkpt lat="40.9154517" lon="14.1572217"><ele>110.0</ele><time>2026-05-02T14:26:03.301Z</time></trkpt><trkpt lat="40.91545" lon="14.1573267"><ele>110.0</ele><time>2026-05-02T14:26:04.302Z</time></trkpt><trkpt lat="40.91545" lon="14.1574317"><ele>109.99999999999999</ele><time>2026-05-02T14:26:05.303Z</time></trkpt><trkpt lat="40.9154483" lon="14.1575367"><ele>110.0</ele><time>2026-05-02T14:26:06.302Z</time></trkpt><trkpt lat="40.9154483" lon="14.1576383"><ele>110.49999999999999</ele><time>2026-05-02T14:26:07.303Z</time></trkpt><trkpt lat="40.915455" lon="14.1577417"><ele>111.0</ele><time>2026-05-02T14:26:08.302Z</time></trkpt><trkpt lat="40.9154633" lon="14.1578467"><ele>111.5</ele><time>2026-05-02T14:26:09.303Z</time></trkpt><trkpt lat="40.9154717" lon="14.1579517"><ele>112.0</ele><time>2026-05-02T14:26:10.302Z</time></trkpt><trkpt lat="40.915485" lon="14.158055"><ele>112.49999999999999</ele><time>2026-05-02T14:26:11.303Z</time></trkpt><trkpt lat="40.9154967" lon="14.1581617"><ele>113.0</ele><time>2026-05-02T14:26:12.302Z</time></trkpt><trkpt lat="40.9155133" lon="14.1582667"><ele>113.0</ele><time>2026-05-02T14:26:13.303Z</time></trkpt><trkpt lat="40.9155317" lon="14.1583683"><ele>113.0</ele><time>2026-05-02T14:26:14.302Z</time></trkpt><trkpt lat="40.9155483" lon="14.158465"><ele>113.0</ele><time>2026-05-02T14:26:15.302Z</time></trkpt><trkpt lat="40.915565" lon="14.158565"><ele>113.0</ele><time>2026-05-02T14:26:16.301Z</time></trkpt><trkpt lat="40.9155783" lon="14.15866"><ele>113.0</ele><time>2026-05-02T14:26:17.302Z</time></trkpt><trkpt lat="40.9155917" lon="14.1587517"><ele>113.0</ele><time>2026-05-02T14:26:18.304Z</time></trkpt><trkpt lat="40.9156067" lon="14.158835"><ele>113.0</ele><time>2026-05-02T14:26:19.304Z</time></trkpt><trkpt lat="40.9156217" lon="14.15892"><ele>113.2</ele><time>2026-05-02T14:26:20.303Z</time></trkpt><trkpt lat="40.9156483" lon="14.1590733"><ele>113.4</ele><time>2026-05-02T14:26:22.303Z</time></trkpt><trkpt lat="40.9156783" lon="14.15921"><ele>113.60000000000001</ele><time>2026-05-02T14:26:24.304Z</time></trkpt><trkpt lat="40.9157083" lon="14.1593467"><ele>113.80000000000001</ele><time>2026-05-02T14:26:26.302Z</time></trkpt><trkpt lat="40.91573" lon="14.1594967"><ele>114.0</ele><time>2026-05-02T14:26:28.303Z</time></trkpt><trkpt lat="40.9157717" lon="14.1596483"><ele>114.0</ele><time>2026-05-02T14:26:30.303Z</time></trkpt><trkpt lat="40.9157933" lon="14.1597317"><ele>113.99999999999999</ele><time>2026-05-02T14:26:31.303Z</time></trkpt><trkpt lat="40.9158067" lon="14.1598217"><ele>114.0</ele><time>2026-05-02T14:26:32.303Z</time></trkpt><trkpt lat="40.9158117" lon="14.159915"><ele>114.0</ele><time>2026-05-02T14:26:33.305Z</time></trkpt><trkpt lat="40.915815" lon="14.160015"><ele>113.99999999999999</ele><time>2026-05-02T14:26:34.304Z</time></trkpt><trkpt lat="40.9158167" lon="14.1601133"><ele>114.0</ele><time>2026-05-02T14:26:35.303Z</time></trkpt><trkpt lat="40.915815" lon="14.16021"><ele>114.0</ele><time>2026-05-02T14:26:36.303Z</time></trkpt><trkpt lat="40.9158117" lon="14.1603067"><ele>113.83333333333333</ele><time>2026-05-02T14:26:37.302Z</time></trkpt><trkpt lat="40.91581" lon="14.160405"><ele>113.66666666666666</ele><time>2026-05-02T14:26:38.303Z</time></trkpt><trkpt lat="40.9158083" lon="14.1605067"><ele>113.5</ele><time>2026-05-02T14:26:39.302Z</time></trkpt><trkpt lat="40.9158067" lon="14.1606117"><ele>113.33333333333333</ele><time>2026-05-02T14:26:40.302Z</time></trkpt><trkpt lat="40.9158083" lon="14.1607183"><ele>113.16666666666666</ele><time>2026-05-02T14:26:41.303Z</time></trkpt><trkpt lat="40.91581" lon="14.1608233"><ele>113.0</ele><time>2026-05-02T14:26:42.302Z</time></trkpt><trkpt lat="40.91581" lon="14.1609217"><ele>112.83333333333333</ele><time>2026-05-02T14:26:43.304Z</time></trkpt><trkpt lat="40.91581" lon="14.1610233"><ele>112.66666666666666</ele><time>2026-05-02T14:26:44.306Z</time></trkpt><trkpt lat="40.91581" lon="14.1611267"><ele>112.5</ele><time>2026-05-02T14:26:45.302Z</time></trkpt><trkpt lat="40.91581" lon="14.1612317"><ele>112.33333333333334</ele><time>2026-05-02T14:26:46.302Z</time></trkpt><trkpt lat="40.9158083" lon="14.1613383"><ele>112.16666666666667</ele><time>2026-05-02T14:26:47.302Z</time></trkpt><trkpt lat="40.915805" lon="14.1614467"><ele>112.0</ele><time>2026-05-02T14:26:48.304Z</time></trkpt><trkpt lat="40.9158033" lon="14.16155"><ele>112.0</ele><time>2026-05-02T14:26:49.302Z</time></trkpt><trkpt lat="40.9158033" lon="14.161655"><ele>112.0</ele><time>2026-05-02T14:26:50.303Z</time></trkpt><trkpt lat="40.9158033" lon="14.1617583"><ele>112.0</ele><time>2026-05-02T14:26:51.304Z</time></trkpt><trkpt lat="40.9158033" lon="14.16186"><ele>112.0</ele><time>2026-05-02T14:26:52.302Z</time></trkpt><trkpt lat="40.9158067" lon="14.161955"><ele>112.0</ele><time>2026-05-02T14:26:53.303Z</time></trkpt><trkpt lat="40.9158067" lon="14.1620483"><ele>112.0</ele><time>2026-05-02T14:26:54.302Z</time></trkpt><trkpt lat="40.9158067" lon="14.16214"><ele>112.0</ele><time>2026-05-02T14:26:55.304Z</time></trkpt><trkpt lat="40.9158083" lon="14.1622333"><ele>112.00000000000001</ele><time>2026-05-02T14:26:56.304Z</time></trkpt><trkpt lat="40.91581" lon="14.1623317"><ele>112.0</ele><time>2026-05-02T14:26:57.303Z</time></trkpt><trkpt lat="40.9158117" lon="14.162435"><ele>112.0</ele><time>2026-05-02T14:26:58.302Z</time></trkpt><trkpt lat="40.91581" lon="14.16254"><ele>112.0</ele><time>2026-05-02T14:26:59.302Z</time></trkpt><trkpt lat="40.9158083" lon="14.1626433"><ele>112.00000000000001</ele><time>2026-05-02T14:27:00.304Z</time></trkpt><trkpt lat="40.9158067" lon="14.1627467"><ele>112.0</ele><time>2026-05-02T14:27:01.303Z</time></trkpt><trkpt lat="40.9158083" lon="14.1628467"><ele>112.00000000000001</ele><time>2026-05-02T14:27:02.302Z</time></trkpt><trkpt lat="40.915815" lon="14.1629467"><ele>112.0</ele><time>2026-05-02T14:27:03.304Z</time></trkpt><trkpt lat="40.9158217" lon="14.1630467"><ele>112.0</ele><time>2026-05-02T14:27:04.302Z</time></trkpt><trkpt lat="40.9158317" lon="14.1631467"><ele>112.0</ele><time>2026-05-02T14:27:05.302Z</time></trkpt><trkpt lat="40.9158467" lon="14.1632467"><ele>112.00000000000001</ele><time>2026-05-02T14:27:06.302Z</time></trkpt><trkpt lat="40.9158667" lon="14.16335"><ele>112.0</ele><time>2026-05-02T14:27:07.302Z</time></trkpt><trkpt lat="40.9158833" lon="14.1634517"><ele>112.00000000000001</ele><time>2026-05-02T14:27:08.302Z</time></trkpt><trkpt lat="40.9159033" lon="14.163555"><ele>112.0</ele><time>2026-05-02T14:27:09.302Z</time></trkpt><trkpt lat="40.9159267" lon="14.1636583"><ele>112.0</ele><time>2026-05-02T14:27:10.302Z</time></trkpt><trkpt lat="40.91595" lon="14.1637633"><ele>112.0</ele><time>2026-05-02T14:27:11.302Z</time></trkpt><trkpt lat="40.915975" lon="14.163865"><ele>112.00000000000001</ele><time>2026-05-02T14:27:12.302Z</time></trkpt><trkpt lat="40.9159983" lon="14.1639717"><ele>112.0</ele><time>2026-05-02T14:27:13.303Z</time></trkpt><trkpt lat="40.9160267" lon="14.1640767"><ele>112.00000000000001</ele><time>2026-05-02T14:27:14.303Z</time></trkpt><trkpt lat="40.9160567" lon="14.1641833"><ele>112.0</ele><time>2026-05-02T14:27:15.302Z</time></trkpt><trkpt lat="40.916085" lon="14.1642917"><ele>112.0</ele><time>2026-05-02T14:27:16.305Z</time></trkpt><trkpt lat="40.9161133" lon="14.1644"><ele>112.0</ele><time>2026-05-02T14:27:17.303Z</time></trkpt><trkpt lat="40.9161433" lon="14.1645067"><ele>112.00000000000001</ele><time>2026-05-02T14:27:18.303Z</time></trkpt><trkpt lat="40.916175" lon="14.16461"><ele>112.0</ele><time>2026-05-02T14:27:19.303Z</time></trkpt><trkpt lat="40.916205" lon="14.164715"><ele>112.00000000000001</ele><time>2026-05-02T14:27:20.302Z</time></trkpt><trkpt lat="40.9162383" lon="14.164815"><ele>112.0</ele><time>2026-05-02T14:27:21.302Z</time></trkpt><trkpt lat="40.9162733" lon="14.16491"><ele>112.0</ele><time>2026-05-02T14:27:22.304Z</time></trkpt><trkpt lat="40.9163083" lon="14.1650033"><ele>112.0</ele><time>2026-05-02T14:27:23.303Z</time></trkpt><trkpt lat="40.9163417" lon="14.165095"><ele>112.00000000000001</ele><time>2026-05-02T14:27:24.302Z</time></trkpt><trkpt lat="40.91637" lon="14.16519"><ele>112.0</ele><time>2026-05-02T14:27:25.302Z</time></trkpt><trkpt lat="40.9163933" lon="14.165285"><ele>112.16666666666667</ele><time>2026-05-02T14:27:26.304Z</time></trkpt><trkpt lat="40.916415" lon="14.16539"><ele>112.33333333333334</ele><time>2026-05-02T14:27:27.302Z</time></trkpt><trkpt lat="40.916435" lon="14.1654983"><ele>112.5</ele><time>2026-05-02T14:27:28.304Z</time></trkpt><trkpt lat="40.9164533" lon="14.1656083"><ele>112.66666666666666</ele><time>2026-05-02T14:27:29.302Z</time></trkpt><trkpt lat="40.916475" lon="14.1657167"><ele>112.83333333333333</ele><time>2026-05-02T14:27:30.303Z</time></trkpt><trkpt lat="40.9164967" lon="14.165825"><ele>113.0</ele><time>2026-05-02T14:27:31.304Z</time></trkpt><trkpt lat="40.9165183" lon="14.16593"><ele>112.99999999999999</ele><time>2026-05-02T14:27:32.303Z</time></trkpt><trkpt lat="40.9165333" lon="14.166035"><ele>113.0</ele><time>2026-05-02T14:27:33.302Z</time></trkpt><trkpt lat="40.9165433" lon="14.166145"><ele>113.0</ele><time>2026-05-02T14:27:34.303Z</time></trkpt><trkpt lat="40.9165483" lon="14.166255"><ele>113.0</ele><time>2026-05-02T14:27:35.303Z</time></trkpt><trkpt lat="40.9165483" lon="14.1663667"><ele>112.99999999999999</ele><time>2026-05-02T14:27:36.304Z</time></trkpt><trkpt lat="40.916545" lon="14.16648"><ele>113.0</ele><time>2026-05-02T14:27:37.304Z</time></trkpt><trkpt lat="40.9165383" lon="14.1665917"><ele>112.99999999999999</ele><time>2026-05-02T14:27:38.303Z</time></trkpt><trkpt lat="40.9165317" lon="14.166705"><ele>113.0</ele><time>2026-05-02T14:27:39.303Z</time></trkpt><trkpt lat="40.9165217" lon="14.1668217"><ele>113.0</ele><time>2026-05-02T14:27:40.304Z</time></trkpt><trkpt lat="40.9165183" lon="14.1669367"><ele>113.0</ele><time>2026-05-02T14:27:41.303Z</time></trkpt><trkpt lat="40.9165167" lon="14.16705"><ele>112.99999999999999</ele><time>2026-05-02T14:27:42.303Z</time></trkpt><trkpt lat="40.91651" lon="14.1671633"><ele>113.0</ele><time>2026-05-02T14:27:43.303Z</time></trkpt><trkpt lat="40.9165017" lon="14.1672733"><ele>112.99999999999999</ele><time>2026-05-02T14:27:44.302Z</time></trkpt><trkpt lat="40.9164933" lon="14.1673833"><ele>113.0</ele><time>2026-05-02T14:27:45.304Z</time></trkpt><trkpt lat="40.9164883" lon="14.1674967"><ele>113.0</ele><time>2026-05-02T14:27:46.303Z</time></trkpt><trkpt lat="40.916485" lon="14.167615"><ele>113.0</ele><time>2026-05-02T14:27:47.303Z</time></trkpt><trkpt lat="40.91648" lon="14.167735"><ele>112.99999999999999</ele><time>2026-05-02T14:27:48.302Z</time></trkpt><trkpt lat="40.9164767" lon="14.1678567"><ele>113.0</ele><time>2026-05-02T14:27:49.303Z</time></trkpt><trkpt lat="40.91647" lon="14.1679783"><ele>113.0</ele><time>2026-05-02T14:27:50.303Z</time></trkpt><trkpt lat="40.9164633" lon="14.1681067"><ele>113.00000000000001</ele><time>2026-05-02T14:27:51.302Z</time></trkpt><trkpt lat="40.91646" lon="14.1682367"><ele>113.00000000000001</ele><time>2026-05-02T14:27:52.303Z</time></trkpt><trkpt lat="40.916455" lon="14.168365"><ele>113.0</ele><time>2026-05-02T14:27:53.305Z</time></trkpt><trkpt lat="40.9164517" lon="14.1684967"><ele>113.0</ele><time>2026-05-02T14:27:54.302Z</time></trkpt><trkpt lat="40.916445" lon="14.168625"><ele>113.0</ele><time>2026-05-02T14:27:55.303Z</time></trkpt><trkpt lat="40.916435" lon="14.1687567"><ele>113.00000000000001</ele><time>2026-05-02T14:27:56.302Z</time></trkpt><trkpt lat="40.916425" lon="14.16889"><ele>113.00000000000001</ele><time>2026-05-02T14:27:57.302Z</time></trkpt><trkpt lat="40.916415" lon="14.16903"><ele>113.0</ele><time>2026-05-02T14:27:58.302Z</time></trkpt><trkpt lat="40.9164067" lon="14.1691733"><ele>113.0</ele><time>2026-05-02T14:27:59.302Z</time></trkpt><trkpt lat="40.9164017" lon="14.16932"><ele>113.0</ele><time>2026-05-02T14:28:00.303Z</time></trkpt><trkpt lat="40.916395" lon="14.1694717"><ele>113.0</ele><time>2026-05-02T14:28:01.303Z</time></trkpt><trkpt lat="40.9163917" lon="14.1696267"><ele>113.0</ele><time>2026-05-02T14:28:02.303Z</time></trkpt><trkpt lat="40.9163967" lon="14.16978"><ele>113.0</ele><time>2026-05-02T14:28:03.302Z</time></trkpt><trkpt lat="40.9164117" lon="14.1699333"><ele>113.60000000000001</ele><time>2026-05-02T14:28:04.303Z</time></trkpt><trkpt lat="40.9164333" lon="14.17008"><ele>114.20000000000002</ele><time>2026-05-02T14:28:05.303Z</time></trkpt><trkpt lat="40.9164633" lon="14.1702167"><ele>114.8</ele><time>2026-05-02T14:28:06.303Z</time></trkpt><trkpt lat="40.916495" lon="14.1703517"><ele>115.4</ele><time>2026-05-02T14:28:07.303Z</time></trkpt><trkpt lat="40.9165283" lon="14.1704817"><ele>116.0</ele><time>2026-05-02T14:28:08.303Z</time></trkpt><trkpt lat="40.9165667" lon="14.1706067"><ele>115.8</ele><time>2026-05-02T14:28:09.302Z</time></trkpt><trkpt lat="40.9166083" lon="14.1707233"><ele>115.6</ele><time>2026-05-02T14:28:10.302Z</time></trkpt><trkpt lat="40.9166583" lon="14.1708333"><ele>115.4</ele><time>2026-05-02T14:28:11.304Z</time></trkpt><trkpt lat="40.9167083" lon="14.1709417"><ele>115.2</ele><time>2026-05-02T14:28:12.303Z</time></trkpt><trkpt lat="40.91676" lon="14.1710467"><ele>115.0</ele><time>2026-05-02T14:28:13.303Z</time></trkpt><trkpt lat="40.91682" lon="14.1711483"><ele>115.0</ele><time>2026-05-02T14:28:14.302Z</time></trkpt><trkpt lat="40.91688" lon="14.171245"><ele>115.0</ele><time>2026-05-02T14:28:15.302Z</time></trkpt><trkpt lat="40.9169383" lon="14.1713367"><ele>115.0</ele><time>2026-05-02T14:28:16.302Z</time></trkpt><trkpt lat="40.916995" lon="14.1714283"><ele>115.0</ele><time>2026-05-02T14:28:17.303Z</time></trkpt><trkpt lat="40.9170533" lon="14.1715183"><ele>115.0</ele><time>2026-05-02T14:28:18.303Z</time></trkpt><trkpt lat="40.9171117" lon="14.1716033"><ele>115.00000000000001</ele><time>2026-05-02T14:28:19.303Z</time></trkpt><trkpt lat="40.9171733" lon="14.1716867"><ele>115.0</ele><time>2026-05-02T14:28:20.303Z</time></trkpt><trkpt lat="40.9172367" lon="14.1717717"><ele>115.0</ele><time>2026-05-02T14:28:21.302Z</time></trkpt><trkpt lat="40.9172983" lon="14.1718583"><ele>115.0</ele><time>2026-05-02T14:28:22.302Z</time></trkpt><trkpt lat="40.9173567" lon="14.1719417"><ele>115.00000000000001</ele><time>2026-05-02T14:28:23.303Z</time></trkpt><trkpt lat="40.9174167" lon="14.1720233"><ele>115.0</ele><time>2026-05-02T14:28:24.302Z</time></trkpt><trkpt lat="40.917475" lon="14.1721067"><ele>115.0</ele><time>2026-05-02T14:28:25.304Z</time></trkpt><trkpt lat="40.917535" lon="14.1721917"><ele>115.0</ele><time>2026-05-02T14:28:26.302Z</time></trkpt><trkpt lat="40.917595" lon="14.1722783"><ele>115.0</ele><time>2026-05-02T14:28:27.303Z</time></trkpt><trkpt lat="40.9176583" lon="14.1723667"><ele>115.0</ele><time>2026-05-02T14:28:28.302Z</time></trkpt><trkpt lat="40.9177217" lon="14.17246"><ele>115.0</ele><time>2026-05-02T14:28:29.304Z</time></trkpt><trkpt lat="40.917785" lon="14.17256"><ele>115.0</ele><time>2026-05-02T14:28:30.303Z</time></trkpt><trkpt lat="40.917845" lon="14.1726617"><ele>115.0</ele><time>2026-05-02T14:28:31.304Z</time></trkpt><trkpt lat="40.9179017" lon="14.172765"><ele>115.0</ele><time>2026-05-02T14:28:32.302Z</time></trkpt><trkpt lat="40.9179567" lon="14.1728717"><ele>115.0</ele><time>2026-05-02T14:28:33.303Z</time></trkpt><trkpt lat="40.9180067" lon="14.172985"><ele>115.0</ele><time>2026-05-02T14:28:34.304Z</time></trkpt><trkpt lat="40.91805" lon="14.1730983"><ele>115.2</ele><time>2026-05-02T14:28:35.303Z</time></trkpt><trkpt lat="40.9180867" lon="14.1732133"><ele>115.4</ele><time>2026-05-02T14:28:36.304Z</time></trkpt><trkpt lat="40.9181167" lon="14.17333"><ele>115.6</ele><time>2026-05-02T14:28:37.305Z</time></trkpt><trkpt lat="40.9181417" lon="14.1734517"><ele>115.8</ele><time>2026-05-02T14:28:38.304Z</time></trkpt><trkpt lat="40.918165" lon="14.1735733"><ele>116.0</ele><time>2026-05-02T14:28:39.305Z</time></trkpt><trkpt lat="40.9181867" lon="14.1736967"><ele>116.0</ele><time>2026-05-02T14:28:40.305Z</time></trkpt><trkpt lat="40.9182067" lon="14.17382"><ele>116.0</ele><time>2026-05-02T14:28:41.305Z</time></trkpt><trkpt lat="40.918225" lon="14.1739433"><ele>116.0</ele><time>2026-05-02T14:28:42.304Z</time></trkpt><trkpt lat="40.918245" lon="14.1740667"><ele>116.0</ele><time>2026-05-02T14:28:43.307Z</time></trkpt><trkpt lat="40.9182633" lon="14.1741917"><ele>116.0</ele><time>2026-05-02T14:28:44.305Z</time></trkpt><trkpt lat="40.91828" lon="14.17432"><ele>115.8</ele><time>2026-05-02T14:28:45.305Z</time></trkpt><trkpt lat="40.9183" lon="14.1744467"><ele>115.6</ele><time>2026-05-02T14:28:46.305Z</time></trkpt><trkpt lat="40.9183217" lon="14.1745733"><ele>115.4</ele><time>2026-05-02T14:28:47.305Z</time></trkpt><trkpt lat="40.918345" lon="14.1746967"><ele>115.2</ele><time>2026-05-02T14:28:48.305Z</time></trkpt><trkpt lat="40.9183717" lon="14.1748217"><ele>115.0</ele><time>2026-05-02T14:28:49.305Z</time></trkpt><trkpt lat="40.9184" lon="14.174945"><ele>114.6</ele><time>2026-05-02T14:28:50.305Z</time></trkpt><trkpt lat="40.91843" lon="14.175065"><ele>114.2</ele><time>2026-05-02T14:28:51.304Z</time></trkpt><trkpt lat="40.9184583" lon="14.175185"><ele>113.80000000000001</ele><time>2026-05-02T14:28:52.306Z</time></trkpt><trkpt lat="40.91848" lon="14.1753083"><ele>113.4</ele><time>2026-05-02T14:28:53.305Z</time></trkpt><trkpt lat="40.9184967" lon="14.1754333"><ele>113.0</ele><time>2026-05-02T14:28:54.306Z</time></trkpt><trkpt lat="40.9185083" lon="14.1755617"><ele>113.2</ele><time>2026-05-02T14:28:55.305Z</time></trkpt><trkpt lat="40.9185183" lon="14.1756917"><ele>113.4</ele><time>2026-05-02T14:28:56.305Z</time></trkpt><trkpt lat="40.918525" lon="14.1758217"><ele>113.60000000000001</ele><time>2026-05-02T14:28:57.304Z</time></trkpt><trkpt lat="40.91853" lon="14.1759517"><ele>113.80000000000001</ele><time>2026-05-02T14:28:58.305Z</time></trkpt><trkpt lat="40.9185333" lon="14.176075"><ele>114.0</ele><time>2026-05-02T14:28:59.305Z</time></trkpt><trkpt lat="40.9185367" lon="14.1762017"><ele>114.0</ele><time>2026-05-02T14:29:00.305Z</time></trkpt><trkpt lat="40.9185433" lon="14.176325"><ele>114.0</ele><time>2026-05-02T14:29:01.305Z</time></trkpt><trkpt lat="40.91855" lon="14.1764483"><ele>114.0</ele><time>2026-05-02T14:29:02.305Z</time></trkpt><trkpt lat="40.918555" lon="14.176575"><ele>114.0</ele><time>2026-05-02T14:29:03.304Z</time></trkpt><trkpt lat="40.9185583" lon="14.1767017"><ele>114.0</ele><time>2026-05-02T14:29:04.308Z</time></trkpt><trkpt lat="40.918565" lon="14.1768317"><ele>114.0</ele><time>2026-05-02T14:29:05.304Z</time></trkpt><trkpt lat="40.9185717" lon="14.176965"><ele>114.0</ele><time>2026-05-02T14:29:06.304Z</time></trkpt><trkpt lat="40.918575" lon="14.1770983"><ele>114.0</ele><time>2026-05-02T14:29:07.304Z</time></trkpt><trkpt lat="40.9185767" lon="14.177225"><ele>114.0</ele><time>2026-05-02T14:29:08.304Z</time></trkpt><trkpt lat="40.9185783" lon="14.17735"><ele>114.0</ele><time>2026-05-02T14:29:09.303Z</time></trkpt><trkpt lat="40.9185817" lon="14.177475"><ele>113.80000000000001</ele><time>2026-05-02T14:29:10.305Z</time></trkpt><trkpt lat="40.91858" lon="14.1775983"><ele>113.60000000000001</ele><time>2026-05-02T14:29:11.305Z</time></trkpt><trkpt lat="40.9185767" lon="14.17772"><ele>113.4</ele><time>2026-05-02T14:29:12.304Z</time></trkpt><trkpt lat="40.9185717" lon="14.1778483"><ele>113.2</ele><time>2026-05-02T14:29:13.305Z</time></trkpt><trkpt lat="40.9185667" lon="14.177975"><ele>113.0</ele><time>2026-05-02T14:29:14.305Z</time></trkpt><trkpt lat="40.9185583" lon="14.1781017"><ele>113.0</ele><time>2026-05-02T14:29:15.305Z</time></trkpt><trkpt lat="40.918545" lon="14.17823"><ele>113.00000000000001</ele><time>2026-05-02T14:29:16.305Z</time></trkpt><trkpt lat="40.9185317" lon="14.17836"><ele>113.00000000000001</ele><time>2026-05-02T14:29:17.306Z</time></trkpt><trkpt lat="40.9185183" lon="14.178485"><ele>113.0</ele><time>2026-05-02T14:29:18.305Z</time></trkpt><trkpt lat="40.9185" lon="14.1786133"><ele>113.0</ele><time>2026-05-02T14:29:19.306Z</time></trkpt><trkpt lat="40.9184783" lon="14.1787417"><ele>113.0</ele><time>2026-05-02T14:29:20.305Z</time></trkpt><trkpt lat="40.918455" lon="14.17887"><ele>113.00000000000001</ele><time>2026-05-02T14:29:21.304Z</time></trkpt><trkpt lat="40.9184333" lon="14.178995"><ele>113.00000000000001</ele><time>2026-05-02T14:29:22.304Z</time></trkpt><trkpt lat="40.91841" lon="14.17912"><ele>113.0</ele><time>2026-05-02T14:29:23.303Z</time></trkpt><trkpt lat="40.918385" lon="14.1792417"><ele>113.0</ele><time>2026-05-02T14:29:24.303Z</time></trkpt><trkpt lat="40.9183567" lon="14.179365"><ele>113.4</ele><time>2026-05-02T14:29:25.303Z</time></trkpt><trkpt lat="40.9183317" lon="14.1794883"><ele>113.80000000000001</ele><time>2026-05-02T14:29:26.303Z</time></trkpt><trkpt lat="40.9183033" lon="14.1796117"><ele>114.2</ele><time>2026-05-02T14:29:27.304Z</time></trkpt><trkpt lat="40.9182767" lon="14.17974"><ele>114.6</ele><time>2026-05-02T14:29:28.305Z</time></trkpt><trkpt lat="40.9182517" lon="14.179865"><ele>115.0</ele><time>2026-05-02T14:29:29.303Z</time></trkpt><trkpt lat="40.9182283" lon="14.17999"><ele>115.0</ele><time>2026-05-02T14:29:30.304Z</time></trkpt><trkpt lat="40.9182067" lon="14.1801183"><ele>115.0</ele><time>2026-05-02T14:29:31.303Z</time></trkpt><trkpt lat="40.9181883" lon="14.1802467"><ele>115.0</ele><time>2026-05-02T14:29:32.304Z</time></trkpt><trkpt lat="40.9181717" lon="14.1803733"><ele>115.0</ele><time>2026-05-02T14:29:33.303Z</time></trkpt><trkpt lat="40.9181633" lon="14.1805"><ele>115.0</ele><time>2026-05-02T14:29:34.303Z</time></trkpt><trkpt lat="40.9181583" lon="14.1806283"><ele>115.0</ele><time>2026-05-02T14:29:35.303Z</time></trkpt><trkpt lat="40.91815" lon="14.1807567"><ele>115.0</ele><time>2026-05-02T14:29:36.304Z</time></trkpt><trkpt lat="40.91815" lon="14.1808817"><ele>115.0</ele><time>2026-05-02T14:29:37.303Z</time></trkpt><trkpt lat="40.918155" lon="14.1810083"><ele>115.0</ele><time>2026-05-02T14:29:38.302Z</time></trkpt><trkpt lat="40.9181633" lon="14.1811317"><ele>115.0</ele><time>2026-05-02T14:29:39.303Z</time></trkpt><trkpt lat="40.9181733" lon="14.1812583"><ele>115.0</ele><time>2026-05-02T14:29:40.304Z</time></trkpt><trkpt lat="40.918185" lon="14.1813867"><ele>115.0</ele><time>2026-05-02T14:29:41.303Z</time></trkpt><trkpt lat="40.9181917" lon="14.181515"><ele>115.0</ele><time>2026-05-02T14:29:42.304Z</time></trkpt><trkpt lat="40.9182017" lon="14.181645"><ele>115.0</ele><time>2026-05-02T14:29:43.304Z</time></trkpt><trkpt lat="40.9182183" lon="14.181775"><ele>115.0</ele><time>2026-05-02T14:29:44.304Z</time></trkpt><trkpt lat="40.9182333" lon="14.181905"><ele>115.0</ele><time>2026-05-02T14:29:45.303Z</time></trkpt><trkpt lat="40.9182467" lon="14.18203"><ele>115.0</ele><time>2026-05-02T14:29:46.304Z</time></trkpt><trkpt lat="40.91826" lon="14.18216"><ele>115.0</ele><time>2026-05-02T14:29:47.305Z</time></trkpt><trkpt lat="40.918275" lon="14.182285"><ele>115.0</ele><time>2026-05-02T14:29:48.303Z</time></trkpt><trkpt lat="40.9182883" lon="14.1824133"><ele>115.0</ele><time>2026-05-02T14:29:49.304Z</time></trkpt><trkpt lat="40.9183033" lon="14.1825417"><ele>115.0</ele><time>2026-05-02T14:29:50.303Z</time></trkpt><trkpt lat="40.9183183" lon="14.1826733"><ele>115.0</ele><time>2026-05-02T14:29:51.303Z</time></trkpt><trkpt lat="40.918325" lon="14.1828033"><ele>115.0</ele><time>2026-05-02T14:29:52.303Z</time></trkpt><trkpt lat="40.9183317" lon="14.1829317"><ele>115.0</ele><time>2026-05-02T14:29:53.303Z</time></trkpt><trkpt lat="40.9183417" lon="14.1830617"><ele>115.0</ele><time>2026-05-02T14:29:54.303Z</time></trkpt><trkpt lat="40.918355" lon="14.1831967"><ele>115.0</ele><time>2026-05-02T14:29:55.303Z</time></trkpt><trkpt lat="40.9183717" lon="14.18333"><ele>115.0</ele><time>2026-05-02T14:29:56.304Z</time></trkpt><trkpt lat="40.9183867" lon="14.1834633"><ele>115.0</ele><time>2026-05-02T14:29:57.303Z</time></trkpt><trkpt lat="40.918395" lon="14.1835917"><ele>115.0</ele><time>2026-05-02T14:29:58.303Z</time></trkpt><trkpt lat="40.9183983" lon="14.1837183"><ele>115.0</ele><time>2026-05-02T14:29:59.304Z</time></trkpt><trkpt lat="40.91839" lon="14.1838433"><ele>115.0</ele><time>2026-05-02T14:30:00.303Z</time></trkpt><trkpt lat="40.9183817" lon="14.18397"><ele>115.0</ele><time>2026-05-02T14:30:01.303Z</time></trkpt><trkpt lat="40.918375" lon="14.1840967"><ele>115.0</ele><time>2026-05-02T14:30:02.303Z</time></trkpt><trkpt lat="40.9183683" lon="14.18422"><ele>115.0</ele><time>2026-05-02T14:30:03.303Z</time></trkpt><trkpt lat="40.9183633" lon="14.184345"><ele>115.0</ele><time>2026-05-02T14:30:04.303Z</time></trkpt><trkpt lat="40.9183617" lon="14.18447"><ele>115.00000000000001</ele><time>2026-05-02T14:30:05.304Z</time></trkpt><trkpt lat="40.9183583" lon="14.1845883"><ele>115.0</ele><time>2026-05-02T14:30:06.303Z</time></trkpt><trkpt lat="40.9183583" lon="14.184705"><ele>115.0</ele><time>2026-05-02T14:30:07.303Z</time></trkpt><trkpt lat="40.91836" lon="14.184815"><ele>115.0</ele><time>2026-05-02T14:30:08.303Z</time></trkpt><trkpt lat="40.9183567" lon="14.1849233"><ele>115.00000000000001</ele><time>2026-05-02T14:30:09.303Z</time></trkpt><trkpt lat="40.9183483" lon="14.185035"><ele>115.0</ele><time>2026-05-02T14:30:10.304Z</time></trkpt><trkpt lat="40.9183433" lon="14.18515"><ele>115.00000000000001</ele><time>2026-05-02T14:30:11.303Z</time></trkpt><trkpt lat="40.918335" lon="14.1852683"><ele>115.0</ele><time>2026-05-02T14:30:12.303Z</time></trkpt><trkpt lat="40.918325" lon="14.1853867"><ele>115.0</ele><time>2026-05-02T14:30:13.304Z</time></trkpt><trkpt lat="40.91832" lon="14.185505"><ele>115.0</ele><time>2026-05-02T14:30:14.303Z</time></trkpt><trkpt lat="40.9183167" lon="14.1856167"><ele>115.00000000000001</ele><time>2026-05-02T14:30:15.303Z</time></trkpt><trkpt lat="40.9183133" lon="14.18573"><ele>115.0</ele><time>2026-05-02T14:30:16.305Z</time></trkpt><trkpt lat="40.91831" lon="14.1858417"><ele>115.00000000000001</ele><time>2026-05-02T14:30:17.304Z</time></trkpt><trkpt lat="40.9183033" lon="14.1859567"><ele>115.0</ele><time>2026-05-02T14:30:18.303Z</time></trkpt><trkpt lat="40.9182883" lon="14.1860683"><ele>115.0</ele><time>2026-05-02T14:30:19.304Z</time></trkpt><trkpt lat="40.918275" lon="14.18618"><ele>115.0</ele><time>2026-05-02T14:30:20.304Z</time></trkpt><trkpt lat="40.918255" lon="14.1862983"><ele>115.00000000000001</ele><time>2026-05-02T14:30:21.303Z</time></trkpt><trkpt lat="40.9182283" lon="14.1864117"><ele>115.0</ele><time>2026-05-02T14:30:22.304Z</time></trkpt><trkpt lat="40.9181983" lon="14.1865217"><ele>115.00000000000001</ele><time>2026-05-02T14:30:23.303Z</time></trkpt><trkpt lat="40.9181667" lon="14.1866267"><ele>115.0</ele><time>2026-05-02T14:30:24.304Z</time></trkpt><trkpt lat="40.9181367" lon="14.1867267"><ele>115.0</ele><time>2026-05-02T14:30:25.303Z</time></trkpt><trkpt lat="40.918105" lon="14.186825"><ele>115.0</ele><time>2026-05-02T14:30:26.305Z</time></trkpt><trkpt lat="40.918075" lon="14.1869267"><ele>115.00000000000001</ele><time>2026-05-02T14:30:27.303Z</time></trkpt><trkpt lat="40.9180433" lon="14.18703"><ele>115.0</ele><time>2026-05-02T14:30:28.303Z</time></trkpt><trkpt lat="40.91801" lon="14.1871233"><ele>115.00000000000001</ele><time>2026-05-02T14:30:29.304Z</time></trkpt><trkpt lat="40.9179783" lon="14.1872233"><ele>115.0</ele><time>2026-05-02T14:30:30.305Z</time></trkpt><trkpt lat="40.9179483" lon="14.1873267"><ele>115.0</ele><time>2026-05-02T14:30:31.304Z</time></trkpt><trkpt lat="40.917915" lon="14.18743"><ele>115.0</ele><time>2026-05-02T14:30:32.303Z</time></trkpt><trkpt lat="40.9178817" lon="14.1875367"><ele>115.00000000000001</ele><time>2026-05-02T14:30:33.303Z</time></trkpt><trkpt lat="40.917845" lon="14.187645"><ele>115.0</ele><time>2026-05-02T14:30:34.304Z</time></trkpt><trkpt lat="40.91781" lon="14.1877517"><ele>115.0</ele><time>2026-05-02T14:30:35.304Z</time></trkpt><trkpt lat="40.9177717" lon="14.18786"><ele>115.0</ele><time>2026-05-02T14:30:36.303Z</time></trkpt><trkpt lat="40.9177367" lon="14.18797"><ele>115.0</ele><time>2026-05-02T14:30:37.304Z</time></trkpt><trkpt lat="40.9177033" lon="14.1880833"><ele>115.0</ele><time>2026-05-02T14:30:38.303Z</time></trkpt><trkpt lat="40.9176717" lon="14.188195"><ele>115.0</ele><time>2026-05-02T14:30:39.303Z</time></trkpt><trkpt lat="40.91764" lon="14.18831"><ele>115.0</ele><time>2026-05-02T14:30:40.304Z</time></trkpt><trkpt lat="40.9176083" lon="14.188425"><ele>115.0</ele><time>2026-05-02T14:30:41.303Z</time></trkpt><trkpt lat="40.917575" lon="14.18854"><ele>115.0</ele><time>2026-05-02T14:30:42.303Z</time></trkpt><trkpt lat="40.9175467" lon="14.1886567"><ele>115.0</ele><time>2026-05-02T14:30:43.305Z</time></trkpt><trkpt lat="40.9175217" lon="14.1887817"><ele>115.0</ele><time>2026-05-02T14:30:44.304Z</time></trkpt><trkpt lat="40.9174983" lon="14.1889083"><ele>115.2</ele><time>2026-05-02T14:30:45.303Z</time></trkpt><trkpt lat="40.917475" lon="14.189035"><ele>115.4</ele><time>2026-05-02T14:30:46.303Z</time></trkpt><trkpt lat="40.9174517" lon="14.1891583"><ele>115.6</ele><time>2026-05-02T14:30:47.304Z</time></trkpt><trkpt lat="40.91743" lon="14.18928"><ele>115.8</ele><time>2026-05-02T14:30:48.302Z</time></trkpt><trkpt lat="40.9174117" lon="14.1894033"><ele>116.0</ele><time>2026-05-02T14:30:49.305Z</time></trkpt><trkpt lat="40.9173917" lon="14.1895233"><ele>116.0</ele><time>2026-05-02T14:30:50.303Z</time></trkpt><trkpt lat="40.9173733" lon="14.1896467"><ele>116.0</ele><time>2026-05-02T14:30:51.303Z</time></trkpt><trkpt lat="40.9173567" lon="14.1897717"><ele>116.0</ele><time>2026-05-02T14:30:52.304Z</time></trkpt><trkpt lat="40.9173367" lon="14.1898917"><ele>116.0</ele><time>2026-05-02T14:30:53.304Z</time></trkpt><trkpt lat="40.91732" lon="14.190015"><ele>116.0</ele><time>2026-05-02T14:30:54.303Z</time></trkpt><trkpt lat="40.9173033" lon="14.19014"><ele>115.8</ele><time>2026-05-02T14:30:55.303Z</time></trkpt><trkpt lat="40.9172883" lon="14.1902667"><ele>115.6</ele><time>2026-05-02T14:30:56.303Z</time></trkpt><trkpt lat="40.91727" lon="14.1903917"><ele>115.4</ele><time>2026-05-02T14:30:57.303Z</time></trkpt><trkpt lat="40.9172517" lon="14.1905183"><ele>115.2</ele><time>2026-05-02T14:30:58.302Z</time></trkpt><trkpt lat="40.9172383" lon="14.1906467"><ele>115.0</ele><time>2026-05-02T14:30:59.302Z</time></trkpt><trkpt lat="40.9172267" lon="14.1907733"><ele>115.0</ele><time>2026-05-02T14:31:00.303Z</time></trkpt><trkpt lat="40.9172167" lon="14.1908983"><ele>115.0</ele><time>2026-05-02T14:31:01.303Z</time></trkpt><trkpt lat="40.917205" lon="14.191025"><ele>115.0</ele><time>2026-05-02T14:31:02.303Z</time></trkpt><trkpt lat="40.9171933" lon="14.1911517"><ele>115.0</ele><time>2026-05-02T14:31:03.302Z</time></trkpt><trkpt lat="40.9171817" lon="14.1912817"><ele>115.0</ele><time>2026-05-02T14:31:04.303Z</time></trkpt><trkpt lat="40.91717" lon="14.1914117"><ele>115.0</ele><time>2026-05-02T14:31:05.302Z</time></trkpt><trkpt lat="40.91716" lon="14.1915417"><ele>115.0</ele><time>2026-05-02T14:31:06.303Z</time></trkpt><trkpt lat="40.9171533" lon="14.19167"><ele>115.0</ele><time>2026-05-02T14:31:07.302Z</time></trkpt><trkpt lat="40.9171483" lon="14.1918017"><ele>115.0</ele><time>2026-05-02T14:31:08.303Z</time></trkpt><trkpt lat="40.917145" lon="14.1919367"><ele>115.0</ele><time>2026-05-02T14:31:09.302Z</time></trkpt><trkpt lat="40.917145" lon="14.1920717"><ele>115.0</ele><time>2026-05-02T14:31:10.305Z</time></trkpt><trkpt lat="40.917145" lon="14.1922083"><ele>115.0</ele><time>2026-05-02T14:31:11.303Z</time></trkpt><trkpt lat="40.9171483" lon="14.192345"><ele>115.0</ele><time>2026-05-02T14:31:12.304Z</time></trkpt><trkpt lat="40.9171533" lon="14.192485"><ele>115.0</ele><time>2026-05-02T14:31:13.303Z</time></trkpt><trkpt lat="40.9171567" lon="14.192625"><ele>115.0</ele><time>2026-05-02T14:31:14.301Z</time></trkpt><trkpt lat="40.91716" lon="14.1927633"><ele>115.2</ele><time>2026-05-02T14:31:15.302Z</time></trkpt><trkpt lat="40.9171633" lon="14.1929017"><ele>115.4</ele><time>2026-05-02T14:31:16.302Z</time></trkpt><trkpt lat="40.91717" lon="14.1930417"><ele>115.6</ele><time>2026-05-02T14:31:17.303Z</time></trkpt><trkpt lat="40.91717" lon="14.19318"><ele>115.8</ele><time>2026-05-02T14:31:18.304Z</time></trkpt><trkpt lat="40.9171767" lon="14.19332"><ele>116.0</ele><time>2026-05-02T14:31:19.305Z</time></trkpt><trkpt lat="40.9171833" lon="14.1934567"><ele>115.6</ele><time>2026-05-02T14:31:20.302Z</time></trkpt><trkpt lat="40.9171883" lon="14.1935933"><ele>115.19999999999999</ele><time>2026-05-02T14:31:21.302Z</time></trkpt><trkpt lat="40.9171917" lon="14.193725"><ele>114.80000000000001</ele><time>2026-05-02T14:31:22.303Z</time></trkpt><trkpt lat="40.9171967" lon="14.193855"><ele>114.4</ele><time>2026-05-02T14:31:23.303Z</time></trkpt><trkpt lat="40.917205" lon="14.193985"><ele>114.0</ele><time>2026-05-02T14:31:24.303Z</time></trkpt><trkpt lat="40.9172117" lon="14.1941133"><ele>114.0</ele><time>2026-05-02T14:31:25.302Z</time></trkpt><trkpt lat="40.917215" lon="14.19424"><ele>114.0</ele><time>2026-05-02T14:31:26.302Z</time></trkpt><trkpt lat="40.9172183" lon="14.194365"><ele>114.0</ele><time>2026-05-02T14:31:27.303Z</time></trkpt><trkpt lat="40.9172217" lon="14.1944833"><ele>114.0</ele><time>2026-05-02T14:31:28.302Z</time></trkpt><trkpt lat="40.9172267" lon="14.1946033"><ele>114.0</ele><time>2026-05-02T14:31:29.304Z</time></trkpt><trkpt lat="40.917235" lon="14.19472"><ele>114.4</ele><time>2026-05-02T14:31:30.302Z</time></trkpt><trkpt lat="40.9172417" lon="14.1948417"><ele>114.80000000000001</ele><time>2026-05-02T14:31:31.304Z</time></trkpt><trkpt lat="40.9172533" lon="14.19496"><ele>115.19999999999999</ele><time>2026-05-02T14:31:32.303Z</time></trkpt><trkpt lat="40.9172533" lon="14.19508"><ele>115.6</ele><time>2026-05-02T14:31:33.303Z</time></trkpt><trkpt lat="40.917255" lon="14.1952033"><ele>116.0</ele><time>2026-05-02T14:31:34.302Z</time></trkpt><trkpt lat="40.9172567" lon="14.19532"><ele>115.99999999999999</ele><time>2026-05-02T14:31:35.303Z</time></trkpt><trkpt lat="40.9172583" lon="14.195435"><ele>116.0</ele><time>2026-05-02T14:31:36.301Z</time></trkpt><trkpt lat="40.917255" lon="14.19555"><ele>116.0</ele><time>2026-05-02T14:31:37.305Z</time></trkpt><trkpt lat="40.9172467" lon="14.19566"><ele>116.0</ele><time>2026-05-02T14:31:38.305Z</time></trkpt><trkpt lat="40.9172317" lon="14.195765"><ele>115.99999999999999</ele><time>2026-05-02T14:31:39.302Z</time></trkpt><trkpt lat="40.9172133" lon="14.19586"><ele>116.0</ele><time>2026-05-02T14:31:40.302Z</time></trkpt><trkpt lat="40.91719" lon="14.1959517"><ele>116.14285714285717</ele><time>2026-05-02T14:31:41.303Z</time></trkpt><trkpt lat="40.9171583" lon="14.1960417"><ele>116.28571428571429</ele><time>2026-05-02T14:31:42.302Z</time></trkpt><trkpt lat="40.9171183" lon="14.196125"><ele>116.42857142857144</ele><time>2026-05-02T14:31:43.304Z</time></trkpt><trkpt lat="40.9170817" lon="14.1962083"><ele>116.57142857142858</ele><time>2026-05-02T14:31:44.304Z</time></trkpt><trkpt lat="40.9170617" lon="14.19629"><ele>116.71428571428572</ele><time>2026-05-02T14:31:45.303Z</time></trkpt><trkpt lat="40.9170583" lon="14.19638"><ele>116.85714285714286</ele><time>2026-05-02T14:31:46.302Z</time></trkpt><trkpt lat="40.91707" lon="14.1964783"><ele>117.0</ele><time>2026-05-02T14:31:47.302Z</time></trkpt><trkpt lat="40.9170983" lon="14.1965833"><ele>116.6</ele><time>2026-05-02T14:31:48.303Z</time></trkpt><trkpt lat="40.91714" lon="14.1966933"><ele>116.19999999999999</ele><time>2026-05-02T14:31:49.303Z</time></trkpt><trkpt lat="40.9171867" lon="14.1968117"><ele>115.8</ele><time>2026-05-02T14:31:50.302Z</time></trkpt><trkpt lat="40.9172283" lon="14.196935"><ele>115.4</ele><time>2026-05-02T14:31:51.302Z</time></trkpt><trkpt lat="40.9172517" lon="14.1970583"><ele>115.0</ele><time>2026-05-02T14:31:52.304Z</time></trkpt><trkpt lat="40.91726" lon="14.1971833"><ele>115.0</ele><time>2026-05-02T14:31:53.303Z</time></trkpt><trkpt lat="40.9172617" lon="14.1973083"><ele>115.0</ele><time>2026-05-02T14:31:54.304Z</time></trkpt><trkpt lat="40.91726" lon="14.1974333"><ele>115.0</ele><time>2026-05-02T14:31:55.303Z</time></trkpt><trkpt lat="40.9172533" lon="14.1975533"><ele>115.0</ele><time>2026-05-02T14:31:56.304Z</time></trkpt><trkpt lat="40.9172467" lon="14.1976717"><ele>115.0</ele><time>2026-05-02T14:31:57.301Z</time></trkpt><trkpt lat="40.9172333" lon="14.1977867"><ele>115.16666666666667</ele><time>2026-05-02T14:31:58.303Z</time></trkpt><trkpt lat="40.9172233" lon="14.1979033"><ele>115.33333333333334</ele><time>2026-05-02T14:31:59.303Z</time></trkpt><trkpt lat="40.917215" lon="14.1980233"><ele>115.5</ele><time>2026-05-02T14:32:00.302Z</time></trkpt><trkpt lat="40.9172067" lon="14.1981417"><ele>115.66666666666666</ele><time>2026-05-02T14:32:01.303Z</time></trkpt><trkpt lat="40.9172017" lon="14.198255"><ele>115.83333333333333</ele><time>2026-05-02T14:32:02.302Z</time></trkpt><trkpt lat="40.9171917" lon="14.1983733"><ele>116.0</ele><time>2026-05-02T14:32:03.302Z</time></trkpt><trkpt lat="40.9171817" lon="14.19849"><ele>115.66666666666666</ele><time>2026-05-02T14:32:04.302Z</time></trkpt><trkpt lat="40.9171733" lon="14.198605"><ele>115.33333333333333</ele><time>2026-05-02T14:32:05.303Z</time></trkpt><trkpt lat="40.9171583" lon="14.1987133"><ele>115.0</ele><time>2026-05-02T14:32:06.302Z</time></trkpt><trkpt lat="40.91714" lon="14.1988183"><ele>114.66666666666666</ele><time>2026-05-02T14:32:07.303Z</time></trkpt><trkpt lat="40.9171167" lon="14.1989233"><ele>114.33333333333333</ele><time>2026-05-02T14:32:08.302Z</time></trkpt><trkpt lat="40.91709" lon="14.1990333"><ele>114.0</ele><time>2026-05-02T14:32:09.303Z</time></trkpt><trkpt lat="40.9170683" lon="14.19914"><ele>113.83333333333333</ele><time>2026-05-02T14:32:10.303Z</time></trkpt><trkpt lat="40.9170533" lon="14.19925"><ele>113.66666666666666</ele><time>2026-05-02T14:32:11.305Z</time></trkpt><trkpt lat="40.9170467" lon="14.1993617"><ele>113.5</ele><time>2026-05-02T14:32:12.304Z</time></trkpt><trkpt lat="40.9170467" lon="14.199475"><ele>113.33333333333333</ele><time>2026-05-02T14:32:13.302Z</time></trkpt><trkpt lat="40.9170533" lon="14.1995867"><ele>113.16666666666666</ele><time>2026-05-02T14:32:14.303Z</time></trkpt><trkpt lat="40.9170567" lon="14.1997017"><ele>113.0</ele><time>2026-05-02T14:32:15.304Z</time></trkpt><trkpt lat="40.9170583" lon="14.1998217"><ele>112.66666666666666</ele><time>2026-05-02T14:32:16.303Z</time></trkpt><trkpt lat="40.9170567" lon="14.1999383"><ele>112.33333333333333</ele><time>2026-05-02T14:32:17.304Z</time></trkpt><trkpt lat="40.917055" lon="14.2000533"><ele>112.0</ele><time>2026-05-02T14:32:18.302Z</time></trkpt><trkpt lat="40.91705" lon="14.20017"><ele>111.66666666666666</ele><time>2026-05-02T14:32:19.303Z</time></trkpt><trkpt lat="40.9170433" lon="14.2002883"><ele>111.33333333333333</ele><time>2026-05-02T14:32:20.305Z</time></trkpt><trkpt lat="40.9170383" lon="14.2004033"><ele>111.0</ele><time>2026-05-02T14:32:21.303Z</time></trkpt><trkpt lat="40.91703" lon="14.2005217"><ele>111.0</ele><time>2026-05-02T14:32:22.302Z</time></trkpt><trkpt lat="40.9170217" lon="14.2006383"><ele>111.0</ele><time>2026-05-02T14:32:23.303Z</time></trkpt><trkpt lat="40.9170083" lon="14.2007567"><ele>111.0</ele><time>2026-05-02T14:32:24.301Z</time></trkpt><trkpt lat="40.916995" lon="14.2008767"><ele>111.0</ele><time>2026-05-02T14:32:25.303Z</time></trkpt><trkpt lat="40.916985" lon="14.200995"><ele>111.0</ele><time>2026-05-02T14:32:26.303Z</time></trkpt><trkpt lat="40.9169767" lon="14.2011133"><ele>111.0</ele><time>2026-05-02T14:32:27.302Z</time></trkpt><trkpt lat="40.91697" lon="14.20123"><ele>111.0</ele><time>2026-05-02T14:32:28.303Z</time></trkpt><trkpt lat="40.91696" lon="14.2013483"><ele>111.0</ele><time>2026-05-02T14:32:29.305Z</time></trkpt><trkpt lat="40.916955" lon="14.2014667"><ele>111.0</ele><time>2026-05-02T14:32:30.303Z</time></trkpt><trkpt lat="40.9169483" lon="14.2015867"><ele>111.0</ele><time>2026-05-02T14:32:31.303Z</time></trkpt><trkpt lat="40.9169433" lon="14.2017033"><ele>111.0</ele><time>2026-05-02T14:32:32.304Z</time></trkpt><trkpt lat="40.9169367" lon="14.20182"><ele>111.0</ele><time>2026-05-02T14:32:33.302Z</time></trkpt><trkpt lat="40.91693" lon="14.20194"><ele>111.0</ele><time>2026-05-02T14:32:34.303Z</time></trkpt><trkpt lat="40.916925" lon="14.2020583"><ele>111.0</ele><time>2026-05-02T14:32:35.303Z</time></trkpt><trkpt lat="40.9169233" lon="14.202175"><ele>111.0</ele><time>2026-05-02T14:32:36.303Z</time></trkpt><trkpt lat="40.9169167" lon="14.2022917"><ele>111.0</ele><time>2026-05-02T14:32:37.303Z</time></trkpt><trkpt lat="40.9169067" lon="14.202405"><ele>111.0</ele><time>2026-05-02T14:32:38.304Z</time></trkpt><trkpt lat="40.9168983" lon="14.2025183"><ele>111.0</ele><time>2026-05-02T14:32:39.302Z</time></trkpt><trkpt lat="40.9168917" lon="14.2026317"><ele>111.0</ele><time>2026-05-02T14:32:40.304Z</time></trkpt><trkpt lat="40.9168867" lon="14.2027533"><ele>111.0</ele><time>2026-05-02T14:32:41.303Z</time></trkpt><trkpt lat="40.9168833" lon="14.2028683"><ele>111.0</ele><time>2026-05-02T14:32:42.304Z</time></trkpt><trkpt lat="40.9168717" lon="14.2029817"><ele>111.0</ele><time>2026-05-02T14:32:43.304Z</time></trkpt><trkpt lat="40.91686" lon="14.2031"><ele>111.0</ele><time>2026-05-02T14:32:44.302Z</time></trkpt><trkpt lat="40.9168467" lon="14.2032183"><ele>111.16666666666667</ele><time>2026-05-02T14:32:45.303Z</time></trkpt><trkpt lat="40.916835" lon="14.20333"><ele>111.33333333333334</ele><time>2026-05-02T14:32:46.302Z</time></trkpt><trkpt lat="40.9168267" lon="14.203445"><ele>111.5</ele><time>2026-05-02T14:32:47.303Z</time></trkpt><trkpt lat="40.9168167" lon="14.2035617"><ele>111.66666666666667</ele><time>2026-05-02T14:32:48.302Z</time></trkpt><trkpt lat="40.9168067" lon="14.20368"><ele>111.83333333333334</ele><time>2026-05-02T14:32:49.304Z</time></trkpt><trkpt lat="40.9168" lon="14.2038"><ele>112.0</ele><time>2026-05-02T14:32:50.306Z</time></trkpt><trkpt lat="40.9167917" lon="14.2039217"><ele>112.00000000000001</ele><time>2026-05-02T14:32:51.302Z</time></trkpt><trkpt lat="40.9167817" lon="14.2040417"><ele>112.0</ele><time>2026-05-02T14:32:52.303Z</time></trkpt><trkpt lat="40.9167733" lon="14.2041583"><ele>112.0</ele><time>2026-05-02T14:32:53.303Z</time></trkpt><trkpt lat="40.9167633" lon="14.2042733"><ele>112.0</ele><time>2026-05-02T14:32:54.302Z</time></trkpt><trkpt lat="40.9167567" lon="14.204395"><ele>112.00000000000001</ele><time>2026-05-02T14:32:55.303Z</time></trkpt><trkpt lat="40.9167533" lon="14.2045133"><ele>112.0</ele><time>2026-05-02T14:32:56.303Z</time></trkpt><trkpt lat="40.9167483" lon="14.2046317"><ele>112.0</ele><time>2026-05-02T14:32:57.304Z</time></trkpt><trkpt lat="40.9167433" lon="14.2047583"><ele>111.99999999999999</ele><time>2026-05-02T14:32:58.303Z</time></trkpt><trkpt lat="40.916735" lon="14.2048833"><ele>111.99999999999999</ele><time>2026-05-02T14:32:59.303Z</time></trkpt><trkpt lat="40.9167233" lon="14.2050033"><ele>112.0</ele><time>2026-05-02T14:33:00.304Z</time></trkpt><trkpt lat="40.916715" lon="14.2051233"><ele>112.0</ele><time>2026-05-02T14:33:01.303Z</time></trkpt><trkpt lat="40.916705" lon="14.2052367"><ele>112.16666666666667</ele><time>2026-05-02T14:33:02.303Z</time></trkpt><trkpt lat="40.916685" lon="14.2053433"><ele>112.33333333333334</ele><time>2026-05-02T14:33:03.303Z</time></trkpt><trkpt lat="40.9166583" lon="14.2054467"><ele>112.5</ele><time>2026-05-02T14:33:04.304Z</time></trkpt><trkpt lat="40.9166217" lon="14.2055467"><ele>112.66666666666666</ele><time>2026-05-02T14:33:05.304Z</time></trkpt><trkpt lat="40.9165767" lon="14.2056417"><ele>112.83333333333333</ele><time>2026-05-02T14:33:06.302Z</time></trkpt><trkpt lat="40.9165383" lon="14.2057483"><ele>113.0</ele><time>2026-05-02T14:33:07.302Z</time></trkpt><trkpt lat="40.916515" lon="14.2058617"><ele>112.99999999999999</ele><time>2026-05-02T14:33:08.302Z</time></trkpt><trkpt lat="40.9165033" lon="14.2059717"><ele>113.0</ele><time>2026-05-02T14:33:09.302Z</time></trkpt><trkpt lat="40.9165067" lon="14.2060833"><ele>113.0</ele><time>2026-05-02T14:33:10.304Z</time></trkpt><trkpt lat="40.9165367" lon="14.2061967"><ele>113.0</ele><time>2026-05-02T14:33:11.303Z</time></trkpt><trkpt lat="40.9165583" lon="14.206315"><ele>112.99999999999999</ele><time>2026-05-02T14:33:12.303Z</time></trkpt><trkpt lat="40.9165667" lon="14.206435"><ele>113.0</ele><time>2026-05-02T14:33:13.302Z</time></trkpt><trkpt lat="40.9165683" lon="14.2065633"><ele>113.2</ele><time>2026-05-02T14:33:14.304Z</time></trkpt><trkpt lat="40.9165583" lon="14.2066883"><ele>113.4</ele><time>2026-05-02T14:33:15.303Z</time></trkpt><trkpt lat="40.9165383" lon="14.206815"><ele>113.60000000000001</ele><time>2026-05-02T14:33:16.303Z</time></trkpt><trkpt lat="40.91652" lon="14.2069533"><ele>113.80000000000001</ele><time>2026-05-02T14:33:17.303Z</time></trkpt><trkpt lat="40.916505" lon="14.207095"><ele>114.0</ele><time>2026-05-02T14:33:18.305Z</time></trkpt><trkpt lat="40.9164967" lon="14.2072483"><ele>113.75</ele><time>2026-05-02T14:33:19.303Z</time></trkpt><trkpt lat="40.91649" lon="14.207405"><ele>113.5</ele><time>2026-05-02T14:33:20.304Z</time></trkpt><trkpt lat="40.916485" lon="14.207565"><ele>113.25</ele><time>2026-05-02T14:33:21.303Z</time></trkpt><trkpt lat="40.9164767" lon="14.20772"><ele>113.0</ele><time>2026-05-02T14:33:22.302Z</time></trkpt><trkpt lat="40.9164817" lon="14.207885"><ele>113.0</ele><time>2026-05-02T14:33:23.303Z</time></trkpt><trkpt lat="40.9164833" lon="14.20805"><ele>113.0</ele><time>2026-05-02T14:33:24.303Z</time></trkpt><trkpt lat="40.91648" lon="14.2082167"><ele>113.0</ele><time>2026-05-02T14:33:25.303Z</time></trkpt><trkpt lat="40.9164783" lon="14.2083767"><ele>113.0</ele><time>2026-05-02T14:33:26.303Z</time></trkpt><trkpt lat="40.9164717" lon="14.2085333"><ele>112.5</ele><time>2026-05-02T14:33:27.303Z</time></trkpt><trkpt lat="40.91646" lon="14.2086933"><ele>112.0</ele><time>2026-05-02T14:33:28.305Z</time></trkpt><trkpt lat="40.9164517" lon="14.2088483"><ele>111.5</ele><time>2026-05-02T14:33:29.303Z</time></trkpt><trkpt lat="40.9164467" lon="14.209005"><ele>111.0</ele><time>2026-05-02T14:33:30.303Z</time></trkpt><trkpt lat="40.91644" lon="14.2091617"><ele>110.5</ele><time>2026-05-02T14:33:31.303Z</time></trkpt><trkpt lat="40.9164283" lon="14.209315"><ele>110.0</ele><time>2026-05-02T14:33:32.302Z</time></trkpt><trkpt lat="40.9164217" lon="14.2094667"><ele>109.5</ele><time>2026-05-02T14:33:33.303Z</time></trkpt><trkpt lat="40.916415" lon="14.2096217"><ele>109.0</ele><time>2026-05-02T14:33:34.302Z</time></trkpt><trkpt lat="40.9164083" lon="14.20977"><ele>109.4</ele><time>2026-05-02T14:33:35.303Z</time></trkpt><trkpt lat="40.9163967" lon="14.2099167"><ele>109.80000000000001</ele><time>2026-05-02T14:33:36.303Z</time></trkpt><trkpt lat="40.9163867" lon="14.2100583"><ele>110.19999999999999</ele><time>2026-05-02T14:33:37.303Z</time></trkpt><trkpt lat="40.9163767" lon="14.2102"><ele>110.6</ele><time>2026-05-02T14:33:38.303Z</time></trkpt><trkpt lat="40.9163683" lon="14.210345"><ele>111.0</ele><time>2026-05-02T14:33:39.303Z</time></trkpt><trkpt lat="40.91636" lon="14.21049"><ele>111.0</ele><time>2026-05-02T14:33:40.303Z</time></trkpt><trkpt lat="40.9163533" lon="14.2106333"><ele>111.0</ele><time>2026-05-02T14:33:41.303Z</time></trkpt><trkpt lat="40.916355" lon="14.2107767"><ele>111.0</ele><time>2026-05-02T14:33:42.303Z</time></trkpt><trkpt lat="40.9163517" lon="14.2109167"><ele>111.0</ele><time>2026-05-02T14:33:43.303Z</time></trkpt><trkpt lat="40.91635" lon="14.2110567"><ele>111.0</ele><time>2026-05-02T14:33:44.303Z</time></trkpt><trkpt lat="40.9163433" lon="14.2111967"><ele>111.0</ele><time>2026-05-02T14:33:45.303Z</time></trkpt><trkpt lat="40.9163317" lon="14.211335"><ele>111.0</ele><time>2026-05-02T14:33:46.302Z</time></trkpt><trkpt lat="40.916315" lon="14.2114683"><ele>111.0</ele><time>2026-05-02T14:33:47.303Z</time></trkpt><trkpt lat="40.916305" lon="14.2116067"><ele>111.0</ele><time>2026-05-02T14:33:48.303Z</time></trkpt><trkpt lat="40.9162967" lon="14.2117483"><ele>111.0</ele><time>2026-05-02T14:33:49.304Z</time></trkpt><trkpt lat="40.9162867" lon="14.2118883"><ele>111.19999999999999</ele><time>2026-05-02T14:33:50.303Z</time></trkpt><trkpt lat="40.9162767" lon="14.2120267"><ele>111.39999999999999</ele><time>2026-05-02T14:33:51.303Z</time></trkpt><trkpt lat="40.9162633" lon="14.2121667"><ele>111.6</ele><time>2026-05-02T14:33:52.302Z</time></trkpt><trkpt lat="40.91625" lon="14.2123083"><ele>111.8</ele><time>2026-05-02T14:33:53.304Z</time></trkpt><trkpt lat="40.9162367" lon="14.2124517"><ele>112.0</ele><time>2026-05-02T14:33:54.304Z</time></trkpt><trkpt lat="40.91622" lon="14.2125967"><ele>111.5</ele><time>2026-05-02T14:33:55.303Z</time></trkpt><trkpt lat="40.9162033" lon="14.2127483"><ele>111.0</ele><time>2026-05-02T14:33:56.303Z</time></trkpt><trkpt lat="40.9161833" lon="14.2128967"><ele>110.5</ele><time>2026-05-02T14:33:57.305Z</time></trkpt><trkpt lat="40.91616" lon="14.2130433"><ele>110.0</ele><time>2026-05-02T14:33:58.303Z</time></trkpt><trkpt lat="40.916135" lon="14.2131917"><ele>110.0</ele><time>2026-05-02T14:33:59.303Z</time></trkpt><trkpt lat="40.916105" lon="14.213335"><ele>110.0</ele><time>2026-05-02T14:34:00.303Z</time></trkpt><trkpt lat="40.9160733" lon="14.2134717"><ele>110.0</ele><time>2026-05-02T14:34:01.303Z</time></trkpt><trkpt lat="40.91604" lon="14.213605"><ele>110.0</ele><time>2026-05-02T14:34:02.303Z</time></trkpt><trkpt lat="40.9160067" lon="14.2137417"><ele>110.0</ele><time>2026-05-02T14:34:03.302Z</time></trkpt><trkpt lat="40.91596" lon="14.213865"><ele>110.0</ele><time>2026-05-02T14:34:04.303Z</time></trkpt><trkpt lat="40.9159133" lon="14.21399"><ele>110.0</ele><time>2026-05-02T14:34:05.303Z</time></trkpt><trkpt lat="40.9158633" lon="14.2141133"><ele>110.0</ele><time>2026-05-02T14:34:06.304Z</time></trkpt><trkpt lat="40.9158217" lon="14.214235"><ele>110.0</ele><time>2026-05-02T14:34:07.303Z</time></trkpt><trkpt lat="40.9157783" lon="14.2143567"><ele>110.0</ele><time>2026-05-02T14:34:08.303Z</time></trkpt><trkpt lat="40.91573" lon="14.2144733"><ele>110.0</ele><time>2026-05-02T14:34:09.303Z</time></trkpt><trkpt lat="40.9156767" lon="14.2145883"><ele>110.0</ele><time>2026-05-02T14:34:10.303Z</time></trkpt><trkpt lat="40.9156283" lon="14.2147067"><ele>110.0</ele><time>2026-05-02T14:34:11.303Z</time></trkpt><trkpt lat="40.9155817" lon="14.2148317"><ele>110.0</ele><time>2026-05-02T14:34:12.303Z</time></trkpt><trkpt lat="40.915535" lon="14.214955"><ele>110.0</ele><time>2026-05-02T14:34:13.303Z</time></trkpt><trkpt lat="40.9154867" lon="14.2150817"><ele>110.0</ele><time>2026-05-02T14:34:14.303Z</time></trkpt><trkpt lat="40.9154433" lon="14.2152067"><ele>110.0</ele><time>2026-05-02T14:34:15.303Z</time></trkpt><trkpt lat="40.915395" lon="14.2153283"><ele>110.0</ele><time>2026-05-02T14:34:16.303Z</time></trkpt><trkpt lat="40.9153517" lon="14.21545"><ele>110.0</ele><time>2026-05-02T14:34:17.303Z</time></trkpt><trkpt lat="40.915305" lon="14.2155617"><ele>110.0</ele><time>2026-05-02T14:34:18.305Z</time></trkpt><trkpt lat="40.9152567" lon="14.2156767"><ele>110.2</ele><time>2026-05-02T14:34:19.307Z</time></trkpt><trkpt lat="40.9152083" lon="14.2157983"><ele>110.4</ele><time>2026-05-02T14:34:20.303Z</time></trkpt><trkpt lat="40.91516" lon="14.215915"><ele>110.6</ele><time>2026-05-02T14:34:21.302Z</time></trkpt><trkpt lat="40.915115" lon="14.2160367"><ele>110.8</ele><time>2026-05-02T14:34:22.303Z</time></trkpt><trkpt lat="40.9150733" lon="14.2161533"><ele>111.0</ele><time>2026-05-02T14:34:23.303Z</time></trkpt><trkpt lat="40.9150267" lon="14.2162783"><ele>111.0</ele><time>2026-05-02T14:34:24.303Z</time></trkpt><trkpt lat="40.91498" lon="14.2163967"><ele>111.0</ele><time>2026-05-02T14:34:25.302Z</time></trkpt><trkpt lat="40.914935" lon="14.2165117"><ele>111.0</ele><time>2026-05-02T14:34:26.303Z</time></trkpt><trkpt lat="40.9148883" lon="14.2166283"><ele>111.0</ele><time>2026-05-02T14:34:27.303Z</time></trkpt><trkpt lat="40.9148433" lon="14.2167417"><ele>111.0</ele><time>2026-05-02T14:34:28.303Z</time></trkpt><trkpt lat="40.9147983" lon="14.216855"><ele>111.0</ele><time>2026-05-02T14:34:29.303Z</time></trkpt><trkpt lat="40.914755" lon="14.216965"><ele>111.0</ele><time>2026-05-02T14:34:30.303Z</time></trkpt><trkpt lat="40.9147117" lon="14.2170617"><ele>111.0</ele><time>2026-05-02T14:34:31.304Z</time></trkpt><trkpt lat="40.914655" lon="14.21714"><ele>111.0</ele><time>2026-05-02T14:34:32.303Z</time></trkpt><trkpt lat="40.9145983" lon="14.2171967"><ele>111.0</ele><time>2026-05-02T14:34:33.303Z</time></trkpt><trkpt lat="40.9145317" lon="14.2172333"><ele>111.0</ele><time>2026-05-02T14:34:34.309Z</time></trkpt><trkpt lat="40.914475" lon="14.2172733"><ele>110.57142857142857</ele><time>2026-05-02T14:34:35.304Z</time></trkpt><trkpt lat="40.9144233" lon="14.2173283"><ele>110.14285714285715</ele><time>2026-05-02T14:34:36.303Z</time></trkpt><trkpt lat="40.91438" lon="14.2173967"><ele>109.71428571428572</ele><time>2026-05-02T14:34:37.303Z</time></trkpt><trkpt lat="40.9143483" lon="14.217475"><ele>109.28571428571428</ele><time>2026-05-02T14:34:38.304Z</time></trkpt><trkpt lat="40.9143317" lon="14.2175683"><ele>108.85714285714286</ele><time>2026-05-02T14:34:39.304Z</time></trkpt><trkpt lat="40.91433" lon="14.217665"><ele>108.42857142857143</ele><time>2026-05-02T14:34:40.302Z</time></trkpt><trkpt lat="40.9143283" lon="14.2177717"><ele>108.0</ele><time>2026-05-02T14:34:41.306Z</time></trkpt><trkpt lat="40.9143267" lon="14.2178767"><ele>108.0</ele><time>2026-05-02T14:34:42.303Z</time></trkpt><trkpt lat="40.9143183" lon="14.2179867"><ele>108.0</ele><time>2026-05-02T14:34:43.304Z</time></trkpt><trkpt lat="40.914305" lon="14.218095"><ele>108.0</ele><time>2026-05-02T14:34:44.303Z</time></trkpt><trkpt lat="40.9142867" lon="14.2182067"><ele>108.0</ele><time>2026-05-02T14:34:45.303Z</time></trkpt><trkpt lat="40.9142567" lon="14.2183167"><ele>108.0</ele><time>2026-05-02T14:34:46.303Z</time></trkpt><trkpt lat="40.9142133" lon="14.2184233"><ele>108.0</ele><time>2026-05-02T14:34:47.304Z</time></trkpt><trkpt lat="40.9141633" lon="14.2185267"><ele>108.2</ele><time>2026-05-02T14:34:48.303Z</time></trkpt><trkpt lat="40.9141183" lon="14.21863"><ele>108.4</ele><time>2026-05-02T14:34:49.303Z</time></trkpt><trkpt lat="40.9140783" lon="14.2187433"><ele>108.60000000000001</ele><time>2026-05-02T14:34:50.303Z</time></trkpt><trkpt lat="40.9140383" lon="14.2188517"><ele>108.80000000000001</ele><time>2026-05-02T14:34:51.303Z</time></trkpt><trkpt lat="40.914" lon="14.2189667"><ele>109.0</ele><time>2026-05-02T14:34:52.304Z</time></trkpt><trkpt lat="40.9139633" lon="14.2190767"><ele>109.0</ele><time>2026-05-02T14:34:53.303Z</time></trkpt><trkpt lat="40.913925" lon="14.2191883"><ele>109.0</ele><time>2026-05-02T14:34:54.303Z</time></trkpt><trkpt lat="40.913885" lon="14.2193"><ele>109.0</ele><time>2026-05-02T14:34:55.303Z</time></trkpt><trkpt lat="40.913845" lon="14.2194117"><ele>109.0</ele><time>2026-05-02T14:34:56.303Z</time></trkpt><trkpt lat="40.9138117" lon="14.2195267"><ele>109.0</ele><time>2026-05-02T14:34:57.304Z</time></trkpt><trkpt lat="40.9137733" lon="14.2196383"><ele>109.0</ele><time>2026-05-02T14:34:58.303Z</time></trkpt><trkpt lat="40.9137283" lon="14.21975"><ele>109.0</ele><time>2026-05-02T14:34:59.303Z</time></trkpt><trkpt lat="40.9136917" lon="14.2198633"><ele>109.0</ele><time>2026-05-02T14:35:00.303Z</time></trkpt><trkpt lat="40.9136517" lon="14.219975"><ele>109.0</ele><time>2026-05-02T14:35:01.303Z</time></trkpt><trkpt lat="40.9136133" lon="14.2200817"><ele>109.0</ele><time>2026-05-02T14:35:02.304Z</time></trkpt><trkpt lat="40.9135733" lon="14.220195"><ele>109.2</ele><time>2026-05-02T14:35:03.303Z</time></trkpt><trkpt lat="40.913535" lon="14.2203117"><ele>109.4</ele><time>2026-05-02T14:35:04.303Z</time></trkpt><trkpt lat="40.9135017" lon="14.220435"><ele>109.6</ele><time>2026-05-02T14:35:05.304Z</time></trkpt><trkpt lat="40.913465" lon="14.2205517"><ele>109.8</ele><time>2026-05-02T14:35:06.302Z</time></trkpt><trkpt lat="40.9134217" lon="14.2206667"><ele>110.0</ele><time>2026-05-02T14:35:07.303Z</time></trkpt><trkpt lat="40.91338" lon="14.2207817"><ele>110.2</ele><time>2026-05-02T14:35:08.303Z</time></trkpt><trkpt lat="40.9133367" lon="14.2208917"><ele>110.4</ele><time>2026-05-02T14:35:09.304Z</time></trkpt><trkpt lat="40.9132917" lon="14.2210033"><ele>110.6</ele><time>2026-05-02T14:35:10.303Z</time></trkpt><trkpt lat="40.9132467" lon="14.2211183"><ele>110.8</ele><time>2026-05-02T14:35:11.302Z</time></trkpt><trkpt lat="40.9132067" lon="14.2212333"><ele>111.0</ele><time>2026-05-02T14:35:12.303Z</time></trkpt><trkpt lat="40.913155" lon="14.2213483"><ele>111.0</ele><time>2026-05-02T14:35:13.303Z</time></trkpt><trkpt lat="40.913115" lon="14.221475"><ele>111.0</ele><time>2026-05-02T14:35:14.303Z</time></trkpt><trkpt lat="40.9130633" lon="14.2215967"><ele>111.0</ele><time>2026-05-02T14:35:15.303Z</time></trkpt><trkpt lat="40.9130133" lon="14.2217133"><ele>111.0</ele><time>2026-05-02T14:35:16.303Z</time></trkpt><trkpt lat="40.9129683" lon="14.2218267"><ele>111.0</ele><time>2026-05-02T14:35:17.303Z</time></trkpt><trkpt lat="40.9129233" lon="14.2219483"><ele>110.8</ele><time>2026-05-02T14:35:18.303Z</time></trkpt><trkpt lat="40.91288" lon="14.2220717"><ele>110.6</ele><time>2026-05-02T14:35:19.304Z</time></trkpt><trkpt lat="40.9128383" lon="14.2221983"><ele>110.4</ele><time>2026-05-02T14:35:20.303Z</time></trkpt><trkpt lat="40.91279" lon="14.2223183"><ele>110.2</ele><time>2026-05-02T14:35:21.304Z</time></trkpt><trkpt lat="40.912745" lon="14.222435"><ele>110.0</ele><time>2026-05-02T14:35:22.303Z</time></trkpt><trkpt lat="40.9126983" lon="14.22255"><ele>110.0</ele><time>2026-05-02T14:35:23.304Z</time></trkpt><trkpt lat="40.9126517" lon="14.2226633"><ele>110.0</ele><time>2026-05-02T14:35:24.303Z</time></trkpt><trkpt lat="40.9126033" lon="14.22278"><ele>110.0</ele><time>2026-05-02T14:35:25.304Z</time></trkpt><trkpt lat="40.9125583" lon="14.2229017"><ele>110.0</ele><time>2026-05-02T14:35:26.303Z</time></trkpt><trkpt lat="40.912515" lon="14.223025"><ele>110.0</ele><time>2026-05-02T14:35:27.303Z</time></trkpt><trkpt lat="40.9124683" lon="14.2231483"><ele>110.2</ele><time>2026-05-02T14:35:28.303Z</time></trkpt><trkpt lat="40.91242" lon="14.2232667"><ele>110.4</ele><time>2026-05-02T14:35:29.304Z</time></trkpt><trkpt lat="40.9123683" lon="14.2233817"><ele>110.6</ele><time>2026-05-02T14:35:30.303Z</time></trkpt><trkpt lat="40.9123267" lon="14.2235"><ele>110.8</ele><time>2026-05-02T14:35:31.303Z</time></trkpt><trkpt lat="40.9122833" lon="14.22362"><ele>111.0</ele><time>2026-05-02T14:35:32.303Z</time></trkpt><trkpt lat="40.91224" lon="14.22374"><ele>111.0</ele><time>2026-05-02T14:35:33.304Z</time></trkpt><trkpt lat="40.9121967" lon="14.2238667"><ele>111.0</ele><time>2026-05-02T14:35:34.303Z</time></trkpt><trkpt lat="40.9121533" lon="14.2239967"><ele>111.0</ele><time>2026-05-02T14:35:35.304Z</time></trkpt><trkpt lat="40.91211" lon="14.2241217"><ele>111.0</ele><time>2026-05-02T14:35:36.304Z</time></trkpt><trkpt lat="40.9120667" lon="14.2242417"><ele>111.0</ele><time>2026-05-02T14:35:37.303Z</time></trkpt><trkpt lat="40.9120217" lon="14.22436"><ele>110.8</ele><time>2026-05-02T14:35:38.304Z</time></trkpt><trkpt lat="40.9119783" lon="14.2244783"><ele>110.6</ele><time>2026-05-02T14:35:39.303Z</time></trkpt><trkpt lat="40.9119367" lon="14.2246"><ele>110.4</ele><time>2026-05-02T14:35:40.305Z</time></trkpt><trkpt lat="40.911895" lon="14.224725"><ele>110.2</ele><time>2026-05-02T14:35:41.304Z</time></trkpt><trkpt lat="40.9118467" lon="14.2248483"><ele>110.0</ele><time>2026-05-02T14:35:42.302Z</time></trkpt><trkpt lat="40.9117967" lon="14.224975"><ele>109.75</ele><time>2026-05-02T14:35:43.303Z</time></trkpt><trkpt lat="40.9117433" lon="14.2251083"><ele>109.5</ele><time>2026-05-02T14:35:44.303Z</time></trkpt><trkpt lat="40.91169" lon="14.2252367"><ele>109.25</ele><time>2026-05-02T14:35:45.303Z</time></trkpt><trkpt lat="40.9116317" lon="14.2253733"><ele>109.0</ele><time>2026-05-02T14:35:46.304Z</time></trkpt><trkpt lat="40.9115733" lon="14.2255133"><ele>109.5</ele><time>2026-05-02T14:35:47.303Z</time></trkpt><trkpt lat="40.9115067" lon="14.2256383"><ele>110.0</ele><time>2026-05-02T14:35:48.304Z</time></trkpt><trkpt lat="40.911445" lon="14.22578"><ele>110.5</ele><time>2026-05-02T14:35:49.303Z</time></trkpt><trkpt lat="40.9113733" lon="14.2259183"><ele>111.0</ele><time>2026-05-02T14:35:50.303Z</time></trkpt><trkpt lat="40.9113083" lon="14.226065"><ele>111.0</ele><time>2026-05-02T14:35:51.303Z</time></trkpt><trkpt lat="40.91125" lon="14.22622"><ele>111.0</ele><time>2026-05-02T14:35:52.304Z</time></trkpt><trkpt lat="40.9111933" lon="14.226375"><ele>111.0</ele><time>2026-05-02T14:35:53.304Z</time></trkpt><trkpt lat="40.911145" lon="14.2265267"><ele>111.0</ele><time>2026-05-02T14:35:54.303Z</time></trkpt><trkpt lat="40.9110883" lon="14.2266783"><ele>110.75</ele><time>2026-05-02T14:35:55.304Z</time></trkpt><trkpt lat="40.91103" lon="14.2268283"><ele>110.5</ele><time>2026-05-02T14:35:56.303Z</time></trkpt><trkpt lat="40.9109733" lon="14.2269767"><ele>110.25</ele><time>2026-05-02T14:35:57.304Z</time></trkpt><trkpt lat="40.91092" lon="14.22712"><ele>110.0</ele><time>2026-05-02T14:35:58.304Z</time></trkpt><trkpt lat="40.9108617" lon="14.2272617"><ele>110.0</ele><time>2026-05-02T14:35:59.304Z</time></trkpt><trkpt lat="40.9108033" lon="14.2273983"><ele>110.0</ele><time>2026-05-02T14:36:00.303Z</time></trkpt><trkpt lat="40.9107433" lon="14.2275233"><ele>110.0</ele><time>2026-05-02T14:36:01.305Z</time></trkpt><trkpt lat="40.9106667" lon="14.227615"><ele>110.0</ele><time>2026-05-02T14:36:02.303Z</time></trkpt><trkpt lat="40.9106283" lon="14.2277733"><ele>110.0</ele><time>2026-05-02T14:36:03.303Z</time></trkpt><trkpt lat="40.9105867" lon="14.2279417"><ele>110.0</ele><time>2026-05-02T14:36:04.303Z</time></trkpt><trkpt lat="40.9105467" lon="14.2281"><ele>110.0</ele><time>2026-05-02T14:36:05.304Z</time></trkpt><trkpt lat="40.9104933" lon="14.2282433"><ele>110.0</ele><time>2026-05-02T14:36:06.302Z</time></trkpt><trkpt lat="40.910445" lon="14.22839"><ele>109.75</ele><time>2026-05-02T14:36:07.306Z</time></trkpt><trkpt lat="40.910395" lon="14.228525"><ele>109.5</ele><time>2026-05-02T14:36:08.306Z</time></trkpt><trkpt lat="40.910345" lon="14.2286683"><ele>109.25</ele><time>2026-05-02T14:36:09.304Z</time></trkpt><trkpt lat="40.9102983" lon="14.2288117"><ele>109.0</ele><time>2026-05-02T14:36:10.303Z</time></trkpt><trkpt lat="40.9102517" lon="14.228945"><ele>108.80000000000001</ele><time>2026-05-02T14:36:11.304Z</time></trkpt><trkpt lat="40.9102067" lon="14.22908"><ele>108.60000000000001</ele><time>2026-05-02T14:36:12.305Z</time></trkpt><trkpt lat="40.910165" lon="14.2292183"><ele>108.4</ele><time>2026-05-02T14:36:13.304Z</time></trkpt><trkpt lat="40.9101183" lon="14.2293517"><ele>108.2</ele><time>2026-05-02T14:36:14.304Z</time></trkpt><trkpt lat="40.9100733" lon="14.2294883"><ele>108.0</ele><time>2026-05-02T14:36:15.304Z</time></trkpt><trkpt lat="40.9100233" lon="14.2296317"><ele>108.25</ele><time>2026-05-02T14:36:16.305Z</time></trkpt><trkpt lat="40.9099717" lon="14.229775"><ele>108.5</ele><time>2026-05-02T14:36:17.302Z</time></trkpt><trkpt lat="40.9099233" lon="14.2299183"><ele>108.75</ele><time>2026-05-02T14:36:18.304Z</time></trkpt><trkpt lat="40.9098883" lon="14.230065"><ele>109.0</ele><time>2026-05-02T14:36:19.303Z</time></trkpt><trkpt lat="40.9098567" lon="14.230215"><ele>109.0</ele><time>2026-05-02T14:36:20.305Z</time></trkpt><trkpt lat="40.9098267" lon="14.2303633"><ele>109.0</ele><time>2026-05-02T14:36:21.304Z</time></trkpt><trkpt lat="40.9097967" lon="14.2305"><ele>109.0</ele><time>2026-05-02T14:36:22.302Z</time></trkpt><trkpt lat="40.90977" lon="14.230635"><ele>109.0</ele><time>2026-05-02T14:36:23.302Z</time></trkpt><trkpt lat="40.90975" lon="14.2307717"><ele>109.0</ele><time>2026-05-02T14:36:24.31Z</time></trkpt><trkpt lat="40.9097383" lon="14.230915"><ele>108.80000000000001</ele><time>2026-05-02T14:36:25.302Z</time></trkpt><trkpt lat="40.9097283" lon="14.23106"><ele>108.60000000000001</ele><time>2026-05-02T14:36:26.303Z</time></trkpt><trkpt lat="40.9097167" lon="14.2311983"><ele>108.4</ele><time>2026-05-02T14:36:27.302Z</time></trkpt><trkpt lat="40.9097083" lon="14.2313383"><ele>108.2</ele><time>2026-05-02T14:36:28.304Z</time></trkpt><trkpt lat="40.9097033" lon="14.231475"><ele>108.0</ele><time>2026-05-02T14:36:29.303Z</time></trkpt><trkpt lat="40.9097017" lon="14.2316167"><ele>107.5</ele><time>2026-05-02T14:36:30.302Z</time></trkpt><trkpt lat="40.9096983" lon="14.2317617"><ele>107.0</ele><time>2026-05-02T14:36:31.303Z</time></trkpt><trkpt lat="40.9097017" lon="14.23191"><ele>106.5</ele><time>2026-05-02T14:36:32.302Z</time></trkpt><trkpt lat="40.90971" lon="14.2320617"><ele>106.0</ele><time>2026-05-02T14:36:33.303Z</time></trkpt><trkpt lat="40.90972" lon="14.232215"><ele>106.75</ele><time>2026-05-02T14:36:34.304Z</time></trkpt><trkpt lat="40.9097317" lon="14.2323683"><ele>107.5</ele><time>2026-05-02T14:36:35.303Z</time></trkpt><trkpt lat="40.9097517" lon="14.2325217"><ele>108.25</ele><time>2026-05-02T14:36:36.302Z</time></trkpt><trkpt lat="40.90978" lon="14.2326767"><ele>109.0</ele><time>2026-05-02T14:36:37.302Z</time></trkpt><trkpt lat="40.90981" lon="14.2328317"><ele>109.0</ele><time>2026-05-02T14:36:38.302Z</time></trkpt><trkpt lat="40.9098433" lon="14.2329933"><ele>109.0</ele><time>2026-05-02T14:36:39.303Z</time></trkpt><trkpt lat="40.90988" lon="14.233155"><ele>109.0</ele><time>2026-05-02T14:36:40.305Z</time></trkpt><trkpt lat="40.9099233" lon="14.2333083"><ele>109.0</ele><time>2026-05-02T14:36:41.304Z</time></trkpt><trkpt lat="40.9099683" lon="14.233465"><ele>108.5</ele><time>2026-05-02T14:36:42.304Z</time></trkpt><trkpt lat="40.91002" lon="14.2336233"><ele>108.0</ele><time>2026-05-02T14:36:43.303Z</time></trkpt><trkpt lat="40.9100733" lon="14.2337733"><ele>107.5</ele><time>2026-05-02T14:36:44.303Z</time></trkpt><trkpt lat="40.9101267" lon="14.2339217"><ele>107.0</ele><time>2026-05-02T14:36:45.302Z</time></trkpt><trkpt lat="40.91019" lon="14.2340667"><ele>106.0</ele><time>2026-05-02T14:36:46.302Z</time></trkpt><trkpt lat="40.910255" lon="14.234205"><ele>105.0</ele><time>2026-05-02T14:36:47.303Z</time></trkpt><trkpt lat="40.91032" lon="14.2343417"><ele>104.0</ele><time>2026-05-02T14:36:48.302Z</time></trkpt><trkpt lat="40.9103867" lon="14.234475"><ele>103.0</ele><time>2026-05-02T14:36:49.303Z</time></trkpt><trkpt lat="40.9104617" lon="14.2346033"><ele>103.0</ele><time>2026-05-02T14:36:50.302Z</time></trkpt><trkpt lat="40.91054" lon="14.23473"><ele>103.0</ele><time>2026-05-02T14:36:51.303Z</time></trkpt><trkpt lat="40.910615" lon="14.234855"><ele>103.0</ele><time>2026-05-02T14:36:52.302Z</time></trkpt><trkpt lat="40.9106967" lon="14.234965"><ele>103.0</ele><time>2026-05-02T14:36:53.303Z</time></trkpt><trkpt lat="40.9107783" lon="14.2350717"><ele>103.0</ele><time>2026-05-02T14:36:54.304Z</time></trkpt><trkpt lat="40.9108583" lon="14.235185"><ele>103.0</ele><time>2026-05-02T14:36:55.304Z</time></trkpt><trkpt lat="40.9109333" lon="14.2352967"><ele>103.0</ele><time>2026-05-02T14:36:56.302Z</time></trkpt><trkpt lat="40.911005" lon="14.2354017"><ele>103.0</ele><time>2026-05-02T14:36:57.302Z</time></trkpt><trkpt lat="40.91107" lon="14.2355033"><ele>103.0</ele><time>2026-05-02T14:36:58.303Z</time></trkpt><trkpt lat="40.91112" lon="14.2356"><ele>102.83333333333334</ele><time>2026-05-02T14:36:59.304Z</time></trkpt><trkpt lat="40.9111567" lon="14.2356983"><ele>102.66666666666667</ele><time>2026-05-02T14:37:00.302Z</time></trkpt><trkpt lat="40.9111867" lon="14.2357933"><ele>102.5</ele><time>2026-05-02T14:37:01.303Z</time></trkpt><trkpt lat="40.911225" lon="14.2358867"><ele>102.33333333333334</ele><time>2026-05-02T14:37:02.303Z</time></trkpt><trkpt lat="40.911275" lon="14.2359767"><ele>102.16666666666667</ele><time>2026-05-02T14:37:03.303Z</time></trkpt><trkpt lat="40.9113367" lon="14.2360633"><ele>102.0</ele><time>2026-05-02T14:37:04.302Z</time></trkpt><trkpt lat="40.9114067" lon="14.2361433"><ele>102.0</ele><time>2026-05-02T14:37:05.301Z</time></trkpt><trkpt lat="40.911485" lon="14.2362283"><ele>102.0</ele><time>2026-05-02T14:37:06.301Z</time></trkpt><trkpt lat="40.9115667" lon="14.23632"><ele>102.0</ele><time>2026-05-02T14:37:07.303Z</time></trkpt><trkpt lat="40.91165" lon="14.23642"><ele>102.0</ele><time>2026-05-02T14:37:08.307Z</time></trkpt><trkpt lat="40.9117333" lon="14.2365233"><ele>102.0</ele><time>2026-05-02T14:37:09.302Z</time></trkpt><trkpt lat="40.91181" lon="14.2366433"><ele>102.0</ele><time>2026-05-02T14:37:10.302Z</time></trkpt><trkpt lat="40.911885" lon="14.236765"><ele>102.0</ele><time>2026-05-02T14:37:11.306Z</time></trkpt><trkpt lat="40.9119617" lon="14.2368883"><ele>102.0</ele><time>2026-05-02T14:37:12.304Z</time></trkpt><trkpt lat="40.9120417" lon="14.237015"><ele>102.0</ele><time>2026-05-02T14:37:13.306Z</time></trkpt><trkpt lat="40.9121233" lon="14.23714"><ele>102.0</ele><time>2026-05-02T14:37:14.304Z</time></trkpt><trkpt lat="40.9122067" lon="14.237265"><ele>102.0</ele><time>2026-05-02T14:37:15.303Z</time></trkpt><trkpt lat="40.9122917" lon="14.237385"><ele>102.0</ele><time>2026-05-02T14:37:16.303Z</time></trkpt><trkpt lat="40.9123717" lon="14.2375033"><ele>102.0</ele><time>2026-05-02T14:37:17.306Z</time></trkpt><trkpt lat="40.9124517" lon="14.2376233"><ele>101.5</ele><time>2026-05-02T14:37:18.303Z</time></trkpt><trkpt lat="40.9125317" lon="14.2377483"><ele>101.0</ele><time>2026-05-02T14:37:19.303Z</time></trkpt><trkpt lat="40.9126183" lon="14.2378717"><ele>100.5</ele><time>2026-05-02T14:37:20.301Z</time></trkpt><trkpt lat="40.9127017" lon="14.2379917"><ele>100.0</ele><time>2026-05-02T14:37:21.305Z</time></trkpt><trkpt lat="40.9127783" lon="14.2381117"><ele>99.0</ele><time>2026-05-02T14:37:22.302Z</time></trkpt><trkpt lat="40.912855" lon="14.2382267"><ele>98.0</ele><time>2026-05-02T14:37:23.308Z</time></trkpt><trkpt lat="40.9130867" lon="14.2385533"><ele>98.0</ele><time>2026-05-02T14:37:26.303Z</time></trkpt><trkpt lat="40.9131533" lon="14.23866"><ele>98.0</ele><time>2026-05-02T14:37:27.303Z</time></trkpt><trkpt lat="40.9132133" lon="14.2387633"><ele>98.0</ele><time>2026-05-02T14:37:28.303Z</time></trkpt><trkpt lat="40.9132717" lon="14.2388667"><ele>98.0</ele><time>2026-05-02T14:37:29.304Z</time></trkpt><trkpt lat="40.9133317" lon="14.2389617"><ele>98.0</ele><time>2026-05-02T14:37:30.302Z</time></trkpt><trkpt lat="40.9133967" lon="14.2390517"><ele>97.2</ele><time>2026-05-02T14:37:31.303Z</time></trkpt><trkpt lat="40.9134583" lon="14.2391467"><ele>96.4</ele><time>2026-05-02T14:37:32.302Z</time></trkpt><trkpt lat="40.9135183" lon="14.2392417"><ele>95.60000000000001</ele><time>2026-05-02T14:37:33.303Z</time></trkpt><trkpt lat="40.9135817" lon="14.2393333"><ele>94.80000000000001</ele><time>2026-05-02T14:37:34.302Z</time></trkpt><trkpt lat="40.9136467" lon="14.239425"><ele>94.0</ele><time>2026-05-02T14:37:35.307Z</time></trkpt><trkpt lat="40.913715" lon="14.2395217"><ele>94.0</ele><time>2026-05-02T14:37:36.31Z</time></trkpt><trkpt lat="40.9137817" lon="14.2396167"><ele>94.0</ele><time>2026-05-02T14:37:37.304Z</time></trkpt><trkpt lat="40.9138483" lon="14.239715"><ele>94.0</ele><time>2026-05-02T14:37:38.302Z</time></trkpt><trkpt lat="40.9139167" lon="14.2398133"><ele>94.0</ele><time>2026-05-02T14:37:39.302Z</time></trkpt><trkpt lat="40.913985" lon="14.2399117"><ele>94.0</ele><time>2026-05-02T14:37:40.302Z</time></trkpt><trkpt lat="40.9140533" lon="14.240015"><ele>93.80000000000001</ele><time>2026-05-02T14:37:41.303Z</time></trkpt><trkpt lat="40.9141167" lon="14.2401217"><ele>93.60000000000001</ele><time>2026-05-02T14:37:42.302Z</time></trkpt><trkpt lat="40.9141767" lon="14.2402233"><ele>93.4</ele><time>2026-05-02T14:37:43.304Z</time></trkpt><trkpt lat="40.9142417" lon="14.240325"><ele>93.2</ele><time>2026-05-02T14:37:44.303Z</time></trkpt><trkpt lat="40.9143083" lon="14.2404333"><ele>93.0</ele><time>2026-05-02T14:37:45.303Z</time></trkpt><trkpt lat="40.914375" lon="14.2405417"><ele>93.0</ele><time>2026-05-02T14:37:46.304Z</time></trkpt><trkpt lat="40.9144383" lon="14.240655"><ele>93.0</ele><time>2026-05-02T14:37:47.303Z</time></trkpt><trkpt lat="40.9144967" lon="14.24077"><ele>93.0</ele><time>2026-05-02T14:37:48.305Z</time></trkpt><trkpt lat="40.9145483" lon="14.2408833"><ele>93.0</ele><time>2026-05-02T14:37:49.304Z</time></trkpt><trkpt lat="40.9145967" lon="14.2410067"><ele>93.0</ele><time>2026-05-02T14:37:50.304Z</time></trkpt><trkpt lat="40.914645" lon="14.241135"><ele>93.0</ele><time>2026-05-02T14:37:51.303Z</time></trkpt><trkpt lat="40.9146883" lon="14.24127"><ele>93.0</ele><time>2026-05-02T14:37:52.304Z</time></trkpt><trkpt lat="40.9147283" lon="14.2414083"><ele>93.0</ele><time>2026-05-02T14:37:53.304Z</time></trkpt><trkpt lat="40.9147683" lon="14.24155"><ele>93.0</ele><time>2026-05-02T14:37:54.303Z</time></trkpt><trkpt lat="40.9148017" lon="14.2416933"><ele>92.75</ele><time>2026-05-02T14:37:55.304Z</time></trkpt><trkpt lat="40.91483" lon="14.2418383"><ele>92.5</ele><time>2026-05-02T14:37:56.304Z</time></trkpt><trkpt lat="40.914855" lon="14.241985"><ele>92.25</ele><time>2026-05-02T14:37:57.302Z</time></trkpt><trkpt lat="40.9148767" lon="14.2421333"><ele>92.0</ele><time>2026-05-02T14:37:58.305Z</time></trkpt><trkpt lat="40.9149" lon="14.2422867"><ele>91.75</ele><time>2026-05-02T14:37:59.303Z</time></trkpt><trkpt lat="40.91492" lon="14.2424383"><ele>91.5</ele><time>2026-05-02T14:38:00.303Z</time></trkpt><trkpt lat="40.914935" lon="14.2425917"><ele>91.25</ele><time>2026-05-02T14:38:01.305Z</time></trkpt><trkpt lat="40.9149483" lon="14.2427433"><ele>91.0</ele><time>2026-05-02T14:38:02.303Z</time></trkpt><trkpt lat="40.91496" lon="14.24289"><ele>91.0</ele><time>2026-05-02T14:38:03.315Z</time></trkpt><trkpt lat="40.9149683" lon="14.24304"><ele>91.0</ele><time>2026-05-02T14:38:04.304Z</time></trkpt><trkpt lat="40.9149733" lon="14.2431883"><ele>91.0</ele><time>2026-05-02T14:38:05.305Z</time></trkpt><trkpt lat="40.9149767" lon="14.2433383"><ele>91.0</ele><time>2026-05-02T14:38:06.304Z</time></trkpt><trkpt lat="40.9149767" lon="14.2434917"><ele>90.6</ele><time>2026-05-02T14:38:07.304Z</time></trkpt><trkpt lat="40.9149717" lon="14.2436383"><ele>90.19999999999999</ele><time>2026-05-02T14:38:08.308Z</time></trkpt><trkpt lat="40.9149617" lon="14.2437833"><ele>89.80000000000001</ele><time>2026-05-02T14:38:09.306Z</time></trkpt><trkpt lat="40.9149483" lon="14.2439283"><ele>89.4</ele><time>2026-05-02T14:38:10.307Z</time></trkpt><trkpt lat="40.9149333" lon="14.2440767"><ele>89.0</ele><time>2026-05-02T14:38:11.307Z</time></trkpt><trkpt lat="40.9149117" lon="14.2442283"><ele>88.75</ele><time>2026-05-02T14:38:12.307Z</time></trkpt><trkpt lat="40.9148883" lon="14.2443833"><ele>88.5</ele><time>2026-05-02T14:38:13.304Z</time></trkpt><trkpt lat="40.9148583" lon="14.24454"><ele>88.25</ele><time>2026-05-02T14:38:14.307Z</time></trkpt><trkpt lat="40.9148217" lon="14.2446983"><ele>88.0</ele><time>2026-05-02T14:38:15.304Z</time></trkpt><trkpt lat="40.9147817" lon="14.2448533"><ele>88.0</ele><time>2026-05-02T14:38:16.304Z</time></trkpt><trkpt lat="40.9147367" lon="14.245005"><ele>88.0</ele><time>2026-05-02T14:38:17.303Z</time></trkpt><trkpt lat="40.9146883" lon="14.2451483"><ele>88.0</ele><time>2026-05-02T14:38:18.305Z</time></trkpt><trkpt lat="40.91464" lon="14.2452917"><ele>88.0</ele><time>2026-05-02T14:38:19.303Z</time></trkpt><trkpt lat="40.91459" lon="14.2454333"><ele>88.0</ele><time>2026-05-02T14:38:20.304Z</time></trkpt><trkpt lat="40.9145383" lon="14.245575"><ele>88.0</ele><time>2026-05-02T14:38:21.304Z</time></trkpt><trkpt lat="40.9144833" lon="14.24571"><ele>88.0</ele><time>2026-05-02T14:38:22.305Z</time></trkpt><trkpt lat="40.9144233" lon="14.2458433"><ele>88.0</ele><time>2026-05-02T14:38:23.304Z</time></trkpt><trkpt lat="40.9143617" lon="14.2459683"><ele>88.0</ele><time>2026-05-02T14:38:24.304Z</time></trkpt><trkpt lat="40.914295" lon="14.2460933"><ele>88.0</ele><time>2026-05-02T14:38:25.304Z</time></trkpt><trkpt lat="40.914225" lon="14.2462133"><ele>88.0</ele><time>2026-05-02T14:38:26.308Z</time></trkpt><trkpt lat="40.9141517" lon="14.2463317"><ele>88.0</ele><time>2026-05-02T14:38:27.304Z</time></trkpt><trkpt lat="40.9140767" lon="14.246445"><ele>88.60000000000001</ele><time>2026-05-02T14:38:28.303Z</time></trkpt><trkpt lat="40.9139983" lon="14.246555"><ele>89.2</ele><time>2026-05-02T14:38:29.307Z</time></trkpt><trkpt lat="40.9139233" lon="14.2466667"><ele>89.8</ele><time>2026-05-02T14:38:30.303Z</time></trkpt><trkpt lat="40.91385" lon="14.24678"><ele>90.4</ele><time>2026-05-02T14:38:31.306Z</time></trkpt><trkpt lat="40.9137783" lon="14.2468883"><ele>91.0</ele><time>2026-05-02T14:38:32.303Z</time></trkpt><trkpt lat="40.9137067" lon="14.2469933"><ele>91.0</ele><time>2026-05-02T14:38:33.304Z</time></trkpt><trkpt lat="40.9136333" lon="14.2470967"><ele>91.0</ele><time>2026-05-02T14:38:34.304Z</time></trkpt><trkpt lat="40.91356" lon="14.247195"><ele>91.0</ele><time>2026-05-02T14:38:35.306Z</time></trkpt><trkpt lat="40.9134833" lon="14.24729"><ele>91.0</ele><time>2026-05-02T14:38:36.303Z</time></trkpt><trkpt lat="40.9134067" lon="14.24739"><ele>91.0</ele><time>2026-05-02T14:38:37.304Z</time></trkpt><trkpt lat="40.91333" lon="14.2474917"><ele>91.0</ele><time>2026-05-02T14:38:38.304Z</time></trkpt><trkpt lat="40.913255" lon="14.247595"><ele>91.0</ele><time>2026-05-02T14:38:39.305Z</time></trkpt><trkpt lat="40.9131733" lon="14.2476883"><ele>91.0</ele><time>2026-05-02T14:38:40.307Z</time></trkpt><trkpt lat="40.9130883" lon="14.247775"><ele>91.0</ele><time>2026-05-02T14:38:41.304Z</time></trkpt><trkpt lat="40.9130033" lon="14.2478617"><ele>91.0</ele><time>2026-05-02T14:38:42.304Z</time></trkpt><trkpt lat="40.9129167" lon="14.24795"><ele>91.0</ele><time>2026-05-02T14:38:43.305Z</time></trkpt><trkpt lat="40.91283" lon="14.2480367"><ele>91.0</ele><time>2026-05-02T14:38:44.306Z</time></trkpt><trkpt lat="40.9127433" lon="14.2481267"><ele>91.0</ele><time>2026-05-02T14:38:45.304Z</time></trkpt><trkpt lat="40.91266" lon="14.24822"><ele>91.0</ele><time>2026-05-02T14:38:46.307Z</time></trkpt><trkpt lat="40.912575" lon="14.2483133"><ele>91.0</ele><time>2026-05-02T14:38:47.307Z</time></trkpt><trkpt lat="40.9124917" lon="14.2484117"><ele>91.6</ele><time>2026-05-02T14:38:48.304Z</time></trkpt><trkpt lat="40.9124083" lon="14.24851"><ele>92.19999999999999</ele><time>2026-05-02T14:38:49.305Z</time></trkpt><trkpt lat="40.9123267" lon="14.2486133"><ele>92.80000000000001</ele><time>2026-05-02T14:38:50.305Z</time></trkpt><trkpt lat="40.9122483" lon="14.24872"><ele>93.4</ele><time>2026-05-02T14:38:51.306Z</time></trkpt><trkpt lat="40.91217" lon="14.248825"><ele>94.0</ele><time>2026-05-02T14:38:52.305Z</time></trkpt><trkpt lat="40.912095" lon="14.2489367"><ele>94.0</ele><time>2026-05-02T14:38:53.305Z</time></trkpt><trkpt lat="40.91202" lon="14.249045"><ele>94.0</ele><time>2026-05-02T14:38:54.305Z</time></trkpt><trkpt lat="40.9119433" lon="14.2491567"><ele>94.0</ele><time>2026-05-02T14:38:55.306Z</time></trkpt><trkpt lat="40.91187" lon="14.2492683"><ele>94.0</ele><time>2026-05-02T14:38:56.307Z</time></trkpt><trkpt lat="40.911795" lon="14.2493817"><ele>93.6</ele><time>2026-05-02T14:38:57.304Z</time></trkpt><trkpt lat="40.9117183" lon="14.249495"><ele>93.2</ele><time>2026-05-02T14:38:58.306Z</time></trkpt><trkpt lat="40.9116433" lon="14.2496083"><ele>92.8</ele><time>2026-05-02T14:38:59.305Z</time></trkpt><trkpt lat="40.9115717" lon="14.24972"><ele>92.39999999999999</ele><time>2026-05-02T14:39:00.304Z</time></trkpt><trkpt lat="40.9115" lon="14.24983"><ele>92.0</ele><time>2026-05-02T14:39:01.306Z</time></trkpt><trkpt lat="40.9114317" lon="14.2499433"><ele>91.6</ele><time>2026-05-02T14:39:02.305Z</time></trkpt><trkpt lat="40.91136" lon="14.250055"><ele>91.19999999999999</ele><time>2026-05-02T14:39:03.305Z</time></trkpt><trkpt lat="40.9112867" lon="14.2501633"><ele>90.8</ele><time>2026-05-02T14:39:04.306Z</time></trkpt><trkpt lat="40.9112167" lon="14.250275"><ele>90.4</ele><time>2026-05-02T14:39:05.304Z</time></trkpt><trkpt lat="40.9111483" lon="14.2503883"><ele>90.0</ele><time>2026-05-02T14:39:06.305Z</time></trkpt><trkpt lat="40.91108" lon="14.250505"><ele>90.0</ele><time>2026-05-02T14:39:07.306Z</time></trkpt><trkpt lat="40.9110117" lon="14.2506183"><ele>90.0</ele><time>2026-05-02T14:39:08.304Z</time></trkpt><trkpt lat="40.91095" lon="14.25074"><ele>90.0</ele><time>2026-05-02T14:39:09.305Z</time></trkpt><trkpt lat="40.91089" lon="14.250865"><ele>90.0</ele><time>2026-05-02T14:39:10.304Z</time></trkpt><trkpt lat="40.91083" lon="14.2509933"><ele>90.0</ele><time>2026-05-02T14:39:11.306Z</time></trkpt><trkpt lat="40.9107717" lon="14.25112"><ele>90.2</ele><time>2026-05-02T14:39:12.308Z</time></trkpt><trkpt lat="40.9107117" lon="14.2512483"><ele>90.4</ele><time>2026-05-02T14:39:13.309Z</time></trkpt><trkpt lat="40.910655" lon="14.2513783"><ele>90.6</ele><time>2026-05-02T14:39:14.305Z</time></trkpt><trkpt lat="40.910595" lon="14.2515033"><ele>90.8</ele><time>2026-05-02T14:39:15.307Z</time></trkpt><trkpt lat="40.9105333" lon="14.2516233"><ele>91.0</ele><time>2026-05-02T14:39:16.306Z</time></trkpt><trkpt lat="40.9104717" lon="14.2517433"><ele>90.6</ele><time>2026-05-02T14:39:17.306Z</time></trkpt><trkpt lat="40.9104067" lon="14.25186"><ele>90.19999999999999</ele><time>2026-05-02T14:39:18.305Z</time></trkpt><trkpt lat="40.91034" lon="14.2519733"><ele>89.80000000000001</ele><time>2026-05-02T14:39:19.304Z</time></trkpt><trkpt lat="40.9102667" lon="14.2520833"><ele>89.4</ele><time>2026-05-02T14:39:20.305Z</time></trkpt><trkpt lat="40.9101967" lon="14.2521917"><ele>89.0</ele><time>2026-05-02T14:39:21.304Z</time></trkpt><trkpt lat="40.910125" lon="14.2522967"><ele>89.2</ele><time>2026-05-02T14:39:22.305Z</time></trkpt><trkpt lat="40.910055" lon="14.252405"><ele>89.4</ele><time>2026-05-02T14:39:23.304Z</time></trkpt><trkpt lat="40.909985" lon="14.2525083"><ele>89.6</ele><time>2026-05-02T14:39:24.306Z</time></trkpt><trkpt lat="40.909915" lon="14.2526133"><ele>89.8</ele><time>2026-05-02T14:39:25.307Z</time></trkpt><trkpt lat="40.9098467" lon="14.2527167"><ele>90.0</ele><time>2026-05-02T14:39:26.306Z</time></trkpt><trkpt lat="40.9097783" lon="14.25282"><ele>90.0</ele><time>2026-05-02T14:39:27.306Z</time></trkpt><trkpt lat="40.9097083" lon="14.252925"><ele>90.0</ele><time>2026-05-02T14:39:28.304Z</time></trkpt><trkpt lat="40.9096383" lon="14.25303"><ele>90.0</ele><time>2026-05-02T14:39:29.305Z</time></trkpt><trkpt lat="40.9095683" lon="14.2531367"><ele>90.0</ele><time>2026-05-02T14:39:30.307Z</time></trkpt><trkpt lat="40.9094983" lon="14.2532417"><ele>90.0</ele><time>2026-05-02T14:39:31.308Z</time></trkpt><trkpt lat="40.90943" lon="14.25335"><ele>90.0</ele><time>2026-05-02T14:39:32.307Z</time></trkpt><trkpt lat="40.9093583" lon="14.2534567"><ele>90.0</ele><time>2026-05-02T14:39:33.308Z</time></trkpt><trkpt lat="40.9092883" lon="14.2535633"><ele>90.0</ele><time>2026-05-02T14:39:34.307Z</time></trkpt><trkpt lat="40.9092183" lon="14.2536717"><ele>90.0</ele><time>2026-05-02T14:39:35.305Z</time></trkpt><trkpt lat="40.909145" lon="14.25378"><ele>90.0</ele><time>2026-05-02T14:39:36.306Z</time></trkpt><trkpt lat="40.9090733" lon="14.25389"><ele>89.8</ele><time>2026-05-02T14:39:37.306Z</time></trkpt><trkpt lat="40.9089983" lon="14.254"><ele>89.6</ele><time>2026-05-02T14:39:38.306Z</time></trkpt><trkpt lat="40.9089233" lon="14.2541083"><ele>89.4</ele><time>2026-05-02T14:39:39.308Z</time></trkpt><trkpt lat="40.9088483" lon="14.2542167"><ele>89.2</ele><time>2026-05-02T14:39:40.307Z</time></trkpt><trkpt lat="40.9087733" lon="14.2543267"><ele>89.0</ele><time>2026-05-02T14:39:41.308Z</time></trkpt><trkpt lat="40.9087" lon="14.2544367"><ele>89.0</ele><time>2026-05-02T14:39:42.308Z</time></trkpt><trkpt lat="40.9086233" lon="14.254545"><ele>89.0</ele><time>2026-05-02T14:39:43.306Z</time></trkpt><trkpt lat="40.9085483" lon="14.254655"><ele>89.0</ele><time>2026-05-02T14:39:44.308Z</time></trkpt><trkpt lat="40.908475" lon="14.254765"><ele>89.0</ele><time>2026-05-02T14:39:45.306Z</time></trkpt><trkpt lat="40.9084" lon="14.254875"><ele>89.0</ele><time>2026-05-02T14:39:46.307Z</time></trkpt><trkpt lat="40.908325" lon="14.254985"><ele>88.75</ele><time>2026-05-02T14:39:47.305Z</time></trkpt><trkpt lat="40.9082467" lon="14.255095"><ele>88.5</ele><time>2026-05-02T14:39:48.304Z</time></trkpt><trkpt lat="40.9081717" lon="14.255205"><ele>88.25</ele><time>2026-05-02T14:39:49.306Z</time></trkpt><trkpt lat="40.9080967" lon="14.2553167"><ele>88.0</ele><time>2026-05-02T14:39:50.305Z</time></trkpt><trkpt lat="40.9080233" lon="14.2554283"><ele>88.0</ele><time>2026-05-02T14:39:51.304Z</time></trkpt><trkpt lat="40.9079483" lon="14.2555417"><ele>88.0</ele><time>2026-05-02T14:39:52.306Z</time></trkpt><trkpt lat="40.9078767" lon="14.2556517"><ele>88.0</ele><time>2026-05-02T14:39:53.306Z</time></trkpt><trkpt lat="40.9078017" lon="14.255765"><ele>88.0</ele><time>2026-05-02T14:39:54.306Z</time></trkpt><trkpt lat="40.9077267" lon="14.255875"><ele>88.0</ele><time>2026-05-02T14:39:55.305Z</time></trkpt><trkpt lat="40.9076517" lon="14.2559833"><ele>88.0</ele><time>2026-05-02T14:39:56.305Z</time></trkpt><trkpt lat="40.9075783" lon="14.2560933"><ele>88.0</ele><time>2026-05-02T14:39:57.305Z</time></trkpt><trkpt lat="40.9075017" lon="14.2562"><ele>88.0</ele><time>2026-05-02T14:39:58.304Z</time></trkpt><trkpt lat="40.9074283" lon="14.2563067"><ele>88.0</ele><time>2026-05-02T14:39:59.308Z</time></trkpt><trkpt lat="40.9073567" lon="14.2564117"><ele>88.0</ele><time>2026-05-02T14:40:00.307Z</time></trkpt><trkpt lat="40.9072833" lon="14.2565217"><ele>88.2</ele><time>2026-05-02T14:40:01.306Z</time></trkpt><trkpt lat="40.9072083" lon="14.2566283"><ele>88.4</ele><time>2026-05-02T14:40:02.307Z</time></trkpt><trkpt lat="40.9071333" lon="14.2567367"><ele>88.60000000000001</ele><time>2026-05-02T14:40:03.307Z</time></trkpt><trkpt lat="40.9070617" lon="14.2568483"><ele>88.80000000000001</ele><time>2026-05-02T14:40:04.307Z</time></trkpt><trkpt lat="40.9069867" lon="14.2569583"><ele>89.0</ele><time>2026-05-02T14:40:05.306Z</time></trkpt><trkpt lat="40.9069117" lon="14.25707"><ele>89.0</ele><time>2026-05-02T14:40:06.307Z</time></trkpt><trkpt lat="40.9068383" lon="14.2571817"><ele>89.0</ele><time>2026-05-02T14:40:07.321Z</time></trkpt><trkpt lat="40.9067667" lon="14.2572933"><ele>89.0</ele><time>2026-05-02T14:40:08.307Z</time></trkpt><trkpt lat="40.9066933" lon="14.2574067"><ele>89.0</ele><time>2026-05-02T14:40:09.305Z</time></trkpt><trkpt lat="40.9066183" lon="14.2575217"><ele>89.0</ele><time>2026-05-02T14:40:10.306Z</time></trkpt><trkpt lat="40.9065417" lon="14.2576333"><ele>89.0</ele><time>2026-05-02T14:40:11.305Z</time></trkpt><trkpt lat="40.9064683" lon="14.2577433"><ele>89.0</ele><time>2026-05-02T14:40:12.306Z</time></trkpt><trkpt lat="40.906395" lon="14.2578583"><ele>89.0</ele><time>2026-05-02T14:40:13.305Z</time></trkpt><trkpt lat="40.9063217" lon="14.2579717"><ele>89.0</ele><time>2026-05-02T14:40:14.305Z</time></trkpt><trkpt lat="40.9062467" lon="14.25808"><ele>89.0</ele><time>2026-05-02T14:40:15.305Z</time></trkpt><trkpt lat="40.9061733" lon="14.258185"><ele>89.0</ele><time>2026-05-02T14:40:16.307Z</time></trkpt><trkpt lat="40.906095" lon="14.258285"><ele>89.0</ele><time>2026-05-02T14:40:17.304Z</time></trkpt><trkpt lat="40.9060117" lon="14.2583833"><ele>89.0</ele><time>2026-05-02T14:40:18.305Z</time></trkpt><trkpt lat="40.90593" lon="14.2584833"><ele>89.25</ele><time>2026-05-02T14:40:19.307Z</time></trkpt><trkpt lat="40.905845" lon="14.25858"><ele>89.5</ele><time>2026-05-02T14:40:20.306Z</time></trkpt><trkpt lat="40.9057583" lon="14.2586783"><ele>89.75</ele><time>2026-05-02T14:40:21.304Z</time></trkpt><trkpt lat="40.9056717" lon="14.258775"><ele>90.0</ele><time>2026-05-02T14:40:22.306Z</time></trkpt><trkpt lat="40.9055867" lon="14.2588683"><ele>90.2</ele><time>2026-05-02T14:40:23.305Z</time></trkpt><trkpt lat="40.905505" lon="14.2589633"><ele>90.4</ele><time>2026-05-02T14:40:24.306Z</time></trkpt><trkpt lat="40.9054233" lon="14.2590617"><ele>90.6</ele><time>2026-05-02T14:40:25.306Z</time></trkpt><trkpt lat="40.905345" lon="14.25916"><ele>90.8</ele><time>2026-05-02T14:40:26.305Z</time></trkpt><trkpt lat="40.9052617" lon="14.259265"><ele>91.0</ele><time>2026-05-02T14:40:27.305Z</time></trkpt><trkpt lat="40.90518" lon="14.25937"><ele>91.0</ele><time>2026-05-02T14:40:28.307Z</time></trkpt><trkpt lat="40.9051" lon="14.2594783"><ele>91.0</ele><time>2026-05-02T14:40:29.307Z</time></trkpt><trkpt lat="40.9050233" lon="14.2595867"><ele>91.0</ele><time>2026-05-02T14:40:30.307Z</time></trkpt><trkpt lat="40.9049483" lon="14.2596967"><ele>91.0</ele><time>2026-05-02T14:40:31.307Z</time></trkpt><trkpt lat="40.9048717" lon="14.2598117"><ele>90.75</ele><time>2026-05-02T14:40:32.308Z</time></trkpt><trkpt lat="40.9047933" lon="14.2599183"><ele>90.5</ele><time>2026-05-02T14:40:33.305Z</time></trkpt><trkpt lat="40.904715" lon="14.260035"><ele>90.25</ele><time>2026-05-02T14:40:34.306Z</time></trkpt><trkpt lat="40.90463" lon="14.2601567"><ele>90.0</ele><time>2026-05-02T14:40:35.307Z</time></trkpt><trkpt lat="40.904545" lon="14.2602767"><ele>90.0</ele><time>2026-05-02T14:40:36.305Z</time></trkpt><trkpt lat="40.9044617" lon="14.2603933"><ele>90.0</ele><time>2026-05-02T14:40:37.305Z</time></trkpt><trkpt lat="40.9043817" lon="14.2605183"><ele>90.0</ele><time>2026-05-02T14:40:38.307Z</time></trkpt><trkpt lat="40.9042983" lon="14.260645"><ele>90.0</ele><time>2026-05-02T14:40:39.308Z</time></trkpt><trkpt lat="40.9042117" lon="14.2607683"><ele>90.25</ele><time>2026-05-02T14:40:40.307Z</time></trkpt><trkpt lat="40.9041233" lon="14.2608933"><ele>90.5</ele><time>2026-05-02T14:40:41.307Z</time></trkpt><trkpt lat="40.9040317" lon="14.2610217"><ele>90.75</ele><time>2026-05-02T14:40:42.308Z</time></trkpt><trkpt lat="40.90394" lon="14.2611483"><ele>91.0</ele><time>2026-05-02T14:40:43.305Z</time></trkpt><trkpt lat="40.90385" lon="14.2612767"><ele>91.0</ele><time>2026-05-02T14:40:44.304Z</time></trkpt><trkpt lat="40.903765" lon="14.2614017"><ele>91.0</ele><time>2026-05-02T14:40:45.305Z</time></trkpt><trkpt lat="40.9036783" lon="14.26153"><ele>91.0</ele><time>2026-05-02T14:40:46.306Z</time></trkpt><trkpt lat="40.9035933" lon="14.261655"><ele>91.0</ele><time>2026-05-02T14:40:47.306Z</time></trkpt><trkpt lat="40.90351" lon="14.2617817"><ele>91.19999999999999</ele><time>2026-05-02T14:40:48.305Z</time></trkpt><trkpt lat="40.9034267" lon="14.2618983"><ele>91.39999999999999</ele><time>2026-05-02T14:40:49.306Z</time></trkpt><trkpt lat="40.9033417" lon="14.2619967"><ele>91.6</ele><time>2026-05-02T14:40:50.306Z</time></trkpt><trkpt lat="40.9032533" lon="14.2620767"><ele>91.8</ele><time>2026-05-02T14:40:51.305Z</time></trkpt><trkpt lat="40.9031567" lon="14.2621333"><ele>92.0</ele><time>2026-05-02T14:40:52.306Z</time></trkpt><trkpt lat="40.9030567" lon="14.2621617"><ele>91.5</ele><time>2026-05-02T14:40:53.306Z</time></trkpt><trkpt lat="40.9029617" lon="14.2621767"><ele>91.0</ele><time>2026-05-02T14:40:54.305Z</time></trkpt><trkpt lat="40.9028733" lon="14.262195"><ele>90.5</ele><time>2026-05-02T14:40:55.305Z</time></trkpt><trkpt lat="40.9027883" lon="14.2622183"><ele>90.0</ele><time>2026-05-02T14:40:56.306Z</time></trkpt><trkpt lat="40.9027067" lon="14.2622517"><ele>89.5</ele><time>2026-05-02T14:40:57.303Z</time></trkpt><trkpt lat="40.9026333" lon="14.2623033"><ele>89.0</ele><time>2026-05-02T14:40:58.306Z</time></trkpt><trkpt lat="40.90257" lon="14.2623767"><ele>88.83333333333334</ele><time>2026-05-02T14:40:59.304Z</time></trkpt><trkpt lat="40.9025167" lon="14.262465"><ele>88.66666666666667</ele><time>2026-05-02T14:41:00.305Z</time></trkpt><trkpt lat="40.9024733" lon="14.26256"><ele>88.5</ele><time>2026-05-02T14:41:01.306Z</time></trkpt><trkpt lat="40.9024383" lon="14.2626583"><ele>88.33333333333333</ele><time>2026-05-02T14:41:02.305Z</time></trkpt><trkpt lat="40.9024133" lon="14.2627617"><ele>88.16666666666666</ele><time>2026-05-02T14:41:03.307Z</time></trkpt><trkpt lat="40.9023967" lon="14.26287"><ele>88.0</ele><time>2026-05-02T14:41:04.307Z</time></trkpt><trkpt lat="40.90238" lon="14.2629817"><ele>88.0</ele><time>2026-05-02T14:41:05.309Z</time></trkpt><trkpt lat="40.9023633" lon="14.2630933"><ele>88.0</ele><time>2026-05-02T14:41:06.304Z</time></trkpt><trkpt lat="40.9023433" lon="14.2632017"><ele>88.0</ele><time>2026-05-02T14:41:07.305Z</time></trkpt><trkpt lat="40.9023267" lon="14.2633083"><ele>88.0</ele><time>2026-05-02T14:41:08.304Z</time></trkpt><trkpt lat="40.90231" lon="14.2634167"><ele>88.0</ele><time>2026-05-02T14:41:09.307Z</time></trkpt><trkpt lat="40.90229" lon="14.2635267"><ele>88.0</ele><time>2026-05-02T14:41:10.304Z</time></trkpt><trkpt lat="40.90226" lon="14.26363"><ele>88.16666666666666</ele><time>2026-05-02T14:41:11.305Z</time></trkpt><trkpt lat="40.9022233" lon="14.26373"><ele>88.33333333333333</ele><time>2026-05-02T14:41:12.306Z</time></trkpt><trkpt lat="40.90218" lon="14.26383"><ele>88.5</ele><time>2026-05-02T14:41:13.306Z</time></trkpt><trkpt lat="40.90213" lon="14.2639283"><ele>88.66666666666667</ele><time>2026-05-02T14:41:14.308Z</time></trkpt><trkpt lat="40.9020767" lon="14.2640233"><ele>88.83333333333334</ele><time>2026-05-02T14:41:15.307Z</time></trkpt><trkpt lat="40.90202" lon="14.2641167"><ele>89.0</ele><time>2026-05-02T14:41:16.305Z</time></trkpt><trkpt lat="40.90196" lon="14.264205"><ele>89.0</ele><time>2026-05-02T14:41:17.306Z</time></trkpt><trkpt lat="40.9018983" lon="14.2642983"><ele>89.0</ele><time>2026-05-02T14:41:18.306Z</time></trkpt><trkpt lat="40.9018383" lon="14.2643933"><ele>89.0</ele><time>2026-05-02T14:41:19.306Z</time></trkpt><trkpt lat="40.9017783" lon="14.2644883"><ele>89.0</ele><time>2026-05-02T14:41:20.306Z</time></trkpt><trkpt lat="40.9017183" lon="14.2645867"><ele>89.0</ele><time>2026-05-02T14:41:21.306Z</time></trkpt><trkpt lat="40.901655" lon="14.264685"><ele>89.4</ele><time>2026-05-02T14:41:22.306Z</time></trkpt><trkpt lat="40.9015933" lon="14.264785"><ele>89.80000000000001</ele><time>2026-05-02T14:41:23.306Z</time></trkpt><trkpt lat="40.9015283" lon="14.2648817"><ele>90.19999999999999</ele><time>2026-05-02T14:41:24.306Z</time></trkpt><trkpt lat="40.901465" lon="14.2649767"><ele>90.6</ele><time>2026-05-02T14:41:25.307Z</time></trkpt><trkpt lat="40.901405" lon="14.2650683"><ele>91.0</ele><time>2026-05-02T14:41:26.307Z</time></trkpt><trkpt lat="40.9013467" lon="14.265165"><ele>91.0</ele><time>2026-05-02T14:41:27.305Z</time></trkpt><trkpt lat="40.9012833" lon="14.265265"><ele>91.0</ele><time>2026-05-02T14:41:28.307Z</time></trkpt><trkpt lat="40.9012183" lon="14.2653633"><ele>91.0</ele><time>2026-05-02T14:41:29.308Z</time></trkpt><trkpt lat="40.901155" lon="14.2654667"><ele>91.0</ele><time>2026-05-02T14:41:30.307Z</time></trkpt><trkpt lat="40.9010933" lon="14.26557"><ele>91.0</ele><time>2026-05-02T14:41:31.307Z</time></trkpt><trkpt lat="40.90103" lon="14.265675"><ele>90.8</ele><time>2026-05-02T14:41:32.307Z</time></trkpt><trkpt lat="40.9009683" lon="14.2657783"><ele>90.6</ele><time>2026-05-02T14:41:33.307Z</time></trkpt><trkpt lat="40.9009067" lon="14.2658783"><ele>90.4</ele><time>2026-05-02T14:41:34.306Z</time></trkpt><trkpt lat="40.900845" lon="14.26598"><ele>90.2</ele><time>2026-05-02T14:41:35.306Z</time></trkpt><trkpt lat="40.9007817" lon="14.2660817"><ele>90.0</ele><time>2026-05-02T14:41:36.306Z</time></trkpt><trkpt lat="40.90072" lon="14.2661867"><ele>89.8</ele><time>2026-05-02T14:41:37.306Z</time></trkpt><trkpt lat="40.9006583" lon="14.2662917"><ele>89.6</ele><time>2026-05-02T14:41:38.307Z</time></trkpt><trkpt lat="40.900595" lon="14.266395"><ele>89.4</ele><time>2026-05-02T14:41:39.307Z</time></trkpt><trkpt lat="40.9005317" lon="14.2664983"><ele>89.2</ele><time>2026-05-02T14:41:40.307Z</time></trkpt><trkpt lat="40.9004633" lon="14.2665967"><ele>89.0</ele><time>2026-05-02T14:41:41.308Z</time></trkpt><trkpt lat="40.900395" lon="14.266695"><ele>89.0</ele><time>2026-05-02T14:41:42.308Z</time></trkpt><trkpt lat="40.9003283" lon="14.2667933"><ele>89.0</ele><time>2026-05-02T14:41:43.309Z</time></trkpt><trkpt lat="40.900265" lon="14.266895"><ele>89.0</ele><time>2026-05-02T14:41:44.307Z</time></trkpt><trkpt lat="40.9001967" lon="14.2669933"><ele>89.0</ele><time>2026-05-02T14:41:45.307Z</time></trkpt><trkpt lat="40.9001267" lon="14.2670933"><ele>89.0</ele><time>2026-05-02T14:41:46.307Z</time></trkpt><trkpt lat="40.90006" lon="14.267195"><ele>88.80000000000001</ele><time>2026-05-02T14:41:47.306Z</time></trkpt><trkpt lat="40.8999933" lon="14.2672933"><ele>88.60000000000001</ele><time>2026-05-02T14:41:48.306Z</time></trkpt><trkpt lat="40.8999283" lon="14.2673967"><ele>88.4</ele><time>2026-05-02T14:41:49.305Z</time></trkpt><trkpt lat="40.89986" lon="14.2674967"><ele>88.2</ele><time>2026-05-02T14:41:50.304Z</time></trkpt><trkpt lat="40.8997933" lon="14.2675933"><ele>88.0</ele><time>2026-05-02T14:41:51.305Z</time></trkpt><trkpt lat="40.8997267" lon="14.2676917"><ele>88.0</ele><time>2026-05-02T14:41:52.306Z</time></trkpt><trkpt lat="40.8996617" lon="14.26779"><ele>88.0</ele><time>2026-05-02T14:41:53.308Z</time></trkpt><trkpt lat="40.8995983" lon="14.267885"><ele>88.0</ele><time>2026-05-02T14:41:54.306Z</time></trkpt><trkpt lat="40.8995367" lon="14.267985"><ele>88.0</ele><time>2026-05-02T14:41:55.307Z</time></trkpt><trkpt lat="40.899475" lon="14.26808"><ele>88.0</ele><time>2026-05-02T14:41:56.306Z</time></trkpt><trkpt lat="40.8994083" lon="14.26817"><ele>88.0</ele><time>2026-05-02T14:41:57.308Z</time></trkpt><trkpt lat="40.8993383" lon="14.268255"><ele>88.0</ele><time>2026-05-02T14:41:58.306Z</time></trkpt><trkpt lat="40.8992583" lon="14.2683217"><ele>88.0</ele><time>2026-05-02T14:41:59.306Z</time></trkpt><trkpt lat="40.8991783" lon="14.2683767"><ele>88.0</ele><time>2026-05-02T14:42:00.307Z</time></trkpt><trkpt lat="40.8990983" lon="14.2684217"><ele>88.0</ele><time>2026-05-02T14:42:01.306Z</time></trkpt><trkpt lat="40.8990167" lon="14.2684633"><ele>88.16666666666666</ele><time>2026-05-02T14:42:02.305Z</time></trkpt><trkpt lat="40.898935" lon="14.2685133"><ele>88.33333333333333</ele><time>2026-05-02T14:42:03.305Z</time></trkpt><trkpt lat="40.8988617" lon="14.26857"><ele>88.5</ele><time>2026-05-02T14:42:04.304Z</time></trkpt><trkpt lat="40.8987983" lon="14.2686367"><ele>88.66666666666667</ele><time>2026-05-02T14:42:05.306Z</time></trkpt><trkpt lat="40.8987367" lon="14.268705"><ele>88.83333333333334</ele><time>2026-05-02T14:42:06.303Z</time></trkpt><trkpt lat="40.89868" lon="14.268775"><ele>89.0</ele><time>2026-05-02T14:42:07.303Z</time></trkpt><trkpt lat="40.8986483" lon="14.2688567"><ele>89.16666666666667</ele><time>2026-05-02T14:42:08.301Z</time></trkpt><trkpt lat="40.8986283" lon="14.2689667"><ele>89.33333333333334</ele><time>2026-05-02T14:42:09.302Z</time></trkpt><trkpt lat="40.898625" lon="14.2690767"><ele>89.5</ele><time>2026-05-02T14:42:10.307Z</time></trkpt><trkpt lat="40.8986117" lon="14.2691967"><ele>89.66666666666667</ele><time>2026-05-02T14:42:11.303Z</time></trkpt><trkpt lat="40.8985983" lon="14.269305"><ele>89.83333333333333</ele><time>2026-05-02T14:42:12.304Z</time></trkpt><trkpt lat="40.8985683" lon="14.269405"><ele>90.0</ele><time>2026-05-02T14:42:13.306Z</time></trkpt><trkpt lat="40.89852" lon="14.2695033"><ele>90.0</ele><time>2026-05-02T14:42:14.302Z</time></trkpt><trkpt lat="40.8984633" lon="14.2695817"><ele>90.0</ele><time>2026-05-02T14:42:15.487Z</time></trkpt><trkpt lat="40.898355" lon="14.2697533"><ele>90.0</ele><time>2026-05-02T14:42:17.302Z</time></trkpt><trkpt lat="40.8983" lon="14.26984"><ele>90.0</ele><time>2026-05-02T14:42:18.303Z</time></trkpt><trkpt lat="40.8982467" lon="14.2699283"><ele>90.0</ele><time>2026-05-02T14:42:19.303Z</time></trkpt><trkpt lat="40.898195" lon="14.2700167"><ele>90.0</ele><time>2026-05-02T14:42:20.302Z</time></trkpt><trkpt lat="40.89808" lon="14.2701783"><ele>90.0</ele><time>2026-05-02T14:42:22.303Z</time></trkpt><trkpt lat="40.897975" lon="14.2703483"><ele>90.0</ele><time>2026-05-02T14:42:24.304Z</time></trkpt><trkpt lat="40.897925" lon="14.2704367"><ele>90.0</ele><time>2026-05-02T14:42:25.3Z</time></trkpt><trkpt lat="40.8978717" lon="14.270525"><ele>90.2</ele><time>2026-05-02T14:42:26.302Z</time></trkpt><trkpt lat="40.8978283" lon="14.27062"><ele>90.4</ele><time>2026-05-02T14:42:27.301Z</time></trkpt><trkpt lat="40.8977767" lon="14.27072"><ele>90.6</ele><time>2026-05-02T14:42:28.302Z</time></trkpt><trkpt lat="40.8977283" lon="14.2708267"><ele>90.8</ele><time>2026-05-02T14:42:29.302Z</time></trkpt><trkpt lat="40.8976833" lon="14.2709317"><ele>91.0</ele><time>2026-05-02T14:42:30.304Z</time></trkpt><trkpt lat="40.8976267" lon="14.2710317"><ele>90.8</ele><time>2026-05-02T14:42:31.303Z</time></trkpt><trkpt lat="40.8975633" lon="14.2711267"><ele>90.6</ele><time>2026-05-02T14:42:32.302Z</time></trkpt><trkpt lat="40.8975017" lon="14.271225"><ele>90.4</ele><time>2026-05-02T14:42:33.302Z</time></trkpt><trkpt lat="40.8974483" lon="14.2713283"><ele>90.2</ele><time>2026-05-02T14:42:34.303Z</time></trkpt><trkpt lat="40.8974083" lon="14.2714417"><ele>90.0</ele><time>2026-05-02T14:42:35.304Z</time></trkpt><trkpt lat="40.8973817" lon="14.2715633"><ele>90.0</ele><time>2026-05-02T14:42:36.303Z</time></trkpt><trkpt lat="40.897355" lon="14.2716833"><ele>90.0</ele><time>2026-05-02T14:42:37.303Z</time></trkpt><trkpt lat="40.8973267" lon="14.2718"><ele>90.0</ele><time>2026-05-02T14:42:38.301Z</time></trkpt><trkpt lat="40.8972933" lon="14.2719167"><ele>90.0</ele><time>2026-05-02T14:42:39.302Z</time></trkpt><trkpt lat="40.8972617" lon="14.272035"><ele>90.0</ele><time>2026-05-02T14:42:40.301Z</time></trkpt><trkpt lat="40.8972333" lon="14.27216"><ele>90.2</ele><time>2026-05-02T14:42:41.303Z</time></trkpt><trkpt lat="40.89721" lon="14.2722883"><ele>90.4</ele><time>2026-05-02T14:42:42.303Z</time></trkpt><trkpt lat="40.89719" lon="14.272415"><ele>90.6</ele><time>2026-05-02T14:42:43.302Z</time></trkpt><trkpt lat="40.8971767" lon="14.2725417"><ele>90.8</ele><time>2026-05-02T14:42:44.302Z</time></trkpt><trkpt lat="40.8971667" lon="14.2726683"><ele>91.0</ele><time>2026-05-02T14:42:45.302Z</time></trkpt><trkpt lat="40.8971583" lon="14.2727967"><ele>91.0</ele><time>2026-05-02T14:42:46.302Z</time></trkpt><trkpt lat="40.897155" lon="14.2729267"><ele>91.0</ele><time>2026-05-02T14:42:47.303Z</time></trkpt><trkpt lat="40.89715" lon="14.2730583"><ele>91.0</ele><time>2026-05-02T14:42:48.302Z</time></trkpt><trkpt lat="40.8971467" lon="14.273195"><ele>91.0</ele><time>2026-05-02T14:42:49.303Z</time></trkpt><trkpt lat="40.897145" lon="14.27333"><ele>91.0</ele><time>2026-05-02T14:42:50.302Z</time></trkpt><trkpt lat="40.897145" lon="14.2734667"><ele>91.6</ele><time>2026-05-02T14:42:51.303Z</time></trkpt><trkpt lat="40.897145" lon="14.2736067"><ele>92.19999999999999</ele><time>2026-05-02T14:42:52.303Z</time></trkpt><trkpt lat="40.897145" lon="14.2737467"><ele>92.80000000000001</ele><time>2026-05-02T14:42:53.303Z</time></trkpt><trkpt lat="40.8971467" lon="14.2738833"><ele>93.4</ele><time>2026-05-02T14:42:54.302Z</time></trkpt><trkpt lat="40.8971483" lon="14.2740217"><ele>94.0</ele><time>2026-05-02T14:42:55.302Z</time></trkpt><trkpt lat="40.8971533" lon="14.2741583"><ele>94.4</ele><time>2026-05-02T14:42:56.302Z</time></trkpt><trkpt lat="40.8971583" lon="14.2742967"><ele>94.80000000000001</ele><time>2026-05-02T14:42:57.302Z</time></trkpt><trkpt lat="40.8971633" lon="14.2744333"><ele>95.19999999999999</ele><time>2026-05-02T14:42:58.302Z</time></trkpt><trkpt lat="40.8971683" lon="14.27457"><ele>95.6</ele><time>2026-05-02T14:42:59.302Z</time></trkpt><trkpt lat="40.8971717" lon="14.2747067"><ele>96.0</ele><time>2026-05-02T14:43:00.302Z</time></trkpt><trkpt lat="40.8971683" lon="14.2748467"><ele>95.19999999999999</ele><time>2026-05-02T14:43:01.302Z</time></trkpt><trkpt lat="40.8971683" lon="14.2749867"><ele>94.39999999999999</ele><time>2026-05-02T14:43:02.303Z</time></trkpt><trkpt lat="40.8971733" lon="14.2751267"><ele>93.6</ele><time>2026-05-02T14:43:03.302Z</time></trkpt><trkpt lat="40.8971783" lon="14.275265"><ele>92.8</ele><time>2026-05-02T14:43:04.302Z</time></trkpt><trkpt lat="40.89718" lon="14.2754"><ele>92.0</ele><time>2026-05-02T14:43:05.302Z</time></trkpt><trkpt lat="40.897185" lon="14.275535"><ele>91.0</ele><time>2026-05-02T14:43:06.303Z</time></trkpt><trkpt lat="40.8971883" lon="14.27567"><ele>90.0</ele><time>2026-05-02T14:43:07.303Z</time></trkpt><trkpt lat="40.89719" lon="14.2758017"><ele>89.0</ele><time>2026-05-02T14:43:08.302Z</time></trkpt><trkpt lat="40.897195" lon="14.2759317"><ele>88.0</ele><time>2026-05-02T14:43:09.302Z</time></trkpt><trkpt lat="40.8971983" lon="14.2760667"><ele>87.0</ele><time>2026-05-02T14:43:10.301Z</time></trkpt><trkpt lat="40.8972" lon="14.2761983"><ele>87.0</ele><time>2026-05-02T14:43:11.302Z</time></trkpt><trkpt lat="40.8971983" lon="14.2763317"><ele>87.0</ele><time>2026-05-02T14:43:12.302Z</time></trkpt><trkpt lat="40.8971983" lon="14.276465"><ele>87.0</ele><time>2026-05-02T14:43:13.301Z</time></trkpt><trkpt lat="40.8971967" lon="14.2766017"><ele>87.0</ele><time>2026-05-02T14:43:14.302Z</time></trkpt><trkpt lat="40.897195" lon="14.2767333"><ele>87.0</ele><time>2026-05-02T14:43:15.302Z</time></trkpt><trkpt lat="40.897195" lon="14.2768633"><ele>86.8</ele><time>2026-05-02T14:43:16.302Z</time></trkpt><trkpt lat="40.8971933" lon="14.2769983"><ele>86.6</ele><time>2026-05-02T14:43:17.303Z</time></trkpt><trkpt lat="40.8971867" lon="14.277135"><ele>86.39999999999999</ele><time>2026-05-02T14:43:18.303Z</time></trkpt><trkpt lat="40.8971833" lon="14.2772717"><ele>86.19999999999999</ele><time>2026-05-02T14:43:19.302Z</time></trkpt><trkpt lat="40.8971833" lon="14.2774067"><ele>86.0</ele><time>2026-05-02T14:43:20.301Z</time></trkpt><trkpt lat="40.8971783" lon="14.2775417"><ele>85.8</ele><time>2026-05-02T14:43:21.302Z</time></trkpt><trkpt lat="40.897175" lon="14.2776767"><ele>85.6</ele><time>2026-05-02T14:43:22.303Z</time></trkpt><trkpt lat="40.897175" lon="14.27781"><ele>85.4</ele><time>2026-05-02T14:43:23.306Z</time></trkpt><trkpt lat="40.8971767" lon="14.277945"><ele>85.2</ele><time>2026-05-02T14:43:24.304Z</time></trkpt><trkpt lat="40.8971767" lon="14.278085"><ele>85.0</ele><time>2026-05-02T14:43:25.302Z</time></trkpt><trkpt lat="40.8971783" lon="14.2782233"><ele>85.0</ele><time>2026-05-02T14:43:26.302Z</time></trkpt><trkpt lat="40.89718" lon="14.2783583"><ele>85.0</ele><time>2026-05-02T14:43:27.303Z</time></trkpt><trkpt lat="40.89718" lon="14.2784917"><ele>85.0</ele><time>2026-05-02T14:43:28.302Z</time></trkpt><trkpt lat="40.897185" lon="14.278625"><ele>85.0</ele><time>2026-05-02T14:43:29.303Z</time></trkpt><trkpt lat="40.89718" lon="14.27876"><ele>85.0</ele><time>2026-05-02T14:43:30.303Z</time></trkpt><trkpt lat="40.8971767" lon="14.278895"><ele>84.8</ele><time>2026-05-02T14:43:31.302Z</time></trkpt><trkpt lat="40.89717" lon="14.279025"><ele>84.6</ele><time>2026-05-02T14:43:32.302Z</time></trkpt><trkpt lat="40.8971567" lon="14.2791533"><ele>84.4</ele><time>2026-05-02T14:43:33.302Z</time></trkpt><trkpt lat="40.8971417" lon="14.27928"><ele>84.2</ele><time>2026-05-02T14:43:34.302Z</time></trkpt><trkpt lat="40.8971233" lon="14.2794117"><ele>84.0</ele><time>2026-05-02T14:43:35.303Z</time></trkpt><trkpt lat="40.897105" lon="14.27954"><ele>84.0</ele><time>2026-05-02T14:43:36.302Z</time></trkpt><trkpt lat="40.8970817" lon="14.279665"><ele>84.0</ele><time>2026-05-02T14:43:37.303Z</time></trkpt><trkpt lat="40.8970567" lon="14.2797883"><ele>84.0</ele><time>2026-05-02T14:43:38.303Z</time></trkpt><trkpt lat="40.8970267" lon="14.2799083"><ele>84.0</ele><time>2026-05-02T14:43:39.301Z</time></trkpt><trkpt lat="40.89699" lon="14.2800233"><ele>84.0</ele><time>2026-05-02T14:43:40.302Z</time></trkpt><trkpt lat="40.896945" lon="14.2801367"><ele>84.0</ele><time>2026-05-02T14:43:41.302Z</time></trkpt><trkpt lat="40.8968967" lon="14.2802467"><ele>84.0</ele><time>2026-05-02T14:43:42.302Z</time></trkpt><trkpt lat="40.8968417" lon="14.2803567"><ele>84.0</ele><time>2026-05-02T14:43:43.301Z</time></trkpt><trkpt lat="40.8967833" lon="14.2804583"><ele>84.0</ele><time>2026-05-02T14:43:44.303Z</time></trkpt><trkpt lat="40.896725" lon="14.2805617"><ele>84.0</ele><time>2026-05-02T14:43:45.302Z</time></trkpt><trkpt lat="40.896665" lon="14.280665"><ele>84.0</ele><time>2026-05-02T14:43:46.301Z</time></trkpt><trkpt lat="40.8965933" lon="14.2807617"><ele>84.0</ele><time>2026-05-02T14:43:47.302Z</time></trkpt><trkpt lat="40.8965183" lon="14.280845"><ele>84.0</ele><time>2026-05-02T14:43:48.304Z</time></trkpt><trkpt lat="40.8964367" lon="14.280915"><ele>84.0</ele><time>2026-05-02T14:43:49.302Z</time></trkpt><trkpt lat="40.8963517" lon="14.2809733"><ele>84.0</ele><time>2026-05-02T14:43:50.303Z</time></trkpt><trkpt lat="40.896265" lon="14.281025"><ele>84.0</ele><time>2026-05-02T14:43:51.303Z</time></trkpt><trkpt lat="40.8961783" lon="14.2810717"><ele>84.0</ele><time>2026-05-02T14:43:52.303Z</time></trkpt><trkpt lat="40.8960867" lon="14.28111"><ele>84.0</ele><time>2026-05-02T14:43:53.303Z</time></trkpt><trkpt lat="40.895995" lon="14.28114"><ele>84.0</ele><time>2026-05-02T14:43:54.303Z</time></trkpt><trkpt lat="40.8959" lon="14.2811683"><ele>84.0</ele><time>2026-05-02T14:43:55.302Z</time></trkpt><trkpt lat="40.895805" lon="14.2812017"><ele>83.6</ele><time>2026-05-02T14:43:56.303Z</time></trkpt><trkpt lat="40.89571" lon="14.2812383"><ele>83.2</ele><time>2026-05-02T14:43:57.301Z</time></trkpt><trkpt lat="40.8956167" lon="14.2812917"><ele>82.8</ele><time>2026-05-02T14:43:58.303Z</time></trkpt><trkpt lat="40.8955267" lon="14.2813533"><ele>82.39999999999999</ele><time>2026-05-02T14:43:59.303Z</time></trkpt><trkpt lat="40.8954417" lon="14.2814017"><ele>82.0</ele><time>2026-05-02T14:44:00.302Z</time></trkpt><trkpt lat="40.8953667" lon="14.2814383"><ele>81.6</ele><time>2026-05-02T14:44:01.303Z</time></trkpt><trkpt lat="40.8952583" lon="14.2814883"><ele>81.19999999999999</ele><time>2026-05-02T14:44:03.303Z</time></trkpt><trkpt lat="40.8952083" lon="14.2815433"><ele>80.8</ele><time>2026-05-02T14:44:05.303Z</time></trkpt><trkpt lat="40.895225" lon="14.2816667"><ele>80.4</ele><time>2026-05-02T14:44:08.303Z</time></trkpt><trkpt lat="40.8952817" lon="14.28176"><ele>80.0</ele><time>2026-05-02T14:44:10.302Z</time></trkpt><trkpt lat="40.89536" lon="14.2818667"><ele>80.0</ele><time>2026-05-02T14:44:12.302Z</time></trkpt><trkpt lat="40.89545" lon="14.2819617"><ele>80.0</ele><time>2026-05-02T14:44:14.303Z</time></trkpt><trkpt lat="40.8955517" lon="14.2820567"><ele>80.0</ele><time>2026-05-02T14:44:16.303Z</time></trkpt><trkpt lat="40.8956517" lon="14.2821567"><ele>80.0</ele><time>2026-05-02T14:44:18.303Z</time></trkpt><trkpt lat="40.895755" lon="14.2822533"><ele>80.0</ele><time>2026-05-02T14:44:20.311Z</time></trkpt><trkpt lat="40.895855" lon="14.2823483"><ele>80.0</ele><time>2026-05-02T14:44:22.304Z</time></trkpt><trkpt lat="40.8959583" lon="14.2824383"><ele>80.0</ele><time>2026-05-02T14:44:24.303Z</time></trkpt><trkpt lat="40.8960117" lon="14.2824867"><ele>80.0</ele><time>2026-05-02T14:44:25.301Z</time></trkpt><trkpt lat="40.896075" lon="14.2825483"><ele>80.0</ele><time>2026-05-02T14:44:26.302Z</time></trkpt><trkpt lat="40.8961433" lon="14.2826083"><ele>80.16666666666667</ele><time>2026-05-02T14:44:27.302Z</time></trkpt><trkpt lat="40.8962067" lon="14.282675"><ele>80.33333333333334</ele><time>2026-05-02T14:44:28.303Z</time></trkpt><trkpt lat="40.8962633" lon="14.2827333"><ele>80.5</ele><time>2026-05-02T14:44:29.303Z</time></trkpt><trkpt lat="40.89632" lon="14.2827917"><ele>80.66666666666667</ele><time>2026-05-02T14:44:30.303Z</time></trkpt><trkpt lat="40.8963833" lon="14.282845"><ele>80.83333333333333</ele><time>2026-05-02T14:44:31.303Z</time></trkpt><trkpt lat="40.896445" lon="14.2829"><ele>81.0</ele><time>2026-05-02T14:44:32.303Z</time></trkpt><trkpt lat="40.8965083" lon="14.2829633"><ele>81.0</ele><time>2026-05-02T14:44:33.301Z</time></trkpt><trkpt lat="40.89657" lon="14.28302"><ele>81.0</ele><time>2026-05-02T14:44:34.303Z</time></trkpt><trkpt lat="40.8966283" lon="14.283075"><ele>81.0</ele><time>2026-05-02T14:44:35.303Z</time></trkpt><trkpt lat="40.89669" lon="14.2831333"><ele>81.0</ele><time>2026-05-02T14:44:36.303Z</time></trkpt><trkpt lat="40.89675" lon="14.28319"><ele>81.0</ele><time>2026-05-02T14:44:37.303Z</time></trkpt><trkpt lat="40.89681" lon="14.2832467"><ele>81.0</ele><time>2026-05-02T14:44:38.303Z</time></trkpt><trkpt lat="40.8968683" lon="14.2833017"><ele>81.0</ele><time>2026-05-02T14:44:39.302Z</time></trkpt><trkpt lat="40.8969283" lon="14.28335"><ele>81.0</ele><time>2026-05-02T14:44:40.303Z</time></trkpt><trkpt lat="40.89699" lon="14.2834017"><ele>81.0</ele><time>2026-05-02T14:44:41.303Z</time></trkpt><trkpt lat="40.8970467" lon="14.2834517"><ele>81.0</ele><time>2026-05-02T14:44:42.303Z</time></trkpt><trkpt lat="40.8971017" lon="14.2835067"><ele>81.0</ele><time>2026-05-02T14:44:43.303Z</time></trkpt><trkpt lat="40.8971567" lon="14.2835633"><ele>81.0</ele><time>2026-05-02T14:44:44.302Z</time></trkpt><trkpt lat="40.897215" lon="14.283615"><ele>81.0</ele><time>2026-05-02T14:44:45.303Z</time></trkpt><trkpt lat="40.8972717" lon="14.2836667"><ele>81.0</ele><time>2026-05-02T14:44:46.302Z</time></trkpt><trkpt lat="40.89733" lon="14.2837167"><ele>81.0</ele><time>2026-05-02T14:44:47.303Z</time></trkpt><trkpt lat="40.8973883" lon="14.28377"><ele>81.0</ele><time>2026-05-02T14:44:48.303Z</time></trkpt><trkpt lat="40.8974433" lon="14.2838233"><ele>81.0</ele><time>2026-05-02T14:44:49.303Z</time></trkpt><trkpt lat="40.897545" lon="14.283915"><ele>81.0</ele><time>2026-05-02T14:44:51.303Z</time></trkpt><trkpt lat="40.8976433" lon="14.2840083"><ele>81.0</ele><time>2026-05-02T14:44:53.303Z</time></trkpt><trkpt lat="40.8977417" lon="14.2840917"><ele>80.39999999999999</ele><time>2026-05-02T14:44:55.304Z</time></trkpt><trkpt lat="40.8978317" lon="14.284185"><ele>79.8</ele><time>2026-05-02T14:44:57.301Z</time></trkpt><trkpt lat="40.8979283" lon="14.2842783"><ele>79.19999999999999</ele><time>2026-05-02T14:44:59.304Z</time></trkpt><trkpt lat="40.89801" lon="14.284365"><ele>78.6</ele><time>2026-05-02T14:45:01.303Z</time></trkpt><trkpt lat="40.8980433" lon="14.28445"><ele>78.0</ele><time>2026-05-02T14:45:04.302Z</time></trkpt><trkpt lat="40.8979817" lon="14.2845333"><ele>78.0</ele><time>2026-05-02T14:45:08.303Z</time></trkpt><trkpt lat="40.8979167" lon="14.2845967"><ele>78.0</ele><time>2026-05-02T14:45:10.302Z</time></trkpt><trkpt lat="40.897845" lon="14.2846783"><ele>78.0</ele><time>2026-05-02T14:45:12.302Z</time></trkpt><trkpt lat="40.8977717" lon="14.2847833"><ele>78.0</ele><time>2026-05-02T14:45:14.303Z</time></trkpt><trkpt lat="40.8977033" lon="14.2848717"><ele>78.0</ele><time>2026-05-02T14:45:16.303Z</time></trkpt><trkpt lat="40.897645" lon="14.2849683"><ele>78.5</ele><time>2026-05-02T14:45:18.304Z</time></trkpt><trkpt lat="40.8975783" lon="14.2850483"><ele>79.0</ele><time>2026-05-02T14:45:20.303Z</time></trkpt><trkpt lat="40.89753" lon="14.2851417"><ele>79.5</ele><time>2026-05-02T14:45:22.303Z</time></trkpt><trkpt lat="40.89748" lon="14.2852233"><ele>80.0</ele><time>2026-05-02T14:45:24.304Z</time></trkpt><trkpt lat="40.8974367" lon="14.2852967"><ele>80.5</ele><time>2026-05-02T14:45:26.302Z</time></trkpt><trkpt lat="40.8973917" lon="14.2853633"><ele>81.0</ele><time>2026-05-02T14:45:28.303Z</time></trkpt><trkpt lat="40.8973417" lon="14.285435"><ele>81.0</ele><time>2026-05-02T14:45:30.304Z</time></trkpt><trkpt lat="40.8972917" lon="14.2855333"><ele>81.0</ele><time>2026-05-02T14:45:32.303Z</time></trkpt><trkpt lat="40.897245" lon="14.2856283"><ele>81.0</ele><time>2026-05-02T14:45:34.304Z</time></trkpt><trkpt lat="40.8971883" lon="14.2857117"><ele>81.0</ele><time>2026-05-02T14:45:36.304Z</time></trkpt><trkpt lat="40.8971267" lon="14.285795"><ele>81.0</ele><time>2026-05-02T14:45:38.302Z</time></trkpt><trkpt lat="40.89703" lon="14.2859333"><ele>81.0</ele><time>2026-05-02T14:45:41.303Z</time></trkpt><trkpt lat="40.8969817" lon="14.2860267"><ele>81.0</ele><time>2026-05-02T14:45:43.304Z</time></trkpt><trkpt lat="40.8969317" lon="14.2861117"><ele>81.0</ele><time>2026-05-02T14:45:45.306Z</time></trkpt><trkpt lat="40.8968767" lon="14.286205"><ele>81.0</ele><time>2026-05-02T14:45:47.307Z</time></trkpt><trkpt lat="40.896835" lon="14.286305"><ele>81.0</ele><time>2026-05-02T14:45:49.306Z</time></trkpt><trkpt lat="40.8967817" lon="14.2863983"><ele>81.0</ele><time>2026-05-02T14:45:51.304Z</time></trkpt><trkpt lat="40.8967133" lon="14.286445"><ele>81.0</ele><time>2026-05-02T14:45:53.303Z</time></trkpt></trkseg></trk></gpx>